﻿<?xml version="1.0" encoding="UTF-8"?>
<gpx version="v1.1.5" creator="iTravel Tech Inc. - http://www.itravel-tech.com" xmlns:xsi="http://www.w3.org/2001/XMLSchema-instance" xmlns="http://www.topografix.com/GPX/1/1" xsi:schemaLocation="http://www.topografix.com/GPX/1/1 http://www.topografix.com/GPX/1/1/gpx.xsd http://www.topografix.com/GPX/gpx_overlay/0/3 http://www.topografix.com/GPX/gpx_overlay/0/3/gpx_overlay.xsd http://www.topografix.com/GPX/gpx_modified/0/1 http://www.topografix.com/GPX/gpx_modified/0/1/gpx_modified.xsd">
<trk>
<name>Holux2011/04/29_08:09</name>
<trkseg>
<trkpt lat="21.745958" lon="104.941154">
<ele>174.314575</ele>
<time>2011-04-29T05:09:25Z</time>
<desc>lat.=21.745958, lon.=104.941154, Alt.=174.314575m. Speed=0.288000m/h.</desc>
<speed>0.080000</speed>
</trkpt>
<trkpt lat="21.745947" lon="104.941162">
<ele>174.314575</ele>
<time>2011-04-29T05:09:30Z</time>
<desc>lat.=21.745947, lon.=104.941162, Alt.=174.314575m. Speed=0.036000m/h.</desc>
<speed>0.010000</speed>
</trkpt>
<trkpt lat="21.745916" lon="104.941154">
<ele>174.298950</ele>
<time>2011-04-29T05:09:35Z</time>
<desc>lat.=21.745916, lon.=104.941154, Alt.=174.298950m. Speed=0.216000m/h.</desc>
<speed>0.060000</speed>
</trkpt>
<trkpt lat="21.745924" lon="104.941147">
<ele>174.361450</ele>
<time>2011-04-29T05:09:40Z</time>
<desc>lat.=21.745924, lon.=104.941147, Alt.=174.361450m. Speed=0.288000m/h.</desc>
<speed>0.080000</speed>
</trkpt>
<trkpt lat="21.745880" lon="104.941139">
<ele>174.373169</ele>
<time>2011-04-29T05:09:45Z</time>
<desc>lat.=21.745880, lon.=104.941139, Alt.=174.373169m. Speed=0.324000m/h.</desc>
<speed>0.090000</speed>
</trkpt>
<trkpt lat="21.745844" lon="104.941162">
<ele>174.384888</ele>
<time>2011-04-29T05:09:50Z</time>
<desc>lat.=21.745844, lon.=104.941162, Alt.=174.384888m. Speed=0.504000m/h.</desc>
<speed>0.140000</speed>
</trkpt>
<trkpt lat="21.745836" lon="104.941185">
<ele>174.310669</ele>
<time>2011-04-29T05:09:55Z</time>
<desc>lat.=21.745836, lon.=104.941185, Alt.=174.310669m. Speed=0.756000m/h.</desc>
<speed>0.210000</speed>
</trkpt>
<trkpt lat="21.745825" lon="104.941200">
<ele>174.302856</ele>
<time>2011-04-29T05:10:00Z</time>
<desc>lat.=21.745825, lon.=104.941200, Alt.=174.302856m. Speed=0.972000m/h.</desc>
<speed>0.270000</speed>
</trkpt>
<trkpt lat="21.745815" lon="104.941200">
<ele>174.298950</ele>
<time>2011-04-29T05:10:05Z</time>
<desc>lat.=21.745815, lon.=104.941200, Alt.=174.298950m. Speed=0.936000m/h.</desc>
<speed>0.260000</speed>
</trkpt>
<trkpt lat="21.745806" lon="104.941200">
<ele>174.291138</ele>
<time>2011-04-29T05:10:10Z</time>
<desc>lat.=21.745806, lon.=104.941200, Alt.=174.291138m. Speed=0.720000m/h.</desc>
<speed>0.200000</speed>
</trkpt>
<trkpt lat="21.745804" lon="104.941208">
<ele>174.287231</ele>
<time>2011-04-29T05:10:15Z</time>
<desc>lat.=21.745804, lon.=104.941208, Alt.=174.287231m. Speed=0.396000m/h.</desc>
<speed>0.110000</speed>
</trkpt>
<trkpt lat="21.745810" lon="104.941208">
<ele>174.283325</ele>
<time>2011-04-29T05:10:20Z</time>
<desc>lat.=21.745810, lon.=104.941208, Alt.=174.283325m. Speed=1.188000m/h.</desc>
<speed>0.330000</speed>
</trkpt>
<trkpt lat="21.745874" lon="104.941170">
<ele>174.084106</ele>
<time>2011-04-29T05:10:25Z</time>
<desc>lat.=21.745874, lon.=104.941170, Alt.=174.084106m. Speed=1.908000m/h.</desc>
<speed>0.530000</speed>
</trkpt>
<trkpt lat="21.745916" lon="104.941124">
<ele>173.963013</ele>
<time>2011-04-29T05:10:30Z</time>
<desc>lat.=21.745916, lon.=104.941124, Alt.=173.963013m. Speed=1.980000m/h.</desc>
<speed>0.550000</speed>
</trkpt>
<trkpt lat="21.745935" lon="104.941109">
<ele>173.806763</ele>
<time>2011-04-29T05:10:35Z</time>
<desc>lat.=21.745935, lon.=104.941109, Alt.=173.806763m. Speed=1.656000m/h.</desc>
<speed>0.460000</speed>
</trkpt>
<trkpt lat="21.745962" lon="104.941093">
<ele>173.607544</ele>
<time>2011-04-29T05:10:40Z</time>
<desc>lat.=21.745962, lon.=104.941093, Alt.=173.607544m. Speed=1.476000m/h.</desc>
<speed>0.410000</speed>
</trkpt>
<trkpt lat="21.745975" lon="104.941101">
<ele>173.423950</ele>
<time>2011-04-29T05:10:45Z</time>
<desc>lat.=21.745975, lon.=104.941101, Alt.=173.423950m. Speed=1.080000m/h.</desc>
<speed>0.300000</speed>
</trkpt>
<trkpt lat="21.745993" lon="104.941109">
<ele>173.322388</ele>
<time>2011-04-29T05:10:50Z</time>
<desc>lat.=21.745993, lon.=104.941109, Alt.=173.322388m. Speed=0.972000m/h.</desc>
<speed>0.270000</speed>
</trkpt>
<trkpt lat="21.746311" lon="104.941261">
<ele>58.419464</ele>
<time>2011-04-29T05:10:55Z</time>
<desc>lat.=21.746311, lon.=104.941261, Alt.=58.419464m. Speed=0.324000m/h.</desc>
<speed>0.090000</speed>
</trkpt>
<trkpt lat="21.746302" lon="104.941261">
<ele>58.914581</ele>
<time>2011-04-29T05:11:00Z</time>
<desc>lat.=21.746302, lon.=104.941261, Alt.=58.914581m. Speed=0.612000m/h.</desc>
<speed>0.170000</speed>
</trkpt>
<trkpt lat="21.746292" lon="104.941261">
<ele>59.124542</ele>
<time>2011-04-29T05:11:05Z</time>
<desc>lat.=21.746292, lon.=104.941261, Alt.=59.124542m. Speed=0.504000m/h.</desc>
<speed>0.140000</speed>
</trkpt>
<trkpt lat="21.746288" lon="104.941254">
<ele>59.207550</ele>
<time>2011-04-29T05:11:10Z</time>
<desc>lat.=21.746288, lon.=104.941254, Alt.=59.207550m. Speed=0.396000m/h.</desc>
<speed>0.110000</speed>
</trkpt>
<trkpt lat="21.746281" lon="104.941254">
<ele>59.258331</ele>
<time>2011-04-29T05:11:15Z</time>
<desc>lat.=21.746281, lon.=104.941254, Alt.=59.258331m. Speed=0.864000m/h.</desc>
<speed>0.240000</speed>
</trkpt>
<trkpt lat="21.746277" lon="104.941246">
<ele>59.289581</ele>
<time>2011-04-29T05:11:20Z</time>
<desc>lat.=21.746277, lon.=104.941246, Alt.=59.289581m. Speed=0.396000m/h.</desc>
<speed>0.110000</speed>
</trkpt>
<trkpt lat="21.746275" lon="104.941254">
<ele>59.307159</ele>
<time>2011-04-29T05:11:25Z</time>
<desc>lat.=21.746275, lon.=104.941254, Alt.=59.307159m. Speed=0.036000m/h.</desc>
<speed>0.010000</speed>
</trkpt>
<trkpt lat="21.746271" lon="104.941254">
<ele>59.318878</ele>
<time>2011-04-29T05:11:30Z</time>
<desc>lat.=21.746271, lon.=104.941254, Alt.=59.318878m. Speed=0.360000m/h.</desc>
<speed>0.100000</speed>
</trkpt>
<trkpt lat="21.746273" lon="104.941254">
<ele>59.323761</ele>
<time>2011-04-29T05:11:35Z</time>
<desc>lat.=21.746273, lon.=104.941254, Alt.=59.323761m. Speed=0.648000m/h.</desc>
<speed>0.180000</speed>
</trkpt>
<trkpt lat="21.746279" lon="104.941261">
<ele>59.305206</ele>
<time>2011-04-29T05:11:40Z</time>
<desc>lat.=21.746279, lon.=104.941261, Alt.=59.305206m. Speed=0.648000m/h.</desc>
<speed>0.180000</speed>
</trkpt>
<trkpt lat="21.746294" lon="104.941261">
<ele>59.304230</ele>
<time>2011-04-29T05:11:45Z</time>
<desc>lat.=21.746294, lon.=104.941261, Alt.=59.304230m. Speed=1.080000m/h.</desc>
<speed>0.300000</speed>
</trkpt>
<trkpt lat="21.746323" lon="104.941231">
<ele>59.513214</ele>
<time>2011-04-29T05:11:50Z</time>
<desc>lat.=21.746323, lon.=104.941231, Alt.=59.513214m. Speed=1.080000m/h.</desc>
<speed>0.300000</speed>
</trkpt>
<trkpt lat="21.746344" lon="104.941208">
<ele>59.747589</ele>
<time>2011-04-29T05:11:55Z</time>
<desc>lat.=21.746344, lon.=104.941208, Alt.=59.747589m. Speed=1.404000m/h.</desc>
<speed>0.390000</speed>
</trkpt>
<trkpt lat="21.746347" lon="104.941200">
<ele>59.871613</ele>
<time>2011-04-29T05:12:00Z</time>
<desc>lat.=21.746347, lon.=104.941200, Alt.=59.871613m. Speed=0.720000m/h.</desc>
<speed>0.200000</speed>
</trkpt>
<trkpt lat="21.746344" lon="104.941200">
<ele>60.013214</ele>
<time>2011-04-29T05:12:05Z</time>
<desc>lat.=21.746344, lon.=104.941200, Alt.=60.013214m. Speed=0.036000m/h.</desc>
<speed>0.010000</speed>
</trkpt>
<trkpt lat="21.746347" lon="104.941200">
<ele>59.998566</ele>
<time>2011-04-29T05:12:10Z</time>
<desc>lat.=21.746347, lon.=104.941200, Alt.=59.998566m. Speed=0.756000m/h.</desc>
<speed>0.210000</speed>
</trkpt>
<trkpt lat="21.746357" lon="104.941193">
<ele>59.997589</ele>
<time>2011-04-29T05:12:15Z</time>
<desc>lat.=21.746357, lon.=104.941193, Alt.=59.997589m. Speed=0.648000m/h.</desc>
<speed>0.180000</speed>
</trkpt>
<trkpt lat="21.746363" lon="104.941193">
<ele>60.004425</ele>
<time>2011-04-29T05:12:20Z</time>
<desc>lat.=21.746363, lon.=104.941193, Alt.=60.004425m. Speed=0.324000m/h.</desc>
<speed>0.090000</speed>
</trkpt>
<trkpt lat="21.746363" lon="104.941193">
<ele>60.009308</ele>
<time>2011-04-29T05:12:25Z</time>
<desc>lat.=21.746363, lon.=104.941193, Alt.=60.009308m. Speed=0.324000m/h.</desc>
<speed>0.090000</speed>
</trkpt>
<trkpt lat="21.746359" lon="104.941200">
<ele>60.007355</ele>
<time>2011-04-29T05:12:30Z</time>
<desc>lat.=21.746359, lon.=104.941200, Alt.=60.007355m. Speed=0.612000m/h.</desc>
<speed>0.170000</speed>
</trkpt>
<trkpt lat="21.746351" lon="104.941208">
<ele>60.013214</ele>
<time>2011-04-29T05:12:35Z</time>
<desc>lat.=21.746351, lon.=104.941208, Alt.=60.013214m. Speed=0.792000m/h.</desc>
<speed>0.220000</speed>
</trkpt>
<trkpt lat="21.746344" lon="104.941216">
<ele>60.025909</ele>
<time>2011-04-29T05:12:40Z</time>
<desc>lat.=21.746344, lon.=104.941216, Alt.=60.025909m. Speed=0.864000m/h.</desc>
<speed>0.240000</speed>
</trkpt>
<trkpt lat="21.746338" lon="104.941223">
<ele>60.028839</ele>
<time>2011-04-29T05:12:45Z</time>
<desc>lat.=21.746338, lon.=104.941223, Alt.=60.028839m. Speed=0.792000m/h.</desc>
<speed>0.220000</speed>
</trkpt>
<trkpt lat="21.746334" lon="104.941231">
<ele>60.017120</ele>
<time>2011-04-29T05:12:50Z</time>
<desc>lat.=21.746334, lon.=104.941231, Alt.=60.017120m. Speed=0.504000m/h.</desc>
<speed>0.140000</speed>
</trkpt>
<trkpt lat="21.746330" lon="104.941231">
<ele>59.999542</ele>
<time>2011-04-29T05:12:55Z</time>
<desc>lat.=21.746330, lon.=104.941231, Alt.=59.999542m. Speed=0.756000m/h.</desc>
<speed>0.210000</speed>
</trkpt>
<trkpt lat="21.746323" lon="104.941238">
<ele>59.982941</ele>
<time>2011-04-29T05:13:00Z</time>
<desc>lat.=21.746323, lon.=104.941238, Alt.=59.982941m. Speed=0.648000m/h.</desc>
<speed>0.180000</speed>
</trkpt>
<trkpt lat="21.746319" lon="104.941238">
<ele>59.961456</ele>
<time>2011-04-29T05:13:05Z</time>
<desc>lat.=21.746319, lon.=104.941238, Alt.=59.961456m. Speed=0.144000m/h.</desc>
<speed>0.040000</speed>
</trkpt>
<trkpt lat="21.746319" lon="104.941246">
<ele>59.955597</ele>
<time>2011-04-29T05:13:10Z</time>
<desc>lat.=21.746319, lon.=104.941246, Alt.=59.955597m. Speed=0.432000m/h.</desc>
<speed>0.120000</speed>
</trkpt>
<trkpt lat="21.746325" lon="104.941246">
<ele>59.951691</ele>
<time>2011-04-29T05:13:15Z</time>
<desc>lat.=21.746325, lon.=104.941246, Alt.=59.951691m. Speed=0.432000m/h.</desc>
<speed>0.120000</speed>
</trkpt>
<trkpt lat="21.746330" lon="104.941246">
<ele>59.944855</ele>
<time>2011-04-29T05:13:20Z</time>
<desc>lat.=21.746330, lon.=104.941246, Alt.=59.944855m. Speed=0.720000m/h.</desc>
<speed>0.200000</speed>
</trkpt>
<trkpt lat="21.746330" lon="104.941238">
<ele>59.952667</ele>
<time>2011-04-29T05:13:25Z</time>
<desc>lat.=21.746330, lon.=104.941238, Alt.=59.952667m. Speed=0.468000m/h.</desc>
<speed>0.130000</speed>
</trkpt>
<trkpt lat="21.746325" lon="104.941238">
<ele>59.960480</ele>
<time>2011-04-29T05:13:30Z</time>
<desc>lat.=21.746325, lon.=104.941238, Alt.=59.960480m. Speed=0.684000m/h.</desc>
<speed>0.190000</speed>
</trkpt>
<trkpt lat="21.746315" lon="104.941231">
<ele>59.980011</ele>
<time>2011-04-29T05:13:35Z</time>
<desc>lat.=21.746315, lon.=104.941231, Alt.=59.980011m. Speed=1.044000m/h.</desc>
<speed>0.290000</speed>
</trkpt>
<trkpt lat="21.746307" lon="104.941231">
<ele>60.011261</ele>
<time>2011-04-29T05:13:40Z</time>
<desc>lat.=21.746307, lon.=104.941231, Alt.=60.011261m. Speed=0.612000m/h.</desc>
<speed>0.170000</speed>
</trkpt>
<trkpt lat="21.746307" lon="104.941223">
<ele>60.028839</ele>
<time>2011-04-29T05:13:45Z</time>
<desc>lat.=21.746307, lon.=104.941223, Alt.=60.028839m. Speed=0.360000m/h.</desc>
<speed>0.100000</speed>
</trkpt>
<trkpt lat="21.746311" lon="104.941223">
<ele>60.034698</ele>
<time>2011-04-29T05:13:50Z</time>
<desc>lat.=21.746311, lon.=104.941223, Alt.=60.034698m. Speed=0.108000m/h.</desc>
<speed>0.030000</speed>
</trkpt>
<trkpt lat="21.746313" lon="104.941216">
<ele>60.054230</ele>
<time>2011-04-29T05:13:55Z</time>
<desc>lat.=21.746313, lon.=104.941216, Alt.=60.054230m. Speed=0.432000m/h.</desc>
<speed>0.120000</speed>
</trkpt>
<trkpt lat="21.746317" lon="104.941216">
<ele>60.054230</ele>
<time>2011-04-29T05:14:00Z</time>
<desc>lat.=21.746317, lon.=104.941216, Alt.=60.054230m. Speed=0.252000m/h.</desc>
<speed>0.070000</speed>
</trkpt>
<trkpt lat="21.746319" lon="104.941216">
<ele>60.044464</ele>
<time>2011-04-29T05:14:05Z</time>
<desc>lat.=21.746319, lon.=104.941216, Alt.=60.044464m. Speed=0.144000m/h.</desc>
<speed>0.040000</speed>
</trkpt>
<trkpt lat="21.746317" lon="104.941216">
<ele>60.041534</ele>
<time>2011-04-29T05:14:10Z</time>
<desc>lat.=21.746317, lon.=104.941216, Alt.=60.041534m. Speed=0.324000m/h.</desc>
<speed>0.090000</speed>
</trkpt>
<trkpt lat="21.746315" lon="104.941223">
<ele>60.033722</ele>
<time>2011-04-29T05:14:15Z</time>
<desc>lat.=21.746315, lon.=104.941223, Alt.=60.033722m. Speed=0.648000m/h.</desc>
<speed>0.180000</speed>
</trkpt>
<trkpt lat="21.746311" lon="104.941223">
<ele>60.017120</ele>
<time>2011-04-29T05:14:20Z</time>
<desc>lat.=21.746311, lon.=104.941223, Alt.=60.017120m. Speed=0.216000m/h.</desc>
<speed>0.060000</speed>
</trkpt>
<trkpt lat="21.746309" lon="104.941223">
<ele>60.008331</ele>
<time>2011-04-29T05:14:25Z</time>
<desc>lat.=21.746309, lon.=104.941223, Alt.=60.008331m. Speed=0.216000m/h.</desc>
<speed>0.060000</speed>
</trkpt>
<trkpt lat="21.746304" lon="104.941223">
<ele>60.001495</ele>
<time>2011-04-29T05:14:30Z</time>
<desc>lat.=21.746304, lon.=104.941223, Alt.=60.001495m. Speed=0.720000m/h.</desc>
<speed>0.200000</speed>
</trkpt>
<trkpt lat="21.746296" lon="104.941223">
<ele>60.002472</ele>
<time>2011-04-29T05:14:35Z</time>
<desc>lat.=21.746296, lon.=104.941223, Alt.=60.002472m. Speed=0.684000m/h.</desc>
<speed>0.190000</speed>
</trkpt>
<trkpt lat="21.746281" lon="104.941231">
<ele>60.028839</ele>
<time>2011-04-29T05:14:40Z</time>
<desc>lat.=21.746281, lon.=104.941231, Alt.=60.028839m. Speed=1.188000m/h.</desc>
<speed>0.330000</speed>
</trkpt>
<trkpt lat="21.746275" lon="104.941223">
<ele>59.872589</ele>
<time>2011-04-29T05:14:45Z</time>
<desc>lat.=21.746275, lon.=104.941223, Alt.=59.872589m. Speed=0.432000m/h.</desc>
<speed>0.120000</speed>
</trkpt>
<trkpt lat="21.746277" lon="104.941216">
<ele>59.830597</ele>
<time>2011-04-29T05:14:50Z</time>
<desc>lat.=21.746277, lon.=104.941216, Alt.=59.830597m. Speed=0.324000m/h.</desc>
<speed>0.090000</speed>
</trkpt>
<trkpt lat="21.746275" lon="104.941216">
<ele>59.831573</ele>
<time>2011-04-29T05:14:55Z</time>
<desc>lat.=21.746275, lon.=104.941216, Alt.=59.831573m. Speed=0.108000m/h.</desc>
<speed>0.030000</speed>
</trkpt>
<trkpt lat="21.746271" lon="104.941216">
<ele>59.841339</ele>
<time>2011-04-29T05:15:00Z</time>
<desc>lat.=21.746271, lon.=104.941216, Alt.=59.841339m. Speed=0.288000m/h.</desc>
<speed>0.080000</speed>
</trkpt>
<trkpt lat="21.746267" lon="104.941216">
<ele>59.844269</ele>
<time>2011-04-29T05:15:05Z</time>
<desc>lat.=21.746267, lon.=104.941216, Alt.=59.844269m. Speed=0.468000m/h.</desc>
<speed>0.130000</speed>
</trkpt>
<trkpt lat="21.746265" lon="104.941216">
<ele>59.839386</ele>
<time>2011-04-29T05:15:10Z</time>
<desc>lat.=21.746265, lon.=104.941216, Alt.=59.839386m. Speed=0.108000m/h.</desc>
<speed>0.030000</speed>
</trkpt>
<trkpt lat="21.746264" lon="104.941216">
<ele>59.832550</ele>
<time>2011-04-29T05:15:15Z</time>
<desc>lat.=21.746264, lon.=104.941216, Alt.=59.832550m. Speed=0.396000m/h.</desc>
<speed>0.110000</speed>
</trkpt>
<trkpt lat="21.746262" lon="104.941216">
<ele>59.840363</ele>
<time>2011-04-29T05:15:20Z</time>
<desc>lat.=21.746262, lon.=104.941216, Alt.=59.840363m. Speed=0.108000m/h.</desc>
<speed>0.030000</speed>
</trkpt>
<trkpt lat="21.746264" lon="104.941208">
<ele>59.862823</ele>
<time>2011-04-29T05:15:25Z</time>
<desc>lat.=21.746264, lon.=104.941208, Alt.=59.862823m. Speed=0.108000m/h.</desc>
<speed>0.030000</speed>
</trkpt>
<trkpt lat="21.746264" lon="104.941216">
<ele>59.863800</ele>
<time>2011-04-29T05:15:30Z</time>
<desc>lat.=21.746264, lon.=104.941216, Alt.=59.863800m. Speed=0.468000m/h.</desc>
<speed>0.130000</speed>
</trkpt>
<trkpt lat="21.746262" lon="104.941216">
<ele>59.872589</ele>
<time>2011-04-29T05:15:35Z</time>
<desc>lat.=21.746262, lon.=104.941216, Alt.=59.872589m. Speed=0.432000m/h.</desc>
<speed>0.120000</speed>
</trkpt>
<trkpt lat="21.746254" lon="104.941223">
<ele>59.874542</ele>
<time>2011-04-29T05:15:40Z</time>
<desc>lat.=21.746254, lon.=104.941223, Alt.=59.874542m. Speed=0.432000m/h.</desc>
<speed>0.120000</speed>
</trkpt>
<trkpt lat="21.746252" lon="104.941223">
<ele>59.883331</ele>
<time>2011-04-29T05:15:45Z</time>
<desc>lat.=21.746252, lon.=104.941223, Alt.=59.883331m. Speed=0.324000m/h.</desc>
<speed>0.090000</speed>
</trkpt>
<trkpt lat="21.746252" lon="104.941231">
<ele>59.873566</ele>
<time>2011-04-29T05:15:50Z</time>
<desc>lat.=21.746252, lon.=104.941231, Alt.=59.873566m. Speed=0.252000m/h.</desc>
<speed>0.070000</speed>
</trkpt>
<trkpt lat="21.746252" lon="104.941231">
<ele>59.859894</ele>
<time>2011-04-29T05:15:55Z</time>
<desc>lat.=21.746252, lon.=104.941231, Alt.=59.859894m. Speed=0.072000m/h.</desc>
<speed>0.020000</speed>
</trkpt>
<trkpt lat="21.746258" lon="104.941231">
<ele>59.842316</ele>
<time>2011-04-29T05:16:00Z</time>
<desc>lat.=21.746258, lon.=104.941231, Alt.=59.842316m. Speed=0.972000m/h.</desc>
<speed>0.270000</speed>
</trkpt>
<trkpt lat="21.746269" lon="104.941231">
<ele>59.809113</ele>
<time>2011-04-29T05:16:05Z</time>
<desc>lat.=21.746269, lon.=104.941231, Alt.=59.809113m. Speed=0.972000m/h.</desc>
<speed>0.270000</speed>
</trkpt>
<trkpt lat="21.746279" lon="104.941231">
<ele>59.776886</ele>
<time>2011-04-29T05:16:10Z</time>
<desc>lat.=21.746279, lon.=104.941231, Alt.=59.776886m. Speed=0.324000m/h.</desc>
<speed>0.090000</speed>
</trkpt>
<trkpt lat="21.746283" lon="104.941231">
<ele>59.758331</ele>
<time>2011-04-29T05:16:15Z</time>
<desc>lat.=21.746283, lon.=104.941231, Alt.=59.758331m. Speed=0.540000m/h.</desc>
<speed>0.150000</speed>
</trkpt>
<trkpt lat="21.746290" lon="104.941223">
<ele>59.752472</ele>
<time>2011-04-29T05:16:20Z</time>
<desc>lat.=21.746290, lon.=104.941223, Alt.=59.752472m. Speed=0.432000m/h.</desc>
<speed>0.120000</speed>
</trkpt>
<trkpt lat="21.746288" lon="104.941223">
<ele>60.057159</ele>
<time>2011-04-29T05:16:25Z</time>
<desc>lat.=21.746288, lon.=104.941223, Alt.=60.057159m. Speed=1.836000m/h.</desc>
<speed>0.510000</speed>
</trkpt>
<trkpt lat="21.746279" lon="104.941284">
<ele>59.044464</ele>
<time>2011-04-29T05:16:30Z</time>
<desc>lat.=21.746279, lon.=104.941284, Alt.=59.044464m. Speed=0.936000m/h.</desc>
<speed>0.260000</speed>
</trkpt>
<trkpt lat="21.746260" lon="104.941292">
<ele>59.489777</ele>
<time>2011-04-29T05:16:35Z</time>
<desc>lat.=21.746260, lon.=104.941292, Alt.=59.489777m. Speed=0.540000m/h.</desc>
<speed>0.150000</speed>
</trkpt>
<trkpt lat="21.746246" lon="104.941299">
<ele>59.537628</ele>
<time>2011-04-29T05:16:40Z</time>
<desc>lat.=21.746246, lon.=104.941299, Alt.=59.537628m. Speed=0.936000m/h.</desc>
<speed>0.260000</speed>
</trkpt>
<trkpt lat="21.746229" lon="104.941292">
<ele>60.137238</ele>
<time>2011-04-29T05:16:45Z</time>
<desc>lat.=21.746229, lon.=104.941292, Alt.=60.137238m. Speed=2.088000m/h.</desc>
<speed>0.580000</speed>
</trkpt>
<trkpt lat="21.746134" lon="104.941315">
<ele>61.038605</ele>
<time>2011-04-29T05:16:50Z</time>
<desc>lat.=21.746134, lon.=104.941315, Alt.=61.038605m. Speed=3.816000m/h.</desc>
<speed>1.060000</speed>
</trkpt>
<trkpt lat="21.746058" lon="104.941315">
<ele>61.577667</ele>
<time>2011-04-29T05:16:55Z</time>
<desc>lat.=21.746058, lon.=104.941315, Alt.=61.577667m. Speed=4.032000m/h.</desc>
<speed>1.120000</speed>
</trkpt>
<trkpt lat="21.746000" lon="104.941338">
<ele>63.806183</ele>
<time>2011-04-29T05:17:00Z</time>
<desc>lat.=21.746000, lon.=104.941338, Alt.=63.806183m. Speed=2.520000m/h.</desc>
<speed>0.700000</speed>
</trkpt>
<trkpt lat="21.746002" lon="104.941338">
<ele>64.299866</ele>
<time>2011-04-29T05:17:05Z</time>
<desc>lat.=21.746002, lon.=104.941338, Alt.=64.299866m. Speed=0.360000m/h.</desc>
<speed>0.100000</speed>
</trkpt>
<trkpt lat="21.745981" lon="104.941338">
<ele>65.301819</ele>
<time>2011-04-29T05:17:10Z</time>
<desc>lat.=21.745981, lon.=104.941338, Alt.=65.301819m. Speed=1.584000m/h.</desc>
<speed>0.440000</speed>
</trkpt>
<trkpt lat="21.745972" lon="104.941360">
<ele>64.215881</ele>
<time>2011-04-29T05:17:15Z</time>
<desc>lat.=21.745972, lon.=104.941360, Alt.=64.215881m. Speed=2.592000m/h.</desc>
<speed>0.720000</speed>
</trkpt>
<trkpt lat="21.745977" lon="104.941376">
<ele>64.502991</ele>
<time>2011-04-29T05:17:20Z</time>
<desc>lat.=21.745977, lon.=104.941376, Alt.=64.502991m. Speed=0.720000m/h.</desc>
<speed>0.200000</speed>
</trkpt>
<trkpt lat="21.745975" lon="104.941383">
<ele>64.557678</ele>
<time>2011-04-29T05:17:25Z</time>
<desc>lat.=21.745975, lon.=104.941383, Alt.=64.557678m. Speed=0.900000m/h.</desc>
<speed>0.250000</speed>
</trkpt>
<trkpt lat="21.745981" lon="104.941376">
<ele>64.827209</ele>
<time>2011-04-29T05:17:30Z</time>
<desc>lat.=21.745981, lon.=104.941376, Alt.=64.827209m. Speed=0.180000m/h.</desc>
<speed>0.050000</speed>
</trkpt>
<trkpt lat="21.745987" lon="104.941376">
<ele>65.399475</ele>
<time>2011-04-29T05:17:35Z</time>
<desc>lat.=21.745987, lon.=104.941376, Alt.=65.399475m. Speed=1.296000m/h.</desc>
<speed>0.360000</speed>
</trkpt>
<trkpt lat="21.745983" lon="104.941391">
<ele>66.590881</ele>
<time>2011-04-29T05:17:40Z</time>
<desc>lat.=21.745983, lon.=104.941391, Alt.=66.590881m. Speed=1.584000m/h.</desc>
<speed>0.440000</speed>
</trkpt>
<trkpt lat="21.745998" lon="104.941414">
<ele>67.169006</ele>
<time>2011-04-29T05:17:45Z</time>
<desc>lat.=21.745998, lon.=104.941414, Alt.=67.169006m. Speed=0.648000m/h.</desc>
<speed>0.180000</speed>
</trkpt>
<trkpt lat="21.746008" lon="104.941414">
<ele>67.401428</ele>
<time>2011-04-29T05:17:50Z</time>
<desc>lat.=21.746008, lon.=104.941414, Alt.=67.401428m. Speed=0.684000m/h.</desc>
<speed>0.190000</speed>
</trkpt>
<trkpt lat="21.746016" lon="104.941422">
<ele>68.440491</ele>
<time>2011-04-29T05:17:55Z</time>
<desc>lat.=21.746016, lon.=104.941422, Alt.=68.440491m. Speed=0.972000m/h.</desc>
<speed>0.270000</speed>
</trkpt>
<trkpt lat="21.746016" lon="104.941483">
<ele>68.893616</ele>
<time>2011-04-29T05:18:00Z</time>
<desc>lat.=21.746016, lon.=104.941483, Alt.=68.893616m. Speed=6.228000m/h.</desc>
<speed>1.730000</speed>
</trkpt>
<trkpt lat="21.745962" lon="104.941475">
<ele>70.151428</ele>
<time>2011-04-29T05:18:05Z</time>
<desc>lat.=21.745962, lon.=104.941475, Alt.=70.151428m. Speed=3.348000m/h.</desc>
<speed>0.930000</speed>
</trkpt>
<trkpt lat="21.745998" lon="104.941490">
<ele>70.862366</ele>
<time>2011-04-29T05:18:10Z</time>
<desc>lat.=21.745998, lon.=104.941490, Alt.=70.862366m. Speed=3.024000m/h.</desc>
<speed>0.840000</speed>
</trkpt>
<trkpt lat="21.746017" lon="104.941505">
<ele>71.188538</ele>
<time>2011-04-29T05:18:15Z</time>
<desc>lat.=21.746017, lon.=104.941505, Alt.=71.188538m. Speed=2.268000m/h.</desc>
<speed>0.630000</speed>
</trkpt>
<trkpt lat="21.746023" lon="104.941521">
<ele>71.040100</ele>
<time>2011-04-29T05:18:20Z</time>
<desc>lat.=21.746023, lon.=104.941521, Alt.=71.040100m. Speed=1.260000m/h.</desc>
<speed>0.350000</speed>
</trkpt>
<trkpt lat="21.746002" lon="104.941498">
<ele>70.688538</ele>
<time>2011-04-29T05:18:25Z</time>
<desc>lat.=21.746002, lon.=104.941498, Alt.=70.688538m. Speed=0.468000m/h.</desc>
<speed>0.130000</speed>
</trkpt>
<trkpt lat="21.745985" lon="104.941467">
<ele>71.292053</ele>
<time>2011-04-29T05:18:30Z</time>
<desc>lat.=21.745985, lon.=104.941467, Alt.=71.292053m. Speed=2.232000m/h.</desc>
<speed>0.620000</speed>
</trkpt>
<trkpt lat="21.745937" lon="104.941429">
<ele>71.626038</ele>
<time>2011-04-29T05:18:35Z</time>
<desc>lat.=21.745937, lon.=104.941429, Alt.=71.626038m. Speed=1.044000m/h.</desc>
<speed>0.290000</speed>
</trkpt>
<trkpt lat="21.745926" lon="104.941422">
<ele>71.180725</ele>
<time>2011-04-29T05:18:40Z</time>
<desc>lat.=21.745926, lon.=104.941422, Alt.=71.180725m. Speed=0.504000m/h.</desc>
<speed>0.140000</speed>
</trkpt>
<trkpt lat="21.745920" lon="104.941422">
<ele>70.756897</ele>
<time>2011-04-29T05:18:45Z</time>
<desc>lat.=21.745920, lon.=104.941422, Alt.=70.756897m. Speed=1.296000m/h.</desc>
<speed>0.360000</speed>
</trkpt>
<trkpt lat="21.745890" lon="104.941414">
<ele>70.104553</ele>
<time>2011-04-29T05:18:50Z</time>
<desc>lat.=21.745890, lon.=104.941414, Alt.=70.104553m. Speed=1.512000m/h.</desc>
<speed>0.420000</speed>
</trkpt>
<trkpt lat="21.745899" lon="104.941414">
<ele>70.108459</ele>
<time>2011-04-29T05:18:55Z</time>
<desc>lat.=21.745899, lon.=104.941414, Alt.=70.108459m. Speed=0.504000m/h.</desc>
<speed>0.140000</speed>
</trkpt>
<trkpt lat="21.745901" lon="104.941406">
<ele>69.588928</ele>
<time>2011-04-29T05:19:00Z</time>
<desc>lat.=21.745901, lon.=104.941406, Alt.=69.588928m. Speed=1.188000m/h.</desc>
<speed>0.330000</speed>
</trkpt>
<trkpt lat="21.745903" lon="104.941391">
<ele>69.237366</ele>
<time>2011-04-29T05:19:05Z</time>
<desc>lat.=21.745903, lon.=104.941391, Alt.=69.237366m. Speed=0.972000m/h.</desc>
<speed>0.270000</speed>
</trkpt>
<trkpt lat="21.745905" lon="104.941391">
<ele>68.747131</ele>
<time>2011-04-29T05:19:10Z</time>
<desc>lat.=21.745905, lon.=104.941391, Alt.=68.747131m. Speed=0.216000m/h.</desc>
<speed>0.060000</speed>
</trkpt>
<trkpt lat="21.745903" lon="104.941383">
<ele>68.294006</ele>
<time>2011-04-29T05:19:15Z</time>
<desc>lat.=21.745903, lon.=104.941383, Alt.=68.294006m. Speed=0.324000m/h.</desc>
<speed>0.090000</speed>
</trkpt>
<trkpt lat="21.745899" lon="104.941376">
<ele>67.854553</ele>
<time>2011-04-29T05:19:20Z</time>
<desc>lat.=21.745899, lon.=104.941376, Alt.=67.854553m. Speed=0.864000m/h.</desc>
<speed>0.240000</speed>
</trkpt>
<trkpt lat="21.745893" lon="104.941368">
<ele>67.415100</ele>
<time>2011-04-29T05:19:25Z</time>
<desc>lat.=21.745893, lon.=104.941368, Alt.=67.415100m. Speed=0.720000m/h.</desc>
<speed>0.200000</speed>
</trkpt>
<trkpt lat="21.745888" lon="104.941360">
<ele>67.379944</ele>
<time>2011-04-29T05:19:30Z</time>
<desc>lat.=21.745888, lon.=104.941360, Alt.=67.379944m. Speed=1.296000m/h.</desc>
<speed>0.360000</speed>
</trkpt>
<trkpt lat="21.745871" lon="104.941345">
<ele>68.631897</ele>
<time>2011-04-29T05:19:35Z</time>
<desc>lat.=21.745871, lon.=104.941345, Alt.=68.631897m. Speed=0.900000m/h.</desc>
<speed>0.250000</speed>
</trkpt>
<trkpt lat="21.745867" lon="104.941345">
<ele>68.395569</ele>
<time>2011-04-29T05:19:40Z</time>
<desc>lat.=21.745867, lon.=104.941345, Alt.=68.395569m. Speed=0.504000m/h.</desc>
<speed>0.140000</speed>
</trkpt>
<trkpt lat="21.745871" lon="104.941330">
<ele>68.266663</ele>
<time>2011-04-29T05:19:45Z</time>
<desc>lat.=21.745871, lon.=104.941330, Alt.=68.266663m. Speed=1.152000m/h.</desc>
<speed>0.320000</speed>
</trkpt>
<trkpt lat="21.745871" lon="104.941322">
<ele>68.657288</ele>
<time>2011-04-29T05:19:50Z</time>
<desc>lat.=21.745871, lon.=104.941322, Alt.=68.657288m. Speed=0.756000m/h.</desc>
<speed>0.210000</speed>
</trkpt>
<trkpt lat="21.745865" lon="104.941322">
<ele>68.227600</ele>
<time>2011-04-29T05:19:55Z</time>
<desc>lat.=21.745865, lon.=104.941322, Alt.=68.227600m. Speed=0.432000m/h.</desc>
<speed>0.120000</speed>
</trkpt>
<trkpt lat="21.745861" lon="104.941315">
<ele>67.823303</ele>
<time>2011-04-29T05:20:00Z</time>
<desc>lat.=21.745861, lon.=104.941315, Alt.=67.823303m. Speed=0.576000m/h.</desc>
<speed>0.160000</speed>
</trkpt>
<trkpt lat="21.745865" lon="104.941307">
<ele>67.436584</ele>
<time>2011-04-29T05:20:05Z</time>
<desc>lat.=21.745865, lon.=104.941307, Alt.=67.436584m. Speed=0.432000m/h.</desc>
<speed>0.120000</speed>
</trkpt>
<trkpt lat="21.745863" lon="104.941307">
<ele>67.260803</ele>
<time>2011-04-29T05:20:10Z</time>
<desc>lat.=21.745863, lon.=104.941307, Alt.=67.260803m. Speed=1.764000m/h.</desc>
<speed>0.490000</speed>
</trkpt>
<trkpt lat="21.745863" lon="104.941322">
<ele>67.292053</ele>
<time>2011-04-29T05:20:15Z</time>
<desc>lat.=21.745863, lon.=104.941322, Alt.=67.292053m. Speed=1.080000m/h.</desc>
<speed>0.300000</speed>
</trkpt>
<trkpt lat="21.745874" lon="104.941307">
<ele>67.301819</ele>
<time>2011-04-29T05:20:20Z</time>
<desc>lat.=21.745874, lon.=104.941307, Alt.=67.301819m. Speed=0.720000m/h.</desc>
<speed>0.200000</speed>
</trkpt>
<trkpt lat="21.745863" lon="104.941307">
<ele>67.651428</ele>
<time>2011-04-29T05:20:25Z</time>
<desc>lat.=21.745863, lon.=104.941307, Alt.=67.651428m. Speed=1.008000m/h.</desc>
<speed>0.280000</speed>
</trkpt>
<trkpt lat="21.745855" lon="104.941299">
<ele>67.680725</ele>
<time>2011-04-29T05:20:30Z</time>
<desc>lat.=21.745855, lon.=104.941299, Alt.=67.680725m. Speed=0.828000m/h.</desc>
<speed>0.230000</speed>
</trkpt>
<trkpt lat="21.745848" lon="104.941299">
<ele>67.682678</ele>
<time>2011-04-29T05:20:35Z</time>
<desc>lat.=21.745848, lon.=104.941299, Alt.=67.682678m. Speed=0.144000m/h.</desc>
<speed>0.040000</speed>
</trkpt>
<trkpt lat="21.745852" lon="104.941292">
<ele>67.663147</ele>
<time>2011-04-29T05:20:40Z</time>
<desc>lat.=21.745852, lon.=104.941292, Alt.=67.663147m. Speed=0.540000m/h.</desc>
<speed>0.150000</speed>
</trkpt>
<trkpt lat="21.745855" lon="104.941299">
<ele>67.655334</ele>
<time>2011-04-29T05:20:45Z</time>
<desc>lat.=21.745855, lon.=104.941299, Alt.=67.655334m. Speed=0.648000m/h.</desc>
<speed>0.180000</speed>
</trkpt>
<trkpt lat="21.745859" lon="104.941299">
<ele>67.684631</ele>
<time>2011-04-29T05:20:50Z</time>
<desc>lat.=21.745859, lon.=104.941299, Alt.=67.684631m. Speed=0.540000m/h.</desc>
<speed>0.150000</speed>
</trkpt>
<trkpt lat="21.745861" lon="104.941299">
<ele>67.665100</ele>
<time>2011-04-29T05:20:55Z</time>
<desc>lat.=21.745861, lon.=104.941299, Alt.=67.665100m. Speed=0.216000m/h.</desc>
<speed>0.060000</speed>
</trkpt>
<trkpt lat="21.745857" lon="104.941299">
<ele>67.657288</ele>
<time>2011-04-29T05:21:00Z</time>
<desc>lat.=21.745857, lon.=104.941299, Alt.=67.657288m. Speed=0.792000m/h.</desc>
<speed>0.220000</speed>
</trkpt>
<trkpt lat="21.745861" lon="104.941307">
<ele>67.438538</ele>
<time>2011-04-29T05:21:05Z</time>
<desc>lat.=21.745861, lon.=104.941307, Alt.=67.438538m. Speed=0.576000m/h.</desc>
<speed>0.160000</speed>
</trkpt>
<trkpt lat="21.745865" lon="104.941315">
<ele>67.458069</ele>
<time>2011-04-29T05:21:10Z</time>
<desc>lat.=21.745865, lon.=104.941315, Alt.=67.458069m. Speed=0.432000m/h.</desc>
<speed>0.120000</speed>
</trkpt>
<trkpt lat="21.745867" lon="104.941322">
<ele>67.502991</ele>
<time>2011-04-29T05:21:15Z</time>
<desc>lat.=21.745867, lon.=104.941322, Alt.=67.502991m. Speed=1.368000m/h.</desc>
<speed>0.380000</speed>
</trkpt>
<trkpt lat="21.745861" lon="104.941353">
<ele>67.522522</ele>
<time>2011-04-29T05:21:20Z</time>
<desc>lat.=21.745861, lon.=104.941353, Alt.=67.522522m. Speed=1.656000m/h.</desc>
<speed>0.460000</speed>
</trkpt>
<trkpt lat="21.745869" lon="104.941383">
<ele>67.520569</ele>
<time>2011-04-29T05:21:25Z</time>
<desc>lat.=21.745869, lon.=104.941383, Alt.=67.520569m. Speed=0.720000m/h.</desc>
<speed>0.200000</speed>
</trkpt>
<trkpt lat="21.745926" lon="104.941399">
<ele>66.833069</ele>
<time>2011-04-29T05:21:30Z</time>
<desc>lat.=21.745926, lon.=104.941399, Alt.=66.833069m. Speed=1.476000m/h.</desc>
<speed>0.410000</speed>
</trkpt>
<trkpt lat="21.745937" lon="104.941422">
<ele>66.440491</ele>
<time>2011-04-29T05:21:35Z</time>
<desc>lat.=21.745937, lon.=104.941422, Alt.=66.440491m. Speed=1.332000m/h.</desc>
<speed>0.370000</speed>
</trkpt>
<trkpt lat="21.745955" lon="104.941429">
<ele>66.288147</ele>
<time>2011-04-29T05:21:40Z</time>
<desc>lat.=21.745955, lon.=104.941429, Alt.=66.288147m. Speed=1.152000m/h.</desc>
<speed>0.320000</speed>
</trkpt>
<trkpt lat="21.745945" lon="104.941429">
<ele>66.417053</ele>
<time>2011-04-29T05:21:45Z</time>
<desc>lat.=21.745945, lon.=104.941429, Alt.=66.417053m. Speed=0.144000m/h.</desc>
<speed>0.040000</speed>
</trkpt>
<trkpt lat="21.745939" lon="104.941429">
<ele>66.444397</ele>
<time>2011-04-29T05:21:50Z</time>
<desc>lat.=21.745939, lon.=104.941429, Alt.=66.444397m. Speed=0.900000m/h.</desc>
<speed>0.250000</speed>
</trkpt>
<trkpt lat="21.745930" lon="104.941437">
<ele>66.475647</ele>
<time>2011-04-29T05:21:55Z</time>
<desc>lat.=21.745930, lon.=104.941437, Alt.=66.475647m. Speed=0.792000m/h.</desc>
<speed>0.220000</speed>
</trkpt>
<trkpt lat="21.745916" lon="104.941437">
<ele>66.717834</ele>
<time>2011-04-29T05:22:00Z</time>
<desc>lat.=21.745916, lon.=104.941437, Alt.=66.717834m. Speed=1.116000m/h.</desc>
<speed>0.310000</speed>
</trkpt>
<trkpt lat="21.745913" lon="104.941437">
<ele>66.895569</ele>
<time>2011-04-29T05:22:05Z</time>
<desc>lat.=21.745913, lon.=104.941437, Alt.=66.895569m. Speed=0.540000m/h.</desc>
<speed>0.150000</speed>
</trkpt>
<trkpt lat="21.745905" lon="104.941444">
<ele>66.926819</ele>
<time>2011-04-29T05:22:10Z</time>
<desc>lat.=21.745905, lon.=104.941444, Alt.=66.926819m. Speed=0.720000m/h.</desc>
<speed>0.200000</speed>
</trkpt>
<trkpt lat="21.745897" lon="104.941444">
<ele>66.961975</ele>
<time>2011-04-29T05:22:15Z</time>
<desc>lat.=21.745897, lon.=104.941444, Alt.=66.961975m. Speed=0.540000m/h.</desc>
<speed>0.150000</speed>
</trkpt>
<trkpt lat="21.745895" lon="104.941444">
<ele>66.997131</ele>
<time>2011-04-29T05:22:20Z</time>
<desc>lat.=21.745895, lon.=104.941444, Alt.=66.997131m. Speed=0.216000m/h.</desc>
<speed>0.060000</speed>
</trkpt>
<trkpt lat="21.745897" lon="104.941452">
<ele>67.034241</ele>
<time>2011-04-29T05:22:25Z</time>
<desc>lat.=21.745897, lon.=104.941452, Alt.=67.034241m. Speed=0.180000m/h.</desc>
<speed>0.050000</speed>
</trkpt>
<trkpt lat="21.745899" lon="104.941452">
<ele>67.065491</ele>
<time>2011-04-29T05:22:30Z</time>
<desc>lat.=21.745899, lon.=104.941452, Alt.=67.065491m. Speed=0.144000m/h.</desc>
<speed>0.040000</speed>
</trkpt>
<trkpt lat="21.745903" lon="104.941452">
<ele>67.098694</ele>
<time>2011-04-29T05:22:35Z</time>
<desc>lat.=21.745903, lon.=104.941452, Alt.=67.098694m. Speed=0.180000m/h.</desc>
<speed>0.050000</speed>
</trkpt>
<trkpt lat="21.745905" lon="104.941444">
<ele>67.131897</ele>
<time>2011-04-29T05:22:40Z</time>
<desc>lat.=21.745905, lon.=104.941444, Alt.=67.131897m. Speed=0.144000m/h.</desc>
<speed>0.040000</speed>
</trkpt>
<trkpt lat="21.745907" lon="104.941452">
<ele>67.165100</ele>
<time>2011-04-29T05:22:45Z</time>
<desc>lat.=21.745907, lon.=104.941452, Alt.=67.165100m. Speed=0.720000m/h.</desc>
<speed>0.200000</speed>
</trkpt>
<trkpt lat="21.745857" lon="104.941505">
<ele>67.178772</ele>
<time>2011-04-29T05:22:50Z</time>
<desc>lat.=21.745857, lon.=104.941505, Alt.=67.178772m. Speed=2.520000m/h.</desc>
<speed>0.700000</speed>
</trkpt>
<trkpt lat="21.745802" lon="104.941643">
<ele>67.188538</ele>
<time>2011-04-29T05:22:55Z</time>
<desc>lat.=21.745802, lon.=104.941643, Alt.=67.188538m. Speed=9.828000m/h.</desc>
<speed>2.730000</speed>
</trkpt>
<trkpt lat="21.745605" lon="104.941895">
<ele>66.731506</ele>
<time>2011-04-29T05:23:00Z</time>
<desc>lat.=21.745605, lon.=104.941895, Alt.=66.731506m. Speed=22.752001m/h.</desc>
<speed>6.320000</speed>
</trkpt>
<trkpt lat="21.745260" lon="104.941994">
<ele>66.333069</ele>
<time>2011-04-29T05:23:05Z</time>
<desc>lat.=21.745260, lon.=104.941994, Alt.=66.333069m. Speed=25.452000m/h.</desc>
<speed>7.070000</speed>
</trkpt>
<trkpt lat="21.744818" lon="104.942062">
<ele>65.430725</ele>
<time>2011-04-29T05:23:10Z</time>
<desc>lat.=21.744818, lon.=104.942062, Alt.=65.430725m. Speed=32.400002m/h.</desc>
<speed>9.000000</speed>
</trkpt>
<trkpt lat="21.744400" lon="104.942123">
<ele>65.102600</ele>
<time>2011-04-29T05:23:15Z</time>
<desc>lat.=21.744400, lon.=104.942123, Alt.=65.102600m. Speed=31.572001m/h.</desc>
<speed>8.770000</speed>
</trkpt>
<trkpt lat="21.743950" lon="104.942116">
<ele>64.604553</ele>
<time>2011-04-29T05:23:20Z</time>
<desc>lat.=21.743950, lon.=104.942116, Alt.=64.604553m. Speed=35.243999m/h.</desc>
<speed>9.790000</speed>
</trkpt>
<trkpt lat="21.743464" lon="104.942024">
<ele>63.780792</ele>
<time>2011-04-29T05:23:25Z</time>
<desc>lat.=21.743464, lon.=104.942024, Alt.=63.780792m. Speed=40.500000m/h.</desc>
<speed>11.250000</speed>
</trkpt>
<trkpt lat="21.742901" lon="104.941910">
<ele>62.120636</ele>
<time>2011-04-29T05:23:30Z</time>
<desc>lat.=21.742901, lon.=104.941910, Alt.=62.120636m. Speed=44.639999m/h.</desc>
<speed>12.400000</speed>
</trkpt>
<trkpt lat="21.742287" lon="104.941811">
<ele>60.735870</ele>
<time>2011-04-29T05:23:35Z</time>
<desc>lat.=21.742287, lon.=104.941811, Alt.=60.735870m. Speed=50.543999m/h.</desc>
<speed>14.040000</speed>
</trkpt>
<trkpt lat="21.741610" lon="104.941719">
<ele>58.767120</ele>
<time>2011-04-29T05:23:40Z</time>
<desc>lat.=21.741610, lon.=104.941719, Alt.=58.767120m. Speed=47.088001m/h.</desc>
<speed>13.080000</speed>
</trkpt>
<trkpt lat="21.741127" lon="104.941689">
<ele>56.864777</ele>
<time>2011-04-29T05:23:45Z</time>
<desc>lat.=21.741127, lon.=104.941689, Alt.=56.864777m. Speed=34.523998m/h.</desc>
<speed>9.590000</speed>
</trkpt>
<trkpt lat="21.740818" lon="104.941795">
<ele>55.013214</ele>
<time>2011-04-29T05:23:50Z</time>
<desc>lat.=21.740818, lon.=104.941795, Alt.=55.013214m. Speed=18.108000m/h.</desc>
<speed>5.030000</speed>
</trkpt>
<trkpt lat="21.740772" lon="104.941833">
<ele>53.689972</ele>
<time>2011-04-29T05:23:55Z</time>
<desc>lat.=21.740772, lon.=104.941833, Alt.=53.689972m. Speed=1.368000m/h.</desc>
<speed>0.380000</speed>
</trkpt>
<trkpt lat="21.740755" lon="104.941856">
<ele>52.491730</ele>
<time>2011-04-29T05:24:00Z</time>
<desc>lat.=21.740755, lon.=104.941856, Alt.=52.491730m. Speed=5.220000m/h.</desc>
<speed>1.450000</speed>
</trkpt>
<trkpt lat="21.740702" lon="104.941917">
<ele>51.654816</ele>
<time>2011-04-29T05:24:05Z</time>
<desc>lat.=21.740702, lon.=104.941917, Alt.=51.654816m. Speed=8.964000m/h.</desc>
<speed>2.490000</speed>
</trkpt>
<trkpt lat="21.740614" lon="104.942078">
<ele>50.372589</ele>
<time>2011-04-29T05:24:10Z</time>
<desc>lat.=21.740614, lon.=104.942078, Alt.=50.372589m. Speed=19.691999m/h.</desc>
<speed>5.470000</speed>
</trkpt>
<trkpt lat="21.740547" lon="104.942352">
<ele>49.691925</ele>
<time>2011-04-29T05:24:15Z</time>
<desc>lat.=21.740547, lon.=104.942352, Alt.=49.691925m. Speed=13.716000m/h.</desc>
<speed>3.810000</speed>
</trkpt>
<trkpt lat="21.740486" lon="104.942390">
<ele>49.756378</ele>
<time>2011-04-29T05:24:20Z</time>
<desc>lat.=21.740486, lon.=104.942390, Alt.=49.756378m. Speed=1.332000m/h.</desc>
<speed>0.370000</speed>
</trkpt>
<trkpt lat="21.740473" lon="104.942390">
<ele>49.379425</ele>
<time>2011-04-29T05:24:25Z</time>
<desc>lat.=21.740473, lon.=104.942390, Alt.=49.379425m. Speed=1.872000m/h.</desc>
<speed>0.520000</speed>
</trkpt>
<trkpt lat="21.740458" lon="104.942398">
<ele>49.261261</ele>
<time>2011-04-29T05:24:30Z</time>
<desc>lat.=21.740458, lon.=104.942398, Alt.=49.261261m. Speed=3.744000m/h.</desc>
<speed>1.040000</speed>
</trkpt>
<trkpt lat="21.740490" lon="104.942574">
<ele>48.595245</ele>
<time>2011-04-29T05:24:35Z</time>
<desc>lat.=21.740490, lon.=104.942574, Alt.=48.595245m. Speed=13.824000m/h.</desc>
<speed>3.840000</speed>
</trkpt>
<trkpt lat="21.740490" lon="104.942802">
<ele>48.523956</ele>
<time>2011-04-29T05:24:40Z</time>
<desc>lat.=21.740490, lon.=104.942802, Alt.=48.523956m. Speed=19.656000m/h.</desc>
<speed>5.460000</speed>
</trkpt>
<trkpt lat="21.740461" lon="104.943176">
<ele>48.445831</ele>
<time>2011-04-29T05:24:45Z</time>
<desc>lat.=21.740461, lon.=104.943176, Alt.=48.445831m. Speed=26.892000m/h.</desc>
<speed>7.470000</speed>
</trkpt>
<trkpt lat="21.740391" lon="104.943596">
<ele>48.984894</ele>
<time>2011-04-29T05:24:50Z</time>
<desc>lat.=21.740391, lon.=104.943596, Alt.=48.984894m. Speed=34.776001m/h.</desc>
<speed>9.660000</speed>
</trkpt>
<trkpt lat="21.740250" lon="104.944092">
<ele>48.880402</ele>
<time>2011-04-29T05:24:55Z</time>
<desc>lat.=21.740250, lon.=104.944092, Alt.=48.880402m. Speed=35.604000m/h.</desc>
<speed>9.890000</speed>
</trkpt>
<trkpt lat="21.740105" lon="104.944534">
<ele>49.428253</ele>
<time>2011-04-29T05:25:00Z</time>
<desc>lat.=21.740105, lon.=104.944534, Alt.=49.428253m. Speed=33.984001m/h.</desc>
<speed>9.440000</speed>
</trkpt>
<trkpt lat="21.739878" lon="104.944954">
<ele>50.114777</ele>
<time>2011-04-29T05:25:05Z</time>
<desc>lat.=21.739878, lon.=104.944954, Alt.=50.114777m. Speed=35.136002m/h.</desc>
<speed>9.760000</speed>
</trkpt>
<trkpt lat="21.739639" lon="104.945366">
<ele>51.062042</ele>
<time>2011-04-29T05:25:10Z</time>
<desc>lat.=21.739639, lon.=104.945366, Alt.=51.062042m. Speed=34.776001m/h.</desc>
<speed>9.660000</speed>
</trkpt>
<trkpt lat="21.739410" lon="104.945824">
<ele>52.000519</ele>
<time>2011-04-29T05:25:15Z</time>
<desc>lat.=21.739410, lon.=104.945824, Alt.=52.000519m. Speed=35.891998m/h.</desc>
<speed>9.970000</speed>
</trkpt>
<trkpt lat="21.739250" lon="104.946335">
<ele>52.203644</ele>
<time>2011-04-29T05:25:20Z</time>
<desc>lat.=21.739250, lon.=104.946335, Alt.=52.203644m. Speed=40.428001m/h.</desc>
<speed>11.230000</speed>
</trkpt>
<trkpt lat="21.739325" lon="104.946846">
<ele>52.695831</ele>
<time>2011-04-29T05:25:25Z</time>
<desc>lat.=21.739325, lon.=104.946846, Alt.=52.695831m. Speed=37.908001m/h.</desc>
<speed>10.530000</speed>
</trkpt>
<trkpt lat="21.739552" lon="104.947357">
<ele>52.179230</ele>
<time>2011-04-29T05:25:30Z</time>
<desc>lat.=21.739552, lon.=104.947357, Alt.=52.179230m. Speed=39.672001m/h.</desc>
<speed>11.020000</speed>
</trkpt>
<trkpt lat="21.739567" lon="104.947876">
<ele>51.940948</ele>
<time>2011-04-29T05:25:35Z</time>
<desc>lat.=21.739567, lon.=104.947876, Alt.=51.940948m. Speed=38.304001m/h.</desc>
<speed>10.640000</speed>
</trkpt>
<trkpt lat="21.739359" lon="104.948357">
<ele>51.927277</ele>
<time>2011-04-29T05:25:40Z</time>
<desc>lat.=21.739359, lon.=104.948357, Alt.=51.927277m. Speed=39.563999m/h.</desc>
<speed>10.990000</speed>
</trkpt>
<trkpt lat="21.739023" lon="104.948799">
<ele>51.530792</ele>
<time>2011-04-29T05:25:45Z</time>
<desc>lat.=21.739023, lon.=104.948799, Alt.=51.530792m. Speed=43.200001m/h.</desc>
<speed>12.000000</speed>
</trkpt>
<trkpt lat="21.738684" lon="104.949226">
<ele>51.375519</ele>
<time>2011-04-29T05:25:50Z</time>
<desc>lat.=21.738684, lon.=104.949226, Alt.=51.375519m. Speed=38.664001m/h.</desc>
<speed>10.740000</speed>
</trkpt>
<trkpt lat="21.738358" lon="104.949524">
<ele>52.241730</ele>
<time>2011-04-29T05:25:55Z</time>
<desc>lat.=21.738358, lon.=104.949524, Alt.=52.241730m. Speed=39.132000m/h.</desc>
<speed>10.870000</speed>
</trkpt>
<trkpt lat="21.737949" lon="104.949791">
<ele>56.035675</ele>
<time>2011-04-29T05:26:00Z</time>
<desc>lat.=21.737949, lon.=104.949791, Alt.=56.035675m. Speed=36.720001m/h.</desc>
<speed>10.200000</speed>
</trkpt>
<trkpt lat="21.737543" lon="104.950035">
<ele>57.044464</ele>
<time>2011-04-29T05:26:05Z</time>
<desc>lat.=21.737543, lon.=104.950035, Alt.=57.044464m. Speed=35.639999m/h.</desc>
<speed>9.900000</speed>
</trkpt>
<trkpt lat="21.737165" lon="104.950302">
<ele>58.095245</ele>
<time>2011-04-29T05:26:10Z</time>
<desc>lat.=21.737165, lon.=104.950302, Alt.=58.095245m. Speed=37.655998m/h.</desc>
<speed>10.460000</speed>
</trkpt>
<trkpt lat="21.736736" lon="104.950569">
<ele>55.597198</ele>
<time>2011-04-29T05:26:15Z</time>
<desc>lat.=21.736736, lon.=104.950569, Alt.=55.597198m. Speed=38.340000m/h.</desc>
<speed>10.650000</speed>
</trkpt>
<trkpt lat="21.736330" lon="104.950836">
<ele>54.092316</ele>
<time>2011-04-29T05:26:20Z</time>
<desc>lat.=21.736330, lon.=104.950836, Alt.=54.092316m. Speed=37.872002m/h.</desc>
<speed>10.520000</speed>
</trkpt>
<trkpt lat="21.735880" lon="104.950996">
<ele>52.981964</ele>
<time>2011-04-29T05:26:25Z</time>
<desc>lat.=21.735880, lon.=104.950996, Alt.=52.981964m. Speed=41.004002m/h.</desc>
<speed>11.390000</speed>
</trkpt>
<trkpt lat="21.735386" lon="104.950851">
<ele>52.738800</ele>
<time>2011-04-29T05:26:30Z</time>
<desc>lat.=21.735386, lon.=104.950851, Alt.=52.738800m. Speed=41.472000m/h.</desc>
<speed>11.520000</speed>
</trkpt>
<trkpt lat="21.734844" lon="104.950623">
<ele>56.159698</ele>
<time>2011-04-29T05:26:35Z</time>
<desc>lat.=21.734844, lon.=104.950623, Alt.=56.159698m. Speed=43.164001m/h.</desc>
<speed>11.990000</speed>
</trkpt>
<trkpt lat="21.734333" lon="104.950577">
<ele>57.907745</ele>
<time>2011-04-29T05:26:40Z</time>
<desc>lat.=21.734333, lon.=104.950577, Alt.=57.907745m. Speed=39.348000m/h.</desc>
<speed>10.930000</speed>
</trkpt>
<trkpt lat="21.733936" lon="104.950836">
<ele>58.723175</ele>
<time>2011-04-29T05:26:45Z</time>
<desc>lat.=21.733936, lon.=104.950836, Alt.=58.723175m. Speed=38.448002m/h.</desc>
<speed>10.680001</speed>
</trkpt>
<trkpt lat="21.733568" lon="104.951225">
<ele>59.274933</ele>
<time>2011-04-29T05:26:50Z</time>
<desc>lat.=21.733568, lon.=104.951225, Alt.=59.274933m. Speed=37.152000m/h.</desc>
<speed>10.320000</speed>
</trkpt>
<trkpt lat="21.733362" lon="104.951675">
<ele>60.066925</ele>
<time>2011-04-29T05:26:55Z</time>
<desc>lat.=21.733362, lon.=104.951675, Alt.=60.066925m. Speed=41.183998m/h.</desc>
<speed>11.439999</speed>
</trkpt>
<trkpt lat="21.733265" lon="104.952271">
<ele>59.758331</ele>
<time>2011-04-29T05:27:00Z</time>
<desc>lat.=21.733265, lon.=104.952271, Alt.=59.758331m. Speed=43.487999m/h.</desc>
<speed>12.080000</speed>
</trkpt>
<trkpt lat="21.733280" lon="104.952873">
<ele>58.057159</ele>
<time>2011-04-29T05:27:05Z</time>
<desc>lat.=21.733280, lon.=104.952873, Alt.=58.057159m. Speed=41.976002m/h.</desc>
<speed>11.660000</speed>
</trkpt>
<trkpt lat="21.733406" lon="104.953362">
<ele>58.335480</ele>
<time>2011-04-29T05:27:10Z</time>
<desc>lat.=21.733406, lon.=104.953362, Alt.=58.335480m. Speed=34.956001m/h.</desc>
<speed>9.710000</speed>
</trkpt>
<trkpt lat="21.733538" lon="104.953850">
<ele>59.477081</ele>
<time>2011-04-29T05:27:15Z</time>
<desc>lat.=21.733538, lon.=104.953850, Alt.=59.477081m. Speed=40.139999m/h.</desc>
<speed>11.150000</speed>
</trkpt>
<trkpt lat="21.733585" lon="104.954407">
<ele>61.753448</ele>
<time>2011-04-29T05:27:20Z</time>
<desc>lat.=21.733585, lon.=104.954407, Alt.=61.753448m. Speed=38.807999m/h.</desc>
<speed>10.780000</speed>
</trkpt>
<trkpt lat="21.733315" lon="104.954895">
<ele>59.282745</ele>
<time>2011-04-29T05:27:25Z</time>
<desc>lat.=21.733315, lon.=104.954895, Alt.=59.282745m. Speed=39.995998m/h.</desc>
<speed>11.110000</speed>
</trkpt>
<trkpt lat="21.733070" lon="104.955338">
<ele>58.472198</ele>
<time>2011-04-29T05:27:30Z</time>
<desc>lat.=21.733070, lon.=104.955338, Alt.=58.472198m. Speed=39.419998m/h.</desc>
<speed>10.949999</speed>
</trkpt>
<trkpt lat="21.732754" lon="104.955849">
<ele>56.958527</ele>
<time>2011-04-29T05:27:35Z</time>
<desc>lat.=21.732754, lon.=104.955849, Alt.=56.958527m. Speed=47.015999m/h.</desc>
<speed>13.060000</speed>
</trkpt>
<trkpt lat="21.732529" lon="104.956390">
<ele>56.805206</ele>
<time>2011-04-29T05:27:40Z</time>
<desc>lat.=21.732529, lon.=104.956390, Alt.=56.805206m. Speed=42.660000m/h.</desc>
<speed>11.850000</speed>
</trkpt>
<trkpt lat="21.732489" lon="104.956947">
<ele>55.288605</ele>
<time>2011-04-29T05:27:45Z</time>
<desc>lat.=21.732489, lon.=104.956947, Alt.=55.288605m. Speed=42.228001m/h.</desc>
<speed>11.730000</speed>
</trkpt>
<trkpt lat="21.732550" lon="104.957512">
<ele>55.890167</ele>
<time>2011-04-29T05:27:50Z</time>
<desc>lat.=21.732550, lon.=104.957512, Alt.=55.890167m. Speed=41.723999m/h.</desc>
<speed>11.590000</speed>
</trkpt>
<trkpt lat="21.732639" lon="104.958054">
<ele>56.216339</ele>
<time>2011-04-29T05:27:55Z</time>
<desc>lat.=21.732639, lon.=104.958054, Alt.=56.216339m. Speed=41.076000m/h.</desc>
<speed>11.410000</speed>
</trkpt>
<trkpt lat="21.732700" lon="104.958572">
<ele>55.460480</ele>
<time>2011-04-29T05:28:00Z</time>
<desc>lat.=21.732700, lon.=104.958572, Alt.=55.460480m. Speed=38.088001m/h.</desc>
<speed>10.580000</speed>
</trkpt>
<trkpt lat="21.732611" lon="104.959099">
<ele>56.863800</ele>
<time>2011-04-29T05:28:05Z</time>
<desc>lat.=21.732611, lon.=104.959099, Alt.=56.863800m. Speed=39.060001m/h.</desc>
<speed>10.850000</speed>
</trkpt>
<trkpt lat="21.732250" lon="104.959442">
<ele>55.250519</ele>
<time>2011-04-29T05:28:10Z</time>
<desc>lat.=21.732250, lon.=104.959442, Alt.=55.250519m. Speed=38.952000m/h.</desc>
<speed>10.820000</speed>
</trkpt>
<trkpt lat="21.731800" lon="104.959679">
<ele>52.082550</ele>
<time>2011-04-29T05:28:15Z</time>
<desc>lat.=21.731800, lon.=104.959679, Alt.=52.082550m. Speed=41.939999m/h.</desc>
<speed>11.650000</speed>
</trkpt>
<trkpt lat="21.731327" lon="104.959923">
<ele>49.039581</ele>
<time>2011-04-29T05:28:20Z</time>
<desc>lat.=21.731327, lon.=104.959923, Alt.=49.039581m. Speed=43.091999m/h.</desc>
<speed>11.970000</speed>
</trkpt>
<trkpt lat="21.730865" lon="104.960182">
<ele>49.112823</ele>
<time>2011-04-29T05:28:25Z</time>
<desc>lat.=21.730865, lon.=104.960182, Alt.=49.112823m. Speed=38.231998m/h.</desc>
<speed>10.620000</speed>
</trkpt>
<trkpt lat="21.730425" lon="104.960403">
<ele>49.252472</ele>
<time>2011-04-29T05:28:30Z</time>
<desc>lat.=21.730425, lon.=104.960403, Alt.=49.252472m. Speed=37.835999m/h.</desc>
<speed>10.510000</speed>
</trkpt>
<trkpt lat="21.730028" lon="104.960732">
<ele>49.831573</ele>
<time>2011-04-29T05:28:35Z</time>
<desc>lat.=21.730028, lon.=104.960732, Alt.=49.831573m. Speed=35.964001m/h.</desc>
<speed>9.990000</speed>
</trkpt>
<trkpt lat="21.729704" lon="104.961113">
<ele>49.172394</ele>
<time>2011-04-29T05:28:40Z</time>
<desc>lat.=21.729704, lon.=104.961113, Alt.=49.172394m. Speed=37.655998m/h.</desc>
<speed>10.460000</speed>
</trkpt>
<trkpt lat="21.729309" lon="104.961426">
<ele>47.542511</ele>
<time>2011-04-29T05:28:45Z</time>
<desc>lat.=21.729309, lon.=104.961426, Alt.=47.542511m. Speed=39.852001m/h.</desc>
<speed>11.070000</speed>
</trkpt>
<trkpt lat="21.728817" lon="104.961578">
<ele>46.009308</ele>
<time>2011-04-29T05:28:50Z</time>
<desc>lat.=21.728817, lon.=104.961578, Alt.=46.009308m. Speed=41.183998m/h.</desc>
<speed>11.439999</speed>
</trkpt>
<trkpt lat="21.728273" lon="104.961632">
<ele>44.676300</ele>
<time>2011-04-29T05:28:55Z</time>
<desc>lat.=21.728273, lon.=104.961632, Alt.=44.676300m. Speed=43.200001m/h.</desc>
<speed>12.000000</speed>
</trkpt>
<trkpt lat="21.727743" lon="104.961685">
<ele>43.371613</ele>
<time>2011-04-29T05:29:00Z</time>
<desc>lat.=21.727743, lon.=104.961685, Alt.=43.371613m. Speed=43.740002m/h.</desc>
<speed>12.150000</speed>
</trkpt>
<trkpt lat="21.727215" lon="104.961769">
<ele>42.781769</ele>
<time>2011-04-29T05:29:05Z</time>
<desc>lat.=21.727215, lon.=104.961769, Alt.=42.781769m. Speed=41.183998m/h.</desc>
<speed>11.439999</speed>
</trkpt>
<trkpt lat="21.726742" lon="104.961823">
<ele>44.169464</ele>
<time>2011-04-29T05:29:10Z</time>
<desc>lat.=21.726742, lon.=104.961823, Alt.=44.169464m. Speed=34.236000m/h.</desc>
<speed>9.510000</speed>
</trkpt>
<trkpt lat="21.726349" lon="104.962036">
<ele>43.946808</ele>
<time>2011-04-29T05:29:15Z</time>
<desc>lat.=21.726349, lon.=104.962036, Alt.=43.946808m. Speed=36.683998m/h.</desc>
<speed>10.189999</speed>
</trkpt>
<trkpt lat="21.726118" lon="104.962471">
<ele>43.611847</ele>
<time>2011-04-29T05:29:20Z</time>
<desc>lat.=21.726118, lon.=104.962471, Alt.=43.611847m. Speed=37.512001m/h.</desc>
<speed>10.420000</speed>
</trkpt>
<trkpt lat="21.726007" lon="104.963028">
<ele>42.652863</ele>
<time>2011-04-29T05:29:25Z</time>
<desc>lat.=21.726007, lon.=104.963028, Alt.=42.652863m. Speed=38.627998m/h.</desc>
<speed>10.730000</speed>
</trkpt>
<trkpt lat="21.725925" lon="104.963516">
<ele>42.233917</ele>
<time>2011-04-29T05:29:30Z</time>
<desc>lat.=21.725925, lon.=104.963516, Alt.=42.233917m. Speed=35.352001m/h.</desc>
<speed>9.820000</speed>
</trkpt>
<trkpt lat="21.725857" lon="104.963974">
<ele>42.840363</ele>
<time>2011-04-29T05:29:35Z</time>
<desc>lat.=21.725857, lon.=104.963974, Alt.=42.840363m. Speed=35.099998m/h.</desc>
<speed>9.750000</speed>
</trkpt>
<trkpt lat="21.725733" lon="104.964478">
<ele>43.053253</ele>
<time>2011-04-29T05:29:40Z</time>
<desc>lat.=21.725733, lon.=104.964478, Alt.=43.053253m. Speed=40.428001m/h.</desc>
<speed>11.230000</speed>
</trkpt>
<trkpt lat="21.725597" lon="104.965080">
<ele>42.265167</ele>
<time>2011-04-29T05:29:45Z</time>
<desc>lat.=21.725597, lon.=104.965080, Alt.=42.265167m. Speed=45.108002m/h.</desc>
<speed>12.530000</speed>
</trkpt>
<trkpt lat="21.725468" lon="104.965630">
<ele>41.537628</ele>
<time>2011-04-29T05:29:50Z</time>
<desc>lat.=21.725468, lon.=104.965630, Alt.=41.537628m. Speed=41.183998m/h.</desc>
<speed>11.439999</speed>
</trkpt>
<trkpt lat="21.725323" lon="104.966171">
<ele>42.063995</ele>
<time>2011-04-29T05:29:55Z</time>
<desc>lat.=21.725323, lon.=104.966171, Alt.=42.063995m. Speed=40.355999m/h.</desc>
<speed>11.210000</speed>
</trkpt>
<trkpt lat="21.725231" lon="104.966721">
<ele>43.513214</ele>
<time>2011-04-29T05:30:00Z</time>
<desc>lat.=21.725231, lon.=104.966721, Alt.=43.513214m. Speed=39.312000m/h.</desc>
<speed>10.920000</speed>
</trkpt>
<trkpt lat="21.725195" lon="104.967247">
<ele>43.293488</ele>
<time>2011-04-29T05:30:05Z</time>
<desc>lat.=21.725195, lon.=104.967247, Alt.=43.293488m. Speed=36.756001m/h.</desc>
<speed>10.210000</speed>
</trkpt>
<trkpt lat="21.725168" lon="104.967758">
<ele>43.794464</ele>
<time>2011-04-29T05:30:10Z</time>
<desc>lat.=21.725168, lon.=104.967758, Alt.=43.794464m. Speed=38.987999m/h.</desc>
<speed>10.830000</speed>
</trkpt>
<trkpt lat="21.725069" lon="104.968262">
<ele>45.382355</ele>
<time>2011-04-29T05:30:15Z</time>
<desc>lat.=21.725069, lon.=104.968262, Alt.=45.382355m. Speed=37.799999m/h.</desc>
<speed>10.500000</speed>
</trkpt>
<trkpt lat="21.724842" lon="104.968727">
<ele>47.266144</ele>
<time>2011-04-29T05:30:20Z</time>
<desc>lat.=21.724842, lon.=104.968727, Alt.=47.266144m. Speed=38.987999m/h.</desc>
<speed>10.830000</speed>
</trkpt>
<trkpt lat="21.724707" lon="104.969254">
<ele>49.858917</ele>
<time>2011-04-29T05:30:25Z</time>
<desc>lat.=21.724707, lon.=104.969254, Alt.=49.858917m. Speed=40.680000m/h.</desc>
<speed>11.300000</speed>
</trkpt>
<trkpt lat="21.724735" lon="104.969780">
<ele>48.826691</ele>
<time>2011-04-29T05:30:30Z</time>
<desc>lat.=21.724735, lon.=104.969780, Alt.=48.826691m. Speed=38.952000m/h.</desc>
<speed>10.820000</speed>
</trkpt>
<trkpt lat="21.724766" lon="104.970306">
<ele>51.884308</ele>
<time>2011-04-29T05:30:35Z</time>
<desc>lat.=21.724766, lon.=104.970306, Alt.=51.884308m. Speed=37.584000m/h.</desc>
<speed>10.440000</speed>
</trkpt>
<trkpt lat="21.724762" lon="104.970795">
<ele>55.049347</ele>
<time>2011-04-29T05:30:40Z</time>
<desc>lat.=21.724762, lon.=104.970795, Alt.=55.049347m. Speed=38.340000m/h.</desc>
<speed>10.650000</speed>
</trkpt>
<trkpt lat="21.724699" lon="104.971222">
<ele>56.681183</ele>
<time>2011-04-29T05:30:45Z</time>
<desc>lat.=21.724699, lon.=104.971222, Alt.=56.681183m. Speed=24.695999m/h.</desc>
<speed>6.860000</speed>
</trkpt>
<trkpt lat="21.724695" lon="104.971397">
<ele>56.305206</ele>
<time>2011-04-29T05:30:50Z</time>
<desc>lat.=21.724695, lon.=104.971397, Alt.=56.305206m. Speed=5.040000m/h.</desc>
<speed>1.400000</speed>
</trkpt>
<trkpt lat="21.724716" lon="104.971397">
<ele>56.030792</ele>
<time>2011-04-29T05:30:55Z</time>
<desc>lat.=21.724716, lon.=104.971397, Alt.=56.030792m. Speed=0.576000m/h.</desc>
<speed>0.160000</speed>
</trkpt>
<trkpt lat="21.724720" lon="104.971405">
<ele>56.145050</ele>
<time>2011-04-29T05:31:00Z</time>
<desc>lat.=21.724720, lon.=104.971405, Alt.=56.145050m. Speed=0.216000m/h.</desc>
<speed>0.060000</speed>
</trkpt>
<trkpt lat="21.724716" lon="104.971443">
<ele>56.097198</ele>
<time>2011-04-29T05:31:05Z</time>
<desc>lat.=21.724716, lon.=104.971443, Alt.=56.097198m. Speed=10.764000m/h.</desc>
<speed>2.990000</speed>
</trkpt>
<trkpt lat="21.724716" lon="104.971718">
<ele>56.818878</ele>
<time>2011-04-29T05:31:10Z</time>
<desc>lat.=21.724716, lon.=104.971718, Alt.=56.818878m. Speed=21.132000m/h.</desc>
<speed>5.870000</speed>
</trkpt>
<trkpt lat="21.724655" lon="104.972061">
<ele>56.652863</ele>
<time>2011-04-29T05:31:15Z</time>
<desc>lat.=21.724655, lon.=104.972061, Alt.=56.652863m. Speed=28.007999m/h.</desc>
<speed>7.780000</speed>
</trkpt>
<trkpt lat="21.724556" lon="104.972511">
<ele>55.784698</ele>
<time>2011-04-29T05:31:20Z</time>
<desc>lat.=21.724556, lon.=104.972511, Alt.=55.784698m. Speed=33.804001m/h.</desc>
<speed>9.390000</speed>
</trkpt>
<trkpt lat="21.724409" lon="104.972954">
<ele>57.016144</ele>
<time>2011-04-29T05:31:25Z</time>
<desc>lat.=21.724409, lon.=104.972954, Alt.=57.016144m. Speed=34.091999m/h.</desc>
<speed>9.470000</speed>
</trkpt>
<trkpt lat="21.724134" lon="104.973366">
<ele>56.972198</ele>
<time>2011-04-29T05:31:30Z</time>
<desc>lat.=21.724134, lon.=104.973366, Alt.=56.972198m. Speed=37.692001m/h.</desc>
<speed>10.470000</speed>
</trkpt>
<trkpt lat="21.723816" lon="104.973801">
<ele>54.150909</ele>
<time>2011-04-29T05:31:35Z</time>
<desc>lat.=21.723816, lon.=104.973801, Alt.=54.150909m. Speed=39.888000m/h.</desc>
<speed>11.080000</speed>
</trkpt>
<trkpt lat="21.723454" lon="104.974213">
<ele>53.834503</ele>
<time>2011-04-29T05:31:40Z</time>
<desc>lat.=21.723454, lon.=104.974213, Alt.=53.834503m. Speed=42.408001m/h.</desc>
<speed>11.780000</speed>
</trkpt>
<trkpt lat="21.723103" lon="104.974648">
<ele>53.832550</ele>
<time>2011-04-29T05:31:45Z</time>
<desc>lat.=21.723103, lon.=104.974648, Alt.=53.832550m. Speed=40.284000m/h.</desc>
<speed>11.190000</speed>
</trkpt>
<trkpt lat="21.722818" lon="104.975082">
<ele>54.323761</ele>
<time>2011-04-29T05:31:50Z</time>
<desc>lat.=21.722818, lon.=104.975082, Alt.=54.323761m. Speed=40.571999m/h.</desc>
<speed>11.270000</speed>
</trkpt>
<trkpt lat="21.722542" lon="104.975563">
<ele>54.944855</ele>
<time>2011-04-29T05:31:55Z</time>
<desc>lat.=21.722542, lon.=104.975563, Alt.=54.944855m. Speed=42.119999m/h.</desc>
<speed>11.700000</speed>
</trkpt>
<trkpt lat="21.722240" lon="104.976074">
<ele>55.431183</ele>
<time>2011-04-29T05:32:00Z</time>
<desc>lat.=21.722240, lon.=104.976074, Alt.=55.431183m. Speed=47.375999m/h.</desc>
<speed>13.160000</speed>
</trkpt>
<trkpt lat="21.721922" lon="104.976631">
<ele>55.808136</ele>
<time>2011-04-29T05:32:05Z</time>
<desc>lat.=21.721922, lon.=104.976631, Alt.=55.808136m. Speed=50.256001m/h.</desc>
<speed>13.960000</speed>
</trkpt>
<trkpt lat="21.721600" lon="104.977234">
<ele>55.772003</ele>
<time>2011-04-29T05:32:10Z</time>
<desc>lat.=21.721600, lon.=104.977234, Alt.=55.772003m. Speed=48.276001m/h.</desc>
<speed>13.410000</speed>
</trkpt>
<trkpt lat="21.721577" lon="104.977875">
<ele>55.991730</ele>
<time>2011-04-29T05:32:15Z</time>
<desc>lat.=21.721577, lon.=104.977875, Alt.=55.991730m. Speed=48.563999m/h.</desc>
<speed>13.490000</speed>
</trkpt>
<trkpt lat="21.721754" lon="104.978455">
<ele>56.950714</ele>
<time>2011-04-29T05:32:20Z</time>
<desc>lat.=21.721754, lon.=104.978455, Alt.=56.950714m. Speed=45.180000m/h.</desc>
<speed>12.550000</speed>
</trkpt>
<trkpt lat="21.721636" lon="104.979065">
<ele>57.583527</ele>
<time>2011-04-29T05:32:25Z</time>
<desc>lat.=21.721636, lon.=104.979065, Alt.=57.583527m. Speed=46.799999m/h.</desc>
<speed>13.000000</speed>
</trkpt>
<trkpt lat="21.721306" lon="104.979591">
<ele>54.480011</ele>
<time>2011-04-29T05:32:30Z</time>
<desc>lat.=21.721306, lon.=104.979591, Alt.=54.480011m. Speed=45.144001m/h.</desc>
<speed>12.540000</speed>
</trkpt>
<trkpt lat="21.721018" lon="104.980080">
<ele>53.767120</ele>
<time>2011-04-29T05:32:35Z</time>
<desc>lat.=21.721018, lon.=104.980080, Alt.=53.767120m. Speed=43.632000m/h.</desc>
<speed>12.120000</speed>
</trkpt>
<trkpt lat="21.720953" lon="104.980690">
<ele>51.488800</ele>
<time>2011-04-29T05:32:40Z</time>
<desc>lat.=21.720953, lon.=104.980690, Alt.=51.488800m. Speed=46.080002m/h.</desc>
<speed>12.800001</speed>
</trkpt>
<trkpt lat="21.720930" lon="104.981323">
<ele>50.988800</ele>
<time>2011-04-29T05:32:45Z</time>
<desc>lat.=21.720930, lon.=104.981323, Alt.=50.988800m. Speed=47.088001m/h.</desc>
<speed>13.080000</speed>
</trkpt>
<trkpt lat="21.720966" lon="104.981934">
<ele>57.642120</ele>
<time>2011-04-29T05:32:50Z</time>
<desc>lat.=21.720966, lon.=104.981934, Alt.=57.642120m. Speed=45.467999m/h.</desc>
<speed>12.630000</speed>
</trkpt>
<trkpt lat="21.721216" lon="104.982430">
<ele>59.525909</ele>
<time>2011-04-29T05:32:55Z</time>
<desc>lat.=21.721216, lon.=104.982430, Alt.=59.525909m. Speed=41.256001m/h.</desc>
<speed>11.460000</speed>
</trkpt>
<trkpt lat="21.721481" lon="104.982864">
<ele>62.418488</ele>
<time>2011-04-29T05:33:00Z</time>
<desc>lat.=21.721481, lon.=104.982864, Alt.=62.418488m. Speed=38.880001m/h.</desc>
<speed>10.800000</speed>
</trkpt>
<trkpt lat="21.721439" lon="104.983360">
<ele>65.596741</ele>
<time>2011-04-29T05:33:05Z</time>
<desc>lat.=21.721439, lon.=104.983360, Alt.=65.596741m. Speed=36.108002m/h.</desc>
<speed>10.030000</speed>
</trkpt>
<trkpt lat="21.721251" lon="104.983780">
<ele>67.815491</ele>
<time>2011-04-29T05:33:10Z</time>
<desc>lat.=21.721251, lon.=104.983780, Alt.=67.815491m. Speed=27.684000m/h.</desc>
<speed>7.690000</speed>
</trkpt>
<trkpt lat="21.721094" lon="104.984039">
<ele>71.266663</ele>
<time>2011-04-29T05:33:15Z</time>
<desc>lat.=21.721094, lon.=104.984039, Alt.=71.266663m. Speed=13.860000m/h.</desc>
<speed>3.850000</speed>
</trkpt>
<trkpt lat="21.721001" lon="104.984238">
<ele>74.547913</ele>
<time>2011-04-29T05:33:20Z</time>
<desc>lat.=21.721001, lon.=104.984238, Alt.=74.547913m. Speed=16.452000m/h.</desc>
<speed>4.570000</speed>
</trkpt>
<trkpt lat="21.720861" lon="104.984497">
<ele>73.778381</ele>
<time>2011-04-29T05:33:25Z</time>
<desc>lat.=21.720861, lon.=104.984497, Alt.=73.778381m. Speed=29.087999m/h.</desc>
<speed>8.080000</speed>
</trkpt>
<trkpt lat="21.720638" lon="104.984917">
<ele>72.872131</ele>
<time>2011-04-29T05:33:30Z</time>
<desc>lat.=21.720638, lon.=104.984917, Alt.=72.872131m. Speed=38.160000m/h.</desc>
<speed>10.600000</speed>
</trkpt>
<trkpt lat="21.720419" lon="104.985435">
<ele>69.391663</ele>
<time>2011-04-29T05:33:35Z</time>
<desc>lat.=21.720419, lon.=104.985435, Alt.=69.391663m. Speed=43.883999m/h.</desc>
<speed>12.190000</speed>
</trkpt>
<trkpt lat="21.720163" lon="104.985970">
<ele>68.991272</ele>
<time>2011-04-29T05:33:40Z</time>
<desc>lat.=21.720163, lon.=104.985970, Alt.=68.991272m. Speed=44.028000m/h.</desc>
<speed>12.230000</speed>
</trkpt>
<trkpt lat="21.719925" lon="104.986473">
<ele>66.856506</ele>
<time>2011-04-29T05:33:45Z</time>
<desc>lat.=21.719925, lon.=104.986473, Alt.=66.856506m. Speed=41.580002m/h.</desc>
<speed>11.550001</speed>
</trkpt>
<trkpt lat="21.719603" lon="104.986977">
<ele>63.370636</ele>
<time>2011-04-29T05:33:50Z</time>
<desc>lat.=21.719603, lon.=104.986977, Alt.=63.370636m. Speed=46.296001m/h.</desc>
<speed>12.860000</speed>
</trkpt>
<trkpt lat="21.719042" lon="104.987404">
<ele>60.066925</ele>
<time>2011-04-29T05:33:55Z</time>
<desc>lat.=21.719042, lon.=104.987404, Alt.=60.066925m. Speed=58.284000m/h.</desc>
<speed>16.190000</speed>
</trkpt>
<trkpt lat="21.718395" lon="104.987854">
<ele>58.133331</ele>
<time>2011-04-29T05:34:00Z</time>
<desc>lat.=21.718395, lon.=104.987854, Alt.=58.133331m. Speed=60.155998m/h.</desc>
<speed>16.710000</speed>
</trkpt>
<trkpt lat="21.717806" lon="104.988281">
<ele>54.457550</ele>
<time>2011-04-29T05:34:05Z</time>
<desc>lat.=21.717806, lon.=104.988281, Alt.=54.457550m. Speed=58.428001m/h.</desc>
<speed>16.230000</speed>
</trkpt>
<trkpt lat="21.717197" lon="104.988739">
<ele>54.416534</ele>
<time>2011-04-29T05:34:10Z</time>
<desc>lat.=21.717197, lon.=104.988739, Alt.=54.416534m. Speed=59.292000m/h.</desc>
<speed>16.470000</speed>
</trkpt>
<trkpt lat="21.716566" lon="104.989189">
<ele>53.593292</ele>
<time>2011-04-29T05:34:15Z</time>
<desc>lat.=21.716566, lon.=104.989189, Alt.=53.593292m. Speed=58.500000m/h.</desc>
<speed>16.250000</speed>
</trkpt>
<trkpt lat="21.716080" lon="104.989708">
<ele>54.641144</ele>
<time>2011-04-29T05:34:20Z</time>
<desc>lat.=21.716080, lon.=104.989708, Alt.=54.641144m. Speed=52.812000m/h.</desc>
<speed>14.670000</speed>
</trkpt>
<trkpt lat="21.715809" lon="104.990318">
<ele>53.982941</ele>
<time>2011-04-29T05:34:25Z</time>
<desc>lat.=21.715809, lon.=104.990318, Alt.=53.982941m. Speed=46.368000m/h.</desc>
<speed>12.880000</speed>
</trkpt>
<trkpt lat="21.715473" lon="104.990784">
<ele>52.597198</ele>
<time>2011-04-29T05:34:30Z</time>
<desc>lat.=21.715473, lon.=104.990784, Alt.=52.597198m. Speed=46.584000m/h.</desc>
<speed>12.940000</speed>
</trkpt>
<trkpt lat="21.714964" lon="104.991226">
<ele>51.532745</ele>
<time>2011-04-29T05:34:35Z</time>
<desc>lat.=21.714964, lon.=104.991226, Alt.=51.532745m. Speed=55.980000m/h.</desc>
<speed>15.550000</speed>
</trkpt>
<trkpt lat="21.714384" lon="104.991768">
<ele>49.992706</ele>
<time>2011-04-29T05:34:40Z</time>
<desc>lat.=21.714384, lon.=104.991768, Alt.=49.992706m. Speed=62.928001m/h.</desc>
<speed>17.480000</speed>
</trkpt>
<trkpt lat="21.713808" lon="104.992310">
<ele>49.475128</ele>
<time>2011-04-29T05:34:45Z</time>
<desc>lat.=21.713808, lon.=104.992310, Alt.=49.475128m. Speed=59.256001m/h.</desc>
<speed>16.460000</speed>
</trkpt>
<trkpt lat="21.713255" lon="104.992844">
<ele>48.607941</ele>
<time>2011-04-29T05:34:50Z</time>
<desc>lat.=21.713255, lon.=104.992844, Alt.=48.607941m. Speed=67.176003m/h.</desc>
<speed>18.660001</speed>
</trkpt>
<trkpt lat="21.712637" lon="104.993401">
<ele>48.923370</ele>
<time>2011-04-29T05:34:55Z</time>
<desc>lat.=21.712637, lon.=104.993401, Alt.=48.923370m. Speed=62.675999m/h.</desc>
<speed>17.410000</speed>
</trkpt>
<trkpt lat="21.712103" lon="104.993996">
<ele>49.604034</ele>
<time>2011-04-29T05:35:00Z</time>
<desc>lat.=21.712103, lon.=104.993996, Alt.=49.604034m. Speed=62.028000m/h.</desc>
<speed>17.230000</speed>
</trkpt>
<trkpt lat="21.711555" lon="104.994537">
<ele>50.508331</ele>
<time>2011-04-29T05:35:05Z</time>
<desc>lat.=21.711555, lon.=104.994537, Alt.=50.508331m. Speed=55.908001m/h.</desc>
<speed>15.530000</speed>
</trkpt>
<trkpt lat="21.710876" lon="104.994888">
<ele>50.077667</ele>
<time>2011-04-29T05:35:10Z</time>
<desc>lat.=21.710876, lon.=104.994888, Alt.=50.077667m. Speed=61.487999m/h.</desc>
<speed>17.080000</speed>
</trkpt>
<trkpt lat="21.710121" lon="104.995209">
<ele>50.041534</ele>
<time>2011-04-29T05:35:15Z</time>
<desc>lat.=21.710121, lon.=104.995209, Alt.=50.041534m. Speed=62.028000m/h.</desc>
<speed>17.230000</speed>
</trkpt>
<trkpt lat="21.709438" lon="104.995514">
<ele>50.233917</ele>
<time>2011-04-29T05:35:20Z</time>
<desc>lat.=21.709438, lon.=104.995514, Alt.=50.233917m. Speed=53.855999m/h.</desc>
<speed>14.960000</speed>
</trkpt>
<trkpt lat="21.708845" lon="104.995537">
<ele>48.301300</ele>
<time>2011-04-29T05:35:25Z</time>
<desc>lat.=21.708845, lon.=104.995537, Alt.=48.301300m. Speed=46.296001m/h.</desc>
<speed>12.860000</speed>
</trkpt>
<trkpt lat="21.708267" lon="104.995316">
<ele>46.327667</ele>
<time>2011-04-29T05:35:30Z</time>
<desc>lat.=21.708267, lon.=104.995316, Alt.=46.327667m. Speed=53.459999m/h.</desc>
<speed>14.850000</speed>
</trkpt>
<trkpt lat="21.707502" lon="104.995285">
<ele>43.452667</ele>
<time>2011-04-29T05:35:35Z</time>
<desc>lat.=21.707502, lon.=104.995285, Alt.=43.452667m. Speed=60.299999m/h.</desc>
<speed>16.750000</speed>
</trkpt>
<trkpt lat="21.706753" lon="104.995346">
<ele>45.747589</ele>
<time>2011-04-29T05:35:40Z</time>
<desc>lat.=21.706753, lon.=104.995346, Alt.=45.747589m. Speed=54.144001m/h.</desc>
<speed>15.040000</speed>
</trkpt>
<trkpt lat="21.706196" lon="104.995461">
<ele>49.266144</ele>
<time>2011-04-29T05:35:45Z</time>
<desc>lat.=21.706196, lon.=104.995461, Alt.=49.266144m. Speed=40.428001m/h.</desc>
<speed>11.230000</speed>
</trkpt>
<trkpt lat="21.705820" lon="104.995857">
<ele>53.665558</ele>
<time>2011-04-29T05:35:50Z</time>
<desc>lat.=21.705820, lon.=104.995857, Alt.=53.665558m. Speed=38.771999m/h.</desc>
<speed>10.770000</speed>
</trkpt>
<trkpt lat="21.705553" lon="104.996315">
<ele>57.528839</ele>
<time>2011-04-29T05:35:55Z</time>
<desc>lat.=21.705553, lon.=104.996315, Alt.=57.528839m. Speed=31.608000m/h.</desc>
<speed>8.780000</speed>
</trkpt>
<trkpt lat="21.705225" lon="104.996597">
<ele>60.236847</ele>
<time>2011-04-29T05:36:00Z</time>
<desc>lat.=21.705225, lon.=104.996597, Alt.=60.236847m. Speed=31.860001m/h.</desc>
<speed>8.850000</speed>
</trkpt>
<trkpt lat="21.704777" lon="104.996490">
<ele>62.655792</ele>
<time>2011-04-29T05:36:05Z</time>
<desc>lat.=21.704777, lon.=104.996490, Alt.=62.655792m. Speed=42.731998m/h.</desc>
<speed>11.870000</speed>
</trkpt>
<trkpt lat="21.704300" lon="104.996223">
<ele>64.877991</ele>
<time>2011-04-29T05:36:10Z</time>
<desc>lat.=21.704300, lon.=104.996223, Alt.=64.877991m. Speed=38.880001m/h.</desc>
<speed>10.800000</speed>
</trkpt>
<trkpt lat="21.703745" lon="104.996323">
<ele>65.766663</ele>
<time>2011-04-29T05:36:15Z</time>
<desc>lat.=21.703745, lon.=104.996323, Alt.=65.766663m. Speed=45.936001m/h.</desc>
<speed>12.760000</speed>
</trkpt>
<trkpt lat="21.703232" lon="104.996643">
<ele>67.061584</ele>
<time>2011-04-29T05:36:20Z</time>
<desc>lat.=21.703232, lon.=104.996643, Alt.=67.061584m. Speed=45.431999m/h.</desc>
<speed>12.620000</speed>
</trkpt>
<trkpt lat="21.702721" lon="104.996658">
<ele>68.090881</ele>
<time>2011-04-29T05:36:25Z</time>
<desc>lat.=21.702721, lon.=104.996658, Alt.=68.090881m. Speed=41.976002m/h.</desc>
<speed>11.660000</speed>
</trkpt>
<trkpt lat="21.702196" lon="104.996399">
<ele>70.598694</ele>
<time>2011-04-29T05:36:30Z</time>
<desc>lat.=21.702196, lon.=104.996399, Alt.=70.598694m. Speed=46.439999m/h.</desc>
<speed>12.900000</speed>
</trkpt>
<trkpt lat="21.701672" lon="104.996193">
<ele>72.411194</ele>
<time>2011-04-29T05:36:35Z</time>
<desc>lat.=21.701672, lon.=104.996193, Alt.=72.411194m. Speed=46.007999m/h.</desc>
<speed>12.780000</speed>
</trkpt>
<trkpt lat="21.700991" lon="104.996300">
<ele>72.352600</ele>
<time>2011-04-29T05:36:40Z</time>
<desc>lat.=21.700991, lon.=104.996300, Alt.=72.352600m. Speed=51.264000m/h.</desc>
<speed>14.240000</speed>
</trkpt>
<trkpt lat="21.700352" lon="104.996490">
<ele>70.637756</ele>
<time>2011-04-29T05:36:45Z</time>
<desc>lat.=21.700352, lon.=104.996490, Alt.=70.637756m. Speed=52.992001m/h.</desc>
<speed>14.720000</speed>
</trkpt>
<trkpt lat="21.699677" lon="104.996681">
<ele>63.169464</ele>
<time>2011-04-29T05:36:50Z</time>
<desc>lat.=21.699677, lon.=104.996681, Alt.=63.169464m. Speed=55.043999m/h.</desc>
<speed>15.290000</speed>
</trkpt>
<trkpt lat="21.698959" lon="104.996819">
<ele>55.176300</ele>
<time>2011-04-29T05:36:55Z</time>
<desc>lat.=21.698959, lon.=104.996819, Alt.=55.176300m. Speed=53.352001m/h.</desc>
<speed>14.820000</speed>
</trkpt>
<trkpt lat="21.698341" lon="104.996803">
<ele>53.178253</ele>
<time>2011-04-29T05:37:00Z</time>
<desc>lat.=21.698341, lon.=104.996803, Alt.=53.178253m. Speed=48.743999m/h.</desc>
<speed>13.540000</speed>
</trkpt>
<trkpt lat="21.697811" lon="104.996414">
<ele>51.156769</ele>
<time>2011-04-29T05:37:05Z</time>
<desc>lat.=21.697811, lon.=104.996414, Alt.=51.156769m. Speed=52.271999m/h.</desc>
<speed>14.520000</speed>
</trkpt>
<trkpt lat="21.697250" lon="104.995972">
<ele>52.163605</ele>
<time>2011-04-29T05:37:10Z</time>
<desc>lat.=21.697250, lon.=104.995972, Alt.=52.163605m. Speed=55.584000m/h.</desc>
<speed>15.440000</speed>
</trkpt>
<trkpt lat="21.696701" lon="104.995522">
<ele>50.438995</ele>
<time>2011-04-29T05:37:15Z</time>
<desc>lat.=21.696701, lon.=104.995522, Alt.=50.438995m. Speed=53.675999m/h.</desc>
<speed>14.910000</speed>
</trkpt>
<trkpt lat="21.696156" lon="104.995087">
<ele>50.909698</ele>
<time>2011-04-29T05:37:20Z</time>
<desc>lat.=21.696156, lon.=104.995087, Alt.=50.909698m. Speed=51.875999m/h.</desc>
<speed>14.410000</speed>
</trkpt>
<trkpt lat="21.695610" lon="104.994659">
<ele>53.689972</ele>
<time>2011-04-29T05:37:25Z</time>
<desc>lat.=21.695610, lon.=104.994659, Alt.=53.689972m. Speed=48.348000m/h.</desc>
<speed>13.430000</speed>
</trkpt>
<trkpt lat="21.695055" lon="104.994537">
<ele>57.154816</ele>
<time>2011-04-29T05:37:30Z</time>
<desc>lat.=21.695055, lon.=104.994537, Alt.=57.154816m. Speed=42.551998m/h.</desc>
<speed>11.819999</speed>
</trkpt>
<trkpt lat="21.694628" lon="104.994789">
<ele>56.707550</ele>
<time>2011-04-29T05:37:35Z</time>
<desc>lat.=21.694628, lon.=104.994789, Alt.=56.707550m. Speed=39.023998m/h.</desc>
<speed>10.840000</speed>
</trkpt>
<trkpt lat="21.694210" lon="104.995171">
<ele>58.610870</ele>
<time>2011-04-29T05:37:40Z</time>
<desc>lat.=21.694210, lon.=104.995171, Alt.=58.610870m. Speed=45.071999m/h.</desc>
<speed>12.520000</speed>
</trkpt>
<trkpt lat="21.693844" lon="104.995552">
<ele>61.030792</ele>
<time>2011-04-29T05:37:45Z</time>
<desc>lat.=21.693844, lon.=104.995552, Alt.=61.030792m. Speed=34.164001m/h.</desc>
<speed>9.490000</speed>
</trkpt>
<trkpt lat="21.693432" lon="104.995461">
<ele>62.882355</ele>
<time>2011-04-29T05:37:50Z</time>
<desc>lat.=21.693432, lon.=104.995461, Alt.=62.882355m. Speed=40.860001m/h.</desc>
<speed>11.350000</speed>
</trkpt>
<trkpt lat="21.693031" lon="104.995041">
<ele>64.321350</ele>
<time>2011-04-29T05:37:55Z</time>
<desc>lat.=21.693031, lon.=104.995041, Alt.=64.321350m. Speed=48.023998m/h.</desc>
<speed>13.340000</speed>
</trkpt>
<trkpt lat="21.692503" lon="104.994583">
<ele>64.227600</ele>
<time>2011-04-29T05:38:00Z</time>
<desc>lat.=21.692503, lon.=104.994583, Alt.=64.227600m. Speed=55.872002m/h.</desc>
<speed>15.520000</speed>
</trkpt>
<trkpt lat="21.691826" lon="104.994225">
<ele>63.392120</ele>
<time>2011-04-29T05:38:05Z</time>
<desc>lat.=21.691826, lon.=104.994225, Alt.=63.392120m. Speed=53.063999m/h.</desc>
<speed>14.740000</speed>
</trkpt>
<trkpt lat="21.691195" lon="104.993973">
<ele>62.834503</ele>
<time>2011-04-29T05:38:10Z</time>
<desc>lat.=21.691195, lon.=104.993973, Alt.=62.834503m. Speed=52.703999m/h.</desc>
<speed>14.640000</speed>
</trkpt>
<trkpt lat="21.690569" lon="104.994064">
<ele>61.472198</ele>
<time>2011-04-29T05:38:15Z</time>
<desc>lat.=21.690569, lon.=104.994064, Alt.=61.472198m. Speed=49.320000m/h.</desc>
<speed>13.700000</speed>
</trkpt>
<trkpt lat="21.690023" lon="104.994354">
<ele>63.829620</ele>
<time>2011-04-29T05:38:20Z</time>
<desc>lat.=21.690023, lon.=104.994354, Alt.=63.829620m. Speed=43.632000m/h.</desc>
<speed>12.120000</speed>
</trkpt>
<trkpt lat="21.689554" lon="104.994637">
<ele>66.991272</ele>
<time>2011-04-29T05:38:25Z</time>
<desc>lat.=21.689554, lon.=104.994637, Alt.=66.991272m. Speed=40.860001m/h.</desc>
<speed>11.350000</speed>
</trkpt>
<trkpt lat="21.689262" lon="104.995087">
<ele>71.549866</ele>
<time>2011-04-29T05:38:30Z</time>
<desc>lat.=21.689262, lon.=104.995087, Alt.=71.549866m. Speed=39.203999m/h.</desc>
<speed>10.890000</speed>
</trkpt>
<trkpt lat="21.689226" lon="104.995552">
<ele>74.782288</ele>
<time>2011-04-29T05:38:35Z</time>
<desc>lat.=21.689226, lon.=104.995552, Alt.=74.782288m. Speed=36.287998m/h.</desc>
<speed>10.079999</speed>
</trkpt>
<trkpt lat="21.689445" lon="104.996033">
<ele>77.737366</ele>
<time>2011-04-29T05:38:40Z</time>
<desc>lat.=21.689445, lon.=104.996033, Alt.=77.737366m. Speed=38.448002m/h.</desc>
<speed>10.680001</speed>
</trkpt>
<trkpt lat="21.689508" lon="104.996582">
<ele>81.063538</ele>
<time>2011-04-29T05:38:45Z</time>
<desc>lat.=21.689508, lon.=104.996582, Alt.=81.063538m. Speed=42.480000m/h.</desc>
<speed>11.800000</speed>
</trkpt>
<trkpt lat="21.689203" lon="104.996956">
<ele>84.942444</ele>
<time>2011-04-29T05:38:50Z</time>
<desc>lat.=21.689203, lon.=104.996956, Alt.=84.942444m. Speed=38.484001m/h.</desc>
<speed>10.690000</speed>
</trkpt>
<trkpt lat="21.688856" lon="104.997337">
<ele>88.969788</ele>
<time>2011-04-29T05:38:55Z</time>
<desc>lat.=21.688856, lon.=104.997337, Alt.=88.969788m. Speed=36.720001m/h.</desc>
<speed>10.200000</speed>
</trkpt>
<trkpt lat="21.688808" lon="104.997772">
<ele>93.026428</ele>
<time>2011-04-29T05:39:00Z</time>
<desc>lat.=21.688808, lon.=104.997772, Alt.=93.026428m. Speed=33.695999m/h.</desc>
<speed>9.360000</speed>
</trkpt>
<trkpt lat="21.688871" lon="104.998276">
<ele>97.088928</ele>
<time>2011-04-29T05:39:05Z</time>
<desc>lat.=21.688871, lon.=104.998276, Alt.=97.088928m. Speed=37.007999m/h.</desc>
<speed>10.280000</speed>
</trkpt>
<trkpt lat="21.688885" lon="104.998772">
<ele>101.280334</ele>
<time>2011-04-29T05:39:10Z</time>
<desc>lat.=21.688885, lon.=104.998772, Alt.=101.280334m. Speed=37.296001m/h.</desc>
<speed>10.360000</speed>
</trkpt>
<trkpt lat="21.688732" lon="104.999184">
<ele>105.825256</ele>
<time>2011-04-29T05:39:15Z</time>
<desc>lat.=21.688732, lon.=104.999184, Alt.=105.825256m. Speed=28.403999m/h.</desc>
<speed>7.890000</speed>
</trkpt>
<trkpt lat="21.688334" lon="104.999268">
<ele>110.354553</ele>
<time>2011-04-29T05:39:20Z</time>
<desc>lat.=21.688334, lon.=104.999268, Alt.=110.354553m. Speed=31.608000m/h.</desc>
<speed>8.780000</speed>
</trkpt>
<trkpt lat="21.687866" lon="104.999474">
<ele>114.419006</ele>
<time>2011-04-29T05:39:25Z</time>
<desc>lat.=21.687866, lon.=104.999474, Alt.=114.419006m. Speed=37.728001m/h.</desc>
<speed>10.480000</speed>
</trkpt>
<trkpt lat="21.687584" lon="104.999886">
<ele>118.430725</ele>
<time>2011-04-29T05:39:30Z</time>
<desc>lat.=21.687584, lon.=104.999886, Alt.=118.430725m. Speed=38.304001m/h.</desc>
<speed>10.640000</speed>
</trkpt>
<trkpt lat="21.687296" lon="105.000351">
<ele>122.260803</ele>
<time>2011-04-29T05:39:35Z</time>
<desc>lat.=21.687296, lon.=105.000351, Alt.=122.260803m. Speed=40.284000m/h.</desc>
<speed>11.190000</speed>
</trkpt>
<trkpt lat="21.687101" lon="105.000908">
<ele>125.850647</ele>
<time>2011-04-29T05:39:40Z</time>
<desc>lat.=21.687101, lon.=105.000908, Alt.=125.850647m. Speed=43.164001m/h.</desc>
<speed>11.990000</speed>
</trkpt>
<trkpt lat="21.687149" lon="105.001579">
<ele>127.165100</ele>
<time>2011-04-29T05:39:45Z</time>
<desc>lat.=21.687149, lon.=105.001579, Alt.=127.165100m. Speed=46.692001m/h.</desc>
<speed>12.970000</speed>
</trkpt>
<trkpt lat="21.686838" lon="105.002136">
<ele>125.458069</ele>
<time>2011-04-29T05:39:50Z</time>
<desc>lat.=21.686838, lon.=105.002136, Alt.=125.458069m. Speed=49.032001m/h.</desc>
<speed>13.620000</speed>
</trkpt>
<trkpt lat="21.686411" lon="105.002708">
<ele>121.825256</ele>
<time>2011-04-29T05:39:55Z</time>
<desc>lat.=21.686411, lon.=105.002708, Alt.=121.825256m. Speed=55.872002m/h.</desc>
<speed>15.520000</speed>
</trkpt>
<trkpt lat="21.686058" lon="105.003418">
<ele>116.100647</ele>
<time>2011-04-29T05:40:00Z</time>
<desc>lat.=21.686058, lon.=105.003418, Alt.=116.100647m. Speed=60.875999m/h.</desc>
<speed>16.910000</speed>
</trkpt>
<trkpt lat="21.685514" lon="105.003990">
<ele>113.346741</ele>
<time>2011-04-29T05:40:05Z</time>
<desc>lat.=21.685514, lon.=105.003990, Alt.=113.346741m. Speed=55.799999m/h.</desc>
<speed>15.500000</speed>
</trkpt>
<trkpt lat="21.684944" lon="105.004471">
<ele>108.405334</ele>
<time>2011-04-29T05:40:10Z</time>
<desc>lat.=21.684944, lon.=105.004471, Alt.=108.405334m. Speed=54.756001m/h.</desc>
<speed>15.210000</speed>
</trkpt>
<trkpt lat="21.684603" lon="105.005074">
<ele>103.309631</ele>
<time>2011-04-29T05:40:15Z</time>
<desc>lat.=21.684603, lon.=105.005074, Alt.=103.309631m. Speed=50.507999m/h.</desc>
<speed>14.030000</speed>
</trkpt>
<trkpt lat="21.684324" lon="105.005676">
<ele>98.553772</ele>
<time>2011-04-29T05:40:20Z</time>
<desc>lat.=21.684324, lon.=105.005676, Alt.=98.553772m. Speed=53.891998m/h.</desc>
<speed>14.970000</speed>
</trkpt>
<trkpt lat="21.683891" lon="105.006134">
<ele>97.239319</ele>
<time>2011-04-29T05:40:25Z</time>
<desc>lat.=21.683891, lon.=105.006134, Alt.=97.239319m. Speed=48.528000m/h.</desc>
<speed>13.480000</speed>
</trkpt>
<trkpt lat="21.683506" lon="105.006462">
<ele>87.637756</ele>
<time>2011-04-29T05:40:30Z</time>
<desc>lat.=21.683506, lon.=105.006462, Alt.=87.637756m. Speed=42.768002m/h.</desc>
<speed>11.880000</speed>
</trkpt>
<trkpt lat="21.683296" lon="105.006981">
<ele>85.399475</ele>
<time>2011-04-29T05:40:35Z</time>
<desc>lat.=21.683296, lon.=105.006981, Alt.=85.399475m. Speed=40.284000m/h.</desc>
<speed>11.190000</speed>
</trkpt>
<trkpt lat="21.683119" lon="105.007530">
<ele>85.237366</ele>
<time>2011-04-29T05:40:40Z</time>
<desc>lat.=21.683119, lon.=105.007530, Alt.=85.237366m. Speed=41.903999m/h.</desc>
<speed>11.640000</speed>
</trkpt>
<trkpt lat="21.682735" lon="105.007942">
<ele>84.907288</ele>
<time>2011-04-29T05:40:45Z</time>
<desc>lat.=21.682735, lon.=105.007942, Alt.=84.907288m. Speed=43.667999m/h.</desc>
<speed>12.130000</speed>
</trkpt>
<trkpt lat="21.682365" lon="105.008369">
<ele>84.930725</ele>
<time>2011-04-29T05:40:50Z</time>
<desc>lat.=21.682365, lon.=105.008369, Alt.=84.930725m. Speed=47.015999m/h.</desc>
<speed>13.060000</speed>
</trkpt>
<trkpt lat="21.682198" lon="105.008995">
<ele>84.922913</ele>
<time>2011-04-29T05:40:55Z</time>
<desc>lat.=21.682198, lon.=105.008995, Alt.=84.922913m. Speed=50.507999m/h.</desc>
<speed>14.030000</speed>
</trkpt>
<trkpt lat="21.682119" lon="105.009674">
<ele>84.766663</ele>
<time>2011-04-29T05:41:00Z</time>
<desc>lat.=21.682119, lon.=105.009674, Alt.=84.766663m. Speed=47.304001m/h.</desc>
<speed>13.140000</speed>
</trkpt>
<trkpt lat="21.681820" lon="105.010216">
<ele>84.456116</ele>
<time>2011-04-29T05:41:05Z</time>
<desc>lat.=21.681820, lon.=105.010216, Alt.=84.456116m. Speed=44.279999m/h.</desc>
<speed>12.300000</speed>
</trkpt>
<trkpt lat="21.681322" lon="105.010521">
<ele>83.850647</ele>
<time>2011-04-29T05:41:10Z</time>
<desc>lat.=21.681322, lon.=105.010521, Alt.=83.850647m. Speed=45.360001m/h.</desc>
<speed>12.600000</speed>
</trkpt>
<trkpt lat="21.680862" lon="105.010796">
<ele>82.452209</ele>
<time>2011-04-29T05:41:15Z</time>
<desc>lat.=21.680862, lon.=105.010796, Alt.=82.452209m. Speed=46.944000m/h.</desc>
<speed>13.040000</speed>
</trkpt>
<trkpt lat="21.680407" lon="105.011276">
<ele>80.348694</ele>
<time>2011-04-29T05:41:20Z</time>
<desc>lat.=21.680407, lon.=105.011276, Alt.=80.348694m. Speed=51.444000m/h.</desc>
<speed>14.290000</speed>
</trkpt>
<trkpt lat="21.679935" lon="105.011696">
<ele>74.928772</ele>
<time>2011-04-29T05:41:25Z</time>
<desc>lat.=21.679935, lon.=105.011696, Alt.=74.928772m. Speed=45.504002m/h.</desc>
<speed>12.640000</speed>
</trkpt>
<trkpt lat="21.679420" lon="105.012039">
<ele>71.684631</ele>
<time>2011-04-29T05:41:30Z</time>
<desc>lat.=21.679420, lon.=105.012039, Alt.=71.684631m. Speed=49.860001m/h.</desc>
<speed>13.850000</speed>
</trkpt>
<trkpt lat="21.678864" lon="105.012405">
<ele>67.297913</ele>
<time>2011-04-29T05:41:35Z</time>
<desc>lat.=21.678864, lon.=105.012405, Alt.=67.297913m. Speed=44.568001m/h.</desc>
<speed>12.380000</speed>
</trkpt>
<trkpt lat="21.678429" lon="105.012703">
<ele>67.020569</ele>
<time>2011-04-29T05:41:40Z</time>
<desc>lat.=21.678429, lon.=105.012703, Alt.=67.020569m. Speed=37.007999m/h.</desc>
<speed>10.280000</speed>
</trkpt>
<trkpt lat="21.678112" lon="105.013008">
<ele>67.741272</ele>
<time>2011-04-29T05:41:45Z</time>
<desc>lat.=21.678112, lon.=105.013008, Alt.=67.741272m. Speed=32.832001m/h.</desc>
<speed>9.120000</speed>
</trkpt>
<trkpt lat="21.677876" lon="105.013466">
<ele>69.094788</ele>
<time>2011-04-29T05:41:50Z</time>
<desc>lat.=21.677876, lon.=105.013466, Alt.=69.094788m. Speed=41.400002m/h.</desc>
<speed>11.500000</speed>
</trkpt>
<trkpt lat="21.677679" lon="105.014061">
<ele>69.415100</ele>
<time>2011-04-29T05:41:55Z</time>
<desc>lat.=21.677679, lon.=105.014061, Alt.=69.415100m. Speed=45.035999m/h.</desc>
<speed>12.510000</speed>
</trkpt>
<trkpt lat="21.677505" lon="105.014626">
<ele>68.692444</ele>
<time>2011-04-29T05:42:00Z</time>
<desc>lat.=21.677505, lon.=105.014626, Alt.=68.692444m. Speed=44.316002m/h.</desc>
<speed>12.310001</speed>
</trkpt>
<trkpt lat="21.677349" lon="105.015175">
<ele>67.842834</ele>
<time>2011-04-29T05:42:05Z</time>
<desc>lat.=21.677349, lon.=105.015175, Alt.=67.842834m. Speed=41.688000m/h.</desc>
<speed>11.580000</speed>
</trkpt>
<trkpt lat="21.677219" lon="105.015686">
<ele>68.549866</ele>
<time>2011-04-29T05:42:10Z</time>
<desc>lat.=21.677219, lon.=105.015686, Alt.=68.549866m. Speed=36.720001m/h.</desc>
<speed>10.200000</speed>
</trkpt>
<trkpt lat="21.677078" lon="105.016197">
<ele>70.319397</ele>
<time>2011-04-29T05:42:15Z</time>
<desc>lat.=21.677078, lon.=105.016197, Alt.=70.319397m. Speed=40.716000m/h.</desc>
<speed>11.310000</speed>
</trkpt>
<trkpt lat="21.676947" lon="105.016731">
<ele>71.534241</ele>
<time>2011-04-29T05:42:20Z</time>
<desc>lat.=21.676947, lon.=105.016731, Alt.=71.534241m. Speed=41.688000m/h.</desc>
<speed>11.580000</speed>
</trkpt>
<trkpt lat="21.676786" lon="105.017265">
<ele>72.809631</ele>
<time>2011-04-29T05:42:25Z</time>
<desc>lat.=21.676786, lon.=105.017265, Alt.=72.809631m. Speed=42.264000m/h.</desc>
<speed>11.740000</speed>
</trkpt>
<trkpt lat="21.676617" lon="105.017815">
<ele>74.118225</ele>
<time>2011-04-29T05:42:30Z</time>
<desc>lat.=21.676617, lon.=105.017815, Alt.=74.118225m. Speed=43.848000m/h.</desc>
<speed>12.180000</speed>
</trkpt>
<trkpt lat="21.676353" lon="105.018333">
<ele>75.176819</ele>
<time>2011-04-29T05:42:35Z</time>
<desc>lat.=21.676353, lon.=105.018333, Alt.=75.176819m. Speed=43.992001m/h.</desc>
<speed>12.220000</speed>
</trkpt>
<trkpt lat="21.676037" lon="105.018768">
<ele>75.924866</ele>
<time>2011-04-29T05:42:40Z</time>
<desc>lat.=21.676037, lon.=105.018768, Alt.=75.924866m. Speed=44.028000m/h.</desc>
<speed>12.230000</speed>
</trkpt>
<trkpt lat="21.675686" lon="105.019211">
<ele>76.958069</ele>
<time>2011-04-29T05:42:45Z</time>
<desc>lat.=21.675686, lon.=105.019211, Alt.=76.958069m. Speed=44.243999m/h.</desc>
<speed>12.290000</speed>
</trkpt>
<trkpt lat="21.675257" lon="105.019608">
<ele>78.450256</ele>
<time>2011-04-29T05:42:50Z</time>
<desc>lat.=21.675257, lon.=105.019608, Alt.=78.450256m. Speed=42.624001m/h.</desc>
<speed>11.840000</speed>
</trkpt>
<trkpt lat="21.674822" lon="105.019928">
<ele>79.098694</ele>
<time>2011-04-29T05:42:55Z</time>
<desc>lat.=21.674822, lon.=105.019928, Alt.=79.098694m. Speed=42.228001m/h.</desc>
<speed>11.730000</speed>
</trkpt>
<trkpt lat="21.674406" lon="105.020393">
<ele>79.196350</ele>
<time>2011-04-29T05:43:00Z</time>
<desc>lat.=21.674406, lon.=105.020393, Alt.=79.196350m. Speed=47.916000m/h.</desc>
<speed>13.310000</speed>
</trkpt>
<trkpt lat="21.674105" lon="105.020950">
<ele>79.499084</ele>
<time>2011-04-29T05:43:05Z</time>
<desc>lat.=21.674105, lon.=105.020950, Alt.=79.499084m. Speed=46.368000m/h.</desc>
<speed>12.880000</speed>
</trkpt>
<trkpt lat="21.673862" lon="105.021545">
<ele>79.698303</ele>
<time>2011-04-29T05:43:10Z</time>
<desc>lat.=21.673862, lon.=105.021545, Alt.=79.698303m. Speed=44.891998m/h.</desc>
<speed>12.470000</speed>
</trkpt>
<trkpt lat="21.673717" lon="105.022095">
<ele>79.797913</ele>
<time>2011-04-29T05:43:15Z</time>
<desc>lat.=21.673717, lon.=105.022095, Alt.=79.797913m. Speed=44.891998m/h.</desc>
<speed>12.470000</speed>
</trkpt>
<trkpt lat="21.673666" lon="105.022720">
<ele>79.772522</ele>
<time>2011-04-29T05:43:20Z</time>
<desc>lat.=21.673666, lon.=105.022720, Alt.=79.772522m. Speed=47.195999m/h.</desc>
<speed>13.110000</speed>
</trkpt>
<trkpt lat="21.673708" lon="105.023315">
<ele>80.540100</ele>
<time>2011-04-29T05:43:25Z</time>
<desc>lat.=21.673708, lon.=105.023315, Alt.=80.540100m. Speed=46.043999m/h.</desc>
<speed>12.790000</speed>
</trkpt>
<trkpt lat="21.673729" lon="105.023926">
<ele>81.452209</ele>
<time>2011-04-29T05:43:30Z</time>
<desc>lat.=21.673729, lon.=105.023926, Alt.=81.452209m. Speed=47.015999m/h.</desc>
<speed>13.060000</speed>
</trkpt>
<trkpt lat="21.673502" lon="105.024544">
<ele>82.217834</ele>
<time>2011-04-29T05:43:35Z</time>
<desc>lat.=21.673502, lon.=105.024544, Alt.=82.217834m. Speed=50.543999m/h.</desc>
<speed>14.040000</speed>
</trkpt>
<trkpt lat="21.673231" lon="105.025093">
<ele>82.842834</ele>
<time>2011-04-29T05:43:40Z</time>
<desc>lat.=21.673231, lon.=105.025093, Alt.=82.842834m. Speed=43.848000m/h.</desc>
<speed>12.180000</speed>
</trkpt>
<trkpt lat="21.673346" lon="105.025635">
<ele>83.344788</ele>
<time>2011-04-29T05:43:45Z</time>
<desc>lat.=21.673346, lon.=105.025635, Alt.=83.344788m. Speed=41.832001m/h.</desc>
<speed>11.620000</speed>
</trkpt>
<trkpt lat="21.673681" lon="105.026123">
<ele>83.612366</ele>
<time>2011-04-29T05:43:50Z</time>
<desc>lat.=21.673681, lon.=105.026123, Alt.=83.612366m. Speed=43.091999m/h.</desc>
<speed>11.970000</speed>
</trkpt>
<trkpt lat="21.673985" lon="105.026634">
<ele>83.858459</ele>
<time>2011-04-29T05:43:55Z</time>
<desc>lat.=21.673985, lon.=105.026634, Alt.=83.858459m. Speed=46.223999m/h.</desc>
<speed>12.840000</speed>
</trkpt>
<trkpt lat="21.674067" lon="105.027222">
<ele>83.151428</ele>
<time>2011-04-29T05:44:00Z</time>
<desc>lat.=21.674067, lon.=105.027222, Alt.=83.151428m. Speed=48.383999m/h.</desc>
<speed>13.440000</speed>
</trkpt>
<trkpt lat="21.673820" lon="105.027802">
<ele>83.270569</ele>
<time>2011-04-29T05:44:05Z</time>
<desc>lat.=21.673820, lon.=105.027802, Alt.=83.270569m. Speed=46.872002m/h.</desc>
<speed>13.020000</speed>
</trkpt>
<trkpt lat="21.673281" lon="105.028221">
<ele>81.381897</ele>
<time>2011-04-29T05:44:10Z</time>
<desc>lat.=21.673281, lon.=105.028221, Alt.=81.381897m. Speed=49.535999m/h.</desc>
<speed>13.760000</speed>
</trkpt>
<trkpt lat="21.672707" lon="105.028564">
<ele>77.795959</ele>
<time>2011-04-29T05:44:15Z</time>
<desc>lat.=21.672707, lon.=105.028564, Alt.=77.795959m. Speed=46.799999m/h.</desc>
<speed>13.000000</speed>
</trkpt>
<trkpt lat="21.672331" lon="105.028954">
<ele>73.928772</ele>
<time>2011-04-29T05:44:20Z</time>
<desc>lat.=21.672331, lon.=105.028954, Alt.=73.928772m. Speed=41.256001m/h.</desc>
<speed>11.460000</speed>
</trkpt>
<trkpt lat="21.672192" lon="105.029556">
<ele>69.686584</ele>
<time>2011-04-29T05:44:25Z</time>
<desc>lat.=21.672192, lon.=105.029556, Alt.=69.686584m. Speed=47.916000m/h.</desc>
<speed>13.310000</speed>
</trkpt>
<trkpt lat="21.671856" lon="105.030136">
<ele>67.071350</ele>
<time>2011-04-29T05:44:30Z</time>
<desc>lat.=21.671856, lon.=105.030136, Alt.=67.071350m. Speed=51.012001m/h.</desc>
<speed>14.170000</speed>
</trkpt>
<trkpt lat="21.671616" lon="105.030670">
<ele>65.094788</ele>
<time>2011-04-29T05:44:35Z</time>
<desc>lat.=21.671616, lon.=105.030670, Alt.=65.094788m. Speed=47.015999m/h.</desc>
<speed>13.060000</speed>
</trkpt>
<trkpt lat="21.671795" lon="105.031204">
<ele>65.047913</ele>
<time>2011-04-29T05:44:40Z</time>
<desc>lat.=21.671795, lon.=105.031204, Alt.=65.047913m. Speed=44.495998m/h.</desc>
<speed>12.360000</speed>
</trkpt>
<trkpt lat="21.672083" lon="105.031731">
<ele>65.711975</ele>
<time>2011-04-29T05:44:45Z</time>
<desc>lat.=21.672083, lon.=105.031731, Alt.=65.711975m. Speed=43.632000m/h.</desc>
<speed>12.120000</speed>
</trkpt>
<trkpt lat="21.672270" lon="105.032303">
<ele>66.016663</ele>
<time>2011-04-29T05:44:50Z</time>
<desc>lat.=21.672270, lon.=105.032303, Alt.=66.016663m. Speed=46.296001m/h.</desc>
<speed>12.860000</speed>
</trkpt>
<trkpt lat="21.672297" lon="105.032913">
<ele>66.602600</ele>
<time>2011-04-29T05:44:55Z</time>
<desc>lat.=21.672297, lon.=105.032913, Alt.=66.602600m. Speed=43.956001m/h.</desc>
<speed>12.210000</speed>
</trkpt>
<trkpt lat="21.672186" lon="105.033516">
<ele>67.071350</ele>
<time>2011-04-29T05:45:00Z</time>
<desc>lat.=21.672186, lon.=105.033516, Alt.=67.071350m. Speed=46.980000m/h.</desc>
<speed>13.050000</speed>
</trkpt>
<trkpt lat="21.672035" lon="105.034134">
<ele>67.573303</ele>
<time>2011-04-29T05:45:05Z</time>
<desc>lat.=21.672035, lon.=105.034134, Alt.=67.573303m. Speed=47.627998m/h.</desc>
<speed>13.230000</speed>
</trkpt>
<trkpt lat="21.671915" lon="105.034782">
<ele>65.586975</ele>
<time>2011-04-29T05:45:10Z</time>
<desc>lat.=21.671915, lon.=105.034782, Alt.=65.586975m. Speed=47.484001m/h.</desc>
<speed>13.190000</speed>
</trkpt>
<trkpt lat="21.671919" lon="105.035408">
<ele>64.372131</ele>
<time>2011-04-29T05:45:15Z</time>
<desc>lat.=21.671919, lon.=105.035408, Alt.=64.372131m. Speed=47.231998m/h.</desc>
<speed>13.120000</speed>
</trkpt>
<trkpt lat="21.672108" lon="105.035919">
<ele>63.165558</ele>
<time>2011-04-29T05:45:20Z</time>
<desc>lat.=21.672108, lon.=105.035919, Alt.=63.165558m. Speed=36.540001m/h.</desc>
<speed>10.150000</speed>
</trkpt>
<trkpt lat="21.672337" lon="105.036278">
<ele>62.872589</ele>
<time>2011-04-29T05:45:25Z</time>
<desc>lat.=21.672337, lon.=105.036278, Alt.=62.872589m. Speed=31.716000m/h.</desc>
<speed>8.810000</speed>
</trkpt>
<trkpt lat="21.672684" lon="105.036560">
<ele>62.788605</ele>
<time>2011-04-29T05:45:30Z</time>
<desc>lat.=21.672684, lon.=105.036560, Alt.=62.788605m. Speed=37.043999m/h.</desc>
<speed>10.290000</speed>
</trkpt>
<trkpt lat="21.673075" lon="105.036720">
<ele>60.520050</ele>
<time>2011-04-29T05:45:35Z</time>
<desc>lat.=21.673075, lon.=105.036720, Alt.=60.520050m. Speed=27.612000m/h.</desc>
<speed>7.670000</speed>
</trkpt>
<trkpt lat="21.673401" lon="105.036842">
<ele>59.261261</ele>
<time>2011-04-29T05:45:40Z</time>
<desc>lat.=21.673401, lon.=105.036842, Alt.=59.261261m. Speed=31.247999m/h.</desc>
<speed>8.680000</speed>
</trkpt>
<trkpt lat="21.673725" lon="105.037010">
<ele>59.979034</ele>
<time>2011-04-29T05:45:45Z</time>
<desc>lat.=21.673725, lon.=105.037010, Alt.=59.979034m. Speed=27.648001m/h.</desc>
<speed>7.680000</speed>
</trkpt>
<trkpt lat="21.673975" lon="105.037308">
<ele>59.882355</ele>
<time>2011-04-29T05:45:50Z</time>
<desc>lat.=21.673975, lon.=105.037308, Alt.=59.882355m. Speed=31.392000m/h.</desc>
<speed>8.720000</speed>
</trkpt>
<trkpt lat="21.674143" lon="105.037674">
<ele>59.149933</ele>
<time>2011-04-29T05:45:55Z</time>
<desc>lat.=21.674143, lon.=105.037674, Alt.=59.149933m. Speed=27.431999m/h.</desc>
<speed>7.620000</speed>
</trkpt>
<trkpt lat="21.674322" lon="105.038040">
<ele>59.285675</ele>
<time>2011-04-29T05:46:00Z</time>
<desc>lat.=21.674322, lon.=105.038040, Alt.=59.285675m. Speed=32.472000m/h.</desc>
<speed>9.020000</speed>
</trkpt>
<trkpt lat="21.674442" lon="105.038506">
<ele>59.581573</ele>
<time>2011-04-29T05:46:05Z</time>
<desc>lat.=21.674442, lon.=105.038506, Alt.=59.581573m. Speed=33.695999m/h.</desc>
<speed>9.360000</speed>
</trkpt>
<trkpt lat="21.674345" lon="105.038918">
<ele>59.232941</ele>
<time>2011-04-29T05:46:10Z</time>
<desc>lat.=21.674345, lon.=105.038918, Alt.=59.232941m. Speed=28.368000m/h.</desc>
<speed>7.880000</speed>
</trkpt>
<trkpt lat="21.674191" lon="105.039238">
<ele>58.300323</ele>
<time>2011-04-29T05:46:15Z</time>
<desc>lat.=21.674191, lon.=105.039238, Alt.=58.300323m. Speed=28.403999m/h.</desc>
<speed>7.890000</speed>
</trkpt>
<trkpt lat="21.673952" lon="105.039497">
<ele>58.671417</ele>
<time>2011-04-29T05:46:20Z</time>
<desc>lat.=21.673952, lon.=105.039497, Alt.=58.671417m. Speed=28.872000m/h.</desc>
<speed>8.020000</speed>
</trkpt>
<trkpt lat="21.673969" lon="105.039841">
<ele>59.126495</ele>
<time>2011-04-29T05:46:25Z</time>
<desc>lat.=21.673969, lon.=105.039841, Alt.=59.126495m. Speed=29.124001m/h.</desc>
<speed>8.090000</speed>
</trkpt>
<trkpt lat="21.674234" lon="105.040131">
<ele>59.710480</ele>
<time>2011-04-29T05:46:30Z</time>
<desc>lat.=21.674234, lon.=105.040131, Alt.=59.710480m. Speed=29.879999m/h.</desc>
<speed>8.300000</speed>
</trkpt>
<trkpt lat="21.674421" lon="105.040413">
<ele>60.425323</ele>
<time>2011-04-29T05:46:35Z</time>
<desc>lat.=21.674421, lon.=105.040413, Alt.=60.425323m. Speed=25.308001m/h.</desc>
<speed>7.030000</speed>
</trkpt>
<trkpt lat="21.674582" lon="105.040733">
<ele>60.348175</ele>
<time>2011-04-29T05:46:40Z</time>
<desc>lat.=21.674582, lon.=105.040733, Alt.=60.348175m. Speed=23.507999m/h.</desc>
<speed>6.530000</speed>
</trkpt>
<trkpt lat="21.674786" lon="105.040985">
<ele>59.681183</ele>
<time>2011-04-29T05:46:45Z</time>
<desc>lat.=21.674786, lon.=105.040985, Alt.=59.681183m. Speed=29.232000m/h.</desc>
<speed>8.120000</speed>
</trkpt>
<trkpt lat="21.675058" lon="105.041351">
<ele>57.857941</ele>
<time>2011-04-29T05:46:50Z</time>
<desc>lat.=21.675058, lon.=105.041351, Alt.=57.857941m. Speed=37.835999m/h.</desc>
<speed>10.510000</speed>
</trkpt>
<trkpt lat="21.675301" lon="105.041710">
<ele>55.967316</ele>
<time>2011-04-29T05:46:55Z</time>
<desc>lat.=21.675301, lon.=105.041710, Alt.=55.967316m. Speed=29.879999m/h.</desc>
<speed>8.300000</speed>
</trkpt>
<trkpt lat="21.675591" lon="105.042053">
<ele>53.246613</ele>
<time>2011-04-29T05:47:00Z</time>
<desc>lat.=21.675591, lon.=105.042053, Alt.=53.246613m. Speed=30.636000m/h.</desc>
<speed>8.510000</speed>
</trkpt>
<trkpt lat="21.675869" lon="105.042366">
<ele>51.586456</ele>
<time>2011-04-29T05:47:05Z</time>
<desc>lat.=21.675869, lon.=105.042366, Alt.=51.586456m. Speed=36.756001m/h.</desc>
<speed>10.210000</speed>
</trkpt>
<trkpt lat="21.676107" lon="105.042778">
<ele>48.968292</ele>
<time>2011-04-29T05:47:10Z</time>
<desc>lat.=21.676107, lon.=105.042778, Alt.=48.968292m. Speed=34.164001m/h.</desc>
<speed>9.490000</speed>
</trkpt>
<trkpt lat="21.676294" lon="105.043167">
<ele>48.040558</ele>
<time>2011-04-29T05:47:15Z</time>
<desc>lat.=21.676294, lon.=105.043167, Alt.=48.040558m. Speed=32.112000m/h.</desc>
<speed>8.920000</speed>
</trkpt>
<trkpt lat="21.676418" lon="105.043564">
<ele>47.112823</ele>
<time>2011-04-29T05:47:20Z</time>
<desc>lat.=21.676418, lon.=105.043564, Alt.=47.112823m. Speed=25.920000m/h.</desc>
<speed>7.200000</speed>
</trkpt>
<trkpt lat="21.676283" lon="105.043877">
<ele>46.107941</ele>
<time>2011-04-29T05:47:25Z</time>
<desc>lat.=21.676283, lon.=105.043877, Alt.=46.107941m. Speed=27.827999m/h.</desc>
<speed>7.730000</speed>
</trkpt>
<trkpt lat="21.675938" lon="105.044014">
<ele>44.772980</ele>
<time>2011-04-29T05:47:30Z</time>
<desc>lat.=21.675938, lon.=105.044014, Alt.=44.772980m. Speed=32.112000m/h.</desc>
<speed>8.920000</speed>
</trkpt>
<trkpt lat="21.675529" lon="105.044235">
<ele>44.035675</ele>
<time>2011-04-29T05:47:35Z</time>
<desc>lat.=21.675529, lon.=105.044235, Alt.=44.035675m. Speed=35.028000m/h.</desc>
<speed>9.730000</speed>
</trkpt>
<trkpt lat="21.675299" lon="105.044479">
<ele>44.063019</ele>
<time>2011-04-29T05:47:40Z</time>
<desc>lat.=21.675299, lon.=105.044479, Alt.=44.063019m. Speed=20.700001m/h.</desc>
<speed>5.750000</speed>
</trkpt>
<trkpt lat="21.675129" lon="105.044762">
<ele>43.440948</ele>
<time>2011-04-29T05:47:45Z</time>
<desc>lat.=21.675129, lon.=105.044762, Alt.=43.440948m. Speed=26.316000m/h.</desc>
<speed>7.310000</speed>
</trkpt>
<trkpt lat="21.675119" lon="105.045128">
<ele>42.479034</ele>
<time>2011-04-29T05:47:50Z</time>
<desc>lat.=21.675119, lon.=105.045128, Alt.=42.479034m. Speed=27.323999m/h.</desc>
<speed>7.590000</speed>
</trkpt>
<trkpt lat="21.675419" lon="105.045418">
<ele>41.590363</ele>
<time>2011-04-29T05:47:55Z</time>
<desc>lat.=21.675419, lon.=105.045418, Alt.=41.590363m. Speed=35.532001m/h.</desc>
<speed>9.870000</speed>
</trkpt>
<trkpt lat="21.675550" lon="105.045815">
<ele>40.606964</ele>
<time>2011-04-29T05:48:00Z</time>
<desc>lat.=21.675550, lon.=105.045815, Alt.=40.606964m. Speed=22.968000m/h.</desc>
<speed>6.380000</speed>
</trkpt>
<trkpt lat="21.675486" lon="105.046036">
<ele>39.532745</ele>
<time>2011-04-29T05:48:05Z</time>
<desc>lat.=21.675486, lon.=105.046036, Alt.=39.532745m. Speed=20.988001m/h.</desc>
<speed>5.830000</speed>
</trkpt>
<trkpt lat="21.675386" lon="105.046333">
<ele>38.774933</ele>
<time>2011-04-29T05:48:10Z</time>
<desc>lat.=21.675386, lon.=105.046333, Alt.=38.774933m. Speed=25.848000m/h.</desc>
<speed>7.180000</speed>
</trkpt>
<trkpt lat="21.675400" lon="105.046722">
<ele>38.381378</ele>
<time>2011-04-29T05:48:15Z</time>
<desc>lat.=21.675400, lon.=105.046722, Alt.=38.381378m. Speed=31.608000m/h.</desc>
<speed>8.780000</speed>
</trkpt>
<trkpt lat="21.675453" lon="105.047150">
<ele>37.345245</ele>
<time>2011-04-29T05:48:20Z</time>
<desc>lat.=21.675453, lon.=105.047150, Alt.=37.345245m. Speed=27.216000m/h.</desc>
<speed>7.560000</speed>
</trkpt>
<trkpt lat="21.675285" lon="105.047508">
<ele>36.830597</ele>
<time>2011-04-29T05:48:25Z</time>
<desc>lat.=21.675285, lon.=105.047508, Alt.=36.830597m. Speed=32.147999m/h.</desc>
<speed>8.930000</speed>
</trkpt>
<trkpt lat="21.675011" lon="105.047859">
<ele>35.615753</ele>
<time>2011-04-29T05:48:30Z</time>
<desc>lat.=21.675011, lon.=105.047859, Alt.=35.615753m. Speed=35.028000m/h.</desc>
<speed>9.730000</speed>
</trkpt>
<trkpt lat="21.674776" lon="105.048286">
<ele>34.502472</ele>
<time>2011-04-29T05:48:35Z</time>
<desc>lat.=21.674776, lon.=105.048286, Alt.=34.502472m. Speed=34.596001m/h.</desc>
<speed>9.610000</speed>
</trkpt>
<trkpt lat="21.674671" lon="105.048759">
<ele>33.621613</ele>
<time>2011-04-29T05:48:40Z</time>
<desc>lat.=21.674671, lon.=105.048759, Alt.=33.621613m. Speed=38.160000m/h.</desc>
<speed>10.600000</speed>
</trkpt>
<trkpt lat="21.674679" lon="105.049316">
<ele>33.151886</ele>
<time>2011-04-29T05:48:45Z</time>
<desc>lat.=21.674679, lon.=105.049316, Alt.=33.151886m. Speed=42.695999m/h.</desc>
<speed>11.860000</speed>
</trkpt>
<trkpt lat="21.674831" lon="105.049858">
<ele>32.009308</ele>
<time>2011-04-29T05:48:50Z</time>
<desc>lat.=21.674831, lon.=105.049858, Alt.=32.009308m. Speed=41.688000m/h.</desc>
<speed>11.580000</speed>
</trkpt>
<trkpt lat="21.675035" lon="105.050316">
<ele>32.620636</ele>
<time>2011-04-29T05:48:55Z</time>
<desc>lat.=21.675035, lon.=105.050316, Alt.=32.620636m. Speed=36.647999m/h.</desc>
<speed>10.180000</speed>
</trkpt>
<trkpt lat="21.674973" lon="105.050797">
<ele>33.198761</ele>
<time>2011-04-29T05:49:00Z</time>
<desc>lat.=21.674973, lon.=105.050797, Alt.=33.198761m. Speed=38.195999m/h.</desc>
<speed>10.610000</speed>
</trkpt>
<trkpt lat="21.674799" lon="105.051247">
<ele>34.438995</ele>
<time>2011-04-29T05:49:05Z</time>
<desc>lat.=21.674799, lon.=105.051247, Alt.=34.438995m. Speed=37.007999m/h.</desc>
<speed>10.280000</speed>
</trkpt>
<trkpt lat="21.674725" lon="105.051811">
<ele>35.364777</ele>
<time>2011-04-29T05:49:10Z</time>
<desc>lat.=21.674725, lon.=105.051811, Alt.=35.364777m. Speed=42.408001m/h.</desc>
<speed>11.780000</speed>
</trkpt>
<trkpt lat="21.674732" lon="105.052361">
<ele>36.017120</ele>
<time>2011-04-29T05:49:15Z</time>
<desc>lat.=21.674732, lon.=105.052361, Alt.=36.017120m. Speed=37.296001m/h.</desc>
<speed>10.360000</speed>
</trkpt>
<trkpt lat="21.674738" lon="105.052879">
<ele>37.069855</ele>
<time>2011-04-29T05:49:20Z</time>
<desc>lat.=21.674738, lon.=105.052879, Alt.=37.069855m. Speed=40.608002m/h.</desc>
<speed>11.280000</speed>
</trkpt>
<trkpt lat="21.674744" lon="105.053482">
<ele>37.668488</ele>
<time>2011-04-29T05:49:25Z</time>
<desc>lat.=21.674744, lon.=105.053482, Alt.=37.668488m. Speed=48.348000m/h.</desc>
<speed>13.430000</speed>
</trkpt>
<trkpt lat="21.674799" lon="105.054176">
<ele>38.463409</ele>
<time>2011-04-29T05:49:30Z</time>
<desc>lat.=21.674799, lon.=105.054176, Alt.=38.463409m. Speed=53.316002m/h.</desc>
<speed>14.810001</speed>
</trkpt>
<trkpt lat="21.674932" lon="105.054832">
<ele>36.499542</ele>
<time>2011-04-29T05:49:35Z</time>
<desc>lat.=21.674932, lon.=105.054832, Alt.=36.499542m. Speed=51.048000m/h.</desc>
<speed>14.180000</speed>
</trkpt>
<trkpt lat="21.675259" lon="105.055412">
<ele>35.648956</ele>
<time>2011-04-29T05:49:40Z</time>
<desc>lat.=21.675259, lon.=105.055412, Alt.=35.648956m. Speed=53.028000m/h.</desc>
<speed>14.730000</speed>
</trkpt>
<trkpt lat="21.675745" lon="105.055923">
<ele>32.534698</ele>
<time>2011-04-29T05:49:45Z</time>
<desc>lat.=21.675745, lon.=105.055923, Alt.=32.534698m. Speed=53.028000m/h.</desc>
<speed>14.730000</speed>
</trkpt>
<trkpt lat="21.676380" lon="105.056206">
<ele>30.189713</ele>
<time>2011-04-29T05:49:50Z</time>
<desc>lat.=21.676380, lon.=105.056206, Alt.=30.189713m. Speed=54.900002m/h.</desc>
<speed>15.250000</speed>
</trkpt>
<trkpt lat="21.676765" lon="105.056763">
<ele>28.610123</ele>
<time>2011-04-29T05:49:55Z</time>
<desc>lat.=21.676765, lon.=105.056763, Alt.=28.610123m. Speed=51.372002m/h.</desc>
<speed>14.270000</speed>
</trkpt>
<trkpt lat="21.677206" lon="105.057259">
<ele>25.838638</ele>
<time>2011-04-29T05:50:00Z</time>
<desc>lat.=21.677206, lon.=105.057259, Alt.=25.838638m. Speed=53.388000m/h.</desc>
<speed>14.830000</speed>
</trkpt>
<trkpt lat="21.677776" lon="105.057686">
<ele>23.804947</ele>
<time>2011-04-29T05:50:05Z</time>
<desc>lat.=21.677776, lon.=105.057686, Alt.=23.804947m. Speed=50.939999m/h.</desc>
<speed>14.150000</speed>
</trkpt>
<trkpt lat="21.677935" lon="105.058273">
<ele>22.941666</ele>
<time>2011-04-29T05:50:10Z</time>
<desc>lat.=21.677935, lon.=105.058273, Alt.=22.941666m. Speed=46.512001m/h.</desc>
<speed>12.920000</speed>
</trkpt>
<trkpt lat="21.677700" lon="105.058853">
<ele>21.450943</ele>
<time>2011-04-29T05:50:15Z</time>
<desc>lat.=21.677700, lon.=105.058853, Alt.=21.450943m. Speed=49.139999m/h.</desc>
<speed>13.650000</speed>
</trkpt>
<trkpt lat="21.677408" lon="105.059479">
<ele>21.719498</ele>
<time>2011-04-29T05:50:20Z</time>
<desc>lat.=21.677408, lon.=105.059479, Alt.=21.719498m. Speed=51.768002m/h.</desc>
<speed>14.380000</speed>
</trkpt>
<trkpt lat="21.677135" lon="105.060143">
<ele>21.261978</ele>
<time>2011-04-29T05:50:25Z</time>
<desc>lat.=21.677135, lon.=105.060143, Alt.=21.261978m. Speed=51.155998m/h.</desc>
<speed>14.210000</speed>
</trkpt>
<trkpt lat="21.677034" lon="105.060852">
<ele>19.966568</ele>
<time>2011-04-29T05:50:30Z</time>
<desc>lat.=21.677034, lon.=105.060852, Alt.=19.966568m. Speed=54.756001m/h.</desc>
<speed>15.210000</speed>
</trkpt>
<trkpt lat="21.676979" lon="105.061584">
<ele>17.971451</ele>
<time>2011-04-29T05:50:35Z</time>
<desc>lat.=21.676979, lon.=105.061584, Alt.=17.971451m. Speed=57.096001m/h.</desc>
<speed>15.860000</speed>
</trkpt>
<trkpt lat="21.677006" lon="105.062332">
<ele>17.159439</ele>
<time>2011-04-29T05:50:40Z</time>
<desc>lat.=21.677006, lon.=105.062332, Alt.=17.159439m. Speed=51.084000m/h.</desc>
<speed>14.190000</speed>
</trkpt>
<trkpt lat="21.677103" lon="105.062851">
<ele>18.746353</ele>
<time>2011-04-29T05:50:45Z</time>
<desc>lat.=21.677103, lon.=105.062851, Alt.=18.746353m. Speed=30.600000m/h.</desc>
<speed>8.500000</speed>
</trkpt>
<trkpt lat="21.677185" lon="105.063248">
<ele>19.373306</ele>
<time>2011-04-29T05:50:50Z</time>
<desc>lat.=21.677185, lon.=105.063248, Alt.=19.373306m. Speed=33.624001m/h.</desc>
<speed>9.340000</speed>
</trkpt>
<trkpt lat="21.677265" lon="105.063744">
<ele>20.691666</ele>
<time>2011-04-29T05:50:55Z</time>
<desc>lat.=21.677265, lon.=105.063744, Alt.=20.691666m. Speed=41.939999m/h.</desc>
<speed>11.650000</speed>
</trkpt>
<trkpt lat="21.677374" lon="105.064255">
<ele>19.776138</ele>
<time>2011-04-29T05:51:00Z</time>
<desc>lat.=21.677374, lon.=105.064255, Alt.=19.776138m. Speed=38.807999m/h.</desc>
<speed>10.780000</speed>
</trkpt>
<trkpt lat="21.677425" lon="105.064789">
<ele>19.631607</ele>
<time>2011-04-29T05:51:05Z</time>
<desc>lat.=21.677425, lon.=105.064789, Alt.=19.631607m. Speed=42.515999m/h.</desc>
<speed>11.810000</speed>
</trkpt>
<trkpt lat="21.677488" lon="105.065384">
<ele>21.189713</ele>
<time>2011-04-29T05:51:10Z</time>
<desc>lat.=21.677488, lon.=105.065384, Alt.=21.189713m. Speed=45.612000m/h.</desc>
<speed>12.670000</speed>
</trkpt>
<trkpt lat="21.677582" lon="105.066086">
<ele>21.717545</ele>
<time>2011-04-29T05:51:15Z</time>
<desc>lat.=21.677582, lon.=105.066086, Alt.=21.717545m. Speed=54.287998m/h.</desc>
<speed>15.079999</speed>
</trkpt>
<trkpt lat="21.677668" lon="105.066826">
<ele>21.844498</ele>
<time>2011-04-29T05:51:20Z</time>
<desc>lat.=21.677668, lon.=105.066826, Alt.=21.844498m. Speed=51.408001m/h.</desc>
<speed>14.280000</speed>
</trkpt>
<trkpt lat="21.677767" lon="105.067474">
<ele>22.510513</ele>
<time>2011-04-29T05:51:25Z</time>
<desc>lat.=21.677767, lon.=105.067474, Alt.=22.510513m. Speed=48.743999m/h.</desc>
<speed>13.540000</speed>
</trkpt>
<trkpt lat="21.677826" lon="105.068115">
<ele>23.315689</ele>
<time>2011-04-29T05:51:30Z</time>
<desc>lat.=21.677826, lon.=105.068115, Alt.=23.315689m. Speed=50.147999m/h.</desc>
<speed>13.930000</speed>
</trkpt>
<trkpt lat="21.677923" lon="105.068771">
<ele>23.872330</ele>
<time>2011-04-29T05:51:35Z</time>
<desc>lat.=21.677923, lon.=105.068771, Alt.=23.872330m. Speed=47.051998m/h.</desc>
<speed>13.069999</speed>
</trkpt>
<trkpt lat="21.678066" lon="105.069283">
<ele>22.498795</ele>
<time>2011-04-29T05:51:40Z</time>
<desc>lat.=21.678066, lon.=105.069283, Alt.=22.498795m. Speed=36.431999m/h.</desc>
<speed>10.120000</speed>
</trkpt>
<trkpt lat="21.678318" lon="105.069778">
<ele>19.469009</ele>
<time>2011-04-29T05:51:45Z</time>
<desc>lat.=21.678318, lon.=105.069778, Alt.=19.469009m. Speed=47.664001m/h.</desc>
<speed>13.240000</speed>
</trkpt>
<trkpt lat="21.678709" lon="105.070305">
<ele>18.785904</ele>
<time>2011-04-29T05:51:50Z</time>
<desc>lat.=21.678709, lon.=105.070305, Alt.=18.785904m. Speed=51.768002m/h.</desc>
<speed>14.380000</speed>
</trkpt>
<trkpt lat="21.679136" lon="105.070847">
<ele>17.556412</ele>
<time>2011-04-29T05:51:55Z</time>
<desc>lat.=21.679136, lon.=105.070847, Alt.=17.556412m. Speed=53.388000m/h.</desc>
<speed>14.830000</speed>
</trkpt>
<trkpt lat="21.679596" lon="105.071335">
<ele>14.667122</ele>
<time>2011-04-29T05:52:00Z</time>
<desc>lat.=21.679596, lon.=105.071335, Alt.=14.667122m. Speed=53.243999m/h.</desc>
<speed>14.790000</speed>
</trkpt>
<trkpt lat="21.679974" lon="105.071861">
<ele>15.522102</ele>
<time>2011-04-29T05:52:05Z</time>
<desc>lat.=21.679974, lon.=105.071861, Alt.=15.522102m. Speed=46.799999m/h.</desc>
<speed>13.000000</speed>
</trkpt>
<trkpt lat="21.679916" lon="105.072395">
<ele>16.528580</ele>
<time>2011-04-29T05:52:10Z</time>
<desc>lat.=21.679916, lon.=105.072395, Alt.=16.528580m. Speed=43.020000m/h.</desc>
<speed>11.950000</speed>
</trkpt>
<trkpt lat="21.679609" lon="105.072914">
<ele>17.544205</ele>
<time>2011-04-29T05:52:15Z</time>
<desc>lat.=21.679609, lon.=105.072914, Alt.=17.544205m. Speed=43.380001m/h.</desc>
<speed>12.050000</speed>
</trkpt>
<trkpt lat="21.679377" lon="105.073402">
<ele>18.676529</ele>
<time>2011-04-29T05:52:20Z</time>
<desc>lat.=21.679377, lon.=105.073402, Alt.=18.676529m. Speed=41.220001m/h.</desc>
<speed>11.450000</speed>
</trkpt>
<trkpt lat="21.679295" lon="105.073990">
<ele>20.554459</ele>
<time>2011-04-29T05:52:25Z</time>
<desc>lat.=21.679295, lon.=105.073990, Alt.=20.554459m. Speed=45.720001m/h.</desc>
<speed>12.700000</speed>
</trkpt>
<trkpt lat="21.679346" lon="105.074654">
<ele>19.525650</ele>
<time>2011-04-29T05:52:30Z</time>
<desc>lat.=21.679346, lon.=105.074654, Alt.=19.525650m. Speed=49.500000m/h.</desc>
<speed>13.750000</speed>
</trkpt>
<trkpt lat="21.679628" lon="105.075272">
<ele>15.398323</ele>
<time>2011-04-29T05:52:35Z</time>
<desc>lat.=21.679628, lon.=105.075272, Alt.=15.398323m. Speed=49.175999m/h.</desc>
<speed>13.660000</speed>
</trkpt>
<trkpt lat="21.680082" lon="105.075806">
<ele>13.224983</ele>
<time>2011-04-29T05:52:40Z</time>
<desc>lat.=21.680082, lon.=105.075806, Alt.=13.224983m. Speed=54.071999m/h.</desc>
<speed>15.020000</speed>
</trkpt>
<trkpt lat="21.680462" lon="105.076431">
<ele>11.974983</ele>
<time>2011-04-29T05:52:45Z</time>
<desc>lat.=21.680462, lon.=105.076431, Alt.=11.974983m. Speed=52.632000m/h.</desc>
<speed>14.620000</speed>
</trkpt>
<trkpt lat="21.680658" lon="105.076988">
<ele>11.397346</ele>
<time>2011-04-29T05:52:50Z</time>
<desc>lat.=21.680658, lon.=105.076988, Alt.=11.397346m. Speed=31.068001m/h.</desc>
<speed>8.630000</speed>
</trkpt>
<trkpt lat="21.680645" lon="105.077133">
<ele>11.062874</ele>
<time>2011-04-29T05:52:55Z</time>
<desc>lat.=21.680645, lon.=105.077133, Alt.=11.062874m. Speed=2.124000m/h.</desc>
<speed>0.590000</speed>
</trkpt>
<trkpt lat="21.680609" lon="105.077141">
<ele>11.363655</ele>
<time>2011-04-29T05:53:00Z</time>
<desc>lat.=21.680609, lon.=105.077141, Alt.=11.363655m. Speed=2.052000m/h.</desc>
<speed>0.570000</speed>
</trkpt>
<trkpt lat="21.680601" lon="105.077164">
<ele>12.165413</ele>
<time>2011-04-29T05:53:05Z</time>
<desc>lat.=21.680601, lon.=105.077164, Alt.=12.165413m. Speed=1.584000m/h.</desc>
<speed>0.440000</speed>
</trkpt>
<trkpt lat="21.680597" lon="105.077187">
<ele>12.953011</ele>
<time>2011-04-29T05:53:10Z</time>
<desc>lat.=21.680597, lon.=105.077187, Alt.=12.953011m. Speed=2.016000m/h.</desc>
<speed>0.560000</speed>
</trkpt>
<trkpt lat="21.680563" lon="105.077263">
<ele>14.769173</ele>
<time>2011-04-29T05:53:15Z</time>
<desc>lat.=21.680563, lon.=105.077263, Alt.=14.769173m. Speed=12.744000m/h.</desc>
<speed>3.540000</speed>
</trkpt>
<trkpt lat="21.680435" lon="105.077438">
<ele>14.814339</ele>
<time>2011-04-29T05:53:20Z</time>
<desc>lat.=21.680435, lon.=105.077438, Alt.=14.814339m. Speed=18.468000m/h.</desc>
<speed>5.130000</speed>
</trkpt>
<trkpt lat="21.680202" lon="105.077698">
<ele>15.100471</ele>
<time>2011-04-29T05:53:25Z</time>
<desc>lat.=21.680202, lon.=105.077698, Alt.=15.100471m. Speed=29.268000m/h.</desc>
<speed>8.130000</speed>
</trkpt>
<trkpt lat="21.679737" lon="105.077896">
<ele>14.799934</ele>
<time>2011-04-29T05:53:30Z</time>
<desc>lat.=21.679737, lon.=105.077896, Alt.=14.799934m. Speed=39.636002m/h.</desc>
<speed>11.010000</speed>
</trkpt>
<trkpt lat="21.679237" lon="105.077980">
<ele>14.168343</ele>
<time>2011-04-29T05:53:35Z</time>
<desc>lat.=21.679237, lon.=105.077980, Alt.=14.168343m. Speed=41.292000m/h.</desc>
<speed>11.470000</speed>
</trkpt>
<trkpt lat="21.678665" lon="105.078148">
<ele>14.163948</ele>
<time>2011-04-29T05:53:40Z</time>
<desc>lat.=21.678665, lon.=105.078148, Alt.=14.163948m. Speed=48.060001m/h.</desc>
<speed>13.350000</speed>
</trkpt>
<trkpt lat="21.678062" lon="105.078415">
<ele>14.671272</ele>
<time>2011-04-29T05:53:45Z</time>
<desc>lat.=21.678062, lon.=105.078415, Alt.=14.671272m. Speed=52.523998m/h.</desc>
<speed>14.590000</speed>
</trkpt>
<trkpt lat="21.677492" lon="105.078857">
<ele>15.530403</ele>
<time>2011-04-29T05:53:50Z</time>
<desc>lat.=21.677492, lon.=105.078857, Alt.=15.530403m. Speed=56.664001m/h.</desc>
<speed>15.740000</speed>
</trkpt>
<trkpt lat="21.676943" lon="105.079407">
<ele>15.810432</ele>
<time>2011-04-29T05:53:55Z</time>
<desc>lat.=21.676943, lon.=105.079407, Alt.=15.810432m. Speed=58.751999m/h.</desc>
<speed>16.320000</speed>
</trkpt>
<trkpt lat="21.676405" lon="105.079964">
<ele>16.181900</ele>
<time>2011-04-29T05:54:00Z</time>
<desc>lat.=21.676405, lon.=105.079964, Alt.=16.181900m. Speed=61.416000m/h.</desc>
<speed>17.060000</speed>
</trkpt>
<trkpt lat="21.675840" lon="105.080589">
<ele>16.787857</ele>
<time>2011-04-29T05:54:05Z</time>
<desc>lat.=21.675840, lon.=105.080589, Alt.=16.787857m. Speed=67.320000m/h.</desc>
<speed>18.700000</speed>
</trkpt>
<trkpt lat="21.675222" lon="105.081245">
<ele>17.821548</ele>
<time>2011-04-29T05:54:10Z</time>
<desc>lat.=21.675222, lon.=105.081245, Alt.=17.821548m. Speed=69.624001m/h.</desc>
<speed>19.340000</speed>
</trkpt>
<trkpt lat="21.674606" lon="105.081848">
<ele>19.146744</ele>
<time>2011-04-29T05:54:15Z</time>
<desc>lat.=21.674606, lon.=105.081848, Alt.=19.146744m. Speed=64.944000m/h.</desc>
<speed>18.040000</speed>
</trkpt>
<trkpt lat="21.674028" lon="105.082451">
<ele>20.569595</ele>
<time>2011-04-29T05:54:20Z</time>
<desc>lat.=21.674028, lon.=105.082451, Alt.=20.569595m. Speed=63.792000m/h.</desc>
<speed>17.720000</speed>
</trkpt>
<trkpt lat="21.673531" lon="105.083153">
<ele>21.011002</ele>
<time>2011-04-29T05:54:25Z</time>
<desc>lat.=21.673531, lon.=105.083153, Alt.=21.011002m. Speed=65.124001m/h.</desc>
<speed>18.090000</speed>
</trkpt>
<trkpt lat="21.673058" lon="105.083893">
<ele>21.853287</ele>
<time>2011-04-29T05:54:30Z</time>
<desc>lat.=21.673058, lon.=105.083893, Alt.=21.853287m. Speed=60.911999m/h.</desc>
<speed>16.920000</speed>
</trkpt>
<trkpt lat="21.672670" lon="105.084473">
<ele>22.222916</ele>
<time>2011-04-29T05:54:35Z</time>
<desc>lat.=21.672670, lon.=105.084473, Alt.=22.222916m. Speed=53.208000m/h.</desc>
<speed>14.780000</speed>
</trkpt>
<trkpt lat="21.672096" lon="105.084763">
<ele>20.758560</ele>
<time>2011-04-29T05:54:40Z</time>
<desc>lat.=21.672096, lon.=105.084763, Alt.=20.758560m. Speed=54.504002m/h.</desc>
<speed>15.140000</speed>
</trkpt>
<trkpt lat="21.671402" lon="105.084694">
<ele>20.623795</ele>
<time>2011-04-29T05:54:45Z</time>
<desc>lat.=21.671402, lon.=105.084694, Alt.=20.623795m. Speed=56.375999m/h.</desc>
<speed>15.660000</speed>
</trkpt>
<trkpt lat="21.670826" lon="105.084282">
<ele>21.690689</ele>
<time>2011-04-29T05:54:50Z</time>
<desc>lat.=21.670826, lon.=105.084282, Alt.=21.690689m. Speed=52.380001m/h.</desc>
<speed>14.550000</speed>
</trkpt>
<trkpt lat="21.670427" lon="105.083725">
<ele>24.377213</ele>
<time>2011-04-29T05:54:55Z</time>
<desc>lat.=21.670427, lon.=105.083725, Alt.=24.377213m. Speed=48.888000m/h.</desc>
<speed>13.580000</speed>
</trkpt>
<trkpt lat="21.669989" lon="105.083420">
<ele>26.193130</ele>
<time>2011-04-29T05:55:00Z</time>
<desc>lat.=21.669989, lon.=105.083420, Alt.=26.193130m. Speed=42.875999m/h.</desc>
<speed>11.910000</speed>
</trkpt>
<trkpt lat="21.669418" lon="105.083496">
<ele>27.538834</ele>
<time>2011-04-29T05:55:05Z</time>
<desc>lat.=21.669418, lon.=105.083496, Alt.=27.538834m. Speed=47.952000m/h.</desc>
<speed>13.320000</speed>
</trkpt>
<trkpt lat="21.668850" lon="105.083748">
<ele>27.696548</ele>
<time>2011-04-29T05:55:10Z</time>
<desc>lat.=21.668850, lon.=105.083748, Alt.=27.696548m. Speed=49.860001m/h.</desc>
<speed>13.850000</speed>
</trkpt>
<trkpt lat="21.668341" lon="105.084167">
<ele>28.841080</ele>
<time>2011-04-29T05:55:15Z</time>
<desc>lat.=21.668341, lon.=105.084167, Alt.=28.841080m. Speed=48.995998m/h.</desc>
<speed>13.610000</speed>
</trkpt>
<trkpt lat="21.667933" lon="105.084633">
<ele>30.973892</ele>
<time>2011-04-29T05:55:20Z</time>
<desc>lat.=21.667933, lon.=105.084633, Alt.=30.973892m. Speed=48.383999m/h.</desc>
<speed>13.440000</speed>
</trkpt>
<trkpt lat="21.667469" lon="105.085052">
<ele>31.939713</ele>
<time>2011-04-29T05:55:25Z</time>
<desc>lat.=21.667469, lon.=105.085052, Alt.=31.939713m. Speed=50.327999m/h.</desc>
<speed>13.980000</speed>
</trkpt>
<trkpt lat="21.666847" lon="105.085342">
<ele>29.079361</ele>
<time>2011-04-29T05:55:30Z</time>
<desc>lat.=21.666847, lon.=105.085342, Alt.=29.079361m. Speed=59.616001m/h.</desc>
<speed>16.560000</speed>
</trkpt>
<trkpt lat="21.666067" lon="105.085503">
<ele>25.813736</ele>
<time>2011-04-29T05:55:35Z</time>
<desc>lat.=21.666067, lon.=105.085503, Alt.=25.813736m. Speed=65.160004m/h.</desc>
<speed>18.100001</speed>
</trkpt>
<trkpt lat="21.665253" lon="105.085617">
<ele>25.682388</ele>
<time>2011-04-29T05:55:40Z</time>
<desc>lat.=21.665253, lon.=105.085617, Alt.=25.682388m. Speed=63.431999m/h.</desc>
<speed>17.620000</speed>
</trkpt>
<trkpt lat="21.664461" lon="105.085747">
<ele>24.203873</ele>
<time>2011-04-29T05:55:45Z</time>
<desc>lat.=21.664461, lon.=105.085747, Alt.=24.203873m. Speed=60.660000m/h.</desc>
<speed>16.850000</speed>
</trkpt>
<trkpt lat="21.663769" lon="105.086037">
<ele>21.076920</ele>
<time>2011-04-29T05:55:50Z</time>
<desc>lat.=21.663769, lon.=105.086037, Alt.=21.076920m. Speed=60.768002m/h.</desc>
<speed>16.880000</speed>
</trkpt>
<trkpt lat="21.663290" lon="105.086563">
<ele>19.170670</ele>
<time>2011-04-29T05:55:55Z</time>
<desc>lat.=21.663290, lon.=105.086563, Alt.=19.170670m. Speed=50.580002m/h.</desc>
<speed>14.050001</speed>
</trkpt>
<trkpt lat="21.662981" lon="105.087051">
<ele>17.843033</ele>
<time>2011-04-29T05:56:00Z</time>
<desc>lat.=21.662981, lon.=105.087051, Alt.=17.843033m. Speed=33.480000m/h.</desc>
<speed>9.300000</speed>
</trkpt>
<trkpt lat="21.662827" lon="105.087227">
<ele>16.591568</ele>
<time>2011-04-29T05:56:05Z</time>
<desc>lat.=21.662827, lon.=105.087227, Alt.=16.591568m. Speed=16.020000m/h.</desc>
<speed>4.450000</speed>
</trkpt>
<trkpt lat="21.662651" lon="105.087372">
<ele>14.151741</ele>
<time>2011-04-29T05:56:10Z</time>
<desc>lat.=21.662651, lon.=105.087372, Alt.=14.151741m. Speed=23.652000m/h.</desc>
<speed>6.570000</speed>
</trkpt>
<trkpt lat="21.662357" lon="105.087631">
<ele>12.612434</ele>
<time>2011-04-29T05:56:15Z</time>
<desc>lat.=21.662357, lon.=105.087631, Alt.=12.612434m. Speed=36.071999m/h.</desc>
<speed>10.020000</speed>
</trkpt>
<trkpt lat="21.662031" lon="105.087845">
<ele>12.051399</ele>
<time>2011-04-29T05:56:20Z</time>
<desc>lat.=21.662031, lon.=105.087845, Alt.=12.051399m. Speed=25.488001m/h.</desc>
<speed>7.080000</speed>
</trkpt>
<trkpt lat="21.661886" lon="105.087875">
<ele>11.049202</ele>
<time>2011-04-29T05:56:25Z</time>
<desc>lat.=21.661886, lon.=105.087875, Alt.=11.049202m. Speed=8.460000m/h.</desc>
<speed>2.350000</speed>
</trkpt>
<trkpt lat="21.661699" lon="105.087936">
<ele>8.785530</ele>
<time>2011-04-29T05:56:30Z</time>
<desc>lat.=21.661699, lon.=105.087936, Alt.=8.785530m. Speed=17.856001m/h.</desc>
<speed>4.960000</speed>
</trkpt>
<trkpt lat="21.661442" lon="105.088013">
<ele>8.967659</ele>
<time>2011-04-29T05:56:35Z</time>
<desc>lat.=21.661442, lon.=105.088013, Alt.=8.967659m. Speed=24.875999m/h.</desc>
<speed>6.910000</speed>
</trkpt>
<trkpt lat="21.661024" lon="105.088120">
<ele>8.040413</ele>
<time>2011-04-29T05:56:40Z</time>
<desc>lat.=21.661024, lon.=105.088120, Alt.=8.040413m. Speed=35.855999m/h.</desc>
<speed>9.960000</speed>
</trkpt>
<trkpt lat="21.660549" lon="105.088150">
<ele>8.348030</ele>
<time>2011-04-29T05:56:45Z</time>
<desc>lat.=21.660549, lon.=105.088150, Alt.=8.348030m. Speed=38.807999m/h.</desc>
<speed>10.780000</speed>
</trkpt>
<trkpt lat="21.660027" lon="105.088043">
<ele>8.364143</ele>
<time>2011-04-29T05:56:50Z</time>
<desc>lat.=21.660027, lon.=105.088043, Alt.=8.364143m. Speed=43.703999m/h.</desc>
<speed>12.140000</speed>
</trkpt>
<trkpt lat="21.659464" lon="105.087837">
<ele>7.830753</ele>
<time>2011-04-29T05:56:55Z</time>
<desc>lat.=21.659464, lon.=105.087837, Alt.=7.830753m. Speed=45.972000m/h.</desc>
<speed>12.770000</speed>
</trkpt>
<trkpt lat="21.658895" lon="105.087646">
<ele>7.121647</ele>
<time>2011-04-29T05:57:00Z</time>
<desc>lat.=21.658895, lon.=105.087646, Alt.=7.121647m. Speed=43.487999m/h.</desc>
<speed>12.080000</speed>
</trkpt>
<trkpt lat="21.658325" lon="105.087700">
<ele>7.521671</ele>
<time>2011-04-29T05:57:05Z</time>
<desc>lat.=21.658325, lon.=105.087700, Alt.=7.521671m. Speed=44.352001m/h.</desc>
<speed>12.320000</speed>
</trkpt>
<trkpt lat="21.657745" lon="105.088028">
<ele>7.952457</ele>
<time>2011-04-29T05:57:10Z</time>
<desc>lat.=21.657745, lon.=105.088028, Alt.=7.952457m. Speed=53.172001m/h.</desc>
<speed>14.770000</speed>
</trkpt>
<trkpt lat="21.657137" lon="105.088394">
<ele>8.088264</ele>
<time>2011-04-29T05:57:15Z</time>
<desc>lat.=21.657137, lon.=105.088394, Alt.=8.088264m. Speed=55.332001m/h.</desc>
<speed>15.370000</speed>
</trkpt>
<trkpt lat="21.656443" lon="105.088493">
<ele>10.895149</ele>
<time>2011-04-29T05:57:20Z</time>
<desc>lat.=21.656443, lon.=105.088493, Alt.=10.895149m. Speed=54.108002m/h.</desc>
<speed>15.030000</speed>
</trkpt>
<trkpt lat="21.655760" lon="105.088387">
<ele>14.153206</ele>
<time>2011-04-29T05:57:25Z</time>
<desc>lat.=21.655760, lon.=105.088387, Alt.=14.153206m. Speed=54.396000m/h.</desc>
<speed>15.110000</speed>
</trkpt>
<trkpt lat="21.655087" lon="105.088249">
<ele>18.726822</ele>
<time>2011-04-29T05:57:30Z</time>
<desc>lat.=21.655087, lon.=105.088249, Alt.=18.726822m. Speed=56.880001m/h.</desc>
<speed>15.800000</speed>
</trkpt>
<trkpt lat="21.654417" lon="105.088104">
<ele>21.029556</ele>
<time>2011-04-29T05:57:35Z</time>
<desc>lat.=21.654417, lon.=105.088104, Alt.=21.029556m. Speed=56.807999m/h.</desc>
<speed>15.780000</speed>
</trkpt>
<trkpt lat="21.653698" lon="105.087967">
<ele>21.750748</ele>
<time>2011-04-29T05:57:40Z</time>
<desc>lat.=21.653698, lon.=105.087967, Alt.=21.750748m. Speed=57.023998m/h.</desc>
<speed>15.840000</speed>
</trkpt>
<trkpt lat="21.652966" lon="105.088036">
<ele>23.204361</ele>
<time>2011-04-29T05:57:45Z</time>
<desc>lat.=21.652966, lon.=105.088036, Alt.=23.204361m. Speed=55.944000m/h.</desc>
<speed>15.540000</speed>
</trkpt>
<trkpt lat="21.652277" lon="105.088371">
<ele>24.805435</ele>
<time>2011-04-29T05:57:50Z</time>
<desc>lat.=21.652277, lon.=105.088371, Alt.=24.805435m. Speed=62.208000m/h.</desc>
<speed>17.280000</speed>
</trkpt>
<trkpt lat="21.651703" lon="105.088905">
<ele>23.847427</ele>
<time>2011-04-29T05:57:55Z</time>
<desc>lat.=21.651703, lon.=105.088905, Alt.=23.847427m. Speed=59.723999m/h.</desc>
<speed>16.590000</speed>
</trkpt>
<trkpt lat="21.651150" lon="105.089439">
<ele>24.764908</ele>
<time>2011-04-29T05:58:00Z</time>
<desc>lat.=21.651150, lon.=105.089439, Alt.=24.764908m. Speed=60.444000m/h.</desc>
<speed>16.790000</speed>
</trkpt>
<trkpt lat="21.650661" lon="105.090057">
<ele>25.607681</ele>
<time>2011-04-29T05:58:05Z</time>
<desc>lat.=21.650661, lon.=105.090057, Alt.=25.607681m. Speed=60.084000m/h.</desc>
<speed>16.690000</speed>
</trkpt>
<trkpt lat="21.650229" lon="105.090736">
<ele>26.064713</ele>
<time>2011-04-29T05:58:10Z</time>
<desc>lat.=21.650229, lon.=105.090736, Alt.=26.064713m. Speed=58.032001m/h.</desc>
<speed>16.120000</speed>
</trkpt>
<trkpt lat="21.649933" lon="105.091476">
<ele>26.157974</ele>
<time>2011-04-29T05:58:15Z</time>
<desc>lat.=21.649933, lon.=105.091476, Alt.=26.157974m. Speed=59.472000m/h.</desc>
<speed>16.520000</speed>
</trkpt>
<trkpt lat="21.649544" lon="105.092125">
<ele>24.501236</ele>
<time>2011-04-29T05:58:20Z</time>
<desc>lat.=21.649544, lon.=105.092125, Alt.=24.501236m. Speed=57.888000m/h.</desc>
<speed>16.080000</speed>
</trkpt>
<trkpt lat="21.648996" lon="105.092529">
<ele>21.741470</ele>
<time>2011-04-29T05:58:25Z</time>
<desc>lat.=21.648996, lon.=105.092529, Alt.=21.741470m. Speed=56.124001m/h.</desc>
<speed>15.590000</speed>
</trkpt>
<trkpt lat="21.648523" lon="105.093048">
<ele>18.984146</ele>
<time>2011-04-29T05:58:30Z</time>
<desc>lat.=21.648523, lon.=105.093048, Alt.=18.984146m. Speed=51.768002m/h.</desc>
<speed>14.380000</speed>
</trkpt>
<trkpt lat="21.648216" lon="105.093636">
<ele>19.241959</ele>
<time>2011-04-29T05:58:35Z</time>
<desc>lat.=21.648216, lon.=105.093636, Alt.=19.241959m. Speed=48.167999m/h.</desc>
<speed>13.380000</speed>
</trkpt>
<trkpt lat="21.647909" lon="105.094025">
<ele>21.261490</ele>
<time>2011-04-29T05:58:40Z</time>
<desc>lat.=21.647909, lon.=105.094025, Alt.=21.261490m. Speed=23.292000m/h.</desc>
<speed>6.470000</speed>
</trkpt>
<trkpt lat="21.647818" lon="105.094116">
<ele>19.828873</ele>
<time>2011-04-29T05:58:45Z</time>
<desc>lat.=21.647818, lon.=105.094116, Alt.=19.828873m. Speed=8.892000m/h.</desc>
<speed>2.470000</speed>
</trkpt>
<trkpt lat="21.647717" lon="105.094223">
<ele>20.189224</ele>
<time>2011-04-29T05:58:50Z</time>
<desc>lat.=21.647717, lon.=105.094223, Alt.=20.189224m. Speed=15.768000m/h.</desc>
<speed>4.380000</speed>
</trkpt>
<trkpt lat="21.647495" lon="105.094383">
<ele>20.250259</ele>
<time>2011-04-29T05:58:55Z</time>
<desc>lat.=21.647495, lon.=105.094383, Alt.=20.250259m. Speed=24.084000m/h.</desc>
<speed>6.690000</speed>
</trkpt>
<trkpt lat="21.647108" lon="105.094513">
<ele>21.909439</ele>
<time>2011-04-29T05:59:00Z</time>
<desc>lat.=21.647108, lon.=105.094513, Alt.=21.909439m. Speed=38.088001m/h.</desc>
<speed>10.580000</speed>
</trkpt>
<trkpt lat="21.646620" lon="105.094666">
<ele>21.876236</ele>
<time>2011-04-29T05:59:05Z</time>
<desc>lat.=21.646620, lon.=105.094666, Alt.=21.876236m. Speed=41.868000m/h.</desc>
<speed>11.630000</speed>
</trkpt>
<trkpt lat="21.646172" lon="105.095024">
<ele>20.769302</ele>
<time>2011-04-29T05:59:10Z</time>
<desc>lat.=21.646172, lon.=105.095024, Alt.=20.769302m. Speed=43.740002m/h.</desc>
<speed>12.150000</speed>
</trkpt>
<trkpt lat="21.645903" lon="105.095551">
<ele>21.083267</ele>
<time>2011-04-29T05:59:15Z</time>
<desc>lat.=21.645903, lon.=105.095551, Alt.=21.083267m. Speed=45.683998m/h.</desc>
<speed>12.689999</speed>
</trkpt>
<trkpt lat="21.645823" lon="105.096161">
<ele>22.689713</ele>
<time>2011-04-29T05:59:20Z</time>
<desc>lat.=21.645823, lon.=105.096161, Alt.=22.689713m. Speed=47.520000m/h.</desc>
<speed>13.200000</speed>
</trkpt>
<trkpt lat="21.645985" lon="105.096809">
<ele>22.920670</ele>
<time>2011-04-29T05:59:25Z</time>
<desc>lat.=21.645985, lon.=105.096809, Alt.=22.920670m. Speed=53.099998m/h.</desc>
<speed>14.750000</speed>
</trkpt>
<trkpt lat="21.646288" lon="105.097466">
<ele>23.112564</ele>
<time>2011-04-29T05:59:30Z</time>
<desc>lat.=21.646288, lon.=105.097466, Alt.=23.112564m. Speed=51.228001m/h.</desc>
<speed>14.230000</speed>
</trkpt>
<trkpt lat="21.646385" lon="105.098099">
<ele>22.738541</ele>
<time>2011-04-29T05:59:35Z</time>
<desc>lat.=21.646385, lon.=105.098099, Alt.=22.738541m. Speed=43.596001m/h.</desc>
<speed>12.110000</speed>
</trkpt>
<trkpt lat="21.646051" lon="105.098564">
<ele>23.134048</ele>
<time>2011-04-29T05:59:40Z</time>
<desc>lat.=21.646051, lon.=105.098564, Alt.=23.134048m. Speed=43.956001m/h.</desc>
<speed>12.210000</speed>
</trkpt>
<trkpt lat="21.645561" lon="105.098938">
<ele>23.074478</ele>
<time>2011-04-29T05:59:45Z</time>
<desc>lat.=21.645561, lon.=105.098938, Alt.=23.074478m. Speed=50.723999m/h.</desc>
<speed>14.090000</speed>
</trkpt>
<trkpt lat="21.645325" lon="105.099556">
<ele>24.000259</ele>
<time>2011-04-29T05:59:50Z</time>
<desc>lat.=21.645325, lon.=105.099556, Alt.=24.000259m. Speed=51.480000m/h.</desc>
<speed>14.300000</speed>
</trkpt>
<trkpt lat="21.645309" lon="105.100296">
<ele>24.972427</ele>
<time>2011-04-29T05:59:55Z</time>
<desc>lat.=21.645309, lon.=105.100296, Alt.=24.972427m. Speed=52.667999m/h.</desc>
<speed>14.630000</speed>
</trkpt>
<trkpt lat="21.645304" lon="105.101067">
<ele>25.068619</ele>
<time>2011-04-29T06:00:00Z</time>
<desc>lat.=21.645304, lon.=105.101067, Alt.=25.068619m. Speed=55.259998m/h.</desc>
<speed>15.350000</speed>
</trkpt>
<trkpt lat="21.645262" lon="105.101860">
<ele>24.627701</ele>
<time>2011-04-29T06:00:05Z</time>
<desc>lat.=21.645262, lon.=105.101860, Alt.=24.627701m. Speed=59.939999m/h.</desc>
<speed>16.650000</speed>
</trkpt>
<trkpt lat="21.645205" lon="105.102669">
<ele>23.304947</ele>
<time>2011-04-29T06:00:10Z</time>
<desc>lat.=21.645205, lon.=105.102669, Alt.=23.304947m. Speed=62.891998m/h.</desc>
<speed>17.470000</speed>
</trkpt>
<trkpt lat="21.645157" lon="105.103477">
<ele>23.374283</ele>
<time>2011-04-29T06:00:15Z</time>
<desc>lat.=21.645157, lon.=105.103477, Alt.=23.374283m. Speed=60.372002m/h.</desc>
<speed>16.770000</speed>
</trkpt>
<trkpt lat="21.645130" lon="105.104309">
<ele>22.423599</ele>
<time>2011-04-29T06:00:20Z</time>
<desc>lat.=21.645130, lon.=105.104309, Alt.=22.423599m. Speed=62.424000m/h.</desc>
<speed>17.340000</speed>
</trkpt>
<trkpt lat="21.644979" lon="105.105095">
<ele>21.302017</ele>
<time>2011-04-29T06:00:25Z</time>
<desc>lat.=21.644979, lon.=105.105095, Alt.=21.302017m. Speed=57.276001m/h.</desc>
<speed>15.910000</speed>
</trkpt>
<trkpt lat="21.644680" lon="105.105812">
<ele>19.261490</ele>
<time>2011-04-29T06:00:30Z</time>
<desc>lat.=21.644680, lon.=105.105812, Alt.=19.261490m. Speed=58.824001m/h.</desc>
<speed>16.340000</speed>
</trkpt>
<trkpt lat="21.644264" lon="105.106483">
<ele>17.966568</ele>
<time>2011-04-29T06:00:35Z</time>
<desc>lat.=21.644264, lon.=105.106483, Alt.=17.966568m. Speed=57.708000m/h.</desc>
<speed>16.030000</speed>
</trkpt>
<trkpt lat="21.643717" lon="105.106918">
<ele>16.151627</ele>
<time>2011-04-29T06:00:40Z</time>
<desc>lat.=21.643717, lon.=105.106918, Alt.=16.151627m. Speed=55.872002m/h.</desc>
<speed>15.520000</speed>
</trkpt>
<trkpt lat="21.643061" lon="105.107224">
<ele>16.166763</ele>
<time>2011-04-29T06:00:45Z</time>
<desc>lat.=21.643061, lon.=105.107224, Alt.=16.166763m. Speed=56.375999m/h.</desc>
<speed>15.660000</speed>
</trkpt>
<trkpt lat="21.642529" lon="105.107681">
<ele>16.357681</ele>
<time>2011-04-29T06:00:50Z</time>
<desc>lat.=21.642529, lon.=105.107681, Alt.=16.357681m. Speed=52.523998m/h.</desc>
<speed>14.590000</speed>
</trkpt>
<trkpt lat="21.642269" lon="105.108376">
<ele>17.766861</ele>
<time>2011-04-29T06:00:55Z</time>
<desc>lat.=21.642269, lon.=105.108376, Alt.=17.766861m. Speed=55.116001m/h.</desc>
<speed>15.310000</speed>
</trkpt>
<trkpt lat="21.641979" lon="105.109062">
<ele>19.605240</ele>
<time>2011-04-29T06:01:00Z</time>
<desc>lat.=21.641979, lon.=105.109062, Alt.=19.605240m. Speed=58.248001m/h.</desc>
<speed>16.180000</speed>
</trkpt>
<trkpt lat="21.641491" lon="105.109650">
<ele>17.824478</ele>
<time>2011-04-29T06:01:05Z</time>
<desc>lat.=21.641491, lon.=105.109650, Alt.=17.824478m. Speed=62.028000m/h.</desc>
<speed>17.230000</speed>
</trkpt>
<trkpt lat="21.640991" lon="105.110313">
<ele>18.654068</ele>
<time>2011-04-29T06:01:10Z</time>
<desc>lat.=21.640991, lon.=105.110313, Alt.=18.654068m. Speed=61.848000m/h.</desc>
<speed>17.180000</speed>
</trkpt>
<trkpt lat="21.640568" lon="105.111015">
<ele>18.877213</ele>
<time>2011-04-29T06:01:15Z</time>
<desc>lat.=21.640568, lon.=105.111015, Alt.=18.877213m. Speed=63.612000m/h.</desc>
<speed>17.670000</speed>
</trkpt>
<trkpt lat="21.640207" lon="105.111732">
<ele>19.268326</ele>
<time>2011-04-29T06:01:20Z</time>
<desc>lat.=21.640207, lon.=105.111732, Alt.=19.268326m. Speed=57.563999m/h.</desc>
<speed>15.990000</speed>
</trkpt>
<trkpt lat="21.639795" lon="105.112328">
<ele>18.909439</ele>
<time>2011-04-29T06:01:25Z</time>
<desc>lat.=21.639795, lon.=105.112328, Alt.=18.909439m. Speed=55.835999m/h.</desc>
<speed>15.510000</speed>
</trkpt>
<trkpt lat="21.639244" lon="105.112694">
<ele>20.018814</ele>
<time>2011-04-29T06:01:30Z</time>
<desc>lat.=21.639244, lon.=105.112694, Alt.=20.018814m. Speed=51.299999m/h.</desc>
<speed>14.250000</speed>
</trkpt>
<trkpt lat="21.638554" lon="105.112587">
<ele>15.902718</ele>
<time>2011-04-29T06:01:35Z</time>
<desc>lat.=21.638554, lon.=105.112587, Alt.=15.902718m. Speed=55.223999m/h.</desc>
<speed>15.340000</speed>
</trkpt>
<trkpt lat="21.637844" lon="105.112373">
<ele>15.550667</ele>
<time>2011-04-29T06:01:40Z</time>
<desc>lat.=21.637844, lon.=105.112373, Alt.=15.550667m. Speed=57.708000m/h.</desc>
<speed>16.030000</speed>
</trkpt>
<trkpt lat="21.637104" lon="105.112259">
<ele>15.351448</ele>
<time>2011-04-29T06:01:45Z</time>
<desc>lat.=21.637104, lon.=105.112259, Alt.=15.351448m. Speed=59.688000m/h.</desc>
<speed>16.580000</speed>
</trkpt>
<trkpt lat="21.636389" lon="105.112381">
<ele>17.156021</ele>
<time>2011-04-29T06:01:50Z</time>
<desc>lat.=21.636389, lon.=105.112381, Alt.=17.156021m. Speed=57.492001m/h.</desc>
<speed>15.970000</speed>
</trkpt>
<trkpt lat="21.635807" lon="105.112732">
<ele>20.485123</ele>
<time>2011-04-29T06:01:55Z</time>
<desc>lat.=21.635807, lon.=105.112732, Alt.=20.485123m. Speed=52.883999m/h.</desc>
<speed>14.690000</speed>
</trkpt>
<trkpt lat="21.635279" lon="105.113083">
<ele>22.369888</ele>
<time>2011-04-29T06:02:00Z</time>
<desc>lat.=21.635279, lon.=105.113083, Alt.=22.369888m. Speed=45.972000m/h.</desc>
<speed>12.770000</speed>
</trkpt>
<trkpt lat="21.634678" lon="105.113144">
<ele>21.912369</ele>
<time>2011-04-29T06:02:05Z</time>
<desc>lat.=21.634678, lon.=105.113144, Alt.=21.912369m. Speed=46.944000m/h.</desc>
<speed>13.040000</speed>
</trkpt>
<trkpt lat="21.634092" lon="105.113327">
<ele>19.210220</ele>
<time>2011-04-29T06:02:10Z</time>
<desc>lat.=21.634092, lon.=105.113327, Alt.=19.210220m. Speed=47.807999m/h.</desc>
<speed>13.280000</speed>
</trkpt>
<trkpt lat="21.633749" lon="105.113792">
<ele>16.546646</ele>
<time>2011-04-29T06:02:15Z</time>
<desc>lat.=21.633749, lon.=105.113792, Alt.=16.546646m. Speed=37.728001m/h.</desc>
<speed>10.480000</speed>
</trkpt>
<trkpt lat="21.633686" lon="105.114250">
<ele>14.944954</ele>
<time>2011-04-29T06:02:20Z</time>
<desc>lat.=21.633686, lon.=105.114250, Alt.=14.944954m. Speed=36.396000m/h.</desc>
<speed>10.110000</speed>
</trkpt>
<trkpt lat="21.633911" lon="105.114754">
<ele>13.668098</ele>
<time>2011-04-29T06:02:25Z</time>
<desc>lat.=21.633911, lon.=105.114754, Alt.=13.668098m. Speed=43.956001m/h.</desc>
<speed>12.210000</speed>
</trkpt>
<trkpt lat="21.634241" lon="105.115295">
<ele>11.824104</ele>
<time>2011-04-29T06:02:30Z</time>
<desc>lat.=21.634241, lon.=105.115295, Alt.=11.824104m. Speed=48.743999m/h.</desc>
<speed>13.540000</speed>
</trkpt>
<trkpt lat="21.634304" lon="105.115898">
<ele>10.946175</ele>
<time>2011-04-29T06:02:35Z</time>
<desc>lat.=21.634304, lon.=105.115898, Alt.=10.946175m. Speed=42.588001m/h.</desc>
<speed>11.830000</speed>
</trkpt>
<trkpt lat="21.633999" lon="105.116447">
<ele>9.992317</ele>
<time>2011-04-29T06:02:40Z</time>
<desc>lat.=21.633999, lon.=105.116447, Alt.=9.992317m. Speed=45.360001m/h.</desc>
<speed>12.600000</speed>
</trkpt>
<trkpt lat="21.633497" lon="105.116722">
<ele>9.027962</ele>
<time>2011-04-29T06:02:45Z</time>
<desc>lat.=21.633497, lon.=105.116722, Alt.=9.027962m. Speed=46.439999m/h.</desc>
<speed>12.900000</speed>
</trkpt>
<trkpt lat="21.632978" lon="105.116982">
<ele>12.092659</ele>
<time>2011-04-29T06:02:50Z</time>
<desc>lat.=21.632978, lon.=105.116982, Alt.=12.092659m. Speed=43.200001m/h.</desc>
<speed>12.000000</speed>
</trkpt>
<trkpt lat="21.632624" lon="105.117233">
<ele>12.850960</ele>
<time>2011-04-29T06:02:55Z</time>
<desc>lat.=21.632624, lon.=105.117233, Alt.=12.850960m. Speed=33.372002m/h.</desc>
<speed>9.270000</speed>
</trkpt>
<trkpt lat="21.632412" lon="105.117638">
<ele>14.568001</ele>
<time>2011-04-29T06:03:00Z</time>
<desc>lat.=21.632412, lon.=105.117638, Alt.=14.568001m. Speed=36.071999m/h.</desc>
<speed>10.020000</speed>
</trkpt>
<trkpt lat="21.632277" lon="105.118134">
<ele>15.167366</ele>
<time>2011-04-29T06:03:05Z</time>
<desc>lat.=21.632277, lon.=105.118134, Alt.=15.167366m. Speed=41.616001m/h.</desc>
<speed>11.560000</speed>
</trkpt>
<trkpt lat="21.632195" lon="105.118690">
<ele>17.435318</ele>
<time>2011-04-29T06:03:10Z</time>
<desc>lat.=21.632195, lon.=105.118690, Alt.=17.435318m. Speed=42.012001m/h.</desc>
<speed>11.670000</speed>
</trkpt>
<trkpt lat="21.632341" lon="105.119293">
<ele>17.953873</ele>
<time>2011-04-29T06:03:15Z</time>
<desc>lat.=21.632341, lon.=105.119293, Alt.=17.953873m. Speed=45.936001m/h.</desc>
<speed>12.760000</speed>
</trkpt>
<trkpt lat="21.632635" lon="105.119873">
<ele>19.050064</ele>
<time>2011-04-29T06:03:20Z</time>
<desc>lat.=21.632635, lon.=105.119873, Alt.=19.050064m. Speed=45.071999m/h.</desc>
<speed>12.520000</speed>
</trkpt>
<trkpt lat="21.632767" lon="105.120506">
<ele>18.385025</ele>
<time>2011-04-29T06:03:25Z</time>
<desc>lat.=21.632767, lon.=105.120506, Alt.=18.385025m. Speed=51.588001m/h.</desc>
<speed>14.330000</speed>
</trkpt>
<trkpt lat="21.632769" lon="105.121094">
<ele>17.847427</ele>
<time>2011-04-29T06:03:30Z</time>
<desc>lat.=21.632769, lon.=105.121094, Alt.=17.847427m. Speed=42.048000m/h.</desc>
<speed>11.680000</speed>
</trkpt>
<trkpt lat="21.632849" lon="105.121635">
<ele>17.892838</ele>
<time>2011-04-29T06:03:35Z</time>
<desc>lat.=21.632849, lon.=105.121635, Alt.=17.892838m. Speed=40.787998m/h.</desc>
<speed>11.329999</speed>
</trkpt>
<trkpt lat="21.632910" lon="105.122169">
<ele>17.675064</ele>
<time>2011-04-29T06:03:40Z</time>
<desc>lat.=21.632910, lon.=105.122169, Alt.=17.675064m. Speed=42.012001m/h.</desc>
<speed>11.670000</speed>
</trkpt>
<trkpt lat="21.632893" lon="105.122757">
<ele>18.037369</ele>
<time>2011-04-29T06:03:45Z</time>
<desc>lat.=21.632893, lon.=105.122757, Alt.=18.037369m. Speed=42.911999m/h.</desc>
<speed>11.920000</speed>
</trkpt>
<trkpt lat="21.632904" lon="105.123329">
<ele>18.628189</ele>
<time>2011-04-29T06:03:50Z</time>
<desc>lat.=21.632904, lon.=105.123329, Alt.=18.628189m. Speed=41.868000m/h.</desc>
<speed>11.630000</speed>
</trkpt>
<trkpt lat="21.632874" lon="105.123924">
<ele>19.189224</ele>
<time>2011-04-29T06:03:55Z</time>
<desc>lat.=21.632874, lon.=105.123924, Alt.=19.189224m. Speed=44.388000m/h.</desc>
<speed>12.330000</speed>
</trkpt>
<trkpt lat="21.632849" lon="105.124504">
<ele>20.132095</ele>
<time>2011-04-29T06:04:00Z</time>
<desc>lat.=21.632849, lon.=105.124504, Alt.=20.132095m. Speed=40.428001m/h.</desc>
<speed>11.230000</speed>
</trkpt>
<trkpt lat="21.632778" lon="105.125053">
<ele>18.132584</ele>
<time>2011-04-29T06:04:05Z</time>
<desc>lat.=21.632778, lon.=105.125053, Alt.=18.132584m. Speed=40.571999m/h.</desc>
<speed>11.270000</speed>
</trkpt>
<trkpt lat="21.632620" lon="105.125572">
<ele>16.774673</ele>
<time>2011-04-29T06:04:10Z</time>
<desc>lat.=21.632620, lon.=105.125572, Alt.=16.774673m. Speed=39.852001m/h.</desc>
<speed>11.070000</speed>
</trkpt>
<trkpt lat="21.632332" lon="105.126068">
<ele>15.172981</ele>
<time>2011-04-29T06:04:15Z</time>
<desc>lat.=21.632332, lon.=105.126068, Alt.=15.172981m. Speed=43.091999m/h.</desc>
<speed>11.970000</speed>
</trkpt>
<trkpt lat="21.632010" lon="105.126503">
<ele>15.958382</ele>
<time>2011-04-29T06:04:20Z</time>
<desc>lat.=21.632010, lon.=105.126503, Alt.=15.958382m. Speed=39.708000m/h.</desc>
<speed>11.030000</speed>
</trkpt>
<trkpt lat="21.631744" lon="105.126945">
<ele>17.073013</ele>
<time>2011-04-29T06:04:25Z</time>
<desc>lat.=21.631744, lon.=105.126945, Alt.=17.073013m. Speed=36.035999m/h.</desc>
<speed>10.010000</speed>
</trkpt>
<trkpt lat="21.631569" lon="105.127464">
<ele>16.356216</ele>
<time>2011-04-29T06:04:30Z</time>
<desc>lat.=21.631569, lon.=105.127464, Alt.=16.356216m. Speed=41.256001m/h.</desc>
<speed>11.460000</speed>
</trkpt>
<trkpt lat="21.631483" lon="105.127953">
<ele>17.346939</ele>
<time>2011-04-29T06:04:35Z</time>
<desc>lat.=21.631483, lon.=105.127953, Alt.=17.346939m. Speed=39.959999m/h.</desc>
<speed>11.100000</speed>
</trkpt>
<trkpt lat="21.631548" lon="105.128494">
<ele>19.406509</ele>
<time>2011-04-29T06:04:40Z</time>
<desc>lat.=21.631548, lon.=105.128494, Alt.=19.406509m. Speed=39.203999m/h.</desc>
<speed>10.890000</speed>
</trkpt>
<trkpt lat="21.631657" lon="105.129021">
<ele>19.631607</ele>
<time>2011-04-29T06:04:45Z</time>
<desc>lat.=21.631657, lon.=105.129021, Alt.=19.631607m. Speed=41.076000m/h.</desc>
<speed>11.410000</speed>
</trkpt>
<trkpt lat="21.631773" lon="105.129593">
<ele>18.341080</ele>
<time>2011-04-29T06:04:50Z</time>
<desc>lat.=21.631773, lon.=105.129593, Alt.=18.341080m. Speed=42.480000m/h.</desc>
<speed>11.800000</speed>
</trkpt>
<trkpt lat="21.631899" lon="105.130150">
<ele>19.003677</ele>
<time>2011-04-29T06:04:55Z</time>
<desc>lat.=21.631899, lon.=105.130150, Alt.=19.003677m. Speed=41.652000m/h.</desc>
<speed>11.570000</speed>
</trkpt>
<trkpt lat="21.631985" lon="105.130714">
<ele>18.982681</ele>
<time>2011-04-29T06:05:00Z</time>
<desc>lat.=21.631985, lon.=105.130714, Alt.=18.982681m. Speed=42.299999m/h.</desc>
<speed>11.750000</speed>
</trkpt>
<trkpt lat="21.632076" lon="105.131302">
<ele>18.135513</ele>
<time>2011-04-29T06:05:05Z</time>
<desc>lat.=21.632076, lon.=105.131302, Alt.=18.135513m. Speed=44.820000m/h.</desc>
<speed>12.450000</speed>
</trkpt>
<trkpt lat="21.632195" lon="105.131851">
<ele>18.702408</ele>
<time>2011-04-29T06:05:10Z</time>
<desc>lat.=21.632195, lon.=105.131851, Alt.=18.702408m. Speed=42.624001m/h.</desc>
<speed>11.840000</speed>
</trkpt>
<trkpt lat="21.632286" lon="105.132423">
<ele>16.500259</ele>
<time>2011-04-29T06:05:15Z</time>
<desc>lat.=21.632286, lon.=105.132423, Alt.=16.500259m. Speed=38.591999m/h.</desc>
<speed>10.720000</speed>
</trkpt>
<trkpt lat="21.632349" lon="105.132957">
<ele>16.180435</ele>
<time>2011-04-29T06:05:20Z</time>
<desc>lat.=21.632349, lon.=105.132957, Alt.=16.180435m. Speed=42.335999m/h.</desc>
<speed>11.760000</speed>
</trkpt>
<trkpt lat="21.632277" lon="105.133568">
<ele>16.372330</ele>
<time>2011-04-29T06:05:25Z</time>
<desc>lat.=21.632277, lon.=105.133568, Alt.=16.372330m. Speed=45.863998m/h.</desc>
<speed>12.740000</speed>
</trkpt>
<trkpt lat="21.632084" lon="105.134155">
<ele>16.476334</ele>
<time>2011-04-29T06:05:30Z</time>
<desc>lat.=21.632084, lon.=105.134155, Alt.=16.476334m. Speed=43.344002m/h.</desc>
<speed>12.040000</speed>
</trkpt>
<trkpt lat="21.631790" lon="105.134682">
<ele>17.815201</ele>
<time>2011-04-29T06:05:35Z</time>
<desc>lat.=21.631790, lon.=105.134682, Alt.=17.815201m. Speed=42.480000m/h.</desc>
<speed>11.800000</speed>
</trkpt>
<trkpt lat="21.631489" lon="105.135178">
<ele>17.377701</ele>
<time>2011-04-29T06:05:40Z</time>
<desc>lat.=21.631489, lon.=105.135178, Alt.=17.377701m. Speed=44.495998m/h.</desc>
<speed>12.360000</speed>
</trkpt>
<trkpt lat="21.631176" lon="105.135712">
<ele>15.781868</ele>
<time>2011-04-29T06:05:45Z</time>
<desc>lat.=21.631176, lon.=105.135712, Alt.=15.781868m. Speed=48.995998m/h.</desc>
<speed>13.610000</speed>
</trkpt>
<trkpt lat="21.630833" lon="105.136269">
<ele>15.127571</ele>
<time>2011-04-29T06:05:50Z</time>
<desc>lat.=21.630833, lon.=105.136269, Alt.=15.127571m. Speed=49.608002m/h.</desc>
<speed>13.780000</speed>
</trkpt>
<trkpt lat="21.630470" lon="105.136833">
<ele>15.427132</ele>
<time>2011-04-29T06:05:55Z</time>
<desc>lat.=21.630470, lon.=105.136833, Alt.=15.427132m. Speed=54.756001m/h.</desc>
<speed>15.210000</speed>
</trkpt>
<trkpt lat="21.630089" lon="105.137451">
<ele>15.277473</ele>
<time>2011-04-29T06:06:00Z</time>
<desc>lat.=21.630089, lon.=105.137451, Alt.=15.277473m. Speed=55.259998m/h.</desc>
<speed>15.350000</speed>
</trkpt>
<trkpt lat="21.629709" lon="105.138069">
<ele>14.590950</ele>
<time>2011-04-29T06:06:05Z</time>
<desc>lat.=21.629709, lon.=105.138069, Alt.=14.590950m. Speed=55.584000m/h.</desc>
<speed>15.440000</speed>
</trkpt>
<trkpt lat="21.629311" lon="105.138702">
<ele>14.480843</ele>
<time>2011-04-29T06:06:10Z</time>
<desc>lat.=21.629311, lon.=105.138702, Alt.=14.480843m. Speed=57.636002m/h.</desc>
<speed>16.010000</speed>
</trkpt>
<trkpt lat="21.628910" lon="105.139320">
<ele>14.121468</ele>
<time>2011-04-29T06:06:15Z</time>
<desc>lat.=21.628910, lon.=105.139320, Alt.=14.121468m. Speed=57.132000m/h.</desc>
<speed>15.870000</speed>
</trkpt>
<trkpt lat="21.628523" lon="105.139877">
<ele>13.799934</ele>
<time>2011-04-29T06:06:20Z</time>
<desc>lat.=21.628523, lon.=105.139877, Alt.=13.799934m. Speed=50.327999m/h.</desc>
<speed>13.980000</speed>
</trkpt>
<trkpt lat="21.628159" lon="105.140388">
<ele>14.041634</ele>
<time>2011-04-29T06:06:25Z</time>
<desc>lat.=21.628159, lon.=105.140388, Alt.=14.041634m. Speed=47.088001m/h.</desc>
<speed>13.080000</speed>
</trkpt>
<trkpt lat="21.627800" lon="105.140839">
<ele>15.453987</ele>
<time>2011-04-29T06:06:30Z</time>
<desc>lat.=21.627800, lon.=105.140839, Alt.=15.453987m. Speed=44.891998m/h.</desc>
<speed>12.470000</speed>
</trkpt>
<trkpt lat="21.627443" lon="105.141327">
<ele>16.158463</ele>
<time>2011-04-29T06:06:35Z</time>
<desc>lat.=21.627443, lon.=105.141327, Alt.=16.158463m. Speed=45.324001m/h.</desc>
<speed>12.590000</speed>
</trkpt>
<trkpt lat="21.627102" lon="105.141785">
<ele>17.097916</ele>
<time>2011-04-29T06:06:40Z</time>
<desc>lat.=21.627102, lon.=105.141785, Alt.=17.097916m. Speed=38.736000m/h.</desc>
<speed>10.760000</speed>
</trkpt>
<trkpt lat="21.626869" lon="105.142128">
<ele>17.910904</ele>
<time>2011-04-29T06:06:45Z</time>
<desc>lat.=21.626869, lon.=105.142128, Alt.=17.910904m. Speed=25.271999m/h.</desc>
<speed>7.020000</speed>
</trkpt>
<trkpt lat="21.626644" lon="105.142456">
<ele>17.549576</ele>
<time>2011-04-29T06:06:50Z</time>
<desc>lat.=21.626644, lon.=105.142456, Alt.=17.549576m. Speed=34.560001m/h.</desc>
<speed>9.600000</speed>
</trkpt>
<trkpt lat="21.626348" lon="105.142838">
<ele>16.595963</ele>
<time>2011-04-29T06:06:55Z</time>
<desc>lat.=21.626348, lon.=105.142838, Alt.=16.595963m. Speed=38.771999m/h.</desc>
<speed>10.770000</speed>
</trkpt>
<trkpt lat="21.626011" lon="105.143295">
<ele>15.819710</ele>
<time>2011-04-29T06:07:00Z</time>
<desc>lat.=21.626011, lon.=105.143295, Alt.=15.819710m. Speed=47.771999m/h.</desc>
<speed>13.270000</speed>
</trkpt>
<trkpt lat="21.625622" lon="105.143822">
<ele>15.721565</ele>
<time>2011-04-29T06:07:05Z</time>
<desc>lat.=21.625622, lon.=105.143822, Alt.=15.721565m. Speed=51.911999m/h.</desc>
<speed>14.420000</speed>
</trkpt>
<trkpt lat="21.625214" lon="105.144402">
<ele>14.888802</ele>
<time>2011-04-29T06:07:10Z</time>
<desc>lat.=21.625214, lon.=105.144402, Alt.=14.888802m. Speed=54.396000m/h.</desc>
<speed>15.110000</speed>
</trkpt>
<trkpt lat="21.624800" lon="105.144966">
<ele>13.784065</ele>
<time>2011-04-29T06:07:15Z</time>
<desc>lat.=21.624800, lon.=105.144966, Alt.=13.784065m. Speed=54.431999m/h.</desc>
<speed>15.120000</speed>
</trkpt>
<trkpt lat="21.624403" lon="105.145508">
<ele>13.645393</ele>
<time>2011-04-29T06:07:20Z</time>
<desc>lat.=21.624403, lon.=105.145508, Alt.=13.645393m. Speed=50.796001m/h.</desc>
<speed>14.110000</speed>
</trkpt>
<trkpt lat="21.624018" lon="105.146027">
<ele>13.028450</ele>
<time>2011-04-29T06:07:25Z</time>
<desc>lat.=21.624018, lon.=105.146027, Alt.=13.028450m. Speed=50.507999m/h.</desc>
<speed>14.030000</speed>
</trkpt>
<trkpt lat="21.623623" lon="105.146545">
<ele>12.019173</ele>
<time>2011-04-29T06:07:30Z</time>
<desc>lat.=21.623623, lon.=105.146545, Alt.=12.019173m. Speed=51.119999m/h.</desc>
<speed>14.200000</speed>
</trkpt>
<trkpt lat="21.623302" lon="105.147163">
<ele>12.047493</ele>
<time>2011-04-29T06:07:35Z</time>
<desc>lat.=21.623302, lon.=105.147163, Alt.=12.047493m. Speed=52.200001m/h.</desc>
<speed>14.500000</speed>
</trkpt>
<trkpt lat="21.623077" lon="105.147820">
<ele>10.976448</ele>
<time>2011-04-29T06:07:40Z</time>
<desc>lat.=21.623077, lon.=105.147820, Alt.=10.976448m. Speed=50.076000m/h.</desc>
<speed>13.910000</speed>
</trkpt>
<trkpt lat="21.622936" lon="105.148460">
<ele>9.828743</ele>
<time>2011-04-29T06:07:45Z</time>
<desc>lat.=21.622936, lon.=105.148460, Alt.=9.828743m. Speed=45.972000m/h.</desc>
<speed>12.770000</speed>
</trkpt>
<trkpt lat="21.622858" lon="105.149010">
<ele>7.739079</ele>
<time>2011-04-29T06:07:50Z</time>
<desc>lat.=21.622858, lon.=105.149010, Alt.=7.739079m. Speed=43.632000m/h.</desc>
<speed>12.120000</speed>
</trkpt>
<trkpt lat="21.622812" lon="105.149590">
<ele>8.042366</ele>
<time>2011-04-29T06:07:55Z</time>
<desc>lat.=21.622812, lon.=105.149590, Alt.=8.042366m. Speed=43.776001m/h.</desc>
<speed>12.160000</speed>
</trkpt>
<trkpt lat="21.622789" lon="105.150146">
<ele>8.881233</ele>
<time>2011-04-29T06:08:00Z</time>
<desc>lat.=21.622789, lon.=105.150146, Alt.=8.881233m. Speed=42.264000m/h.</desc>
<speed>11.740000</speed>
</trkpt>
<trkpt lat="21.622852" lon="105.150719">
<ele>9.604378</ele>
<time>2011-04-29T06:08:05Z</time>
<desc>lat.=21.622852, lon.=105.150719, Alt.=9.604378m. Speed=44.855999m/h.</desc>
<speed>12.460000</speed>
</trkpt>
<trkpt lat="21.622997" lon="105.151283">
<ele>11.717171</ele>
<time>2011-04-29T06:08:10Z</time>
<desc>lat.=21.622997, lon.=105.151283, Alt.=11.717171m. Speed=37.872002m/h.</desc>
<speed>10.520000</speed>
</trkpt>
<trkpt lat="21.623278" lon="105.151695">
<ele>11.712532</ele>
<time>2011-04-29T06:08:15Z</time>
<desc>lat.=21.623278, lon.=105.151695, Alt.=11.712532m. Speed=39.743999m/h.</desc>
<speed>11.040000</speed>
</trkpt>
<trkpt lat="21.623695" lon="105.151993">
<ele>13.203255</ele>
<time>2011-04-29T06:08:20Z</time>
<desc>lat.=21.623695, lon.=105.151993, Alt.=13.203255m. Speed=40.751999m/h.</desc>
<speed>11.320000</speed>
</trkpt>
<trkpt lat="21.624142" lon="105.152252">
<ele>13.505257</ele>
<time>2011-04-29T06:08:25Z</time>
<desc>lat.=21.624142, lon.=105.152252, Alt.=13.505257m. Speed=40.751999m/h.</desc>
<speed>11.320000</speed>
</trkpt>
<trkpt lat="21.624598" lon="105.152504">
<ele>13.371468</ele>
<time>2011-04-29T06:08:30Z</time>
<desc>lat.=21.624598, lon.=105.152504, Alt.=13.371468m. Speed=40.212002m/h.</desc>
<speed>11.170001</speed>
</trkpt>
<trkpt lat="21.625027" lon="105.152779">
<ele>14.241096</ele>
<time>2011-04-29T06:08:35Z</time>
<desc>lat.=21.625027, lon.=105.152779, Alt.=14.241096m. Speed=38.916000m/h.</desc>
<speed>10.810000</speed>
</trkpt>
<trkpt lat="21.625433" lon="105.153046">
<ele>14.981819</ele>
<time>2011-04-29T06:08:40Z</time>
<desc>lat.=21.625433, lon.=105.153046, Alt.=14.981819m. Speed=37.188000m/h.</desc>
<speed>10.330000</speed>
</trkpt>
<trkpt lat="21.625816" lon="105.153290">
<ele>15.949837</ele>
<time>2011-04-29T06:08:45Z</time>
<desc>lat.=21.625816, lon.=105.153290, Alt.=15.949837m. Speed=34.307999m/h.</desc>
<speed>9.530000</speed>
</trkpt>
<trkpt lat="21.626150" lon="105.153557">
<ele>17.655533</ele>
<time>2011-04-29T06:08:50Z</time>
<desc>lat.=21.626150, lon.=105.153557, Alt.=17.655533m. Speed=35.352001m/h.</desc>
<speed>9.820000</speed>
</trkpt>
<trkpt lat="21.626398" lon="105.154015">
<ele>18.949966</ele>
<time>2011-04-29T06:08:55Z</time>
<desc>lat.=21.626398, lon.=105.154015, Alt.=18.949966m. Speed=41.688000m/h.</desc>
<speed>11.580000</speed>
</trkpt>
<trkpt lat="21.626484" lon="105.154594">
<ele>20.114029</ele>
<time>2011-04-29T06:09:00Z</time>
<desc>lat.=21.626484, lon.=105.154594, Alt.=20.114029m. Speed=45.108002m/h.</desc>
<speed>12.530000</speed>
</trkpt>
<trkpt lat="21.626459" lon="105.155190">
<ele>19.858658</ele>
<time>2011-04-29T06:09:05Z</time>
<desc>lat.=21.626459, lon.=105.155190, Alt.=19.858658m. Speed=47.268002m/h.</desc>
<speed>13.130000</speed>
</trkpt>
<trkpt lat="21.626425" lon="105.155792">
<ele>15.207893</ele>
<time>2011-04-29T06:09:10Z</time>
<desc>lat.=21.626425, lon.=105.155792, Alt.=15.207893m. Speed=45.936001m/h.</desc>
<speed>12.760000</speed>
</trkpt>
<trkpt lat="21.626295" lon="105.156464">
<ele>14.311897</ele>
<time>2011-04-29T06:09:15Z</time>
<desc>lat.=21.626295, lon.=105.156464, Alt.=14.311897m. Speed=46.908001m/h.</desc>
<speed>13.030000</speed>
</trkpt>
<trkpt lat="21.626129" lon="105.157082">
<ele>14.917366</ele>
<time>2011-04-29T06:09:20Z</time>
<desc>lat.=21.626129, lon.=105.157082, Alt.=14.917366m. Speed=44.712002m/h.</desc>
<speed>12.420001</speed>
</trkpt>
<trkpt lat="21.625866" lon="105.157654">
<ele>14.129036</ele>
<time>2011-04-29T06:09:25Z</time>
<desc>lat.=21.625866, lon.=105.157654, Alt.=14.129036m. Speed=48.383999m/h.</desc>
<speed>13.440000</speed>
</trkpt>
<trkpt lat="21.625601" lon="105.158211">
<ele>13.793343</ele>
<time>2011-04-29T06:09:30Z</time>
<desc>lat.=21.625601, lon.=105.158211, Alt.=13.793343m. Speed=46.223999m/h.</desc>
<speed>12.840000</speed>
</trkpt>
<trkpt lat="21.625345" lon="105.158699">
<ele>13.386604</ele>
<time>2011-04-29T06:09:35Z</time>
<desc>lat.=21.625345, lon.=105.158699, Alt.=13.386604m. Speed=36.647999m/h.</desc>
<speed>10.180000</speed>
</trkpt>
<trkpt lat="21.625130" lon="105.159157">
<ele>12.773567</ele>
<time>2011-04-29T06:09:40Z</time>
<desc>lat.=21.625130, lon.=105.159157, Alt.=12.773567m. Speed=39.599998m/h.</desc>
<speed>11.000000</speed>
</trkpt>
<trkpt lat="21.624874" lon="105.159698">
<ele>11.890755</ele>
<time>2011-04-29T06:09:45Z</time>
<desc>lat.=21.624874, lon.=105.159698, Alt.=11.890755m. Speed=43.127998m/h.</desc>
<speed>11.980000</speed>
</trkpt>
<trkpt lat="21.624632" lon="105.160202">
<ele>12.282845</ele>
<time>2011-04-29T06:09:50Z</time>
<desc>lat.=21.624632, lon.=105.160202, Alt.=12.282845m. Speed=38.556000m/h.</desc>
<speed>10.710000</speed>
</trkpt>
<trkpt lat="21.624420" lon="105.160675">
<ele>12.567513</ele>
<time>2011-04-29T06:09:55Z</time>
<desc>lat.=21.624420, lon.=105.160675, Alt.=12.567513m. Speed=37.835999m/h.</desc>
<speed>10.510000</speed>
</trkpt>
<trkpt lat="21.624218" lon="105.161072">
<ele>13.401985</ele>
<time>2011-04-29T06:10:00Z</time>
<desc>lat.=21.624218, lon.=105.161072, Alt.=13.401985m. Speed=30.455999m/h.</desc>
<speed>8.460000</speed>
</trkpt>
<trkpt lat="21.624022" lon="105.161484">
<ele>13.707893</ele>
<time>2011-04-29T06:10:05Z</time>
<desc>lat.=21.624022, lon.=105.161484, Alt.=13.707893m. Speed=33.624001m/h.</desc>
<speed>9.340000</speed>
</trkpt>
<trkpt lat="21.623823" lon="105.161865">
<ele>13.696907</ele>
<time>2011-04-29T06:10:10Z</time>
<desc>lat.=21.623823, lon.=105.161865, Alt.=13.696907m. Speed=36.251999m/h.</desc>
<speed>10.070000</speed>
</trkpt>
<trkpt lat="21.623693" lon="105.162331">
<ele>14.038948</ele>
<time>2011-04-29T06:10:15Z</time>
<desc>lat.=21.623693, lon.=105.162331, Alt.=14.038948m. Speed=38.807999m/h.</desc>
<speed>10.780000</speed>
</trkpt>
<trkpt lat="21.623646" lon="105.162842">
<ele>13.452278</ele>
<time>2011-04-29T06:10:20Z</time>
<desc>lat.=21.623646, lon.=105.162842, Alt.=13.452278m. Speed=39.636002m/h.</desc>
<speed>11.010000</speed>
</trkpt>
<trkpt lat="21.623640" lon="105.163406">
<ele>12.167122</ele>
<time>2011-04-29T06:10:25Z</time>
<desc>lat.=21.623640, lon.=105.163406, Alt.=12.167122m. Speed=43.271999m/h.</desc>
<speed>12.020000</speed>
</trkpt>
<trkpt lat="21.623741" lon="105.163963">
<ele>11.975471</ele>
<time>2011-04-29T06:10:30Z</time>
<desc>lat.=21.623741, lon.=105.163963, Alt.=11.975471m. Speed=42.408001m/h.</desc>
<speed>11.780000</speed>
</trkpt>
<trkpt lat="21.623932" lon="105.164459">
<ele>12.603157</ele>
<time>2011-04-29T06:10:35Z</time>
<desc>lat.=21.623932, lon.=105.164459, Alt.=12.603157m. Speed=40.175999m/h.</desc>
<speed>11.160000</speed>
</trkpt>
<trkpt lat="21.624151" lon="105.164948">
<ele>13.778938</ele>
<time>2011-04-29T06:10:40Z</time>
<desc>lat.=21.624151, lon.=105.164948, Alt.=13.778938m. Speed=38.952000m/h.</desc>
<speed>10.820000</speed>
</trkpt>
<trkpt lat="21.624287" lon="105.165489">
<ele>15.484993</ele>
<time>2011-04-29T06:10:45Z</time>
<desc>lat.=21.624287, lon.=105.165489, Alt.=15.484993m. Speed=39.132000m/h.</desc>
<speed>10.870000</speed>
</trkpt>
<trkpt lat="21.624279" lon="105.166008">
<ele>16.349380</ele>
<time>2011-04-29T06:10:50Z</time>
<desc>lat.=21.624279, lon.=105.166008, Alt.=16.349380m. Speed=39.636002m/h.</desc>
<speed>11.010000</speed>
</trkpt>
<trkpt lat="21.624096" lon="105.166534">
<ele>15.209114</ele>
<time>2011-04-29T06:10:55Z</time>
<desc>lat.=21.624096, lon.=105.166534, Alt.=15.209114m. Speed=41.832001m/h.</desc>
<speed>11.620000</speed>
</trkpt>
<trkpt lat="21.623735" lon="105.166954">
<ele>13.203011</ele>
<time>2011-04-29T06:11:00Z</time>
<desc>lat.=21.623735, lon.=105.166954, Alt.=13.203011m. Speed=47.556000m/h.</desc>
<speed>13.210000</speed>
</trkpt>
<trkpt lat="21.623373" lon="105.167458">
<ele>12.278694</ele>
<time>2011-04-29T06:11:05Z</time>
<desc>lat.=21.623373, lon.=105.167458, Alt.=12.278694m. Speed=46.835999m/h.</desc>
<speed>13.010000</speed>
</trkpt>
<trkpt lat="21.623072" lon="105.167976">
<ele>11.888802</ele>
<time>2011-04-29T06:11:10Z</time>
<desc>lat.=21.623072, lon.=105.167976, Alt.=11.888802m. Speed=46.259998m/h.</desc>
<speed>12.850000</speed>
</trkpt>
<trkpt lat="21.622639" lon="105.168343">
<ele>12.087288</ele>
<time>2011-04-29T06:11:15Z</time>
<desc>lat.=21.622639, lon.=105.168343, Alt.=12.087288m. Speed=43.523998m/h.</desc>
<speed>12.090000</speed>
</trkpt>
<trkpt lat="21.622152" lon="105.168564">
<ele>13.290413</ele>
<time>2011-04-29T06:11:20Z</time>
<desc>lat.=21.622152, lon.=105.168564, Alt.=13.290413m. Speed=40.787998m/h.</desc>
<speed>11.329999</speed>
</trkpt>
<trkpt lat="21.621719" lon="105.168854">
<ele>13.857063</ele>
<time>2011-04-29T06:11:25Z</time>
<desc>lat.=21.621719, lon.=105.168854, Alt.=13.857063m. Speed=39.959999m/h.</desc>
<speed>11.100000</speed>
</trkpt>
<trkpt lat="21.621502" lon="105.169304">
<ele>13.216682</ele>
<time>2011-04-29T06:11:30Z</time>
<desc>lat.=21.621502, lon.=105.169304, Alt.=13.216682m. Speed=36.467999m/h.</desc>
<speed>10.130000</speed>
</trkpt>
<trkpt lat="21.621464" lon="105.169853">
<ele>14.511116</ele>
<time>2011-04-29T06:11:35Z</time>
<desc>lat.=21.621464, lon.=105.169853, Alt.=14.511116m. Speed=43.307999m/h.</desc>
<speed>12.030000</speed>
</trkpt>
<trkpt lat="21.621658" lon="105.170364">
<ele>14.201057</ele>
<time>2011-04-29T06:11:40Z</time>
<desc>lat.=21.621658, lon.=105.170364, Alt.=14.201057m. Speed=39.132000m/h.</desc>
<speed>10.870000</speed>
</trkpt>
<trkpt lat="21.622004" lon="105.170761">
<ele>13.847298</ele>
<time>2011-04-29T06:11:45Z</time>
<desc>lat.=21.622004, lon.=105.170761, Alt.=13.847298m. Speed=40.860001m/h.</desc>
<speed>11.350000</speed>
</trkpt>
<trkpt lat="21.622190" lon="105.171234">
<ele>11.765266</ele>
<time>2011-04-29T06:11:50Z</time>
<desc>lat.=21.622190, lon.=105.171234, Alt.=11.765266m. Speed=39.959999m/h.</desc>
<speed>11.100000</speed>
</trkpt>
<trkpt lat="21.622169" lon="105.171768">
<ele>12.318733</ele>
<time>2011-04-29T06:11:55Z</time>
<desc>lat.=21.622169, lon.=105.171768, Alt.=12.318733m. Speed=38.771999m/h.</desc>
<speed>10.770000</speed>
</trkpt>
<trkpt lat="21.622322" lon="105.172180">
<ele>13.405159</ele>
<time>2011-04-29T06:12:00Z</time>
<desc>lat.=21.622322, lon.=105.172180, Alt.=13.405159m. Speed=36.431999m/h.</desc>
<speed>10.120000</speed>
</trkpt>
<trkpt lat="21.622660" lon="105.172531">
<ele>14.202766</ele>
<time>2011-04-29T06:12:05Z</time>
<desc>lat.=21.622660, lon.=105.172531, Alt.=14.202766m. Speed=36.360001m/h.</desc>
<speed>10.100000</speed>
</trkpt>
<trkpt lat="21.622993" lon="105.172867">
<ele>15.321175</ele>
<time>2011-04-29T06:12:10Z</time>
<desc>lat.=21.622993, lon.=105.172867, Alt.=15.321175m. Speed=35.891998m/h.</desc>
<speed>9.970000</speed>
</trkpt>
<trkpt lat="21.623148" lon="105.173340">
<ele>17.417740</ele>
<time>2011-04-29T06:12:15Z</time>
<desc>lat.=21.623148, lon.=105.173340, Alt.=17.417740m. Speed=34.344002m/h.</desc>
<speed>9.540000</speed>
</trkpt>
<trkpt lat="21.623310" lon="105.173698">
<ele>19.701431</ele>
<time>2011-04-29T06:12:20Z</time>
<desc>lat.=21.623310, lon.=105.173698, Alt.=19.701431m. Speed=26.351999m/h.</desc>
<speed>7.320000</speed>
</trkpt>
<trkpt lat="21.623384" lon="105.173904">
<ele>18.704361</ele>
<time>2011-04-29T06:12:25Z</time>
<desc>lat.=21.623384, lon.=105.173904, Alt.=18.704361m. Speed=7.956000m/h.</desc>
<speed>2.210000</speed>
</trkpt>
<trkpt lat="21.623415" lon="105.173927">
<ele>19.664322</ele>
<time>2011-04-29T06:12:30Z</time>
<desc>lat.=21.623415, lon.=105.173927, Alt.=19.664322m. Speed=1.260000m/h.</desc>
<speed>0.350000</speed>
</trkpt>
<trkpt lat="21.623421" lon="105.173920">
<ele>20.233658</ele>
<time>2011-04-29T06:12:35Z</time>
<desc>lat.=21.623421, lon.=105.173920, Alt.=20.233658m. Speed=0.396000m/h.</desc>
<speed>0.110000</speed>
</trkpt>
<trkpt lat="21.623423" lon="105.173912">
<ele>20.371841</ele>
<time>2011-04-29T06:12:40Z</time>
<desc>lat.=21.623423, lon.=105.173912, Alt.=20.371841m. Speed=0.180000m/h.</desc>
<speed>0.050000</speed>
</trkpt>
<trkpt lat="21.623419" lon="105.173912">
<ele>20.361099</ele>
<time>2011-04-29T06:12:45Z</time>
<desc>lat.=21.623419, lon.=105.173912, Alt.=20.361099m. Speed=0.288000m/h.</desc>
<speed>0.080000</speed>
</trkpt>
<trkpt lat="21.623415" lon="105.173920">
<ele>20.381607</ele>
<time>2011-04-29T06:12:50Z</time>
<desc>lat.=21.623415, lon.=105.173920, Alt.=20.381607m. Speed=0.540000m/h.</desc>
<speed>0.150000</speed>
</trkpt>
<trkpt lat="21.623415" lon="105.173927">
<ele>20.382095</ele>
<time>2011-04-29T06:12:55Z</time>
<desc>lat.=21.623415, lon.=105.173927, Alt.=20.382095m. Speed=0.252000m/h.</desc>
<speed>0.070000</speed>
</trkpt>
<trkpt lat="21.623409" lon="105.173927">
<ele>20.400650</ele>
<time>2011-04-29T06:13:00Z</time>
<desc>lat.=21.623409, lon.=105.173927, Alt.=20.400650m. Speed=0.252000m/h.</desc>
<speed>0.070000</speed>
</trkpt>
<trkpt lat="21.623404" lon="105.173927">
<ele>20.413345</ele>
<time>2011-04-29T06:13:05Z</time>
<desc>lat.=21.623404, lon.=105.173927, Alt.=20.413345m. Speed=0.324000m/h.</desc>
<speed>0.090000</speed>
</trkpt>
<trkpt lat="21.623404" lon="105.173920">
<ele>20.396255</ele>
<time>2011-04-29T06:13:10Z</time>
<desc>lat.=21.623404, lon.=105.173920, Alt.=20.396255m. Speed=0.072000m/h.</desc>
<speed>0.020000</speed>
</trkpt>
<trkpt lat="21.623405" lon="105.173920">
<ele>20.375259</ele>
<time>2011-04-29T06:13:15Z</time>
<desc>lat.=21.623405, lon.=105.173920, Alt.=20.375259m. Speed=0.036000m/h.</desc>
<speed>0.010000</speed>
</trkpt>
<trkpt lat="21.623405" lon="105.173927">
<ele>20.370865</ele>
<time>2011-04-29T06:13:20Z</time>
<desc>lat.=21.623405, lon.=105.173927, Alt.=20.370865m. Speed=0.684000m/h.</desc>
<speed>0.190000</speed>
</trkpt>
<trkpt lat="21.623404" lon="105.173927">
<ele>20.366959</ele>
<time>2011-04-29T06:13:25Z</time>
<desc>lat.=21.623404, lon.=105.173927, Alt.=20.366959m. Speed=0.612000m/h.</desc>
<speed>0.170000</speed>
</trkpt>
<trkpt lat="21.623407" lon="105.173927">
<ele>20.368423</ele>
<time>2011-04-29T06:13:30Z</time>
<desc>lat.=21.623407, lon.=105.173927, Alt.=20.368423m. Speed=0.828000m/h.</desc>
<speed>0.230000</speed>
</trkpt>
<trkpt lat="21.623419" lon="105.173935">
<ele>20.364517</ele>
<time>2011-04-29T06:13:35Z</time>
<desc>lat.=21.623419, lon.=105.173935, Alt.=20.364517m. Speed=1.260000m/h.</desc>
<speed>0.350000</speed>
</trkpt>
<trkpt lat="21.623428" lon="105.173943">
<ele>20.342545</ele>
<time>2011-04-29T06:13:40Z</time>
<desc>lat.=21.623428, lon.=105.173943, Alt.=20.342545m. Speed=1.080000m/h.</desc>
<speed>0.300000</speed>
</trkpt>
<trkpt lat="21.623432" lon="105.173950">
<ele>20.294205</ele>
<time>2011-04-29T06:13:45Z</time>
<desc>lat.=21.623432, lon.=105.173950, Alt.=20.294205m. Speed=0.324000m/h.</desc>
<speed>0.090000</speed>
</trkpt>
<trkpt lat="21.623428" lon="105.173950">
<ele>20.299088</ele>
<time>2011-04-29T06:13:50Z</time>
<desc>lat.=21.623428, lon.=105.173950, Alt.=20.299088m. Speed=0.144000m/h.</desc>
<speed>0.040000</speed>
</trkpt>
<trkpt lat="21.623426" lon="105.173950">
<ele>20.351334</ele>
<time>2011-04-29T06:13:55Z</time>
<desc>lat.=21.623426, lon.=105.173950, Alt.=20.351334m. Speed=0.216000m/h.</desc>
<speed>0.060000</speed>
</trkpt>
<trkpt lat="21.623425" lon="105.173950">
<ele>20.444595</ele>
<time>2011-04-29T06:14:00Z</time>
<desc>lat.=21.623425, lon.=105.173950, Alt.=20.444595m. Speed=0.144000m/h.</desc>
<speed>0.040000</speed>
</trkpt>
<trkpt lat="21.623428" lon="105.173958">
<ele>20.530533</ele>
<time>2011-04-29T06:14:05Z</time>
<desc>lat.=21.623428, lon.=105.173958, Alt.=20.530533m. Speed=2.700000m/h.</desc>
<speed>0.750000</speed>
</trkpt>
<trkpt lat="21.623486" lon="105.174095">
<ele>21.012955</ele>
<time>2011-04-29T06:14:10Z</time>
<desc>lat.=21.623486, lon.=105.174095, Alt.=21.012955m. Speed=14.148000m/h.</desc>
<speed>3.930000</speed>
</trkpt>
<trkpt lat="21.623621" lon="105.174370">
<ele>22.114517</ele>
<time>2011-04-29T06:14:15Z</time>
<desc>lat.=21.623621, lon.=105.174370, Alt.=22.114517m. Speed=22.356001m/h.</desc>
<speed>6.210000</speed>
</trkpt>
<trkpt lat="21.623760" lon="105.174728">
<ele>20.551041</ele>
<time>2011-04-29T06:14:20Z</time>
<desc>lat.=21.623760, lon.=105.174728, Alt.=20.551041m. Speed=25.452000m/h.</desc>
<speed>7.070000</speed>
</trkpt>
<trkpt lat="21.623873" lon="105.175095">
<ele>23.390396</ele>
<time>2011-04-29T06:14:25Z</time>
<desc>lat.=21.623873, lon.=105.175095, Alt.=23.390396m. Speed=30.240000m/h.</desc>
<speed>8.400000</speed>
</trkpt>
<trkpt lat="21.623924" lon="105.175522">
<ele>28.061783</ele>
<time>2011-04-29T06:14:30Z</time>
<desc>lat.=21.623924, lon.=105.175522, Alt.=28.061783m. Speed=32.220001m/h.</desc>
<speed>8.950000</speed>
</trkpt>
<trkpt lat="21.623909" lon="105.175926">
<ele>30.423111</ele>
<time>2011-04-29T06:14:35Z</time>
<desc>lat.=21.623909, lon.=105.175926, Alt.=30.423111m. Speed=30.780001m/h.</desc>
<speed>8.550000</speed>
</trkpt>
<trkpt lat="21.623924" lon="105.176361">
<ele>32.274933</ele>
<time>2011-04-29T06:14:40Z</time>
<desc>lat.=21.623924, lon.=105.176361, Alt.=32.274933m. Speed=32.543999m/h.</desc>
<speed>9.040000</speed>
</trkpt>
<trkpt lat="21.623981" lon="105.176819">
<ele>35.090363</ele>
<time>2011-04-29T06:14:45Z</time>
<desc>lat.=21.623981, lon.=105.176819, Alt.=35.090363m. Speed=32.327999m/h.</desc>
<speed>8.980000</speed>
</trkpt>
<trkpt lat="21.623894" lon="105.177277">
<ele>37.057159</ele>
<time>2011-04-29T06:14:50Z</time>
<desc>lat.=21.623894, lon.=105.177277, Alt.=37.057159m. Speed=36.180000m/h.</desc>
<speed>10.050000</speed>
</trkpt>
<trkpt lat="21.623594" lon="105.177757">
<ele>38.758331</ele>
<time>2011-04-29T06:14:55Z</time>
<desc>lat.=21.623594, lon.=105.177757, Alt.=38.758331m. Speed=40.464001m/h.</desc>
<speed>11.240000</speed>
</trkpt>
<trkpt lat="21.623350" lon="105.178200">
<ele>40.035675</ele>
<time>2011-04-29T06:15:00Z</time>
<desc>lat.=21.623350, lon.=105.178200, Alt.=40.035675m. Speed=34.740002m/h.</desc>
<speed>9.650000</speed>
</trkpt>
<trkpt lat="21.623442" lon="105.178696">
<ele>40.549347</ele>
<time>2011-04-29T06:15:05Z</time>
<desc>lat.=21.623442, lon.=105.178696, Alt.=40.549347m. Speed=39.348000m/h.</desc>
<speed>10.930000</speed>
</trkpt>
<trkpt lat="21.623722" lon="105.179192">
<ele>32.015167</ele>
<time>2011-04-29T06:15:10Z</time>
<desc>lat.=21.623722, lon.=105.179192, Alt.=32.015167m. Speed=42.551998m/h.</desc>
<speed>11.819999</speed>
</trkpt>
<trkpt lat="21.624020" lon="105.179710">
<ele>25.826920</ele>
<time>2011-04-29T06:15:15Z</time>
<desc>lat.=21.624020, lon.=105.179710, Alt.=25.826920m. Speed=43.236000m/h.</desc>
<speed>12.010000</speed>
</trkpt>
<trkpt lat="21.624279" lon="105.180099">
<ele>23.000748</ele>
<time>2011-04-29T06:15:20Z</time>
<desc>lat.=21.624279, lon.=105.180099, Alt.=23.000748m. Speed=33.695999m/h.</desc>
<speed>9.360000</speed>
</trkpt>
<trkpt lat="21.624723" lon="105.180275">
<ele>19.029556</ele>
<time>2011-04-29T06:15:25Z</time>
<desc>lat.=21.624723, lon.=105.180275, Alt.=19.029556m. Speed=38.088001m/h.</desc>
<speed>10.580000</speed>
</trkpt>
<trkpt lat="21.625149" lon="105.180511">
<ele>13.309212</ele>
<time>2011-04-29T06:15:30Z</time>
<desc>lat.=21.625149, lon.=105.180511, Alt.=13.309212m. Speed=37.188000m/h.</desc>
<speed>10.330000</speed>
</trkpt>
<trkpt lat="21.625399" lon="105.180901">
<ele>10.748665</ele>
<time>2011-04-29T06:15:35Z</time>
<desc>lat.=21.625399, lon.=105.180901, Alt.=10.748665m. Speed=35.532001m/h.</desc>
<speed>9.870000</speed>
</trkpt>
<trkpt lat="21.625401" lon="105.181419">
<ele>7.450382</ele>
<time>2011-04-29T06:15:40Z</time>
<desc>lat.=21.625401, lon.=105.181419, Alt.=7.450382m. Speed=37.403999m/h.</desc>
<speed>10.390000</speed>
</trkpt>
<trkpt lat="21.625238" lon="105.181862">
<ele>6.480778</ele>
<time>2011-04-29T06:15:45Z</time>
<desc>lat.=21.625238, lon.=105.181862, Alt.=6.480778m. Speed=37.439999m/h.</desc>
<speed>10.400000</speed>
</trkpt>
<trkpt lat="21.625166" lon="105.182327">
<ele>3.945894</ele>
<time>2011-04-29T06:15:50Z</time>
<desc>lat.=21.625166, lon.=105.182327, Alt.=3.945894m. Speed=37.007999m/h.</desc>
<speed>10.280000</speed>
</trkpt>
<trkpt lat="21.625351" lon="105.182770">
<ele>5.718327</ele>
<time>2011-04-29T06:15:55Z</time>
<desc>lat.=21.625351, lon.=105.182770, Alt.=5.718327m. Speed=33.911999m/h.</desc>
<speed>9.420000</speed>
</trkpt>
<trkpt lat="21.625616" lon="105.183052">
<ele>5.738712</ele>
<time>2011-04-29T06:16:00Z</time>
<desc>lat.=21.625616, lon.=105.183052, Alt.=5.738712m. Speed=27.756001m/h.</desc>
<speed>7.710000</speed>
</trkpt>
<trkpt lat="21.625835" lon="105.183327">
<ele>5.984562</ele>
<time>2011-04-29T06:16:05Z</time>
<desc>lat.=21.625835, lon.=105.183327, Alt.=5.984562m. Speed=24.948000m/h.</desc>
<speed>6.930000</speed>
</trkpt>
<trkpt lat="21.625973" lon="105.183578">
<ele>5.092228</ele>
<time>2011-04-29T06:16:10Z</time>
<desc>lat.=21.625973, lon.=105.183578, Alt.=5.092228m. Speed=16.524000m/h.</desc>
<speed>4.590000</speed>
</trkpt>
<trkpt lat="21.625980" lon="105.183678">
<ele>6.001652</ele>
<time>2011-04-29T06:16:15Z</time>
<desc>lat.=21.625980, lon.=105.183678, Alt.=6.001652m. Speed=0.108000m/h.</desc>
<speed>0.030000</speed>
</trkpt>
<trkpt lat="21.625965" lon="105.183685">
<ele>6.220402</ele>
<time>2011-04-29T06:16:20Z</time>
<desc>lat.=21.625965, lon.=105.183685, Alt.=6.220402m. Speed=0.396000m/h.</desc>
<speed>0.110000</speed>
</trkpt>
<trkpt lat="21.625956" lon="105.183685">
<ele>6.282291</ele>
<time>2011-04-29T06:16:25Z</time>
<desc>lat.=21.625956, lon.=105.183685, Alt.=6.282291m. Speed=1.116000m/h.</desc>
<speed>0.310000</speed>
</trkpt>
<trkpt lat="21.625948" lon="105.183685">
<ele>6.321964</ele>
<time>2011-04-29T06:16:30Z</time>
<desc>lat.=21.625948, lon.=105.183685, Alt.=6.321964m. Speed=0.216000m/h.</desc>
<speed>0.060000</speed>
</trkpt>
<trkpt lat="21.625956" lon="105.183701">
<ele>6.362370</ele>
<time>2011-04-29T06:16:35Z</time>
<desc>lat.=21.625956, lon.=105.183701, Alt.=6.362370m. Speed=3.636000m/h.</desc>
<speed>1.010000</speed>
</trkpt>
<trkpt lat="21.625872" lon="105.183846">
<ele>7.159000</ele>
<time>2011-04-29T06:16:40Z</time>
<desc>lat.=21.625872, lon.=105.183846, Alt.=7.159000m. Speed=14.904000m/h.</desc>
<speed>4.140000</speed>
</trkpt>
<trkpt lat="21.625694" lon="105.184036">
<ele>9.392708</ele>
<time>2011-04-29T06:16:45Z</time>
<desc>lat.=21.625694, lon.=105.184036, Alt.=9.392708m. Speed=23.327999m/h.</desc>
<speed>6.480000</speed>
</trkpt>
<trkpt lat="21.625370" lon="105.184303">
<ele>12.537239</ele>
<time>2011-04-29T06:16:50Z</time>
<desc>lat.=21.625370, lon.=105.184303, Alt.=12.537239m. Speed=31.032000m/h.</desc>
<speed>8.620000</speed>
</trkpt>
<trkpt lat="21.625048" lon="105.184563">
<ele>16.277115</ele>
<time>2011-04-29T06:16:55Z</time>
<desc>lat.=21.625048, lon.=105.184563, Alt.=16.277115m. Speed=27.684000m/h.</desc>
<speed>7.690000</speed>
</trkpt>
<trkpt lat="21.624777" lon="105.184807">
<ele>14.008430</ele>
<time>2011-04-29T06:17:00Z</time>
<desc>lat.=21.624777, lon.=105.184807, Alt.=14.008430m. Speed=28.584000m/h.</desc>
<speed>7.940000</speed>
</trkpt>
<trkpt lat="21.624506" lon="105.185036">
<ele>14.100960</ele>
<time>2011-04-29T06:17:05Z</time>
<desc>lat.=21.624506, lon.=105.185036, Alt.=14.100960m. Speed=29.124001m/h.</desc>
<speed>8.090000</speed>
</trkpt>
<trkpt lat="21.624184" lon="105.185280">
<ele>13.589241</ele>
<time>2011-04-29T06:17:10Z</time>
<desc>lat.=21.624184, lon.=105.185280, Alt.=13.589241m. Speed=32.723999m/h.</desc>
<speed>9.090000</speed>
</trkpt>
<trkpt lat="21.623789" lon="105.185547">
<ele>14.472054</ele>
<time>2011-04-29T06:17:15Z</time>
<desc>lat.=21.623789, lon.=105.185547, Alt.=14.472054m. Speed=30.275999m/h.</desc>
<speed>8.410000</speed>
</trkpt>
<trkpt lat="21.623434" lon="105.185783">
<ele>13.505501</ele>
<time>2011-04-29T06:17:20Z</time>
<desc>lat.=21.623434, lon.=105.185783, Alt.=13.505501m. Speed=35.352001m/h.</desc>
<speed>9.820000</speed>
</trkpt>
<trkpt lat="21.623035" lon="105.185989">
<ele>11.605843</ele>
<time>2011-04-29T06:17:25Z</time>
<desc>lat.=21.623035, lon.=105.185989, Alt.=11.605843m. Speed=32.147999m/h.</desc>
<speed>8.930000</speed>
</trkpt>
<trkpt lat="21.622665" lon="105.186165">
<ele>11.674446</ele>
<time>2011-04-29T06:17:30Z</time>
<desc>lat.=21.622665, lon.=105.186165, Alt.=11.674446m. Speed=32.616001m/h.</desc>
<speed>9.060000</speed>
</trkpt>
<trkpt lat="21.622379" lon="105.186378">
<ele>13.243538</ele>
<time>2011-04-29T06:17:35Z</time>
<desc>lat.=21.622379, lon.=105.186378, Alt.=13.243538m. Speed=24.516001m/h.</desc>
<speed>6.810000</speed>
</trkpt>
<trkpt lat="21.622149" lon="105.186630">
<ele>12.632698</ele>
<time>2011-04-29T06:17:40Z</time>
<desc>lat.=21.622149, lon.=105.186630, Alt.=12.632698m. Speed=28.044001m/h.</desc>
<speed>7.790000</speed>
</trkpt>
<trkpt lat="21.621897" lon="105.186928">
<ele>7.493839</ele>
<time>2011-04-29T06:17:45Z</time>
<desc>lat.=21.621897, lon.=105.186928, Alt.=7.493839m. Speed=31.931999m/h.</desc>
<speed>8.870000</speed>
</trkpt>
<trkpt lat="21.621597" lon="105.187241">
<ele>3.828951</ele>
<time>2011-04-29T06:17:50Z</time>
<desc>lat.=21.621597, lon.=105.187241, Alt.=3.828951m. Speed=35.604000m/h.</desc>
<speed>9.890000</speed>
</trkpt>
<trkpt lat="21.621307" lon="105.187576">
<ele>1.540208</ele>
<time>2011-04-29T06:17:55Z</time>
<desc>lat.=21.621307, lon.=105.187576, Alt.=1.540208m. Speed=34.596001m/h.</desc>
<speed>9.610000</speed>
</trkpt>
<trkpt lat="21.621014" lon="105.187904">
<ele>4.092594</ele>
<time>2011-04-29T06:18:00Z</time>
<desc>lat.=21.621014, lon.=105.187904, Alt.=4.092594m. Speed=34.956001m/h.</desc>
<speed>9.710000</speed>
</trkpt>
<trkpt lat="21.620707" lon="105.188225">
<ele>4.116398</ele>
<time>2011-04-29T06:18:05Z</time>
<desc>lat.=21.620707, lon.=105.188225, Alt.=4.116398m. Speed=29.375999m/h.</desc>
<speed>8.160000</speed>
</trkpt>
<trkpt lat="21.620386" lon="105.188339">
<ele>5.783878</ele>
<time>2011-04-29T06:18:10Z</time>
<desc>lat.=21.620386, lon.=105.188339, Alt.=5.783878m. Speed=26.784000m/h.</desc>
<speed>7.440000</speed>
</trkpt>
<trkpt lat="21.620049" lon="105.188187">
<ele>5.464664</ele>
<time>2011-04-29T06:18:15Z</time>
<desc>lat.=21.620049, lon.=105.188187, Alt.=5.464664m. Speed=30.132000m/h.</desc>
<speed>8.370000</speed>
</trkpt>
<trkpt lat="21.619709" lon="105.187889">
<ele>6.414371</ele>
<time>2011-04-29T06:18:20Z</time>
<desc>lat.=21.619709, lon.=105.187889, Alt.=6.414371m. Speed=35.712002m/h.</desc>
<speed>9.920001</speed>
</trkpt>
<trkpt lat="21.619350" lon="105.187576">
<ele>7.642765</ele>
<time>2011-04-29T06:18:25Z</time>
<desc>lat.=21.619350, lon.=105.187576, Alt.=7.642765m. Speed=38.088001m/h.</desc>
<speed>10.580000</speed>
</trkpt>
<trkpt lat="21.619005" lon="105.187225">
<ele>9.421028</ele>
<time>2011-04-29T06:18:30Z</time>
<desc>lat.=21.619005, lon.=105.187225, Alt.=9.421028m. Speed=40.139999m/h.</desc>
<speed>11.150000</speed>
</trkpt>
<trkpt lat="21.618658" lon="105.186867">
<ele>9.444221</ele>
<time>2011-04-29T06:18:35Z</time>
<desc>lat.=21.618658, lon.=105.186867, Alt.=9.444221m. Speed=35.928001m/h.</desc>
<speed>9.980000</speed>
</trkpt>
<trkpt lat="21.618292" lon="105.186569">
<ele>9.246468</ele>
<time>2011-04-29T06:18:40Z</time>
<desc>lat.=21.618292, lon.=105.186569, Alt.=9.246468m. Speed=36.144001m/h.</desc>
<speed>10.040000</speed>
</trkpt>
<trkpt lat="21.617912" lon="105.186317">
<ele>10.259895</ele>
<time>2011-04-29T06:18:45Z</time>
<desc>lat.=21.617912, lon.=105.186317, Alt.=10.259895m. Speed=35.172001m/h.</desc>
<speed>9.770000</speed>
</trkpt>
<trkpt lat="21.617483" lon="105.186180">
<ele>11.530403</ele>
<time>2011-04-29T06:18:50Z</time>
<desc>lat.=21.617483, lon.=105.186180, Alt.=11.530403m. Speed=36.108002m/h.</desc>
<speed>10.030000</speed>
</trkpt>
<trkpt lat="21.617039" lon="105.186058">
<ele>11.248909</ele>
<time>2011-04-29T06:18:55Z</time>
<desc>lat.=21.617039, lon.=105.186058, Alt.=11.248909m. Speed=35.279999m/h.</desc>
<speed>9.800000</speed>
</trkpt>
<trkpt lat="21.616629" lon="105.185844">
<ele>11.270882</ele>
<time>2011-04-29T06:19:00Z</time>
<desc>lat.=21.616629, lon.=105.185844, Alt.=11.270882m. Speed=35.424000m/h.</desc>
<speed>9.840000</speed>
</trkpt>
<trkpt lat="21.616228" lon="105.185616">
<ele>9.870003</ele>
<time>2011-04-29T06:19:05Z</time>
<desc>lat.=21.616228, lon.=105.185616, Alt.=9.870003m. Speed=35.784000m/h.</desc>
<speed>9.940000</speed>
</trkpt>
<trkpt lat="21.615850" lon="105.185356">
<ele>8.732307</ele>
<time>2011-04-29T06:19:10Z</time>
<desc>lat.=21.615850, lon.=105.185356, Alt.=8.732307m. Speed=34.596001m/h.</desc>
<speed>9.610000</speed>
</trkpt>
<trkpt lat="21.615469" lon="105.185150">
<ele>6.187565</ele>
<time>2011-04-29T06:19:15Z</time>
<desc>lat.=21.615469, lon.=105.185150, Alt.=6.187565m. Speed=36.324001m/h.</desc>
<speed>10.090000</speed>
</trkpt>
<trkpt lat="21.615089" lon="105.184898">
<ele>6.679142</ele>
<time>2011-04-29T06:19:20Z</time>
<desc>lat.=21.615089, lon.=105.184898, Alt.=6.679142m. Speed=35.279999m/h.</desc>
<speed>9.800000</speed>
</trkpt>
<trkpt lat="21.614752" lon="105.184677">
<ele>7.755070</ele>
<time>2011-04-29T06:19:25Z</time>
<desc>lat.=21.614752, lon.=105.184677, Alt.=7.755070m. Speed=26.100000m/h.</desc>
<speed>7.250000</speed>
</trkpt>
<trkpt lat="21.614483" lon="105.184494">
<ele>7.976749</ele>
<time>2011-04-29T06:19:30Z</time>
<desc>lat.=21.614483, lon.=105.184494, Alt.=7.976749m. Speed=24.120001m/h.</desc>
<speed>6.700000</speed>
</trkpt>
<trkpt lat="21.614189" lon="105.184319">
<ele>7.039738</ele>
<time>2011-04-29T06:19:35Z</time>
<desc>lat.=21.614189, lon.=105.184319, Alt.=7.039738m. Speed=27.468000m/h.</desc>
<speed>7.630000</speed>
</trkpt>
<trkpt lat="21.613871" lon="105.184052">
<ele>3.973360</ele>
<time>2011-04-29T06:19:40Z</time>
<desc>lat.=21.613871, lon.=105.184052, Alt.=3.973360m. Speed=33.228001m/h.</desc>
<speed>9.230000</speed>
</trkpt>
<trkpt lat="21.613523" lon="105.183762">
<ele>3.110933</ele>
<time>2011-04-29T06:19:45Z</time>
<desc>lat.=21.613523, lon.=105.183762, Alt.=3.110933m. Speed=36.251999m/h.</desc>
<speed>10.070000</speed>
</trkpt>
<trkpt lat="21.613146" lon="105.183464">
<ele>3.440340</ele>
<time>2011-04-29T06:19:50Z</time>
<desc>lat.=21.613146, lon.=105.183464, Alt.=3.440340m. Speed=39.203999m/h.</desc>
<speed>10.890000</speed>
</trkpt>
<trkpt lat="21.612701" lon="105.183098">
<ele>2.205538</ele>
<time>2011-04-29T06:19:55Z</time>
<desc>lat.=21.612701, lon.=105.183098, Alt.=2.205538m. Speed=44.388000m/h.</desc>
<speed>12.330000</speed>
</trkpt>
<trkpt lat="21.612232" lon="105.182755">
<ele>2.411409</ele>
<time>2011-04-29T06:20:00Z</time>
<desc>lat.=21.612232, lon.=105.182755, Alt.=2.411409m. Speed=44.172001m/h.</desc>
<speed>12.270000</speed>
</trkpt>
<trkpt lat="21.611788" lon="105.182404">
<ele>3.415987</ele>
<time>2011-04-29T06:20:05Z</time>
<desc>lat.=21.611788, lon.=105.182404, Alt.=3.415987m. Speed=43.848000m/h.</desc>
<speed>12.180000</speed>
</trkpt>
<trkpt lat="21.611361" lon="105.182068">
<ele>5.844547</ele>
<time>2011-04-29T06:20:10Z</time>
<desc>lat.=21.611361, lon.=105.182068, Alt.=5.844547m. Speed=42.155998m/h.</desc>
<speed>11.710000</speed>
</trkpt>
<trkpt lat="21.610929" lon="105.181740">
<ele>7.056217</ele>
<time>2011-04-29T06:20:15Z</time>
<desc>lat.=21.610929, lon.=105.181740, Alt.=7.056217m. Speed=41.796001m/h.</desc>
<speed>11.610000</speed>
</trkpt>
<trkpt lat="21.610512" lon="105.181450">
<ele>8.425667</ele>
<time>2011-04-29T06:20:20Z</time>
<desc>lat.=21.610512, lon.=105.181450, Alt.=8.425667m. Speed=40.175999m/h.</desc>
<speed>11.160000</speed>
</trkpt>
<trkpt lat="21.610086" lon="105.181175">
<ele>9.374641</ele>
<time>2011-04-29T06:20:25Z</time>
<desc>lat.=21.610086, lon.=105.181175, Alt.=9.374641m. Speed=41.256001m/h.</desc>
<speed>11.460000</speed>
</trkpt>
<trkpt lat="21.609631" lon="105.180870">
<ele>9.640999</ele>
<time>2011-04-29T06:20:30Z</time>
<desc>lat.=21.609631, lon.=105.180870, Alt.=9.640999m. Speed=43.091999m/h.</desc>
<speed>11.970000</speed>
</trkpt>
<trkpt lat="21.609182" lon="105.180489">
<ele>8.901985</ele>
<time>2011-04-29T06:20:35Z</time>
<desc>lat.=21.609182, lon.=105.180489, Alt.=8.901985m. Speed=44.604000m/h.</desc>
<speed>12.390000</speed>
</trkpt>
<trkpt lat="21.608719" lon="105.180092">
<ele>6.926945</ele>
<time>2011-04-29T06:20:40Z</time>
<desc>lat.=21.608719, lon.=105.180092, Alt.=6.926945m. Speed=48.167999m/h.</desc>
<speed>13.380000</speed>
</trkpt>
<trkpt lat="21.608240" lon="105.179710">
<ele>7.282780</ele>
<time>2011-04-29T06:20:45Z</time>
<desc>lat.=21.608240, lon.=105.179710, Alt.=7.282780m. Speed=45.144001m/h.</desc>
<speed>12.540000</speed>
</trkpt>
<trkpt lat="21.607798" lon="105.179398">
<ele>5.932926</ele>
<time>2011-04-29T06:20:50Z</time>
<desc>lat.=21.607798, lon.=105.179398, Alt.=5.932926m. Speed=40.428001m/h.</desc>
<speed>11.230000</speed>
</trkpt>
<trkpt lat="21.607384" lon="105.179123">
<ele>3.018831</ele>
<time>2011-04-29T06:20:55Z</time>
<desc>lat.=21.607384, lon.=105.179123, Alt.=3.018831m. Speed=36.756001m/h.</desc>
<speed>10.210000</speed>
</trkpt>
<trkpt lat="21.606970" lon="105.178841">
<ele>2.609041</ele>
<time>2011-04-29T06:21:00Z</time>
<desc>lat.=21.606970, lon.=105.178841, Alt.=2.609041m. Speed=41.723999m/h.</desc>
<speed>11.590000</speed>
</trkpt>
<trkpt lat="21.606518" lon="105.178757">
<ele>1.589433</ele>
<time>2011-04-29T06:21:05Z</time>
<desc>lat.=21.606518, lon.=105.178757, Alt.=1.589433m. Speed=35.172001m/h.</desc>
<speed>9.770000</speed>
</trkpt>
<trkpt lat="21.606070" lon="105.178802">
<ele>1.497148</ele>
<time>2011-04-29T06:21:10Z</time>
<desc>lat.=21.606070, lon.=105.178802, Alt.=1.497148m. Speed=36.504002m/h.</desc>
<speed>10.140000</speed>
</trkpt>
<trkpt lat="21.605612" lon="105.178871">
<ele>1.860948</ele>
<time>2011-04-29T06:21:15Z</time>
<desc>lat.=21.605612, lon.=105.178871, Alt.=1.860948m. Speed=39.023998m/h.</desc>
<speed>10.840000</speed>
</trkpt>
<trkpt lat="21.605078" lon="105.179039">
<ele>2.258272</ele>
<time>2011-04-29T06:21:20Z</time>
<desc>lat.=21.605078, lon.=105.179039, Alt.=2.258272m. Speed=43.416000m/h.</desc>
<speed>12.060000</speed>
</trkpt>
<trkpt lat="21.604553" lon="105.179214">
<ele>1.774613</ele>
<time>2011-04-29T06:21:25Z</time>
<desc>lat.=21.604553, lon.=105.179214, Alt.=1.774613m. Speed=43.127998m/h.</desc>
<speed>11.980000</speed>
</trkpt>
<trkpt lat="21.604031" lon="105.179405">
<ele>2.868563</ele>
<time>2011-04-29T06:21:30Z</time>
<desc>lat.=21.604031, lon.=105.179405, Alt.=2.868563m. Speed=44.352001m/h.</desc>
<speed>12.320000</speed>
</trkpt>
<trkpt lat="21.603491" lon="105.179695">
<ele>0.875634</ele>
<time>2011-04-29T06:21:35Z</time>
<desc>lat.=21.603491, lon.=105.179695, Alt.=0.875634m. Speed=47.807999m/h.</desc>
<speed>13.280000</speed>
</trkpt>
<trkpt lat="21.602961" lon="105.180008">
<ele>-0.582467</ele>
<time>2011-04-29T06:21:40Z</time>
<desc>lat.=21.602961, lon.=105.180008, Alt.=-0.582467m. Speed=44.928001m/h.</desc>
<speed>12.480000</speed>
</trkpt>
<trkpt lat="21.602541" lon="105.180290">
<ele>-0.107656</ele>
<time>2011-04-29T06:21:45Z</time>
<desc>lat.=21.602541, lon.=105.180290, Alt.=-0.107656m. Speed=31.823999m/h.</desc>
<speed>8.840000</speed>
</trkpt>
<trkpt lat="21.602268" lon="105.180542">
<ele>1.059617</ele>
<time>2011-04-29T06:21:50Z</time>
<desc>lat.=21.602268, lon.=105.180542, Alt.=1.059617m. Speed=28.944000m/h.</desc>
<speed>8.040000</speed>
</trkpt>
<trkpt lat="21.602022" lon="105.180801">
<ele>-0.177584</ele>
<time>2011-04-29T06:21:55Z</time>
<desc>lat.=21.602022, lon.=105.180801, Alt.=-0.177584m. Speed=28.836000m/h.</desc>
<speed>8.010000</speed>
</trkpt>
<trkpt lat="21.601713" lon="105.181107">
<ele>1.550736</ele>
<time>2011-04-29T06:22:00Z</time>
<desc>lat.=21.601713, lon.=105.181107, Alt.=1.550736m. Speed=38.664001m/h.</desc>
<speed>10.740000</speed>
</trkpt>
<trkpt lat="21.601353" lon="105.181496">
<ele>2.727144</ele>
<time>2011-04-29T06:22:05Z</time>
<desc>lat.=21.601353, lon.=105.181496, Alt.=2.727144m. Speed=41.004002m/h.</desc>
<speed>11.390000</speed>
</trkpt>
<trkpt lat="21.600988" lon="105.181885">
<ele>4.221500</ele>
<time>2011-04-29T06:22:10Z</time>
<desc>lat.=21.600988, lon.=105.181885, Alt.=4.221500m. Speed=43.523998m/h.</desc>
<speed>12.090000</speed>
</trkpt>
<trkpt lat="21.600639" lon="105.182335">
<ele>0.557274</ele>
<time>2011-04-29T06:22:15Z</time>
<desc>lat.=21.600639, lon.=105.182335, Alt.=0.557274m. Speed=44.675999m/h.</desc>
<speed>12.410000</speed>
</trkpt>
<trkpt lat="21.600235" lon="105.182785">
<ele>-1.128251</ele>
<time>2011-04-29T06:22:20Z</time>
<desc>lat.=21.600235, lon.=105.182785, Alt.=-1.128251m. Speed=45.467999m/h.</desc>
<speed>12.630000</speed>
</trkpt>
<trkpt lat="21.599766" lon="105.183159">
<ele>-0.635857</ele>
<time>2011-04-29T06:22:25Z</time>
<desc>lat.=21.599766, lon.=105.183159, Alt.=-0.635857m. Speed=44.388000m/h.</desc>
<speed>12.330000</speed>
</trkpt>
<trkpt lat="21.599247" lon="105.183479">
<ele>0.538079</ele>
<time>2011-04-29T06:22:30Z</time>
<desc>lat.=21.599247, lon.=105.183479, Alt.=0.538079m. Speed=46.043999m/h.</desc>
<speed>12.790000</speed>
</trkpt>
<trkpt lat="21.598770" lon="105.183815">
<ele>2.131685</ele>
<time>2011-04-29T06:22:35Z</time>
<desc>lat.=21.598770, lon.=105.183815, Alt.=2.131685m. Speed=43.056000m/h.</desc>
<speed>11.960000</speed>
</trkpt>
<trkpt lat="21.598312" lon="105.184166">
<ele>1.756639</ele>
<time>2011-04-29T06:22:40Z</time>
<desc>lat.=21.598312, lon.=105.184166, Alt.=1.756639m. Speed=44.748001m/h.</desc>
<speed>12.430000</speed>
</trkpt>
<trkpt lat="21.597837" lon="105.184486">
<ele>2.184908</ele>
<time>2011-04-29T06:22:45Z</time>
<desc>lat.=21.597837, lon.=105.184486, Alt.=2.184908m. Speed=42.948002m/h.</desc>
<speed>11.930001</speed>
</trkpt>
<trkpt lat="21.597363" lon="105.184761">
<ele>2.372713</ele>
<time>2011-04-29T06:22:50Z</time>
<desc>lat.=21.597363, lon.=105.184761, Alt.=2.372713m. Speed=42.119999m/h.</desc>
<speed>11.700000</speed>
</trkpt>
<trkpt lat="21.596918" lon="105.185059">
<ele>1.865129</ele>
<time>2011-04-29T06:22:55Z</time>
<desc>lat.=21.596918, lon.=105.185059, Alt.=1.865129m. Speed=42.731998m/h.</desc>
<speed>11.870000</speed>
</trkpt>
<trkpt lat="21.596546" lon="105.185532">
<ele>2.370821</ele>
<time>2011-04-29T06:23:00Z</time>
<desc>lat.=21.596546, lon.=105.185532, Alt.=2.370821m. Speed=47.304001m/h.</desc>
<speed>13.140000</speed>
</trkpt>
<trkpt lat="21.596203" lon="105.186020">
<ele>1.135301</ele>
<time>2011-04-29T06:23:05Z</time>
<desc>lat.=21.596203, lon.=105.186020, Alt.=1.135301m. Speed=46.368000m/h.</desc>
<speed>12.880000</speed>
</trkpt>
<trkpt lat="21.595776" lon="105.186478">
<ele>0.985833</ele>
<time>2011-04-29T06:23:10Z</time>
<desc>lat.=21.595776, lon.=105.186478, Alt.=0.985833m. Speed=47.340000m/h.</desc>
<speed>13.150000</speed>
</trkpt>
<trkpt lat="21.595358" lon="105.186897">
<ele>1.807176</ele>
<time>2011-04-29T06:23:15Z</time>
<desc>lat.=21.595358, lon.=105.186897, Alt.=1.807176m. Speed=44.604000m/h.</desc>
<speed>12.390000</speed>
</trkpt>
<trkpt lat="21.594931" lon="105.187302">
<ele>2.169344</ele>
<time>2011-04-29T06:23:20Z</time>
<desc>lat.=21.594931, lon.=105.187302, Alt.=2.169344m. Speed=45.612000m/h.</desc>
<speed>12.670000</speed>
</trkpt>
<trkpt lat="21.594528" lon="105.187698">
<ele>-0.477383</ele>
<time>2011-04-29T06:23:25Z</time>
<desc>lat.=21.594528, lon.=105.187698, Alt.=-0.477383m. Speed=44.028000m/h.</desc>
<speed>12.230000</speed>
</trkpt>
<trkpt lat="21.594168" lon="105.188118">
<ele>-2.180635</ele>
<time>2011-04-29T06:23:30Z</time>
<desc>lat.=21.594168, lon.=105.188118, Alt.=-2.180635m. Speed=43.596001m/h.</desc>
<speed>12.110000</speed>
</trkpt>
<trkpt lat="21.593809" lon="105.188522">
<ele>-3.924288</ele>
<time>2011-04-29T06:23:35Z</time>
<desc>lat.=21.593809, lon.=105.188522, Alt.=-3.924288m. Speed=42.948002m/h.</desc>
<speed>11.930001</speed>
</trkpt>
<trkpt lat="21.593420" lon="105.188950">
<ele>-4.511417</ele>
<time>2011-04-29T06:23:40Z</time>
<desc>lat.=21.593420, lon.=105.188950, Alt.=-4.511417m. Speed=44.568001m/h.</desc>
<speed>12.380000</speed>
</trkpt>
<trkpt lat="21.593016" lon="105.189362">
<ele>-3.612337</ele>
<time>2011-04-29T06:23:45Z</time>
<desc>lat.=21.593016, lon.=105.189362, Alt.=-3.612337m. Speed=44.712002m/h.</desc>
<speed>12.420001</speed>
</trkpt>
<trkpt lat="21.592545" lon="105.189667">
<ele>-4.008610</ele>
<time>2011-04-29T06:23:50Z</time>
<desc>lat.=21.592545, lon.=105.189667, Alt.=-4.008610m. Speed=41.472000m/h.</desc>
<speed>11.520000</speed>
</trkpt>
<trkpt lat="21.592033" lon="105.189751">
<ele>-5.346134</ele>
<time>2011-04-29T06:23:55Z</time>
<desc>lat.=21.592033, lon.=105.189751, Alt.=-5.346134m. Speed=41.256001m/h.</desc>
<speed>11.460000</speed>
</trkpt>
<trkpt lat="21.591505" lon="105.189857">
<ele>-2.757479</ele>
<time>2011-04-29T06:24:00Z</time>
<desc>lat.=21.591505, lon.=105.189857, Alt.=-2.757479m. Speed=41.652000m/h.</desc>
<speed>11.570000</speed>
</trkpt>
<trkpt lat="21.590971" lon="105.189865">
<ele>-1.508256</ele>
<time>2011-04-29T06:24:05Z</time>
<desc>lat.=21.590971, lon.=105.189865, Alt.=-1.508256m. Speed=44.208000m/h.</desc>
<speed>12.280000</speed>
</trkpt>
<trkpt lat="21.590456" lon="105.189735">
<ele>-0.190111</ele>
<time>2011-04-29T06:24:10Z</time>
<desc>lat.=21.590456, lon.=105.189735, Alt.=-0.190111m. Speed=39.599998m/h.</desc>
<speed>11.000000</speed>
</trkpt>
<trkpt lat="21.590052" lon="105.189468">
<ele>-0.137926</ele>
<time>2011-04-29T06:24:15Z</time>
<desc>lat.=21.590052, lon.=105.189468, Alt.=-0.137926m. Speed=39.456001m/h.</desc>
<speed>10.960000</speed>
</trkpt>
<trkpt lat="21.589657" lon="105.189095">
<ele>0.027867</ele>
<time>2011-04-29T06:24:20Z</time>
<desc>lat.=21.589657, lon.=105.189095, Alt.=0.027867m. Speed=43.127998m/h.</desc>
<speed>11.980000</speed>
</trkpt>
<trkpt lat="21.589211" lon="105.188751">
<ele>0.864266</ele>
<time>2011-04-29T06:24:25Z</time>
<desc>lat.=21.589211, lon.=105.188751, Alt.=0.864266m. Speed=44.532001m/h.</desc>
<speed>12.370000</speed>
</trkpt>
<trkpt lat="21.588646" lon="105.188606">
<ele>-0.370709</ele>
<time>2011-04-29T06:24:30Z</time>
<desc>lat.=21.588646, lon.=105.188606, Alt.=-0.370709m. Speed=46.764000m/h.</desc>
<speed>12.990000</speed>
</trkpt>
<trkpt lat="21.588095" lon="105.188812">
<ele>0.192595</ele>
<time>2011-04-29T06:24:35Z</time>
<desc>lat.=21.588095, lon.=105.188812, Alt.=0.192595m. Speed=45.936001m/h.</desc>
<speed>12.760000</speed>
</trkpt>
<trkpt lat="21.587589" lon="105.189194">
<ele>2.347628</ele>
<time>2011-04-29T06:24:40Z</time>
<desc>lat.=21.587589, lon.=105.189194, Alt.=2.347628m. Speed=48.132000m/h.</desc>
<speed>13.370000</speed>
</trkpt>
<trkpt lat="21.587053" lon="105.189415">
<ele>3.051668</ele>
<time>2011-04-29T06:24:45Z</time>
<desc>lat.=21.587053, lon.=105.189415, Alt.=3.051668m. Speed=44.784000m/h.</desc>
<speed>12.440000</speed>
</trkpt>
<trkpt lat="21.586533" lon="105.189590">
<ele>3.082735</ele>
<time>2011-04-29T06:24:50Z</time>
<desc>lat.=21.586533, lon.=105.189590, Alt.=3.082735m. Speed=44.568001m/h.</desc>
<speed>12.380000</speed>
</trkpt>
<trkpt lat="21.586004" lon="105.189774">
<ele>5.564884</ele>
<time>2011-04-29T06:24:55Z</time>
<desc>lat.=21.586004, lon.=105.189774, Alt.=5.564884m. Speed=38.051998m/h.</desc>
<speed>10.569999</speed>
</trkpt>
<trkpt lat="21.585522" lon="105.189896">
<ele>0.559258</ele>
<time>2011-04-29T06:25:00Z</time>
<desc>lat.=21.585522, lon.=105.189896, Alt.=0.559258m. Speed=41.112000m/h.</desc>
<speed>11.420000</speed>
</trkpt>
<trkpt lat="21.585009" lon="105.190048">
<ele>-0.736351</ele>
<time>2011-04-29T06:25:05Z</time>
<desc>lat.=21.585009, lon.=105.190048, Alt.=-0.736351m. Speed=44.316002m/h.</desc>
<speed>12.310001</speed>
</trkpt>
<trkpt lat="21.584425" lon="105.190102">
<ele>1.089982</ele>
<time>2011-04-29T06:25:10Z</time>
<desc>lat.=21.584425, lon.=105.190102, Alt.=1.089982m. Speed=47.916000m/h.</desc>
<speed>13.310000</speed>
</trkpt>
<trkpt lat="21.583822" lon="105.190010">
<ele>2.794954</ele>
<time>2011-04-29T06:25:15Z</time>
<desc>lat.=21.583822, lon.=105.190010, Alt.=2.794954m. Speed=46.692001m/h.</desc>
<speed>12.970000</speed>
</trkpt>
<trkpt lat="21.583263" lon="105.189903">
<ele>4.507999</ele>
<time>2011-04-29T06:25:20Z</time>
<desc>lat.=21.583263, lon.=105.189903, Alt.=4.507999m. Speed=44.208000m/h.</desc>
<speed>12.280000</speed>
</trkpt>
<trkpt lat="21.582771" lon="105.189835">
<ele>4.591862</ele>
<time>2011-04-29T06:25:25Z</time>
<desc>lat.=21.582771, lon.=105.189835, Alt.=4.591862m. Speed=34.236000m/h.</desc>
<speed>9.510000</speed>
</trkpt>
<trkpt lat="21.582375" lon="105.189774">
<ele>9.471321</ele>
<time>2011-04-29T06:25:30Z</time>
<desc>lat.=21.582375, lon.=105.189774, Alt.=9.471321m. Speed=32.363998m/h.</desc>
<speed>8.990000</speed>
</trkpt>
<trkpt lat="21.581932" lon="105.189705">
<ele>11.506233</ele>
<time>2011-04-29T06:25:35Z</time>
<desc>lat.=21.581932, lon.=105.189705, Alt.=11.506233m. Speed=36.936001m/h.</desc>
<speed>10.260000</speed>
</trkpt>
<trkpt lat="21.581505" lon="105.189453">
<ele>14.677132</ele>
<time>2011-04-29T06:25:40Z</time>
<desc>lat.=21.581505, lon.=105.189453, Alt.=14.677132m. Speed=40.535999m/h.</desc>
<speed>11.260000</speed>
</trkpt>
<trkpt lat="21.581137" lon="105.189041">
<ele>16.059830</ele>
<time>2011-04-29T06:25:45Z</time>
<desc>lat.=21.581137, lon.=105.189041, Alt.=16.059830m. Speed=40.680000m/h.</desc>
<speed>11.300000</speed>
</trkpt>
<trkpt lat="21.580933" lon="105.188744">
<ele>17.613052</ele>
<time>2011-04-29T06:25:50Z</time>
<desc>lat.=21.580933, lon.=105.188744, Alt.=17.613052m. Speed=14.760000m/h.</desc>
<speed>4.100000</speed>
</trkpt>
<trkpt lat="21.580877" lon="105.188683">
<ele>18.270279</ele>
<time>2011-04-29T06:25:55Z</time>
<desc>lat.=21.580877, lon.=105.188683, Alt.=18.270279m. Speed=5.580000m/h.</desc>
<speed>1.550000</speed>
</trkpt>
<trkpt lat="21.580812" lon="105.188599">
<ele>18.988052</ele>
<time>2011-04-29T06:26:00Z</time>
<desc>lat.=21.580812, lon.=105.188599, Alt.=18.988052m. Speed=10.656000m/h.</desc>
<speed>2.960000</speed>
</trkpt>
<trkpt lat="21.580679" lon="105.188454">
<ele>22.048111</ele>
<time>2011-04-29T06:26:05Z</time>
<desc>lat.=21.580679, lon.=105.188454, Alt.=22.048111m. Speed=16.416000m/h.</desc>
<speed>4.560000</speed>
</trkpt>
<trkpt lat="21.580500" lon="105.188179">
<ele>22.557388</ele>
<time>2011-04-29T06:26:10Z</time>
<desc>lat.=21.580500, lon.=105.188179, Alt.=22.557388m. Speed=25.128000m/h.</desc>
<speed>6.980000</speed>
</trkpt>
<trkpt lat="21.580242" lon="105.187851">
<ele>24.414810</ele>
<time>2011-04-29T06:26:15Z</time>
<desc>lat.=21.580242, lon.=105.187851, Alt.=24.414810m. Speed=36.936001m/h.</desc>
<speed>10.260000</speed>
</trkpt>
<trkpt lat="21.579838" lon="105.187508">
<ele>24.149673</ele>
<time>2011-04-29T06:26:20Z</time>
<desc>lat.=21.579838, lon.=105.187508, Alt.=24.149673m. Speed=39.708000m/h.</desc>
<speed>11.030000</speed>
</trkpt>
<trkpt lat="21.579395" lon="105.187271">
<ele>23.370377</ele>
<time>2011-04-29T06:26:25Z</time>
<desc>lat.=21.579395, lon.=105.187271, Alt.=23.370377m. Speed=39.203999m/h.</desc>
<speed>10.890000</speed>
</trkpt>
<trkpt lat="21.578917" lon="105.187042">
<ele>21.894302</ele>
<time>2011-04-29T06:26:30Z</time>
<desc>lat.=21.578917, lon.=105.187042, Alt.=21.894302m. Speed=43.703999m/h.</desc>
<speed>12.140000</speed>
</trkpt>
<trkpt lat="21.578337" lon="105.186905">
<ele>21.172623</ele>
<time>2011-04-29T06:26:35Z</time>
<desc>lat.=21.578337, lon.=105.186905, Alt.=21.172623m. Speed=47.736000m/h.</desc>
<speed>13.260000</speed>
</trkpt>
<trkpt lat="21.577724" lon="105.186890">
<ele>18.160904</ele>
<time>2011-04-29T06:26:40Z</time>
<desc>lat.=21.577724, lon.=105.186890, Alt.=18.160904m. Speed=47.627998m/h.</desc>
<speed>13.230000</speed>
</trkpt>
<trkpt lat="21.577097" lon="105.186852">
<ele>9.605843</ele>
<time>2011-04-29T06:26:45Z</time>
<desc>lat.=21.577097, lon.=105.186852, Alt.=9.605843m. Speed=50.616001m/h.</desc>
<speed>14.060000</speed>
</trkpt>
<trkpt lat="21.576464" lon="105.186867">
<ele>5.808781</ele>
<time>2011-04-29T06:26:50Z</time>
<desc>lat.=21.576464, lon.=105.186867, Alt.=5.808781m. Speed=48.528000m/h.</desc>
<speed>13.480000</speed>
</trkpt>
<trkpt lat="21.575830" lon="105.186935">
<ele>2.973604</ele>
<time>2011-04-29T06:26:55Z</time>
<desc>lat.=21.575830, lon.=105.186935, Alt.=2.973604m. Speed=50.796001m/h.</desc>
<speed>14.110000</speed>
</trkpt>
<trkpt lat="21.575226" lon="105.187035">
<ele>2.052462</ele>
<time>2011-04-29T06:27:00Z</time>
<desc>lat.=21.575226, lon.=105.187035, Alt.=2.052462m. Speed=48.348000m/h.</desc>
<speed>13.430000</speed>
</trkpt>
<trkpt lat="21.574669" lon="105.187317">
<ele>2.459627</ele>
<time>2011-04-29T06:27:05Z</time>
<desc>lat.=21.574669, lon.=105.187317, Alt.=2.459627m. Speed=47.231998m/h.</desc>
<speed>13.120000</speed>
</trkpt>
<trkpt lat="21.574144" lon="105.187538">
<ele>2.051363</ele>
<time>2011-04-29T06:27:10Z</time>
<desc>lat.=21.574144, lon.=105.187538, Alt.=2.051363m. Speed=44.568001m/h.</desc>
<speed>12.380000</speed>
</trkpt>
<trkpt lat="21.573633" lon="105.187660">
<ele>3.495760</ele>
<time>2011-04-29T06:27:15Z</time>
<desc>lat.=21.573633, lon.=105.187660, Alt.=3.495760m. Speed=43.307999m/h.</desc>
<speed>12.030000</speed>
</trkpt>
<trkpt lat="21.573082" lon="105.187782">
<ele>1.687669</ele>
<time>2011-04-29T06:27:20Z</time>
<desc>lat.=21.573082, lon.=105.187782, Alt.=1.687669m. Speed=44.712002m/h.</desc>
<speed>12.420001</speed>
</trkpt>
<trkpt lat="21.572512" lon="105.187836">
<ele>1.974198</ele>
<time>2011-04-29T06:27:25Z</time>
<desc>lat.=21.572512, lon.=105.187836, Alt.=1.974198m. Speed=46.116001m/h.</desc>
<speed>12.810000</speed>
</trkpt>
<trkpt lat="21.571934" lon="105.187798">
<ele>2.733675</ele>
<time>2011-04-29T06:27:30Z</time>
<desc>lat.=21.571934, lon.=105.187798, Alt.=2.733675m. Speed=44.352001m/h.</desc>
<speed>12.320000</speed>
</trkpt>
<trkpt lat="21.571386" lon="105.187744">
<ele>2.839510</ele>
<time>2011-04-29T06:27:35Z</time>
<desc>lat.=21.571386, lon.=105.187744, Alt.=2.839510m. Speed=42.624001m/h.</desc>
<speed>11.840000</speed>
</trkpt>
<trkpt lat="21.570848" lon="105.187645">
<ele>5.238468</ele>
<time>2011-04-29T06:27:40Z</time>
<desc>lat.=21.570848, lon.=105.187645, Alt.=5.238468m. Speed=44.136002m/h.</desc>
<speed>12.260000</speed>
</trkpt>
<trkpt lat="21.570332" lon="105.187538">
<ele>5.458805</ele>
<time>2011-04-29T06:27:45Z</time>
<desc>lat.=21.570332, lon.=105.187538, Alt.=5.458805m. Speed=30.024000m/h.</desc>
<speed>8.340000</speed>
</trkpt>
<trkpt lat="21.570162" lon="105.187469">
<ele>6.166691</ele>
<time>2011-04-29T06:27:50Z</time>
<desc>lat.=21.570162, lon.=105.187469, Alt.=6.166691m. Speed=5.544000m/h.</desc>
<speed>1.540000</speed>
</trkpt>
<trkpt lat="21.570118" lon="105.187469">
<ele>7.257999</ele>
<time>2011-04-29T06:27:55Z</time>
<desc>lat.=21.570118, lon.=105.187469, Alt.=7.257999m. Speed=2.268000m/h.</desc>
<speed>0.630000</speed>
</trkpt>
<trkpt lat="21.570101" lon="105.187469">
<ele>8.411018</ele>
<time>2011-04-29T06:28:00Z</time>
<desc>lat.=21.570101, lon.=105.187469, Alt.=8.411018m. Speed=1.008000m/h.</desc>
<speed>0.280000</speed>
</trkpt>
<trkpt lat="21.570093" lon="105.187469">
<ele>8.708138</ele>
<time>2011-04-29T06:28:05Z</time>
<desc>lat.=21.570093, lon.=105.187469, Alt.=8.708138m. Speed=0.144000m/h.</desc>
<speed>0.040000</speed>
</trkpt>
<trkpt lat="21.570091" lon="105.187462">
<ele>8.809212</ele>
<time>2011-04-29T06:28:10Z</time>
<desc>lat.=21.570091, lon.=105.187462, Alt.=8.809212m. Speed=1.044000m/h.</desc>
<speed>0.290000</speed>
</trkpt>
<trkpt lat="21.570076" lon="105.187462">
<ele>8.924934</ele>
<time>2011-04-29T06:28:15Z</time>
<desc>lat.=21.570076, lon.=105.187462, Alt.=8.924934m. Speed=0.900000m/h.</desc>
<speed>0.250000</speed>
</trkpt>
<trkpt lat="21.570070" lon="105.187462">
<ele>9.014778</ele>
<time>2011-04-29T06:28:20Z</time>
<desc>lat.=21.570070, lon.=105.187462, Alt.=9.014778m. Speed=0.288000m/h.</desc>
<speed>0.080000</speed>
</trkpt>
<trkpt lat="21.570070" lon="105.187469">
<ele>9.068245</ele>
<time>2011-04-29T06:28:25Z</time>
<desc>lat.=21.570070, lon.=105.187469, Alt.=9.068245m. Speed=0.576000m/h.</desc>
<speed>0.160000</speed>
</trkpt>
<trkpt lat="21.570059" lon="105.187469">
<ele>9.114876</ele>
<time>2011-04-29T06:28:30Z</time>
<desc>lat.=21.570059, lon.=105.187469, Alt.=9.114876m. Speed=1.080000m/h.</desc>
<speed>0.300000</speed>
</trkpt>
<trkpt lat="21.570049" lon="105.187462">
<ele>9.132698</ele>
<time>2011-04-29T06:28:35Z</time>
<desc>lat.=21.570049, lon.=105.187462, Alt.=9.132698m. Speed=0.504000m/h.</desc>
<speed>0.140000</speed>
</trkpt>
<trkpt lat="21.570028" lon="105.187454">
<ele>9.177864</ele>
<time>2011-04-29T06:28:40Z</time>
<desc>lat.=21.570028, lon.=105.187454, Alt.=9.177864m. Speed=3.996000m/h.</desc>
<speed>1.110000</speed>
</trkpt>
<trkpt lat="21.569908" lon="105.187378">
<ele>8.124153</ele>
<time>2011-04-29T06:28:45Z</time>
<desc>lat.=21.569908, lon.=105.187378, Alt.=8.124153m. Speed=16.775999m/h.</desc>
<speed>4.660000</speed>
</trkpt>
<trkpt lat="21.569622" lon="105.187347">
<ele>8.720345</ele>
<time>2011-04-29T06:28:50Z</time>
<desc>lat.=21.569622, lon.=105.187347, Alt.=8.720345m. Speed=26.351999m/h.</desc>
<speed>7.320000</speed>
</trkpt>
<trkpt lat="21.569235" lon="105.187263">
<ele>9.337044</ele>
<time>2011-04-29T06:28:55Z</time>
<desc>lat.=21.569235, lon.=105.187263, Alt.=9.337044m. Speed=31.139999m/h.</desc>
<speed>8.650000</speed>
</trkpt>
<trkpt lat="21.568804" lon="105.187180">
<ele>11.128059</ele>
<time>2011-04-29T06:29:00Z</time>
<desc>lat.=21.568804, lon.=105.187180, Alt.=11.128059m. Speed=37.259998m/h.</desc>
<speed>10.350000</speed>
</trkpt>
<trkpt lat="21.568296" lon="105.187080">
<ele>9.691048</ele>
<time>2011-04-29T06:29:05Z</time>
<desc>lat.=21.568296, lon.=105.187080, Alt.=9.691048m. Speed=40.824001m/h.</desc>
<speed>11.340000</speed>
</trkpt>
<trkpt lat="21.567770" lon="105.186958">
<ele>10.169319</ele>
<time>2011-04-29T06:29:10Z</time>
<desc>lat.=21.567770, lon.=105.186958, Alt.=10.169319m. Speed=42.012001m/h.</desc>
<speed>11.670000</speed>
</trkpt>
<trkpt lat="21.567259" lon="105.186844">
<ele>14.401253</ele>
<time>2011-04-29T06:29:15Z</time>
<desc>lat.=21.567259, lon.=105.186844, Alt.=14.401253m. Speed=42.695999m/h.</desc>
<speed>11.860000</speed>
</trkpt>
<trkpt lat="21.566696" lon="105.186821">
<ele>15.656380</ele>
<time>2011-04-29T06:29:20Z</time>
<desc>lat.=21.566696, lon.=105.186821, Alt.=15.656380m. Speed=44.172001m/h.</desc>
<speed>12.270000</speed>
</trkpt>
<trkpt lat="21.566135" lon="105.186905">
<ele>16.143814</ele>
<time>2011-04-29T06:29:25Z</time>
<desc>lat.=21.566135, lon.=105.186905, Alt.=16.143814m. Speed=44.459999m/h.</desc>
<speed>12.350000</speed>
</trkpt>
<trkpt lat="21.565582" lon="105.186996">
<ele>10.731575</ele>
<time>2011-04-29T06:29:30Z</time>
<desc>lat.=21.565582, lon.=105.186996, Alt.=10.731575m. Speed=43.452000m/h.</desc>
<speed>12.070000</speed>
</trkpt>
<trkpt lat="21.565023" lon="105.187096">
<ele>10.892464</ele>
<time>2011-04-29T06:29:35Z</time>
<desc>lat.=21.565023, lon.=105.187096, Alt.=10.892464m. Speed=45.540001m/h.</desc>
<speed>12.650000</speed>
</trkpt>
<trkpt lat="21.564426" lon="105.187225">
<ele>8.805061</ele>
<time>2011-04-29T06:29:40Z</time>
<desc>lat.=21.564426, lon.=105.187225, Alt.=8.805061m. Speed=50.832001m/h.</desc>
<speed>14.120000</speed>
</trkpt>
<trkpt lat="21.563816" lon="105.187424">
<ele>6.372257</ele>
<time>2011-04-29T06:29:45Z</time>
<desc>lat.=21.563816, lon.=105.187424, Alt.=6.372257m. Speed=50.327999m/h.</desc>
<speed>13.980000</speed>
</trkpt>
<trkpt lat="21.563229" lon="105.187691">
<ele>7.601017</ele>
<time>2011-04-29T06:29:50Z</time>
<desc>lat.=21.563229, lon.=105.187691, Alt.=7.601017m. Speed=51.660000m/h.</desc>
<speed>14.350000</speed>
</trkpt>
<trkpt lat="21.562597" lon="105.187820">
<ele>7.490788</ele>
<time>2011-04-29T06:29:55Z</time>
<desc>lat.=21.562597, lon.=105.187820, Alt.=7.490788m. Speed=51.911999m/h.</desc>
<speed>14.420000</speed>
</trkpt>
<trkpt lat="21.561914" lon="105.187790">
<ele>8.209602</ele>
<time>2011-04-29T06:30:00Z</time>
<desc>lat.=21.561914, lon.=105.187790, Alt.=8.209602m. Speed=53.604000m/h.</desc>
<speed>14.890000</speed>
</trkpt>
<trkpt lat="21.561232" lon="105.187828">
<ele>10.994514</ele>
<time>2011-04-29T06:30:05Z</time>
<desc>lat.=21.561232, lon.=105.187828, Alt.=10.994514m. Speed=50.939999m/h.</desc>
<speed>14.150000</speed>
</trkpt>
<trkpt lat="21.560701" lon="105.188087">
<ele>13.561165</ele>
<time>2011-04-29T06:30:10Z</time>
<desc>lat.=21.560701, lon.=105.188087, Alt.=13.561165m. Speed=44.136002m/h.</desc>
<speed>12.260000</speed>
</trkpt>
<trkpt lat="21.560266" lon="105.188484">
<ele>16.425064</ele>
<time>2011-04-29T06:30:15Z</time>
<desc>lat.=21.560266, lon.=105.188484, Alt.=16.425064m. Speed=47.880001m/h.</desc>
<speed>13.300000</speed>
</trkpt>
<trkpt lat="21.559841" lon="105.188934">
<ele>20.144791</ele>
<time>2011-04-29T06:30:20Z</time>
<desc>lat.=21.559841, lon.=105.188934, Alt.=20.144791m. Speed=48.096001m/h.</desc>
<speed>13.360000</speed>
</trkpt>
<trkpt lat="21.559410" lon="105.189415">
<ele>22.767838</ele>
<time>2011-04-29T06:30:25Z</time>
<desc>lat.=21.559410, lon.=105.189415, Alt.=22.767838m. Speed=51.515999m/h.</desc>
<speed>14.310000</speed>
</trkpt>
<trkpt lat="21.558834" lon="105.189842">
<ele>22.184341</ele>
<time>2011-04-29T06:30:30Z</time>
<desc>lat.=21.558834, lon.=105.189842, Alt.=22.184341m. Speed=54.647999m/h.</desc>
<speed>15.180000</speed>
</trkpt>
<trkpt lat="21.558207" lon="105.190216">
<ele>21.018326</ele>
<time>2011-04-29T06:30:35Z</time>
<desc>lat.=21.558207, lon.=105.190216, Alt.=21.018326m. Speed=55.908001m/h.</desc>
<speed>15.530000</speed>
</trkpt>
<trkpt lat="21.557657" lon="105.190804">
<ele>17.861099</ele>
<time>2011-04-29T06:30:40Z</time>
<desc>lat.=21.557657, lon.=105.190804, Alt.=17.861099m. Speed=64.584000m/h.</desc>
<speed>17.940000</speed>
</trkpt>
<trkpt lat="21.557175" lon="105.191544">
<ele>13.735725</ele>
<time>2011-04-29T06:30:45Z</time>
<desc>lat.=21.557175, lon.=105.191544, Alt.=13.735725m. Speed=67.751999m/h.</desc>
<speed>18.820000</speed>
</trkpt>
<trkpt lat="21.556698" lon="105.192284">
<ele>15.860970</ele>
<time>2011-04-29T06:30:50Z</time>
<desc>lat.=21.556698, lon.=105.192284, Alt.=15.860970m. Speed=63.827999m/h.</desc>
<speed>17.730000</speed>
</trkpt>
<trkpt lat="21.556240" lon="105.192841">
<ele>18.039810</ele>
<time>2011-04-29T06:30:55Z</time>
<desc>lat.=21.556240, lon.=105.192841, Alt.=18.039810m. Speed=47.700001m/h.</desc>
<speed>13.250000</speed>
</trkpt>
<trkpt lat="21.555643" lon="105.193031">
<ele>17.674576</ele>
<time>2011-04-29T06:31:00Z</time>
<desc>lat.=21.555643, lon.=105.193031, Alt.=17.674576m. Speed=53.784000m/h.</desc>
<speed>14.940000</speed>
</trkpt>
<trkpt lat="21.554947" lon="105.193047">
<ele>16.746841</ele>
<time>2011-04-29T06:31:05Z</time>
<desc>lat.=21.554947, lon.=105.193047, Alt.=16.746841m. Speed=57.348000m/h.</desc>
<speed>15.930000</speed>
</trkpt>
<trkpt lat="21.554237" lon="105.193077">
<ele>19.713150</ele>
<time>2011-04-29T06:31:10Z</time>
<desc>lat.=21.554237, lon.=105.193077, Alt.=19.713150m. Speed=52.848000m/h.</desc>
<speed>14.680000</speed>
</trkpt>
<trkpt lat="21.553553" lon="105.193123">
<ele>21.342545</ele>
<time>2011-04-29T06:31:15Z</time>
<desc>lat.=21.553553, lon.=105.193123, Alt.=21.342545m. Speed=56.015999m/h.</desc>
<speed>15.560000</speed>
</trkpt>
<trkpt lat="21.552864" lon="105.193169">
<ele>20.055435</ele>
<time>2011-04-29T06:31:20Z</time>
<desc>lat.=21.552864, lon.=105.193169, Alt.=20.055435m. Speed=55.655998m/h.</desc>
<speed>15.460000</speed>
</trkpt>
<trkpt lat="21.552172" lon="105.193413">
<ele>18.866470</ele>
<time>2011-04-29T06:31:25Z</time>
<desc>lat.=21.552172, lon.=105.193413, Alt.=18.866470m. Speed=60.155998m/h.</desc>
<speed>16.710000</speed>
</trkpt>
<trkpt lat="21.551489" lon="105.193710">
<ele>20.127213</ele>
<time>2011-04-29T06:31:30Z</time>
<desc>lat.=21.551489, lon.=105.193710, Alt.=20.127213m. Speed=54.827999m/h.</desc>
<speed>15.230000</speed>
</trkpt>
<trkpt lat="21.550814" lon="105.193794">
<ele>20.281998</ele>
<time>2011-04-29T06:31:35Z</time>
<desc>lat.=21.550814, lon.=105.193794, Alt.=20.281998m. Speed=54.936001m/h.</desc>
<speed>15.260000</speed>
</trkpt>
<trkpt lat="21.550125" lon="105.193657">
<ele>19.756607</ele>
<time>2011-04-29T06:31:40Z</time>
<desc>lat.=21.550125, lon.=105.193657, Alt.=19.756607m. Speed=57.563999m/h.</desc>
<speed>15.990000</speed>
</trkpt>
<trkpt lat="21.549450" lon="105.193504">
<ele>19.325943</ele>
<time>2011-04-29T06:31:45Z</time>
<desc>lat.=21.549450, lon.=105.193504, Alt.=19.325943m. Speed=52.271999m/h.</desc>
<speed>14.520000</speed>
</trkpt>
<trkpt lat="21.548798" lon="105.193398">
<ele>19.286392</ele>
<time>2011-04-29T06:31:50Z</time>
<desc>lat.=21.548798, lon.=105.193398, Alt.=19.286392m. Speed=52.956001m/h.</desc>
<speed>14.710000</speed>
</trkpt>
<trkpt lat="21.548147" lon="105.193245">
<ele>20.573990</ele>
<time>2011-04-29T06:31:55Z</time>
<desc>lat.=21.548147, lon.=105.193245, Alt.=20.573990m. Speed=50.976002m/h.</desc>
<speed>14.160000</speed>
</trkpt>
<trkpt lat="21.547537" lon="105.192924">
<ele>22.449966</ele>
<time>2011-04-29T06:32:00Z</time>
<desc>lat.=21.547537, lon.=105.192924, Alt.=22.449966m. Speed=52.020000m/h.</desc>
<speed>14.450000</speed>
</trkpt>
<trkpt lat="21.547031" lon="105.192451">
<ele>25.701920</ele>
<time>2011-04-29T06:32:05Z</time>
<desc>lat.=21.547031, lon.=105.192451, Alt.=25.701920m. Speed=53.279999m/h.</desc>
<speed>14.800000</speed>
</trkpt>
<trkpt lat="21.546425" lon="105.192207">
<ele>28.059830</ele>
<time>2011-04-29T06:32:10Z</time>
<desc>lat.=21.546425, lon.=105.192207, Alt.=28.059830m. Speed=49.535999m/h.</desc>
<speed>13.760000</speed>
</trkpt>
<trkpt lat="21.545776" lon="105.192299">
<ele>30.570084</ele>
<time>2011-04-29T06:32:15Z</time>
<desc>lat.=21.545776, lon.=105.192299, Alt.=30.570084m. Speed=53.316002m/h.</desc>
<speed>14.810001</speed>
</trkpt>
<trkpt lat="21.545084" lon="105.192474">
<ele>30.782486</ele>
<time>2011-04-29T06:32:20Z</time>
<desc>lat.=21.545084, lon.=105.192474, Alt.=30.782486m. Speed=58.860001m/h.</desc>
<speed>16.350000</speed>
</trkpt>
<trkpt lat="21.544327" lon="105.192741">
<ele>32.045441</ele>
<time>2011-04-29T06:32:25Z</time>
<desc>lat.=21.544327, lon.=105.192741, Alt.=32.045441m. Speed=59.472000m/h.</desc>
<speed>16.520000</speed>
</trkpt>
<trkpt lat="21.543663" lon="105.193092">
<ele>30.358170</ele>
<time>2011-04-29T06:32:30Z</time>
<desc>lat.=21.543663, lon.=105.193092, Alt.=30.358170m. Speed=60.228001m/h.</desc>
<speed>16.730000</speed>
</trkpt>
<trkpt lat="21.543060" lon="105.193451">
<ele>30.120377</ele>
<time>2011-04-29T06:32:35Z</time>
<desc>lat.=21.543060, lon.=105.193451, Alt.=30.120377m. Speed=55.259998m/h.</desc>
<speed>15.350000</speed>
</trkpt>
<trkpt lat="21.542360" lon="105.193695">
<ele>29.679947</ele>
<time>2011-04-29T06:32:40Z</time>
<desc>lat.=21.542360, lon.=105.193695, Alt.=29.679947m. Speed=60.768002m/h.</desc>
<speed>16.880000</speed>
</trkpt>
<trkpt lat="21.541622" lon="105.193924">
<ele>28.710220</ele>
<time>2011-04-29T06:32:45Z</time>
<desc>lat.=21.541622, lon.=105.193924, Alt.=28.710220m. Speed=59.436001m/h.</desc>
<speed>16.510000</speed>
</trkpt>
<trkpt lat="21.540943" lon="105.194153">
<ele>27.638931</ele>
<time>2011-04-29T06:32:50Z</time>
<desc>lat.=21.540943, lon.=105.194153, Alt.=27.638931m. Speed=52.883999m/h.</desc>
<speed>14.690000</speed>
</trkpt>
<trkpt lat="21.540529" lon="105.194649">
<ele>27.960709</ele>
<time>2011-04-29T06:32:55Z</time>
<desc>lat.=21.540529, lon.=105.194649, Alt.=27.960709m. Speed=49.680000m/h.</desc>
<speed>13.800000</speed>
</trkpt>
<trkpt lat="21.540314" lon="105.195274">
<ele>29.270279</ele>
<time>2011-04-29T06:33:00Z</time>
<desc>lat.=21.540314, lon.=105.195274, Alt.=29.270279m. Speed=50.363998m/h.</desc>
<speed>13.990000</speed>
</trkpt>
<trkpt lat="21.540167" lon="105.195793">
<ele>31.046646</ele>
<time>2011-04-29T06:33:05Z</time>
<desc>lat.=21.540167, lon.=105.195793, Alt.=31.046646m. Speed=32.796001m/h.</desc>
<speed>9.110000</speed>
</trkpt>
<trkpt lat="21.540073" lon="105.196198">
<ele>32.646027</ele>
<time>2011-04-29T06:33:10Z</time>
<desc>lat.=21.540073, lon.=105.196198, Alt.=32.646027m. Speed=31.464001m/h.</desc>
<speed>8.740000</speed>
</trkpt>
<trkpt lat="21.539976" lon="105.196594">
<ele>34.272003</ele>
<time>2011-04-29T06:33:15Z</time>
<desc>lat.=21.539976, lon.=105.196594, Alt.=34.272003m. Speed=29.016001m/h.</desc>
<speed>8.060000</speed>
</trkpt>
<trkpt lat="21.539869" lon="105.197029">
<ele>35.680206</ele>
<time>2011-04-29T06:33:20Z</time>
<desc>lat.=21.539869, lon.=105.197029, Alt.=35.680206m. Speed=33.695999m/h.</desc>
<speed>9.360000</speed>
</trkpt>
<trkpt lat="21.539730" lon="105.197487">
<ele>36.982941</ele>
<time>2011-04-29T06:33:25Z</time>
<desc>lat.=21.539730, lon.=105.197487, Alt.=36.982941m. Speed=37.980000m/h.</desc>
<speed>10.550000</speed>
</trkpt>
<trkpt lat="21.539595" lon="105.198006">
<ele>36.691925</ele>
<time>2011-04-29T06:33:30Z</time>
<desc>lat.=21.539595, lon.=105.198006, Alt.=36.691925m. Speed=39.995998m/h.</desc>
<speed>11.110000</speed>
</trkpt>
<trkpt lat="21.539427" lon="105.198524">
<ele>37.004425</ele>
<time>2011-04-29T06:33:35Z</time>
<desc>lat.=21.539427, lon.=105.198524, Alt.=37.004425m. Speed=40.896000m/h.</desc>
<speed>11.360000</speed>
</trkpt>
<trkpt lat="21.539118" lon="105.199005">
<ele>34.052277</ele>
<time>2011-04-29T06:33:40Z</time>
<desc>lat.=21.539118, lon.=105.199005, Alt.=34.052277m. Speed=46.799999m/h.</desc>
<speed>13.000000</speed>
</trkpt>
<trkpt lat="21.538633" lon="105.199425">
<ele>28.436295</ele>
<time>2011-04-29T06:33:45Z</time>
<desc>lat.=21.538633, lon.=105.199425, Alt.=28.436295m. Speed=51.480000m/h.</desc>
<speed>14.300000</speed>
</trkpt>
<trkpt lat="21.538088" lon="105.199844">
<ele>26.253677</ele>
<time>2011-04-29T06:33:50Z</time>
<desc>lat.=21.538088, lon.=105.199844, Alt.=26.253677m. Speed=51.948002m/h.</desc>
<speed>14.430001</speed>
</trkpt>
<trkpt lat="21.537542" lon="105.200272">
<ele>19.796646</ele>
<time>2011-04-29T06:33:55Z</time>
<desc>lat.=21.537542, lon.=105.200272, Alt.=19.796646m. Speed=54.216000m/h.</desc>
<speed>15.060000</speed>
</trkpt>
<trkpt lat="21.536947" lon="105.200569">
<ele>18.255142</ele>
<time>2011-04-29T06:34:00Z</time>
<desc>lat.=21.536947, lon.=105.200569, Alt.=18.255142m. Speed=53.063999m/h.</desc>
<speed>14.740000</speed>
</trkpt>
<trkpt lat="21.536339" lon="105.200783">
<ele>18.695084</ele>
<time>2011-04-29T06:34:05Z</time>
<desc>lat.=21.536339, lon.=105.200783, Alt.=18.695084m. Speed=47.088001m/h.</desc>
<speed>13.080000</speed>
</trkpt>
<trkpt lat="21.535851" lon="105.201134">
<ele>18.119400</ele>
<time>2011-04-29T06:34:10Z</time>
<desc>lat.=21.535851, lon.=105.201134, Alt.=18.119400m. Speed=45.071999m/h.</desc>
<speed>12.520000</speed>
</trkpt>
<trkpt lat="21.535475" lon="105.201584">
<ele>18.333267</ele>
<time>2011-04-29T06:34:15Z</time>
<desc>lat.=21.535475, lon.=105.201584, Alt.=18.333267m. Speed=41.939999m/h.</desc>
<speed>11.650000</speed>
</trkpt>
<trkpt lat="21.535141" lon="105.202034">
<ele>19.401627</ele>
<time>2011-04-29T06:34:20Z</time>
<desc>lat.=21.535141, lon.=105.202034, Alt.=19.401627m. Speed=40.320000m/h.</desc>
<speed>11.200000</speed>
</trkpt>
<trkpt lat="21.534777" lon="105.202446">
<ele>20.631607</ele>
<time>2011-04-29T06:34:25Z</time>
<desc>lat.=21.534777, lon.=105.202446, Alt.=20.631607m. Speed=44.604000m/h.</desc>
<speed>12.390000</speed>
</trkpt>
<trkpt lat="21.534384" lon="105.202919">
<ele>19.066177</ele>
<time>2011-04-29T06:34:30Z</time>
<desc>lat.=21.534384, lon.=105.202919, Alt.=19.066177m. Speed=47.340000m/h.</desc>
<speed>13.150000</speed>
</trkpt>
<trkpt lat="21.533958" lon="105.203453">
<ele>15.605110</ele>
<time>2011-04-29T06:34:35Z</time>
<desc>lat.=21.533958, lon.=105.203453, Alt.=15.605110m. Speed=51.155998m/h.</desc>
<speed>14.210000</speed>
</trkpt>
<trkpt lat="21.533545" lon="105.203979">
<ele>12.220345</ele>
<time>2011-04-29T06:34:40Z</time>
<desc>lat.=21.533545, lon.=105.203979, Alt.=12.220345m. Speed=48.852001m/h.</desc>
<speed>13.570000</speed>
</trkpt>
<trkpt lat="21.533045" lon="105.204437">
<ele>10.920296</ele>
<time>2011-04-29T06:34:45Z</time>
<desc>lat.=21.533045, lon.=105.204437, Alt.=10.920296m. Speed=53.532001m/h.</desc>
<speed>14.870000</speed>
</trkpt>
<trkpt lat="21.532490" lon="105.204811">
<ele>11.873909</ele>
<time>2011-04-29T06:34:50Z</time>
<desc>lat.=21.532490, lon.=105.204811, Alt.=11.873909m. Speed=51.624001m/h.</desc>
<speed>14.340000</speed>
</trkpt>
<trkpt lat="21.531954" lon="105.205193">
<ele>11.811653</ele>
<time>2011-04-29T06:34:55Z</time>
<desc>lat.=21.531954, lon.=105.205193, Alt.=11.811653m. Speed=50.147999m/h.</desc>
<speed>13.930000</speed>
</trkpt>
<trkpt lat="21.531485" lon="105.205513">
<ele>12.700325</ele>
<time>2011-04-29T06:35:00Z</time>
<desc>lat.=21.531485, lon.=105.205513, Alt.=12.700325m. Speed=44.459999m/h.</desc>
<speed>12.350000</speed>
</trkpt>
<trkpt lat="21.531033" lon="105.205887">
<ele>14.055061</ele>
<time>2011-04-29T06:35:05Z</time>
<desc>lat.=21.531033, lon.=105.205887, Alt.=14.055061m. Speed=44.352001m/h.</desc>
<speed>12.320000</speed>
</trkpt>
<trkpt lat="21.530600" lon="105.206306">
<ele>13.752327</ele>
<time>2011-04-29T06:35:10Z</time>
<desc>lat.=21.530600, lon.=105.206306, Alt.=13.752327m. Speed=48.672001m/h.</desc>
<speed>13.520000</speed>
</trkpt>
<trkpt lat="21.530136" lon="105.206734">
<ele>15.110237</ele>
<time>2011-04-29T06:35:15Z</time>
<desc>lat.=21.530136, lon.=105.206734, Alt.=15.110237m. Speed=48.383999m/h.</desc>
<speed>13.440000</speed>
</trkpt>
<trkpt lat="21.529615" lon="105.207024">
<ele>15.376106</ele>
<time>2011-04-29T06:35:20Z</time>
<desc>lat.=21.529615, lon.=105.207024, Alt.=15.376106m. Speed=46.799999m/h.</desc>
<speed>13.000000</speed>
</trkpt>
<trkpt lat="21.529070" lon="105.207077">
<ele>12.764778</ele>
<time>2011-04-29T06:35:25Z</time>
<desc>lat.=21.529070, lon.=105.207077, Alt.=12.764778m. Speed=43.271999m/h.</desc>
<speed>12.020000</speed>
</trkpt>
<trkpt lat="21.528534" lon="105.206879">
<ele>11.596565</ele>
<time>2011-04-29T06:35:30Z</time>
<desc>lat.=21.528534, lon.=105.206879, Alt.=11.596565m. Speed=45.360001m/h.</desc>
<speed>12.600000</speed>
</trkpt>
<trkpt lat="21.528055" lon="105.206459">
<ele>12.446663</ele>
<time>2011-04-29T06:35:35Z</time>
<desc>lat.=21.528055, lon.=105.206459, Alt.=12.446663m. Speed=52.812000m/h.</desc>
<speed>14.670000</speed>
</trkpt>
<trkpt lat="21.527626" lon="105.205925">
<ele>13.060677</ele>
<time>2011-04-29T06:35:40Z</time>
<desc>lat.=21.527626, lon.=105.205925, Alt.=13.060677m. Speed=53.712002m/h.</desc>
<speed>14.920001</speed>
</trkpt>
<trkpt lat="21.527182" lon="105.205414">
<ele>14.415413</ele>
<time>2011-04-29T06:35:45Z</time>
<desc>lat.=21.527182, lon.=105.205414, Alt.=14.415413m. Speed=52.632000m/h.</desc>
<speed>14.620000</speed>
</trkpt>
<trkpt lat="21.526739" lon="105.204926">
<ele>16.104263</ele>
<time>2011-04-29T06:35:50Z</time>
<desc>lat.=21.526739, lon.=105.204926, Alt.=16.104263m. Speed=44.316002m/h.</desc>
<speed>12.310001</speed>
</trkpt>
<trkpt lat="21.526409" lon="105.204491">
<ele>17.514420</ele>
<time>2011-04-29T06:35:55Z</time>
<desc>lat.=21.526409, lon.=105.204491, Alt.=17.514420m. Speed=40.680000m/h.</desc>
<speed>11.300000</speed>
</trkpt>
<trkpt lat="21.526049" lon="105.204056">
<ele>19.250259</ele>
<time>2011-04-29T06:36:00Z</time>
<desc>lat.=21.526049, lon.=105.204056, Alt.=19.250259m. Speed=43.416000m/h.</desc>
<speed>12.060000</speed>
</trkpt>
<trkpt lat="21.525604" lon="105.203651">
<ele>20.688736</ele>
<time>2011-04-29T06:36:05Z</time>
<desc>lat.=21.525604, lon.=105.203651, Alt.=20.688736m. Speed=46.368000m/h.</desc>
<speed>12.880000</speed>
</trkpt>
<trkpt lat="21.525034" lon="105.203461">
<ele>21.638931</ele>
<time>2011-04-29T06:36:10Z</time>
<desc>lat.=21.525034, lon.=105.203461, Alt.=21.638931m. Speed=49.175999m/h.</desc>
<speed>13.660000</speed>
</trkpt>
<trkpt lat="21.524414" lon="105.203339">
<ele>22.916275</ele>
<time>2011-04-29T06:36:15Z</time>
<desc>lat.=21.524414, lon.=105.203339, Alt.=22.916275m. Speed=48.779999m/h.</desc>
<speed>13.550000</speed>
</trkpt>
<trkpt lat="21.523855" lon="105.203224">
<ele>23.744400</ele>
<time>2011-04-29T06:36:20Z</time>
<desc>lat.=21.523855, lon.=105.203224, Alt.=23.744400m. Speed=44.495998m/h.</desc>
<speed>12.360000</speed>
</trkpt>
<trkpt lat="21.523375" lon="105.202965">
<ele>23.776138</ele>
<time>2011-04-29T06:36:25Z</time>
<desc>lat.=21.523375, lon.=105.202965, Alt.=23.776138m. Speed=42.911999m/h.</desc>
<speed>11.920000</speed>
</trkpt>
<trkpt lat="21.522964" lon="105.202621">
<ele>25.865494</ele>
<time>2011-04-29T06:36:30Z</time>
<desc>lat.=21.522964, lon.=105.202621, Alt.=25.865494m. Speed=42.551998m/h.</desc>
<speed>11.819999</speed>
</trkpt>
<trkpt lat="21.522526" lon="105.202301">
<ele>27.488541</ele>
<time>2011-04-29T06:36:35Z</time>
<desc>lat.=21.522526, lon.=105.202301, Alt.=27.488541m. Speed=41.363998m/h.</desc>
<speed>11.490000</speed>
</trkpt>
<trkpt lat="21.522032" lon="105.202248">
<ele>21.452896</ele>
<time>2011-04-29T06:36:40Z</time>
<desc>lat.=21.522032, lon.=105.202248, Alt.=21.452896m. Speed=41.580002m/h.</desc>
<speed>11.550001</speed>
</trkpt>
<trkpt lat="21.521503" lon="105.202431">
<ele>19.219498</ele>
<time>2011-04-29T06:36:45Z</time>
<desc>lat.=21.521503, lon.=105.202431, Alt.=19.219498m. Speed=45.972000m/h.</desc>
<speed>12.770000</speed>
</trkpt>
<trkpt lat="21.521025" lon="105.202843">
<ele>18.179459</ele>
<time>2011-04-29T06:36:50Z</time>
<desc>lat.=21.521025, lon.=105.202843, Alt.=18.179459m. Speed=51.408001m/h.</desc>
<speed>14.280000</speed>
</trkpt>
<trkpt lat="21.520544" lon="105.203285">
<ele>16.999283</ele>
<time>2011-04-29T06:36:55Z</time>
<desc>lat.=21.520544, lon.=105.203285, Alt.=16.999283m. Speed=49.751999m/h.</desc>
<speed>13.820000</speed>
</trkpt>
<trkpt lat="21.519981" lon="105.203590">
<ele>16.388931</ele>
<time>2011-04-29T06:37:00Z</time>
<desc>lat.=21.519981, lon.=105.203590, Alt.=16.388931m. Speed=51.660000m/h.</desc>
<speed>14.350000</speed>
</trkpt>
<trkpt lat="21.519352" lon="105.203514">
<ele>16.198990</ele>
<time>2011-04-29T06:37:05Z</time>
<desc>lat.=21.519352, lon.=105.203514, Alt.=16.198990m. Speed=49.860001m/h.</desc>
<speed>13.850000</speed>
</trkpt>
<trkpt lat="21.518751" lon="105.203247">
<ele>16.157486</ele>
<time>2011-04-29T06:37:10Z</time>
<desc>lat.=21.518751, lon.=105.203247, Alt.=16.157486m. Speed=51.444000m/h.</desc>
<speed>14.290000</speed>
</trkpt>
<trkpt lat="21.518150" lon="105.203003">
<ele>16.411880</ele>
<time>2011-04-29T06:37:15Z</time>
<desc>lat.=21.518150, lon.=105.203003, Alt.=16.411880m. Speed=52.200001m/h.</desc>
<speed>14.500000</speed>
</trkpt>
<trkpt lat="21.517527" lon="105.202972">
<ele>14.483284</ele>
<time>2011-04-29T06:37:20Z</time>
<desc>lat.=21.517527, lon.=105.202972, Alt.=14.483284m. Speed=45.936001m/h.</desc>
<speed>12.760000</speed>
</trkpt>
<trkpt lat="21.517017" lon="105.203194">
<ele>17.495377</ele>
<time>2011-04-29T06:37:25Z</time>
<desc>lat.=21.517017, lon.=105.203194, Alt.=17.495377m. Speed=43.487999m/h.</desc>
<speed>12.080000</speed>
</trkpt>
<trkpt lat="21.516546" lon="105.203568">
<ele>19.000748</ele>
<time>2011-04-29T06:37:30Z</time>
<desc>lat.=21.516546, lon.=105.203568, Alt.=19.000748m. Speed=46.872002m/h.</desc>
<speed>13.020000</speed>
</trkpt>
<trkpt lat="21.516020" lon="105.203949">
<ele>22.846451</ele>
<time>2011-04-29T06:37:35Z</time>
<desc>lat.=21.516020, lon.=105.203949, Alt.=22.846451m. Speed=51.840000m/h.</desc>
<speed>14.400000</speed>
</trkpt>
<trkpt lat="21.515461" lon="105.204330">
<ele>24.890396</ele>
<time>2011-04-29T06:37:40Z</time>
<desc>lat.=21.515461, lon.=105.204330, Alt.=24.890396m. Speed=52.236000m/h.</desc>
<speed>14.510000</speed>
</trkpt>
<trkpt lat="21.514946" lon="105.204735">
<ele>29.693619</ele>
<time>2011-04-29T06:37:45Z</time>
<desc>lat.=21.514946, lon.=105.204735, Alt.=29.693619m. Speed=51.084000m/h.</desc>
<speed>14.190000</speed>
</trkpt>
<trkpt lat="21.514599" lon="105.205299">
<ele>31.439224</ele>
<time>2011-04-29T06:37:50Z</time>
<desc>lat.=21.514599, lon.=105.205299, Alt.=31.439224m. Speed=50.652000m/h.</desc>
<speed>14.070000</speed>
</trkpt>
<trkpt lat="21.514328" lon="105.205887">
<ele>32.852081</ele>
<time>2011-04-29T06:37:55Z</time>
<desc>lat.=21.514328, lon.=105.205887, Alt.=32.852081m. Speed=46.872002m/h.</desc>
<speed>13.020000</speed>
</trkpt>
<trkpt lat="21.514071" lon="105.206467">
<ele>33.502472</ele>
<time>2011-04-29T06:38:00Z</time>
<desc>lat.=21.514071, lon.=105.206467, Alt.=33.502472m. Speed=49.032001m/h.</desc>
<speed>13.620000</speed>
</trkpt>
<trkpt lat="21.513796" lon="105.207069">
<ele>34.007355</ele>
<time>2011-04-29T06:38:05Z</time>
<desc>lat.=21.513796, lon.=105.207069, Alt.=34.007355m. Speed=46.152000m/h.</desc>
<speed>12.820000</speed>
</trkpt>
<trkpt lat="21.513531" lon="105.207657">
<ele>35.398956</ele>
<time>2011-04-29T06:38:10Z</time>
<desc>lat.=21.513531, lon.=105.207657, Alt.=35.398956m. Speed=48.959999m/h.</desc>
<speed>13.600000</speed>
</trkpt>
<trkpt lat="21.513338" lon="105.208260">
<ele>35.700714</ele>
<time>2011-04-29T06:38:15Z</time>
<desc>lat.=21.513338, lon.=105.208260, Alt.=35.700714m. Speed=47.664001m/h.</desc>
<speed>13.240000</speed>
</trkpt>
<trkpt lat="21.513243" lon="105.208900">
<ele>36.579620</ele>
<time>2011-04-29T06:38:20Z</time>
<desc>lat.=21.513243, lon.=105.208900, Alt.=36.579620m. Speed=48.456001m/h.</desc>
<speed>13.460000</speed>
</trkpt>
<trkpt lat="21.513046" lon="105.209473">
<ele>37.532745</ele>
<time>2011-04-29T06:38:25Z</time>
<desc>lat.=21.513046, lon.=105.209473, Alt.=37.532745m. Speed=45.576000m/h.</desc>
<speed>12.660000</speed>
</trkpt>
<trkpt lat="21.512691" lon="105.209984">
<ele>39.179230</ele>
<time>2011-04-29T06:38:30Z</time>
<desc>lat.=21.512691, lon.=105.209984, Alt.=39.179230m. Speed=47.627998m/h.</desc>
<speed>13.230000</speed>
</trkpt>
<trkpt lat="21.512320" lon="105.210480">
<ele>40.162628</ele>
<time>2011-04-29T06:38:35Z</time>
<desc>lat.=21.512320, lon.=105.210480, Alt.=40.162628m. Speed=42.515999m/h.</desc>
<speed>11.810000</speed>
</trkpt>
<trkpt lat="21.512081" lon="105.211006">
<ele>41.375519</ele>
<time>2011-04-29T06:38:40Z</time>
<desc>lat.=21.512081, lon.=105.211006, Alt.=41.375519m. Speed=41.183998m/h.</desc>
<speed>11.439999</speed>
</trkpt>
<trkpt lat="21.511824" lon="105.211494">
<ele>42.842316</ele>
<time>2011-04-29T06:38:45Z</time>
<desc>lat.=21.511824, lon.=105.211494, Alt.=42.842316m. Speed=38.088001m/h.</desc>
<speed>10.580000</speed>
</trkpt>
<trkpt lat="21.511425" lon="105.211815">
<ele>44.472198</ele>
<time>2011-04-29T06:38:50Z</time>
<desc>lat.=21.511425, lon.=105.211815, Alt.=44.472198m. Speed=41.796001m/h.</desc>
<speed>11.610000</speed>
</trkpt>
<trkpt lat="21.510973" lon="105.212120">
<ele>45.916534</ele>
<time>2011-04-29T06:38:55Z</time>
<desc>lat.=21.510973, lon.=105.212120, Alt.=45.916534m. Speed=42.875999m/h.</desc>
<speed>11.910000</speed>
</trkpt>
<trkpt lat="21.510454" lon="105.212357">
<ele>47.629425</ele>
<time>2011-04-29T06:39:00Z</time>
<desc>lat.=21.510454, lon.=105.212357, Alt.=47.629425m. Speed=45.863998m/h.</desc>
<speed>12.740000</speed>
</trkpt>
<trkpt lat="21.509949" lon="105.212585">
<ele>49.756378</ele>
<time>2011-04-29T06:39:05Z</time>
<desc>lat.=21.509949, lon.=105.212585, Alt.=49.756378m. Speed=44.063999m/h.</desc>
<speed>12.240000</speed>
</trkpt>
<trkpt lat="21.509399" lon="105.212830">
<ele>53.158722</ele>
<time>2011-04-29T06:39:10Z</time>
<desc>lat.=21.509399, lon.=105.212830, Alt.=53.158722m. Speed=46.835999m/h.</desc>
<speed>13.010000</speed>
</trkpt>
<trkpt lat="21.508801" lon="105.213158">
<ele>56.147980</ele>
<time>2011-04-29T06:39:15Z</time>
<desc>lat.=21.508801, lon.=105.213158, Alt.=56.147980m. Speed=55.872002m/h.</desc>
<speed>15.520000</speed>
</trkpt>
<trkpt lat="21.508093" lon="105.213448">
<ele>55.468292</ele>
<time>2011-04-29T06:39:20Z</time>
<desc>lat.=21.508093, lon.=105.213448, Alt.=55.468292m. Speed=62.495998m/h.</desc>
<speed>17.360000</speed>
</trkpt>
<trkpt lat="21.507284" lon="105.213478">
<ele>53.496613</ele>
<time>2011-04-29T06:39:25Z</time>
<desc>lat.=21.507284, lon.=105.213478, Alt.=53.496613m. Speed=62.568001m/h.</desc>
<speed>17.380000</speed>
</trkpt>
<trkpt lat="21.506508" lon="105.213547">
<ele>47.567902</ele>
<time>2011-04-29T06:39:30Z</time>
<desc>lat.=21.506508, lon.=105.213547, Alt.=47.567902m. Speed=60.551998m/h.</desc>
<speed>16.819999</speed>
</trkpt>
<trkpt lat="21.505762" lon="105.213692">
<ele>43.475128</ele>
<time>2011-04-29T06:39:35Z</time>
<desc>lat.=21.505762, lon.=105.213692, Alt.=43.475128m. Speed=59.472000m/h.</desc>
<speed>16.520000</speed>
</trkpt>
<trkpt lat="21.505043" lon="105.213646">
<ele>41.392120</ele>
<time>2011-04-29T06:39:40Z</time>
<desc>lat.=21.505043, lon.=105.213646, Alt.=41.392120m. Speed=56.771999m/h.</desc>
<speed>15.770000</speed>
</trkpt>
<trkpt lat="21.504339" lon="105.213684">
<ele>37.914581</ele>
<time>2011-04-29T06:39:45Z</time>
<desc>lat.=21.504339, lon.=105.213684, Alt.=37.914581m. Speed=56.304001m/h.</desc>
<speed>15.640000</speed>
</trkpt>
<trkpt lat="21.503668" lon="105.213982">
<ele>36.200714</ele>
<time>2011-04-29T06:39:50Z</time>
<desc>lat.=21.503668, lon.=105.213982, Alt.=36.200714m. Speed=57.348000m/h.</desc>
<speed>15.930000</speed>
</trkpt>
<trkpt lat="21.503149" lon="105.214508">
<ele>34.396027</ele>
<time>2011-04-29T06:39:55Z</time>
<desc>lat.=21.503149, lon.=105.214508, Alt.=34.396027m. Speed=57.708000m/h.</desc>
<speed>16.030000</speed>
</trkpt>
<trkpt lat="21.502783" lon="105.215157">
<ele>32.702667</ele>
<time>2011-04-29T06:40:00Z</time>
<desc>lat.=21.502783, lon.=105.215157, Alt.=32.702667m. Speed=55.332001m/h.</desc>
<speed>15.370000</speed>
</trkpt>
<trkpt lat="21.502504" lon="105.215706">
<ele>30.983658</ele>
<time>2011-04-29T06:40:05Z</time>
<desc>lat.=21.502504, lon.=105.215706, Alt.=30.983658m. Speed=35.891998m/h.</desc>
<speed>9.970000</speed>
</trkpt>
<trkpt lat="21.502337" lon="105.216095">
<ele>27.737564</ele>
<time>2011-04-29T06:40:10Z</time>
<desc>lat.=21.502337, lon.=105.216095, Alt.=27.737564m. Speed=32.183998m/h.</desc>
<speed>8.939999</speed>
</trkpt>
<trkpt lat="21.502220" lon="105.216545">
<ele>22.581802</ele>
<time>2011-04-29T06:40:15Z</time>
<desc>lat.=21.502220, lon.=105.216545, Alt.=22.581802m. Speed=36.612000m/h.</desc>
<speed>10.170000</speed>
</trkpt>
<trkpt lat="21.502180" lon="105.217125">
<ele>24.299088</ele>
<time>2011-04-29T06:40:20Z</time>
<desc>lat.=21.502180, lon.=105.217125, Alt.=24.299088m. Speed=43.127998m/h.</desc>
<speed>11.980000</speed>
</trkpt>
<trkpt lat="21.502138" lon="105.217712">
<ele>24.353775</ele>
<time>2011-04-29T06:40:25Z</time>
<desc>lat.=21.502138, lon.=105.217712, Alt.=24.353775m. Speed=46.476002m/h.</desc>
<speed>12.910000</speed>
</trkpt>
<trkpt lat="21.501930" lon="105.218330">
<ele>23.679947</ele>
<time>2011-04-29T06:40:30Z</time>
<desc>lat.=21.501930, lon.=105.218330, Alt.=23.679947m. Speed=51.012001m/h.</desc>
<speed>14.170000</speed>
</trkpt>
<trkpt lat="21.501457" lon="105.218819">
<ele>22.911880</ele>
<time>2011-04-29T06:40:35Z</time>
<desc>lat.=21.501457, lon.=105.218819, Alt.=22.911880m. Speed=51.695999m/h.</desc>
<speed>14.360000</speed>
</trkpt>
<trkpt lat="21.500898" lon="105.219223">
<ele>21.810318</ele>
<time>2011-04-29T06:40:40Z</time>
<desc>lat.=21.500898, lon.=105.219223, Alt.=21.810318m. Speed=53.459999m/h.</desc>
<speed>14.850000</speed>
</trkpt>
<trkpt lat="21.500322" lon="105.219521">
<ele>21.881607</ele>
<time>2011-04-29T06:40:45Z</time>
<desc>lat.=21.500322, lon.=105.219521, Alt.=21.881607m. Speed=50.400002m/h.</desc>
<speed>14.000000</speed>
</trkpt>
<trkpt lat="21.499733" lon="105.219795">
<ele>21.683853</ele>
<time>2011-04-29T06:40:50Z</time>
<desc>lat.=21.499733, lon.=105.219795, Alt.=21.683853m. Speed=50.147999m/h.</desc>
<speed>13.930000</speed>
</trkpt>
<trkpt lat="21.499142" lon="105.220108">
<ele>22.380630</ele>
<time>2011-04-29T06:40:55Z</time>
<desc>lat.=21.499142, lon.=105.220108, Alt.=22.380630m. Speed=54.144001m/h.</desc>
<speed>15.040000</speed>
</trkpt>
<trkpt lat="21.498507" lon="105.220482">
<ele>22.759537</ele>
<time>2011-04-29T06:41:00Z</time>
<desc>lat.=21.498507, lon.=105.220482, Alt.=22.759537m. Speed=55.619999m/h.</desc>
<speed>15.450000</speed>
</trkpt>
<trkpt lat="21.497988" lon="105.220932">
<ele>19.539322</ele>
<time>2011-04-29T06:41:05Z</time>
<desc>lat.=21.497988, lon.=105.220932, Alt.=19.539322m. Speed=53.459999m/h.</desc>
<speed>14.850000</speed>
</trkpt>
<trkpt lat="21.497509" lon="105.221420">
<ele>18.368912</ele>
<time>2011-04-29T06:41:10Z</time>
<desc>lat.=21.497509, lon.=105.221420, Alt.=18.368912m. Speed=53.063999m/h.</desc>
<speed>14.740000</speed>
</trkpt>
<trkpt lat="21.497030" lon="105.221901">
<ele>17.458267</ele>
<time>2011-04-29T06:41:15Z</time>
<desc>lat.=21.497030, lon.=105.221901, Alt.=17.458267m. Speed=51.155998m/h.</desc>
<speed>14.210000</speed>
</trkpt>
<trkpt lat="21.496540" lon="105.222290">
<ele>17.459732</ele>
<time>2011-04-29T06:41:20Z</time>
<desc>lat.=21.496540, lon.=105.222290, Alt.=17.459732m. Speed=44.964001m/h.</desc>
<speed>12.490000</speed>
</trkpt>
<trkpt lat="21.496008" lon="105.222359">
<ele>18.839615</ele>
<time>2011-04-29T06:41:25Z</time>
<desc>lat.=21.496008, lon.=105.222359, Alt.=18.839615m. Speed=44.604000m/h.</desc>
<speed>12.390000</speed>
</trkpt>
<trkpt lat="21.495428" lon="105.222351">
<ele>21.149673</ele>
<time>2011-04-29T06:41:30Z</time>
<desc>lat.=21.495428, lon.=105.222351, Alt.=21.149673m. Speed=47.844002m/h.</desc>
<speed>13.290000</speed>
</trkpt>
<trkpt lat="21.494823" lon="105.222397">
<ele>23.311783</ele>
<time>2011-04-29T06:41:35Z</time>
<desc>lat.=21.494823, lon.=105.222397, Alt.=23.311783m. Speed=48.528000m/h.</desc>
<speed>13.480000</speed>
</trkpt>
<trkpt lat="21.494305" lon="105.222694">
<ele>23.422623</ele>
<time>2011-04-29T06:41:40Z</time>
<desc>lat.=21.494305, lon.=105.222694, Alt.=23.422623m. Speed=45.216000m/h.</desc>
<speed>12.560000</speed>
</trkpt>
<trkpt lat="21.493933" lon="105.223206">
<ele>24.846451</ele>
<time>2011-04-29T06:41:45Z</time>
<desc>lat.=21.493933, lon.=105.223206, Alt.=24.846451m. Speed=45.792000m/h.</desc>
<speed>12.720000</speed>
</trkpt>
<trkpt lat="21.493631" lon="105.223709">
<ele>26.402603</ele>
<time>2011-04-29T06:41:50Z</time>
<desc>lat.=21.493631, lon.=105.223709, Alt.=26.402603m. Speed=43.020000m/h.</desc>
<speed>11.950000</speed>
</trkpt>
<trkpt lat="21.493345" lon="105.224174">
<ele>28.233170</ele>
<time>2011-04-29T06:41:55Z</time>
<desc>lat.=21.493345, lon.=105.224174, Alt.=28.233170m. Speed=41.507999m/h.</desc>
<speed>11.530000</speed>
</trkpt>
<trkpt lat="21.493067" lon="105.224609">
<ele>28.160416</ele>
<time>2011-04-29T06:42:00Z</time>
<desc>lat.=21.493067, lon.=105.224609, Alt.=28.160416m. Speed=38.664001m/h.</desc>
<speed>10.740000</speed>
</trkpt>
<trkpt lat="21.492645" lon="105.224937">
<ele>27.345963</ele>
<time>2011-04-29T06:42:05Z</time>
<desc>lat.=21.492645, lon.=105.224937, Alt.=27.345963m. Speed=43.703999m/h.</desc>
<speed>12.140000</speed>
</trkpt>
<trkpt lat="21.492144" lon="105.225182">
<ele>27.559341</ele>
<time>2011-04-29T06:42:10Z</time>
<desc>lat.=21.492144, lon.=105.225182, Alt.=27.559341m. Speed=42.444000m/h.</desc>
<speed>11.790000</speed>
</trkpt>
<trkpt lat="21.491631" lon="105.225380">
<ele>26.817642</ele>
<time>2011-04-29T06:42:15Z</time>
<desc>lat.=21.491631, lon.=105.225380, Alt.=26.817642m. Speed=42.408001m/h.</desc>
<speed>11.780000</speed>
</trkpt>
<trkpt lat="21.491129" lon="105.225624">
<ele>26.901138</ele>
<time>2011-04-29T06:42:20Z</time>
<desc>lat.=21.491129, lon.=105.225624, Alt.=26.901138m. Speed=45.900002m/h.</desc>
<speed>12.750000</speed>
</trkpt>
<trkpt lat="21.490580" lon="105.225761">
<ele>24.689713</ele>
<time>2011-04-29T06:42:25Z</time>
<desc>lat.=21.490580, lon.=105.225761, Alt.=24.689713m. Speed=43.812000m/h.</desc>
<speed>12.170000</speed>
</trkpt>
<trkpt lat="21.490068" lon="105.225685">
<ele>21.928482</ele>
<time>2011-04-29T06:42:30Z</time>
<desc>lat.=21.490068, lon.=105.225685, Alt.=21.928482m. Speed=38.304001m/h.</desc>
<speed>10.640000</speed>
</trkpt>
<trkpt lat="21.489624" lon="105.225586">
<ele>21.740005</ele>
<time>2011-04-29T06:42:35Z</time>
<desc>lat.=21.489624, lon.=105.225586, Alt.=21.740005m. Speed=34.523998m/h.</desc>
<speed>9.590000</speed>
</trkpt>
<trkpt lat="21.489178" lon="105.225624">
<ele>23.817154</ele>
<time>2011-04-29T06:42:40Z</time>
<desc>lat.=21.489178, lon.=105.225624, Alt.=23.817154m. Speed=37.835999m/h.</desc>
<speed>10.510000</speed>
</trkpt>
<trkpt lat="21.488741" lon="105.225861">
<ele>25.429459</ele>
<time>2011-04-29T06:42:45Z</time>
<desc>lat.=21.488741, lon.=105.225861, Alt.=25.429459m. Speed=38.520000m/h.</desc>
<speed>10.700000</speed>
</trkpt>
<trkpt lat="21.488337" lon="105.226181">
<ele>26.461197</ele>
<time>2011-04-29T06:42:50Z</time>
<desc>lat.=21.488337, lon.=105.226181, Alt.=26.461197m. Speed=39.240002m/h.</desc>
<speed>10.900000</speed>
</trkpt>
<trkpt lat="21.487944" lon="105.226479">
<ele>25.766861</ele>
<time>2011-04-29T06:42:55Z</time>
<desc>lat.=21.487944, lon.=105.226479, Alt.=25.766861m. Speed=38.195999m/h.</desc>
<speed>10.610000</speed>
</trkpt>
<trkpt lat="21.487532" lon="105.226784">
<ele>27.195572</ele>
<time>2011-04-29T06:43:00Z</time>
<desc>lat.=21.487532, lon.=105.226784, Alt.=27.195572m. Speed=41.256001m/h.</desc>
<speed>11.460000</speed>
</trkpt>
<trkpt lat="21.487099" lon="105.227089">
<ele>30.901627</ele>
<time>2011-04-29T06:43:05Z</time>
<desc>lat.=21.487099, lon.=105.227089, Alt.=30.901627m. Speed=39.456001m/h.</desc>
<speed>10.960000</speed>
</trkpt>
<trkpt lat="21.486605" lon="105.227219">
<ele>36.705597</ele>
<time>2011-04-29T06:43:10Z</time>
<desc>lat.=21.486605, lon.=105.227219, Alt.=36.705597m. Speed=41.939999m/h.</desc>
<speed>11.650000</speed>
</trkpt>
<trkpt lat="21.486055" lon="105.227119">
<ele>39.973175</ele>
<time>2011-04-29T06:43:15Z</time>
<desc>lat.=21.486055, lon.=105.227119, Alt.=39.973175m. Speed=43.812000m/h.</desc>
<speed>12.170000</speed>
</trkpt>
<trkpt lat="21.485500" lon="105.226990">
<ele>40.064972</ele>
<time>2011-04-29T06:43:20Z</time>
<desc>lat.=21.485500, lon.=105.226990, Alt.=40.064972m. Speed=45.071999m/h.</desc>
<speed>12.520000</speed>
</trkpt>
<trkpt lat="21.484919" lon="105.226913">
<ele>38.498566</ele>
<time>2011-04-29T06:43:25Z</time>
<desc>lat.=21.484919, lon.=105.226913, Alt.=38.498566m. Speed=48.240002m/h.</desc>
<speed>13.400000</speed>
</trkpt>
<trkpt lat="21.484310" lon="105.227036">
<ele>36.140167</ele>
<time>2011-04-29T06:43:30Z</time>
<desc>lat.=21.484310, lon.=105.227036, Alt.=36.140167m. Speed=47.880001m/h.</desc>
<speed>13.300000</speed>
</trkpt>
<trkpt lat="21.483723" lon="105.227219">
<ele>33.926300</ele>
<time>2011-04-29T06:43:35Z</time>
<desc>lat.=21.483723, lon.=105.227219, Alt.=33.926300m. Speed=48.672001m/h.</desc>
<speed>13.520000</speed>
</trkpt>
<trkpt lat="21.483128" lon="105.227432">
<ele>32.819855</ele>
<time>2011-04-29T06:43:40Z</time>
<desc>lat.=21.483128, lon.=105.227432, Alt.=32.819855m. Speed=49.391998m/h.</desc>
<speed>13.720000</speed>
</trkpt>
<trkpt lat="21.482527" lon="105.227646">
<ele>34.205597</ele>
<time>2011-04-29T06:43:45Z</time>
<desc>lat.=21.482527, lon.=105.227646, Alt.=34.205597m. Speed=48.348000m/h.</desc>
<speed>13.430000</speed>
</trkpt>
<trkpt lat="21.481932" lon="105.227844">
<ele>33.720245</ele>
<time>2011-04-29T06:43:50Z</time>
<desc>lat.=21.481932, lon.=105.227844, Alt.=33.720245m. Speed=49.464001m/h.</desc>
<speed>13.740000</speed>
</trkpt>
<trkpt lat="21.481333" lon="105.228020">
<ele>33.955597</ele>
<time>2011-04-29T06:43:55Z</time>
<desc>lat.=21.481333, lon.=105.228020, Alt.=33.955597m. Speed=48.888000m/h.</desc>
<speed>13.580000</speed>
</trkpt>
<trkpt lat="21.480749" lon="105.228256">
<ele>33.432159</ele>
<time>2011-04-29T06:44:00Z</time>
<desc>lat.=21.480749, lon.=105.228256, Alt.=33.432159m. Speed=49.787998m/h.</desc>
<speed>13.829999</speed>
</trkpt>
<trkpt lat="21.480234" lon="105.228653">
<ele>33.187042</ele>
<time>2011-04-29T06:44:05Z</time>
<desc>lat.=21.480234, lon.=105.228653, Alt.=33.187042m. Speed=49.967999m/h.</desc>
<speed>13.880000</speed>
</trkpt>
<trkpt lat="21.479839" lon="105.229179">
<ele>33.555206</ele>
<time>2011-04-29T06:44:10Z</time>
<desc>lat.=21.479839, lon.=105.229179, Alt.=33.555206m. Speed=50.652000m/h.</desc>
<speed>14.070000</speed>
</trkpt>
<trkpt lat="21.479446" lon="105.229691">
<ele>33.358917</ele>
<time>2011-04-29T06:44:15Z</time>
<desc>lat.=21.479446, lon.=105.229691, Alt.=33.358917m. Speed=49.571999m/h.</desc>
<speed>13.770000</speed>
</trkpt>
<trkpt lat="21.479021" lon="105.230179">
<ele>32.836456</ele>
<time>2011-04-29T06:44:20Z</time>
<desc>lat.=21.479021, lon.=105.230179, Alt.=32.836456m. Speed=49.284000m/h.</desc>
<speed>13.690000</speed>
</trkpt>
<trkpt lat="21.478521" lon="105.230560">
<ele>27.756119</ele>
<time>2011-04-29T06:44:25Z</time>
<desc>lat.=21.478521, lon.=105.230560, Alt.=27.756119m. Speed=49.860001m/h.</desc>
<speed>13.850000</speed>
</trkpt>
<trkpt lat="21.477940" lon="105.230751">
<ele>26.885025</ele>
<time>2011-04-29T06:44:30Z</time>
<desc>lat.=21.477940, lon.=105.230751, Alt.=26.885025m. Speed=48.672001m/h.</desc>
<speed>13.520000</speed>
</trkpt>
<trkpt lat="21.477398" lon="105.230927">
<ele>25.300064</ele>
<time>2011-04-29T06:44:35Z</time>
<desc>lat.=21.477398, lon.=105.230927, Alt.=25.300064m. Speed=40.860001m/h.</desc>
<speed>11.350000</speed>
</trkpt>
<trkpt lat="21.476885" lon="105.231087">
<ele>26.111588</ele>
<time>2011-04-29T06:44:40Z</time>
<desc>lat.=21.476885, lon.=105.231087, Alt.=26.111588m. Speed=43.091999m/h.</desc>
<speed>11.970000</speed>
</trkpt>
<trkpt lat="21.476336" lon="105.231232">
<ele>24.779556</ele>
<time>2011-04-29T06:44:45Z</time>
<desc>lat.=21.476336, lon.=105.231232, Alt.=24.779556m. Speed=46.799999m/h.</desc>
<speed>13.000000</speed>
</trkpt>
<trkpt lat="21.475712" lon="105.231277">
<ele>25.494888</ele>
<time>2011-04-29T06:44:50Z</time>
<desc>lat.=21.475712, lon.=105.231277, Alt.=25.494888m. Speed=51.155998m/h.</desc>
<speed>14.210000</speed>
</trkpt>
<trkpt lat="21.475061" lon="105.231285">
<ele>23.836685</ele>
<time>2011-04-29T06:44:55Z</time>
<desc>lat.=21.475061, lon.=105.231285, Alt.=23.836685m. Speed=52.992001m/h.</desc>
<speed>14.720000</speed>
</trkpt>
<trkpt lat="21.474390" lon="105.231277">
<ele>23.261490</ele>
<time>2011-04-29T06:45:00Z</time>
<desc>lat.=21.474390, lon.=105.231277, Alt.=23.261490m. Speed=53.172001m/h.</desc>
<speed>14.770000</speed>
</trkpt>
<trkpt lat="21.473715" lon="105.231308">
<ele>24.229752</ele>
<time>2011-04-29T06:45:05Z</time>
<desc>lat.=21.473715, lon.=105.231308, Alt.=24.229752m. Speed=54.144001m/h.</desc>
<speed>15.040000</speed>
</trkpt>
<trkpt lat="21.473030" lon="105.231369">
<ele>25.798111</ele>
<time>2011-04-29T06:45:10Z</time>
<desc>lat.=21.473030, lon.=105.231369, Alt.=25.798111m. Speed=51.948002m/h.</desc>
<speed>14.430001</speed>
</trkpt>
<trkpt lat="21.472408" lon="105.231483">
<ele>27.300064</ele>
<time>2011-04-29T06:45:15Z</time>
<desc>lat.=21.472408, lon.=105.231483, Alt.=27.300064m. Speed=46.403999m/h.</desc>
<speed>12.890000</speed>
</trkpt>
<trkpt lat="21.471916" lon="105.231812">
<ele>29.314713</ele>
<time>2011-04-29T06:45:20Z</time>
<desc>lat.=21.471916, lon.=105.231812, Alt.=29.314713m. Speed=42.804001m/h.</desc>
<speed>11.890000</speed>
</trkpt>
<trkpt lat="21.471621" lon="105.232300">
<ele>30.710220</ele>
<time>2011-04-29T06:45:25Z</time>
<desc>lat.=21.471621, lon.=105.232300, Alt.=30.710220m. Speed=44.855999m/h.</desc>
<speed>12.460000</speed>
</trkpt>
<trkpt lat="21.471554" lon="105.232964">
<ele>30.434830</ele>
<time>2011-04-29T06:45:30Z</time>
<desc>lat.=21.471554, lon.=105.232964, Alt.=30.434830m. Speed=50.147999m/h.</desc>
<speed>13.930000</speed>
</trkpt>
<trkpt lat="21.471533" lon="105.233658">
<ele>28.443619</ele>
<time>2011-04-29T06:45:35Z</time>
<desc>lat.=21.471533, lon.=105.233658, Alt.=28.443619m. Speed=50.796001m/h.</desc>
<speed>14.110000</speed>
</trkpt>
<trkpt lat="21.471411" lon="105.234314">
<ele>28.245865</ele>
<time>2011-04-29T06:45:40Z</time>
<desc>lat.=21.471411, lon.=105.234314, Alt.=28.245865m. Speed=51.299999m/h.</desc>
<speed>14.250000</speed>
</trkpt>
<trkpt lat="21.471121" lon="105.234833">
<ele>27.967545</ele>
<time>2011-04-29T06:45:45Z</time>
<desc>lat.=21.471121, lon.=105.234833, Alt.=27.967545m. Speed=41.076000m/h.</desc>
<speed>11.410000</speed>
</trkpt>
<trkpt lat="21.470779" lon="105.235222">
<ele>29.961685</ele>
<time>2011-04-29T06:45:50Z</time>
<desc>lat.=21.470779, lon.=105.235222, Alt.=29.961685m. Speed=38.807999m/h.</desc>
<speed>10.780000</speed>
</trkpt>
<trkpt lat="21.470398" lon="105.235603">
<ele>28.555435</ele>
<time>2011-04-29T06:45:55Z</time>
<desc>lat.=21.470398, lon.=105.235603, Alt.=28.555435m. Speed=42.911999m/h.</desc>
<speed>11.920000</speed>
</trkpt>
<trkpt lat="21.469994" lon="105.236023">
<ele>29.458267</ele>
<time>2011-04-29T06:46:00Z</time>
<desc>lat.=21.469994, lon.=105.236023, Alt.=29.458267m. Speed=45.396000m/h.</desc>
<speed>12.610000</speed>
</trkpt>
<trkpt lat="21.469601" lon="105.236458">
<ele>27.669205</ele>
<time>2011-04-29T06:46:05Z</time>
<desc>lat.=21.469601, lon.=105.236458, Alt.=27.669205m. Speed=44.208000m/h.</desc>
<speed>12.280000</speed>
</trkpt>
<trkpt lat="21.469185" lon="105.236893">
<ele>26.339615</ele>
<time>2011-04-29T06:46:10Z</time>
<desc>lat.=21.469185, lon.=105.236893, Alt.=26.339615m. Speed=48.312000m/h.</desc>
<speed>13.420000</speed>
</trkpt>
<trkpt lat="21.468782" lon="105.237312">
<ele>24.221939</ele>
<time>2011-04-29T06:46:15Z</time>
<desc>lat.=21.468782, lon.=105.237312, Alt.=24.221939m. Speed=32.183998m/h.</desc>
<speed>8.939999</speed>
</trkpt>
<trkpt lat="21.468611" lon="105.237503">
<ele>22.906021</ele>
<time>2011-04-29T06:46:20Z</time>
<desc>lat.=21.468611, lon.=105.237503, Alt.=22.906021m. Speed=11.916000m/h.</desc>
<speed>3.310000</speed>
</trkpt>
<trkpt lat="21.468571" lon="105.237534">
<ele>23.688736</ele>
<time>2011-04-29T06:46:25Z</time>
<desc>lat.=21.468571, lon.=105.237534, Alt.=23.688736m. Speed=1.980000m/h.</desc>
<speed>0.550000</speed>
</trkpt>
<trkpt lat="21.468554" lon="105.237549">
<ele>23.697525</ele>
<time>2011-04-29T06:46:30Z</time>
<desc>lat.=21.468554, lon.=105.237549, Alt.=23.697525m. Speed=1.692000m/h.</desc>
<speed>0.470000</speed>
</trkpt>
<trkpt lat="21.468531" lon="105.237572">
<ele>23.426529</ele>
<time>2011-04-29T06:46:35Z</time>
<desc>lat.=21.468531, lon.=105.237572, Alt.=23.426529m. Speed=5.688000m/h.</desc>
<speed>1.580000</speed>
</trkpt>
<trkpt lat="21.468391" lon="105.237717">
<ele>25.072037</ele>
<time>2011-04-29T06:46:40Z</time>
<desc>lat.=21.468391, lon.=105.237717, Alt.=25.072037m. Speed=20.952000m/h.</desc>
<speed>5.820000</speed>
</trkpt>
<trkpt lat="21.468134" lon="105.237984">
<ele>27.245865</ele>
<time>2011-04-29T06:46:45Z</time>
<desc>lat.=21.468134, lon.=105.237984, Alt.=27.245865m. Speed=32.292000m/h.</desc>
<speed>8.970000</speed>
</trkpt>
<trkpt lat="21.467825" lon="105.238312">
<ele>29.543228</ele>
<time>2011-04-29T06:46:50Z</time>
<desc>lat.=21.467825, lon.=105.238312, Alt.=29.543228m. Speed=38.627998m/h.</desc>
<speed>10.730000</speed>
</trkpt>
<trkpt lat="21.467451" lon="105.238739">
<ele>29.771255</ele>
<time>2011-04-29T06:46:55Z</time>
<desc>lat.=21.467451, lon.=105.238739, Alt.=29.771255m. Speed=42.768002m/h.</desc>
<speed>11.880000</speed>
</trkpt>
<trkpt lat="21.467096" lon="105.239182">
<ele>29.929459</ele>
<time>2011-04-29T06:47:00Z</time>
<desc>lat.=21.467096, lon.=105.239182, Alt.=29.929459m. Speed=42.875999m/h.</desc>
<speed>11.910000</speed>
</trkpt>
<trkpt lat="21.466764" lon="105.239647">
<ele>28.978775</ele>
<time>2011-04-29T06:47:05Z</time>
<desc>lat.=21.466764, lon.=105.239647, Alt.=28.978775m. Speed=43.848000m/h.</desc>
<speed>12.180000</speed>
</trkpt>
<trkpt lat="21.466312" lon="105.240051">
<ele>28.068130</ele>
<time>2011-04-29T06:47:10Z</time>
<desc>lat.=21.466312, lon.=105.240051, Alt.=28.068130m. Speed=46.655998m/h.</desc>
<speed>12.960000</speed>
</trkpt>
<trkpt lat="21.465689" lon="105.240166">
<ele>27.281509</ele>
<time>2011-04-29T06:47:15Z</time>
<desc>lat.=21.465689, lon.=105.240166, Alt.=27.281509m. Speed=55.980000m/h.</desc>
<speed>15.550000</speed>
</trkpt>
<trkpt lat="21.464966" lon="105.240150">
<ele>26.887466</ele>
<time>2011-04-29T06:47:20Z</time>
<desc>lat.=21.464966, lon.=105.240150, Alt.=26.887466m. Speed=59.292000m/h.</desc>
<speed>16.470000</speed>
</trkpt>
<trkpt lat="21.464182" lon="105.240150">
<ele>26.088638</ele>
<time>2011-04-29T06:47:25Z</time>
<desc>lat.=21.464182, lon.=105.240150, Alt.=26.088638m. Speed=62.099998m/h.</desc>
<speed>17.250000</speed>
</trkpt>
<trkpt lat="21.463408" lon="105.240158">
<ele>25.066177</ele>
<time>2011-04-29T06:47:30Z</time>
<desc>lat.=21.463408, lon.=105.240158, Alt.=25.066177m. Speed=60.119999m/h.</desc>
<speed>16.700000</speed>
</trkpt>
<trkpt lat="21.462666" lon="105.240181">
<ele>24.658463</ele>
<time>2011-04-29T06:47:35Z</time>
<desc>lat.=21.462666, lon.=105.240181, Alt.=24.658463m. Speed=59.147999m/h.</desc>
<speed>16.430000</speed>
</trkpt>
<trkpt lat="21.461931" lon="105.240356">
<ele>23.758560</ele>
<time>2011-04-29T06:47:40Z</time>
<desc>lat.=21.461931, lon.=105.240356, Alt.=23.758560m. Speed=61.127998m/h.</desc>
<speed>16.980000</speed>
</trkpt>
<trkpt lat="21.461212" lon="105.240593">
<ele>23.271744</ele>
<time>2011-04-29T06:47:45Z</time>
<desc>lat.=21.461212, lon.=105.240593, Alt.=23.271744m. Speed=58.464001m/h.</desc>
<speed>16.240000</speed>
</trkpt>
<trkpt lat="21.460562" lon="105.240776">
<ele>22.715103</ele>
<time>2011-04-29T06:47:50Z</time>
<desc>lat.=21.460562, lon.=105.240776, Alt.=22.715103m. Speed=49.355999m/h.</desc>
<speed>13.710000</speed>
</trkpt>
<trkpt lat="21.459938" lon="105.240921">
<ele>22.365005</ele>
<time>2011-04-29T06:47:55Z</time>
<desc>lat.=21.459938, lon.=105.240921, Alt.=22.365005m. Speed=53.243999m/h.</desc>
<speed>14.790000</speed>
</trkpt>
<trkpt lat="21.459282" lon="105.241074">
<ele>20.470474</ele>
<time>2011-04-29T06:48:00Z</time>
<desc>lat.=21.459282, lon.=105.241074, Alt.=20.470474m. Speed=53.136002m/h.</desc>
<speed>14.760000</speed>
</trkpt>
<trkpt lat="21.458647" lon="105.241241">
<ele>19.360123</ele>
<time>2011-04-29T06:48:05Z</time>
<desc>lat.=21.458647, lon.=105.241241, Alt.=19.360123m. Speed=51.228001m/h.</desc>
<speed>14.230000</speed>
</trkpt>
<trkpt lat="21.458067" lon="105.241371">
<ele>17.848404</ele>
<time>2011-04-29T06:48:10Z</time>
<desc>lat.=21.458067, lon.=105.241371, Alt.=17.848404m. Speed=50.040001m/h.</desc>
<speed>13.900000</speed>
</trkpt>
<trkpt lat="21.457438" lon="105.241516">
<ele>17.006119</ele>
<time>2011-04-29T06:48:15Z</time>
<desc>lat.=21.457438, lon.=105.241516, Alt.=17.006119m. Speed=52.848000m/h.</desc>
<speed>14.680000</speed>
</trkpt>
<trkpt lat="21.456783" lon="105.241646">
<ele>16.536392</ele>
<time>2011-04-29T06:48:20Z</time>
<desc>lat.=21.456783, lon.=105.241646, Alt.=16.536392m. Speed=54.792000m/h.</desc>
<speed>15.220000</speed>
</trkpt>
<trkpt lat="21.456156" lon="105.241814">
<ele>20.308853</ele>
<time>2011-04-29T06:48:25Z</time>
<desc>lat.=21.456156, lon.=105.241814, Alt.=20.308853m. Speed=48.672001m/h.</desc>
<speed>13.520000</speed>
</trkpt>
<trkpt lat="21.455690" lon="105.242149">
<ele>20.056900</ele>
<time>2011-04-29T06:48:30Z</time>
<desc>lat.=21.455690, lon.=105.242149, Alt.=20.056900m. Speed=39.276001m/h.</desc>
<speed>10.910000</speed>
</trkpt>
<trkpt lat="21.455421" lon="105.242538">
<ele>16.504654</ele>
<time>2011-04-29T06:48:35Z</time>
<desc>lat.=21.455421, lon.=105.242538, Alt.=16.504654m. Speed=37.007999m/h.</desc>
<speed>10.280000</speed>
</trkpt>
<trkpt lat="21.455118" lon="105.242828">
<ele>13.834602</ele>
<time>2011-04-29T06:48:40Z</time>
<desc>lat.=21.455118, lon.=105.242828, Alt.=13.834602m. Speed=31.427999m/h.</desc>
<speed>8.730000</speed>
</trkpt>
<trkpt lat="21.454739" lon="105.243126">
<ele>13.138802</ele>
<time>2011-04-29T06:48:45Z</time>
<desc>lat.=21.454739, lon.=105.243126, Alt.=13.138802m. Speed=41.363998m/h.</desc>
<speed>11.490000</speed>
</trkpt>
<trkpt lat="21.454277" lon="105.243462">
<ele>10.638313</ele>
<time>2011-04-29T06:48:50Z</time>
<desc>lat.=21.454277, lon.=105.243462, Alt.=10.638313m. Speed=42.948002m/h.</desc>
<speed>11.930001</speed>
</trkpt>
<trkpt lat="21.453869" lon="105.243774">
<ele>9.770393</ele>
<time>2011-04-29T06:48:55Z</time>
<desc>lat.=21.453869, lon.=105.243774, Alt.=9.770393m. Speed=39.419998m/h.</desc>
<speed>10.949999</speed>
</trkpt>
<trkpt lat="21.453468" lon="105.244102">
<ele>11.503304</ele>
<time>2011-04-29T06:49:00Z</time>
<desc>lat.=21.453468, lon.=105.244102, Alt.=11.503304m. Speed=40.032001m/h.</desc>
<speed>11.120000</speed>
</trkpt>
<trkpt lat="21.453014" lon="105.244423">
<ele>10.519417</ele>
<time>2011-04-29T06:49:05Z</time>
<desc>lat.=21.453014, lon.=105.244423, Alt.=10.519417m. Speed=41.472000m/h.</desc>
<speed>11.520000</speed>
</trkpt>
<trkpt lat="21.452517" lon="105.244698">
<ele>14.023323</ele>
<time>2011-04-29T06:49:10Z</time>
<desc>lat.=21.452517, lon.=105.244698, Alt.=14.023323m. Speed=44.388000m/h.</desc>
<speed>12.330000</speed>
</trkpt>
<trkpt lat="21.451996" lon="105.244965">
<ele>14.132942</ele>
<time>2011-04-29T06:49:15Z</time>
<desc>lat.=21.451996, lon.=105.244965, Alt.=14.132942m. Speed=46.835999m/h.</desc>
<speed>13.010000</speed>
</trkpt>
<trkpt lat="21.451447" lon="105.245148">
<ele>16.988052</ele>
<time>2011-04-29T06:49:20Z</time>
<desc>lat.=21.451447, lon.=105.245148, Alt.=16.988052m. Speed=47.124001m/h.</desc>
<speed>13.090000</speed>
</trkpt>
<trkpt lat="21.450855" lon="105.245346">
<ele>16.376236</ele>
<time>2011-04-29T06:49:25Z</time>
<desc>lat.=21.450855, lon.=105.245346, Alt.=16.376236m. Speed=51.372002m/h.</desc>
<speed>14.270000</speed>
</trkpt>
<trkpt lat="21.450285" lon="105.245590">
<ele>17.309830</ele>
<time>2011-04-29T06:49:30Z</time>
<desc>lat.=21.450285, lon.=105.245590, Alt.=17.309830m. Speed=45.576000m/h.</desc>
<speed>12.660000</speed>
</trkpt>
<trkpt lat="21.449831" lon="105.245850">
<ele>18.099869</ele>
<time>2011-04-29T06:49:35Z</time>
<desc>lat.=21.449831, lon.=105.245850, Alt.=18.099869m. Speed=32.220001m/h.</desc>
<speed>8.950000</speed>
</trkpt>
<trkpt lat="21.449635" lon="105.245972">
<ele>19.949966</ele>
<time>2011-04-29T06:49:40Z</time>
<desc>lat.=21.449635, lon.=105.245972, Alt.=19.949966m. Speed=4.572000m/h.</desc>
<speed>1.270000</speed>
</trkpt>
<trkpt lat="21.449619" lon="105.245949">
<ele>21.026138</ele>
<time>2011-04-29T06:49:45Z</time>
<desc>lat.=21.449619, lon.=105.245949, Alt.=21.026138m. Speed=0.864000m/h.</desc>
<speed>0.240000</speed>
</trkpt>
<trkpt lat="21.449574" lon="105.245972">
<ele>21.908463</ele>
<time>2011-04-29T06:49:50Z</time>
<desc>lat.=21.449574, lon.=105.245972, Alt.=21.908463m. Speed=13.104000m/h.</desc>
<speed>3.640000</speed>
</trkpt>
<trkpt lat="21.449360" lon="105.246109">
<ele>23.087662</ele>
<time>2011-04-29T06:49:55Z</time>
<desc>lat.=21.449360, lon.=105.246109, Alt.=23.087662m. Speed=20.664000m/h.</desc>
<speed>5.740000</speed>
</trkpt>
<trkpt lat="21.449049" lon="105.246254">
<ele>24.751236</ele>
<time>2011-04-29T06:50:00Z</time>
<desc>lat.=21.449049, lon.=105.246254, Alt.=24.751236m. Speed=30.888000m/h.</desc>
<speed>8.580000</speed>
</trkpt>
<trkpt lat="21.448652" lon="105.246391">
<ele>25.844498</ele>
<time>2011-04-29T06:50:05Z</time>
<desc>lat.=21.448652, lon.=105.246391, Alt.=25.844498m. Speed=34.596001m/h.</desc>
<speed>9.610000</speed>
</trkpt>
<trkpt lat="21.448177" lon="105.246521">
<ele>24.642349</ele>
<time>2011-04-29T06:50:10Z</time>
<desc>lat.=21.448177, lon.=105.246521, Alt.=24.642349m. Speed=38.987999m/h.</desc>
<speed>10.830000</speed>
</trkpt>
<trkpt lat="21.447687" lon="105.246765">
<ele>22.393814</ele>
<time>2011-04-29T06:50:15Z</time>
<desc>lat.=21.447687, lon.=105.246765, Alt.=22.393814m. Speed=45.504002m/h.</desc>
<speed>12.640000</speed>
</trkpt>
<trkpt lat="21.447210" lon="105.247208">
<ele>18.658951</ele>
<time>2011-04-29T06:50:20Z</time>
<desc>lat.=21.447210, lon.=105.247208, Alt.=18.658951m. Speed=52.452000m/h.</desc>
<speed>14.570000</speed>
</trkpt>
<trkpt lat="21.446711" lon="105.247704">
<ele>18.452896</ele>
<time>2011-04-29T06:50:25Z</time>
<desc>lat.=21.446711, lon.=105.247704, Alt.=18.452896m. Speed=52.487999m/h.</desc>
<speed>14.580000</speed>
</trkpt>
<trkpt lat="21.446280" lon="105.248192">
<ele>19.281021</ele>
<time>2011-04-29T06:50:30Z</time>
<desc>lat.=21.446280, lon.=105.248192, Alt.=19.281021m. Speed=47.231998m/h.</desc>
<speed>13.120000</speed>
</trkpt>
<trkpt lat="21.445963" lon="105.248734">
<ele>21.455338</ele>
<time>2011-04-29T06:50:35Z</time>
<desc>lat.=21.445963, lon.=105.248734, Alt.=21.455338m. Speed=49.896000m/h.</desc>
<speed>13.860000</speed>
</trkpt>
<trkpt lat="21.445642" lon="105.249336">
<ele>20.110123</ele>
<time>2011-04-29T06:50:40Z</time>
<desc>lat.=21.445642, lon.=105.249336, Alt.=20.110123m. Speed=52.452000m/h.</desc>
<speed>14.570000</speed>
</trkpt>
<trkpt lat="21.445305" lon="105.249939">
<ele>20.094986</ele>
<time>2011-04-29T06:50:45Z</time>
<desc>lat.=21.445305, lon.=105.249939, Alt.=20.094986m. Speed=52.416000m/h.</desc>
<speed>14.560000</speed>
</trkpt>
<trkpt lat="21.444948" lon="105.250549">
<ele>21.056412</ele>
<time>2011-04-29T06:50:50Z</time>
<desc>lat.=21.444948, lon.=105.250549, Alt.=21.056412m. Speed=48.995998m/h.</desc>
<speed>13.610000</speed>
</trkpt>
<trkpt lat="21.444563" lon="105.251083">
<ele>21.715591</ele>
<time>2011-04-29T06:50:55Z</time>
<desc>lat.=21.444563, lon.=105.251083, Alt.=21.715591m. Speed=51.515999m/h.</desc>
<speed>14.310000</speed>
</trkpt>
<trkpt lat="21.444096" lon="105.251617">
<ele>20.728775</ele>
<time>2011-04-29T06:51:00Z</time>
<desc>lat.=21.444096, lon.=105.251617, Alt.=20.728775m. Speed=54.180000m/h.</desc>
<speed>15.050000</speed>
</trkpt>
<trkpt lat="21.443644" lon="105.252129">
<ele>19.270767</ele>
<time>2011-04-29T06:51:05Z</time>
<desc>lat.=21.443644, lon.=105.252129, Alt.=19.270767m. Speed=51.372002m/h.</desc>
<speed>14.270000</speed>
</trkpt>
<trkpt lat="21.443165" lon="105.252563">
<ele>18.115494</ele>
<time>2011-04-29T06:51:10Z</time>
<desc>lat.=21.443165, lon.=105.252563, Alt.=18.115494m. Speed=51.695999m/h.</desc>
<speed>14.360000</speed>
</trkpt>
<trkpt lat="21.442566" lon="105.252914">
<ele>16.474380</ele>
<time>2011-04-29T06:51:15Z</time>
<desc>lat.=21.442566, lon.=105.252914, Alt.=16.474380m. Speed=56.448002m/h.</desc>
<speed>15.680001</speed>
</trkpt>
<trkpt lat="21.441990" lon="105.253265">
<ele>18.078873</ele>
<time>2011-04-29T06:51:20Z</time>
<desc>lat.=21.441990, lon.=105.253265, Alt.=18.078873m. Speed=48.779999m/h.</desc>
<speed>13.550000</speed>
</trkpt>
<trkpt lat="21.441517" lon="105.253654">
<ele>20.550064</ele>
<time>2011-04-29T06:51:25Z</time>
<desc>lat.=21.441517, lon.=105.253654, Alt.=20.550064m. Speed=45.251999m/h.</desc>
<speed>12.570000</speed>
</trkpt>
<trkpt lat="21.441048" lon="105.254074">
<ele>22.533463</ele>
<time>2011-04-29T06:51:30Z</time>
<desc>lat.=21.441048, lon.=105.254074, Alt.=22.533463m. Speed=49.068001m/h.</desc>
<speed>13.630000</speed>
</trkpt>
<trkpt lat="21.440556" lon="105.254448">
<ele>24.240494</ele>
<time>2011-04-29T06:51:35Z</time>
<desc>lat.=21.440556, lon.=105.254448, Alt.=24.240494m. Speed=50.004002m/h.</desc>
<speed>13.890000</speed>
</trkpt>
<trkpt lat="21.440004" lon="105.254753">
<ele>24.866959</ele>
<time>2011-04-29T06:51:40Z</time>
<desc>lat.=21.440004, lon.=105.254753, Alt.=24.866959m. Speed=48.203999m/h.</desc>
<speed>13.390000</speed>
</trkpt>
<trkpt lat="21.439419" lon="105.254974">
<ele>26.865005</ele>
<time>2011-04-29T06:51:45Z</time>
<desc>lat.=21.439419, lon.=105.254974, Alt.=26.865005m. Speed=49.824001m/h.</desc>
<speed>13.840000</speed>
</trkpt>
<trkpt lat="21.438837" lon="105.255180">
<ele>28.720474</ele>
<time>2011-04-29T06:51:50Z</time>
<desc>lat.=21.438837, lon.=105.255180, Alt.=28.720474m. Speed=47.411999m/h.</desc>
<speed>13.170000</speed>
</trkpt>
<trkpt lat="21.438313" lon="105.255386">
<ele>30.111099</ele>
<time>2011-04-29T06:51:55Z</time>
<desc>lat.=21.438313, lon.=105.255386, Alt.=30.111099m. Speed=42.335999m/h.</desc>
<speed>11.760000</speed>
</trkpt>
<trkpt lat="21.437820" lon="105.255531">
<ele>30.082291</ele>
<time>2011-04-29T06:52:00Z</time>
<desc>lat.=21.437820, lon.=105.255531, Alt.=30.082291m. Speed=39.240002m/h.</desc>
<speed>10.900000</speed>
</trkpt>
<trkpt lat="21.437353" lon="105.255684">
<ele>32.161652</ele>
<time>2011-04-29T06:52:05Z</time>
<desc>lat.=21.437353, lon.=105.255684, Alt.=32.161652m. Speed=39.456001m/h.</desc>
<speed>10.960000</speed>
</trkpt>
<trkpt lat="21.436853" lon="105.255859">
<ele>34.472198</ele>
<time>2011-04-29T06:52:10Z</time>
<desc>lat.=21.436853, lon.=105.255859, Alt.=34.472198m. Speed=41.507999m/h.</desc>
<speed>11.530000</speed>
</trkpt>
<trkpt lat="21.436346" lon="105.256073">
<ele>32.374542</ele>
<time>2011-04-29T06:52:15Z</time>
<desc>lat.=21.436346, lon.=105.256073, Alt.=32.374542m. Speed=43.919998m/h.</desc>
<speed>12.199999</speed>
</trkpt>
<trkpt lat="21.435892" lon="105.256378">
<ele>32.247589</ele>
<time>2011-04-29T06:52:20Z</time>
<desc>lat.=21.435892, lon.=105.256378, Alt.=32.247589m. Speed=37.152000m/h.</desc>
<speed>10.320000</speed>
</trkpt>
<trkpt lat="21.435539" lon="105.256691">
<ele>30.903580</ele>
<time>2011-04-29T06:52:25Z</time>
<desc>lat.=21.435539, lon.=105.256691, Alt.=30.903580m. Speed=33.084000m/h.</desc>
<speed>9.190000</speed>
</trkpt>
<trkpt lat="21.435219" lon="105.256958">
<ele>31.923599</ele>
<time>2011-04-29T06:52:30Z</time>
<desc>lat.=21.435219, lon.=105.256958, Alt.=31.923599m. Speed=30.708000m/h.</desc>
<speed>8.530000</speed>
</trkpt>
<trkpt lat="21.434904" lon="105.257179">
<ele>31.174088</ele>
<time>2011-04-29T06:52:35Z</time>
<desc>lat.=21.434904, lon.=105.257179, Alt.=31.174088m. Speed=29.591999m/h.</desc>
<speed>8.220000</speed>
</trkpt>
<trkpt lat="21.434576" lon="105.257423">
<ele>28.821548</ele>
<time>2011-04-29T06:52:40Z</time>
<desc>lat.=21.434576, lon.=105.257423, Alt.=28.821548m. Speed=34.271999m/h.</desc>
<speed>9.520000</speed>
</trkpt>
<trkpt lat="21.434227" lon="105.257698">
<ele>25.434341</ele>
<time>2011-04-29T06:52:45Z</time>
<desc>lat.=21.434227, lon.=105.257698, Alt.=25.434341m. Speed=31.500000m/h.</desc>
<speed>8.750000</speed>
</trkpt>
<trkpt lat="21.433949" lon="105.258064">
<ele>20.808853</ele>
<time>2011-04-29T06:52:50Z</time>
<desc>lat.=21.433949, lon.=105.258064, Alt.=20.808853m. Speed=37.080002m/h.</desc>
<speed>10.300001</speed>
</trkpt>
<trkpt lat="21.433826" lon="105.258568">
<ele>18.046646</ele>
<time>2011-04-29T06:52:55Z</time>
<desc>lat.=21.433826, lon.=105.258568, Alt.=18.046646m. Speed=40.355999m/h.</desc>
<speed>11.210000</speed>
</trkpt>
<trkpt lat="21.433905" lon="105.259094">
<ele>17.656509</ele>
<time>2011-04-29T06:53:00Z</time>
<desc>lat.=21.433905, lon.=105.259094, Alt.=17.656509m. Speed=38.952000m/h.</desc>
<speed>10.820000</speed>
</trkpt>
<trkpt lat="21.434010" lon="105.259567">
<ele>19.365005</ele>
<time>2011-04-29T06:53:05Z</time>
<desc>lat.=21.434010, lon.=105.259567, Alt.=19.365005m. Speed=31.068001m/h.</desc>
<speed>8.630000</speed>
</trkpt>
<trkpt lat="21.434034" lon="105.259895">
<ele>23.993912</ele>
<time>2011-04-29T06:53:10Z</time>
<desc>lat.=21.434034, lon.=105.259895, Alt.=23.993912m. Speed=22.104000m/h.</desc>
<speed>6.140000</speed>
</trkpt>
<trkpt lat="21.433975" lon="105.260231">
<ele>24.493423</ele>
<time>2011-04-29T06:53:15Z</time>
<desc>lat.=21.433975, lon.=105.260231, Alt.=24.493423m. Speed=30.996000m/h.</desc>
<speed>8.610000</speed>
</trkpt>
<trkpt lat="21.433809" lon="105.260674">
<ele>25.651627</ele>
<time>2011-04-29T06:53:20Z</time>
<desc>lat.=21.433809, lon.=105.260674, Alt.=25.651627m. Speed=38.195999m/h.</desc>
<speed>10.610000</speed>
</trkpt>
<trkpt lat="21.433611" lon="105.261185">
<ele>25.435318</ele>
<time>2011-04-29T06:53:25Z</time>
<desc>lat.=21.433611, lon.=105.261185, Alt.=25.435318m. Speed=41.400002m/h.</desc>
<speed>11.500000</speed>
</trkpt>
<trkpt lat="21.433407" lon="105.261658">
<ele>28.232193</ele>
<time>2011-04-29T06:53:30Z</time>
<desc>lat.=21.433407, lon.=105.261658, Alt.=28.232193m. Speed=30.563999m/h.</desc>
<speed>8.490000</speed>
</trkpt>
<trkpt lat="21.433258" lon="105.261986">
<ele>29.576920</ele>
<time>2011-04-29T06:53:35Z</time>
<desc>lat.=21.433258, lon.=105.261986, Alt.=29.576920m. Speed=26.747999m/h.</desc>
<speed>7.430000</speed>
</trkpt>
<trkpt lat="21.433167" lon="105.262344">
<ele>32.521027</ele>
<time>2011-04-29T06:53:40Z</time>
<desc>lat.=21.433167, lon.=105.262344, Alt.=32.521027m. Speed=29.232000m/h.</desc>
<speed>8.120000</speed>
</trkpt>
<trkpt lat="21.433168" lon="105.262733">
<ele>33.743683</ele>
<time>2011-04-29T06:53:45Z</time>
<desc>lat.=21.433168, lon.=105.262733, Alt.=33.743683m. Speed=25.740000m/h.</desc>
<speed>7.150000</speed>
</trkpt>
<trkpt lat="21.433327" lon="105.263123">
<ele>32.660675</ele>
<time>2011-04-29T06:53:50Z</time>
<desc>lat.=21.433327, lon.=105.263123, Alt.=32.660675m. Speed=35.352001m/h.</desc>
<speed>9.820000</speed>
</trkpt>
<trkpt lat="21.433653" lon="105.263489">
<ele>33.447784</ele>
<time>2011-04-29T06:53:55Z</time>
<desc>lat.=21.433653, lon.=105.263489, Alt.=33.447784m. Speed=36.792000m/h.</desc>
<speed>10.220000</speed>
</trkpt>
<trkpt lat="21.434010" lon="105.263802">
<ele>34.543488</ele>
<time>2011-04-29T06:54:00Z</time>
<desc>lat.=21.434010, lon.=105.263802, Alt.=34.543488m. Speed=34.487999m/h.</desc>
<speed>9.580000</speed>
</trkpt>
<trkpt lat="21.434319" lon="105.264084">
<ele>35.662628</ele>
<time>2011-04-29T06:54:05Z</time>
<desc>lat.=21.434319, lon.=105.264084, Alt.=35.662628m. Speed=31.356001m/h.</desc>
<speed>8.710000</speed>
</trkpt>
<trkpt lat="21.434610" lon="105.264374">
<ele>33.889191</ele>
<time>2011-04-29T06:54:10Z</time>
<desc>lat.=21.434610, lon.=105.264374, Alt.=33.889191m. Speed=30.708000m/h.</desc>
<speed>8.530000</speed>
</trkpt>
<trkpt lat="21.434942" lon="105.264687">
<ele>31.682388</ele>
<time>2011-04-29T06:54:15Z</time>
<desc>lat.=21.434942, lon.=105.264687, Alt.=31.682388m. Speed=34.883999m/h.</desc>
<speed>9.690000</speed>
</trkpt>
<trkpt lat="21.435303" lon="105.265045">
<ele>32.462433</ele>
<time>2011-04-29T06:54:20Z</time>
<desc>lat.=21.435303, lon.=105.265045, Alt.=32.462433m. Speed=35.459999m/h.</desc>
<speed>9.850000</speed>
</trkpt>
<trkpt lat="21.435575" lon="105.265373">
<ele>32.589386</ele>
<time>2011-04-29T06:54:25Z</time>
<desc>lat.=21.435575, lon.=105.265373, Alt.=32.589386m. Speed=32.004002m/h.</desc>
<speed>8.890000</speed>
</trkpt>
<trkpt lat="21.435814" lon="105.265785">
<ele>31.878677</ele>
<time>2011-04-29T06:54:30Z</time>
<desc>lat.=21.435814, lon.=105.265785, Alt.=31.878677m. Speed=34.812000m/h.</desc>
<speed>9.670000</speed>
</trkpt>
<trkpt lat="21.436020" lon="105.266205">
<ele>34.787628</ele>
<time>2011-04-29T06:54:35Z</time>
<desc>lat.=21.436020, lon.=105.266205, Alt.=34.787628m. Speed=37.512001m/h.</desc>
<speed>10.420000</speed>
</trkpt>
<trkpt lat="21.436255" lon="105.266647">
<ele>37.938995</ele>
<time>2011-04-29T06:54:40Z</time>
<desc>lat.=21.436255, lon.=105.266647, Alt.=37.938995m. Speed=38.124001m/h.</desc>
<speed>10.590000</speed>
</trkpt>
<trkpt lat="21.436462" lon="105.267097">
<ele>39.046417</ele>
<time>2011-04-29T06:54:45Z</time>
<desc>lat.=21.436462, lon.=105.267097, Alt.=39.046417m. Speed=38.160000m/h.</desc>
<speed>10.600000</speed>
</trkpt>
<trkpt lat="21.436705" lon="105.267548">
<ele>40.864777</ele>
<time>2011-04-29T06:54:50Z</time>
<desc>lat.=21.436705, lon.=105.267548, Alt.=40.864777m. Speed=40.032001m/h.</desc>
<speed>11.120000</speed>
</trkpt>
<trkpt lat="21.436924" lon="105.268013">
<ele>41.785675</ele>
<time>2011-04-29T06:54:55Z</time>
<desc>lat.=21.436924, lon.=105.268013, Alt.=41.785675m. Speed=36.612000m/h.</desc>
<speed>10.170000</speed>
</trkpt>
<trkpt lat="21.437073" lon="105.268463">
<ele>43.139191</ele>
<time>2011-04-29T06:55:00Z</time>
<desc>lat.=21.437073, lon.=105.268463, Alt.=43.139191m. Speed=34.883999m/h.</desc>
<speed>9.690000</speed>
</trkpt>
<trkpt lat="21.437138" lon="105.268944">
<ele>43.939972</ele>
<time>2011-04-29T06:55:05Z</time>
<desc>lat.=21.437138, lon.=105.268944, Alt.=43.939972m. Speed=37.908001m/h.</desc>
<speed>10.530000</speed>
</trkpt>
<trkpt lat="21.437189" lon="105.269478">
<ele>43.309113</ele>
<time>2011-04-29T06:55:10Z</time>
<desc>lat.=21.437189, lon.=105.269478, Alt.=43.309113m. Speed=43.020000m/h.</desc>
<speed>11.950000</speed>
</trkpt>
<trkpt lat="21.437241" lon="105.270027">
<ele>42.046417</ele>
<time>2011-04-29T06:55:15Z</time>
<desc>lat.=21.437241, lon.=105.270027, Alt.=42.046417m. Speed=40.284000m/h.</desc>
<speed>11.190000</speed>
</trkpt>
<trkpt lat="21.437429" lon="105.270592">
<ele>41.355011</ele>
<time>2011-04-29T06:55:20Z</time>
<desc>lat.=21.437429, lon.=105.270592, Alt.=41.355011m. Speed=45.071999m/h.</desc>
<speed>12.520000</speed>
</trkpt>
<trkpt lat="21.437820" lon="105.271049">
<ele>42.106964</ele>
<time>2011-04-29T06:55:25Z</time>
<desc>lat.=21.437820, lon.=105.271049, Alt.=42.106964m. Speed=46.368000m/h.</desc>
<speed>12.880000</speed>
</trkpt>
<trkpt lat="21.438293" lon="105.271339">
<ele>41.222198</ele>
<time>2011-04-29T06:55:30Z</time>
<desc>lat.=21.438293, lon.=105.271339, Alt.=41.222198m. Speed=40.500000m/h.</desc>
<speed>11.250000</speed>
</trkpt>
<trkpt lat="21.438698" lon="105.271545">
<ele>42.077667</ele>
<time>2011-04-29T06:55:35Z</time>
<desc>lat.=21.438698, lon.=105.271545, Alt.=42.077667m. Speed=31.464001m/h.</desc>
<speed>8.740000</speed>
</trkpt>
<trkpt lat="21.439047" lon="105.271820">
<ele>43.701691</ele>
<time>2011-04-29T06:55:40Z</time>
<desc>lat.=21.439047, lon.=105.271820, Alt.=43.701691m. Speed=37.116001m/h.</desc>
<speed>10.310000</speed>
</trkpt>
<trkpt lat="21.439371" lon="105.272179">
<ele>44.861847</ele>
<time>2011-04-29T06:55:45Z</time>
<desc>lat.=21.439371, lon.=105.272179, Alt.=44.861847m. Speed=40.391998m/h.</desc>
<speed>11.220000</speed>
</trkpt>
<trkpt lat="21.439751" lon="105.272621">
<ele>40.703644</ele>
<time>2011-04-29T06:55:50Z</time>
<desc>lat.=21.439751, lon.=105.272621, Alt.=40.703644m. Speed=47.844002m/h.</desc>
<speed>13.290000</speed>
</trkpt>
<trkpt lat="21.440277" lon="105.273033">
<ele>38.891144</ele>
<time>2011-04-29T06:55:55Z</time>
<desc>lat.=21.440277, lon.=105.273033, Alt.=38.891144m. Speed=55.439999m/h.</desc>
<speed>15.400000</speed>
</trkpt>
<trkpt lat="21.440891" lon="105.273346">
<ele>36.427277</ele>
<time>2011-04-29T06:56:00Z</time>
<desc>lat.=21.440891, lon.=105.273346, Alt.=36.427277m. Speed=55.872002m/h.</desc>
<speed>15.520000</speed>
</trkpt>
<trkpt lat="21.441448" lon="105.273796">
<ele>36.063995</ele>
<time>2011-04-29T06:56:05Z</time>
<desc>lat.=21.441448, lon.=105.273796, Alt.=36.063995m. Speed=56.771999m/h.</desc>
<speed>15.770000</speed>
</trkpt>
<trkpt lat="21.441849" lon="105.274452">
<ele>35.987823</ele>
<time>2011-04-29T06:56:10Z</time>
<desc>lat.=21.441849, lon.=105.274452, Alt.=35.987823m. Speed=58.931999m/h.</desc>
<speed>16.370000</speed>
</trkpt>
<trkpt lat="21.442198" lon="105.275177">
<ele>36.447784</ele>
<time>2011-04-29T06:56:15Z</time>
<desc>lat.=21.442198, lon.=105.275177, Alt.=36.447784m. Speed=61.487999m/h.</desc>
<speed>17.080000</speed>
</trkpt>
<trkpt lat="21.442427" lon="105.275986">
<ele>31.389908</ele>
<time>2011-04-29T06:56:20Z</time>
<desc>lat.=21.442427, lon.=105.275986, Alt.=31.389908m. Speed=61.812000m/h.</desc>
<speed>17.170000</speed>
</trkpt>
<trkpt lat="21.442305" lon="105.276756">
<ele>29.698502</ele>
<time>2011-04-29T06:56:25Z</time>
<desc>lat.=21.442305, lon.=105.276756, Alt.=29.698502m. Speed=58.644001m/h.</desc>
<speed>16.290000</speed>
</trkpt>
<trkpt lat="21.442051" lon="105.277519">
<ele>27.694107</ele>
<time>2011-04-29T06:56:30Z</time>
<desc>lat.=21.442051, lon.=105.277519, Alt.=27.694107m. Speed=61.271999m/h.</desc>
<speed>17.020000</speed>
</trkpt>
<trkpt lat="21.441803" lon="105.278267">
<ele>28.218521</ele>
<time>2011-04-29T06:56:35Z</time>
<desc>lat.=21.441803, lon.=105.278267, Alt.=28.218521m. Speed=58.787998m/h.</desc>
<speed>16.329999</speed>
</trkpt>
<trkpt lat="21.441710" lon="105.279022">
<ele>28.619888</ele>
<time>2011-04-29T06:56:40Z</time>
<desc>lat.=21.441710, lon.=105.279022, Alt.=28.619888m. Speed=54.000000m/h.</desc>
<speed>15.000000</speed>
</trkpt>
<trkpt lat="21.442049" lon="105.279648">
<ele>29.215103</ele>
<time>2011-04-29T06:56:45Z</time>
<desc>lat.=21.442049, lon.=105.279648, Alt.=29.215103m. Speed=54.720001m/h.</desc>
<speed>15.200000</speed>
</trkpt>
<trkpt lat="21.442612" lon="105.280144">
<ele>28.623795</ele>
<time>2011-04-29T06:56:50Z</time>
<desc>lat.=21.442612, lon.=105.280144, Alt.=28.623795m. Speed=61.200001m/h.</desc>
<speed>17.000000</speed>
</trkpt>
<trkpt lat="21.443144" lon="105.280754">
<ele>32.062042</ele>
<time>2011-04-29T06:56:55Z</time>
<desc>lat.=21.443144, lon.=105.280754, Alt.=32.062042m. Speed=62.604000m/h.</desc>
<speed>17.390000</speed>
</trkpt>
<trkpt lat="21.443340" lon="105.281570">
<ele>30.953873</ele>
<time>2011-04-29T06:57:00Z</time>
<desc>lat.=21.443340, lon.=105.281570, Alt.=30.953873m. Speed=63.324001m/h.</desc>
<speed>17.590000</speed>
</trkpt>
<trkpt lat="21.443424" lon="105.282448">
<ele>32.599152</ele>
<time>2011-04-29T06:57:05Z</time>
<desc>lat.=21.443424, lon.=105.282448, Alt.=32.599152m. Speed=64.800003m/h.</desc>
<speed>18.000001</speed>
</trkpt>
<trkpt lat="21.443289" lon="105.283264">
<ele>35.080597</ele>
<time>2011-04-29T06:57:10Z</time>
<desc>lat.=21.443289, lon.=105.283264, Alt.=35.080597m. Speed=61.271999m/h.</desc>
<speed>17.020000</speed>
</trkpt>
<trkpt lat="21.442877" lon="105.283920">
<ele>37.686066</ele>
<time>2011-04-29T06:57:15Z</time>
<desc>lat.=21.442877, lon.=105.283920, Alt.=37.686066m. Speed=56.736000m/h.</desc>
<speed>15.760000</speed>
</trkpt>
<trkpt lat="21.442387" lon="105.284492">
<ele>39.891144</ele>
<time>2011-04-29T06:57:20Z</time>
<desc>lat.=21.442387, lon.=105.284492, Alt.=39.891144m. Speed=56.664001m/h.</desc>
<speed>15.740000</speed>
</trkpt>
<trkpt lat="21.441906" lon="105.285027">
<ele>40.152863</ele>
<time>2011-04-29T06:57:25Z</time>
<desc>lat.=21.441906, lon.=105.285027, Alt.=40.152863m. Speed=52.127998m/h.</desc>
<speed>14.480000</speed>
</trkpt>
<trkpt lat="21.441465" lon="105.285469">
<ele>40.855011</ele>
<time>2011-04-29T06:57:30Z</time>
<desc>lat.=21.441465, lon.=105.285469, Alt.=40.855011m. Speed=46.152000m/h.</desc>
<speed>12.820000</speed>
</trkpt>
<trkpt lat="21.440985" lon="105.285767">
<ele>42.741730</ele>
<time>2011-04-29T06:57:35Z</time>
<desc>lat.=21.440985, lon.=105.285767, Alt.=42.741730m. Speed=41.363998m/h.</desc>
<speed>11.490000</speed>
</trkpt>
<trkpt lat="21.440481" lon="105.285965">
<ele>45.703644</ele>
<time>2011-04-29T06:57:40Z</time>
<desc>lat.=21.440481, lon.=105.285965, Alt.=45.703644m. Speed=43.344002m/h.</desc>
<speed>12.040000</speed>
</trkpt>
<trkpt lat="21.439968" lon="105.286133">
<ele>47.754425</ele>
<time>2011-04-29T06:57:45Z</time>
<desc>lat.=21.439968, lon.=105.286133, Alt.=47.754425m. Speed=41.939999m/h.</desc>
<speed>11.650000</speed>
</trkpt>
<trkpt lat="21.439474" lon="105.286316">
<ele>49.148956</ele>
<time>2011-04-29T06:57:50Z</time>
<desc>lat.=21.439474, lon.=105.286316, Alt.=49.148956m. Speed=39.743999m/h.</desc>
<speed>11.040000</speed>
</trkpt>
<trkpt lat="21.439034" lon="105.286491">
<ele>50.709503</ele>
<time>2011-04-29T06:57:55Z</time>
<desc>lat.=21.439034, lon.=105.286491, Alt.=50.709503m. Speed=37.908001m/h.</desc>
<speed>10.530000</speed>
</trkpt>
<trkpt lat="21.438700" lon="105.286835">
<ele>49.189972</ele>
<time>2011-04-29T06:58:00Z</time>
<desc>lat.=21.438700, lon.=105.286835, Alt.=49.189972m. Speed=39.563999m/h.</desc>
<speed>10.990000</speed>
</trkpt>
<trkpt lat="21.438416" lon="105.287323">
<ele>49.141144</ele>
<time>2011-04-29T06:58:05Z</time>
<desc>lat.=21.438416, lon.=105.287323, Alt.=49.141144m. Speed=42.875999m/h.</desc>
<speed>11.910000</speed>
</trkpt>
<trkpt lat="21.438164" lon="105.287804">
<ele>48.199738</ele>
<time>2011-04-29T06:58:10Z</time>
<desc>lat.=21.438164, lon.=105.287804, Alt.=48.199738m. Speed=35.316002m/h.</desc>
<speed>9.810001</speed>
</trkpt>
<trkpt lat="21.437950" lon="105.288185">
<ele>45.149933</ele>
<time>2011-04-29T06:58:15Z</time>
<desc>lat.=21.437950, lon.=105.288185, Alt.=45.149933m. Speed=31.823999m/h.</desc>
<speed>8.840000</speed>
</trkpt>
<trkpt lat="21.437737" lon="105.288574">
<ele>44.130402</ele>
<time>2011-04-29T06:58:20Z</time>
<desc>lat.=21.437737, lon.=105.288574, Alt.=44.130402m. Speed=34.632000m/h.</desc>
<speed>9.620000</speed>
</trkpt>
<trkpt lat="21.437494" lon="105.288994">
<ele>46.156769</ele>
<time>2011-04-29T06:58:25Z</time>
<desc>lat.=21.437494, lon.=105.288994, Alt.=46.156769m. Speed=37.872002m/h.</desc>
<speed>10.520000</speed>
</trkpt>
<trkpt lat="21.437246" lon="105.289459">
<ele>44.497589</ele>
<time>2011-04-29T06:58:30Z</time>
<desc>lat.=21.437246, lon.=105.289459, Alt.=44.497589m. Speed=41.652000m/h.</desc>
<speed>11.570000</speed>
</trkpt>
<trkpt lat="21.436996" lon="105.289886">
<ele>45.396027</ele>
<time>2011-04-29T06:58:35Z</time>
<desc>lat.=21.436996, lon.=105.289886, Alt.=45.396027m. Speed=37.799999m/h.</desc>
<speed>10.500000</speed>
</trkpt>
<trkpt lat="21.436739" lon="105.290306">
<ele>45.905792</ele>
<time>2011-04-29T06:58:40Z</time>
<desc>lat.=21.436739, lon.=105.290306, Alt.=45.905792m. Speed=37.116001m/h.</desc>
<speed>10.310000</speed>
</trkpt>
<trkpt lat="21.436497" lon="105.290672">
<ele>46.229034</ele>
<time>2011-04-29T06:58:45Z</time>
<desc>lat.=21.436497, lon.=105.290672, Alt.=46.229034m. Speed=31.896000m/h.</desc>
<speed>8.860000</speed>
</trkpt>
<trkpt lat="21.436241" lon="105.291023">
<ele>45.180206</ele>
<time>2011-04-29T06:58:50Z</time>
<desc>lat.=21.436241, lon.=105.291023, Alt.=45.180206m. Speed=33.299999m/h.</desc>
<speed>9.250000</speed>
</trkpt>
<trkpt lat="21.435881" lon="105.291283">
<ele>45.211456</ele>
<time>2011-04-29T06:58:55Z</time>
<desc>lat.=21.435881, lon.=105.291283, Alt.=45.211456m. Speed=35.279999m/h.</desc>
<speed>9.800000</speed>
</trkpt>
<trkpt lat="21.435421" lon="105.291267">
<ele>44.957550</ele>
<time>2011-04-29T06:59:00Z</time>
<desc>lat.=21.435421, lon.=105.291267, Alt.=44.957550m. Speed=36.900002m/h.</desc>
<speed>10.250000</speed>
</trkpt>
<trkpt lat="21.434956" lon="105.291107">
<ele>44.173370</ele>
<time>2011-04-29T06:59:05Z</time>
<desc>lat.=21.434956, lon.=105.291107, Alt.=44.173370m. Speed=38.700001m/h.</desc>
<speed>10.750000</speed>
</trkpt>
<trkpt lat="21.434481" lon="105.290947">
<ele>42.503448</ele>
<time>2011-04-29T06:59:10Z</time>
<desc>lat.=21.434481, lon.=105.290947, Alt.=42.503448m. Speed=38.952000m/h.</desc>
<speed>10.820000</speed>
</trkpt>
<trkpt lat="21.433990" lon="105.290787">
<ele>41.846222</ele>
<time>2011-04-29T06:59:15Z</time>
<desc>lat.=21.433990, lon.=105.290787, Alt.=41.846222m. Speed=39.995998m/h.</desc>
<speed>11.110000</speed>
</trkpt>
<trkpt lat="21.433533" lon="105.290665">
<ele>43.383331</ele>
<time>2011-04-29T06:59:20Z</time>
<desc>lat.=21.433533, lon.=105.290665, Alt.=43.383331m. Speed=35.784000m/h.</desc>
<speed>9.940000</speed>
</trkpt>
<trkpt lat="21.433105" lon="105.290741">
<ele>41.964386</ele>
<time>2011-04-29T06:59:25Z</time>
<desc>lat.=21.433105, lon.=105.290741, Alt.=41.964386m. Speed=35.675999m/h.</desc>
<speed>9.910000</speed>
</trkpt>
<trkpt lat="21.432756" lon="105.291046">
<ele>42.189972</ele>
<time>2011-04-29T06:59:30Z</time>
<desc>lat.=21.432756, lon.=105.291046, Alt.=42.189972m. Speed=31.572001m/h.</desc>
<speed>8.770000</speed>
</trkpt>
<trkpt lat="21.432514" lon="105.291275">
<ele>44.191925</ele>
<time>2011-04-29T06:59:35Z</time>
<desc>lat.=21.432514, lon.=105.291275, Alt.=44.191925m. Speed=21.420000m/h.</desc>
<speed>5.950000</speed>
</trkpt>
<trkpt lat="21.432261" lon="105.291534">
<ele>46.316925</ele>
<time>2011-04-29T06:59:40Z</time>
<desc>lat.=21.432261, lon.=105.291534, Alt.=46.316925m. Speed=31.535999m/h.</desc>
<speed>8.760000</speed>
</trkpt>
<trkpt lat="21.431957" lon="105.291847">
<ele>43.519073</ele>
<time>2011-04-29T06:59:45Z</time>
<desc>lat.=21.431957, lon.=105.291847, Alt.=43.519073m. Speed=33.012001m/h.</desc>
<speed>9.170000</speed>
</trkpt>
<trkpt lat="21.431623" lon="105.292168">
<ele>42.892120</ele>
<time>2011-04-29T06:59:50Z</time>
<desc>lat.=21.431623, lon.=105.292168, Alt.=42.892120m. Speed=35.928001m/h.</desc>
<speed>9.980000</speed>
</trkpt>
<trkpt lat="21.431213" lon="105.292427">
<ele>41.481964</ele>
<time>2011-04-29T06:59:55Z</time>
<desc>lat.=21.431213, lon.=105.292427, Alt.=41.481964m. Speed=36.827999m/h.</desc>
<speed>10.230000</speed>
</trkpt>
<trkpt lat="21.430771" lon="105.292572">
<ele>42.605988</ele>
<time>2011-04-29T07:00:00Z</time>
<desc>lat.=21.430771, lon.=105.292572, Alt.=42.605988m. Speed=36.936001m/h.</desc>
<speed>10.260000</speed>
</trkpt>
<trkpt lat="21.430307" lon="105.292725">
<ele>44.980011</ele>
<time>2011-04-29T07:00:05Z</time>
<desc>lat.=21.430307, lon.=105.292725, Alt.=44.980011m. Speed=38.304001m/h.</desc>
<speed>10.640000</speed>
</trkpt>
<trkpt lat="21.429811" lon="105.292885">
<ele>45.556183</ele>
<time>2011-04-29T07:00:10Z</time>
<desc>lat.=21.429811, lon.=105.292885, Alt.=45.556183m. Speed=41.868000m/h.</desc>
<speed>11.630000</speed>
</trkpt>
<trkpt lat="21.429296" lon="105.293030">
<ele>46.944855</ele>
<time>2011-04-29T07:00:15Z</time>
<desc>lat.=21.429296, lon.=105.293030, Alt.=46.944855m. Speed=40.284000m/h.</desc>
<speed>11.190000</speed>
</trkpt>
<trkpt lat="21.428831" lon="105.293159">
<ele>45.957550</ele>
<time>2011-04-29T07:00:20Z</time>
<desc>lat.=21.428831, lon.=105.293159, Alt.=45.957550m. Speed=35.388000m/h.</desc>
<speed>9.830000</speed>
</trkpt>
<trkpt lat="21.428442" lon="105.293350">
<ele>41.908722</ele>
<time>2011-04-29T07:00:25Z</time>
<desc>lat.=21.428442, lon.=105.293350, Alt.=41.908722m. Speed=33.875999m/h.</desc>
<speed>9.410000</speed>
</trkpt>
<trkpt lat="21.428144" lon="105.293678">
<ele>41.344269</ele>
<time>2011-04-29T07:00:30Z</time>
<desc>lat.=21.428144, lon.=105.293678, Alt.=41.344269m. Speed=33.875999m/h.</desc>
<speed>9.410000</speed>
</trkpt>
<trkpt lat="21.427919" lon="105.294044">
<ele>41.574738</ele>
<time>2011-04-29T07:00:35Z</time>
<desc>lat.=21.427919, lon.=105.294044, Alt.=41.574738m. Speed=32.759998m/h.</desc>
<speed>9.100000</speed>
</trkpt>
<trkpt lat="21.427647" lon="105.294418">
<ele>41.544464</ele>
<time>2011-04-29T07:00:40Z</time>
<desc>lat.=21.427647, lon.=105.294418, Alt.=41.544464m. Speed=34.560001m/h.</desc>
<speed>9.600000</speed>
</trkpt>
<trkpt lat="21.427240" lon="105.294640">
<ele>38.000519</ele>
<time>2011-04-29T07:00:45Z</time>
<desc>lat.=21.427240, lon.=105.294640, Alt.=38.000519m. Speed=36.863998m/h.</desc>
<speed>10.240000</speed>
</trkpt>
<trkpt lat="21.426769" lon="105.294563">
<ele>37.515167</ele>
<time>2011-04-29T07:00:50Z</time>
<desc>lat.=21.426769, lon.=105.294563, Alt.=37.515167m. Speed=39.672001m/h.</desc>
<speed>11.020000</speed>
</trkpt>
<trkpt lat="21.426302" lon="105.294327">
<ele>38.688995</ele>
<time>2011-04-29T07:00:55Z</time>
<desc>lat.=21.426302, lon.=105.294327, Alt.=38.688995m. Speed=40.428001m/h.</desc>
<speed>11.230000</speed>
</trkpt>
<trkpt lat="21.425848" lon="105.294098">
<ele>38.134308</ele>
<time>2011-04-29T07:01:00Z</time>
<desc>lat.=21.425848, lon.=105.294098, Alt.=38.134308m. Speed=39.167999m/h.</desc>
<speed>10.880000</speed>
</trkpt>
<trkpt lat="21.425407" lon="105.293938">
<ele>40.471222</ele>
<time>2011-04-29T07:01:05Z</time>
<desc>lat.=21.425407, lon.=105.293938, Alt.=40.471222m. Speed=33.624001m/h.</desc>
<speed>9.340000</speed>
</trkpt>
<trkpt lat="21.424976" lon="105.293900">
<ele>41.783722</ele>
<time>2011-04-29T07:01:10Z</time>
<desc>lat.=21.424976, lon.=105.293900, Alt.=41.783722m. Speed=32.868000m/h.</desc>
<speed>9.130000</speed>
</trkpt>
<trkpt lat="21.424570" lon="105.293999">
<ele>41.199738</ele>
<time>2011-04-29T07:01:15Z</time>
<desc>lat.=21.424570, lon.=105.293999, Alt.=41.199738m. Speed=35.459999m/h.</desc>
<speed>9.850000</speed>
</trkpt>
<trkpt lat="21.424122" lon="105.294197">
<ele>39.116730</ele>
<time>2011-04-29T07:01:20Z</time>
<desc>lat.=21.424122, lon.=105.294197, Alt.=39.116730m. Speed=42.084000m/h.</desc>
<speed>11.690000</speed>
</trkpt>
<trkpt lat="21.423553" lon="105.294495">
<ele>40.165558</ele>
<time>2011-04-29T07:01:25Z</time>
<desc>lat.=21.423553, lon.=105.294495, Alt.=40.165558m. Speed=46.619999m/h.</desc>
<speed>12.950000</speed>
</trkpt>
<trkpt lat="21.423035" lon="105.294724">
<ele>39.332550</ele>
<time>2011-04-29T07:01:30Z</time>
<desc>lat.=21.423035, lon.=105.294724, Alt.=39.332550m. Speed=43.344002m/h.</desc>
<speed>12.040000</speed>
</trkpt>
<trkpt lat="21.422535" lon="105.294952">
<ele>38.225128</ele>
<time>2011-04-29T07:01:35Z</time>
<desc>lat.=21.422535, lon.=105.294952, Alt.=38.225128m. Speed=41.543999m/h.</desc>
<speed>11.540000</speed>
</trkpt>
<trkpt lat="21.421993" lon="105.295189">
<ele>36.221222</ele>
<time>2011-04-29T07:01:40Z</time>
<desc>lat.=21.421993, lon.=105.295189, Alt.=36.221222m. Speed=44.099998m/h.</desc>
<speed>12.250000</speed>
</trkpt>
<trkpt lat="21.421476" lon="105.295341">
<ele>35.858917</ele>
<time>2011-04-29T07:01:45Z</time>
<desc>lat.=21.421476, lon.=105.295341, Alt.=35.858917m. Speed=40.680000m/h.</desc>
<speed>11.300000</speed>
</trkpt>
<trkpt lat="21.420990" lon="105.295441">
<ele>36.390167</ele>
<time>2011-04-29T07:01:50Z</time>
<desc>lat.=21.420990, lon.=105.295441, Alt.=36.390167m. Speed=39.852001m/h.</desc>
<speed>11.070000</speed>
</trkpt>
<trkpt lat="21.420544" lon="105.295662">
<ele>35.162628</ele>
<time>2011-04-29T07:01:55Z</time>
<desc>lat.=21.420544, lon.=105.295662, Alt.=35.162628m. Speed=37.080002m/h.</desc>
<speed>10.300001</speed>
</trkpt>
<trkpt lat="21.420265" lon="105.296043">
<ele>34.772980</ele>
<time>2011-04-29T07:02:00Z</time>
<desc>lat.=21.420265, lon.=105.296043, Alt.=34.772980m. Speed=35.748001m/h.</desc>
<speed>9.930000</speed>
</trkpt>
<trkpt lat="21.420069" lon="105.296410">
<ele>34.058136</ele>
<time>2011-04-29T07:02:05Z</time>
<desc>lat.=21.420069, lon.=105.296410, Alt.=34.058136m. Speed=28.511999m/h.</desc>
<speed>7.920000</speed>
</trkpt>
<trkpt lat="21.419910" lon="105.296509">
<ele>35.257355</ele>
<time>2011-04-29T07:02:10Z</time>
<desc>lat.=21.419910, lon.=105.296509, Alt.=35.257355m. Speed=11.016000m/h.</desc>
<speed>3.060000</speed>
</trkpt>
<trkpt lat="21.419857" lon="105.296471">
<ele>39.084503</ele>
<time>2011-04-29T07:02:15Z</time>
<desc>lat.=21.419857, lon.=105.296471, Alt.=39.084503m. Speed=0.756000m/h.</desc>
<speed>0.210000</speed>
</trkpt>
<trkpt lat="21.419853" lon="105.296471">
<ele>39.228058</ele>
<time>2011-04-29T07:02:20Z</time>
<desc>lat.=21.419853, lon.=105.296471, Alt.=39.228058m. Speed=0.360000m/h.</desc>
<speed>0.100000</speed>
</trkpt>
<trkpt lat="21.419855" lon="105.296478">
<ele>39.231964</ele>
<time>2011-04-29T07:02:25Z</time>
<desc>lat.=21.419855, lon.=105.296478, Alt.=39.231964m. Speed=0.144000m/h.</desc>
<speed>0.040000</speed>
</trkpt>
<trkpt lat="21.419859" lon="105.296478">
<ele>39.235870</ele>
<time>2011-04-29T07:02:30Z</time>
<desc>lat.=21.419859, lon.=105.296478, Alt.=39.235870m. Speed=0.612000m/h.</desc>
<speed>0.170000</speed>
</trkpt>
<trkpt lat="21.419865" lon="105.296486">
<ele>39.276886</ele>
<time>2011-04-29T07:02:35Z</time>
<desc>lat.=21.419865, lon.=105.296486, Alt.=39.276886m. Speed=0.324000m/h.</desc>
<speed>0.090000</speed>
</trkpt>
<trkpt lat="21.419867" lon="105.296486">
<ele>39.299347</ele>
<time>2011-04-29T07:02:40Z</time>
<desc>lat.=21.419867, lon.=105.296486, Alt.=39.299347m. Speed=0.072000m/h.</desc>
<speed>0.020000</speed>
</trkpt>
<trkpt lat="21.419867" lon="105.296486">
<ele>39.340363</ele>
<time>2011-04-29T07:02:45Z</time>
<desc>lat.=21.419867, lon.=105.296486, Alt.=39.340363m. Speed=0.324000m/h.</desc>
<speed>0.090000</speed>
</trkpt>
<trkpt lat="21.419867" lon="105.296478">
<ele>39.387238</ele>
<time>2011-04-29T07:02:50Z</time>
<desc>lat.=21.419867, lon.=105.296478, Alt.=39.387238m. Speed=0.216000m/h.</desc>
<speed>0.060000</speed>
</trkpt>
<trkpt lat="21.419867" lon="105.296478">
<ele>39.401886</ele>
<time>2011-04-29T07:02:55Z</time>
<desc>lat.=21.419867, lon.=105.296478, Alt.=39.401886m. Speed=0.324000m/h.</desc>
<speed>0.090000</speed>
</trkpt>
<trkpt lat="21.419867" lon="105.296478">
<ele>39.467316</ele>
<time>2011-04-29T07:03:00Z</time>
<desc>lat.=21.419867, lon.=105.296478, Alt.=39.467316m. Speed=0.072000m/h.</desc>
<speed>0.020000</speed>
</trkpt>
<trkpt lat="21.419867" lon="105.296478">
<ele>39.535675</ele>
<time>2011-04-29T07:03:05Z</time>
<desc>lat.=21.419867, lon.=105.296478, Alt.=39.535675m. Speed=0.036000m/h.</desc>
<speed>0.010000</speed>
</trkpt>
<trkpt lat="21.419867" lon="105.296478">
<ele>39.586456</ele>
<time>2011-04-29T07:03:10Z</time>
<desc>lat.=21.419867, lon.=105.296478, Alt.=39.586456m. Speed=0.288000m/h.</desc>
<speed>0.080000</speed>
</trkpt>
<trkpt lat="21.419867" lon="105.296478">
<ele>39.600128</ele>
<time>2011-04-29T07:03:15Z</time>
<desc>lat.=21.419867, lon.=105.296478, Alt.=39.600128m. Speed=0.288000m/h.</desc>
<speed>0.080000</speed>
</trkpt>
<trkpt lat="21.419861" lon="105.296471">
<ele>39.613800</ele>
<time>2011-04-29T07:03:20Z</time>
<desc>lat.=21.419861, lon.=105.296471, Alt.=39.613800m. Speed=0.324000m/h.</desc>
<speed>0.090000</speed>
</trkpt>
<trkpt lat="21.419861" lon="105.296471">
<ele>39.612823</ele>
<time>2011-04-29T07:03:25Z</time>
<desc>lat.=21.419861, lon.=105.296471, Alt.=39.612823m. Speed=0.108000m/h.</desc>
<speed>0.030000</speed>
</trkpt>
<trkpt lat="21.419861" lon="105.296478">
<ele>39.615753</ele>
<time>2011-04-29T07:03:30Z</time>
<desc>lat.=21.419861, lon.=105.296478, Alt.=39.615753m. Speed=0.252000m/h.</desc>
<speed>0.070000</speed>
</trkpt>
<trkpt lat="21.419859" lon="105.296478">
<ele>39.610870</ele>
<time>2011-04-29T07:03:35Z</time>
<desc>lat.=21.419859, lon.=105.296478, Alt.=39.610870m. Speed=0.324000m/h.</desc>
<speed>0.090000</speed>
</trkpt>
<trkpt lat="21.419868" lon="105.296478">
<ele>39.640167</ele>
<time>2011-04-29T07:03:40Z</time>
<desc>lat.=21.419868, lon.=105.296478, Alt.=39.640167m. Speed=0.720000m/h.</desc>
<speed>0.200000</speed>
</trkpt>
<trkpt lat="21.419876" lon="105.296478">
<ele>39.719269</ele>
<time>2011-04-29T07:03:45Z</time>
<desc>lat.=21.419876, lon.=105.296478, Alt.=39.719269m. Speed=0.072000m/h.</desc>
<speed>0.020000</speed>
</trkpt>
<trkpt lat="21.419874" lon="105.296478">
<ele>39.765167</ele>
<time>2011-04-29T07:03:50Z</time>
<desc>lat.=21.419874, lon.=105.296478, Alt.=39.765167m. Speed=0.612000m/h.</desc>
<speed>0.170000</speed>
</trkpt>
<trkpt lat="21.419865" lon="105.296478">
<ele>39.754425</ele>
<time>2011-04-29T07:03:55Z</time>
<desc>lat.=21.419865, lon.=105.296478, Alt.=39.754425m. Speed=0.468000m/h.</desc>
<speed>0.130000</speed>
</trkpt>
<trkpt lat="21.419861" lon="105.296486">
<ele>39.736847</ele>
<time>2011-04-29T07:04:00Z</time>
<desc>lat.=21.419861, lon.=105.296486, Alt.=39.736847m. Speed=0.468000m/h.</desc>
<speed>0.130000</speed>
</trkpt>
<trkpt lat="21.419857" lon="105.296486">
<ele>39.739777</ele>
<time>2011-04-29T07:04:05Z</time>
<desc>lat.=21.419857, lon.=105.296486, Alt.=39.739777m. Speed=0.540000m/h.</desc>
<speed>0.150000</speed>
</trkpt>
<trkpt lat="21.419855" lon="105.296494">
<ele>39.714386</ele>
<time>2011-04-29T07:04:10Z</time>
<desc>lat.=21.419855, lon.=105.296494, Alt.=39.714386m. Speed=0.288000m/h.</desc>
<speed>0.080000</speed>
</trkpt>
<trkpt lat="21.419859" lon="105.296494">
<ele>39.666534</ele>
<time>2011-04-29T07:04:15Z</time>
<desc>lat.=21.419859, lon.=105.296494, Alt.=39.666534m. Speed=0.540000m/h.</desc>
<speed>0.150000</speed>
</trkpt>
<trkpt lat="21.419861" lon="105.296494">
<ele>39.632355</ele>
<time>2011-04-29T07:04:20Z</time>
<desc>lat.=21.419861, lon.=105.296494, Alt.=39.632355m. Speed=0.324000m/h.</desc>
<speed>0.090000</speed>
</trkpt>
<trkpt lat="21.419861" lon="105.296494">
<ele>39.644073</ele>
<time>2011-04-29T07:04:25Z</time>
<desc>lat.=21.419861, lon.=105.296494, Alt.=39.644073m. Speed=0.216000m/h.</desc>
<speed>0.060000</speed>
</trkpt>
<trkpt lat="21.419863" lon="105.296494">
<ele>39.674347</ele>
<time>2011-04-29T07:04:30Z</time>
<desc>lat.=21.419863, lon.=105.296494, Alt.=39.674347m. Speed=0.108000m/h.</desc>
<speed>0.030000</speed>
</trkpt>
<trkpt lat="21.419861" lon="105.296494">
<ele>39.699738</ele>
<time>2011-04-29T07:04:35Z</time>
<desc>lat.=21.419861, lon.=105.296494, Alt.=39.699738m. Speed=0.180000m/h.</desc>
<speed>0.050000</speed>
</trkpt>
<trkpt lat="21.419861" lon="105.296494">
<ele>39.776886</ele>
<time>2011-04-29T07:04:40Z</time>
<desc>lat.=21.419861, lon.=105.296494, Alt.=39.776886m. Speed=0.216000m/h.</desc>
<speed>0.060000</speed>
</trkpt>
<trkpt lat="21.419859" lon="105.296494">
<ele>39.847198</ele>
<time>2011-04-29T07:04:45Z</time>
<desc>lat.=21.419859, lon.=105.296494, Alt.=39.847198m. Speed=0.216000m/h.</desc>
<speed>0.060000</speed>
</trkpt>
<trkpt lat="21.419857" lon="105.296501">
<ele>39.908722</ele>
<time>2011-04-29T07:04:50Z</time>
<desc>lat.=21.419857, lon.=105.296501, Alt.=39.908722m. Speed=0.036000m/h.</desc>
<speed>0.010000</speed>
</trkpt>
<trkpt lat="21.419857" lon="105.296501">
<ele>39.934113</ele>
<time>2011-04-29T07:04:55Z</time>
<desc>lat.=21.419857, lon.=105.296501, Alt.=39.934113m. Speed=0.288000m/h.</desc>
<speed>0.080000</speed>
</trkpt>
<trkpt lat="21.419853" lon="105.296501">
<ele>39.918488</ele>
<time>2011-04-29T07:05:00Z</time>
<desc>lat.=21.419853, lon.=105.296501, Alt.=39.918488m. Speed=0.720000m/h.</desc>
<speed>0.200000</speed>
</trkpt>
<trkpt lat="21.419851" lon="105.296509">
<ele>39.918488</ele>
<time>2011-04-29T07:05:05Z</time>
<desc>lat.=21.419851, lon.=105.296509, Alt.=39.918488m. Speed=0.756000m/h.</desc>
<speed>0.210000</speed>
</trkpt>
<trkpt lat="21.419849" lon="105.296516">
<ele>39.953644</ele>
<time>2011-04-29T07:05:10Z</time>
<desc>lat.=21.419849, lon.=105.296516, Alt.=39.953644m. Speed=0.072000m/h.</desc>
<speed>0.020000</speed>
</trkpt>
<trkpt lat="21.419853" lon="105.296516">
<ele>40.005402</ele>
<time>2011-04-29T07:05:15Z</time>
<desc>lat.=21.419853, lon.=105.296516, Alt.=40.005402m. Speed=0.432000m/h.</desc>
<speed>0.120000</speed>
</trkpt>
<trkpt lat="21.419853" lon="105.296516">
<ele>40.070831</ele>
<time>2011-04-29T07:05:20Z</time>
<desc>lat.=21.419853, lon.=105.296516, Alt.=40.070831m. Speed=0.288000m/h.</desc>
<speed>0.080000</speed>
</trkpt>
<trkpt lat="21.419853" lon="105.296524">
<ele>40.162628</ele>
<time>2011-04-29T07:05:25Z</time>
<desc>lat.=21.419853, lon.=105.296524, Alt.=40.162628m. Speed=0.072000m/h.</desc>
<speed>0.020000</speed>
</trkpt>
<trkpt lat="21.419853" lon="105.296516">
<ele>40.235870</ele>
<time>2011-04-29T07:05:30Z</time>
<desc>lat.=21.419853, lon.=105.296516, Alt.=40.235870m. Speed=0.324000m/h.</desc>
<speed>0.090000</speed>
</trkpt>
<trkpt lat="21.419851" lon="105.296516">
<ele>40.251495</ele>
<time>2011-04-29T07:05:35Z</time>
<desc>lat.=21.419851, lon.=105.296516, Alt.=40.251495m. Speed=0.000000m/h.</desc>
<speed>0.000000</speed>
</trkpt>
<trkpt lat="21.419851" lon="105.296516">
<ele>40.269073</ele>
<time>2011-04-29T07:05:40Z</time>
<desc>lat.=21.419851, lon.=105.296516, Alt.=40.269073m. Speed=0.072000m/h.</desc>
<speed>0.020000</speed>
</trkpt>
<trkpt lat="21.419851" lon="105.296516">
<ele>40.276886</ele>
<time>2011-04-29T07:05:45Z</time>
<desc>lat.=21.419851, lon.=105.296516, Alt.=40.276886m. Speed=0.108000m/h.</desc>
<speed>0.030000</speed>
</trkpt>
<trkpt lat="21.419851" lon="105.296516">
<ele>40.283722</ele>
<time>2011-04-29T07:05:50Z</time>
<desc>lat.=21.419851, lon.=105.296516, Alt.=40.283722m. Speed=0.036000m/h.</desc>
<speed>0.010000</speed>
</trkpt>
<trkpt lat="21.419851" lon="105.296516">
<ele>40.276886</ele>
<time>2011-04-29T07:05:55Z</time>
<desc>lat.=21.419851, lon.=105.296516, Alt.=40.276886m. Speed=0.108000m/h.</desc>
<speed>0.030000</speed>
</trkpt>
<trkpt lat="21.419851" lon="105.296516">
<ele>40.261261</ele>
<time>2011-04-29T07:06:00Z</time>
<desc>lat.=21.419851, lon.=105.296516, Alt.=40.261261m. Speed=0.000000m/h.</desc>
<speed>0.000000</speed>
</trkpt>
<trkpt lat="21.419851" lon="105.296516">
<ele>40.266144</ele>
<time>2011-04-29T07:06:05Z</time>
<desc>lat.=21.419851, lon.=105.296516, Alt.=40.266144m. Speed=0.036000m/h.</desc>
<speed>0.010000</speed>
</trkpt>
<trkpt lat="21.419853" lon="105.296516">
<ele>40.243683</ele>
<time>2011-04-29T07:06:10Z</time>
<desc>lat.=21.419853, lon.=105.296516, Alt.=40.243683m. Speed=0.072000m/h.</desc>
<speed>0.020000</speed>
</trkpt>
<trkpt lat="21.419853" lon="105.296516">
<ele>40.258331</ele>
<time>2011-04-29T07:06:15Z</time>
<desc>lat.=21.419853, lon.=105.296516, Alt.=40.258331m. Speed=0.036000m/h.</desc>
<speed>0.010000</speed>
</trkpt>
<trkpt lat="21.419853" lon="105.296516">
<ele>40.241730</ele>
<time>2011-04-29T07:06:20Z</time>
<desc>lat.=21.419853, lon.=105.296516, Alt.=40.241730m. Speed=0.000000m/h.</desc>
<speed>0.000000</speed>
</trkpt>
<trkpt lat="21.419853" lon="105.296516">
<ele>40.225128</ele>
<time>2011-04-29T07:06:25Z</time>
<desc>lat.=21.419853, lon.=105.296516, Alt.=40.225128m. Speed=0.036000m/h.</desc>
<speed>0.010000</speed>
</trkpt>
<trkpt lat="21.419853" lon="105.296516">
<ele>40.215363</ele>
<time>2011-04-29T07:06:30Z</time>
<desc>lat.=21.419853, lon.=105.296516, Alt.=40.215363m. Speed=0.036000m/h.</desc>
<speed>0.010000</speed>
</trkpt>
<trkpt lat="21.419853" lon="105.296516">
<ele>40.219269</ele>
<time>2011-04-29T07:06:35Z</time>
<desc>lat.=21.419853, lon.=105.296516, Alt.=40.219269m. Speed=0.072000m/h.</desc>
<speed>0.020000</speed>
</trkpt>
<trkpt lat="21.419853" lon="105.296516">
<ele>40.230988</ele>
<time>2011-04-29T07:06:40Z</time>
<desc>lat.=21.419853, lon.=105.296516, Alt.=40.230988m. Speed=0.000000m/h.</desc>
<speed>0.000000</speed>
</trkpt>
<trkpt lat="21.419853" lon="105.296516">
<ele>40.211456</ele>
<time>2011-04-29T07:06:45Z</time>
<desc>lat.=21.419853, lon.=105.296516, Alt.=40.211456m. Speed=0.036000m/h.</desc>
<speed>0.010000</speed>
</trkpt>
<trkpt lat="21.419853" lon="105.296516">
<ele>40.206573</ele>
<time>2011-04-29T07:06:50Z</time>
<desc>lat.=21.419853, lon.=105.296516, Alt.=40.206573m. Speed=0.036000m/h.</desc>
<speed>0.010000</speed>
</trkpt>
<trkpt lat="21.419853" lon="105.296516">
<ele>40.205597</ele>
<time>2011-04-29T07:06:55Z</time>
<desc>lat.=21.419853, lon.=105.296516, Alt.=40.205597m. Speed=0.072000m/h.</desc>
<speed>0.020000</speed>
</trkpt>
<trkpt lat="21.419853" lon="105.296516">
<ele>40.182159</ele>
<time>2011-04-29T07:07:00Z</time>
<desc>lat.=21.419853, lon.=105.296516, Alt.=40.182159m. Speed=0.108000m/h.</desc>
<speed>0.030000</speed>
</trkpt>
<trkpt lat="21.419853" lon="105.296516">
<ele>40.152863</ele>
<time>2011-04-29T07:07:05Z</time>
<desc>lat.=21.419853, lon.=105.296516, Alt.=40.152863m. Speed=0.000000m/h.</desc>
<speed>0.000000</speed>
</trkpt>
<trkpt lat="21.419842" lon="105.296516">
<ele>39.010284</ele>
<time>2011-04-29T07:07:10Z</time>
<desc>lat.=21.419842, lon.=105.296516, Alt.=39.010284m. Speed=0.144000m/h.</desc>
<speed>0.040000</speed>
</trkpt>
<trkpt lat="21.419830" lon="105.296516">
<ele>38.190948</ele>
<time>2011-04-29T07:07:15Z</time>
<desc>lat.=21.419830, lon.=105.296516, Alt.=38.190948m. Speed=0.252000m/h.</desc>
<speed>0.070000</speed>
</trkpt>
<trkpt lat="21.419830" lon="105.296516">
<ele>36.378448</ele>
<time>2011-04-29T07:07:20Z</time>
<desc>lat.=21.419830, lon.=105.296516, Alt.=36.378448m. Speed=0.036000m/h.</desc>
<speed>0.010000</speed>
</trkpt>
<trkpt lat="21.419827" lon="105.296509">
<ele>35.198761</ele>
<time>2011-04-29T07:07:25Z</time>
<desc>lat.=21.419827, lon.=105.296509, Alt.=35.198761m. Speed=0.000000m/h.</desc>
<speed>0.000000</speed>
</trkpt>
<trkpt lat="21.419830" lon="105.296524">
<ele>33.554230</ele>
<time>2011-04-29T07:07:30Z</time>
<desc>lat.=21.419830, lon.=105.296524, Alt.=33.554230m. Speed=0.072000m/h.</desc>
<speed>0.020000</speed>
</trkpt>
<trkpt lat="21.419823" lon="105.296524">
<ele>32.846222</ele>
<time>2011-04-29T07:07:35Z</time>
<desc>lat.=21.419823, lon.=105.296524, Alt.=32.846222m. Speed=0.036000m/h.</desc>
<speed>0.010000</speed>
</trkpt>
<trkpt lat="21.419825" lon="105.296516">
<ele>31.777603</ele>
<time>2011-04-29T07:07:40Z</time>
<desc>lat.=21.419825, lon.=105.296516, Alt.=31.777603m. Speed=0.000000m/h.</desc>
<speed>0.000000</speed>
</trkpt>
<trkpt lat="21.419821" lon="105.296509">
<ele>30.967056</ele>
<time>2011-04-29T07:07:45Z</time>
<desc>lat.=21.419821, lon.=105.296509, Alt.=30.967056m. Speed=0.036000m/h.</desc>
<speed>0.010000</speed>
</trkpt>
<trkpt lat="21.419821" lon="105.296509">
<ele>30.782486</ele>
<time>2011-04-29T07:07:50Z</time>
<desc>lat.=21.419821, lon.=105.296509, Alt.=30.782486m. Speed=0.000000m/h.</desc>
<speed>0.000000</speed>
</trkpt>
<trkpt lat="21.419823" lon="105.296509">
<ele>30.747818</ele>
<time>2011-04-29T07:07:55Z</time>
<desc>lat.=21.419823, lon.=105.296509, Alt.=30.747818m. Speed=0.216000m/h.</desc>
<speed>0.060000</speed>
</trkpt>
<trkpt lat="21.419827" lon="105.296509">
<ele>30.677994</ele>
<time>2011-04-29T07:08:00Z</time>
<desc>lat.=21.419827, lon.=105.296509, Alt.=30.677994m. Speed=0.288000m/h.</desc>
<speed>0.080000</speed>
</trkpt>
<trkpt lat="21.419832" lon="105.296509">
<ele>30.570572</ele>
<time>2011-04-29T07:08:05Z</time>
<desc>lat.=21.419832, lon.=105.296509, Alt.=30.570572m. Speed=0.612000m/h.</desc>
<speed>0.170000</speed>
</trkpt>
<trkpt lat="21.419840" lon="105.296509">
<ele>30.363541</ele>
<time>2011-04-29T07:08:10Z</time>
<desc>lat.=21.419840, lon.=105.296509, Alt.=30.363541m. Speed=0.720000m/h.</desc>
<speed>0.200000</speed>
</trkpt>
<trkpt lat="21.419849" lon="105.296509">
<ele>30.033463</ele>
<time>2011-04-29T07:08:15Z</time>
<desc>lat.=21.419849, lon.=105.296509, Alt.=30.033463m. Speed=0.576000m/h.</desc>
<speed>0.160000</speed>
</trkpt>
<trkpt lat="21.419857" lon="105.296509">
<ele>29.587662</ele>
<time>2011-04-29T07:08:20Z</time>
<desc>lat.=21.419857, lon.=105.296509, Alt.=29.587662m. Speed=0.540000m/h.</desc>
<speed>0.150000</speed>
</trkpt>
<trkpt lat="21.419863" lon="105.296509">
<ele>29.059830</ele>
<time>2011-04-29T07:08:25Z</time>
<desc>lat.=21.419863, lon.=105.296509, Alt.=29.059830m. Speed=0.396000m/h.</desc>
<speed>0.110000</speed>
</trkpt>
<trkpt lat="21.419868" lon="105.296509">
<ele>28.412857</ele>
<time>2011-04-29T07:08:30Z</time>
<desc>lat.=21.419868, lon.=105.296509, Alt.=28.412857m. Speed=0.396000m/h.</desc>
<speed>0.110000</speed>
</trkpt>
<trkpt lat="21.419874" lon="105.296509">
<ele>27.672134</ele>
<time>2011-04-29T07:08:35Z</time>
<desc>lat.=21.419874, lon.=105.296509, Alt.=27.672134m. Speed=0.432000m/h.</desc>
<speed>0.120000</speed>
</trkpt>
<trkpt lat="21.419880" lon="105.296509">
<ele>26.820084</ele>
<time>2011-04-29T07:08:40Z</time>
<desc>lat.=21.419880, lon.=105.296509, Alt.=26.820084m. Speed=0.360000m/h.</desc>
<speed>0.100000</speed>
</trkpt>
<trkpt lat="21.419884" lon="105.296509">
<ele>25.904068</ele>
<time>2011-04-29T07:08:45Z</time>
<desc>lat.=21.419884, lon.=105.296509, Alt.=25.904068m. Speed=0.216000m/h.</desc>
<speed>0.060000</speed>
</trkpt>
<trkpt lat="21.419886" lon="105.296509">
<ele>24.937759</ele>
<time>2011-04-29T07:08:50Z</time>
<desc>lat.=21.419886, lon.=105.296509, Alt.=24.937759m. Speed=0.216000m/h.</desc>
<speed>0.060000</speed>
</trkpt>
<trkpt lat="21.419889" lon="105.296501">
<ele>23.869400</ele>
<time>2011-04-29T07:08:55Z</time>
<desc>lat.=21.419889, lon.=105.296501, Alt.=23.869400m. Speed=0.396000m/h.</desc>
<speed>0.110000</speed>
</trkpt>
<trkpt lat="21.419893" lon="105.296501">
<ele>22.754166</ele>
<time>2011-04-29T07:09:00Z</time>
<desc>lat.=21.419893, lon.=105.296501, Alt.=22.754166m. Speed=0.396000m/h.</desc>
<speed>0.110000</speed>
</trkpt>
<trkpt lat="21.419895" lon="105.296494">
<ele>21.632584</ele>
<time>2011-04-29T07:09:05Z</time>
<desc>lat.=21.419895, lon.=105.296494, Alt.=21.632584m. Speed=0.396000m/h.</desc>
<speed>0.110000</speed>
</trkpt>
<trkpt lat="21.419895" lon="105.296486">
<ele>20.409927</ele>
<time>2011-04-29T07:09:10Z</time>
<desc>lat.=21.419895, lon.=105.296486, Alt.=20.409927m. Speed=0.720000m/h.</desc>
<speed>0.200000</speed>
</trkpt>
<trkpt lat="21.419895" lon="105.296478">
<ele>19.156021</ele>
<time>2011-04-29T07:09:15Z</time>
<desc>lat.=21.419895, lon.=105.296478, Alt.=19.156021m. Speed=0.864000m/h.</desc>
<speed>0.240000</speed>
</trkpt>
<trkpt lat="21.419895" lon="105.296463">
<ele>17.908463</ele>
<time>2011-04-29T07:09:20Z</time>
<desc>lat.=21.419895, lon.=105.296463, Alt.=17.908463m. Speed=0.756000m/h.</desc>
<speed>0.210000</speed>
</trkpt>
<trkpt lat="21.419895" lon="105.296455">
<ele>16.719498</ele>
<time>2011-04-29T07:09:25Z</time>
<desc>lat.=21.419895, lon.=105.296455, Alt.=16.719498m. Speed=0.648000m/h.</desc>
<speed>0.180000</speed>
</trkpt>
<trkpt lat="21.419893" lon="105.296448">
<ele>15.604134</ele>
<time>2011-04-29T07:09:30Z</time>
<desc>lat.=21.419893, lon.=105.296448, Alt.=15.604134m. Speed=0.432000m/h.</desc>
<speed>0.120000</speed>
</trkpt>
<trkpt lat="21.419891" lon="105.296440">
<ele>14.592415</ele>
<time>2011-04-29T07:09:35Z</time>
<desc>lat.=21.419891, lon.=105.296440, Alt.=14.592415m. Speed=0.576000m/h.</desc>
<speed>0.160000</speed>
</trkpt>
<trkpt lat="21.419888" lon="105.296440">
<ele>13.686897</ele>
<time>2011-04-29T07:09:40Z</time>
<desc>lat.=21.419888, lon.=105.296440, Alt.=13.686897m. Speed=0.432000m/h.</desc>
<speed>0.120000</speed>
</trkpt>
<trkpt lat="21.419886" lon="105.296432">
<ele>12.896858</ele>
<time>2011-04-29T07:09:45Z</time>
<desc>lat.=21.419886, lon.=105.296432, Alt.=12.896858m. Speed=0.108000m/h.</desc>
<speed>0.030000</speed>
</trkpt>
<trkpt lat="21.419886" lon="105.296432">
<ele>12.187141</ele>
<time>2011-04-29T07:09:50Z</time>
<desc>lat.=21.419886, lon.=105.296432, Alt.=12.187141m. Speed=0.108000m/h.</desc>
<speed>0.030000</speed>
</trkpt>
<trkpt lat="21.419884" lon="105.296432">
<ele>11.567024</ele>
<time>2011-04-29T07:09:55Z</time>
<desc>lat.=21.419884, lon.=105.296432, Alt.=11.567024m. Speed=0.216000m/h.</desc>
<speed>0.060000</speed>
</trkpt>
<trkpt lat="21.419882" lon="105.296432">
<ele>11.052132</ele>
<time>2011-04-29T07:10:00Z</time>
<desc>lat.=21.419882, lon.=105.296432, Alt.=11.052132m. Speed=0.252000m/h.</desc>
<speed>0.070000</speed>
</trkpt>
<trkpt lat="21.419878" lon="105.296440">
<ele>10.630501</ele>
<time>2011-04-29T07:10:05Z</time>
<desc>lat.=21.419878, lon.=105.296440, Alt.=10.630501m. Speed=0.324000m/h.</desc>
<speed>0.090000</speed>
</trkpt>
<trkpt lat="21.419878" lon="105.296440">
<ele>10.351204</ele>
<time>2011-04-29T07:10:10Z</time>
<desc>lat.=21.419878, lon.=105.296440, Alt.=10.351204m. Speed=0.252000m/h.</desc>
<speed>0.070000</speed>
</trkpt>
<trkpt lat="21.419874" lon="105.296448">
<ele>10.224739</ele>
<time>2011-04-29T07:10:15Z</time>
<desc>lat.=21.419874, lon.=105.296448, Alt.=10.224739m. Speed=0.324000m/h.</desc>
<speed>0.090000</speed>
</trkpt>
<trkpt lat="21.419874" lon="105.296448">
<ele>10.210823</ele>
<time>2011-04-29T07:10:20Z</time>
<desc>lat.=21.419874, lon.=105.296448, Alt.=10.210823m. Speed=0.000000m/h.</desc>
<speed>0.000000</speed>
</trkpt>
<trkpt lat="21.419874" lon="105.296448">
<ele>10.290657</ele>
<time>2011-04-29T07:10:25Z</time>
<desc>lat.=21.419874, lon.=105.296448, Alt.=10.290657m. Speed=0.036000m/h.</desc>
<speed>0.010000</speed>
</trkpt>
<trkpt lat="21.419874" lon="105.296448">
<ele>10.376350</ele>
<time>2011-04-29T07:10:30Z</time>
<desc>lat.=21.419874, lon.=105.296448, Alt.=10.376350m. Speed=0.036000m/h.</desc>
<speed>0.010000</speed>
</trkpt>
<trkpt lat="21.419874" lon="105.296448">
<ele>10.389290</ele>
<time>2011-04-29T07:10:35Z</time>
<desc>lat.=21.419874, lon.=105.296448, Alt.=10.389290m. Speed=0.036000m/h.</desc>
<speed>0.010000</speed>
</trkpt>
<trkpt lat="21.419874" lon="105.296448">
<ele>10.403450</ele>
<time>2011-04-29T07:10:40Z</time>
<desc>lat.=21.419874, lon.=105.296448, Alt.=10.403450m. Speed=0.036000m/h.</desc>
<speed>0.010000</speed>
</trkpt>
<trkpt lat="21.419874" lon="105.296448">
<ele>10.426643</ele>
<time>2011-04-29T07:10:45Z</time>
<desc>lat.=21.419874, lon.=105.296448, Alt.=10.426643m. Speed=0.036000m/h.</desc>
<speed>0.010000</speed>
</trkpt>
<trkpt lat="21.419874" lon="105.296448">
<ele>10.457649</ele>
<time>2011-04-29T07:10:50Z</time>
<desc>lat.=21.419874, lon.=105.296448, Alt.=10.457649m. Speed=0.000000m/h.</desc>
<speed>0.000000</speed>
</trkpt>
<trkpt lat="21.419874" lon="105.296448">
<ele>10.495491</ele>
<time>2011-04-29T07:10:55Z</time>
<desc>lat.=21.419874, lon.=105.296448, Alt.=10.495491m. Speed=0.036000m/h.</desc>
<speed>0.010000</speed>
</trkpt>
<trkpt lat="21.419874" lon="105.296448">
<ele>10.533089</ele>
<time>2011-04-29T07:11:00Z</time>
<desc>lat.=21.419874, lon.=105.296448, Alt.=10.533089m. Speed=0.000000m/h.</desc>
<speed>0.000000</speed>
</trkpt>
<trkpt lat="21.419874" lon="105.296448">
<ele>10.578499</ele>
<time>2011-04-29T07:11:05Z</time>
<desc>lat.=21.419874, lon.=105.296448, Alt.=10.578499m. Speed=0.072000m/h.</desc>
<speed>0.020000</speed>
</trkpt>
<trkpt lat="21.419874" lon="105.296448">
<ele>10.617317</ele>
<time>2011-04-29T07:11:10Z</time>
<desc>lat.=21.419874, lon.=105.296448, Alt.=10.617317m. Speed=0.072000m/h.</desc>
<speed>0.020000</speed>
</trkpt>
<trkpt lat="21.419874" lon="105.296448">
<ele>10.621712</ele>
<time>2011-04-29T07:11:15Z</time>
<desc>lat.=21.419874, lon.=105.296448, Alt.=10.621712m. Speed=0.000000m/h.</desc>
<speed>0.000000</speed>
</trkpt>
<trkpt lat="21.419874" lon="105.296448">
<ele>10.647835</ele>
<time>2011-04-29T07:11:20Z</time>
<desc>lat.=21.419874, lon.=105.296448, Alt.=10.647835m. Speed=0.036000m/h.</desc>
<speed>0.010000</speed>
</trkpt>
<trkpt lat="21.419874" lon="105.296448">
<ele>10.667366</ele>
<time>2011-04-29T07:11:25Z</time>
<desc>lat.=21.419874, lon.=105.296448, Alt.=10.667366m. Speed=0.072000m/h.</desc>
<speed>0.020000</speed>
</trkpt>
<trkpt lat="21.419874" lon="105.296448">
<ele>10.705940</ele>
<time>2011-04-29T07:11:30Z</time>
<desc>lat.=21.419874, lon.=105.296448, Alt.=10.705940m. Speed=0.000000m/h.</desc>
<speed>0.000000</speed>
</trkpt>
<trkpt lat="21.419874" lon="105.296448">
<ele>10.739876</ele>
<time>2011-04-29T07:11:35Z</time>
<desc>lat.=21.419874, lon.=105.296448, Alt.=10.739876m. Speed=0.036000m/h.</desc>
<speed>0.010000</speed>
</trkpt>
<trkpt lat="21.419874" lon="105.296448">
<ele>10.768440</ele>
<time>2011-04-29T07:11:40Z</time>
<desc>lat.=21.419874, lon.=105.296448, Alt.=10.768440m. Speed=0.036000m/h.</desc>
<speed>0.010000</speed>
</trkpt>
<trkpt lat="21.419874" lon="105.296448">
<ele>10.798225</ele>
<time>2011-04-29T07:11:45Z</time>
<desc>lat.=21.419874, lon.=105.296448, Alt.=10.798225m. Speed=0.036000m/h.</desc>
<speed>0.010000</speed>
</trkpt>
<trkpt lat="21.419874" lon="105.296448">
<ele>10.823616</ele>
<time>2011-04-29T07:11:50Z</time>
<desc>lat.=21.419874, lon.=105.296448, Alt.=10.823616m. Speed=0.000000m/h.</desc>
<speed>0.000000</speed>
</trkpt>
<trkpt lat="21.419874" lon="105.296448">
<ele>10.853645</ele>
<time>2011-04-29T07:11:55Z</time>
<desc>lat.=21.419874, lon.=105.296448, Alt.=10.853645m. Speed=0.144000m/h.</desc>
<speed>0.040000</speed>
</trkpt>
<trkpt lat="21.419874" lon="105.296448">
<ele>10.877327</ele>
<time>2011-04-29T07:12:00Z</time>
<desc>lat.=21.419874, lon.=105.296448, Alt.=10.877327m. Speed=0.072000m/h.</desc>
<speed>0.020000</speed>
</trkpt>
<trkpt lat="21.419874" lon="105.296448">
<ele>10.925179</ele>
<time>2011-04-29T07:12:05Z</time>
<desc>lat.=21.419874, lon.=105.296448, Alt.=10.925179m. Speed=0.036000m/h.</desc>
<speed>0.010000</speed>
</trkpt>
<trkpt lat="21.419874" lon="105.296448">
<ele>10.962532</ele>
<time>2011-04-29T07:12:10Z</time>
<desc>lat.=21.419874, lon.=105.296448, Alt.=10.962532m. Speed=0.036000m/h.</desc>
<speed>0.010000</speed>
</trkpt>
<trkpt lat="21.419874" lon="105.296448">
<ele>10.994514</ele>
<time>2011-04-29T07:12:15Z</time>
<desc>lat.=21.419874, lon.=105.296448, Alt.=10.994514m. Speed=0.036000m/h.</desc>
<speed>0.010000</speed>
</trkpt>
<trkpt lat="21.419874" lon="105.296448">
<ele>11.037239</ele>
<time>2011-04-29T07:12:20Z</time>
<desc>lat.=21.419874, lon.=105.296448, Alt.=11.037239m. Speed=0.072000m/h.</desc>
<speed>0.020000</speed>
</trkpt>
<trkpt lat="21.419874" lon="105.296448">
<ele>11.096809</ele>
<time>2011-04-29T07:12:25Z</time>
<desc>lat.=21.419874, lon.=105.296448, Alt.=11.096809m. Speed=0.036000m/h.</desc>
<speed>0.010000</speed>
</trkpt>
<trkpt lat="21.419874" lon="105.296448">
<ele>11.161507</ele>
<time>2011-04-29T07:12:30Z</time>
<desc>lat.=21.419874, lon.=105.296448, Alt.=11.161507m. Speed=0.036000m/h.</desc>
<speed>0.010000</speed>
</trkpt>
<trkpt lat="21.419874" lon="105.296448">
<ele>11.217415</ele>
<time>2011-04-29T07:12:35Z</time>
<desc>lat.=21.419874, lon.=105.296448, Alt.=11.217415m. Speed=0.036000m/h.</desc>
<speed>0.010000</speed>
</trkpt>
<trkpt lat="21.419874" lon="105.296448">
<ele>11.265022</ele>
<time>2011-04-29T07:12:40Z</time>
<desc>lat.=21.419874, lon.=105.296448, Alt.=11.265022m. Speed=0.036000m/h.</desc>
<speed>0.010000</speed>
</trkpt>
<trkpt lat="21.419874" lon="105.296448">
<ele>11.303841</ele>
<time>2011-04-29T07:12:45Z</time>
<desc>lat.=21.419874, lon.=105.296448, Alt.=11.303841m. Speed=0.036000m/h.</desc>
<speed>0.010000</speed>
</trkpt>
<trkpt lat="21.419874" lon="105.296448">
<ele>11.355354</ele>
<time>2011-04-29T07:12:50Z</time>
<desc>lat.=21.419874, lon.=105.296448, Alt.=11.355354m. Speed=0.036000m/h.</desc>
<speed>0.010000</speed>
</trkpt>
<trkpt lat="21.419874" lon="105.296455">
<ele>11.405647</ele>
<time>2011-04-29T07:12:55Z</time>
<desc>lat.=21.419874, lon.=105.296455, Alt.=11.405647m. Speed=0.072000m/h.</desc>
<speed>0.020000</speed>
</trkpt>
<trkpt lat="21.419874" lon="105.296455">
<ele>11.467903</ele>
<time>2011-04-29T07:13:00Z</time>
<desc>lat.=21.419874, lon.=105.296455, Alt.=11.467903m. Speed=0.000000m/h.</desc>
<speed>0.000000</speed>
</trkpt>
<trkpt lat="21.419874" lon="105.296455">
<ele>11.556526</ele>
<time>2011-04-29T07:13:05Z</time>
<desc>lat.=21.419874, lon.=105.296455, Alt.=11.556526m. Speed=0.108000m/h.</desc>
<speed>0.030000</speed>
</trkpt>
<trkpt lat="21.419874" lon="105.296455">
<ele>11.657112</ele>
<time>2011-04-29T07:13:10Z</time>
<desc>lat.=21.419874, lon.=105.296455, Alt.=11.657112m. Speed=0.072000m/h.</desc>
<speed>0.020000</speed>
</trkpt>
<trkpt lat="21.419874" lon="105.296455">
<ele>11.748177</ele>
<time>2011-04-29T07:13:15Z</time>
<desc>lat.=21.419874, lon.=105.296455, Alt.=11.748177m. Speed=0.072000m/h.</desc>
<speed>0.020000</speed>
</trkpt>
<trkpt lat="21.419874" lon="105.296455">
<ele>11.819221</ele>
<time>2011-04-29T07:13:20Z</time>
<desc>lat.=21.419874, lon.=105.296455, Alt.=11.819221m. Speed=0.000000m/h.</desc>
<speed>0.000000</speed>
</trkpt>
<trkpt lat="21.419874" lon="105.296455">
<ele>11.905403</ele>
<time>2011-04-29T07:13:25Z</time>
<desc>lat.=21.419874, lon.=105.296455, Alt.=11.905403m. Speed=0.036000m/h.</desc>
<speed>0.010000</speed>
</trkpt>
<trkpt lat="21.419874" lon="105.296455">
<ele>11.961555</ele>
<time>2011-04-29T07:13:30Z</time>
<desc>lat.=21.419874, lon.=105.296455, Alt.=11.961555m. Speed=0.036000m/h.</desc>
<speed>0.010000</speed>
</trkpt>
<trkpt lat="21.419874" lon="105.296455">
<ele>12.052376</ele>
<time>2011-04-29T07:13:35Z</time>
<desc>lat.=21.419874, lon.=105.296455, Alt.=12.052376m. Speed=0.072000m/h.</desc>
<speed>0.020000</speed>
</trkpt>
<trkpt lat="21.419874" lon="105.296455">
<ele>12.113411</ele>
<time>2011-04-29T07:13:40Z</time>
<desc>lat.=21.419874, lon.=105.296455, Alt.=12.113411m. Speed=0.108000m/h.</desc>
<speed>0.030000</speed>
</trkpt>
<trkpt lat="21.419874" lon="105.296455">
<ele>12.191780</ele>
<time>2011-04-29T07:13:45Z</time>
<desc>lat.=21.419874, lon.=105.296455, Alt.=12.191780m. Speed=0.036000m/h.</desc>
<speed>0.010000</speed>
</trkpt>
<trkpt lat="21.419872" lon="105.296455">
<ele>12.260384</ele>
<time>2011-04-29T07:13:50Z</time>
<desc>lat.=21.419872, lon.=105.296455, Alt.=12.260384m. Speed=0.072000m/h.</desc>
<speed>0.020000</speed>
</trkpt>
<trkpt lat="21.419872" lon="105.296455">
<ele>12.322151</ele>
<time>2011-04-29T07:13:55Z</time>
<desc>lat.=21.419872, lon.=105.296455, Alt.=12.322151m. Speed=0.000000m/h.</desc>
<speed>0.000000</speed>
</trkpt>
<trkpt lat="21.419872" lon="105.296455">
<ele>12.365852</ele>
<time>2011-04-29T07:14:00Z</time>
<desc>lat.=21.419872, lon.=105.296455, Alt.=12.365852m. Speed=0.036000m/h.</desc>
<speed>0.010000</speed>
</trkpt>
<trkpt lat="21.419872" lon="105.296455">
<ele>12.395638</ele>
<time>2011-04-29T07:14:05Z</time>
<desc>lat.=21.419872, lon.=105.296455, Alt.=12.395638m. Speed=0.000000m/h.</desc>
<speed>0.000000</speed>
</trkpt>
<trkpt lat="21.419872" lon="105.296455">
<ele>12.429573</ele>
<time>2011-04-29T07:14:10Z</time>
<desc>lat.=21.419872, lon.=105.296455, Alt.=12.429573m. Speed=0.036000m/h.</desc>
<speed>0.010000</speed>
</trkpt>
<trkpt lat="21.419872" lon="105.296455">
<ele>12.470345</ele>
<time>2011-04-29T07:14:15Z</time>
<desc>lat.=21.419872, lon.=105.296455, Alt.=12.470345m. Speed=0.072000m/h.</desc>
<speed>0.020000</speed>
</trkpt>
<trkpt lat="21.419872" lon="105.296455">
<ele>12.482063</ele>
<time>2011-04-29T07:14:20Z</time>
<desc>lat.=21.419872, lon.=105.296455, Alt.=12.482063m. Speed=0.036000m/h.</desc>
<speed>0.010000</speed>
</trkpt>
<trkpt lat="21.419870" lon="105.296455">
<ele>12.492317</ele>
<time>2011-04-29T07:14:25Z</time>
<desc>lat.=21.419870, lon.=105.296455, Alt.=12.492317m. Speed=0.072000m/h.</desc>
<speed>0.020000</speed>
</trkpt>
<trkpt lat="21.419870" lon="105.296455">
<ele>12.493050</ele>
<time>2011-04-29T07:14:30Z</time>
<desc>lat.=21.419870, lon.=105.296455, Alt.=12.493050m. Speed=0.036000m/h.</desc>
<speed>0.010000</speed>
</trkpt>
<trkpt lat="21.419870" lon="105.296455">
<ele>12.499397</ele>
<time>2011-04-29T07:14:35Z</time>
<desc>lat.=21.419870, lon.=105.296455, Alt.=12.499397m. Speed=0.036000m/h.</desc>
<speed>0.010000</speed>
</trkpt>
<trkpt lat="21.419870" lon="105.296455">
<ele>12.493782</ele>
<time>2011-04-29T07:14:40Z</time>
<desc>lat.=21.419870, lon.=105.296455, Alt.=12.493782m. Speed=0.108000m/h.</desc>
<speed>0.030000</speed>
</trkpt>
<trkpt lat="21.419870" lon="105.296455">
<ele>12.496468</ele>
<time>2011-04-29T07:14:45Z</time>
<desc>lat.=21.419870, lon.=105.296455, Alt.=12.496468m. Speed=0.000000m/h.</desc>
<speed>0.000000</speed>
</trkpt>
<trkpt lat="21.419870" lon="105.296455">
<ele>12.504280</ele>
<time>2011-04-29T07:14:50Z</time>
<desc>lat.=21.419870, lon.=105.296455, Alt.=12.504280m. Speed=0.108000m/h.</desc>
<speed>0.030000</speed>
</trkpt>
<trkpt lat="21.419868" lon="105.296455">
<ele>12.508186</ele>
<time>2011-04-29T07:14:55Z</time>
<desc>lat.=21.419868, lon.=105.296455, Alt.=12.508186m. Speed=0.000000m/h.</desc>
<speed>0.000000</speed>
</trkpt>
<trkpt lat="21.419868" lon="105.296455">
<ele>12.509163</ele>
<time>2011-04-29T07:15:00Z</time>
<desc>lat.=21.419868, lon.=105.296455, Alt.=12.509163m. Speed=0.072000m/h.</desc>
<speed>0.020000</speed>
</trkpt>
<trkpt lat="21.419868" lon="105.296455">
<ele>12.548958</ele>
<time>2011-04-29T07:15:05Z</time>
<desc>lat.=21.419868, lon.=105.296455, Alt.=12.548958m. Speed=0.108000m/h.</desc>
<speed>0.030000</speed>
</trkpt>
<trkpt lat="21.419870" lon="105.296455">
<ele>12.587532</ele>
<time>2011-04-29T07:15:10Z</time>
<desc>lat.=21.419870, lon.=105.296455, Alt.=12.587532m. Speed=0.036000m/h.</desc>
<speed>0.010000</speed>
</trkpt>
<trkpt lat="21.419868" lon="105.296455">
<ele>12.655891</ele>
<time>2011-04-29T07:15:15Z</time>
<desc>lat.=21.419868, lon.=105.296455, Alt.=12.655891m. Speed=0.072000m/h.</desc>
<speed>0.020000</speed>
</trkpt>
<trkpt lat="21.419868" lon="105.296455">
<ele>12.693245</ele>
<time>2011-04-29T07:15:20Z</time>
<desc>lat.=21.419868, lon.=105.296455, Alt.=12.693245m. Speed=0.072000m/h.</desc>
<speed>0.020000</speed>
</trkpt>
<trkpt lat="21.419868" lon="105.296455">
<ele>12.740364</ele>
<time>2011-04-29T07:15:25Z</time>
<desc>lat.=21.419868, lon.=105.296455, Alt.=12.740364m. Speed=0.072000m/h.</desc>
<speed>0.020000</speed>
</trkpt>
<trkpt lat="21.419868" lon="105.296455">
<ele>12.783577</ele>
<time>2011-04-29T07:15:30Z</time>
<desc>lat.=21.419868, lon.=105.296455, Alt.=12.783577m. Speed=0.000000m/h.</desc>
<speed>0.000000</speed>
</trkpt>
<trkpt lat="21.419870" lon="105.296455">
<ele>12.823860</ele>
<time>2011-04-29T07:15:35Z</time>
<desc>lat.=21.419870, lon.=105.296455, Alt.=12.823860m. Speed=0.000000m/h.</desc>
<speed>0.000000</speed>
</trkpt>
<trkpt lat="21.419870" lon="105.296455">
<ele>12.848518</ele>
<time>2011-04-29T07:15:40Z</time>
<desc>lat.=21.419870, lon.=105.296455, Alt.=12.848518m. Speed=0.036000m/h.</desc>
<speed>0.010000</speed>
</trkpt>
<trkpt lat="21.419870" lon="105.296455">
<ele>12.907356</ele>
<time>2011-04-29T07:15:45Z</time>
<desc>lat.=21.419870, lon.=105.296455, Alt.=12.907356m. Speed=0.072000m/h.</desc>
<speed>0.020000</speed>
</trkpt>
<trkpt lat="21.419868" lon="105.296455">
<ele>12.961067</ele>
<time>2011-04-29T07:15:50Z</time>
<desc>lat.=21.419868, lon.=105.296455, Alt.=12.961067m. Speed=0.108000m/h.</desc>
<speed>0.030000</speed>
</trkpt>
<trkpt lat="21.419868" lon="105.296463">
<ele>13.002815</ele>
<time>2011-04-29T07:15:55Z</time>
<desc>lat.=21.419868, lon.=105.296463, Alt.=13.002815m. Speed=0.108000m/h.</desc>
<speed>0.030000</speed>
</trkpt>
<trkpt lat="21.419868" lon="105.296463">
<ele>13.052376</ele>
<time>2011-04-29T07:16:00Z</time>
<desc>lat.=21.419868, lon.=105.296463, Alt.=13.052376m. Speed=0.072000m/h.</desc>
<speed>0.020000</speed>
</trkpt>
<trkpt lat="21.419868" lon="105.296463">
<ele>13.096565</ele>
<time>2011-04-29T07:16:05Z</time>
<desc>lat.=21.419868, lon.=105.296463, Alt.=13.096565m. Speed=0.108000m/h.</desc>
<speed>0.030000</speed>
</trkpt>
<trkpt lat="21.419868" lon="105.296463">
<ele>13.155647</ele>
<time>2011-04-29T07:16:10Z</time>
<desc>lat.=21.419868, lon.=105.296463, Alt.=13.155647m. Speed=0.072000m/h.</desc>
<speed>0.020000</speed>
</trkpt>
<trkpt lat="21.419867" lon="105.296463">
<ele>13.210823</ele>
<time>2011-04-29T07:16:15Z</time>
<desc>lat.=21.419867, lon.=105.296463, Alt.=13.210823m. Speed=0.036000m/h.</desc>
<speed>0.010000</speed>
</trkpt>
<trkpt lat="21.419867" lon="105.296463">
<ele>13.247200</ele>
<time>2011-04-29T07:16:20Z</time>
<desc>lat.=21.419867, lon.=105.296463, Alt.=13.247200m. Speed=0.108000m/h.</desc>
<speed>0.030000</speed>
</trkpt>
<trkpt lat="21.419867" lon="105.296463">
<ele>13.288948</ele>
<time>2011-04-29T07:16:25Z</time>
<desc>lat.=21.419867, lon.=105.296463, Alt.=13.288948m. Speed=0.072000m/h.</desc>
<speed>0.020000</speed>
</trkpt>
<trkpt lat="21.419867" lon="105.296463">
<ele>13.327522</ele>
<time>2011-04-29T07:16:30Z</time>
<desc>lat.=21.419867, lon.=105.296463, Alt.=13.327522m. Speed=0.072000m/h.</desc>
<speed>0.020000</speed>
</trkpt>
<trkpt lat="21.419865" lon="105.296463">
<ele>13.362434</ele>
<time>2011-04-29T07:16:35Z</time>
<desc>lat.=21.419865, lon.=105.296463, Alt.=13.362434m. Speed=0.036000m/h.</desc>
<speed>0.010000</speed>
</trkpt>
<trkpt lat="21.419865" lon="105.296463">
<ele>13.415901</ele>
<time>2011-04-29T07:16:40Z</time>
<desc>lat.=21.419865, lon.=105.296463, Alt.=13.415901m. Speed=0.144000m/h.</desc>
<speed>0.040000</speed>
</trkpt>
<trkpt lat="21.419865" lon="105.296463">
<ele>13.452034</ele>
<time>2011-04-29T07:16:45Z</time>
<desc>lat.=21.419865, lon.=105.296463, Alt.=13.452034m. Speed=0.072000m/h.</desc>
<speed>0.020000</speed>
</trkpt>
<trkpt lat="21.419865" lon="105.296463">
<ele>13.469612</ele>
<time>2011-04-29T07:16:50Z</time>
<desc>lat.=21.419865, lon.=105.296463, Alt.=13.469612m. Speed=0.072000m/h.</desc>
<speed>0.020000</speed>
</trkpt>
<trkpt lat="21.419865" lon="105.296463">
<ele>13.509163</ele>
<time>2011-04-29T07:16:55Z</time>
<desc>lat.=21.419865, lon.=105.296463, Alt.=13.509163m. Speed=0.072000m/h.</desc>
<speed>0.020000</speed>
</trkpt>
<trkpt lat="21.419863" lon="105.296463">
<ele>13.548958</ele>
<time>2011-04-29T07:17:00Z</time>
<desc>lat.=21.419863, lon.=105.296463, Alt.=13.548958m. Speed=0.252000m/h.</desc>
<speed>0.070000</speed>
</trkpt>
<trkpt lat="21.419859" lon="105.296471">
<ele>13.623909</ele>
<time>2011-04-29T07:17:05Z</time>
<desc>lat.=21.419859, lon.=105.296471, Alt.=13.623909m. Speed=0.504000m/h.</desc>
<speed>0.140000</speed>
</trkpt>
<trkpt lat="21.419853" lon="105.296478">
<ele>13.727180</ele>
<time>2011-04-29T07:17:10Z</time>
<desc>lat.=21.419853, lon.=105.296478, Alt.=13.727180m. Speed=0.684000m/h.</desc>
<speed>0.190000</speed>
</trkpt>
<trkpt lat="21.419846" lon="105.296486">
<ele>13.903206</ele>
<time>2011-04-29T07:17:15Z</time>
<desc>lat.=21.419846, lon.=105.296486, Alt.=13.903206m. Speed=0.828000m/h.</desc>
<speed>0.230000</speed>
</trkpt>
<trkpt lat="21.419836" lon="105.296486">
<ele>14.135872</ele>
<time>2011-04-29T07:17:20Z</time>
<desc>lat.=21.419836, lon.=105.296486, Alt.=14.135872m. Speed=0.864000m/h.</desc>
<speed>0.240000</speed>
</trkpt>
<trkpt lat="21.419827" lon="105.296494">
<ele>14.420052</ele>
<time>2011-04-29T07:17:25Z</time>
<desc>lat.=21.419827, lon.=105.296494, Alt.=14.420052m. Speed=0.828000m/h.</desc>
<speed>0.230000</speed>
</trkpt>
<trkpt lat="21.419819" lon="105.296501">
<ele>14.743294</ele>
<time>2011-04-29T07:17:30Z</time>
<desc>lat.=21.419819, lon.=105.296501, Alt.=14.743294m. Speed=0.504000m/h.</desc>
<speed>0.140000</speed>
</trkpt>
<trkpt lat="21.419815" lon="105.296509">
<ele>15.086800</ele>
<time>2011-04-29T07:17:35Z</time>
<desc>lat.=21.419815, lon.=105.296509, Alt.=15.086800m. Speed=0.504000m/h.</desc>
<speed>0.140000</speed>
</trkpt>
<trkpt lat="21.419813" lon="105.296509">
<ele>15.489876</ele>
<time>2011-04-29T07:17:40Z</time>
<desc>lat.=21.419813, lon.=105.296509, Alt.=15.489876m. Speed=0.396000m/h.</desc>
<speed>0.110000</speed>
</trkpt>
<trkpt lat="21.419811" lon="105.296516">
<ele>15.941048</ele>
<time>2011-04-29T07:17:45Z</time>
<desc>lat.=21.419811, lon.=105.296516, Alt.=15.941048m. Speed=0.396000m/h.</desc>
<speed>0.110000</speed>
</trkpt>
<trkpt lat="21.419811" lon="105.296524">
<ele>16.374283</ele>
<time>2011-04-29T07:17:50Z</time>
<desc>lat.=21.419811, lon.=105.296524, Alt.=16.374283m. Speed=0.432000m/h.</desc>
<speed>0.120000</speed>
</trkpt>
<trkpt lat="21.419811" lon="105.296524">
<ele>16.882095</ele>
<time>2011-04-29T07:17:55Z</time>
<desc>lat.=21.419811, lon.=105.296524, Alt.=16.882095m. Speed=0.288000m/h.</desc>
<speed>0.080000</speed>
</trkpt>
<trkpt lat="21.419811" lon="105.296532">
<ele>17.481216</ele>
<time>2011-04-29T07:18:00Z</time>
<desc>lat.=21.419811, lon.=105.296532, Alt.=17.481216m. Speed=0.432000m/h.</desc>
<speed>0.120000</speed>
</trkpt>
<trkpt lat="21.419811" lon="105.296539">
<ele>18.161880</ele>
<time>2011-04-29T07:18:05Z</time>
<desc>lat.=21.419811, lon.=105.296539, Alt.=18.161880m. Speed=0.108000m/h.</desc>
<speed>0.030000</speed>
</trkpt>
<trkpt lat="21.419813" lon="105.296539">
<ele>18.942154</ele>
<time>2011-04-29T07:18:10Z</time>
<desc>lat.=21.419813, lon.=105.296539, Alt.=18.942154m. Speed=0.144000m/h.</desc>
<speed>0.040000</speed>
</trkpt>
<trkpt lat="21.419815" lon="105.296539">
<ele>19.832779</ele>
<time>2011-04-29T07:18:15Z</time>
<desc>lat.=21.419815, lon.=105.296539, Alt.=19.832779m. Speed=0.252000m/h.</desc>
<speed>0.070000</speed>
</trkpt>
<trkpt lat="21.419817" lon="105.296547">
<ele>20.891861</ele>
<time>2011-04-29T07:18:20Z</time>
<desc>lat.=21.419817, lon.=105.296547, Alt.=20.891861m. Speed=0.324000m/h.</desc>
<speed>0.090000</speed>
</trkpt>
<trkpt lat="21.419823" lon="105.296547">
<ele>22.172623</ele>
<time>2011-04-29T07:18:25Z</time>
<desc>lat.=21.419823, lon.=105.296547, Alt.=22.172623m. Speed=0.468000m/h.</desc>
<speed>0.130000</speed>
</trkpt>
<trkpt lat="21.419828" lon="105.296547">
<ele>23.626236</ele>
<time>2011-04-29T07:18:30Z</time>
<desc>lat.=21.419828, lon.=105.296547, Alt.=23.626236m. Speed=0.684000m/h.</desc>
<speed>0.190000</speed>
</trkpt>
<trkpt lat="21.419838" lon="105.296547">
<ele>25.146255</ele>
<time>2011-04-29T07:18:35Z</time>
<desc>lat.=21.419838, lon.=105.296547, Alt.=25.146255m. Speed=0.612000m/h.</desc>
<speed>0.170000</speed>
</trkpt>
<trkpt lat="21.419844" lon="105.296555">
<ele>26.718033</ele>
<time>2011-04-29T07:18:40Z</time>
<desc>lat.=21.419844, lon.=105.296555, Alt.=26.718033m. Speed=0.540000m/h.</desc>
<speed>0.150000</speed>
</trkpt>
<trkpt lat="21.419851" lon="105.296555">
<ele>28.341080</ele>
<time>2011-04-29T07:18:45Z</time>
<desc>lat.=21.419851, lon.=105.296555, Alt.=28.341080m. Speed=0.576000m/h.</desc>
<speed>0.160000</speed>
</trkpt>
<trkpt lat="21.419857" lon="105.296555">
<ele>29.973892</ele>
<time>2011-04-29T07:18:50Z</time>
<desc>lat.=21.419857, lon.=105.296555, Alt.=29.973892m. Speed=0.432000m/h.</desc>
<speed>0.120000</speed>
</trkpt>
<trkpt lat="21.419863" lon="105.296555">
<ele>31.599380</ele>
<time>2011-04-29T07:18:55Z</time>
<desc>lat.=21.419863, lon.=105.296555, Alt.=31.599380m. Speed=0.360000m/h.</desc>
<speed>0.100000</speed>
</trkpt>
<trkpt lat="21.419867" lon="105.296555">
<ele>33.181183</ele>
<time>2011-04-29T07:19:00Z</time>
<desc>lat.=21.419867, lon.=105.296555, Alt.=33.181183m. Speed=0.252000m/h.</desc>
<speed>0.070000</speed>
</trkpt>
<trkpt lat="21.419868" lon="105.296547">
<ele>34.757355</ele>
<time>2011-04-29T07:19:05Z</time>
<desc>lat.=21.419868, lon.=105.296547, Alt.=34.757355m. Speed=0.396000m/h.</desc>
<speed>0.110000</speed>
</trkpt>
<trkpt lat="21.419872" lon="105.296547">
<ele>36.332550</ele>
<time>2011-04-29T07:19:10Z</time>
<desc>lat.=21.419872, lon.=105.296547, Alt.=36.332550m. Speed=0.180000m/h.</desc>
<speed>0.050000</speed>
</trkpt>
<trkpt lat="21.419874" lon="105.296547">
<ele>37.933136</ele>
<time>2011-04-29T07:19:15Z</time>
<desc>lat.=21.419874, lon.=105.296547, Alt.=37.933136m. Speed=0.108000m/h.</desc>
<speed>0.030000</speed>
</trkpt>
<trkpt lat="21.419876" lon="105.296547">
<ele>39.584503</ele>
<time>2011-04-29T07:19:20Z</time>
<desc>lat.=21.419876, lon.=105.296547, Alt.=39.584503m. Speed=0.036000m/h.</desc>
<speed>0.010000</speed>
</trkpt>
<trkpt lat="21.419876" lon="105.296547">
<ele>41.272980</ele>
<time>2011-04-29T07:19:25Z</time>
<desc>lat.=21.419876, lon.=105.296547, Alt.=41.272980m. Speed=0.144000m/h.</desc>
<speed>0.040000</speed>
</trkpt>
<trkpt lat="21.419874" lon="105.296547">
<ele>42.963409</ele>
<time>2011-04-29T07:19:30Z</time>
<desc>lat.=21.419874, lon.=105.296547, Alt.=42.963409m. Speed=0.144000m/h.</desc>
<speed>0.040000</speed>
</trkpt>
<trkpt lat="21.419874" lon="105.296547">
<ele>44.659698</ele>
<time>2011-04-29T07:19:35Z</time>
<desc>lat.=21.419874, lon.=105.296547, Alt.=44.659698m. Speed=0.072000m/h.</desc>
<speed>0.020000</speed>
</trkpt>
<trkpt lat="21.419872" lon="105.296547">
<ele>46.335480</ele>
<time>2011-04-29T07:19:40Z</time>
<desc>lat.=21.419872, lon.=105.296547, Alt.=46.335480m. Speed=0.144000m/h.</desc>
<speed>0.040000</speed>
</trkpt>
<trkpt lat="21.419870" lon="105.296547">
<ele>48.003448</ele>
<time>2011-04-29T07:19:45Z</time>
<desc>lat.=21.419870, lon.=105.296547, Alt.=48.003448m. Speed=0.072000m/h.</desc>
<speed>0.020000</speed>
</trkpt>
<trkpt lat="21.419870" lon="105.296547">
<ele>48.162628</ele>
<time>2011-04-29T07:19:50Z</time>
<desc>lat.=21.419870, lon.=105.296547, Alt.=48.162628m. Speed=0.072000m/h.</desc>
<speed>0.020000</speed>
</trkpt>
<trkpt lat="21.419870" lon="105.296547">
<ele>48.233917</ele>
<time>2011-04-29T07:19:55Z</time>
<desc>lat.=21.419870, lon.=105.296547, Alt.=48.233917m. Speed=0.072000m/h.</desc>
<speed>0.020000</speed>
</trkpt>
<trkpt lat="21.419870" lon="105.296555">
<ele>48.247589</ele>
<time>2011-04-29T07:20:00Z</time>
<desc>lat.=21.419870, lon.=105.296555, Alt.=48.247589m. Speed=0.072000m/h.</desc>
<speed>0.020000</speed>
</trkpt>
<trkpt lat="21.419870" lon="105.296555">
<ele>48.230011</ele>
<time>2011-04-29T07:20:05Z</time>
<desc>lat.=21.419870, lon.=105.296555, Alt.=48.230011m. Speed=0.036000m/h.</desc>
<speed>0.010000</speed>
</trkpt>
<trkpt lat="21.419870" lon="105.296555">
<ele>48.212433</ele>
<time>2011-04-29T07:20:10Z</time>
<desc>lat.=21.419870, lon.=105.296555, Alt.=48.212433m. Speed=0.144000m/h.</desc>
<speed>0.040000</speed>
</trkpt>
<trkpt lat="21.419872" lon="105.296555">
<ele>48.186066</ele>
<time>2011-04-29T07:20:15Z</time>
<desc>lat.=21.419872, lon.=105.296555, Alt.=48.186066m. Speed=0.036000m/h.</desc>
<speed>0.010000</speed>
</trkpt>
<trkpt lat="21.419870" lon="105.296555">
<ele>48.170441</ele>
<time>2011-04-29T07:20:20Z</time>
<desc>lat.=21.419870, lon.=105.296555, Alt.=48.170441m. Speed=0.036000m/h.</desc>
<speed>0.010000</speed>
</trkpt>
<trkpt lat="21.419870" lon="105.296555">
<ele>48.130402</ele>
<time>2011-04-29T07:20:25Z</time>
<desc>lat.=21.419870, lon.=105.296555, Alt.=48.130402m. Speed=0.072000m/h.</desc>
<speed>0.020000</speed>
</trkpt>
<trkpt lat="21.419870" lon="105.296555">
<ele>48.118683</ele>
<time>2011-04-29T07:20:30Z</time>
<desc>lat.=21.419870, lon.=105.296555, Alt.=48.118683m. Speed=0.072000m/h.</desc>
<speed>0.020000</speed>
</trkpt>
<trkpt lat="21.419870" lon="105.296555">
<ele>48.110870</ele>
<time>2011-04-29T07:20:35Z</time>
<desc>lat.=21.419870, lon.=105.296555, Alt.=48.110870m. Speed=0.144000m/h.</desc>
<speed>0.040000</speed>
</trkpt>
<trkpt lat="21.419870" lon="105.296555">
<ele>48.105988</ele>
<time>2011-04-29T07:20:40Z</time>
<desc>lat.=21.419870, lon.=105.296555, Alt.=48.105988m. Speed=0.000000m/h.</desc>
<speed>0.000000</speed>
</trkpt>
<trkpt lat="21.419870" lon="105.296555">
<ele>48.097198</ele>
<time>2011-04-29T07:20:45Z</time>
<desc>lat.=21.419870, lon.=105.296555, Alt.=48.097198m. Speed=0.072000m/h.</desc>
<speed>0.020000</speed>
</trkpt>
<trkpt lat="21.419868" lon="105.296547">
<ele>48.078644</ele>
<time>2011-04-29T07:20:50Z</time>
<desc>lat.=21.419868, lon.=105.296547, Alt.=48.078644m. Speed=0.216000m/h.</desc>
<speed>0.060000</speed>
</trkpt>
<trkpt lat="21.419868" lon="105.296547">
<ele>48.065948</ele>
<time>2011-04-29T07:20:55Z</time>
<desc>lat.=21.419868, lon.=105.296547, Alt.=48.065948m. Speed=0.036000m/h.</desc>
<speed>0.010000</speed>
</trkpt>
<trkpt lat="21.419868" lon="105.296547">
<ele>48.046417</ele>
<time>2011-04-29T07:21:00Z</time>
<desc>lat.=21.419868, lon.=105.296547, Alt.=48.046417m. Speed=0.072000m/h.</desc>
<speed>0.020000</speed>
</trkpt>
<trkpt lat="21.419868" lon="105.296547">
<ele>48.035675</ele>
<time>2011-04-29T07:21:05Z</time>
<desc>lat.=21.419868, lon.=105.296547, Alt.=48.035675m. Speed=0.036000m/h.</desc>
<speed>0.010000</speed>
</trkpt>
<trkpt lat="21.419867" lon="105.296547">
<ele>48.019073</ele>
<time>2011-04-29T07:21:10Z</time>
<desc>lat.=21.419867, lon.=105.296547, Alt.=48.019073m. Speed=0.072000m/h.</desc>
<speed>0.020000</speed>
</trkpt>
<trkpt lat="21.419867" lon="105.296547">
<ele>48.007355</ele>
<time>2011-04-29T07:21:15Z</time>
<desc>lat.=21.419867, lon.=105.296547, Alt.=48.007355m. Speed=0.072000m/h.</desc>
<speed>0.020000</speed>
</trkpt>
<trkpt lat="21.419867" lon="105.296547">
<ele>47.998566</ele>
<time>2011-04-29T07:21:20Z</time>
<desc>lat.=21.419867, lon.=105.296547, Alt.=47.998566m. Speed=0.072000m/h.</desc>
<speed>0.020000</speed>
</trkpt>
<trkpt lat="21.419867" lon="105.296547">
<ele>47.993683</ele>
<time>2011-04-29T07:21:25Z</time>
<desc>lat.=21.419867, lon.=105.296547, Alt.=47.993683m. Speed=0.036000m/h.</desc>
<speed>0.010000</speed>
</trkpt>
<trkpt lat="21.419867" lon="105.296547">
<ele>47.998566</ele>
<time>2011-04-29T07:21:30Z</time>
<desc>lat.=21.419867, lon.=105.296547, Alt.=47.998566m. Speed=0.036000m/h.</desc>
<speed>0.010000</speed>
</trkpt>
<trkpt lat="21.419867" lon="105.296547">
<ele>48.007355</ele>
<time>2011-04-29T07:21:35Z</time>
<desc>lat.=21.419867, lon.=105.296547, Alt.=48.007355m. Speed=0.000000m/h.</desc>
<speed>0.000000</speed>
</trkpt>
<trkpt lat="21.419867" lon="105.296547">
<ele>48.002472</ele>
<time>2011-04-29T07:21:40Z</time>
<desc>lat.=21.419867, lon.=105.296547, Alt.=48.002472m. Speed=0.108000m/h.</desc>
<speed>0.030000</speed>
</trkpt>
<trkpt lat="21.419867" lon="105.296547">
<ele>47.992706</ele>
<time>2011-04-29T07:21:45Z</time>
<desc>lat.=21.419867, lon.=105.296547, Alt.=47.992706m. Speed=0.072000m/h.</desc>
<speed>0.020000</speed>
</trkpt>
<trkpt lat="21.419868" lon="105.296547">
<ele>47.978058</ele>
<time>2011-04-29T07:21:50Z</time>
<desc>lat.=21.419868, lon.=105.296547, Alt.=47.978058m. Speed=0.108000m/h.</desc>
<speed>0.030000</speed>
</trkpt>
<trkpt lat="21.419868" lon="105.296547">
<ele>47.965363</ele>
<time>2011-04-29T07:21:55Z</time>
<desc>lat.=21.419868, lon.=105.296547, Alt.=47.965363m. Speed=0.072000m/h.</desc>
<speed>0.020000</speed>
</trkpt>
<trkpt lat="21.419868" lon="105.296547">
<ele>47.904816</ele>
<time>2011-04-29T07:22:00Z</time>
<desc>lat.=21.419868, lon.=105.296547, Alt.=47.904816m. Speed=0.072000m/h.</desc>
<speed>0.020000</speed>
</trkpt>
<trkpt lat="21.419868" lon="105.296547">
<ele>47.889191</ele>
<time>2011-04-29T07:22:05Z</time>
<desc>lat.=21.419868, lon.=105.296547, Alt.=47.889191m. Speed=0.072000m/h.</desc>
<speed>0.020000</speed>
</trkpt>
<trkpt lat="21.419868" lon="105.296547">
<ele>47.888214</ele>
<time>2011-04-29T07:22:10Z</time>
<desc>lat.=21.419868, lon.=105.296547, Alt.=47.888214m. Speed=0.000000m/h.</desc>
<speed>0.000000</speed>
</trkpt>
<trkpt lat="21.419868" lon="105.296547">
<ele>47.892120</ele>
<time>2011-04-29T07:22:15Z</time>
<desc>lat.=21.419868, lon.=105.296547, Alt.=47.892120m. Speed=0.072000m/h.</desc>
<speed>0.020000</speed>
</trkpt>
<trkpt lat="21.419868" lon="105.296547">
<ele>47.888214</ele>
<time>2011-04-29T07:22:20Z</time>
<desc>lat.=21.419868, lon.=105.296547, Alt.=47.888214m. Speed=0.072000m/h.</desc>
<speed>0.020000</speed>
</trkpt>
<trkpt lat="21.419868" lon="105.296547">
<ele>47.891144</ele>
<time>2011-04-29T07:22:25Z</time>
<desc>lat.=21.419868, lon.=105.296547, Alt.=47.891144m. Speed=0.108000m/h.</desc>
<speed>0.030000</speed>
</trkpt>
<trkpt lat="21.419868" lon="105.296547">
<ele>47.865753</ele>
<time>2011-04-29T07:22:30Z</time>
<desc>lat.=21.419868, lon.=105.296547, Alt.=47.865753m. Speed=0.036000m/h.</desc>
<speed>0.010000</speed>
</trkpt>
<trkpt lat="21.419868" lon="105.296547">
<ele>47.848175</ele>
<time>2011-04-29T07:22:35Z</time>
<desc>lat.=21.419868, lon.=105.296547, Alt.=47.848175m. Speed=0.036000m/h.</desc>
<speed>0.010000</speed>
</trkpt>
<trkpt lat="21.419868" lon="105.296547">
<ele>47.846222</ele>
<time>2011-04-29T07:22:40Z</time>
<desc>lat.=21.419868, lon.=105.296547, Alt.=47.846222m. Speed=0.072000m/h.</desc>
<speed>0.020000</speed>
</trkpt>
<trkpt lat="21.419868" lon="105.296547">
<ele>47.869659</ele>
<time>2011-04-29T07:22:45Z</time>
<desc>lat.=21.419868, lon.=105.296547, Alt.=47.869659m. Speed=0.072000m/h.</desc>
<speed>0.020000</speed>
</trkpt>
<trkpt lat="21.419868" lon="105.296547">
<ele>47.879425</ele>
<time>2011-04-29T07:22:50Z</time>
<desc>lat.=21.419868, lon.=105.296547, Alt.=47.879425m. Speed=0.036000m/h.</desc>
<speed>0.010000</speed>
</trkpt>
<trkpt lat="21.419868" lon="105.296547">
<ele>47.888214</ele>
<time>2011-04-29T07:22:55Z</time>
<desc>lat.=21.419868, lon.=105.296547, Alt.=47.888214m. Speed=0.000000m/h.</desc>
<speed>0.000000</speed>
</trkpt>
<trkpt lat="21.419868" lon="105.296547">
<ele>47.884308</ele>
<time>2011-04-29T07:23:00Z</time>
<desc>lat.=21.419868, lon.=105.296547, Alt.=47.884308m. Speed=0.036000m/h.</desc>
<speed>0.010000</speed>
</trkpt>
<trkpt lat="21.419868" lon="105.296547">
<ele>47.871613</ele>
<time>2011-04-29T07:23:05Z</time>
<desc>lat.=21.419868, lon.=105.296547, Alt.=47.871613m. Speed=0.072000m/h.</desc>
<speed>0.020000</speed>
</trkpt>
<trkpt lat="21.419868" lon="105.296547">
<ele>47.869659</ele>
<time>2011-04-29T07:23:10Z</time>
<desc>lat.=21.419868, lon.=105.296547, Alt.=47.869659m. Speed=0.072000m/h.</desc>
<speed>0.020000</speed>
</trkpt>
<trkpt lat="21.419868" lon="105.296547">
<ele>47.868683</ele>
<time>2011-04-29T07:23:15Z</time>
<desc>lat.=21.419868, lon.=105.296547, Alt.=47.868683m. Speed=0.000000m/h.</desc>
<speed>0.000000</speed>
</trkpt>
<trkpt lat="21.419868" lon="105.296547">
<ele>47.873566</ele>
<time>2011-04-29T07:23:20Z</time>
<desc>lat.=21.419868, lon.=105.296547, Alt.=47.873566m. Speed=0.000000m/h.</desc>
<speed>0.000000</speed>
</trkpt>
<trkpt lat="21.419868" lon="105.296547">
<ele>47.868683</ele>
<time>2011-04-29T07:23:25Z</time>
<desc>lat.=21.419868, lon.=105.296547, Alt.=47.868683m. Speed=0.072000m/h.</desc>
<speed>0.020000</speed>
</trkpt>
<trkpt lat="21.419868" lon="105.296547">
<ele>47.878448</ele>
<time>2011-04-29T07:23:30Z</time>
<desc>lat.=21.419868, lon.=105.296547, Alt.=47.878448m. Speed=0.072000m/h.</desc>
<speed>0.020000</speed>
</trkpt>
<trkpt lat="21.419868" lon="105.296547">
<ele>47.889191</ele>
<time>2011-04-29T07:23:35Z</time>
<desc>lat.=21.419868, lon.=105.296547, Alt.=47.889191m. Speed=0.036000m/h.</desc>
<speed>0.010000</speed>
</trkpt>
<trkpt lat="21.419868" lon="105.296547">
<ele>47.908722</ele>
<time>2011-04-29T07:23:40Z</time>
<desc>lat.=21.419868, lon.=105.296547, Alt.=47.908722m. Speed=0.036000m/h.</desc>
<speed>0.010000</speed>
</trkpt>
<trkpt lat="21.419868" lon="105.296547">
<ele>47.946808</ele>
<time>2011-04-29T07:23:45Z</time>
<desc>lat.=21.419868, lon.=105.296547, Alt.=47.946808m. Speed=0.072000m/h.</desc>
<speed>0.020000</speed>
</trkpt>
<trkpt lat="21.419868" lon="105.296547">
<ele>47.954620</ele>
<time>2011-04-29T07:23:50Z</time>
<desc>lat.=21.419868, lon.=105.296547, Alt.=47.954620m. Speed=0.072000m/h.</desc>
<speed>0.020000</speed>
</trkpt>
<trkpt lat="21.419870" lon="105.296547">
<ele>47.970245</ele>
<time>2011-04-29T07:23:55Z</time>
<desc>lat.=21.419870, lon.=105.296547, Alt.=47.970245m. Speed=0.144000m/h.</desc>
<speed>0.040000</speed>
</trkpt>
<trkpt lat="21.419870" lon="105.296547">
<ele>47.996613</ele>
<time>2011-04-29T07:24:00Z</time>
<desc>lat.=21.419870, lon.=105.296547, Alt.=47.996613m. Speed=0.108000m/h.</desc>
<speed>0.030000</speed>
</trkpt>
<trkpt lat="21.419870" lon="105.296555">
<ele>48.004425</ele>
<time>2011-04-29T07:24:05Z</time>
<desc>lat.=21.419870, lon.=105.296555, Alt.=48.004425m. Speed=0.036000m/h.</desc>
<speed>0.010000</speed>
</trkpt>
<trkpt lat="21.419870" lon="105.296555">
<ele>48.010284</ele>
<time>2011-04-29T07:24:10Z</time>
<desc>lat.=21.419870, lon.=105.296555, Alt.=48.010284m. Speed=0.144000m/h.</desc>
<speed>0.040000</speed>
</trkpt>
<trkpt lat="21.419870" lon="105.296555">
<ele>47.990753</ele>
<time>2011-04-29T07:24:15Z</time>
<desc>lat.=21.419870, lon.=105.296555, Alt.=47.990753m. Speed=0.360000m/h.</desc>
<speed>0.100000</speed>
</trkpt>
<trkpt lat="21.419872" lon="105.296555">
<ele>47.973175</ele>
<time>2011-04-29T07:24:20Z</time>
<desc>lat.=21.419872, lon.=105.296555, Alt.=47.973175m. Speed=0.000000m/h.</desc>
<speed>0.000000</speed>
</trkpt>
<trkpt lat="21.419872" lon="105.296555">
<ele>47.957550</ele>
<time>2011-04-29T07:24:25Z</time>
<desc>lat.=21.419872, lon.=105.296555, Alt.=47.957550m. Speed=0.036000m/h.</desc>
<speed>0.010000</speed>
</trkpt>
<trkpt lat="21.419872" lon="105.296555">
<ele>47.929230</ele>
<time>2011-04-29T07:24:30Z</time>
<desc>lat.=21.419872, lon.=105.296555, Alt.=47.929230m. Speed=0.180000m/h.</desc>
<speed>0.050000</speed>
</trkpt>
<trkpt lat="21.419872" lon="105.296555">
<ele>47.916534</ele>
<time>2011-04-29T07:24:35Z</time>
<desc>lat.=21.419872, lon.=105.296555, Alt.=47.916534m. Speed=0.324000m/h.</desc>
<speed>0.090000</speed>
</trkpt>
<trkpt lat="21.419876" lon="105.296562">
<ele>47.912628</ele>
<time>2011-04-29T07:24:40Z</time>
<desc>lat.=21.419876, lon.=105.296562, Alt.=47.912628m. Speed=1.044000m/h.</desc>
<speed>0.290000</speed>
</trkpt>
<trkpt lat="21.419811" lon="105.296654">
<ele>46.363800</ele>
<time>2011-04-29T07:24:45Z</time>
<desc>lat.=21.419811, lon.=105.296654, Alt.=46.363800m. Speed=14.256000m/h.</desc>
<speed>3.960000</speed>
</trkpt>
<trkpt lat="21.419653" lon="105.296898">
<ele>44.631378</ele>
<time>2011-04-29T07:24:50Z</time>
<desc>lat.=21.419653, lon.=105.296898, Alt.=44.631378m. Speed=24.048000m/h.</desc>
<speed>6.680000</speed>
</trkpt>
<trkpt lat="21.419336" lon="105.297211">
<ele>41.125519</ele>
<time>2011-04-29T07:24:55Z</time>
<desc>lat.=21.419336, lon.=105.297211, Alt.=41.125519m. Speed=34.307999m/h.</desc>
<speed>9.530000</speed>
</trkpt>
<trkpt lat="21.418922" lon="105.297485">
<ele>39.198761</ele>
<time>2011-04-29T07:25:00Z</time>
<desc>lat.=21.418922, lon.=105.297485, Alt.=39.198761m. Speed=37.692001m/h.</desc>
<speed>10.470000</speed>
</trkpt>
<trkpt lat="21.418470" lon="105.297661">
<ele>38.008331</ele>
<time>2011-04-29T07:25:05Z</time>
<desc>lat.=21.418470, lon.=105.297661, Alt.=38.008331m. Speed=35.459999m/h.</desc>
<speed>9.850000</speed>
</trkpt>
<trkpt lat="21.418053" lon="105.297844">
<ele>37.272003</ele>
<time>2011-04-29T07:25:10Z</time>
<desc>lat.=21.418053, lon.=105.297844, Alt.=37.272003m. Speed=32.327999m/h.</desc>
<speed>8.980000</speed>
</trkpt>
<trkpt lat="21.417732" lon="105.298088">
<ele>36.407745</ele>
<time>2011-04-29T07:25:15Z</time>
<desc>lat.=21.417732, lon.=105.298088, Alt.=36.407745m. Speed=27.756001m/h.</desc>
<speed>7.710000</speed>
</trkpt>
<trkpt lat="21.417456" lon="105.298347">
<ele>35.919464</ele>
<time>2011-04-29T07:25:20Z</time>
<desc>lat.=21.417456, lon.=105.298347, Alt.=35.919464m. Speed=28.296000m/h.</desc>
<speed>7.860000</speed>
</trkpt>
<trkpt lat="21.417168" lon="105.298607">
<ele>33.896027</ele>
<time>2011-04-29T07:25:25Z</time>
<desc>lat.=21.417168, lon.=105.298607, Alt.=33.896027m. Speed=30.959999m/h.</desc>
<speed>8.600000</speed>
</trkpt>
<trkpt lat="21.416838" lon="105.298889">
<ele>33.334503</ele>
<time>2011-04-29T07:25:30Z</time>
<desc>lat.=21.416838, lon.=105.298889, Alt.=33.334503m. Speed=36.324001m/h.</desc>
<speed>10.090000</speed>
</trkpt>
<trkpt lat="21.416458" lon="105.299248">
<ele>32.552277</ele>
<time>2011-04-29T07:25:35Z</time>
<desc>lat.=21.416458, lon.=105.299248, Alt.=32.552277m. Speed=36.792000m/h.</desc>
<speed>10.220000</speed>
</trkpt>
<trkpt lat="21.416113" lon="105.299568">
<ele>32.202667</ele>
<time>2011-04-29T07:25:40Z</time>
<desc>lat.=21.416113, lon.=105.299568, Alt.=32.202667m. Speed=32.976002m/h.</desc>
<speed>9.160000</speed>
</trkpt>
<trkpt lat="21.415840" lon="105.299828">
<ele>32.410675</ele>
<time>2011-04-29T07:25:45Z</time>
<desc>lat.=21.415840, lon.=105.299828, Alt.=32.410675m. Speed=25.704000m/h.</desc>
<speed>7.140000</speed>
</trkpt>
<trkpt lat="21.415537" lon="105.300064">
<ele>31.465103</ele>
<time>2011-04-29T07:25:50Z</time>
<desc>lat.=21.415537, lon.=105.300064, Alt.=31.465103m. Speed=32.327999m/h.</desc>
<speed>8.980000</speed>
</trkpt>
<trkpt lat="21.415247" lon="105.300385">
<ele>33.752472</ele>
<time>2011-04-29T07:25:55Z</time>
<desc>lat.=21.415247, lon.=105.300385, Alt.=33.752472m. Speed=34.523998m/h.</desc>
<speed>9.590000</speed>
</trkpt>
<trkpt lat="21.415045" lon="105.300819">
<ele>34.536652</ele>
<time>2011-04-29T07:26:00Z</time>
<desc>lat.=21.415045, lon.=105.300819, Alt.=34.536652m. Speed=35.136002m/h.</desc>
<speed>9.760000</speed>
</trkpt>
<trkpt lat="21.414965" lon="105.301315">
<ele>36.245636</ele>
<time>2011-04-29T07:26:05Z</time>
<desc>lat.=21.414965, lon.=105.301315, Alt.=36.245636m. Speed=35.891998m/h.</desc>
<speed>9.970000</speed>
</trkpt>
<trkpt lat="21.414913" lon="105.301834">
<ele>36.510284</ele>
<time>2011-04-29T07:26:10Z</time>
<desc>lat.=21.414913, lon.=105.301834, Alt.=36.510284m. Speed=35.928001m/h.</desc>
<speed>9.980000</speed>
</trkpt>
<trkpt lat="21.414879" lon="105.302269">
<ele>39.770050</ele>
<time>2011-04-29T07:26:15Z</time>
<desc>lat.=21.414879, lon.=105.302269, Alt.=39.770050m. Speed=32.796001m/h.</desc>
<speed>9.110000</speed>
</trkpt>
<trkpt lat="21.414736" lon="105.302689">
<ele>40.586456</ele>
<time>2011-04-29T07:26:20Z</time>
<desc>lat.=21.414736, lon.=105.302689, Alt.=40.586456m. Speed=31.247999m/h.</desc>
<speed>8.680000</speed>
</trkpt>
<trkpt lat="21.414413" lon="105.303047">
<ele>42.365753</ele>
<time>2011-04-29T07:26:25Z</time>
<desc>lat.=21.414413, lon.=105.303047, Alt.=42.365753m. Speed=38.556000m/h.</desc>
<speed>10.710000</speed>
</trkpt>
<trkpt lat="21.414001" lon="105.303352">
<ele>40.515167</ele>
<time>2011-04-29T07:26:30Z</time>
<desc>lat.=21.414001, lon.=105.303352, Alt.=40.515167m. Speed=37.368000m/h.</desc>
<speed>10.380000</speed>
</trkpt>
<trkpt lat="21.413580" lon="105.303627">
<ele>41.413605</ele>
<time>2011-04-29T07:26:35Z</time>
<desc>lat.=21.413580, lon.=105.303627, Alt.=41.413605m. Speed=37.332001m/h.</desc>
<speed>10.370000</speed>
</trkpt>
<trkpt lat="21.413122" lon="105.303833">
<ele>41.269073</ele>
<time>2011-04-29T07:26:40Z</time>
<desc>lat.=21.413122, lon.=105.303833, Alt.=41.269073m. Speed=39.492001m/h.</desc>
<speed>10.970000</speed>
</trkpt>
<trkpt lat="21.412642" lon="105.304085">
<ele>41.029816</ele>
<time>2011-04-29T07:26:45Z</time>
<desc>lat.=21.412642, lon.=105.304085, Alt.=41.029816m. Speed=41.220001m/h.</desc>
<speed>11.450000</speed>
</trkpt>
<trkpt lat="21.412170" lon="105.304306">
<ele>41.098175</ele>
<time>2011-04-29T07:26:50Z</time>
<desc>lat.=21.412170, lon.=105.304306, Alt.=41.098175m. Speed=41.076000m/h.</desc>
<speed>11.410000</speed>
</trkpt>
<trkpt lat="21.411695" lon="105.304520">
<ele>43.332550</ele>
<time>2011-04-29T07:26:55Z</time>
<desc>lat.=21.411695, lon.=105.304520, Alt.=43.332550m. Speed=39.167999m/h.</desc>
<speed>10.880000</speed>
</trkpt>
<trkpt lat="21.411280" lon="105.304688">
<ele>45.172394</ele>
<time>2011-04-29T07:27:00Z</time>
<desc>lat.=21.411280, lon.=105.304688, Alt.=45.172394m. Speed=31.320000m/h.</desc>
<speed>8.700000</speed>
</trkpt>
<trkpt lat="21.410919" lon="105.304863">
<ele>44.892120</ele>
<time>2011-04-29T07:27:05Z</time>
<desc>lat.=21.410919, lon.=105.304863, Alt.=44.892120m. Speed=28.764000m/h.</desc>
<speed>7.990000</speed>
</trkpt>
<trkpt lat="21.410576" lon="105.305031">
<ele>47.087433</ele>
<time>2011-04-29T07:27:10Z</time>
<desc>lat.=21.410576, lon.=105.305031, Alt.=47.087433m. Speed=27.864000m/h.</desc>
<speed>7.740000</speed>
</trkpt>
<trkpt lat="21.410254" lon="105.305153">
<ele>49.763214</ele>
<time>2011-04-29T07:27:15Z</time>
<desc>lat.=21.410254, lon.=105.305153, Alt.=49.763214m. Speed=29.844000m/h.</desc>
<speed>8.290000</speed>
</trkpt>
<trkpt lat="21.409817" lon="105.305267">
<ele>49.993683</ele>
<time>2011-04-29T07:27:20Z</time>
<desc>lat.=21.409817, lon.=105.305267, Alt.=49.993683m. Speed=40.535999m/h.</desc>
<speed>11.260000</speed>
</trkpt>
<trkpt lat="21.409313" lon="105.305305">
<ele>50.244659</ele>
<time>2011-04-29T07:27:25Z</time>
<desc>lat.=21.409313, lon.=105.305305, Alt.=50.244659m. Speed=41.004002m/h.</desc>
<speed>11.390000</speed>
</trkpt>
<trkpt lat="21.408840" lon="105.305382">
<ele>49.672394</ele>
<time>2011-04-29T07:27:30Z</time>
<desc>lat.=21.408840, lon.=105.305382, Alt.=49.672394m. Speed=32.759998m/h.</desc>
<speed>9.100000</speed>
</trkpt>
<trkpt lat="21.408520" lon="105.305557">
<ele>47.982941</ele>
<time>2011-04-29T07:27:35Z</time>
<desc>lat.=21.408520, lon.=105.305557, Alt.=47.982941m. Speed=25.667999m/h.</desc>
<speed>7.130000</speed>
</trkpt>
<trkpt lat="21.408419" lon="105.305855">
<ele>43.165558</ele>
<time>2011-04-29T07:27:40Z</time>
<desc>lat.=21.408419, lon.=105.305855, Alt.=43.165558m. Speed=28.152000m/h.</desc>
<speed>7.820000</speed>
</trkpt>
<trkpt lat="21.408442" lon="105.306343">
<ele>39.636261</ele>
<time>2011-04-29T07:27:45Z</time>
<desc>lat.=21.408442, lon.=105.306343, Alt.=39.636261m. Speed=39.924000m/h.</desc>
<speed>11.090000</speed>
</trkpt>
<trkpt lat="21.408625" lon="105.306831">
<ele>35.340363</ele>
<time>2011-04-29T07:27:50Z</time>
<desc>lat.=21.408625, lon.=105.306831, Alt.=35.340363m. Speed=40.716000m/h.</desc>
<speed>11.310000</speed>
</trkpt>
<trkpt lat="21.409014" lon="105.307213">
<ele>32.834503</ele>
<time>2011-04-29T07:27:55Z</time>
<desc>lat.=21.409014, lon.=105.307213, Alt.=32.834503m. Speed=40.104000m/h.</desc>
<speed>11.140000</speed>
</trkpt>
<trkpt lat="21.409353" lon="105.307610">
<ele>31.167740</ele>
<time>2011-04-29T07:28:00Z</time>
<desc>lat.=21.409353, lon.=105.307610, Alt.=31.167740m. Speed=39.312000m/h.</desc>
<speed>10.920000</speed>
</trkpt>
<trkpt lat="21.409433" lon="105.308098">
<ele>31.103287</ele>
<time>2011-04-29T07:28:05Z</time>
<desc>lat.=21.409433, lon.=105.308098, Alt.=31.103287m. Speed=38.664001m/h.</desc>
<speed>10.740000</speed>
</trkpt>
<trkpt lat="21.409281" lon="105.308662">
<ele>29.802994</ele>
<time>2011-04-29T07:28:10Z</time>
<desc>lat.=21.409281, lon.=105.308662, Alt.=29.802994m. Speed=43.848000m/h.</desc>
<speed>12.180000</speed>
</trkpt>
<trkpt lat="21.409111" lon="105.309242">
<ele>29.556900</ele>
<time>2011-04-29T07:28:15Z</time>
<desc>lat.=21.409111, lon.=105.309242, Alt.=29.556900m. Speed=43.452000m/h.</desc>
<speed>12.070000</speed>
</trkpt>
<trkpt lat="21.408953" lon="105.309799">
<ele>26.870377</ele>
<time>2011-04-29T07:28:20Z</time>
<desc>lat.=21.408953, lon.=105.309799, Alt.=26.870377m. Speed=43.344002m/h.</desc>
<speed>12.040000</speed>
</trkpt>
<trkpt lat="21.408842" lon="105.310341">
<ele>27.264420</ele>
<time>2011-04-29T07:28:25Z</time>
<desc>lat.=21.408842, lon.=105.310341, Alt.=27.264420m. Speed=40.320000m/h.</desc>
<speed>11.200000</speed>
</trkpt>
<trkpt lat="21.408731" lon="105.310867">
<ele>25.636490</ele>
<time>2011-04-29T07:28:30Z</time>
<desc>lat.=21.408731, lon.=105.310867, Alt.=25.636490m. Speed=40.175999m/h.</desc>
<speed>11.160000</speed>
</trkpt>
<trkpt lat="21.408630" lon="105.311378">
<ele>23.235611</ele>
<time>2011-04-29T07:28:35Z</time>
<desc>lat.=21.408630, lon.=105.311378, Alt.=23.235611m. Speed=38.627998m/h.</desc>
<speed>10.730000</speed>
</trkpt>
<trkpt lat="21.408524" lon="105.311905">
<ele>23.014908</ele>
<time>2011-04-29T07:28:40Z</time>
<desc>lat.=21.408524, lon.=105.311905, Alt.=23.014908m. Speed=39.240002m/h.</desc>
<speed>10.900000</speed>
</trkpt>
<trkpt lat="21.408287" lon="105.312340">
<ele>23.707779</ele>
<time>2011-04-29T07:28:45Z</time>
<desc>lat.=21.408287, lon.=105.312340, Alt.=23.707779m. Speed=39.636002m/h.</desc>
<speed>11.010000</speed>
</trkpt>
<trkpt lat="21.407885" lon="105.312592">
<ele>23.410416</ele>
<time>2011-04-29T07:28:50Z</time>
<desc>lat.=21.407885, lon.=105.312592, Alt.=23.410416m. Speed=34.632000m/h.</desc>
<speed>9.620000</speed>
</trkpt>
<trkpt lat="21.407480" lon="105.312798">
<ele>25.066177</ele>
<time>2011-04-29T07:28:55Z</time>
<desc>lat.=21.407480, lon.=105.312798, Alt.=25.066177m. Speed=34.380001m/h.</desc>
<speed>9.550000</speed>
</trkpt>
<trkpt lat="21.407108" lon="105.312920">
<ele>24.538345</ele>
<time>2011-04-29T07:29:00Z</time>
<desc>lat.=21.407108, lon.=105.312920, Alt.=24.538345m. Speed=24.408001m/h.</desc>
<speed>6.780000</speed>
</trkpt>
<trkpt lat="21.406767" lon="105.313042">
<ele>24.685318</ele>
<time>2011-04-29T07:29:05Z</time>
<desc>lat.=21.406767, lon.=105.313042, Alt.=24.685318m. Speed=32.759998m/h.</desc>
<speed>9.100000</speed>
</trkpt>
<trkpt lat="21.406332" lon="105.313004">
<ele>25.674088</ele>
<time>2011-04-29T07:29:10Z</time>
<desc>lat.=21.406332, lon.=105.313004, Alt.=25.674088m. Speed=39.419998m/h.</desc>
<speed>10.949999</speed>
</trkpt>
<trkpt lat="21.405834" lon="105.312943">
<ele>25.211197</ele>
<time>2011-04-29T07:29:15Z</time>
<desc>lat.=21.405834, lon.=105.312943, Alt.=25.211197m. Speed=37.944000m/h.</desc>
<speed>10.540000</speed>
</trkpt>
<trkpt lat="21.405443" lon="105.313019">
<ele>24.823013</ele>
<time>2011-04-29T07:29:20Z</time>
<desc>lat.=21.405443, lon.=105.313019, Alt.=24.823013m. Speed=29.087999m/h.</desc>
<speed>8.080000</speed>
</trkpt>
<trkpt lat="21.405180" lon="105.313324">
<ele>25.430435</ele>
<time>2011-04-29T07:29:25Z</time>
<desc>lat.=21.405180, lon.=105.313324, Alt.=25.430435m. Speed=31.968000m/h.</desc>
<speed>8.880000</speed>
</trkpt>
<trkpt lat="21.404924" lon="105.313660">
<ele>26.160416</ele>
<time>2011-04-29T07:29:30Z</time>
<desc>lat.=21.404924, lon.=105.313660, Alt.=26.160416m. Speed=31.356001m/h.</desc>
<speed>8.710000</speed>
</trkpt>
<trkpt lat="21.404636" lon="105.314056">
<ele>28.104263</ele>
<time>2011-04-29T07:29:35Z</time>
<desc>lat.=21.404636, lon.=105.314056, Alt.=28.104263m. Speed=35.388000m/h.</desc>
<speed>9.830000</speed>
</trkpt>
<trkpt lat="21.404350" lon="105.314453">
<ele>29.160416</ele>
<time>2011-04-29T07:29:40Z</time>
<desc>lat.=21.404350, lon.=105.314453, Alt.=29.160416m. Speed=38.304001m/h.</desc>
<speed>10.640000</speed>
</trkpt>
<trkpt lat="21.404018" lon="105.314919">
<ele>28.525162</ele>
<time>2011-04-29T07:29:45Z</time>
<desc>lat.=21.404018, lon.=105.314919, Alt.=28.525162m. Speed=43.703999m/h.</desc>
<speed>12.140000</speed>
</trkpt>
<trkpt lat="21.403795" lon="105.315468">
<ele>27.630142</ele>
<time>2011-04-29T07:29:50Z</time>
<desc>lat.=21.403795, lon.=105.315468, Alt.=27.630142m. Speed=43.776001m/h.</desc>
<speed>12.160000</speed>
</trkpt>
<trkpt lat="21.403740" lon="105.316032">
<ele>24.581802</ele>
<time>2011-04-29T07:29:55Z</time>
<desc>lat.=21.403740, lon.=105.316032, Alt.=24.581802m. Speed=41.543999m/h.</desc>
<speed>11.540000</speed>
</trkpt>
<trkpt lat="21.403702" lon="105.316597">
<ele>24.251724</ele>
<time>2011-04-29T07:30:00Z</time>
<desc>lat.=21.403702, lon.=105.316597, Alt.=24.251724m. Speed=41.688000m/h.</desc>
<speed>11.580000</speed>
</trkpt>
<trkpt lat="21.403667" lon="105.317139">
<ele>24.208267</ele>
<time>2011-04-29T07:30:05Z</time>
<desc>lat.=21.403667, lon.=105.317139, Alt.=24.208267m. Speed=39.743999m/h.</desc>
<speed>11.040000</speed>
</trkpt>
<trkpt lat="21.403635" lon="105.317635">
<ele>29.693619</ele>
<time>2011-04-29T07:30:10Z</time>
<desc>lat.=21.403635, lon.=105.317635, Alt.=29.693619m. Speed=34.919998m/h.</desc>
<speed>9.699999</speed>
</trkpt>
<trkpt lat="21.403450" lon="105.318054">
<ele>31.037369</ele>
<time>2011-04-29T07:30:15Z</time>
<desc>lat.=21.403450, lon.=105.318054, Alt.=31.037369m. Speed=38.088001m/h.</desc>
<speed>10.580000</speed>
</trkpt>
<trkpt lat="21.403070" lon="105.318382">
<ele>27.343521</ele>
<time>2011-04-29T07:30:20Z</time>
<desc>lat.=21.403070, lon.=105.318382, Alt.=27.343521m. Speed=38.844002m/h.</desc>
<speed>10.790000</speed>
</trkpt>
<trkpt lat="21.402639" lon="105.318718">
<ele>24.701920</ele>
<time>2011-04-29T07:30:25Z</time>
<desc>lat.=21.402639, lon.=105.318718, Alt.=24.701920m. Speed=40.248001m/h.</desc>
<speed>11.180000</speed>
</trkpt>
<trkpt lat="21.402214" lon="105.319038">
<ele>23.724869</ele>
<time>2011-04-29T07:30:30Z</time>
<desc>lat.=21.402214, lon.=105.319038, Alt.=23.724869m. Speed=39.492001m/h.</desc>
<speed>10.970000</speed>
</trkpt>
<trkpt lat="21.401913" lon="105.319450">
<ele>21.440201</ele>
<time>2011-04-29T07:30:35Z</time>
<desc>lat.=21.401913, lon.=105.319450, Alt.=21.440201m. Speed=37.259998m/h.</desc>
<speed>10.350000</speed>
</trkpt>
<trkpt lat="21.401619" lon="105.319977">
<ele>17.633560</ele>
<time>2011-04-29T07:30:40Z</time>
<desc>lat.=21.401619, lon.=105.319977, Alt.=17.633560m. Speed=42.840000m/h.</desc>
<speed>11.900000</speed>
</trkpt>
<trkpt lat="21.401283" lon="105.320419">
<ele>14.501839</ele>
<time>2011-04-29T07:30:45Z</time>
<desc>lat.=21.401283, lon.=105.320419, Alt.=14.501839m. Speed=40.571999m/h.</desc>
<speed>11.270000</speed>
</trkpt>
<trkpt lat="21.400837" lon="105.320732">
<ele>13.234749</ele>
<time>2011-04-29T07:30:50Z</time>
<desc>lat.=21.400837, lon.=105.320732, Alt.=13.234749m. Speed=43.776001m/h.</desc>
<speed>12.160000</speed>
</trkpt>
<trkpt lat="21.400288" lon="105.320976">
<ele>14.121956</ele>
<time>2011-04-29T07:30:55Z</time>
<desc>lat.=21.400288, lon.=105.320976, Alt.=14.121956m. Speed=48.456001m/h.</desc>
<speed>13.460000</speed>
</trkpt>
<trkpt lat="21.399679" lon="105.321114">
<ele>15.118782</ele>
<time>2011-04-29T07:31:00Z</time>
<desc>lat.=21.399679, lon.=105.321114, Alt.=15.118782m. Speed=43.848000m/h.</desc>
<speed>12.180000</speed>
</trkpt>
<trkpt lat="21.399191" lon="105.321220">
<ele>16.622818</ele>
<time>2011-04-29T07:31:05Z</time>
<desc>lat.=21.399191, lon.=105.321220, Alt.=16.622818m. Speed=34.091999m/h.</desc>
<speed>9.470000</speed>
</trkpt>
<trkpt lat="21.398819" lon="105.321404">
<ele>17.685318</ele>
<time>2011-04-29T07:31:10Z</time>
<desc>lat.=21.398819, lon.=105.321404, Alt.=17.685318m. Speed=32.112000m/h.</desc>
<speed>8.920000</speed>
</trkpt>
<trkpt lat="21.398548" lon="105.321732">
<ele>16.624771</ele>
<time>2011-04-29T07:31:15Z</time>
<desc>lat.=21.398548, lon.=105.321732, Alt.=16.624771m. Speed=34.487999m/h.</desc>
<speed>9.580000</speed>
</trkpt>
<trkpt lat="21.398365" lon="105.322235">
<ele>21.784927</ele>
<time>2011-04-29T07:31:20Z</time>
<desc>lat.=21.398365, lon.=105.322235, Alt.=21.784927m. Speed=41.256001m/h.</desc>
<speed>11.460000</speed>
</trkpt>
<trkpt lat="21.398211" lon="105.322792">
<ele>27.242935</ele>
<time>2011-04-29T07:31:25Z</time>
<desc>lat.=21.398211, lon.=105.322792, Alt.=27.242935m. Speed=42.624001m/h.</desc>
<speed>11.840000</speed>
</trkpt>
<trkpt lat="21.398062" lon="105.323341">
<ele>30.275650</ele>
<time>2011-04-29T07:31:30Z</time>
<desc>lat.=21.398062, lon.=105.323341, Alt.=30.275650m. Speed=40.284000m/h.</desc>
<speed>11.190000</speed>
</trkpt>
<trkpt lat="21.397835" lon="105.323891">
<ele>31.229263</ele>
<time>2011-04-29T07:31:35Z</time>
<desc>lat.=21.397835, lon.=105.323891, Alt.=31.229263m. Speed=45.144001m/h.</desc>
<speed>12.540000</speed>
</trkpt>
<trkpt lat="21.397530" lon="105.324486">
<ele>31.490005</ele>
<time>2011-04-29T07:31:40Z</time>
<desc>lat.=21.397530, lon.=105.324486, Alt.=31.490005m. Speed=49.464001m/h.</desc>
<speed>13.740000</speed>
</trkpt>
<trkpt lat="21.397232" lon="105.325020">
<ele>31.974380</ele>
<time>2011-04-29T07:31:45Z</time>
<desc>lat.=21.397232, lon.=105.325020, Alt.=31.974380m. Speed=40.500000m/h.</desc>
<speed>11.250000</speed>
</trkpt>
<trkpt lat="21.396914" lon="105.325439">
<ele>31.861099</ele>
<time>2011-04-29T07:31:50Z</time>
<desc>lat.=21.396914, lon.=105.325439, Alt.=31.861099m. Speed=41.688000m/h.</desc>
<speed>11.580000</speed>
</trkpt>
<trkpt lat="21.396366" lon="105.325745">
<ele>28.908951</ele>
<time>2011-04-29T07:31:55Z</time>
<desc>lat.=21.396366, lon.=105.325745, Alt.=28.908951m. Speed=51.624001m/h.</desc>
<speed>14.340000</speed>
</trkpt>
<trkpt lat="21.395716" lon="105.325951">
<ele>29.593521</ele>
<time>2011-04-29T07:32:00Z</time>
<desc>lat.=21.395716, lon.=105.325951, Alt.=29.593521m. Speed=54.683998m/h.</desc>
<speed>15.189999</speed>
</trkpt>
<trkpt lat="21.395069" lon="105.326126">
<ele>25.759537</ele>
<time>2011-04-29T07:32:05Z</time>
<desc>lat.=21.395069, lon.=105.326126, Alt.=25.759537m. Speed=51.444000m/h.</desc>
<speed>14.290000</speed>
</trkpt>
<trkpt lat="21.394426" lon="105.326363">
<ele>24.772232</ele>
<time>2011-04-29T07:32:10Z</time>
<desc>lat.=21.394426, lon.=105.326363, Alt.=24.772232m. Speed=52.307999m/h.</desc>
<speed>14.530000</speed>
</trkpt>
<trkpt lat="21.393780" lon="105.326553">
<ele>23.893814</ele>
<time>2011-04-29T07:32:15Z</time>
<desc>lat.=21.393780, lon.=105.326553, Alt.=23.893814m. Speed=54.540001m/h.</desc>
<speed>15.150000</speed>
</trkpt>
<trkpt lat="21.393137" lon="105.326683">
<ele>23.666763</ele>
<time>2011-04-29T07:32:20Z</time>
<desc>lat.=21.393137, lon.=105.326683, Alt.=23.666763m. Speed=52.452000m/h.</desc>
<speed>14.570000</speed>
</trkpt>
<trkpt lat="21.392519" lon="105.326797">
<ele>25.196060</ele>
<time>2011-04-29T07:32:25Z</time>
<desc>lat.=21.392519, lon.=105.326797, Alt.=25.196060m. Speed=47.627998m/h.</desc>
<speed>13.230000</speed>
</trkpt>
<trkpt lat="21.391987" lon="105.327011">
<ele>25.664322</ele>
<time>2011-04-29T07:32:30Z</time>
<desc>lat.=21.391987, lon.=105.327011, Alt.=25.664322m. Speed=44.099998m/h.</desc>
<speed>12.250000</speed>
</trkpt>
<trkpt lat="21.391539" lon="105.327339">
<ele>23.253189</ele>
<time>2011-04-29T07:32:35Z</time>
<desc>lat.=21.391539, lon.=105.327339, Alt.=23.253189m. Speed=45.827999m/h.</desc>
<speed>12.730000</speed>
</trkpt>
<trkpt lat="21.391050" lon="105.327705">
<ele>21.400650</ele>
<time>2011-04-29T07:32:40Z</time>
<desc>lat.=21.391050, lon.=105.327705, Alt.=21.400650m. Speed=48.816002m/h.</desc>
<speed>13.560001</speed>
</trkpt>
<trkpt lat="21.390570" lon="105.328102">
<ele>16.878677</ele>
<time>2011-04-29T07:32:45Z</time>
<desc>lat.=21.390570, lon.=105.328102, Alt.=16.878677m. Speed=45.360001m/h.</desc>
<speed>12.600000</speed>
</trkpt>
<trkpt lat="21.390121" lon="105.328438">
<ele>12.854134</ele>
<time>2011-04-29T07:32:50Z</time>
<desc>lat.=21.390121, lon.=105.328438, Alt.=12.854134m. Speed=43.812000m/h.</desc>
<speed>12.170000</speed>
</trkpt>
<trkpt lat="21.389709" lon="105.328773">
<ele>11.917854</ele>
<time>2011-04-29T07:32:55Z</time>
<desc>lat.=21.389709, lon.=105.328773, Alt.=11.917854m. Speed=43.271999m/h.</desc>
<speed>12.020000</speed>
</trkpt>
<trkpt lat="21.389240" lon="105.329147">
<ele>14.046272</ele>
<time>2011-04-29T07:33:00Z</time>
<desc>lat.=21.389240, lon.=105.329147, Alt.=14.046272m. Speed=48.852001m/h.</desc>
<speed>13.570000</speed>
</trkpt>
<trkpt lat="21.388702" lon="105.329552">
<ele>15.165657</ele>
<time>2011-04-29T07:33:05Z</time>
<desc>lat.=21.388702, lon.=105.329552, Alt.=15.165657m. Speed=51.948002m/h.</desc>
<speed>14.430001</speed>
</trkpt>
<trkpt lat="21.388210" lon="105.329964">
<ele>17.312271</ele>
<time>2011-04-29T07:33:10Z</time>
<desc>lat.=21.388210, lon.=105.329964, Alt.=17.312271m. Speed=45.863998m/h.</desc>
<speed>12.740000</speed>
</trkpt>
<trkpt lat="21.387983" lon="105.330498">
<ele>18.837662</ele>
<time>2011-04-29T07:33:15Z</time>
<desc>lat.=21.387983, lon.=105.330498, Alt.=18.837662m. Speed=39.852001m/h.</desc>
<speed>11.070000</speed>
</trkpt>
<trkpt lat="21.387850" lon="105.331032">
<ele>20.068619</ele>
<time>2011-04-29T07:33:20Z</time>
<desc>lat.=21.387850, lon.=105.331032, Alt.=20.068619m. Speed=40.139999m/h.</desc>
<speed>11.150000</speed>
</trkpt>
<trkpt lat="21.387699" lon="105.331535">
<ele>19.552994</ele>
<time>2011-04-29T07:33:25Z</time>
<desc>lat.=21.387699, lon.=105.331535, Alt.=19.552994m. Speed=41.436001m/h.</desc>
<speed>11.510000</speed>
</trkpt>
<trkpt lat="21.387411" lon="105.331993">
<ele>20.926529</ele>
<time>2011-04-29T07:33:30Z</time>
<desc>lat.=21.387411, lon.=105.331993, Alt.=20.926529m. Speed=41.076000m/h.</desc>
<speed>11.410000</speed>
</trkpt>
<trkpt lat="21.386930" lon="105.332253">
<ele>22.401138</ele>
<time>2011-04-29T07:33:35Z</time>
<desc>lat.=21.386930, lon.=105.332253, Alt.=22.401138m. Speed=45.431999m/h.</desc>
<speed>12.620000</speed>
</trkpt>
<trkpt lat="21.386366" lon="105.332283">
<ele>21.215103</ele>
<time>2011-04-29T07:33:40Z</time>
<desc>lat.=21.386366, lon.=105.332283, Alt.=21.215103m. Speed=45.396000m/h.</desc>
<speed>12.610000</speed>
</trkpt>
<trkpt lat="21.385740" lon="105.332146">
<ele>21.417252</ele>
<time>2011-04-29T07:33:45Z</time>
<desc>lat.=21.385740, lon.=105.332146, Alt.=21.417252m. Speed=50.112000m/h.</desc>
<speed>13.920000</speed>
</trkpt>
<trkpt lat="21.385090" lon="105.331993">
<ele>20.286880</ele>
<time>2011-04-29T07:33:50Z</time>
<desc>lat.=21.385090, lon.=105.331993, Alt.=20.286880m. Speed=50.004002m/h.</desc>
<speed>13.890000</speed>
</trkpt>
<trkpt lat="21.384491" lon="105.332169">
<ele>20.603287</ele>
<time>2011-04-29T07:33:55Z</time>
<desc>lat.=21.384491, lon.=105.332169, Alt.=20.603287m. Speed=49.896000m/h.</desc>
<speed>13.860000</speed>
</trkpt>
<trkpt lat="21.383900" lon="105.332527">
<ele>19.041275</ele>
<time>2011-04-29T07:34:00Z</time>
<desc>lat.=21.383900, lon.=105.332527, Alt.=19.041275m. Speed=54.792000m/h.</desc>
<speed>15.220000</speed>
</trkpt>
<trkpt lat="21.383286" lon="105.332901">
<ele>18.396255</ele>
<time>2011-04-29T07:34:05Z</time>
<desc>lat.=21.383286, lon.=105.332901, Alt.=18.396255m. Speed=54.827999m/h.</desc>
<speed>15.230000</speed>
</trkpt>
<trkpt lat="21.382746" lon="105.333191">
<ele>21.288345</ele>
<time>2011-04-29T07:34:10Z</time>
<desc>lat.=21.382746, lon.=105.333191, Alt.=21.288345m. Speed=42.840000m/h.</desc>
<speed>11.900000</speed>
</trkpt>
<trkpt lat="21.382284" lon="105.333382">
<ele>23.408951</ele>
<time>2011-04-29T07:34:15Z</time>
<desc>lat.=21.382284, lon.=105.333382, Alt.=23.408951m. Speed=37.584000m/h.</desc>
<speed>10.440000</speed>
</trkpt>
<trkpt lat="21.381809" lon="105.333496">
<ele>23.272720</ele>
<time>2011-04-29T07:34:20Z</time>
<desc>lat.=21.381809, lon.=105.333496, Alt.=23.272720m. Speed=40.860001m/h.</desc>
<speed>11.350000</speed>
</trkpt>
<trkpt lat="21.381277" lon="105.333656">
<ele>19.655533</ele>
<time>2011-04-29T07:34:25Z</time>
<desc>lat.=21.381277, lon.=105.333656, Alt.=19.655533m. Speed=46.188000m/h.</desc>
<speed>12.830000</speed>
</trkpt>
<trkpt lat="21.380791" lon="105.333984">
<ele>17.570084</ele>
<time>2011-04-29T07:34:30Z</time>
<desc>lat.=21.380791, lon.=105.333984, Alt.=17.570084m. Speed=45.720001m/h.</desc>
<speed>12.700000</speed>
</trkpt>
<trkpt lat="21.380302" lon="105.334328">
<ele>17.429459</ele>
<time>2011-04-29T07:34:35Z</time>
<desc>lat.=21.380302, lon.=105.334328, Alt.=17.429459m. Speed=46.007999m/h.</desc>
<speed>12.780000</speed>
</trkpt>
<trkpt lat="21.379803" lon="105.334633">
<ele>16.977310</ele>
<time>2011-04-29T07:34:40Z</time>
<desc>lat.=21.379803, lon.=105.334633, Alt.=16.977310m. Speed=45.647999m/h.</desc>
<speed>12.680000</speed>
</trkpt>
<trkpt lat="21.379229" lon="105.334831">
<ele>17.440201</ele>
<time>2011-04-29T07:34:45Z</time>
<desc>lat.=21.379229, lon.=105.334831, Alt.=17.440201m. Speed=45.647999m/h.</desc>
<speed>12.680000</speed>
</trkpt>
<trkpt lat="21.378689" lon="105.334946">
<ele>19.635025</ele>
<time>2011-04-29T07:34:50Z</time>
<desc>lat.=21.378689, lon.=105.334946, Alt.=19.635025m. Speed=42.695999m/h.</desc>
<speed>11.860000</speed>
</trkpt>
<trkpt lat="21.378168" lon="105.334984">
<ele>26.380142</ele>
<time>2011-04-29T07:34:55Z</time>
<desc>lat.=21.378168, lon.=105.334984, Alt.=26.380142m. Speed=40.320000m/h.</desc>
<speed>11.200000</speed>
</trkpt>
<trkpt lat="21.377720" lon="105.334976">
<ele>32.910675</ele>
<time>2011-04-29T07:35:00Z</time>
<desc>lat.=21.377720, lon.=105.334976, Alt.=32.910675m. Speed=35.172001m/h.</desc>
<speed>9.770000</speed>
</trkpt>
<trkpt lat="21.377291" lon="105.335052">
<ele>32.158722</ele>
<time>2011-04-29T07:35:05Z</time>
<desc>lat.=21.377291, lon.=105.335052, Alt.=32.158722m. Speed=32.868000m/h.</desc>
<speed>9.130000</speed>
</trkpt>
<trkpt lat="21.376911" lon="105.335312">
<ele>30.699478</ele>
<time>2011-04-29T07:35:10Z</time>
<desc>lat.=21.376911, lon.=105.335312, Alt.=30.699478m. Speed=40.680000m/h.</desc>
<speed>11.300000</speed>
</trkpt>
<trkpt lat="21.376532" lon="105.335716">
<ele>26.124283</ele>
<time>2011-04-29T07:35:15Z</time>
<desc>lat.=21.376532, lon.=105.335716, Alt.=26.124283m. Speed=45.756001m/h.</desc>
<speed>12.710000</speed>
</trkpt>
<trkpt lat="21.376102" lon="105.336205">
<ele>24.066666</ele>
<time>2011-04-29T07:35:20Z</time>
<desc>lat.=21.376102, lon.=105.336205, Alt.=24.066666m. Speed=49.716000m/h.</desc>
<speed>13.810000</speed>
</trkpt>
<trkpt lat="21.375666" lon="105.336708">
<ele>21.677505</ele>
<time>2011-04-29T07:35:25Z</time>
<desc>lat.=21.375666, lon.=105.336708, Alt.=21.677505m. Speed=49.212002m/h.</desc>
<speed>13.670001</speed>
</trkpt>
<trkpt lat="21.375364" lon="105.337311">
<ele>20.030045</ele>
<time>2011-04-29T07:35:30Z</time>
<desc>lat.=21.375364, lon.=105.337311, Alt.=20.030045m. Speed=52.776001m/h.</desc>
<speed>14.660000</speed>
</trkpt>
<trkpt lat="21.375158" lon="105.338058">
<ele>17.705826</ele>
<time>2011-04-29T07:35:35Z</time>
<desc>lat.=21.375158, lon.=105.338058, Alt.=17.705826m. Speed=54.324001m/h.</desc>
<speed>15.090000</speed>
</trkpt>
<trkpt lat="21.374924" lon="105.338684">
<ele>14.977913</ele>
<time>2011-04-29T07:35:40Z</time>
<desc>lat.=21.374924, lon.=105.338684, Alt.=14.977913m. Speed=43.776001m/h.</desc>
<speed>12.160000</speed>
</trkpt>
<trkpt lat="21.374626" lon="105.339104">
<ele>12.755989</ele>
<time>2011-04-29T07:35:45Z</time>
<desc>lat.=21.374626, lon.=105.339104, Alt.=12.755989m. Speed=36.863998m/h.</desc>
<speed>10.240000</speed>
</trkpt>
<trkpt lat="21.374266" lon="105.339447">
<ele>12.836311</ele>
<time>2011-04-29T07:35:50Z</time>
<desc>lat.=21.374266, lon.=105.339447, Alt.=12.836311m. Speed=37.296001m/h.</desc>
<speed>10.360000</speed>
</trkpt>
<trkpt lat="21.373905" lon="105.339714">
<ele>13.812874</ele>
<time>2011-04-29T07:35:55Z</time>
<desc>lat.=21.373905, lon.=105.339714, Alt.=13.812874m. Speed=34.487999m/h.</desc>
<speed>9.580000</speed>
</trkpt>
<trkpt lat="21.373549" lon="105.339981">
<ele>14.604866</ele>
<time>2011-04-29T07:36:00Z</time>
<desc>lat.=21.373549, lon.=105.339981, Alt.=14.604866m. Speed=33.984001m/h.</desc>
<speed>9.440000</speed>
</trkpt>
<trkpt lat="21.373211" lon="105.340233">
<ele>15.826790</ele>
<time>2011-04-29T07:36:05Z</time>
<desc>lat.=21.373211, lon.=105.340233, Alt.=15.826790m. Speed=33.299999m/h.</desc>
<speed>9.250000</speed>
</trkpt>
<trkpt lat="21.372822" lon="105.340508">
<ele>17.659439</ele>
<time>2011-04-29T07:36:10Z</time>
<desc>lat.=21.372822, lon.=105.340508, Alt.=17.659439m. Speed=38.015999m/h.</desc>
<speed>10.560000</speed>
</trkpt>
<trkpt lat="21.372410" lon="105.340805">
<ele>19.365005</ele>
<time>2011-04-29T07:36:15Z</time>
<desc>lat.=21.372410, lon.=105.340805, Alt.=19.365005m. Speed=37.332001m/h.</desc>
<speed>10.370000</speed>
</trkpt>
<trkpt lat="21.372007" lon="105.341110">
<ele>21.689713</ele>
<time>2011-04-29T07:36:20Z</time>
<desc>lat.=21.372007, lon.=105.341110, Alt.=21.689713m. Speed=39.995998m/h.</desc>
<speed>11.110000</speed>
</trkpt>
<trkpt lat="21.371567" lon="105.341438">
<ele>23.859634</ele>
<time>2011-04-29T07:36:25Z</time>
<desc>lat.=21.371567, lon.=105.341438, Alt.=23.859634m. Speed=42.948002m/h.</desc>
<speed>11.930001</speed>
</trkpt>
<trkpt lat="21.371094" lon="105.341820">
<ele>25.761490</ele>
<time>2011-04-29T07:36:30Z</time>
<desc>lat.=21.371094, lon.=105.341820, Alt.=25.761490m. Speed=48.816002m/h.</desc>
<speed>13.560001</speed>
</trkpt>
<trkpt lat="21.370539" lon="105.342247">
<ele>27.464615</ele>
<time>2011-04-29T07:36:35Z</time>
<desc>lat.=21.370539, lon.=105.342247, Alt.=27.464615m. Speed=57.348000m/h.</desc>
<speed>15.930000</speed>
</trkpt>
<trkpt lat="21.369974" lon="105.342667">
<ele>30.478775</ele>
<time>2011-04-29T07:36:40Z</time>
<desc>lat.=21.369974, lon.=105.342667, Alt.=30.478775m. Speed=48.743999m/h.</desc>
<speed>13.540000</speed>
</trkpt>
<trkpt lat="21.369432" lon="105.343079">
<ele>31.472916</ele>
<time>2011-04-29T07:36:45Z</time>
<desc>lat.=21.369432, lon.=105.343079, Alt.=31.472916m. Speed=54.863998m/h.</desc>
<speed>15.240000</speed>
</trkpt>
<trkpt lat="21.368834" lon="105.343536">
<ele>31.535904</ele>
<time>2011-04-29T07:36:50Z</time>
<desc>lat.=21.368834, lon.=105.343536, Alt.=31.535904m. Speed=58.068001m/h.</desc>
<speed>16.130000</speed>
</trkpt>
<trkpt lat="21.368265" lon="105.343956">
<ele>30.716080</ele>
<time>2011-04-29T07:36:55Z</time>
<desc>lat.=21.368265, lon.=105.343956, Alt.=30.716080m. Speed=50.903999m/h.</desc>
<speed>14.140000</speed>
</trkpt>
<trkpt lat="21.367928" lon="105.344482">
<ele>30.851822</ele>
<time>2011-04-29T07:37:00Z</time>
<desc>lat.=21.367928, lon.=105.344482, Alt.=30.851822m. Speed=50.076000m/h.</desc>
<speed>13.910000</speed>
</trkpt>
<trkpt lat="21.367744" lon="105.345062">
<ele>29.899673</ele>
<time>2011-04-29T07:37:05Z</time>
<desc>lat.=21.367744, lon.=105.345062, Alt.=29.899673m. Speed=42.048000m/h.</desc>
<speed>11.680000</speed>
</trkpt>
<trkpt lat="21.367554" lon="105.345566">
<ele>31.018326</ele>
<time>2011-04-29T07:37:10Z</time>
<desc>lat.=21.367554, lon.=105.345566, Alt.=31.018326m. Speed=39.924000m/h.</desc>
<speed>11.090000</speed>
</trkpt>
<trkpt lat="21.367258" lon="105.345985">
<ele>31.708755</ele>
<time>2011-04-29T07:37:15Z</time>
<desc>lat.=21.367258, lon.=105.345985, Alt.=31.708755m. Speed=41.616001m/h.</desc>
<speed>11.560000</speed>
</trkpt>
<trkpt lat="21.366817" lon="105.346336">
<ele>31.037369</ele>
<time>2011-04-29T07:37:20Z</time>
<desc>lat.=21.366817, lon.=105.346336, Alt.=31.037369m. Speed=43.380001m/h.</desc>
<speed>12.050000</speed>
</trkpt>
<trkpt lat="21.366365" lon="105.346680">
<ele>31.528091</ele>
<time>2011-04-29T07:37:25Z</time>
<desc>lat.=21.366365, lon.=105.346680, Alt.=31.528091m. Speed=45.900002m/h.</desc>
<speed>12.750000</speed>
</trkpt>
<trkpt lat="21.365913" lon="105.346970">
<ele>30.669205</ele>
<time>2011-04-29T07:37:30Z</time>
<desc>lat.=21.365913, lon.=105.346970, Alt.=30.669205m. Speed=38.231998m/h.</desc>
<speed>10.620000</speed>
</trkpt>
<trkpt lat="21.365501" lon="105.347229">
<ele>30.133072</ele>
<time>2011-04-29T07:37:35Z</time>
<desc>lat.=21.365501, lon.=105.347229, Alt.=30.133072m. Speed=37.835999m/h.</desc>
<speed>10.510000</speed>
</trkpt>
<trkpt lat="21.365074" lon="105.347473">
<ele>27.921646</ele>
<time>2011-04-29T07:37:40Z</time>
<desc>lat.=21.365074, lon.=105.347473, Alt.=27.921646m. Speed=41.616001m/h.</desc>
<speed>11.560000</speed>
</trkpt>
<trkpt lat="21.364613" lon="105.347778">
<ele>29.076920</ele>
<time>2011-04-29T07:37:45Z</time>
<desc>lat.=21.364613, lon.=105.347778, Alt.=29.076920m. Speed=45.396000m/h.</desc>
<speed>12.610000</speed>
</trkpt>
<trkpt lat="21.364134" lon="105.348083">
<ele>31.074966</ele>
<time>2011-04-29T07:37:50Z</time>
<desc>lat.=21.364134, lon.=105.348083, Alt.=31.074966m. Speed=41.256001m/h.</desc>
<speed>11.460000</speed>
</trkpt>
<trkpt lat="21.363691" lon="105.348404">
<ele>31.268326</ele>
<time>2011-04-29T07:37:55Z</time>
<desc>lat.=21.363691, lon.=105.348404, Alt.=31.268326m. Speed=41.004002m/h.</desc>
<speed>11.390000</speed>
</trkpt>
<trkpt lat="21.363239" lon="105.348701">
<ele>30.667252</ele>
<time>2011-04-29T07:38:00Z</time>
<desc>lat.=21.363239, lon.=105.348701, Alt.=30.667252m. Speed=43.632000m/h.</desc>
<speed>12.120000</speed>
</trkpt>
<trkpt lat="21.362801" lon="105.348984">
<ele>30.640884</ele>
<time>2011-04-29T07:38:05Z</time>
<desc>lat.=21.362801, lon.=105.348984, Alt.=30.640884m. Speed=40.535999m/h.</desc>
<speed>11.260000</speed>
</trkpt>
<trkpt lat="21.362358" lon="105.349258">
<ele>30.850845</ele>
<time>2011-04-29T07:38:10Z</time>
<desc>lat.=21.362358, lon.=105.349258, Alt.=30.850845m. Speed=39.743999m/h.</desc>
<speed>11.040000</speed>
</trkpt>
<trkpt lat="21.361929" lon="105.349541">
<ele>30.045181</ele>
<time>2011-04-29T07:38:15Z</time>
<desc>lat.=21.361929, lon.=105.349541, Alt.=30.045181m. Speed=39.888000m/h.</desc>
<speed>11.080000</speed>
</trkpt>
<trkpt lat="21.361485" lon="105.349815">
<ele>29.445572</ele>
<time>2011-04-29T07:38:20Z</time>
<desc>lat.=21.361485, lon.=105.349815, Alt.=29.445572m. Speed=44.028000m/h.</desc>
<speed>12.230000</speed>
</trkpt>
<trkpt lat="21.361023" lon="105.350113">
<ele>29.148697</ele>
<time>2011-04-29T07:38:25Z</time>
<desc>lat.=21.361023, lon.=105.350113, Alt.=29.148697m. Speed=43.848000m/h.</desc>
<speed>12.180000</speed>
</trkpt>
<trkpt lat="21.360542" lon="105.350410">
<ele>29.166275</ele>
<time>2011-04-29T07:38:30Z</time>
<desc>lat.=21.360542, lon.=105.350410, Alt.=29.166275m. Speed=44.568001m/h.</desc>
<speed>12.380000</speed>
</trkpt>
<trkpt lat="21.360092" lon="105.350700">
<ele>29.395767</ele>
<time>2011-04-29T07:38:35Z</time>
<desc>lat.=21.360092, lon.=105.350700, Alt.=29.395767m. Speed=43.056000m/h.</desc>
<speed>11.960000</speed>
</trkpt>
<trkpt lat="21.359623" lon="105.350983">
<ele>30.795181</ele>
<time>2011-04-29T07:38:40Z</time>
<desc>lat.=21.359623, lon.=105.350983, Alt.=30.795181m. Speed=44.099998m/h.</desc>
<speed>12.250000</speed>
</trkpt>
<trkpt lat="21.359148" lon="105.351295">
<ele>33.948761</ele>
<time>2011-04-29T07:38:45Z</time>
<desc>lat.=21.359148, lon.=105.351295, Alt.=33.948761m. Speed=42.695999m/h.</desc>
<speed>11.860000</speed>
</trkpt>
<trkpt lat="21.358704" lon="105.351585">
<ele>37.117706</ele>
<time>2011-04-29T07:38:50Z</time>
<desc>lat.=21.358704, lon.=105.351585, Alt.=37.117706m. Speed=39.023998m/h.</desc>
<speed>10.840000</speed>
</trkpt>
<trkpt lat="21.358286" lon="105.351837">
<ele>37.502472</ele>
<time>2011-04-29T07:38:55Z</time>
<desc>lat.=21.358286, lon.=105.351837, Alt.=37.502472m. Speed=38.411999m/h.</desc>
<speed>10.670000</speed>
</trkpt>
<trkpt lat="21.357872" lon="105.352104">
<ele>39.892120</ele>
<time>2011-04-29T07:39:00Z</time>
<desc>lat.=21.357872, lon.=105.352104, Alt.=39.892120m. Speed=38.411999m/h.</desc>
<speed>10.670000</speed>
</trkpt>
<trkpt lat="21.357443" lon="105.352386">
<ele>39.555206</ele>
<time>2011-04-29T07:39:05Z</time>
<desc>lat.=21.357443, lon.=105.352386, Alt.=39.555206m. Speed=40.284000m/h.</desc>
<speed>11.190000</speed>
</trkpt>
<trkpt lat="21.357004" lon="105.352692">
<ele>40.098175</ele>
<time>2011-04-29T07:39:10Z</time>
<desc>lat.=21.357004, lon.=105.352692, Alt.=40.098175m. Speed=38.987999m/h.</desc>
<speed>10.830000</speed>
</trkpt>
<trkpt lat="21.356588" lon="105.352966">
<ele>37.950714</ele>
<time>2011-04-29T07:39:15Z</time>
<desc>lat.=21.356588, lon.=105.352966, Alt.=37.950714m. Speed=37.296001m/h.</desc>
<speed>10.360000</speed>
</trkpt>
<trkpt lat="21.356178" lon="105.353218">
<ele>37.185089</ele>
<time>2011-04-29T07:39:20Z</time>
<desc>lat.=21.356178, lon.=105.353218, Alt.=37.185089m. Speed=36.756001m/h.</desc>
<speed>10.210000</speed>
</trkpt>
<trkpt lat="21.355759" lon="105.353516">
<ele>33.320831</ele>
<time>2011-04-29T07:39:25Z</time>
<desc>lat.=21.355759, lon.=105.353516, Alt.=33.320831m. Speed=38.627998m/h.</desc>
<speed>10.730000</speed>
</trkpt>
<trkpt lat="21.355413" lon="105.353859">
<ele>29.916275</ele>
<time>2011-04-29T07:39:30Z</time>
<desc>lat.=21.355413, lon.=105.353859, Alt.=29.916275m. Speed=33.155998m/h.</desc>
<speed>9.210000</speed>
</trkpt>
<trkpt lat="21.355143" lon="105.354271">
<ele>28.193130</ele>
<time>2011-04-29T07:39:35Z</time>
<desc>lat.=21.355143, lon.=105.354271, Alt.=28.193130m. Speed=36.900002m/h.</desc>
<speed>10.250000</speed>
</trkpt>
<trkpt lat="21.354902" lon="105.354736">
<ele>28.316666</ele>
<time>2011-04-29T07:39:40Z</time>
<desc>lat.=21.354902, lon.=105.354736, Alt.=28.316666m. Speed=42.480000m/h.</desc>
<speed>11.800000</speed>
</trkpt>
<trkpt lat="21.354639" lon="105.355232">
<ele>27.123795</ele>
<time>2011-04-29T07:39:45Z</time>
<desc>lat.=21.354639, lon.=105.355232, Alt.=27.123795m. Speed=40.212002m/h.</desc>
<speed>11.170001</speed>
</trkpt>
<trkpt lat="21.354412" lon="105.355713">
<ele>25.000259</ele>
<time>2011-04-29T07:39:50Z</time>
<desc>lat.=21.354412, lon.=105.355713, Alt.=25.000259m. Speed=40.644001m/h.</desc>
<speed>11.290000</speed>
</trkpt>
<trkpt lat="21.354132" lon="105.356155">
<ele>24.187759</ele>
<time>2011-04-29T07:39:55Z</time>
<desc>lat.=21.354132, lon.=105.356155, Alt.=24.187759m. Speed=39.959999m/h.</desc>
<speed>11.100000</speed>
</trkpt>
<trkpt lat="21.353718" lon="105.356438">
<ele>23.039810</ele>
<time>2011-04-29T07:40:00Z</time>
<desc>lat.=21.353718, lon.=105.356438, Alt.=23.039810m. Speed=41.004002m/h.</desc>
<speed>11.390000</speed>
</trkpt>
<trkpt lat="21.353201" lon="105.356606">
<ele>22.095963</ele>
<time>2011-04-29T07:40:05Z</time>
<desc>lat.=21.353201, lon.=105.356606, Alt.=22.095963m. Speed=43.236000m/h.</desc>
<speed>12.010000</speed>
</trkpt>
<trkpt lat="21.352657" lon="105.356758">
<ele>21.804459</ele>
<time>2011-04-29T07:40:10Z</time>
<desc>lat.=21.352657, lon.=105.356758, Alt.=21.804459m. Speed=44.316002m/h.</desc>
<speed>12.310001</speed>
</trkpt>
<trkpt lat="21.352133" lon="105.356926">
<ele>22.897720</ele>
<time>2011-04-29T07:40:15Z</time>
<desc>lat.=21.352133, lon.=105.356926, Alt.=22.897720m. Speed=42.840000m/h.</desc>
<speed>11.900000</speed>
</trkpt>
<trkpt lat="21.351620" lon="105.357086">
<ele>22.946548</ele>
<time>2011-04-29T07:40:20Z</time>
<desc>lat.=21.351620, lon.=105.357086, Alt.=22.946548m. Speed=42.264000m/h.</desc>
<speed>11.740000</speed>
</trkpt>
<trkpt lat="21.351114" lon="105.357246">
<ele>20.966568</ele>
<time>2011-04-29T07:40:25Z</time>
<desc>lat.=21.351114, lon.=105.357246, Alt.=20.966568m. Speed=44.352001m/h.</desc>
<speed>12.320000</speed>
</trkpt>
<trkpt lat="21.350588" lon="105.357430">
<ele>21.375259</ele>
<time>2011-04-29T07:40:30Z</time>
<desc>lat.=21.350588, lon.=105.357430, Alt.=21.375259m. Speed=42.840000m/h.</desc>
<speed>11.900000</speed>
</trkpt>
<trkpt lat="21.350052" lon="105.357605">
<ele>22.747818</ele>
<time>2011-04-29T07:40:35Z</time>
<desc>lat.=21.350052, lon.=105.357605, Alt.=22.747818m. Speed=43.883999m/h.</desc>
<speed>12.190000</speed>
</trkpt>
<trkpt lat="21.349514" lon="105.357780">
<ele>23.358170</ele>
<time>2011-04-29T07:40:40Z</time>
<desc>lat.=21.349514, lon.=105.357780, Alt.=23.358170m. Speed=44.352001m/h.</desc>
<speed>12.320000</speed>
</trkpt>
<trkpt lat="21.348982" lon="105.357971">
<ele>22.958755</ele>
<time>2011-04-29T07:40:45Z</time>
<desc>lat.=21.348982, lon.=105.357971, Alt.=22.958755m. Speed=42.840000m/h.</desc>
<speed>11.900000</speed>
</trkpt>
<trkpt lat="21.348473" lon="105.358200">
<ele>22.790298</ele>
<time>2011-04-29T07:40:50Z</time>
<desc>lat.=21.348473, lon.=105.358200, Alt.=22.790298m. Speed=44.279999m/h.</desc>
<speed>12.300000</speed>
</trkpt>
<trkpt lat="21.348045" lon="105.358536">
<ele>20.392349</ele>
<time>2011-04-29T07:40:55Z</time>
<desc>lat.=21.348045, lon.=105.358536, Alt.=20.392349m. Speed=38.124001m/h.</desc>
<speed>10.590000</speed>
</trkpt>
<trkpt lat="21.347673" lon="105.358879">
<ele>16.574966</ele>
<time>2011-04-29T07:41:00Z</time>
<desc>lat.=21.347673, lon.=105.358879, Alt.=16.574966m. Speed=41.580002m/h.</desc>
<speed>11.550001</speed>
</trkpt>
<trkpt lat="21.347305" lon="105.359230">
<ele>13.937386</ele>
<time>2011-04-29T07:41:05Z</time>
<desc>lat.=21.347305, lon.=105.359230, Alt.=13.937386m. Speed=35.316002m/h.</desc>
<speed>9.810001</speed>
</trkpt>
<trkpt lat="21.346933" lon="105.359489">
<ele>13.996223</ele>
<time>2011-04-29T07:41:10Z</time>
<desc>lat.=21.346933, lon.=105.359489, Alt.=13.996223m. Speed=37.512001m/h.</desc>
<speed>10.420000</speed>
</trkpt>
<trkpt lat="21.346483" lon="105.359688">
<ele>13.131233</ele>
<time>2011-04-29T07:41:15Z</time>
<desc>lat.=21.346483, lon.=105.359688, Alt.=13.131233m. Speed=39.528000m/h.</desc>
<speed>10.980000</speed>
</trkpt>
<trkpt lat="21.345963" lon="105.359894">
<ele>13.980843</ele>
<time>2011-04-29T07:41:20Z</time>
<desc>lat.=21.345963, lon.=105.359894, Alt.=13.980843m. Speed=42.335999m/h.</desc>
<speed>11.760000</speed>
</trkpt>
<trkpt lat="21.345453" lon="105.360092">
<ele>15.152718</ele>
<time>2011-04-29T07:41:25Z</time>
<desc>lat.=21.345453, lon.=105.360092, Alt.=15.152718m. Speed=40.428001m/h.</desc>
<speed>11.230000</speed>
</trkpt>
<trkpt lat="21.344955" lon="105.360245">
<ele>15.059456</ele>
<time>2011-04-29T07:41:30Z</time>
<desc>lat.=21.344955, lon.=105.360245, Alt.=15.059456m. Speed=41.939999m/h.</desc>
<speed>11.650000</speed>
</trkpt>
<trkpt lat="21.344429" lon="105.360367">
<ele>16.454849</ele>
<time>2011-04-29T07:41:35Z</time>
<desc>lat.=21.344429, lon.=105.360367, Alt.=16.454849m. Speed=40.860001m/h.</desc>
<speed>11.350000</speed>
</trkpt>
<trkpt lat="21.343931" lon="105.360474">
<ele>14.350471</ele>
<time>2011-04-29T07:41:40Z</time>
<desc>lat.=21.343931, lon.=105.360474, Alt.=14.350471m. Speed=41.436001m/h.</desc>
<speed>11.510000</speed>
</trkpt>
<trkpt lat="21.343416" lon="105.360603">
<ele>15.022591</ele>
<time>2011-04-29T07:41:45Z</time>
<desc>lat.=21.343416, lon.=105.360603, Alt.=15.022591m. Speed=40.931999m/h.</desc>
<speed>11.370000</speed>
</trkpt>
<trkpt lat="21.342987" lon="105.360893">
<ele>17.007584</ele>
<time>2011-04-29T07:41:50Z</time>
<desc>lat.=21.342987, lon.=105.360893, Alt.=17.007584m. Speed=37.655998m/h.</desc>
<speed>10.460000</speed>
</trkpt>
<trkpt lat="21.342739" lon="105.361275">
<ele>18.654556</ele>
<time>2011-04-29T07:41:55Z</time>
<desc>lat.=21.342739, lon.=105.361275, Alt.=18.654556m. Speed=34.523998m/h.</desc>
<speed>9.590000</speed>
</trkpt>
<trkpt lat="21.342560" lon="105.361694">
<ele>19.415787</ele>
<time>2011-04-29T07:42:00Z</time>
<desc>lat.=21.342560, lon.=105.361694, Alt.=19.415787m. Speed=34.164001m/h.</desc>
<speed>9.490000</speed>
</trkpt>
<trkpt lat="21.342354" lon="105.362167">
<ele>18.449966</ele>
<time>2011-04-29T07:42:05Z</time>
<desc>lat.=21.342354, lon.=105.362167, Alt.=18.449966m. Speed=38.160000m/h.</desc>
<speed>10.600000</speed>
</trkpt>
<trkpt lat="21.342154" lon="105.362625">
<ele>19.241959</ele>
<time>2011-04-29T07:42:10Z</time>
<desc>lat.=21.342154, lon.=105.362625, Alt.=19.241959m. Speed=34.667999m/h.</desc>
<speed>9.630000</speed>
</trkpt>
<trkpt lat="21.341919" lon="105.363045">
<ele>17.967056</ele>
<time>2011-04-29T07:42:15Z</time>
<desc>lat.=21.341919, lon.=105.363045, Alt.=17.967056m. Speed=38.556000m/h.</desc>
<speed>10.710000</speed>
</trkpt>
<trkpt lat="21.341593" lon="105.363464">
<ele>17.301529</ele>
<time>2011-04-29T07:42:20Z</time>
<desc>lat.=21.341593, lon.=105.363464, Alt.=17.301529m. Speed=39.203999m/h.</desc>
<speed>10.890000</speed>
</trkpt>
<trkpt lat="21.341269" lon="105.363869">
<ele>15.595589</ele>
<time>2011-04-29T07:42:25Z</time>
<desc>lat.=21.341269, lon.=105.363869, Alt.=15.595589m. Speed=41.183998m/h.</desc>
<speed>11.439999</speed>
</trkpt>
<trkpt lat="21.340940" lon="105.364273">
<ele>13.907356</ele>
<time>2011-04-29T07:42:30Z</time>
<desc>lat.=21.340940, lon.=105.364273, Alt.=13.907356m. Speed=39.995998m/h.</desc>
<speed>11.110000</speed>
</trkpt>
<trkpt lat="21.340599" lon="105.364662">
<ele>13.856575</ele>
<time>2011-04-29T07:42:35Z</time>
<desc>lat.=21.340599, lon.=105.364662, Alt.=13.856575m. Speed=40.500000m/h.</desc>
<speed>11.250000</speed>
</trkpt>
<trkpt lat="21.340252" lon="105.365097">
<ele>13.501106</ele>
<time>2011-04-29T07:42:40Z</time>
<desc>lat.=21.340252, lon.=105.365097, Alt.=13.501106m. Speed=42.948002m/h.</desc>
<speed>11.930001</speed>
</trkpt>
<trkpt lat="21.339903" lon="105.365524">
<ele>12.226448</ele>
<time>2011-04-29T07:42:45Z</time>
<desc>lat.=21.339903, lon.=105.365524, Alt.=12.226448m. Speed=42.875999m/h.</desc>
<speed>11.910000</speed>
</trkpt>
<trkpt lat="21.339548" lon="105.365952">
<ele>11.602913</ele>
<time>2011-04-29T07:42:50Z</time>
<desc>lat.=21.339548, lon.=105.365952, Alt.=11.602913m. Speed=42.480000m/h.</desc>
<speed>11.800000</speed>
</trkpt>
<trkpt lat="21.339201" lon="105.366348">
<ele>11.812141</ele>
<time>2011-04-29T07:42:55Z</time>
<desc>lat.=21.339201, lon.=105.366348, Alt.=11.812141m. Speed=39.636002m/h.</desc>
<speed>11.010000</speed>
</trkpt>
<trkpt lat="21.338879" lon="105.366745">
<ele>11.857063</ele>
<time>2011-04-29T07:43:00Z</time>
<desc>lat.=21.338879, lon.=105.366745, Alt.=11.857063m. Speed=37.872002m/h.</desc>
<speed>10.520000</speed>
</trkpt>
<trkpt lat="21.338547" lon="105.367134">
<ele>12.011848</ele>
<time>2011-04-29T07:43:05Z</time>
<desc>lat.=21.338547, lon.=105.367134, Alt.=12.011848m. Speed=37.007999m/h.</desc>
<speed>10.280000</speed>
</trkpt>
<trkpt lat="21.338234" lon="105.367561">
<ele>11.308235</ele>
<time>2011-04-29T07:43:10Z</time>
<desc>lat.=21.338234, lon.=105.367561, Alt.=11.308235m. Speed=38.736000m/h.</desc>
<speed>10.760000</speed>
</trkpt>
<trkpt lat="21.337959" lon="105.368019">
<ele>9.922005</ele>
<time>2011-04-29T07:43:15Z</time>
<desc>lat.=21.337959, lon.=105.368019, Alt.=9.922005m. Speed=38.375999m/h.</desc>
<speed>10.660000</speed>
</trkpt>
<trkpt lat="21.337776" lon="105.368492">
<ele>10.823616</ele>
<time>2011-04-29T07:43:20Z</time>
<desc>lat.=21.337776, lon.=105.368492, Alt.=10.823616m. Speed=39.348000m/h.</desc>
<speed>10.930000</speed>
</trkpt>
<trkpt lat="21.337637" lon="105.368988">
<ele>11.382210</ele>
<time>2011-04-29T07:43:25Z</time>
<desc>lat.=21.337637, lon.=105.368988, Alt.=11.382210m. Speed=37.980000m/h.</desc>
<speed>10.550000</speed>
</trkpt>
<trkpt lat="21.337509" lon="105.369499">
<ele>11.802132</ele>
<time>2011-04-29T07:43:30Z</time>
<desc>lat.=21.337509, lon.=105.369499, Alt.=11.802132m. Speed=36.756001m/h.</desc>
<speed>10.210000</speed>
</trkpt>
<trkpt lat="21.337420" lon="105.369965">
<ele>11.061653</ele>
<time>2011-04-29T07:43:35Z</time>
<desc>lat.=21.337420, lon.=105.369965, Alt.=11.061653m. Speed=33.048000m/h.</desc>
<speed>9.180000</speed>
</trkpt>
<trkpt lat="21.337324" lon="105.370361">
<ele>11.152473</ele>
<time>2011-04-29T07:43:40Z</time>
<desc>lat.=21.337324, lon.=105.370361, Alt.=11.152473m. Speed=24.768000m/h.</desc>
<speed>6.880000</speed>
</trkpt>
<trkpt lat="21.337233" lon="105.370644">
<ele>11.330208</ele>
<time>2011-04-29T07:43:45Z</time>
<desc>lat.=21.337233, lon.=105.370644, Alt.=11.330208m. Speed=24.768000m/h.</desc>
<speed>6.880000</speed>
</trkpt>
<trkpt lat="21.337091" lon="105.370995">
<ele>11.983284</ele>
<time>2011-04-29T07:43:50Z</time>
<desc>lat.=21.337091, lon.=105.370995, Alt.=11.983284m. Speed=30.708000m/h.</desc>
<speed>8.530000</speed>
</trkpt>
<trkpt lat="21.336887" lon="105.371391">
<ele>12.696175</ele>
<time>2011-04-29T07:43:55Z</time>
<desc>lat.=21.336887, lon.=105.371391, Alt.=12.696175m. Speed=33.048000m/h.</desc>
<speed>9.180000</speed>
</trkpt>
<trkpt lat="21.336605" lon="105.371773">
<ele>13.715218</ele>
<time>2011-04-29T07:44:00Z</time>
<desc>lat.=21.336605, lon.=105.371773, Alt.=13.715218m. Speed=38.160000m/h.</desc>
<speed>10.600000</speed>
</trkpt>
<trkpt lat="21.336304" lon="105.372238">
<ele>16.370377</ele>
<time>2011-04-29T07:44:05Z</time>
<desc>lat.=21.336304, lon.=105.372238, Alt.=16.370377m. Speed=41.327999m/h.</desc>
<speed>11.480000</speed>
</trkpt>
<trkpt lat="21.335960" lon="105.372704">
<ele>16.346939</ele>
<time>2011-04-29T07:44:10Z</time>
<desc>lat.=21.335960, lon.=105.372704, Alt.=16.346939m. Speed=40.896000m/h.</desc>
<speed>11.360000</speed>
</trkpt>
<trkpt lat="21.335617" lon="105.373070">
<ele>16.764420</ele>
<time>2011-04-29T07:44:15Z</time>
<desc>lat.=21.335617, lon.=105.373070, Alt.=16.764420m. Speed=39.383999m/h.</desc>
<speed>10.940000</speed>
</trkpt>
<trkpt lat="21.335196" lon="105.373444">
<ele>17.664810</ele>
<time>2011-04-29T07:44:20Z</time>
<desc>lat.=21.335196, lon.=105.373444, Alt.=17.664810m. Speed=41.183998m/h.</desc>
<speed>11.439999</speed>
</trkpt>
<trkpt lat="21.334740" lon="105.373795">
<ele>16.817642</ele>
<time>2011-04-29T07:44:25Z</time>
<desc>lat.=21.334740, lon.=105.373795, Alt.=16.817642m. Speed=39.203999m/h.</desc>
<speed>10.890000</speed>
</trkpt>
<trkpt lat="21.334322" lon="105.374100">
<ele>16.158951</ele>
<time>2011-04-29T07:44:30Z</time>
<desc>lat.=21.334322, lon.=105.374100, Alt.=16.158951m. Speed=40.212002m/h.</desc>
<speed>11.170001</speed>
</trkpt>
<trkpt lat="21.333900" lon="105.374397">
<ele>16.047623</ele>
<time>2011-04-29T07:44:35Z</time>
<desc>lat.=21.333900, lon.=105.374397, Alt.=16.047623m. Speed=39.959999m/h.</desc>
<speed>11.100000</speed>
</trkpt>
<trkpt lat="21.333435" lon="105.374687">
<ele>16.587662</ele>
<time>2011-04-29T07:44:40Z</time>
<desc>lat.=21.333435, lon.=105.374687, Alt.=16.587662m. Speed=39.312000m/h.</desc>
<speed>10.920000</speed>
</trkpt>
<trkpt lat="21.333063" lon="105.374947">
<ele>15.798958</ele>
<time>2011-04-29T07:44:45Z</time>
<desc>lat.=21.333063, lon.=105.374947, Alt.=15.798958m. Speed=28.548000m/h.</desc>
<speed>7.930000</speed>
</trkpt>
<trkpt lat="21.332865" lon="105.375092">
<ele>15.055794</ele>
<time>2011-04-29T07:44:50Z</time>
<desc>lat.=21.332865, lon.=105.375092, Alt.=15.055794m. Speed=13.068000m/h.</desc>
<speed>3.630000</speed>
</trkpt>
<trkpt lat="21.332821" lon="105.375137">
<ele>14.065804</ele>
<time>2011-04-29T07:44:55Z</time>
<desc>lat.=21.332821, lon.=105.375137, Alt.=14.065804m. Speed=2.088000m/h.</desc>
<speed>0.580000</speed>
</trkpt>
<trkpt lat="21.332825" lon="105.375153">
<ele>14.593636</ele>
<time>2011-04-29T07:45:00Z</time>
<desc>lat.=21.332825, lon.=105.375153, Alt.=14.593636m. Speed=1.260000m/h.</desc>
<speed>0.350000</speed>
</trkpt>
<trkpt lat="21.332773" lon="105.375183">
<ele>14.863655</ele>
<time>2011-04-29T07:45:05Z</time>
<desc>lat.=21.332773, lon.=105.375183, Alt.=14.863655m. Speed=9.792000m/h.</desc>
<speed>2.720000</speed>
</trkpt>
<trkpt lat="21.332592" lon="105.375282">
<ele>13.734505</ele>
<time>2011-04-29T07:45:10Z</time>
<desc>lat.=21.332592, lon.=105.375282, Alt.=13.734505m. Speed=19.980000m/h.</desc>
<speed>5.550000</speed>
</trkpt>
<trkpt lat="21.332344" lon="105.375427">
<ele>11.490852</ele>
<time>2011-04-29T07:45:15Z</time>
<desc>lat.=21.332344, lon.=105.375427, Alt.=11.490852m. Speed=23.580000m/h.</desc>
<speed>6.550000</speed>
</trkpt>
<trkpt lat="21.332018" lon="105.375656">
<ele>10.110725</ele>
<time>2011-04-29T07:45:20Z</time>
<desc>lat.=21.332018, lon.=105.375656, Alt.=10.110725m. Speed=30.096001m/h.</desc>
<speed>8.360000</speed>
</trkpt>
<trkpt lat="21.331713" lon="105.375885">
<ele>9.261848</ele>
<time>2011-04-29T07:45:25Z</time>
<desc>lat.=21.331713, lon.=105.375885, Alt.=9.261848m. Speed=29.952000m/h.</desc>
<speed>8.320000</speed>
</trkpt>
<trkpt lat="21.331381" lon="105.376167">
<ele>9.419319</ele>
<time>2011-04-29T07:45:30Z</time>
<desc>lat.=21.331381, lon.=105.376167, Alt.=9.419319m. Speed=35.459999m/h.</desc>
<speed>9.850000</speed>
</trkpt>
<trkpt lat="21.331030" lon="105.376511">
<ele>7.499088</ele>
<time>2011-04-29T07:45:35Z</time>
<desc>lat.=21.331030, lon.=105.376511, Alt.=7.499088m. Speed=39.743999m/h.</desc>
<speed>11.040000</speed>
</trkpt>
<trkpt lat="21.330660" lon="105.376877">
<ele>6.429142</ele>
<time>2011-04-29T07:45:40Z</time>
<desc>lat.=21.330660, lon.=105.376877, Alt.=6.429142m. Speed=41.183998m/h.</desc>
<speed>11.439999</speed>
</trkpt>
<trkpt lat="21.330290" lon="105.377243">
<ele>4.917057</ele>
<time>2011-04-29T07:45:45Z</time>
<desc>lat.=21.330290, lon.=105.377243, Alt.=4.917057m. Speed=40.896000m/h.</desc>
<speed>11.360000</speed>
</trkpt>
<trkpt lat="21.329937" lon="105.377586">
<ele>5.020695</ele>
<time>2011-04-29T07:45:50Z</time>
<desc>lat.=21.329937, lon.=105.377586, Alt.=5.020695m. Speed=36.360001m/h.</desc>
<speed>10.100000</speed>
</trkpt>
<trkpt lat="21.329618" lon="105.377899">
<ele>5.245060</ele>
<time>2011-04-29T07:45:55Z</time>
<desc>lat.=21.329618, lon.=105.377899, Alt.=5.245060m. Speed=36.396000m/h.</desc>
<speed>10.110000</speed>
</trkpt>
<trkpt lat="21.329294" lon="105.378212">
<ele>4.442448</ele>
<time>2011-04-29T07:46:00Z</time>
<desc>lat.=21.329294, lon.=105.378212, Alt.=4.442448m. Speed=32.759998m/h.</desc>
<speed>9.100000</speed>
</trkpt>
<trkpt lat="21.328979" lon="105.378494">
<ele>4.653996</ele>
<time>2011-04-29T07:46:05Z</time>
<desc>lat.=21.328979, lon.=105.378494, Alt.=4.653996m. Speed=31.464001m/h.</desc>
<speed>8.740000</speed>
</trkpt>
<trkpt lat="21.328682" lon="105.378784">
<ele>4.940006</ele>
<time>2011-04-29T07:46:10Z</time>
<desc>lat.=21.328682, lon.=105.378784, Alt.=4.940006m. Speed=29.628000m/h.</desc>
<speed>8.230000</speed>
</trkpt>
<trkpt lat="21.328419" lon="105.379044">
<ele>5.058048</ele>
<time>2011-04-29T07:46:15Z</time>
<desc>lat.=21.328419, lon.=105.379044, Alt.=5.058048m. Speed=22.464001m/h.</desc>
<speed>6.240000</speed>
</trkpt>
<trkpt lat="21.328215" lon="105.379265">
<ele>3.448519</ele>
<time>2011-04-29T07:46:20Z</time>
<desc>lat.=21.328215, lon.=105.379265, Alt.=3.448519m. Speed=17.784000m/h.</desc>
<speed>4.940000</speed>
</trkpt>
<trkpt lat="21.328018" lon="105.379463">
<ele>6.580875</ele>
<time>2011-04-29T07:46:25Z</time>
<desc>lat.=21.328018, lon.=105.379463, Alt.=6.580875m. Speed=21.312000m/h.</desc>
<speed>5.920000</speed>
</trkpt>
<trkpt lat="21.327799" lon="105.379692">
<ele>6.711124</ele>
<time>2011-04-29T07:46:30Z</time>
<desc>lat.=21.327799, lon.=105.379692, Alt.=6.711124m. Speed=25.704000m/h.</desc>
<speed>7.140000</speed>
</trkpt>
<trkpt lat="21.327555" lon="105.379906">
<ele>7.292057</ele>
<time>2011-04-29T07:46:35Z</time>
<desc>lat.=21.327555, lon.=105.379906, Alt.=7.292057m. Speed=27.864000m/h.</desc>
<speed>7.740000</speed>
</trkpt>
<trkpt lat="21.327272" lon="105.380180">
<ele>7.137882</ele>
<time>2011-04-29T07:46:40Z</time>
<desc>lat.=21.327272, lon.=105.380180, Alt.=7.137882m. Speed=33.299999m/h.</desc>
<speed>9.250000</speed>
</trkpt>
<trkpt lat="21.326971" lon="105.380470">
<ele>7.455387</ele>
<time>2011-04-29T07:46:45Z</time>
<desc>lat.=21.326971, lon.=105.380470, Alt.=7.455387m. Speed=33.372002m/h.</desc>
<speed>9.270000</speed>
</trkpt>
<trkpt lat="21.326651" lon="105.380798">
<ele>7.452702</ele>
<time>2011-04-29T07:46:50Z</time>
<desc>lat.=21.326651, lon.=105.380798, Alt.=7.452702m. Speed=31.752001m/h.</desc>
<speed>8.820000</speed>
</trkpt>
<trkpt lat="21.326342" lon="105.381081">
<ele>7.204655</ele>
<time>2011-04-29T07:46:55Z</time>
<desc>lat.=21.326342, lon.=105.381081, Alt.=7.204655m. Speed=32.076000m/h.</desc>
<speed>8.910000</speed>
</trkpt>
<trkpt lat="21.326021" lon="105.381378">
<ele>6.843571</ele>
<time>2011-04-29T07:47:00Z</time>
<desc>lat.=21.326021, lon.=105.381378, Alt.=6.843571m. Speed=33.984001m/h.</desc>
<speed>9.440000</speed>
</trkpt>
<trkpt lat="21.325710" lon="105.381699">
<ele>5.582340</ele>
<time>2011-04-29T07:47:05Z</time>
<desc>lat.=21.325710, lon.=105.381699, Alt.=5.582340m. Speed=30.672001m/h.</desc>
<speed>8.520000</speed>
</trkpt>
<trkpt lat="21.325399" lon="105.381958">
<ele>5.377384</ele>
<time>2011-04-29T07:47:10Z</time>
<desc>lat.=21.325399, lon.=105.381958, Alt.=5.377384m. Speed=26.351999m/h.</desc>
<speed>7.320000</speed>
</trkpt>
<trkpt lat="21.325193" lon="105.382164">
<ele>5.604313</ele>
<time>2011-04-29T07:47:15Z</time>
<desc>lat.=21.325193, lon.=105.382164, Alt.=5.604313m. Speed=15.300000m/h.</desc>
<speed>4.250000</speed>
</trkpt>
<trkpt lat="21.325077" lon="105.382278">
<ele>9.202766</ele>
<time>2011-04-29T07:47:20Z</time>
<desc>lat.=21.325077, lon.=105.382278, Alt.=9.202766m. Speed=8.496000m/h.</desc>
<speed>2.360000</speed>
</trkpt>
<trkpt lat="21.325006" lon="105.382347">
<ele>13.734505</ele>
<time>2011-04-29T07:47:25Z</time>
<desc>lat.=21.325006, lon.=105.382347, Alt.=13.734505m. Speed=2.772000m/h.</desc>
<speed>0.770000</speed>
</trkpt>
<trkpt lat="21.325003" lon="105.382324">
<ele>9.201057</ele>
<time>2011-04-29T07:47:30Z</time>
<desc>lat.=21.325003, lon.=105.382324, Alt.=9.201057m. Speed=0.432000m/h.</desc>
<speed>0.120000</speed>
</trkpt>
<trkpt lat="21.325006" lon="105.382332">
<ele>10.052864</ele>
<time>2011-04-29T07:47:35Z</time>
<desc>lat.=21.325006, lon.=105.382332, Alt.=10.052864m. Speed=0.252000m/h.</desc>
<speed>0.070000</speed>
</trkpt>
<trkpt lat="21.325029" lon="105.382332">
<ele>7.812321</ele>
<time>2011-04-29T07:47:40Z</time>
<desc>lat.=21.325029, lon.=105.382332, Alt.=7.812321m. Speed=0.720000m/h.</desc>
<speed>0.200000</speed>
</trkpt>
<trkpt lat="21.325037" lon="105.382347">
<ele>8.285774</ele>
<time>2011-04-29T07:47:45Z</time>
<desc>lat.=21.325037, lon.=105.382347, Alt.=8.285774m. Speed=1.332000m/h.</desc>
<speed>0.370000</speed>
</trkpt>
<trkpt lat="21.324965" lon="105.382393">
<ele>10.216682</ele>
<time>2011-04-29T07:47:50Z</time>
<desc>lat.=21.324965, lon.=105.382393, Alt.=10.216682m. Speed=9.576000m/h.</desc>
<speed>2.660000</speed>
</trkpt>
<trkpt lat="21.324835" lon="105.382530">
<ele>9.427864</ele>
<time>2011-04-29T07:47:55Z</time>
<desc>lat.=21.324835, lon.=105.382530, Alt.=9.427864m. Speed=15.912000m/h.</desc>
<speed>4.420000</speed>
</trkpt>
<trkpt lat="21.324694" lon="105.382706">
<ele>7.704899</ele>
<time>2011-04-29T07:48:00Z</time>
<desc>lat.=21.324694, lon.=105.382706, Alt.=7.704899m. Speed=14.328000m/h.</desc>
<speed>3.980000</speed>
</trkpt>
<trkpt lat="21.324524" lon="105.382828">
<ele>8.847298</ele>
<time>2011-04-29T07:48:05Z</time>
<desc>lat.=21.324524, lon.=105.382828, Alt.=8.847298m. Speed=18.252001m/h.</desc>
<speed>5.070000</speed>
</trkpt>
<trkpt lat="21.324343" lon="105.383011">
<ele>17.726334</ele>
<time>2011-04-29T07:48:10Z</time>
<desc>lat.=21.324343, lon.=105.383011, Alt.=17.726334m. Speed=18.864000m/h.</desc>
<speed>5.240000</speed>
</trkpt>
<trkpt lat="21.324125" lon="105.383202">
<ele>22.320572</ele>
<time>2011-04-29T07:48:15Z</time>
<desc>lat.=21.324125, lon.=105.383202, Alt.=22.320572m. Speed=21.672001m/h.</desc>
<speed>6.020000</speed>
</trkpt>
<trkpt lat="21.323883" lon="105.383408">
<ele>24.488052</ele>
<time>2011-04-29T07:48:20Z</time>
<desc>lat.=21.323883, lon.=105.383408, Alt.=24.488052m. Speed=24.732000m/h.</desc>
<speed>6.870000</speed>
</trkpt>
<trkpt lat="21.323606" lon="105.383659">
<ele>27.298599</ele>
<time>2011-04-29T07:48:25Z</time>
<desc>lat.=21.323606, lon.=105.383659, Alt.=27.298599m. Speed=29.628000m/h.</desc>
<speed>8.230000</speed>
</trkpt>
<trkpt lat="21.323225" lon="105.383957">
<ele>26.516373</ele>
<time>2011-04-29T07:48:30Z</time>
<desc>lat.=21.323225, lon.=105.383957, Alt.=26.516373m. Speed=33.408001m/h.</desc>
<speed>9.280000</speed>
</trkpt>
<trkpt lat="21.322847" lon="105.384270">
<ele>25.597427</ele>
<time>2011-04-29T07:48:35Z</time>
<desc>lat.=21.322847, lon.=105.384270, Alt.=25.597427m. Speed=35.424000m/h.</desc>
<speed>9.840000</speed>
</trkpt>
<trkpt lat="21.322475" lon="105.384567">
<ele>27.261978</ele>
<time>2011-04-29T07:48:40Z</time>
<desc>lat.=21.322475, lon.=105.384567, Alt.=27.261978m. Speed=33.408001m/h.</desc>
<speed>9.280000</speed>
</trkpt>
<trkpt lat="21.322138" lon="105.384827">
<ele>24.247330</ele>
<time>2011-04-29T07:48:45Z</time>
<desc>lat.=21.322138, lon.=105.384827, Alt.=24.247330m. Speed=32.040001m/h.</desc>
<speed>8.900000</speed>
</trkpt>
<trkpt lat="21.321804" lon="105.385139">
<ele>23.721939</ele>
<time>2011-04-29T07:48:50Z</time>
<desc>lat.=21.321804, lon.=105.385139, Alt.=23.721939m. Speed=34.596001m/h.</desc>
<speed>9.610000</speed>
</trkpt>
<trkpt lat="21.321424" lon="105.385452">
<ele>21.784927</ele>
<time>2011-04-29T07:48:55Z</time>
<desc>lat.=21.321424, lon.=105.385452, Alt.=21.784927m. Speed=33.660000m/h.</desc>
<speed>9.350000</speed>
</trkpt>
<trkpt lat="21.321087" lon="105.385750">
<ele>18.341568</ele>
<time>2011-04-29T07:49:00Z</time>
<desc>lat.=21.321087, lon.=105.385750, Alt.=18.341568m. Speed=33.768002m/h.</desc>
<speed>9.380000</speed>
</trkpt>
<trkpt lat="21.320709" lon="105.386078">
<ele>15.875862</ele>
<time>2011-04-29T07:49:05Z</time>
<desc>lat.=21.320709, lon.=105.386078, Alt.=15.875862m. Speed=39.599998m/h.</desc>
<speed>11.000000</speed>
</trkpt>
<trkpt lat="21.320307" lon="105.386414">
<ele>14.809456</ele>
<time>2011-04-29T07:49:10Z</time>
<desc>lat.=21.320307, lon.=105.386414, Alt.=14.809456m. Speed=36.287998m/h.</desc>
<speed>10.079999</speed>
</trkpt>
<trkpt lat="21.319939" lon="105.386734">
<ele>14.662727</ele>
<time>2011-04-29T07:49:15Z</time>
<desc>lat.=21.319939, lon.=105.386734, Alt.=14.662727m. Speed=36.144001m/h.</desc>
<speed>10.040000</speed>
</trkpt>
<trkpt lat="21.319580" lon="105.387032">
<ele>12.274055</ele>
<time>2011-04-29T07:49:20Z</time>
<desc>lat.=21.319580, lon.=105.387032, Alt.=12.274055m. Speed=36.863998m/h.</desc>
<speed>10.240000</speed>
</trkpt>
<trkpt lat="21.319216" lon="105.387352">
<ele>9.671761</ele>
<time>2011-04-29T07:49:25Z</time>
<desc>lat.=21.319216, lon.=105.387352, Alt.=9.671761m. Speed=38.484001m/h.</desc>
<speed>10.690000</speed>
</trkpt>
<trkpt lat="21.318823" lon="105.387688">
<ele>10.504280</ele>
<time>2011-04-29T07:49:30Z</time>
<desc>lat.=21.318823, lon.=105.387688, Alt.=10.504280m. Speed=41.256001m/h.</desc>
<speed>11.460000</speed>
</trkpt>
<trkpt lat="21.318409" lon="105.388023">
<ele>10.162239</ele>
<time>2011-04-29T07:49:35Z</time>
<desc>lat.=21.318409, lon.=105.388023, Alt.=10.162239m. Speed=41.400002m/h.</desc>
<speed>11.500000</speed>
</trkpt>
<trkpt lat="21.318014" lon="105.388359">
<ele>12.925911</ele>
<time>2011-04-29T07:49:40Z</time>
<desc>lat.=21.318014, lon.=105.388359, Alt.=12.925911m. Speed=37.764000m/h.</desc>
<speed>10.490000</speed>
</trkpt>
<trkpt lat="21.317617" lon="105.388695">
<ele>15.256966</ele>
<time>2011-04-29T07:49:45Z</time>
<desc>lat.=21.317617, lon.=105.388695, Alt.=15.256966m. Speed=37.619999m/h.</desc>
<speed>10.450000</speed>
</trkpt>
<trkpt lat="21.317236" lon="105.389000">
<ele>14.978889</ele>
<time>2011-04-29T07:49:50Z</time>
<desc>lat.=21.317236, lon.=105.389000, Alt.=14.978889m. Speed=36.287998m/h.</desc>
<speed>10.079999</speed>
</trkpt>
<trkpt lat="21.316877" lon="105.389259">
<ele>14.391243</ele>
<time>2011-04-29T07:49:55Z</time>
<desc>lat.=21.316877, lon.=105.389259, Alt.=14.391243m. Speed=34.703999m/h.</desc>
<speed>9.640000</speed>
</trkpt>
<trkpt lat="21.316555" lon="105.389542">
<ele>12.111702</ele>
<time>2011-04-29T07:50:00Z</time>
<desc>lat.=21.316555, lon.=105.389542, Alt.=12.111702m. Speed=34.271999m/h.</desc>
<speed>9.520000</speed>
</trkpt>
<trkpt lat="21.316233" lon="105.389854">
<ele>11.795540</ele>
<time>2011-04-29T07:50:05Z</time>
<desc>lat.=21.316233, lon.=105.389854, Alt.=11.795540m. Speed=35.172001m/h.</desc>
<speed>9.770000</speed>
</trkpt>
<trkpt lat="21.315907" lon="105.390228">
<ele>8.573128</ele>
<time>2011-04-29T07:50:10Z</time>
<desc>lat.=21.315907, lon.=105.390228, Alt.=8.573128m. Speed=36.576000m/h.</desc>
<speed>10.160000</speed>
</trkpt>
<trkpt lat="21.315638" lon="105.390633">
<ele>5.849796</ele>
<time>2011-04-29T07:50:15Z</time>
<desc>lat.=21.315638, lon.=105.390633, Alt.=5.849796m. Speed=40.535999m/h.</desc>
<speed>11.260000</speed>
</trkpt>
<trkpt lat="21.315392" lon="105.391045">
<ele>4.198185</ele>
<time>2011-04-29T07:50:20Z</time>
<desc>lat.=21.315392, lon.=105.391045, Alt.=4.198185m. Speed=36.000000m/h.</desc>
<speed>10.000000</speed>
</trkpt>
<trkpt lat="21.315121" lon="105.391457">
<ele>1.988542</ele>
<time>2011-04-29T07:50:25Z</time>
<desc>lat.=21.315121, lon.=105.391457, Alt.=1.988542m. Speed=36.324001m/h.</desc>
<speed>10.090000</speed>
</trkpt>
<trkpt lat="21.314886" lon="105.391914">
<ele>2.546907</ele>
<time>2011-04-29T07:50:30Z</time>
<desc>lat.=21.314886, lon.=105.391914, Alt.=2.546907m. Speed=38.520000m/h.</desc>
<speed>10.700000</speed>
</trkpt>
<trkpt lat="21.314631" lon="105.392387">
<ele>5.091496</ele>
<time>2011-04-29T07:50:35Z</time>
<desc>lat.=21.314631, lon.=105.392387, Alt.=5.091496m. Speed=40.391998m/h.</desc>
<speed>11.220000</speed>
</trkpt>
<trkpt lat="21.314377" lon="105.392883">
<ele>6.712589</ele>
<time>2011-04-29T07:50:40Z</time>
<desc>lat.=21.314377, lon.=105.392883, Alt.=6.712589m. Speed=39.852001m/h.</desc>
<speed>11.070000</speed>
</trkpt>
<trkpt lat="21.314140" lon="105.393364">
<ele>10.222542</ele>
<time>2011-04-29T07:50:45Z</time>
<desc>lat.=21.314140, lon.=105.393364, Alt.=10.222542m. Speed=35.604000m/h.</desc>
<speed>9.890000</speed>
</trkpt>
<trkpt lat="21.313932" lon="105.393791">
<ele>11.492073</ele>
<time>2011-04-29T07:50:50Z</time>
<desc>lat.=21.313932, lon.=105.393791, Alt.=11.492073m. Speed=34.883999m/h.</desc>
<speed>9.690000</speed>
</trkpt>
<trkpt lat="21.313770" lon="105.394119">
<ele>12.381966</ele>
<time>2011-04-29T07:50:55Z</time>
<desc>lat.=21.313770, lon.=105.394119, Alt.=12.381966m. Speed=20.628000m/h.</desc>
<speed>5.730000</speed>
</trkpt>
<trkpt lat="21.313684" lon="105.394295">
<ele>12.925423</ele>
<time>2011-04-29T07:51:00Z</time>
<desc>lat.=21.313684, lon.=105.394295, Alt.=12.925423m. Speed=7.596000m/h.</desc>
<speed>2.110000</speed>
</trkpt>
<trkpt lat="21.313692" lon="105.394325">
<ele>12.076302</ele>
<time>2011-04-29T07:51:05Z</time>
<desc>lat.=21.313692, lon.=105.394325, Alt.=12.076302m. Speed=0.936000m/h.</desc>
<speed>0.260000</speed>
</trkpt>
<trkpt lat="21.313694" lon="105.394333">
<ele>12.098763</ele>
<time>2011-04-29T07:51:10Z</time>
<desc>lat.=21.313694, lon.=105.394333, Alt.=12.098763m. Speed=0.396000m/h.</desc>
<speed>0.110000</speed>
</trkpt>
<trkpt lat="21.313696" lon="105.394333">
<ele>12.099251</ele>
<time>2011-04-29T07:51:15Z</time>
<desc>lat.=21.313696, lon.=105.394333, Alt.=12.099251m. Speed=0.036000m/h.</desc>
<speed>0.010000</speed>
</trkpt>
<trkpt lat="21.313698" lon="105.394333">
<ele>12.103645</ele>
<time>2011-04-29T07:51:20Z</time>
<desc>lat.=21.313698, lon.=105.394333, Alt.=12.103645m. Speed=0.252000m/h.</desc>
<speed>0.070000</speed>
</trkpt>
<trkpt lat="21.313667" lon="105.394379">
<ele>11.287239</ele>
<time>2011-04-29T07:51:25Z</time>
<desc>lat.=21.313667, lon.=105.394379, Alt.=11.287239m. Speed=11.556000m/h.</desc>
<speed>3.210000</speed>
</trkpt>
<trkpt lat="21.313562" lon="105.394547">
<ele>12.091194</ele>
<time>2011-04-29T07:51:30Z</time>
<desc>lat.=21.313562, lon.=105.394547, Alt.=12.091194m. Speed=15.156000m/h.</desc>
<speed>4.210000</speed>
</trkpt>
<trkpt lat="21.313452" lon="105.394722">
<ele>11.962288</ele>
<time>2011-04-29T07:51:35Z</time>
<desc>lat.=21.313452, lon.=105.394722, Alt.=11.962288m. Speed=18.288000m/h.</desc>
<speed>5.080000</speed>
</trkpt>
<trkpt lat="21.313341" lon="105.394974">
<ele>12.193733</ele>
<time>2011-04-29T07:51:40Z</time>
<desc>lat.=21.313341, lon.=105.394974, Alt.=12.193733m. Speed=20.591999m/h.</desc>
<speed>5.720000</speed>
</trkpt>
<trkpt lat="21.313177" lon="105.395309">
<ele>12.390266</ele>
<time>2011-04-29T07:51:45Z</time>
<desc>lat.=21.313177, lon.=105.395309, Alt.=12.390266m. Speed=28.836000m/h.</desc>
<speed>8.010000</speed>
</trkpt>
<trkpt lat="21.312992" lon="105.395691">
<ele>10.082893</ele>
<time>2011-04-29T07:51:50Z</time>
<desc>lat.=21.312992, lon.=105.395691, Alt.=10.082893m. Speed=30.384001m/h.</desc>
<speed>8.440000</speed>
</trkpt>
<trkpt lat="21.312796" lon="105.396065">
<ele>9.682747</ele>
<time>2011-04-29T07:51:55Z</time>
<desc>lat.=21.312796, lon.=105.396065, Alt.=9.682747m. Speed=33.084000m/h.</desc>
<speed>9.190000</speed>
</trkpt>
<trkpt lat="21.312595" lon="105.396477">
<ele>9.000618</ele>
<time>2011-04-29T07:52:00Z</time>
<desc>lat.=21.312595, lon.=105.396477, Alt.=9.000618m. Speed=33.840000m/h.</desc>
<speed>9.400000</speed>
</trkpt>
<trkpt lat="21.312403" lon="105.396858">
<ele>7.148014</ele>
<time>2011-04-29T07:52:05Z</time>
<desc>lat.=21.312403, lon.=105.396858, Alt.=7.148014m. Speed=32.616001m/h.</desc>
<speed>9.060000</speed>
</trkpt>
<trkpt lat="21.312183" lon="105.397316">
<ele>6.072575</ele>
<time>2011-04-29T07:52:10Z</time>
<desc>lat.=21.312183, lon.=105.397316, Alt.=6.072575m. Speed=38.340000m/h.</desc>
<speed>10.650000</speed>
</trkpt>
<trkpt lat="21.311945" lon="105.397797">
<ele>6.083073</ele>
<time>2011-04-29T07:52:15Z</time>
<desc>lat.=21.311945, lon.=105.397797, Alt.=6.083073m. Speed=37.259998m/h.</desc>
<speed>10.350000</speed>
</trkpt>
<trkpt lat="21.311735" lon="105.398224">
<ele>5.046574</ele>
<time>2011-04-29T07:52:20Z</time>
<desc>lat.=21.311735, lon.=105.398224, Alt.=5.046574m. Speed=33.984001m/h.</desc>
<speed>9.440000</speed>
</trkpt>
<trkpt lat="21.311552" lon="105.398598">
<ele>6.906315</ele>
<time>2011-04-29T07:52:25Z</time>
<desc>lat.=21.311552, lon.=105.398598, Alt.=6.906315m. Speed=31.320000m/h.</desc>
<speed>8.700000</speed>
</trkpt>
<trkpt lat="21.311378" lon="105.398949">
<ele>6.188541</ele>
<time>2011-04-29T07:52:30Z</time>
<desc>lat.=21.311378, lon.=105.398949, Alt.=6.188541m. Speed=30.959999m/h.</desc>
<speed>8.600000</speed>
</trkpt>
<trkpt lat="21.311205" lon="105.399330">
<ele>7.546329</ele>
<time>2011-04-29T07:52:35Z</time>
<desc>lat.=21.311205, lon.=105.399330, Alt.=7.546329m. Speed=33.228001m/h.</desc>
<speed>9.230000</speed>
</trkpt>
<trkpt lat="21.310993" lon="105.399734">
<ele>8.822884</ele>
<time>2011-04-29T07:52:40Z</time>
<desc>lat.=21.310993, lon.=105.399734, Alt.=8.822884m. Speed=37.512001m/h.</desc>
<speed>10.420000</speed>
</trkpt>
<trkpt lat="21.310755" lon="105.400215">
<ele>10.371712</ele>
<time>2011-04-29T07:52:45Z</time>
<desc>lat.=21.310755, lon.=105.400215, Alt.=10.371712m. Speed=40.535999m/h.</desc>
<speed>11.260000</speed>
</trkpt>
<trkpt lat="21.310471" lon="105.400612">
<ele>12.046272</ele>
<time>2011-04-29T07:52:50Z</time>
<desc>lat.=21.310471, lon.=105.400612, Alt.=12.046272m. Speed=36.540001m/h.</desc>
<speed>10.150000</speed>
</trkpt>
<trkpt lat="21.310165" lon="105.401009">
<ele>12.984261</ele>
<time>2011-04-29T07:52:55Z</time>
<desc>lat.=21.310165, lon.=105.401009, Alt.=12.984261m. Speed=37.116001m/h.</desc>
<speed>10.310000</speed>
</trkpt>
<trkpt lat="21.309889" lon="105.401413">
<ele>14.105354</ele>
<time>2011-04-29T07:53:00Z</time>
<desc>lat.=21.309889, lon.=105.401413, Alt.=14.105354m. Speed=36.360001m/h.</desc>
<speed>10.100000</speed>
</trkpt>
<trkpt lat="21.309624" lon="105.401833">
<ele>15.331184</ele>
<time>2011-04-29T07:53:05Z</time>
<desc>lat.=21.309624, lon.=105.401833, Alt.=15.331184m. Speed=36.792000m/h.</desc>
<speed>10.220000</speed>
</trkpt>
<trkpt lat="21.309345" lon="105.402267">
<ele>17.883560</ele>
<time>2011-04-29T07:53:10Z</time>
<desc>lat.=21.309345, lon.=105.402267, Alt.=17.883560m. Speed=37.296001m/h.</desc>
<speed>10.360000</speed>
</trkpt>
<trkpt lat="21.309021" lon="105.402710">
<ele>19.277603</ele>
<time>2011-04-29T07:53:15Z</time>
<desc>lat.=21.309021, lon.=105.402710, Alt.=19.277603m. Speed=40.824001m/h.</desc>
<speed>11.340000</speed>
</trkpt>
<trkpt lat="21.308666" lon="105.403145">
<ele>20.427017</ele>
<time>2011-04-29T07:53:20Z</time>
<desc>lat.=21.308666, lon.=105.403145, Alt.=20.427017m. Speed=41.147999m/h.</desc>
<speed>11.430000</speed>
</trkpt>
<trkpt lat="21.308296" lon="105.403564">
<ele>21.359146</ele>
<time>2011-04-29T07:53:25Z</time>
<desc>lat.=21.308296, lon.=105.403564, Alt.=21.359146m. Speed=39.492001m/h.</desc>
<speed>10.970000</speed>
</trkpt>
<trkpt lat="21.307961" lon="105.403954">
<ele>22.509048</ele>
<time>2011-04-29T07:53:30Z</time>
<desc>lat.=21.307961, lon.=105.403954, Alt.=22.509048m. Speed=37.223999m/h.</desc>
<speed>10.340000</speed>
</trkpt>
<trkpt lat="21.307673" lon="105.404335">
<ele>23.827408</ele>
<time>2011-04-29T07:53:35Z</time>
<desc>lat.=21.307673, lon.=105.404335, Alt.=23.827408m. Speed=31.572001m/h.</desc>
<speed>8.770000</speed>
</trkpt>
<trkpt lat="21.307459" lon="105.404686">
<ele>24.615982</ele>
<time>2011-04-29T07:53:40Z</time>
<desc>lat.=21.307459, lon.=105.404686, Alt.=24.615982m. Speed=24.011999m/h.</desc>
<speed>6.670000</speed>
</trkpt>
<trkpt lat="21.307352" lon="105.404869">
<ele>27.021255</ele>
<time>2011-04-29T07:53:45Z</time>
<desc>lat.=21.307352, lon.=105.404869, Alt.=27.021255m. Speed=4.716000m/h.</desc>
<speed>1.310000</speed>
</trkpt>
<trkpt lat="21.307335" lon="105.404915">
<ele>26.424576</ele>
<time>2011-04-29T07:53:50Z</time>
<desc>lat.=21.307335, lon.=105.404915, Alt.=26.424576m. Speed=1.440000m/h.</desc>
<speed>0.400000</speed>
</trkpt>
<trkpt lat="21.307329" lon="105.404930">
<ele>27.762466</ele>
<time>2011-04-29T07:53:55Z</time>
<desc>lat.=21.307329, lon.=105.404930, Alt.=27.762466m. Speed=0.612000m/h.</desc>
<speed>0.170000</speed>
</trkpt>
<trkpt lat="21.307327" lon="105.404930">
<ele>28.654068</ele>
<time>2011-04-29T07:54:00Z</time>
<desc>lat.=21.307327, lon.=105.404930, Alt.=28.654068m. Speed=0.396000m/h.</desc>
<speed>0.110000</speed>
</trkpt>
<trkpt lat="21.307318" lon="105.404930">
<ele>28.975357</ele>
<time>2011-04-29T07:54:05Z</time>
<desc>lat.=21.307318, lon.=105.404930, Alt.=28.975357m. Speed=3.924000m/h.</desc>
<speed>1.090000</speed>
</trkpt>
<trkpt lat="21.307251" lon="105.405052">
<ele>28.679459</ele>
<time>2011-04-29T07:54:10Z</time>
<desc>lat.=21.307251, lon.=105.405052, Alt.=28.679459m. Speed=9.036000m/h.</desc>
<speed>2.510000</speed>
</trkpt>
<trkpt lat="21.307177" lon="105.405159">
<ele>28.941177</ele>
<time>2011-04-29T07:54:15Z</time>
<desc>lat.=21.307177, lon.=105.405159, Alt.=28.941177m. Speed=10.476000m/h.</desc>
<speed>2.910000</speed>
</trkpt>
<trkpt lat="21.307089" lon="105.405365">
<ele>27.915787</ele>
<time>2011-04-29T07:54:20Z</time>
<desc>lat.=21.307089, lon.=105.405365, Alt.=27.915787m. Speed=19.007999m/h.</desc>
<speed>5.280000</speed>
</trkpt>
<trkpt lat="21.306971" lon="105.405640">
<ele>27.652115</ele>
<time>2011-04-29T07:54:25Z</time>
<desc>lat.=21.306971, lon.=105.405640, Alt.=27.652115m. Speed=23.976000m/h.</desc>
<speed>6.660000</speed>
</trkpt>
<trkpt lat="21.306828" lon="105.405937">
<ele>27.917740</ele>
<time>2011-04-29T07:54:30Z</time>
<desc>lat.=21.306828, lon.=105.405937, Alt.=27.917740m. Speed=25.955999m/h.</desc>
<speed>7.210000</speed>
</trkpt>
<trkpt lat="21.306667" lon="105.406250">
<ele>27.557877</ele>
<time>2011-04-29T07:54:35Z</time>
<desc>lat.=21.306667, lon.=105.406250, Alt.=27.557877m. Speed=24.011999m/h.</desc>
<speed>6.670000</speed>
</trkpt>
<trkpt lat="21.306562" lon="105.406441">
<ele>23.868912</ele>
<time>2011-04-29T07:54:40Z</time>
<desc>lat.=21.306562, lon.=105.406441, Alt.=23.868912m. Speed=8.352000m/h.</desc>
<speed>2.320000</speed>
</trkpt>
<trkpt lat="21.306532" lon="105.406502">
<ele>22.031021</ele>
<time>2011-04-29T07:54:45Z</time>
<desc>lat.=21.306532, lon.=105.406502, Alt.=22.031021m. Speed=2.268000m/h.</desc>
<speed>0.630000</speed>
</trkpt>
<trkpt lat="21.306511" lon="105.406555">
<ele>22.278091</ele>
<time>2011-04-29T07:54:50Z</time>
<desc>lat.=21.306511, lon.=105.406555, Alt.=22.278091m. Speed=7.308000m/h.</desc>
<speed>2.030000</speed>
</trkpt>
<trkpt lat="21.306412" lon="105.406723">
<ele>20.592545</ele>
<time>2011-04-29T07:54:55Z</time>
<desc>lat.=21.306412, lon.=105.406723, Alt.=20.592545m. Speed=15.552000m/h.</desc>
<speed>4.320000</speed>
</trkpt>
<trkpt lat="21.306274" lon="105.406990">
<ele>19.616959</ele>
<time>2011-04-29T07:55:00Z</time>
<desc>lat.=21.306274, lon.=105.406990, Alt.=19.616959m. Speed=23.148001m/h.</desc>
<speed>6.430000</speed>
</trkpt>
<trkpt lat="21.306122" lon="105.407318">
<ele>18.287857</ele>
<time>2011-04-29T07:55:05Z</time>
<desc>lat.=21.306122, lon.=105.407318, Alt.=18.287857m. Speed=28.152000m/h.</desc>
<speed>7.820000</speed>
</trkpt>
<trkpt lat="21.305969" lon="105.407692">
<ele>15.031136</ele>
<time>2011-04-29T07:55:10Z</time>
<desc>lat.=21.305969, lon.=105.407692, Alt.=15.031136m. Speed=31.535999m/h.</desc>
<speed>8.760000</speed>
</trkpt>
<trkpt lat="21.305792" lon="105.408012">
<ele>14.964973</ele>
<time>2011-04-29T07:55:15Z</time>
<desc>lat.=21.305792, lon.=105.408012, Alt.=14.964973m. Speed=29.483999m/h.</desc>
<speed>8.190000</speed>
</trkpt>
<trkpt lat="21.305607" lon="105.408417">
<ele>14.862434</ele>
<time>2011-04-29T07:55:20Z</time>
<desc>lat.=21.305607, lon.=105.408417, Alt.=14.862434m. Speed=34.127998m/h.</desc>
<speed>9.480000</speed>
</trkpt>
<trkpt lat="21.305410" lon="105.408844">
<ele>13.556282</ele>
<time>2011-04-29T07:55:25Z</time>
<desc>lat.=21.305410, lon.=105.408844, Alt.=13.556282m. Speed=33.731998m/h.</desc>
<speed>9.370000</speed>
</trkpt>
<trkpt lat="21.305243" lon="105.409294">
<ele>12.415657</ele>
<time>2011-04-29T07:55:30Z</time>
<desc>lat.=21.305243, lon.=105.409294, Alt.=12.415657m. Speed=33.840000m/h.</desc>
<speed>9.400000</speed>
</trkpt>
<trkpt lat="21.305099" lon="105.409760">
<ele>11.506966</ele>
<time>2011-04-29T07:55:35Z</time>
<desc>lat.=21.305099, lon.=105.409760, Alt.=11.506966m. Speed=34.236000m/h.</desc>
<speed>9.510000</speed>
</trkpt>
<trkpt lat="21.304962" lon="105.410217">
<ele>9.320442</ele>
<time>2011-04-29T07:55:40Z</time>
<desc>lat.=21.304962, lon.=105.410217, Alt.=9.320442m. Speed=33.012001m/h.</desc>
<speed>9.170000</speed>
</trkpt>
<trkpt lat="21.304804" lon="105.410698">
<ele>7.460758</ele>
<time>2011-04-29T07:55:45Z</time>
<desc>lat.=21.304804, lon.=105.410698, Alt.=7.460758m. Speed=38.700001m/h.</desc>
<speed>10.750000</speed>
</trkpt>
<trkpt lat="21.304634" lon="105.411179">
<ele>6.651676</ele>
<time>2011-04-29T07:55:50Z</time>
<desc>lat.=21.304634, lon.=105.411179, Alt.=6.651676m. Speed=38.160000m/h.</desc>
<speed>10.600000</speed>
</trkpt>
<trkpt lat="21.304520" lon="105.411682">
<ele>8.041145</ele>
<time>2011-04-29T07:55:55Z</time>
<desc>lat.=21.304520, lon.=105.411682, Alt.=8.041145m. Speed=38.556000m/h.</desc>
<speed>10.710000</speed>
</trkpt>
<trkpt lat="21.304436" lon="105.412186">
<ele>7.458927</ele>
<time>2011-04-29T07:56:00Z</time>
<desc>lat.=21.304436, lon.=105.412186, Alt.=7.458927m. Speed=36.612000m/h.</desc>
<speed>10.170000</speed>
</trkpt>
<trkpt lat="21.304382" lon="105.412689">
<ele>7.749821</ele>
<time>2011-04-29T07:56:05Z</time>
<desc>lat.=21.304382, lon.=105.412689, Alt.=7.749821m. Speed=36.071999m/h.</desc>
<speed>10.020000</speed>
</trkpt>
<trkpt lat="21.304348" lon="105.413147">
<ele>8.629036</ele>
<time>2011-04-29T07:56:10Z</time>
<desc>lat.=21.304348, lon.=105.413147, Alt.=8.629036m. Speed=34.344002m/h.</desc>
<speed>9.540000</speed>
</trkpt>
<trkpt lat="21.304331" lon="105.413605">
<ele>8.965218</ele>
<time>2011-04-29T07:56:15Z</time>
<desc>lat.=21.304331, lon.=105.413605, Alt.=8.965218m. Speed=33.012001m/h.</desc>
<speed>9.170000</speed>
</trkpt>
<trkpt lat="21.304337" lon="105.414078">
<ele>8.772835</ele>
<time>2011-04-29T07:56:20Z</time>
<desc>lat.=21.304337, lon.=105.414078, Alt.=8.772835m. Speed=33.299999m/h.</desc>
<speed>9.250000</speed>
</trkpt>
<trkpt lat="21.304331" lon="105.414505">
<ele>8.832405</ele>
<time>2011-04-29T07:56:25Z</time>
<desc>lat.=21.304331, lon.=105.414505, Alt.=8.832405m. Speed=28.656000m/h.</desc>
<speed>7.960000</speed>
</trkpt>
<trkpt lat="21.304344" lon="105.414772">
<ele>9.003304</ele>
<time>2011-04-29T07:56:30Z</time>
<desc>lat.=21.304344, lon.=105.414772, Alt.=9.003304m. Speed=10.584000m/h.</desc>
<speed>2.940000</speed>
</trkpt>
<trkpt lat="21.304337" lon="105.414818">
<ele>8.934700</ele>
<time>2011-04-29T07:56:35Z</time>
<desc>lat.=21.304337, lon.=105.414818, Alt.=8.934700m. Speed=1.044000m/h.</desc>
<speed>0.290000</speed>
</trkpt>
<trkpt lat="21.304331" lon="105.414825">
<ele>8.401741</ele>
<time>2011-04-29T07:56:40Z</time>
<desc>lat.=21.304331, lon.=105.414825, Alt.=8.401741m. Speed=0.288000m/h.</desc>
<speed>0.080000</speed>
</trkpt>
<trkpt lat="21.304333" lon="105.414833">
<ele>8.374886</ele>
<time>2011-04-29T07:56:45Z</time>
<desc>lat.=21.304333, lon.=105.414833, Alt.=8.374886m. Speed=0.540000m/h.</desc>
<speed>0.150000</speed>
</trkpt>
<trkpt lat="21.304327" lon="105.414841">
<ele>8.355843</ele>
<time>2011-04-29T07:56:50Z</time>
<desc>lat.=21.304327, lon.=105.414841, Alt.=8.355843m. Speed=0.828000m/h.</desc>
<speed>0.230000</speed>
</trkpt>
<trkpt lat="21.304323" lon="105.414841">
<ele>8.358284</ele>
<time>2011-04-29T07:56:55Z</time>
<desc>lat.=21.304323, lon.=105.414841, Alt.=8.358284m. Speed=0.360000m/h.</desc>
<speed>0.100000</speed>
</trkpt>
<trkpt lat="21.304331" lon="105.414848">
<ele>8.371468</ele>
<time>2011-04-29T07:57:00Z</time>
<desc>lat.=21.304331, lon.=105.414848, Alt.=8.371468m. Speed=0.864000m/h.</desc>
<speed>0.240000</speed>
</trkpt>
<trkpt lat="21.304338" lon="105.414856">
<ele>8.357552</ele>
<time>2011-04-29T07:57:05Z</time>
<desc>lat.=21.304338, lon.=105.414856, Alt.=8.357552m. Speed=4.140000m/h.</desc>
<speed>1.150000</speed>
</trkpt>
<trkpt lat="21.304350" lon="105.415031">
<ele>7.572575</ele>
<time>2011-04-29T07:57:10Z</time>
<desc>lat.=21.304350, lon.=105.415031, Alt.=7.572575m. Speed=19.368000m/h.</desc>
<speed>5.380000</speed>
</trkpt>
<trkpt lat="21.304340" lon="105.415367">
<ele>8.276985</ele>
<time>2011-04-29T07:57:15Z</time>
<desc>lat.=21.304340, lon.=105.415367, Alt.=8.276985m. Speed=29.124001m/h.</desc>
<speed>8.090000</speed>
</trkpt>
<trkpt lat="21.304340" lon="105.415810">
<ele>8.858772</ele>
<time>2011-04-29T07:57:20Z</time>
<desc>lat.=21.304340, lon.=105.415810, Alt.=8.858772m. Speed=34.200001m/h.</desc>
<speed>9.500000</speed>
</trkpt>
<trkpt lat="21.304340" lon="105.416298">
<ele>8.768684</ele>
<time>2011-04-29T07:57:25Z</time>
<desc>lat.=21.304340, lon.=105.416298, Alt.=8.768684m. Speed=38.124001m/h.</desc>
<speed>10.590000</speed>
</trkpt>
<trkpt lat="21.304342" lon="105.416840">
<ele>9.259407</ele>
<time>2011-04-29T07:57:30Z</time>
<desc>lat.=21.304342, lon.=105.416840, Alt.=9.259407m. Speed=37.980000m/h.</desc>
<speed>10.550000</speed>
</trkpt>
<trkpt lat="21.304348" lon="105.417343">
<ele>8.671272</ele>
<time>2011-04-29T07:57:35Z</time>
<desc>lat.=21.304348, lon.=105.417343, Alt.=8.671272m. Speed=36.756001m/h.</desc>
<speed>10.210000</speed>
</trkpt>
<trkpt lat="21.304317" lon="105.417839">
<ele>7.662418</ele>
<time>2011-04-29T07:57:40Z</time>
<desc>lat.=21.304317, lon.=105.417839, Alt.=7.662418m. Speed=36.900002m/h.</desc>
<speed>10.250000</speed>
</trkpt>
<trkpt lat="21.304342" lon="105.418365">
<ele>6.701847</ele>
<time>2011-04-29T07:57:45Z</time>
<desc>lat.=21.304342, lon.=105.418365, Alt.=6.701847m. Speed=39.203999m/h.</desc>
<speed>10.890000</speed>
</trkpt>
<trkpt lat="21.304335" lon="105.418900">
<ele>7.338566</ele>
<time>2011-04-29T07:57:50Z</time>
<desc>lat.=21.304335, lon.=105.418900, Alt.=7.338566m. Speed=36.324001m/h.</desc>
<speed>10.090000</speed>
</trkpt>
<trkpt lat="21.304283" lon="105.419434">
<ele>7.482365</ele>
<time>2011-04-29T07:57:55Z</time>
<desc>lat.=21.304283, lon.=105.419434, Alt.=7.482365m. Speed=38.268002m/h.</desc>
<speed>10.630000</speed>
</trkpt>
<trkpt lat="21.304264" lon="105.419960">
<ele>7.194645</ele>
<time>2011-04-29T07:58:00Z</time>
<desc>lat.=21.304264, lon.=105.419960, Alt.=7.194645m. Speed=38.916000m/h.</desc>
<speed>10.810000</speed>
</trkpt>
<trkpt lat="21.304226" lon="105.420502">
<ele>7.619938</ele>
<time>2011-04-29T07:58:05Z</time>
<desc>lat.=21.304226, lon.=105.420502, Alt.=7.619938m. Speed=36.827999m/h.</desc>
<speed>10.230000</speed>
</trkpt>
<trkpt lat="21.304220" lon="105.420929">
<ele>7.453068</ele>
<time>2011-04-29T07:58:10Z</time>
<desc>lat.=21.304220, lon.=105.420929, Alt.=7.453068m. Speed=25.379999m/h.</desc>
<speed>7.050000</speed>
</trkpt>
<trkpt lat="21.304209" lon="105.421112">
<ele>9.380501</ele>
<time>2011-04-29T07:58:15Z</time>
<desc>lat.=21.304209, lon.=105.421112, Alt.=9.380501m. Speed=5.076000m/h.</desc>
<speed>1.410000</speed>
</trkpt>
<trkpt lat="21.304203" lon="105.421188">
<ele>7.308292</ele>
<time>2011-04-29T07:58:20Z</time>
<desc>lat.=21.304203, lon.=105.421188, Alt.=7.308292m. Speed=2.592000m/h.</desc>
<speed>0.720000</speed>
</trkpt>
<trkpt lat="21.304205" lon="105.421219">
<ele>6.324650</ele>
<time>2011-04-29T07:58:25Z</time>
<desc>lat.=21.304205, lon.=105.421219, Alt.=6.324650m. Speed=1.188000m/h.</desc>
<speed>0.330000</speed>
</trkpt>
<trkpt lat="21.304201" lon="105.421234">
<ele>5.472355</ele>
<time>2011-04-29T07:58:30Z</time>
<desc>lat.=21.304201, lon.=105.421234, Alt.=5.472355m. Speed=2.484000m/h.</desc>
<speed>0.690000</speed>
</trkpt>
<trkpt lat="21.304176" lon="105.421387">
<ele>6.081242</ele>
<time>2011-04-29T07:58:35Z</time>
<desc>lat.=21.304176, lon.=105.421387, Alt.=6.081242m. Speed=14.940000m/h.</desc>
<speed>4.150000</speed>
</trkpt>
<trkpt lat="21.304155" lon="105.421600">
<ele>5.211613</ele>
<time>2011-04-29T07:58:40Z</time>
<desc>lat.=21.304155, lon.=105.421600, Alt.=5.211613m. Speed=19.476000m/h.</desc>
<speed>5.410000</speed>
</trkpt>
<trkpt lat="21.304169" lon="105.421906">
<ele>3.789034</ele>
<time>2011-04-29T07:58:45Z</time>
<desc>lat.=21.304169, lon.=105.421906, Alt.=3.789034m. Speed=28.224001m/h.</desc>
<speed>7.840000</speed>
</trkpt>
<trkpt lat="21.304157" lon="105.422325">
<ele>6.067936</ele>
<time>2011-04-29T07:58:50Z</time>
<desc>lat.=21.304157, lon.=105.422325, Alt.=6.067936m. Speed=32.688000m/h.</desc>
<speed>9.080000</speed>
</trkpt>
<trkpt lat="21.304152" lon="105.422760">
<ele>6.625797</ele>
<time>2011-04-29T07:58:55Z</time>
<desc>lat.=21.304152, lon.=105.422760, Alt.=6.625797m. Speed=31.643999m/h.</desc>
<speed>8.790000</speed>
</trkpt>
<trkpt lat="21.304169" lon="105.423225">
<ele>7.162052</ele>
<time>2011-04-29T07:59:00Z</time>
<desc>lat.=21.304169, lon.=105.423225, Alt.=7.162052m. Speed=34.992001m/h.</desc>
<speed>9.720000</speed>
</trkpt>
<trkpt lat="21.304178" lon="105.423729">
<ele>8.665413</ele>
<time>2011-04-29T07:59:05Z</time>
<desc>lat.=21.304178, lon.=105.423729, Alt.=8.665413m. Speed=35.712002m/h.</desc>
<speed>9.920001</speed>
</trkpt>
<trkpt lat="21.304134" lon="105.424187">
<ele>9.286507</ele>
<time>2011-04-29T07:59:10Z</time>
<desc>lat.=21.304134, lon.=105.424187, Alt.=9.286507m. Speed=33.588001m/h.</desc>
<speed>9.330000</speed>
</trkpt>
<trkpt lat="21.304073" lon="105.424660">
<ele>9.271614</ele>
<time>2011-04-29T07:59:15Z</time>
<desc>lat.=21.304073, lon.=105.424660, Alt.=9.271614m. Speed=37.332001m/h.</desc>
<speed>10.370000</speed>
</trkpt>
<trkpt lat="21.304005" lon="105.425171">
<ele>7.638126</ele>
<time>2011-04-29T07:59:20Z</time>
<desc>lat.=21.304005, lon.=105.425171, Alt.=7.638126m. Speed=35.891998m/h.</desc>
<speed>9.970000</speed>
</trkpt>
<trkpt lat="21.303932" lon="105.425652">
<ele>8.490852</ele>
<time>2011-04-29T07:59:25Z</time>
<desc>lat.=21.303932, lon.=105.425652, Alt.=8.490852m. Speed=35.568001m/h.</desc>
<speed>9.880000</speed>
</trkpt>
<trkpt lat="21.303879" lon="105.426132">
<ele>7.838078</ele>
<time>2011-04-29T07:59:30Z</time>
<desc>lat.=21.303879, lon.=105.426132, Alt.=7.838078m. Speed=37.296001m/h.</desc>
<speed>10.360000</speed>
</trkpt>
<trkpt lat="21.303818" lon="105.426659">
<ele>8.434944</ele>
<time>2011-04-29T07:59:35Z</time>
<desc>lat.=21.303818, lon.=105.426659, Alt.=8.434944m. Speed=40.716000m/h.</desc>
<speed>11.310000</speed>
</trkpt>
<trkpt lat="21.303734" lon="105.427162">
<ele>10.492561</ele>
<time>2011-04-29T07:59:40Z</time>
<desc>lat.=21.303734, lon.=105.427162, Alt.=10.492561m. Speed=34.380001m/h.</desc>
<speed>9.550000</speed>
</trkpt>
<trkpt lat="21.303694" lon="105.427643">
<ele>7.512760</ele>
<time>2011-04-29T07:59:45Z</time>
<desc>lat.=21.303694, lon.=105.427643, Alt.=7.512760m. Speed=33.192001m/h.</desc>
<speed>9.220000</speed>
</trkpt>
<trkpt lat="21.303749" lon="105.428116">
<ele>11.405647</ele>
<time>2011-04-29T07:59:50Z</time>
<desc>lat.=21.303749, lon.=105.428116, Alt.=11.405647m. Speed=35.675999m/h.</desc>
<speed>9.910000</speed>
</trkpt>
<trkpt lat="21.303894" lon="105.428558">
<ele>6.750065</ele>
<time>2011-04-29T07:59:55Z</time>
<desc>lat.=21.303894, lon.=105.428558, Alt.=6.750065m. Speed=36.000000m/h.</desc>
<speed>10.000000</speed>
</trkpt>
<trkpt lat="21.304152" lon="105.429001">
<ele>5.982121</ele>
<time>2011-04-29T08:00:00Z</time>
<desc>lat.=21.304152, lon.=105.429001, Alt.=5.982121m. Speed=38.591999m/h.</desc>
<speed>10.720000</speed>
</trkpt>
<trkpt lat="21.304428" lon="105.429428">
<ele>5.811344</ele>
<time>2011-04-29T08:00:05Z</time>
<desc>lat.=21.304428, lon.=105.429428, Alt.=5.811344m. Speed=38.375999m/h.</desc>
<speed>10.660000</speed>
</trkpt>
<trkpt lat="21.304735" lon="105.429848">
<ele>5.487370</ele>
<time>2011-04-29T08:00:10Z</time>
<desc>lat.=21.304735, lon.=105.429848, Alt.=5.487370m. Speed=40.428001m/h.</desc>
<speed>11.230000</speed>
</trkpt>
<trkpt lat="21.305046" lon="105.430275">
<ele>5.856998</ele>
<time>2011-04-29T08:00:15Z</time>
<desc>lat.=21.305046, lon.=105.430275, Alt.=5.856998m. Speed=40.320000m/h.</desc>
<speed>11.200000</speed>
</trkpt>
<trkpt lat="21.305292" lon="105.430717">
<ele>6.497990</ele>
<time>2011-04-29T08:00:20Z</time>
<desc>lat.=21.305292, lon.=105.430717, Alt.=6.497990m. Speed=37.692001m/h.</desc>
<speed>10.470000</speed>
</trkpt>
<trkpt lat="21.305431" lon="105.431175">
<ele>3.260225</ele>
<time>2011-04-29T08:00:25Z</time>
<desc>lat.=21.305431, lon.=105.431175, Alt.=3.260225m. Speed=36.467999m/h.</desc>
<speed>10.130000</speed>
</trkpt>
<trkpt lat="21.305490" lon="105.431671">
<ele>1.982377</ele>
<time>2011-04-29T08:00:30Z</time>
<desc>lat.=21.305490, lon.=105.431671, Alt.=1.982377m. Speed=39.203999m/h.</desc>
<speed>10.890000</speed>
</trkpt>
<trkpt lat="21.305603" lon="105.432198">
<ele>3.638460</ele>
<time>2011-04-29T08:00:35Z</time>
<desc>lat.=21.305603, lon.=105.432198, Alt.=3.638460m. Speed=43.632000m/h.</desc>
<speed>12.120000</speed>
</trkpt>
<trkpt lat="21.305687" lon="105.432808">
<ele>3.706148</ele>
<time>2011-04-29T08:00:40Z</time>
<desc>lat.=21.305687, lon.=105.432808, Alt.=3.706148m. Speed=48.995998m/h.</desc>
<speed>13.610000</speed>
</trkpt>
<trkpt lat="21.305771" lon="105.433525">
<ele>7.304630</ele>
<time>2011-04-29T08:00:45Z</time>
<desc>lat.=21.305771, lon.=105.433525, Alt.=7.304630m. Speed=55.548000m/h.</desc>
<speed>15.430000</speed>
</trkpt>
<trkpt lat="21.305731" lon="105.434303">
<ele>9.497200</ele>
<time>2011-04-29T08:00:50Z</time>
<desc>lat.=21.305731, lon.=105.434303, Alt.=9.497200m. Speed=61.452000m/h.</desc>
<speed>17.070000</speed>
</trkpt>
<trkpt lat="21.305542" lon="105.435081">
<ele>9.934944</ele>
<time>2011-04-29T08:00:55Z</time>
<desc>lat.=21.305542, lon.=105.435081, Alt.=9.934944m. Speed=57.276001m/h.</desc>
<speed>15.910000</speed>
</trkpt>
<trkpt lat="21.305368" lon="105.435837">
<ele>9.463264</ele>
<time>2011-04-29T08:01:00Z</time>
<desc>lat.=21.305368, lon.=105.435837, Alt.=9.463264m. Speed=54.431999m/h.</desc>
<speed>15.120000</speed>
</trkpt>
<trkpt lat="21.305206" lon="105.436577">
<ele>10.584358</ele>
<time>2011-04-29T08:01:05Z</time>
<desc>lat.=21.305206, lon.=105.436577, Alt.=10.584358m. Speed=55.152000m/h.</desc>
<speed>15.320000</speed>
</trkpt>
<trkpt lat="21.305042" lon="105.437271">
<ele>11.535774</ele>
<time>2011-04-29T08:01:10Z</time>
<desc>lat.=21.305042, lon.=105.437271, Alt.=11.535774m. Speed=50.292000m/h.</desc>
<speed>13.970000</speed>
</trkpt>
<trkpt lat="21.304899" lon="105.437943">
<ele>11.703743</ele>
<time>2011-04-29T08:01:15Z</time>
<desc>lat.=21.304899, lon.=105.437943, Alt.=11.703743m. Speed=52.236000m/h.</desc>
<speed>14.510000</speed>
</trkpt>
<trkpt lat="21.304737" lon="105.438629">
<ele>11.851204</ele>
<time>2011-04-29T08:01:20Z</time>
<desc>lat.=21.304737, lon.=105.438629, Alt.=11.851204m. Speed=52.560001m/h.</desc>
<speed>14.600000</speed>
</trkpt>
<trkpt lat="21.304575" lon="105.439339">
<ele>12.197395</ele>
<time>2011-04-29T08:01:25Z</time>
<desc>lat.=21.304575, lon.=105.439339, Alt.=12.197395m. Speed=55.512001m/h.</desc>
<speed>15.420000</speed>
</trkpt>
<trkpt lat="21.304399" lon="105.440079">
<ele>12.697395</ele>
<time>2011-04-29T08:01:30Z</time>
<desc>lat.=21.304399, lon.=105.440079, Alt.=12.697395m. Speed=56.987999m/h.</desc>
<speed>15.830000</speed>
</trkpt>
<trkpt lat="21.304214" lon="105.440842">
<ele>13.116096</ele>
<time>2011-04-29T08:01:35Z</time>
<desc>lat.=21.304214, lon.=105.440842, Alt.=13.116096m. Speed=58.608002m/h.</desc>
<speed>16.280000</speed>
</trkpt>
<trkpt lat="21.303963" lon="105.441574">
<ele>12.886848</ele>
<time>2011-04-29T08:01:40Z</time>
<desc>lat.=21.303963, lon.=105.441574, Alt.=12.886848m. Speed=55.655998m/h.</desc>
<speed>15.460000</speed>
</trkpt>
<trkpt lat="21.303627" lon="105.442192">
<ele>13.682747</ele>
<time>2011-04-29T08:01:45Z</time>
<desc>lat.=21.303627, lon.=105.442192, Alt.=13.682747m. Speed=51.768002m/h.</desc>
<speed>14.380000</speed>
</trkpt>
<trkpt lat="21.303240" lon="105.442711">
<ele>14.750618</ele>
<time>2011-04-29T08:01:50Z</time>
<desc>lat.=21.303240, lon.=105.442711, Alt.=14.750618m. Speed=46.728001m/h.</desc>
<speed>12.980000</speed>
</trkpt>
<trkpt lat="21.302799" lon="105.443100">
<ele>16.056900</ele>
<time>2011-04-29T08:01:55Z</time>
<desc>lat.=21.302799, lon.=105.443100, Alt.=16.056900m. Speed=43.560001m/h.</desc>
<speed>12.100000</speed>
</trkpt>
<trkpt lat="21.302343" lon="105.443344">
<ele>16.621841</ele>
<time>2011-04-29T08:02:00Z</time>
<desc>lat.=21.302343, lon.=105.443344, Alt.=16.621841m. Speed=39.852001m/h.</desc>
<speed>11.070000</speed>
</trkpt>
<trkpt lat="21.301876" lon="105.443474">
<ele>17.998795</ele>
<time>2011-04-29T08:02:05Z</time>
<desc>lat.=21.301876, lon.=105.443474, Alt.=17.998795m. Speed=35.820000m/h.</desc>
<speed>9.950000</speed>
</trkpt>
<trkpt lat="21.301426" lon="105.443565">
<ele>19.302505</ele>
<time>2011-04-29T08:02:10Z</time>
<desc>lat.=21.301426, lon.=105.443565, Alt.=19.302505m. Speed=36.431999m/h.</desc>
<speed>10.120000</speed>
</trkpt>
<trkpt lat="21.300983" lon="105.443634">
<ele>17.131607</ele>
<time>2011-04-29T08:02:15Z</time>
<desc>lat.=21.300983, lon.=105.443634, Alt.=17.131607m. Speed=36.287998m/h.</desc>
<speed>10.079999</speed>
</trkpt>
<trkpt lat="21.300528" lon="105.443748">
<ele>20.873306</ele>
<time>2011-04-29T08:02:20Z</time>
<desc>lat.=21.300528, lon.=105.443748, Alt.=20.873306m. Speed=36.827999m/h.</desc>
<speed>10.230000</speed>
</trkpt>
<trkpt lat="21.300051" lon="105.443855">
<ele>20.516861</ele>
<time>2011-04-29T08:02:25Z</time>
<desc>lat.=21.300051, lon.=105.443855, Alt.=20.516861m. Speed=37.619999m/h.</desc>
<speed>10.450000</speed>
</trkpt>
<trkpt lat="21.299593" lon="105.443954">
<ele>20.407974</ele>
<time>2011-04-29T08:02:30Z</time>
<desc>lat.=21.299593, lon.=105.443954, Alt.=20.407974m. Speed=36.431999m/h.</desc>
<speed>10.120000</speed>
</trkpt>
<trkpt lat="21.299137" lon="105.444046">
<ele>19.790298</ele>
<time>2011-04-29T08:02:35Z</time>
<desc>lat.=21.299137, lon.=105.444046, Alt.=19.790298m. Speed=35.891998m/h.</desc>
<speed>9.970000</speed>
</trkpt>
<trkpt lat="21.298719" lon="105.444122">
<ele>20.694595</ele>
<time>2011-04-29T08:02:40Z</time>
<desc>lat.=21.298719, lon.=105.444122, Alt.=20.694595m. Speed=33.660000m/h.</desc>
<speed>9.350000</speed>
</trkpt>
<trkpt lat="21.298298" lon="105.444199">
<ele>17.992447</ele>
<time>2011-04-29T08:02:45Z</time>
<desc>lat.=21.298298, lon.=105.444199, Alt.=17.992447m. Speed=32.796001m/h.</desc>
<speed>9.110000</speed>
</trkpt>
<trkpt lat="21.297928" lon="105.444260">
<ele>16.400162</ele>
<time>2011-04-29T08:02:50Z</time>
<desc>lat.=21.297928, lon.=105.444260, Alt.=16.400162m. Speed=30.384001m/h.</desc>
<speed>8.440000</speed>
</trkpt>
<trkpt lat="21.297558" lon="105.444435">
<ele>15.402229</ele>
<time>2011-04-29T08:02:55Z</time>
<desc>lat.=21.297558, lon.=105.444435, Alt.=15.402229m. Speed=34.307999m/h.</desc>
<speed>9.530000</speed>
</trkpt>
<trkpt lat="21.297487" lon="105.444862">
<ele>15.701790</ele>
<time>2011-04-29T08:03:00Z</time>
<desc>lat.=21.297487, lon.=105.444862, Alt.=15.701790m. Speed=36.900002m/h.</desc>
<speed>10.250000</speed>
</trkpt>
<trkpt lat="21.297812" lon="105.445221">
<ele>15.095100</ele>
<time>2011-04-29T08:03:05Z</time>
<desc>lat.=21.297812, lon.=105.445221, Alt.=15.095100m. Speed=36.144001m/h.</desc>
<speed>10.040000</speed>
</trkpt>
<trkpt lat="21.298233" lon="105.445091">
<ele>12.228401</ele>
<time>2011-04-29T08:03:10Z</time>
<desc>lat.=21.298233, lon.=105.445091, Alt.=12.228401m. Speed=35.639999m/h.</desc>
<speed>9.900000</speed>
</trkpt>
<trkpt lat="21.298351" lon="105.444672">
<ele>12.281624</ele>
<time>2011-04-29T08:03:15Z</time>
<desc>lat.=21.298351, lon.=105.444672, Alt.=12.281624m. Speed=34.380001m/h.</desc>
<speed>9.550000</speed>
</trkpt>
<trkpt lat="21.298216" lon="105.444244">
<ele>12.559700</ele>
<time>2011-04-29T08:03:20Z</time>
<desc>lat.=21.298216, lon.=105.444244, Alt.=12.559700m. Speed=35.820000m/h.</desc>
<speed>9.950000</speed>
</trkpt>
<trkpt lat="21.298067" lon="105.443871">
<ele>11.047981</ele>
<time>2011-04-29T08:03:25Z</time>
<desc>lat.=21.298067, lon.=105.443871, Alt.=11.047981m. Speed=27.216000m/h.</desc>
<speed>7.560000</speed>
</trkpt>
<trkpt lat="21.297750" lon="105.443672">
<ele>8.889534</ele>
<time>2011-04-29T08:03:30Z</time>
<desc>lat.=21.297750, lon.=105.443672, Alt.=8.889534m. Speed=29.591999m/h.</desc>
<speed>8.220000</speed>
</trkpt>
<trkpt lat="21.297358" lon="105.443779">
<ele>6.250309</ele>
<time>2011-04-29T08:03:35Z</time>
<desc>lat.=21.297358, lon.=105.443779, Alt.=6.250309m. Speed=30.672001m/h.</desc>
<speed>8.520000</speed>
</trkpt>
<trkpt lat="21.296976" lon="105.443924">
<ele>4.677677</ele>
<time>2011-04-29T08:03:40Z</time>
<desc>lat.=21.296976, lon.=105.443924, Alt.=4.677677m. Speed=31.247999m/h.</desc>
<speed>8.680000</speed>
</trkpt>
<trkpt lat="21.296625" lon="105.444084">
<ele>5.783146</ele>
<time>2011-04-29T08:03:45Z</time>
<desc>lat.=21.296625, lon.=105.444084, Alt.=5.783146m. Speed=31.535999m/h.</desc>
<speed>8.760000</speed>
</trkpt>
<trkpt lat="21.296251" lon="105.444260">
<ele>7.151188</ele>
<time>2011-04-29T08:03:50Z</time>
<desc>lat.=21.296251, lon.=105.444260, Alt.=7.151188m. Speed=31.464001m/h.</desc>
<speed>8.740000</speed>
</trkpt>
<trkpt lat="21.295897" lon="105.444412">
<ele>6.410099</ele>
<time>2011-04-29T08:03:55Z</time>
<desc>lat.=21.295897, lon.=105.444412, Alt.=6.410099m. Speed=29.412001m/h.</desc>
<speed>8.170000</speed>
</trkpt>
<trkpt lat="21.295553" lon="105.444550">
<ele>6.327335</ele>
<time>2011-04-29T08:04:00Z</time>
<desc>lat.=21.295553, lon.=105.444550, Alt.=6.327335m. Speed=31.788000m/h.</desc>
<speed>8.830000</speed>
</trkpt>
<trkpt lat="21.295153" lon="105.444733">
<ele>4.005558</ele>
<time>2011-04-29T08:04:05Z</time>
<desc>lat.=21.295153, lon.=105.444733, Alt.=4.005558m. Speed=35.820000m/h.</desc>
<speed>9.950000</speed>
</trkpt>
<trkpt lat="21.294712" lon="105.444946">
<ele>2.917879</ele>
<time>2011-04-29T08:04:10Z</time>
<desc>lat.=21.294712, lon.=105.444946, Alt.=2.917879m. Speed=39.419998m/h.</desc>
<speed>10.949999</speed>
</trkpt>
<trkpt lat="21.294273" lon="105.445229">
<ele>2.530733</ele>
<time>2011-04-29T08:04:15Z</time>
<desc>lat.=21.294273, lon.=105.445229, Alt.=2.530733m. Speed=42.264000m/h.</desc>
<speed>11.740000</speed>
</trkpt>
<trkpt lat="21.293833" lon="105.445572">
<ele>1.964494</ele>
<time>2011-04-29T08:04:20Z</time>
<desc>lat.=21.293833, lon.=105.445572, Alt.=1.964494m. Speed=44.136002m/h.</desc>
<speed>12.260000</speed>
</trkpt>
<trkpt lat="21.293409" lon="105.445969">
<ele>3.339327</ele>
<time>2011-04-29T08:04:25Z</time>
<desc>lat.=21.293409, lon.=105.445969, Alt.=3.339327m. Speed=45.756001m/h.</desc>
<speed>12.710000</speed>
</trkpt>
<trkpt lat="21.293026" lon="105.446472">
<ele>5.642887</ele>
<time>2011-04-29T08:04:30Z</time>
<desc>lat.=21.293026, lon.=105.446472, Alt.=5.642887m. Speed=51.480000m/h.</desc>
<speed>14.300000</speed>
</trkpt>
<trkpt lat="21.292620" lon="105.447075">
<ele>7.280582</ele>
<time>2011-04-29T08:04:35Z</time>
<desc>lat.=21.292620, lon.=105.447075, Alt.=7.280582m. Speed=58.824001m/h.</desc>
<speed>16.340000</speed>
</trkpt>
<trkpt lat="21.292261" lon="105.447807">
<ele>5.728336</ele>
<time>2011-04-29T08:04:40Z</time>
<desc>lat.=21.292261, lon.=105.447807, Alt.=5.728336m. Speed=62.568001m/h.</desc>
<speed>17.380000</speed>
</trkpt>
<trkpt lat="21.291986" lon="105.448578">
<ele>6.133366</ele>
<time>2011-04-29T08:04:45Z</time>
<desc>lat.=21.291986, lon.=105.448578, Alt.=6.133366m. Speed=59.472000m/h.</desc>
<speed>16.520000</speed>
</trkpt>
<trkpt lat="21.291822" lon="105.449326">
<ele>4.867252</ele>
<time>2011-04-29T08:04:50Z</time>
<desc>lat.=21.291822, lon.=105.449326, Alt.=4.867252m. Speed=53.964001m/h.</desc>
<speed>14.990000</speed>
</trkpt>
<trkpt lat="21.291746" lon="105.450058">
<ele>6.138371</ele>
<time>2011-04-29T08:04:55Z</time>
<desc>lat.=21.291746, lon.=105.450058, Alt.=6.138371m. Speed=56.304001m/h.</desc>
<speed>15.640000</speed>
</trkpt>
<trkpt lat="21.291656" lon="105.450821">
<ele>6.010197</ele>
<time>2011-04-29T08:05:00Z</time>
<desc>lat.=21.291656, lon.=105.450821, Alt.=6.010197m. Speed=58.967999m/h.</desc>
<speed>16.380000</speed>
</trkpt>
<trkpt lat="21.291567" lon="105.451591">
<ele>6.126408</ele>
<time>2011-04-29T08:05:05Z</time>
<desc>lat.=21.291567, lon.=105.451591, Alt.=6.126408m. Speed=56.807999m/h.</desc>
<speed>15.780000</speed>
</trkpt>
<trkpt lat="21.291401" lon="105.452278">
<ele>8.682259</ele>
<time>2011-04-29T08:05:10Z</time>
<desc>lat.=21.291401, lon.=105.452278, Alt.=8.682259m. Speed=50.543999m/h.</desc>
<speed>14.040000</speed>
</trkpt>
<trkpt lat="21.291039" lon="105.452812">
<ele>10.099983</ele>
<time>2011-04-29T08:05:15Z</time>
<desc>lat.=21.291039, lon.=105.452812, Alt.=10.099983m. Speed=44.820000m/h.</desc>
<speed>12.450000</speed>
</trkpt>
<trkpt lat="21.290634" lon="105.453094">
<ele>9.194954</ele>
<time>2011-04-29T08:05:20Z</time>
<desc>lat.=21.290634, lon.=105.453094, Alt.=9.194954m. Speed=34.740002m/h.</desc>
<speed>9.650000</speed>
</trkpt>
<trkpt lat="21.290239" lon="105.453262">
<ele>9.453987</ele>
<time>2011-04-29T08:05:25Z</time>
<desc>lat.=21.290239, lon.=105.453262, Alt.=9.453987m. Speed=32.004002m/h.</desc>
<speed>8.890000</speed>
</trkpt>
<trkpt lat="21.289883" lon="105.453308">
<ele>8.784309</ele>
<time>2011-04-29T08:05:30Z</time>
<desc>lat.=21.289883, lon.=105.453308, Alt.=8.784309m. Speed=27.900000m/h.</desc>
<speed>7.750000</speed>
</trkpt>
<trkpt lat="21.289536" lon="105.453262">
<ele>5.558903</ele>
<time>2011-04-29T08:05:35Z</time>
<desc>lat.=21.289536, lon.=105.453262, Alt.=5.558903m. Speed=27.648001m/h.</desc>
<speed>7.680000</speed>
</trkpt>
<trkpt lat="21.289194" lon="105.453209">
<ele>4.700016</ele>
<time>2011-04-29T08:05:40Z</time>
<desc>lat.=21.289194, lon.=105.453209, Alt.=4.700016m. Speed=27.360001m/h.</desc>
<speed>7.600000</speed>
</trkpt>
<trkpt lat="21.288851" lon="105.453148">
<ele>4.582829</ele>
<time>2011-04-29T08:05:45Z</time>
<desc>lat.=21.288851, lon.=105.453148, Alt.=4.582829m. Speed=27.648001m/h.</desc>
<speed>7.680000</speed>
</trkpt>
<trkpt lat="21.288475" lon="105.453072">
<ele>3.931917</ele>
<time>2011-04-29T08:05:50Z</time>
<desc>lat.=21.288475, lon.=105.453072, Alt.=3.931917m. Speed=30.528000m/h.</desc>
<speed>8.480000</speed>
</trkpt>
<trkpt lat="21.288097" lon="105.452972">
<ele>4.706120</ele>
<time>2011-04-29T08:05:55Z</time>
<desc>lat.=21.288097, lon.=105.452972, Alt.=4.706120m. Speed=32.543999m/h.</desc>
<speed>9.040000</speed>
</trkpt>
<trkpt lat="21.287678" lon="105.452866">
<ele>5.255924</ele>
<time>2011-04-29T08:06:00Z</time>
<desc>lat.=21.287678, lon.=105.452866, Alt.=5.255924m. Speed=35.712002m/h.</desc>
<speed>9.920001</speed>
</trkpt>
<trkpt lat="21.287247" lon="105.452759">
<ele>7.882511</ele>
<time>2011-04-29T08:06:05Z</time>
<desc>lat.=21.287247, lon.=105.452759, Alt.=7.882511m. Speed=34.956001m/h.</desc>
<speed>9.710000</speed>
</trkpt>
<trkpt lat="21.286821" lon="105.452652">
<ele>8.781868</ele>
<time>2011-04-29T08:06:10Z</time>
<desc>lat.=21.286821, lon.=105.452652, Alt.=8.781868m. Speed=36.180000m/h.</desc>
<speed>10.050000</speed>
</trkpt>
<trkpt lat="21.286371" lon="105.452515">
<ele>8.995247</ele>
<time>2011-04-29T08:06:15Z</time>
<desc>lat.=21.286371, lon.=105.452515, Alt.=8.995247m. Speed=35.964001m/h.</desc>
<speed>9.990000</speed>
</trkpt>
<trkpt lat="21.285927" lon="105.452385">
<ele>11.392220</ele>
<time>2011-04-29T08:06:20Z</time>
<desc>lat.=21.285927, lon.=105.452385, Alt.=11.392220m. Speed=34.883999m/h.</desc>
<speed>9.690000</speed>
</trkpt>
<trkpt lat="21.285528" lon="105.452278">
<ele>12.588020</ele>
<time>2011-04-29T08:06:25Z</time>
<desc>lat.=21.285528, lon.=105.452278, Alt.=12.588020m. Speed=29.520000m/h.</desc>
<speed>8.200000</speed>
</trkpt>
<trkpt lat="21.285143" lon="105.452255">
<ele>13.394417</ele>
<time>2011-04-29T08:06:30Z</time>
<desc>lat.=21.285143, lon.=105.452255, Alt.=13.394417m. Speed=31.320000m/h.</desc>
<speed>8.700000</speed>
</trkpt>
<trkpt lat="21.284723" lon="105.452248">
<ele>11.138557</ele>
<time>2011-04-29T08:06:35Z</time>
<desc>lat.=21.284723, lon.=105.452248, Alt.=11.138557m. Speed=34.127998m/h.</desc>
<speed>9.480000</speed>
</trkpt>
<trkpt lat="21.284330" lon="105.452400">
<ele>7.240665</ele>
<time>2011-04-29T08:06:40Z</time>
<desc>lat.=21.284330, lon.=105.452400, Alt.=7.240665m. Speed=34.596001m/h.</desc>
<speed>9.610000</speed>
</trkpt>
<trkpt lat="21.283960" lon="105.452614">
<ele>5.183537</ele>
<time>2011-04-29T08:06:45Z</time>
<desc>lat.=21.283960, lon.=105.452614, Alt.=5.183537m. Speed=31.464001m/h.</desc>
<speed>8.740000</speed>
</trkpt>
<trkpt lat="21.283665" lon="105.452789">
<ele>2.709688</ele>
<time>2011-04-29T08:06:50Z</time>
<desc>lat.=21.283665, lon.=105.452789, Alt.=2.709688m. Speed=23.436001m/h.</desc>
<speed>6.510000</speed>
</trkpt>
<trkpt lat="21.283400" lon="105.452911">
<ele>0.817528</ele>
<time>2011-04-29T08:06:55Z</time>
<desc>lat.=21.283400, lon.=105.452911, Alt.=0.817528m. Speed=23.724001m/h.</desc>
<speed>6.590000</speed>
</trkpt>
<trkpt lat="21.283115" lon="105.453033">
<ele>0.561287</ele>
<time>2011-04-29T08:07:00Z</time>
<desc>lat.=21.283115, lon.=105.453033, Alt.=0.561287m. Speed=23.076000m/h.</desc>
<speed>6.410000</speed>
</trkpt>
<trkpt lat="21.282887" lon="105.453186">
<ele>1.985185</ele>
<time>2011-04-29T08:07:05Z</time>
<desc>lat.=21.282887, lon.=105.453186, Alt.=1.985185m. Speed=18.035999m/h.</desc>
<speed>5.010000</speed>
</trkpt>
<trkpt lat="21.282705" lon="105.453354">
<ele>2.842379</ele>
<time>2011-04-29T08:07:10Z</time>
<desc>lat.=21.282705, lon.=105.453354, Alt.=2.842379m. Speed=19.476000m/h.</desc>
<speed>5.410000</speed>
</trkpt>
<trkpt lat="21.282478" lon="105.453568">
<ele>4.889347</ele>
<time>2011-04-29T08:07:15Z</time>
<desc>lat.=21.282478, lon.=105.453568, Alt.=4.889347m. Speed=27.035999m/h.</desc>
<speed>7.510000</speed>
</trkpt>
<trkpt lat="21.282133" lon="105.453773">
<ele>4.190372</ele>
<time>2011-04-29T08:07:20Z</time>
<desc>lat.=21.282133, lon.=105.453773, Alt.=4.190372m. Speed=32.472000m/h.</desc>
<speed>9.020000</speed>
</trkpt>
<trkpt lat="21.281769" lon="105.453957">
<ele>4.069523</ele>
<time>2011-04-29T08:07:25Z</time>
<desc>lat.=21.281769, lon.=105.453957, Alt.=4.069523m. Speed=32.903999m/h.</desc>
<speed>9.140000</speed>
</trkpt>
<trkpt lat="21.281403" lon="105.454117">
<ele>5.108829</ele>
<time>2011-04-29T08:07:30Z</time>
<desc>lat.=21.281403, lon.=105.454117, Alt.=5.108829m. Speed=28.836000m/h.</desc>
<speed>8.010000</speed>
</trkpt>
<trkpt lat="21.281120" lon="105.454292">
<ele>6.575748</ele>
<time>2011-04-29T08:07:35Z</time>
<desc>lat.=21.281120, lon.=105.454292, Alt.=6.575748m. Speed=26.712000m/h.</desc>
<speed>7.420000</speed>
</trkpt>
<trkpt lat="21.280846" lon="105.454475">
<ele>6.801823</ele>
<time>2011-04-29T08:07:40Z</time>
<desc>lat.=21.280846, lon.=105.454475, Alt.=6.801823m. Speed=26.747999m/h.</desc>
<speed>7.430000</speed>
</trkpt>
<trkpt lat="21.280565" lon="105.454674">
<ele>5.059513</ele>
<time>2011-04-29T08:07:45Z</time>
<desc>lat.=21.280565, lon.=105.454674, Alt.=5.059513m. Speed=27.648001m/h.</desc>
<speed>7.680000</speed>
</trkpt>
<trkpt lat="21.280239" lon="105.454865">
<ele>1.948472</ele>
<time>2011-04-29T08:07:50Z</time>
<desc>lat.=21.280239, lon.=105.454865, Alt.=1.948472m. Speed=33.264000m/h.</desc>
<speed>9.240000</speed>
</trkpt>
<trkpt lat="21.279884" lon="105.455093">
<ele>0.137625</ele>
<time>2011-04-29T08:07:55Z</time>
<desc>lat.=21.279884, lon.=105.455093, Alt.=0.137625m. Speed=33.119999m/h.</desc>
<speed>9.200000</speed>
</trkpt>
<trkpt lat="21.279499" lon="105.455368">
<ele>-0.543587</ele>
<time>2011-04-29T08:08:00Z</time>
<desc>lat.=21.279499, lon.=105.455368, Alt.=-0.543587m. Speed=35.639999m/h.</desc>
<speed>9.900000</speed>
</trkpt>
<trkpt lat="21.279078" lon="105.455688">
<ele>-0.720574</ele>
<time>2011-04-29T08:08:05Z</time>
<desc>lat.=21.279078, lon.=105.455688, Alt.=-0.720574m. Speed=42.048000m/h.</desc>
<speed>11.680000</speed>
</trkpt>
<trkpt lat="21.278690" lon="105.456100">
<ele>-0.638268</ele>
<time>2011-04-29T08:08:10Z</time>
<desc>lat.=21.278690, lon.=105.456100, Alt.=-0.638268m. Speed=41.076000m/h.</desc>
<speed>11.410000</speed>
</trkpt>
<trkpt lat="21.278532" lon="105.456657">
<ele>-1.147508</ele>
<time>2011-04-29T08:08:15Z</time>
<desc>lat.=21.278532, lon.=105.456657, Alt.=-1.147508m. Speed=43.344002m/h.</desc>
<speed>12.040000</speed>
</trkpt>
<trkpt lat="21.278488" lon="105.457245">
<ele>-1.120042</ele>
<time>2011-04-29T08:08:20Z</time>
<desc>lat.=21.278488, lon.=105.457245, Alt.=-1.120042m. Speed=45.216000m/h.</desc>
<speed>12.560000</speed>
</trkpt>
<trkpt lat="21.278456" lon="105.457886">
<ele>5.074528</ele>
<time>2011-04-29T08:08:25Z</time>
<desc>lat.=21.278456, lon.=105.457886, Alt.=5.074528m. Speed=45.467999m/h.</desc>
<speed>12.630000</speed>
</trkpt>
<trkpt lat="21.278425" lon="105.458450">
<ele>4.425358</ele>
<time>2011-04-29T08:08:30Z</time>
<desc>lat.=21.278425, lon.=105.458450, Alt.=4.425358m. Speed=41.507999m/h.</desc>
<speed>11.530000</speed>
</trkpt>
<trkpt lat="21.278397" lon="105.459007">
<ele>2.477327</ele>
<time>2011-04-29T08:08:35Z</time>
<desc>lat.=21.278397, lon.=105.459007, Alt.=2.477327m. Speed=43.091999m/h.</desc>
<speed>11.970000</speed>
</trkpt>
<trkpt lat="21.278376" lon="105.459618">
<ele>2.032259</ele>
<time>2011-04-29T08:08:40Z</time>
<desc>lat.=21.278376, lon.=105.459618, Alt.=2.032259m. Speed=47.195999m/h.</desc>
<speed>13.110000</speed>
</trkpt>
<trkpt lat="21.278309" lon="105.460251">
<ele>3.026827</ele>
<time>2011-04-29T08:08:45Z</time>
<desc>lat.=21.278309, lon.=105.460251, Alt.=3.026827m. Speed=42.948002m/h.</desc>
<speed>11.930001</speed>
</trkpt>
<trkpt lat="21.278276" lon="105.460808">
<ele>5.922184</ele>
<time>2011-04-29T08:08:50Z</time>
<desc>lat.=21.278276, lon.=105.460808, Alt.=5.922184m. Speed=39.240002m/h.</desc>
<speed>10.900000</speed>
</trkpt>
<trkpt lat="21.278246" lon="105.461319">
<ele>5.551701</ele>
<time>2011-04-29T08:08:55Z</time>
<desc>lat.=21.278246, lon.=105.461319, Alt.=5.551701m. Speed=38.844002m/h.</desc>
<speed>10.790000</speed>
</trkpt>
<trkpt lat="21.278219" lon="105.461823">
<ele>5.659122</ele>
<time>2011-04-29T08:09:00Z</time>
<desc>lat.=21.278219, lon.=105.461823, Alt.=5.659122m. Speed=37.080002m/h.</desc>
<speed>10.300001</speed>
</trkpt>
<trkpt lat="21.278202" lon="105.462357">
<ele>4.691349</ele>
<time>2011-04-29T08:09:05Z</time>
<desc>lat.=21.278202, lon.=105.462357, Alt.=4.691349m. Speed=38.231998m/h.</desc>
<speed>10.620000</speed>
</trkpt>
<trkpt lat="21.278362" lon="105.462830">
<ele>2.734774</ele>
<time>2011-04-29T08:09:10Z</time>
<desc>lat.=21.278362, lon.=105.462830, Alt.=2.734774m. Speed=35.928001m/h.</desc>
<speed>9.980000</speed>
</trkpt>
<trkpt lat="21.278654" lon="105.463219">
<ele>3.537813</ele>
<time>2011-04-29T08:09:15Z</time>
<desc>lat.=21.278654, lon.=105.463219, Alt.=3.537813m. Speed=33.624001m/h.</desc>
<speed>9.340000</speed>
</trkpt>
<trkpt lat="21.278933" lon="105.463585">
<ele>4.562931</ele>
<time>2011-04-29T08:09:20Z</time>
<desc>lat.=21.278933, lon.=105.463585, Alt.=4.562931m. Speed=33.875999m/h.</desc>
<speed>9.410000</speed>
</trkpt>
<trkpt lat="21.279125" lon="105.464005">
<ele>7.477482</ele>
<time>2011-04-29T08:09:25Z</time>
<desc>lat.=21.279125, lon.=105.464005, Alt.=7.477482m. Speed=33.480000m/h.</desc>
<speed>9.300000</speed>
</trkpt>
<trkpt lat="21.279192" lon="105.464447">
<ele>10.129280</ele>
<time>2011-04-29T08:09:30Z</time>
<desc>lat.=21.279192, lon.=105.464447, Alt.=10.129280m. Speed=32.472000m/h.</desc>
<speed>9.020000</speed>
</trkpt>
<trkpt lat="21.279209" lon="105.464935">
<ele>14.503792</ele>
<time>2011-04-29T08:09:35Z</time>
<desc>lat.=21.279209, lon.=105.464935, Alt.=14.503792m. Speed=34.236000m/h.</desc>
<speed>9.510000</speed>
</trkpt>
<trkpt lat="21.279209" lon="105.465401">
<ele>15.137825</ele>
<time>2011-04-29T08:09:40Z</time>
<desc>lat.=21.279209, lon.=105.465401, Alt.=15.137825m. Speed=35.532001m/h.</desc>
<speed>9.870000</speed>
</trkpt>
<trkpt lat="21.279194" lon="105.465866">
<ele>15.190071</ele>
<time>2011-04-29T08:09:45Z</time>
<desc>lat.=21.279194, lon.=105.465866, Alt.=15.190071m. Speed=35.028000m/h.</desc>
<speed>9.730000</speed>
</trkpt>
<trkpt lat="21.279144" lon="105.466362">
<ele>13.739388</ele>
<time>2011-04-29T08:09:50Z</time>
<desc>lat.=21.279144, lon.=105.466362, Alt.=13.739388m. Speed=40.248001m/h.</desc>
<speed>11.180000</speed>
</trkpt>
<trkpt lat="21.279114" lon="105.466881">
<ele>10.613167</ele>
<time>2011-04-29T08:09:55Z</time>
<desc>lat.=21.279114, lon.=105.466881, Alt.=10.613167m. Speed=38.051998m/h.</desc>
<speed>10.569999</speed>
</trkpt>
<trkpt lat="21.279173" lon="105.467369">
<ele>11.787483</ele>
<time>2011-04-29T08:10:00Z</time>
<desc>lat.=21.279173, lon.=105.467369, Alt.=11.787483m. Speed=36.108002m/h.</desc>
<speed>10.030000</speed>
</trkpt>
<trkpt lat="21.279272" lon="105.467850">
<ele>8.813118</ele>
<time>2011-04-29T08:10:05Z</time>
<desc>lat.=21.279272, lon.=105.467850, Alt.=8.813118m. Speed=35.964001m/h.</desc>
<speed>9.990000</speed>
</trkpt>
<trkpt lat="21.279428" lon="105.468346">
<ele>7.711979</ele>
<time>2011-04-29T08:10:10Z</time>
<desc>lat.=21.279428, lon.=105.468346, Alt.=7.711979m. Speed=39.599998m/h.</desc>
<speed>11.000000</speed>
</trkpt>
<trkpt lat="21.279568" lon="105.468864">
<ele>6.565495</ele>
<time>2011-04-29T08:10:15Z</time>
<desc>lat.=21.279568, lon.=105.468864, Alt.=6.565495m. Speed=38.987999m/h.</desc>
<speed>10.830000</speed>
</trkpt>
<trkpt lat="21.279709" lon="105.469376">
<ele>5.362370</ele>
<time>2011-04-29T08:10:20Z</time>
<desc>lat.=21.279709, lon.=105.469376, Alt.=5.362370m. Speed=39.023998m/h.</desc>
<speed>10.840000</speed>
</trkpt>
<trkpt lat="21.279850" lon="105.469902">
<ele>3.423250</ele>
<time>2011-04-29T08:10:25Z</time>
<desc>lat.=21.279850, lon.=105.469902, Alt.=3.423250m. Speed=41.868000m/h.</desc>
<speed>11.630000</speed>
</trkpt>
<trkpt lat="21.280010" lon="105.470375">
<ele>2.210482</ele>
<time>2011-04-29T08:10:30Z</time>
<desc>lat.=21.280010, lon.=105.470375, Alt.=2.210482m. Speed=34.020000m/h.</desc>
<speed>9.450000</speed>
</trkpt>
<trkpt lat="21.280106" lon="105.470703">
<ele>2.606356</ele>
<time>2011-04-29T08:10:35Z</time>
<desc>lat.=21.280106, lon.=105.470703, Alt.=2.606356m. Speed=20.808001m/h.</desc>
<speed>5.780000</speed>
</trkpt>
<trkpt lat="21.280184" lon="105.471024">
<ele>4.694889</ele>
<time>2011-04-29T08:10:40Z</time>
<desc>lat.=21.280184, lon.=105.471024, Alt.=4.694889m. Speed=25.488001m/h.</desc>
<speed>7.080000</speed>
</trkpt>
<trkpt lat="21.280268" lon="105.471428">
<ele>8.690804</ele>
<time>2011-04-29T08:10:45Z</time>
<desc>lat.=21.280268, lon.=105.471428, Alt.=8.690804m. Speed=31.464001m/h.</desc>
<speed>8.740000</speed>
</trkpt>
<trkpt lat="21.280401" lon="105.471893">
<ele>12.425179</ele>
<time>2011-04-29T08:10:50Z</time>
<desc>lat.=21.280401, lon.=105.471893, Alt.=12.425179m. Speed=36.612000m/h.</desc>
<speed>10.170000</speed>
</trkpt>
<trkpt lat="21.280497" lon="105.472450">
<ele>15.671028</ele>
<time>2011-04-29T08:10:55Z</time>
<desc>lat.=21.280497, lon.=105.472450, Alt.=15.671028m. Speed=42.048000m/h.</desc>
<speed>11.680000</speed>
</trkpt>
<trkpt lat="21.280458" lon="105.473061">
<ele>15.059944</ele>
<time>2011-04-29T08:11:00Z</time>
<desc>lat.=21.280458, lon.=105.473061, Alt.=15.059944m. Speed=48.203999m/h.</desc>
<speed>13.390000</speed>
</trkpt>
<trkpt lat="21.280363" lon="105.473671">
<ele>14.249641</ele>
<time>2011-04-29T08:11:05Z</time>
<desc>lat.=21.280363, lon.=105.473671, Alt.=14.249641m. Speed=45.756001m/h.</desc>
<speed>12.710000</speed>
</trkpt>
<trkpt lat="21.280270" lon="105.474274">
<ele>10.819221</ele>
<time>2011-04-29T08:11:10Z</time>
<desc>lat.=21.280270, lon.=105.474274, Alt.=10.819221m. Speed=45.720001m/h.</desc>
<speed>12.700000</speed>
</trkpt>
<trkpt lat="21.280195" lon="105.474884">
<ele>6.288639</ele>
<time>2011-04-29T08:11:15Z</time>
<desc>lat.=21.280195, lon.=105.474884, Alt.=6.288639m. Speed=45.035999m/h.</desc>
<speed>12.510000</speed>
</trkpt>
<trkpt lat="21.280130" lon="105.475471">
<ele>4.993595</ele>
<time>2011-04-29T08:11:20Z</time>
<desc>lat.=21.280130, lon.=105.475471, Alt.=4.993595m. Speed=44.316002m/h.</desc>
<speed>12.310001</speed>
</trkpt>
<trkpt lat="21.280027" lon="105.476036">
<ele>3.348421</ele>
<time>2011-04-29T08:11:25Z</time>
<desc>lat.=21.280027, lon.=105.476036, Alt.=3.348421m. Speed=41.832001m/h.</desc>
<speed>11.620000</speed>
</trkpt>
<trkpt lat="21.279953" lon="105.476570">
<ele>3.709627</ele>
<time>2011-04-29T08:11:30Z</time>
<desc>lat.=21.279953, lon.=105.476570, Alt.=3.709627m. Speed=37.476002m/h.</desc>
<speed>10.410000</speed>
</trkpt>
<trkpt lat="21.279865" lon="105.477112">
<ele>4.526432</ele>
<time>2011-04-29T08:11:35Z</time>
<desc>lat.=21.279865, lon.=105.477112, Alt.=4.526432m. Speed=39.743999m/h.</desc>
<speed>11.040000</speed>
</trkpt>
<trkpt lat="21.279778" lon="105.477638">
<ele>2.500948</ele>
<time>2011-04-29T08:11:40Z</time>
<desc>lat.=21.279778, lon.=105.477638, Alt.=2.500948m. Speed=38.340000m/h.</desc>
<speed>10.650000</speed>
</trkpt>
<trkpt lat="21.279696" lon="105.478180">
<ele>-0.732872</ele>
<time>2011-04-29T08:11:45Z</time>
<desc>lat.=21.279696, lon.=105.478180, Alt.=-0.732872m. Speed=42.119999m/h.</desc>
<speed>11.700000</speed>
</trkpt>
<trkpt lat="21.279629" lon="105.478767">
<ele>1.854569</ele>
<time>2011-04-29T08:11:50Z</time>
<desc>lat.=21.279629, lon.=105.478767, Alt.=1.854569m. Speed=46.259998m/h.</desc>
<speed>12.850000</speed>
</trkpt>
<trkpt lat="21.279522" lon="105.479378">
<ele>1.547563</ele>
<time>2011-04-29T08:11:55Z</time>
<desc>lat.=21.279522, lon.=105.479378, Alt.=1.547563m. Speed=42.840000m/h.</desc>
<speed>11.900000</speed>
</trkpt>
<trkpt lat="21.279434" lon="105.479950">
<ele>0.294132</ele>
<time>2011-04-29T08:12:00Z</time>
<desc>lat.=21.279434, lon.=105.479950, Alt.=0.294132m. Speed=46.080002m/h.</desc>
<speed>12.800001</speed>
</trkpt>
<trkpt lat="21.279322" lon="105.480644">
<ele>0.052684</ele>
<time>2011-04-29T08:12:05Z</time>
<desc>lat.=21.279322, lon.=105.480644, Alt.=0.052684m. Speed=56.088001m/h.</desc>
<speed>15.580000</speed>
</trkpt>
<trkpt lat="21.279186" lon="105.481422">
<ele>-0.043553</ele>
<time>2011-04-29T08:12:10Z</time>
<desc>lat.=21.279186, lon.=105.481422, Alt.=-0.043553m. Speed=58.212002m/h.</desc>
<speed>16.170001</speed>
</trkpt>
<trkpt lat="21.279083" lon="105.482063">
<ele>1.588059</ele>
<time>2011-04-29T08:12:15Z</time>
<desc>lat.=21.279083, lon.=105.482063, Alt.=1.588059m. Speed=41.796001m/h.</desc>
<speed>11.610000</speed>
</trkpt>
<trkpt lat="21.279013" lon="105.482628">
<ele>1.084519</ele>
<time>2011-04-29T08:12:20Z</time>
<desc>lat.=21.279013, lon.=105.482628, Alt.=1.084519m. Speed=46.439999m/h.</desc>
<speed>12.900000</speed>
</trkpt>
<trkpt lat="21.278913" lon="105.483269">
<ele>1.258256</ele>
<time>2011-04-29T08:12:25Z</time>
<desc>lat.=21.278913, lon.=105.483269, Alt.=1.258256m. Speed=48.924000m/h.</desc>
<speed>13.590000</speed>
</trkpt>
<trkpt lat="21.278833" lon="105.483887">
<ele>1.993974</ele>
<time>2011-04-29T08:12:30Z</time>
<desc>lat.=21.278833, lon.=105.483887, Alt.=1.993974m. Speed=43.271999m/h.</desc>
<speed>12.020000</speed>
</trkpt>
<trkpt lat="21.278738" lon="105.484428">
<ele>2.907869</ele>
<time>2011-04-29T08:12:35Z</time>
<desc>lat.=21.278738, lon.=105.484428, Alt.=2.907869m. Speed=37.439999m/h.</desc>
<speed>10.400000</speed>
</trkpt>
<trkpt lat="21.278677" lon="105.484924">
<ele>0.982995</ele>
<time>2011-04-29T08:12:40Z</time>
<desc>lat.=21.278677, lon.=105.484924, Alt.=0.982995m. Speed=38.124001m/h.</desc>
<speed>10.590000</speed>
</trkpt>
<trkpt lat="21.278601" lon="105.485458">
<ele>1.239488</ele>
<time>2011-04-29T08:12:45Z</time>
<desc>lat.=21.278601, lon.=105.485458, Alt.=1.239488m. Speed=41.220001m/h.</desc>
<speed>11.450000</speed>
</trkpt>
<trkpt lat="21.278505" lon="105.486038">
<ele>2.169527</ele>
<time>2011-04-29T08:12:50Z</time>
<desc>lat.=21.278505, lon.=105.486038, Alt.=2.169527m. Speed=44.855999m/h.</desc>
<speed>12.460000</speed>
</trkpt>
<trkpt lat="21.278412" lon="105.486633">
<ele>3.564608</ele>
<time>2011-04-29T08:12:55Z</time>
<desc>lat.=21.278412, lon.=105.486633, Alt.=3.564608m. Speed=47.340000m/h.</desc>
<speed>13.150000</speed>
</trkpt>
<trkpt lat="21.278309" lon="105.487267">
<ele>5.576603</ele>
<time>2011-04-29T08:13:00Z</time>
<desc>lat.=21.278309, lon.=105.487267, Alt.=5.576603m. Speed=50.400002m/h.</desc>
<speed>14.000000</speed>
</trkpt>
<trkpt lat="21.278208" lon="105.487915">
<ele>7.928654</ele>
<time>2011-04-29T08:13:05Z</time>
<desc>lat.=21.278208, lon.=105.487915, Alt.=7.928654m. Speed=50.292000m/h.</desc>
<speed>13.970000</speed>
</trkpt>
<trkpt lat="21.278116" lon="105.488586">
<ele>7.337345</ele>
<time>2011-04-29T08:13:10Z</time>
<desc>lat.=21.278116, lon.=105.488586, Alt.=7.337345m. Speed=47.195999m/h.</desc>
<speed>13.110000</speed>
</trkpt>
<trkpt lat="21.278032" lon="105.489174">
<ele>6.721989</ele>
<time>2011-04-29T08:13:15Z</time>
<desc>lat.=21.278032, lon.=105.489174, Alt.=6.721989m. Speed=45.324001m/h.</desc>
<speed>12.590000</speed>
</trkpt>
<trkpt lat="21.277952" lon="105.489769">
<ele>4.189640</ele>
<time>2011-04-29T08:13:20Z</time>
<desc>lat.=21.277952, lon.=105.489769, Alt.=4.189640m. Speed=47.448002m/h.</desc>
<speed>13.180001</speed>
</trkpt>
<trkpt lat="21.277857" lon="105.490425">
<ele>5.532902</ele>
<time>2011-04-29T08:13:25Z</time>
<desc>lat.=21.277857, lon.=105.490425, Alt.=5.532902m. Speed=47.195999m/h.</desc>
<speed>13.110000</speed>
</trkpt>
<trkpt lat="21.277737" lon="105.491089">
<ele>5.133976</ele>
<time>2011-04-29T08:13:30Z</time>
<desc>lat.=21.277737, lon.=105.491089, Alt.=5.133976m. Speed=50.292000m/h.</desc>
<speed>13.970000</speed>
</trkpt>
<trkpt lat="21.277630" lon="105.491730">
<ele>4.405582</ele>
<time>2011-04-29T08:13:35Z</time>
<desc>lat.=21.277630, lon.=105.491730, Alt.=4.405582m. Speed=49.464001m/h.</desc>
<speed>13.740000</speed>
</trkpt>
<trkpt lat="21.277521" lon="105.492378">
<ele>3.366121</ele>
<time>2011-04-29T08:13:40Z</time>
<desc>lat.=21.277521, lon.=105.492378, Alt.=3.366121m. Speed=48.599998m/h.</desc>
<speed>13.500000</speed>
</trkpt>
<trkpt lat="21.277441" lon="105.492958">
<ele>3.337191</ele>
<time>2011-04-29T08:13:45Z</time>
<desc>lat.=21.277441, lon.=105.492958, Alt.=3.337191m. Speed=41.723999m/h.</desc>
<speed>11.590000</speed>
</trkpt>
<trkpt lat="21.277390" lon="105.493484">
<ele>5.557316</ele>
<time>2011-04-29T08:13:50Z</time>
<desc>lat.=21.277390, lon.=105.493484, Alt.=5.557316m. Speed=41.004002m/h.</desc>
<speed>11.390000</speed>
</trkpt>
<trkpt lat="21.277390" lon="105.494095">
<ele>5.249577</ele>
<time>2011-04-29T08:13:55Z</time>
<desc>lat.=21.277390, lon.=105.494095, Alt.=5.249577m. Speed=50.147999m/h.</desc>
<speed>13.930000</speed>
</trkpt>
<trkpt lat="21.277409" lon="105.494759">
<ele>4.914371</ele>
<time>2011-04-29T08:14:00Z</time>
<desc>lat.=21.277409, lon.=105.494759, Alt.=4.914371m. Speed=40.104000m/h.</desc>
<speed>11.140000</speed>
</trkpt>
<trkpt lat="21.277430" lon="105.495193">
<ele>5.561344</ele>
<time>2011-04-29T08:14:05Z</time>
<desc>lat.=21.277430, lon.=105.495193, Alt.=5.561344m. Speed=31.176001m/h.</desc>
<speed>8.660000</speed>
</trkpt>
<trkpt lat="21.277452" lon="105.495667">
<ele>6.334049</ele>
<time>2011-04-29T08:14:10Z</time>
<desc>lat.=21.277452, lon.=105.495667, Alt.=6.334049m. Speed=33.192001m/h.</desc>
<speed>9.220000</speed>
</trkpt>
<trkpt lat="21.277483" lon="105.496117">
<ele>6.767155</ele>
<time>2011-04-29T08:14:15Z</time>
<desc>lat.=21.277483, lon.=105.496117, Alt.=6.767155m. Speed=34.560001m/h.</desc>
<speed>9.600000</speed>
</trkpt>
<trkpt lat="21.277529" lon="105.496613">
<ele>4.106876</ele>
<time>2011-04-29T08:14:20Z</time>
<desc>lat.=21.277529, lon.=105.496613, Alt.=4.106876m. Speed=42.119999m/h.</desc>
<speed>11.700000</speed>
</trkpt>
<trkpt lat="21.277538" lon="105.497192">
<ele>2.384920</ele>
<time>2011-04-29T08:14:25Z</time>
<desc>lat.=21.277538, lon.=105.497192, Alt.=2.384920m. Speed=47.520000m/h.</desc>
<speed>13.200000</speed>
</trkpt>
<trkpt lat="21.277580" lon="105.497894">
<ele>2.370943</ele>
<time>2011-04-29T08:14:30Z</time>
<desc>lat.=21.277580, lon.=105.497894, Alt.=2.370943m. Speed=56.700001m/h.</desc>
<speed>15.750000</speed>
</trkpt>
<trkpt lat="21.277617" lon="105.498642">
<ele>-0.253987</ele>
<time>2011-04-29T08:14:35Z</time>
<desc>lat.=21.277617, lon.=105.498642, Alt.=-0.253987m. Speed=57.132000m/h.</desc>
<speed>15.870000</speed>
</trkpt>
<trkpt lat="21.277664" lon="105.499397">
<ele>0.136644</ele>
<time>2011-04-29T08:14:40Z</time>
<desc>lat.=21.277664, lon.=105.499397, Alt.=0.136644m. Speed=53.820000m/h.</desc>
<speed>14.950000</speed>
</trkpt>
<trkpt lat="21.277706" lon="105.500084">
<ele>0.783257</ele>
<time>2011-04-29T08:14:45Z</time>
<desc>lat.=21.277706, lon.=105.500084, Alt.=0.783257m. Speed=50.543999m/h.</desc>
<speed>14.040000</speed>
</trkpt>
<trkpt lat="21.277742" lon="105.500778">
<ele>0.972451</ele>
<time>2011-04-29T08:14:50Z</time>
<desc>lat.=21.277742, lon.=105.500778, Alt.=0.972451m. Speed=53.063999m/h.</desc>
<speed>14.740000</speed>
</trkpt>
<trkpt lat="21.277784" lon="105.501495">
<ele>-1.612504</ele>
<time>2011-04-29T08:14:55Z</time>
<desc>lat.=21.277784, lon.=105.501495, Alt.=-1.612504m. Speed=55.259998m/h.</desc>
<speed>15.350000</speed>
</trkpt>
<trkpt lat="21.277840" lon="105.502243">
<ele>-1.764939</ele>
<time>2011-04-29T08:15:00Z</time>
<desc>lat.=21.277840, lon.=105.502243, Alt.=-1.764939m. Speed=59.832001m/h.</desc>
<speed>16.620000</speed>
</trkpt>
<trkpt lat="21.277878" lon="105.503044">
<ele>-2.458284</ele>
<time>2011-04-29T08:15:05Z</time>
<desc>lat.=21.277878, lon.=105.503044, Alt.=-2.458284m. Speed=59.076000m/h.</desc>
<speed>16.410000</speed>
</trkpt>
<trkpt lat="21.277908" lon="105.503845">
<ele>-1.977830</ele>
<time>2011-04-29T08:15:10Z</time>
<desc>lat.=21.277908, lon.=105.503845, Alt.=-1.977830m. Speed=56.736000m/h.</desc>
<speed>15.760000</speed>
</trkpt>
<trkpt lat="21.277956" lon="105.504616">
<ele>-0.694924</ele>
<time>2011-04-29T08:15:15Z</time>
<desc>lat.=21.277956, lon.=105.504616, Alt.=-0.694924m. Speed=53.639999m/h.</desc>
<speed>14.900000</speed>
</trkpt>
<trkpt lat="21.278017" lon="105.505310">
<ele>3.749727</ele>
<time>2011-04-29T08:15:20Z</time>
<desc>lat.=21.278017, lon.=105.505310, Alt.=3.749727m. Speed=48.743999m/h.</desc>
<speed>13.540000</speed>
</trkpt>
<trkpt lat="21.278053" lon="105.505898">
<ele>4.881657</ele>
<time>2011-04-29T08:15:25Z</time>
<desc>lat.=21.278053, lon.=105.505898, Alt.=4.881657m. Speed=39.599998m/h.</desc>
<speed>11.000000</speed>
</trkpt>
<trkpt lat="21.278091" lon="105.506401">
<ele>2.689852</ele>
<time>2011-04-29T08:15:30Z</time>
<desc>lat.=21.278091, lon.=105.506401, Alt.=2.689852m. Speed=38.268002m/h.</desc>
<speed>10.630000</speed>
</trkpt>
<trkpt lat="21.278118" lon="105.506943">
<ele>4.864933</ele>
<time>2011-04-29T08:15:35Z</time>
<desc>lat.=21.278118, lon.=105.506943, Alt.=4.864933m. Speed=38.448002m/h.</desc>
<speed>10.680001</speed>
</trkpt>
<trkpt lat="21.278137" lon="105.507439">
<ele>2.112886</ele>
<time>2011-04-29T08:15:40Z</time>
<desc>lat.=21.278137, lon.=105.507439, Alt.=2.112886m. Speed=37.584000m/h.</desc>
<speed>10.440000</speed>
</trkpt>
<trkpt lat="21.278175" lon="105.507988">
<ele>2.407381</ele>
<time>2011-04-29T08:15:45Z</time>
<desc>lat.=21.278175, lon.=105.507988, Alt.=2.407381m. Speed=43.127998m/h.</desc>
<speed>11.980000</speed>
</trkpt>
<trkpt lat="21.278215" lon="105.508568">
<ele>-1.494706</ele>
<time>2011-04-29T08:15:50Z</time>
<desc>lat.=21.278215, lon.=105.508568, Alt.=-1.494706m. Speed=49.032001m/h.</desc>
<speed>13.620000</speed>
</trkpt>
<trkpt lat="21.278246" lon="105.509201">
<ele>-2.782869</ele>
<time>2011-04-29T08:15:55Z</time>
<desc>lat.=21.278246, lon.=105.509201, Alt.=-2.782869m. Speed=36.467999m/h.</desc>
<speed>10.130000</speed>
</trkpt>
<trkpt lat="21.278250" lon="105.509430">
<ele>-4.372257</ele>
<time>2011-04-29T08:16:00Z</time>
<desc>lat.=21.278250, lon.=105.509430, Alt.=-4.372257m. Speed=5.832000m/h.</desc>
<speed>1.620000</speed>
</trkpt>
<trkpt lat="21.278263" lon="105.509476">
<ele>-4.637028</ele>
<time>2011-04-29T08:16:05Z</time>
<desc>lat.=21.278263, lon.=105.509476, Alt.=-4.637028m. Speed=10.872000m/h.</desc>
<speed>3.020000</speed>
</trkpt>
<trkpt lat="21.278267" lon="105.509758">
<ele>-4.471134</ele>
<time>2011-04-29T08:16:10Z</time>
<desc>lat.=21.278267, lon.=105.509758, Alt.=-4.471134m. Speed=24.408001m/h.</desc>
<speed>6.780000</speed>
</trkpt>
<trkpt lat="21.278294" lon="105.510132">
<ele>-4.554264</ele>
<time>2011-04-29T08:16:15Z</time>
<desc>lat.=21.278294, lon.=105.510132, Alt.=-4.554264m. Speed=31.212000m/h.</desc>
<speed>8.670000</speed>
</trkpt>
<trkpt lat="21.278334" lon="105.510635">
<ele>-6.424381</ele>
<time>2011-04-29T08:16:20Z</time>
<desc>lat.=21.278334, lon.=105.510635, Alt.=-6.424381m. Speed=41.363998m/h.</desc>
<speed>11.490000</speed>
</trkpt>
<trkpt lat="21.278372" lon="105.511208">
<ele>-8.172005</ele>
<time>2011-04-29T08:16:25Z</time>
<desc>lat.=21.278372, lon.=105.511208, Alt.=-8.172005m. Speed=45.504002m/h.</desc>
<speed>12.640000</speed>
</trkpt>
<trkpt lat="21.278402" lon="105.511787">
<ele>-9.433479</ele>
<time>2011-04-29T08:16:30Z</time>
<desc>lat.=21.278402, lon.=105.511787, Alt.=-9.433479m. Speed=44.352001m/h.</desc>
<speed>12.320000</speed>
</trkpt>
<trkpt lat="21.278440" lon="105.512398">
<ele>-9.711555</ele>
<time>2011-04-29T08:16:35Z</time>
<desc>lat.=21.278440, lon.=105.512398, Alt.=-9.711555m. Speed=43.416000m/h.</desc>
<speed>12.060000</speed>
</trkpt>
<trkpt lat="21.278475" lon="105.512947">
<ele>-8.179085</ele>
<time>2011-04-29T08:16:40Z</time>
<desc>lat.=21.278475, lon.=105.512947, Alt.=-8.179085m. Speed=41.363998m/h.</desc>
<speed>11.490000</speed>
</trkpt>
<trkpt lat="21.278509" lon="105.513535">
<ele>-8.491585</ele>
<time>2011-04-29T08:16:45Z</time>
<desc>lat.=21.278509, lon.=105.513535, Alt.=-8.491585m. Speed=48.348000m/h.</desc>
<speed>13.430000</speed>
</trkpt>
<trkpt lat="21.278570" lon="105.514198">
<ele>-10.052864</ele>
<time>2011-04-29T08:16:50Z</time>
<desc>lat.=21.278570, lon.=105.514198, Alt.=-10.052864m. Speed=54.720001m/h.</desc>
<speed>15.200000</speed>
</trkpt>
<trkpt lat="21.278599" lon="105.514946">
<ele>-12.358284</ele>
<time>2011-04-29T08:16:55Z</time>
<desc>lat.=21.278599, lon.=105.514946, Alt.=-12.358284m. Speed=58.896000m/h.</desc>
<speed>16.360000</speed>
</trkpt>
<trkpt lat="21.278646" lon="105.515739">
<ele>-11.718880</ele>
<time>2011-04-29T08:17:00Z</time>
<desc>lat.=21.278646, lon.=105.515739, Alt.=-11.718880m. Speed=56.664001m/h.</desc>
<speed>15.740000</speed>
</trkpt>
<trkpt lat="21.278683" lon="105.516411">
<ele>-11.578255</ele>
<time>2011-04-29T08:17:05Z</time>
<desc>lat.=21.278683, lon.=105.516411, Alt.=-11.578255m. Speed=43.956001m/h.</desc>
<speed>12.210000</speed>
</trkpt>
<trkpt lat="21.278721" lon="105.517021">
<ele>-12.679817</ele>
<time>2011-04-29T08:17:10Z</time>
<desc>lat.=21.278721, lon.=105.517021, Alt.=-12.679817m. Speed=46.259998m/h.</desc>
<speed>12.850000</speed>
</trkpt>
<trkpt lat="21.278765" lon="105.517700">
<ele>-10.613899</ele>
<time>2011-04-29T08:17:15Z</time>
<desc>lat.=21.278765, lon.=105.517700, Alt.=-10.613899m. Speed=48.096001m/h.</desc>
<speed>13.360000</speed>
</trkpt>
<trkpt lat="21.278774" lon="105.518349">
<ele>-7.444279</ele>
<time>2011-04-29T08:17:20Z</time>
<desc>lat.=21.278774, lon.=105.518349, Alt.=-7.444279m. Speed=43.127998m/h.</desc>
<speed>11.980000</speed>
</trkpt>
<trkpt lat="21.278803" lon="105.518867">
<ele>-6.490299</ele>
<time>2011-04-29T08:17:25Z</time>
<desc>lat.=21.278803, lon.=105.518867, Alt.=-6.490299m. Speed=36.576000m/h.</desc>
<speed>10.160000</speed>
</trkpt>
<trkpt lat="21.278833" lon="105.519348">
<ele>-6.948673</ele>
<time>2011-04-29T08:17:30Z</time>
<desc>lat.=21.278833, lon.=105.519348, Alt.=-6.948673m. Speed=34.487999m/h.</desc>
<speed>9.580000</speed>
</trkpt>
<trkpt lat="21.278875" lon="105.519852">
<ele>-3.317171</ele>
<time>2011-04-29T08:17:35Z</time>
<desc>lat.=21.278875, lon.=105.519852, Alt.=-3.317171m. Speed=32.723999m/h.</desc>
<speed>9.090000</speed>
</trkpt>
<trkpt lat="21.278997" lon="105.520386">
<ele>1.605668</ele>
<time>2011-04-29T08:17:40Z</time>
<desc>lat.=21.278997, lon.=105.520386, Alt.=1.605668m. Speed=36.108002m/h.</desc>
<speed>10.030000</speed>
</trkpt>
<trkpt lat="21.279127" lon="105.520882">
<ele>7.466984</ele>
<time>2011-04-29T08:17:45Z</time>
<desc>lat.=21.279127, lon.=105.520882, Alt.=7.466984m. Speed=32.976002m/h.</desc>
<speed>9.160000</speed>
</trkpt>
<trkpt lat="21.279289" lon="105.521362">
<ele>14.922005</ele>
<time>2011-04-29T08:17:50Z</time>
<desc>lat.=21.279289, lon.=105.521362, Alt.=14.922005m. Speed=37.548000m/h.</desc>
<speed>10.430000</speed>
</trkpt>
<trkpt lat="21.279459" lon="105.521873">
<ele>15.786018</ele>
<time>2011-04-29T08:17:55Z</time>
<desc>lat.=21.279459, lon.=105.521873, Alt.=15.786018m. Speed=41.040001m/h.</desc>
<speed>11.400000</speed>
</trkpt>
<trkpt lat="21.279608" lon="105.522369">
<ele>16.297623</ele>
<time>2011-04-29T08:18:00Z</time>
<desc>lat.=21.279608, lon.=105.522369, Alt.=16.297623m. Speed=40.824001m/h.</desc>
<speed>11.340000</speed>
</trkpt>
<trkpt lat="21.279783" lon="105.522934">
<ele>15.677132</ele>
<time>2011-04-29T08:18:05Z</time>
<desc>lat.=21.279783, lon.=105.522934, Alt.=15.677132m. Speed=47.195999m/h.</desc>
<speed>13.110000</speed>
</trkpt>
<trkpt lat="21.280001" lon="105.523567">
<ele>14.729378</ele>
<time>2011-04-29T08:18:10Z</time>
<desc>lat.=21.280001, lon.=105.523567, Alt.=14.729378m. Speed=55.980000m/h.</desc>
<speed>15.550000</speed>
</trkpt>
<trkpt lat="21.280251" lon="105.524323">
<ele>14.821419</ele>
<time>2011-04-29T08:18:15Z</time>
<desc>lat.=21.280251, lon.=105.524323, Alt.=14.821419m. Speed=61.560001m/h.</desc>
<speed>17.100000</speed>
</trkpt>
<trkpt lat="21.280519" lon="105.525108">
<ele>14.376839</ele>
<time>2011-04-29T08:18:20Z</time>
<desc>lat.=21.280519, lon.=105.525108, Alt.=14.376839m. Speed=62.748001m/h.</desc>
<speed>17.430000</speed>
</trkpt>
<trkpt lat="21.280806" lon="105.525894">
<ele>13.364876</ele>
<time>2011-04-29T08:18:25Z</time>
<desc>lat.=21.280806, lon.=105.525894, Alt.=13.364876m. Speed=65.987999m/h.</desc>
<speed>18.330000</speed>
</trkpt>
<trkpt lat="21.281116" lon="105.526741">
<ele>14.668831</ele>
<time>2011-04-29T08:18:30Z</time>
<desc>lat.=21.281116, lon.=105.526741, Alt.=14.668831m. Speed=68.472000m/h.</desc>
<speed>19.020000</speed>
</trkpt>
<trkpt lat="21.281431" lon="105.527596">
<ele>12.744026</ele>
<time>2011-04-29T08:18:35Z</time>
<desc>lat.=21.281431, lon.=105.527596, Alt.=12.744026m. Speed=69.804001m/h.</desc>
<speed>19.390000</speed>
</trkpt>
<trkpt lat="21.281725" lon="105.528412">
<ele>12.728401</ele>
<time>2011-04-29T08:18:40Z</time>
<desc>lat.=21.281725, lon.=105.528412, Alt.=12.728401m. Speed=64.332001m/h.</desc>
<speed>17.870000</speed>
</trkpt>
<trkpt lat="21.281998" lon="105.529205">
<ele>9.799202</ele>
<time>2011-04-29T08:18:45Z</time>
<desc>lat.=21.281998, lon.=105.529205, Alt.=9.799202m. Speed=61.056000m/h.</desc>
<speed>16.960000</speed>
</trkpt>
<trkpt lat="21.282246" lon="105.529953">
<ele>11.222786</ele>
<time>2011-04-29T08:18:50Z</time>
<desc>lat.=21.282246, lon.=105.529953, Alt.=11.222786m. Speed=56.160000m/h.</desc>
<speed>15.600000</speed>
</trkpt>
<trkpt lat="21.282505" lon="105.530632">
<ele>8.584358</ele>
<time>2011-04-29T08:18:55Z</time>
<desc>lat.=21.282505, lon.=105.530632, Alt.=8.584358m. Speed=53.748001m/h.</desc>
<speed>14.930000</speed>
</trkpt>
<trkpt lat="21.282722" lon="105.531273">
<ele>8.382942</ele>
<time>2011-04-29T08:19:00Z</time>
<desc>lat.=21.282722, lon.=105.531273, Alt.=8.382942m. Speed=49.104000m/h.</desc>
<speed>13.640000</speed>
</trkpt>
<trkpt lat="21.282913" lon="105.531868">
<ele>8.900032</ele>
<time>2011-04-29T08:19:05Z</time>
<desc>lat.=21.282913, lon.=105.531868, Alt.=8.900032m. Speed=44.208000m/h.</desc>
<speed>12.280000</speed>
</trkpt>
<trkpt lat="21.283125" lon="105.532440">
<ele>11.368782</ele>
<time>2011-04-29T08:19:10Z</time>
<desc>lat.=21.283125, lon.=105.532440, Alt.=11.368782m. Speed=46.188000m/h.</desc>
<speed>12.830000</speed>
</trkpt>
<trkpt lat="21.283337" lon="105.533035">
<ele>10.992073</ele>
<time>2011-04-29T08:19:15Z</time>
<desc>lat.=21.283337, lon.=105.533035, Alt.=10.992073m. Speed=46.872002m/h.</desc>
<speed>13.020000</speed>
</trkpt>
<trkpt lat="21.283531" lon="105.533592">
<ele>10.517708</ele>
<time>2011-04-29T08:19:20Z</time>
<desc>lat.=21.283531, lon.=105.533592, Alt.=10.517708m. Speed=43.596001m/h.</desc>
<speed>12.110000</speed>
</trkpt>
<trkpt lat="21.283691" lon="105.534065">
<ele>9.605843</ele>
<time>2011-04-29T08:19:25Z</time>
<desc>lat.=21.283691, lon.=105.534065, Alt.=9.605843m. Speed=31.320000m/h.</desc>
<speed>8.700000</speed>
</trkpt>
<trkpt lat="21.283815" lon="105.534447">
<ele>9.326057</ele>
<time>2011-04-29T08:19:30Z</time>
<desc>lat.=21.283815, lon.=105.534447, Alt.=9.326057m. Speed=31.247999m/h.</desc>
<speed>8.680000</speed>
</trkpt>
<trkpt lat="21.283985" lon="105.534882">
<ele>5.127018</ele>
<time>2011-04-29T08:19:35Z</time>
<desc>lat.=21.283985, lon.=105.534882, Alt.=5.127018m. Speed=36.827999m/h.</desc>
<speed>10.230000</speed>
</trkpt>
<trkpt lat="21.284164" lon="105.535378">
<ele>5.673893</ele>
<time>2011-04-29T08:19:40Z</time>
<desc>lat.=21.284164, lon.=105.535378, Alt.=5.673893m. Speed=40.428001m/h.</desc>
<speed>11.230000</speed>
</trkpt>
<trkpt lat="21.284336" lon="105.535866">
<ele>3.834200</ele>
<time>2011-04-29T08:19:45Z</time>
<desc>lat.=21.284336, lon.=105.535866, Alt.=3.834200m. Speed=41.976002m/h.</desc>
<speed>11.660000</speed>
</trkpt>
<trkpt lat="21.284508" lon="105.536415">
<ele>5.204777</ele>
<time>2011-04-29T08:19:50Z</time>
<desc>lat.=21.284508, lon.=105.536415, Alt.=5.204777m. Speed=42.911999m/h.</desc>
<speed>11.920000</speed>
</trkpt>
<trkpt lat="21.284698" lon="105.536972">
<ele>4.175358</ele>
<time>2011-04-29T08:19:55Z</time>
<desc>lat.=21.284698, lon.=105.536972, Alt.=4.175358m. Speed=45.863998m/h.</desc>
<speed>12.740000</speed>
</trkpt>
<trkpt lat="21.284912" lon="105.537544">
<ele>2.305635</ele>
<time>2011-04-29T08:20:00Z</time>
<desc>lat.=21.284912, lon.=105.537544, Alt.=2.305635m. Speed=48.132000m/h.</desc>
<speed>13.370000</speed>
</trkpt>
<trkpt lat="21.285137" lon="105.538177">
<ele>1.432755</ele>
<time>2011-04-29T08:20:05Z</time>
<desc>lat.=21.285137, lon.=105.538177, Alt.=1.432755m. Speed=51.264000m/h.</desc>
<speed>14.240000</speed>
</trkpt>
<trkpt lat="21.285372" lon="105.538811">
<ele>2.815889</ele>
<time>2011-04-29T08:20:10Z</time>
<desc>lat.=21.285372, lon.=105.538811, Alt.=2.815889m. Speed=49.032001m/h.</desc>
<speed>13.620000</speed>
</trkpt>
<trkpt lat="21.285595" lon="105.539406">
<ele>2.964632</ele>
<time>2011-04-29T08:20:15Z</time>
<desc>lat.=21.285595, lon.=105.539406, Alt.=2.964632m. Speed=45.900002m/h.</desc>
<speed>12.750000</speed>
</trkpt>
<trkpt lat="21.285803" lon="105.539986">
<ele>3.047884</ele>
<time>2011-04-29T08:20:20Z</time>
<desc>lat.=21.285803, lon.=105.539986, Alt.=3.047884m. Speed=47.556000m/h.</desc>
<speed>13.210000</speed>
</trkpt>
<trkpt lat="21.286028" lon="105.540565">
<ele>5.273746</ele>
<time>2011-04-29T08:20:25Z</time>
<desc>lat.=21.286028, lon.=105.540565, Alt.=5.273746m. Speed=45.647999m/h.</desc>
<speed>12.680000</speed>
</trkpt>
<trkpt lat="21.286234" lon="105.541138">
<ele>3.503206</ele>
<time>2011-04-29T08:20:30Z</time>
<desc>lat.=21.286234, lon.=105.541138, Alt.=3.503206m. Speed=45.035999m/h.</desc>
<speed>12.510000</speed>
</trkpt>
<trkpt lat="21.286446" lon="105.541725">
<ele>3.898104</ele>
<time>2011-04-29T08:20:35Z</time>
<desc>lat.=21.286446, lon.=105.541725, Alt.=3.898104m. Speed=46.872002m/h.</desc>
<speed>13.020000</speed>
</trkpt>
<trkpt lat="21.286661" lon="105.542336">
<ele>3.207064</ele>
<time>2011-04-29T08:20:40Z</time>
<desc>lat.=21.286661, lon.=105.542336, Alt.=3.207064m. Speed=47.844002m/h.</desc>
<speed>13.290000</speed>
</trkpt>
<trkpt lat="21.286879" lon="105.542953">
<ele>4.741642</ele>
<time>2011-04-29T08:20:45Z</time>
<desc>lat.=21.286879, lon.=105.542953, Alt.=4.741642m. Speed=49.212002m/h.</desc>
<speed>13.670001</speed>
</trkpt>
<trkpt lat="21.287090" lon="105.543571">
<ele>7.831974</ele>
<time>2011-04-29T08:20:50Z</time>
<desc>lat.=21.287090, lon.=105.543571, Alt.=7.831974m. Speed=48.743999m/h.</desc>
<speed>13.540000</speed>
</trkpt>
<trkpt lat="21.287317" lon="105.544205">
<ele>9.378059</ele>
<time>2011-04-29T08:20:55Z</time>
<desc>lat.=21.287317, lon.=105.544205, Alt.=9.378059m. Speed=49.787998m/h.</desc>
<speed>13.829999</speed>
</trkpt>
<trkpt lat="21.287544" lon="105.544815">
<ele>7.985172</ele>
<time>2011-04-29T08:21:00Z</time>
<desc>lat.=21.287544, lon.=105.544815, Alt.=7.985172m. Speed=50.220001m/h.</desc>
<speed>13.950000</speed>
</trkpt>
<trkpt lat="21.287767" lon="105.545425">
<ele>4.967716</ele>
<time>2011-04-29T08:21:05Z</time>
<desc>lat.=21.287767, lon.=105.545425, Alt.=4.967716m. Speed=47.304001m/h.</desc>
<speed>13.140000</speed>
</trkpt>
<trkpt lat="21.287960" lon="105.545952">
<ele>2.897921</ele>
<time>2011-04-29T08:21:10Z</time>
<desc>lat.=21.287960, lon.=105.545952, Alt.=2.897921m. Speed=36.396000m/h.</desc>
<speed>10.110000</speed>
</trkpt>
<trkpt lat="21.288055" lon="105.546249">
<ele>3.360079</ele>
<time>2011-04-29T08:21:15Z</time>
<desc>lat.=21.288055, lon.=105.546249, Alt.=3.360079m. Speed=9.756000m/h.</desc>
<speed>2.710000</speed>
</trkpt>
<trkpt lat="21.288086" lon="105.546295">
<ele>4.460148</ele>
<time>2011-04-29T08:21:20Z</time>
<desc>lat.=21.288086, lon.=105.546295, Alt.=4.460148m. Speed=0.936000m/h.</desc>
<speed>0.260000</speed>
</trkpt>
<trkpt lat="21.288097" lon="105.546341">
<ele>4.660831</ele>
<time>2011-04-29T08:21:25Z</time>
<desc>lat.=21.288097, lon.=105.546341, Alt.=4.660831m. Speed=10.224000m/h.</desc>
<speed>2.840000</speed>
</trkpt>
<trkpt lat="21.288170" lon="105.546555">
<ele>5.612736</ele>
<time>2011-04-29T08:21:30Z</time>
<desc>lat.=21.288170, lon.=105.546555, Alt.=5.612736m. Speed=21.708000m/h.</desc>
<speed>6.030000</speed>
</trkpt>
<trkpt lat="21.288284" lon="105.546883">
<ele>6.776798</ele>
<time>2011-04-29T08:21:35Z</time>
<desc>lat.=21.288284, lon.=105.546883, Alt.=6.776798m. Speed=30.024000m/h.</desc>
<speed>8.340000</speed>
</trkpt>
<trkpt lat="21.288464" lon="105.547356">
<ele>7.759953</ele>
<time>2011-04-29T08:21:40Z</time>
<desc>lat.=21.288464, lon.=105.547356, Alt.=7.759953m. Speed=38.268002m/h.</desc>
<speed>10.630000</speed>
</trkpt>
<trkpt lat="21.288744" lon="105.547852">
<ele>12.581917</ele>
<time>2011-04-29T08:21:45Z</time>
<desc>lat.=21.288744, lon.=105.547852, Alt.=12.581917m. Speed=40.860001m/h.</desc>
<speed>11.350000</speed>
</trkpt>
<trkpt lat="21.289129" lon="105.548286">
<ele>15.300911</ele>
<time>2011-04-29T08:21:50Z</time>
<desc>lat.=21.289129, lon.=105.548286, Alt.=15.300911m. Speed=44.136002m/h.</desc>
<speed>12.260000</speed>
</trkpt>
<trkpt lat="21.289560" lon="105.548729">
<ele>16.222916</ele>
<time>2011-04-29T08:21:55Z</time>
<desc>lat.=21.289560, lon.=105.548729, Alt.=16.222916m. Speed=47.375999m/h.</desc>
<speed>13.160000</speed>
</trkpt>
<trkpt lat="21.290003" lon="105.549194">
<ele>14.715218</ele>
<time>2011-04-29T08:22:00Z</time>
<desc>lat.=21.290003, lon.=105.549194, Alt.=14.715218m. Speed=49.608002m/h.</desc>
<speed>13.780000</speed>
</trkpt>
<trkpt lat="21.290442" lon="105.549629">
<ele>6.697086</ele>
<time>2011-04-29T08:22:05Z</time>
<desc>lat.=21.290442, lon.=105.549629, Alt.=6.697086m. Speed=48.348000m/h.</desc>
<speed>13.430000</speed>
</trkpt>
<trkpt lat="21.290901" lon="105.550079">
<ele>2.668123</ele>
<time>2011-04-29T08:22:10Z</time>
<desc>lat.=21.290901, lon.=105.550079, Alt.=2.668123m. Speed=49.644001m/h.</desc>
<speed>13.790000</speed>
</trkpt>
<trkpt lat="21.291357" lon="105.550545">
<ele>0.290303</ele>
<time>2011-04-29T08:22:15Z</time>
<desc>lat.=21.291357, lon.=105.550545, Alt.=0.290303m. Speed=50.939999m/h.</desc>
<speed>14.150000</speed>
</trkpt>
<trkpt lat="21.291794" lon="105.551025">
<ele>1.193101</ele>
<time>2011-04-29T08:22:20Z</time>
<desc>lat.=21.291794, lon.=105.551025, Alt.=1.193101m. Speed=50.507999m/h.</desc>
<speed>14.030000</speed>
</trkpt>
<trkpt lat="21.292242" lon="105.551514">
<ele>1.093064</ele>
<time>2011-04-29T08:22:25Z</time>
<desc>lat.=21.292242, lon.=105.551514, Alt.=1.093064m. Speed=50.652000m/h.</desc>
<speed>14.070000</speed>
</trkpt>
<trkpt lat="21.292660" lon="105.551964">
<ele>-0.192213</ele>
<time>2011-04-29T08:22:30Z</time>
<desc>lat.=21.292660, lon.=105.551964, Alt.=-0.192213m. Speed=46.980000m/h.</desc>
<speed>13.050000</speed>
</trkpt>
<trkpt lat="21.293036" lon="105.552414">
<ele>0.338932</ele>
<time>2011-04-29T08:22:35Z</time>
<desc>lat.=21.293036, lon.=105.552414, Alt.=0.338932m. Speed=43.416000m/h.</desc>
<speed>12.060000</speed>
</trkpt>
<trkpt lat="21.293406" lon="105.552811">
<ele>-1.942246</ele>
<time>2011-04-29T08:22:40Z</time>
<desc>lat.=21.293406, lon.=105.552811, Alt.=-1.942246m. Speed=39.672001m/h.</desc>
<speed>11.020000</speed>
</trkpt>
<trkpt lat="21.293739" lon="105.553169">
<ele>-2.078402</ele>
<time>2011-04-29T08:22:45Z</time>
<desc>lat.=21.293739, lon.=105.553169, Alt.=-2.078402m. Speed=37.332001m/h.</desc>
<speed>10.370000</speed>
</trkpt>
<trkpt lat="21.294062" lon="105.553551">
<ele>0.322743</ele>
<time>2011-04-29T08:22:50Z</time>
<desc>lat.=21.294062, lon.=105.553551, Alt.=0.322743m. Speed=37.835999m/h.</desc>
<speed>10.510000</speed>
</trkpt>
<trkpt lat="21.294397" lon="105.553940">
<ele>0.269314</ele>
<time>2011-04-29T08:22:55Z</time>
<desc>lat.=21.294397, lon.=105.553940, Alt.=0.269314m. Speed=41.004002m/h.</desc>
<speed>11.390000</speed>
</trkpt>
<trkpt lat="21.294758" lon="105.554352">
<ele>0.622948</ele>
<time>2011-04-29T08:23:00Z</time>
<desc>lat.=21.294758, lon.=105.554352, Alt.=0.622948m. Speed=43.919998m/h.</desc>
<speed>12.199999</speed>
</trkpt>
<trkpt lat="21.295118" lon="105.554787">
<ele>1.503556</ele>
<time>2011-04-29T08:23:05Z</time>
<desc>lat.=21.295118, lon.=105.554787, Alt.=1.503556m. Speed=42.551998m/h.</desc>
<speed>11.819999</speed>
</trkpt>
<trkpt lat="21.295456" lon="105.555183">
<ele>3.220369</ele>
<time>2011-04-29T08:23:10Z</time>
<desc>lat.=21.295456, lon.=105.555183, Alt.=3.220369m. Speed=38.916000m/h.</desc>
<speed>10.810000</speed>
</trkpt>
<trkpt lat="21.295805" lon="105.555588">
<ele>2.594881</ele>
<time>2011-04-29T08:23:15Z</time>
<desc>lat.=21.295805, lon.=105.555588, Alt.=2.594881m. Speed=40.391998m/h.</desc>
<speed>11.220000</speed>
</trkpt>
<trkpt lat="21.296154" lon="105.556000">
<ele>2.418550</ele>
<time>2011-04-29T08:23:20Z</time>
<desc>lat.=21.296154, lon.=105.556000, Alt.=2.418550m. Speed=42.372002m/h.</desc>
<speed>11.770000</speed>
</trkpt>
<trkpt lat="21.296509" lon="105.556412">
<ele>1.262345</ele>
<time>2011-04-29T08:23:25Z</time>
<desc>lat.=21.296509, lon.=105.556412, Alt.=1.262345m. Speed=41.543999m/h.</desc>
<speed>11.540000</speed>
</trkpt>
<trkpt lat="21.296873" lon="105.556862">
<ele>1.384690</ele>
<time>2011-04-29T08:23:30Z</time>
<desc>lat.=21.296873, lon.=105.556862, Alt.=1.384690m. Speed=41.616001m/h.</desc>
<speed>11.560000</speed>
</trkpt>
<trkpt lat="21.297226" lon="105.557274">
<ele>1.741654</ele>
<time>2011-04-29T08:23:35Z</time>
<desc>lat.=21.297226, lon.=105.557274, Alt.=1.741654m. Speed=42.840000m/h.</desc>
<speed>11.900000</speed>
</trkpt>
<trkpt lat="21.297611" lon="105.557701">
<ele>3.078524</ele>
<time>2011-04-29T08:23:40Z</time>
<desc>lat.=21.297611, lon.=105.557701, Alt.=3.078524m. Speed=44.495998m/h.</desc>
<speed>12.360000</speed>
</trkpt>
<trkpt lat="21.297987" lon="105.558128">
<ele>3.844881</ele>
<time>2011-04-29T08:23:45Z</time>
<desc>lat.=21.297987, lon.=105.558128, Alt.=3.844881m. Speed=43.271999m/h.</desc>
<speed>12.020000</speed>
</trkpt>
<trkpt lat="21.298334" lon="105.558533">
<ele>4.398136</ele>
<time>2011-04-29T08:23:50Z</time>
<desc>lat.=21.298334, lon.=105.558533, Alt.=4.398136m. Speed=43.236000m/h.</desc>
<speed>12.010000</speed>
</trkpt>
<trkpt lat="21.298573" lon="105.558846">
<ele>3.872957</ele>
<time>2011-04-29T08:23:55Z</time>
<desc>lat.=21.298573, lon.=105.558846, Alt.=3.872957m. Speed=23.327999m/h.</desc>
<speed>6.480000</speed>
</trkpt>
<trkpt lat="21.298794" lon="105.559044">
<ele>12.270638</ele>
<time>2011-04-29T08:24:00Z</time>
<desc>lat.=21.298794, lon.=105.559044, Alt.=12.270638m. Speed=18.576000m/h.</desc>
<speed>5.160000</speed>
</trkpt>
<trkpt lat="21.298941" lon="105.559204">
<ele>14.984749</ele>
<time>2011-04-29T08:24:05Z</time>
<desc>lat.=21.298941, lon.=105.559204, Alt.=14.984749m. Speed=13.032000m/h.</desc>
<speed>3.620000</speed>
</trkpt>
<trkpt lat="21.299046" lon="105.559288">
<ele>11.890755</ele>
<time>2011-04-29T08:24:10Z</time>
<desc>lat.=21.299046, lon.=105.559288, Alt.=11.890755m. Speed=8.820000m/h.</desc>
<speed>2.450000</speed>
</trkpt>
<trkpt lat="21.299076" lon="105.559364">
<ele>9.118782</ele>
<time>2011-04-29T08:24:15Z</time>
<desc>lat.=21.299076, lon.=105.559364, Alt.=9.118782m. Speed=3.708000m/h.</desc>
<speed>1.030000</speed>
</trkpt>
<trkpt lat="21.299091" lon="105.559433">
<ele>9.091438</ele>
<time>2011-04-29T08:24:20Z</time>
<desc>lat.=21.299091, lon.=105.559433, Alt.=9.091438m. Speed=5.292000m/h.</desc>
<speed>1.470000</speed>
</trkpt>
<trkpt lat="21.299196" lon="105.559563">
<ele>11.492073</ele>
<time>2011-04-29T08:24:25Z</time>
<desc>lat.=21.299196, lon.=105.559563, Alt.=11.492073m. Speed=14.184000m/h.</desc>
<speed>3.940000</speed>
</trkpt>
<trkpt lat="21.299368" lon="105.559776">
<ele>13.536018</ele>
<time>2011-04-29T08:24:30Z</time>
<desc>lat.=21.299368, lon.=105.559776, Alt.=13.536018m. Speed=22.643999m/h.</desc>
<speed>6.290000</speed>
</trkpt>
<trkpt lat="21.299513" lon="105.559982">
<ele>15.674446</ele>
<time>2011-04-29T08:24:35Z</time>
<desc>lat.=21.299513, lon.=105.559982, Alt.=15.674446m. Speed=17.784000m/h.</desc>
<speed>4.940000</speed>
</trkpt>
<trkpt lat="21.299696" lon="105.560188">
<ele>18.097916</ele>
<time>2011-04-29T08:24:40Z</time>
<desc>lat.=21.299696, lon.=105.560188, Alt.=18.097916m. Speed=23.507999m/h.</desc>
<speed>6.530000</speed>
</trkpt>
<trkpt lat="21.299976" lon="105.560532">
<ele>17.892838</ele>
<time>2011-04-29T08:24:45Z</time>
<desc>lat.=21.299976, lon.=105.560532, Alt.=17.892838m. Speed=31.212000m/h.</desc>
<speed>8.670000</speed>
</trkpt>
<trkpt lat="21.300222" lon="105.560837">
<ele>17.828873</ele>
<time>2011-04-29T08:24:50Z</time>
<desc>lat.=21.300222, lon.=105.560837, Alt.=17.828873m. Speed=22.896000m/h.</desc>
<speed>6.360000</speed>
</trkpt>
<trkpt lat="21.300383" lon="105.560989">
<ele>16.986099</ele>
<time>2011-04-29T08:24:55Z</time>
<desc>lat.=21.300383, lon.=105.560989, Alt.=16.986099m. Speed=9.288000m/h.</desc>
<speed>2.580000</speed>
</trkpt>
<trkpt lat="21.300474" lon="105.561096">
<ele>13.795296</ele>
<time>2011-04-29T08:25:00Z</time>
<desc>lat.=21.300474, lon.=105.561096, Alt.=13.795296m. Speed=15.336000m/h.</desc>
<speed>4.260000</speed>
</trkpt>
<trkpt lat="21.300640" lon="105.561287">
<ele>9.988411</ele>
<time>2011-04-29T08:25:05Z</time>
<desc>lat.=21.300640, lon.=105.561287, Alt.=9.988411m. Speed=22.068001m/h.</desc>
<speed>6.130000</speed>
</trkpt>
<trkpt lat="21.300867" lon="105.561562">
<ele>9.307503</ele>
<time>2011-04-29T08:25:10Z</time>
<desc>lat.=21.300867, lon.=105.561562, Alt.=9.307503m. Speed=29.375999m/h.</desc>
<speed>8.160000</speed>
</trkpt>
<trkpt lat="21.301128" lon="105.561882">
<ele>9.934456</ele>
<time>2011-04-29T08:25:15Z</time>
<desc>lat.=21.301128, lon.=105.561882, Alt.=9.934456m. Speed=31.680000m/h.</desc>
<speed>8.800000</speed>
</trkpt>
<trkpt lat="21.301447" lon="105.562256">
<ele>13.085823</ele>
<time>2011-04-29T08:25:20Z</time>
<desc>lat.=21.301447, lon.=105.562256, Alt.=13.085823m. Speed=37.835999m/h.</desc>
<speed>10.510000</speed>
</trkpt>
<trkpt lat="21.301752" lon="105.562653">
<ele>12.491096</ele>
<time>2011-04-29T08:25:25Z</time>
<desc>lat.=21.301752, lon.=105.562653, Alt.=12.491096m. Speed=37.223999m/h.</desc>
<speed>10.340000</speed>
</trkpt>
<trkpt lat="21.302055" lon="105.563042">
<ele>11.930550</ele>
<time>2011-04-29T08:25:30Z</time>
<desc>lat.=21.302055, lon.=105.563042, Alt.=11.930550m. Speed=38.088001m/h.</desc>
<speed>10.580000</speed>
</trkpt>
<trkpt lat="21.302374" lon="105.563469">
<ele>11.858528</ele>
<time>2011-04-29T08:25:35Z</time>
<desc>lat.=21.302374, lon.=105.563469, Alt.=11.858528m. Speed=41.147999m/h.</desc>
<speed>11.430000</speed>
</trkpt>
<trkpt lat="21.302677" lon="105.563904">
<ele>11.185921</ele>
<time>2011-04-29T08:25:40Z</time>
<desc>lat.=21.302677, lon.=105.563904, Alt.=11.185921m. Speed=38.807999m/h.</desc>
<speed>10.780000</speed>
</trkpt>
<trkpt lat="21.302942" lon="105.564262">
<ele>11.553596</ele>
<time>2011-04-29T08:25:45Z</time>
<desc>lat.=21.302942, lon.=105.564262, Alt.=11.553596m. Speed=32.507999m/h.</desc>
<speed>9.030000</speed>
</trkpt>
<trkpt lat="21.303185" lon="105.564651">
<ele>10.221321</ele>
<time>2011-04-29T08:25:50Z</time>
<desc>lat.=21.303185, lon.=105.564651, Alt.=10.221321m. Speed=36.900002m/h.</desc>
<speed>10.250000</speed>
</trkpt>
<trkpt lat="21.303480" lon="105.565033">
<ele>9.240120</ele>
<time>2011-04-29T08:25:55Z</time>
<desc>lat.=21.303480, lon.=105.565033, Alt.=9.240120m. Speed=34.271999m/h.</desc>
<speed>9.520000</speed>
</trkpt>
<trkpt lat="21.303745" lon="105.565430">
<ele>8.682259</ele>
<time>2011-04-29T08:26:00Z</time>
<desc>lat.=21.303745, lon.=105.565430, Alt.=8.682259m. Speed=36.467999m/h.</desc>
<speed>10.130000</speed>
</trkpt>
<trkpt lat="21.304062" lon="105.565857">
<ele>10.000130</ele>
<time>2011-04-29T08:26:05Z</time>
<desc>lat.=21.304062, lon.=105.565857, Alt.=10.000130m. Speed=41.652000m/h.</desc>
<speed>11.570000</speed>
</trkpt>
<trkpt lat="21.304390" lon="105.566292">
<ele>9.843391</ele>
<time>2011-04-29T08:26:10Z</time>
<desc>lat.=21.304390, lon.=105.566292, Alt.=9.843391m. Speed=42.840000m/h.</desc>
<speed>11.900000</speed>
</trkpt>
<trkpt lat="21.304688" lon="105.566765">
<ele>7.694767</ele>
<time>2011-04-29T08:26:15Z</time>
<desc>lat.=21.304688, lon.=105.566765, Alt.=7.694767m. Speed=43.056000m/h.</desc>
<speed>11.960000</speed>
</trkpt>
<trkpt lat="21.304924" lon="105.567230">
<ele>5.079044</ele>
<time>2011-04-29T08:26:20Z</time>
<desc>lat.=21.304924, lon.=105.567230, Alt.=5.079044m. Speed=39.023998m/h.</desc>
<speed>10.840000</speed>
</trkpt>
<trkpt lat="21.305145" lon="105.567719">
<ele>5.906559</ele>
<time>2011-04-29T08:26:25Z</time>
<desc>lat.=21.305145, lon.=105.567719, Alt.=5.906559m. Speed=41.436001m/h.</desc>
<speed>11.510000</speed>
</trkpt>
<trkpt lat="21.305342" lon="105.568268">
<ele>4.742130</ele>
<time>2011-04-29T08:26:30Z</time>
<desc>lat.=21.305342, lon.=105.568268, Alt.=4.742130m. Speed=42.948002m/h.</desc>
<speed>11.930001</speed>
</trkpt>
<trkpt lat="21.305574" lon="105.568825">
<ele>5.060612</ele>
<time>2011-04-29T08:26:35Z</time>
<desc>lat.=21.305574, lon.=105.568825, Alt.=5.060612m. Speed=47.015999m/h.</desc>
<speed>13.060000</speed>
</trkpt>
<trkpt lat="21.305784" lon="105.569412">
<ele>7.728580</ele>
<time>2011-04-29T08:26:40Z</time>
<desc>lat.=21.305784, lon.=105.569412, Alt.=7.728580m. Speed=44.243999m/h.</desc>
<speed>12.290000</speed>
</trkpt>
<trkpt lat="21.305946" lon="105.569954">
<ele>9.637581</ele>
<time>2011-04-29T08:26:45Z</time>
<desc>lat.=21.305946, lon.=105.569954, Alt.=9.637581m. Speed=41.292000m/h.</desc>
<speed>11.470000</speed>
</trkpt>
<trkpt lat="21.306042" lon="105.570473">
<ele>10.668343</ele>
<time>2011-04-29T08:26:50Z</time>
<desc>lat.=21.306042, lon.=105.570473, Alt.=10.668343m. Speed=40.391998m/h.</desc>
<speed>11.220000</speed>
</trkpt>
<trkpt lat="21.306082" lon="105.571037">
<ele>13.275032</ele>
<time>2011-04-29T08:26:55Z</time>
<desc>lat.=21.306082, lon.=105.571037, Alt.=13.275032m. Speed=38.771999m/h.</desc>
<speed>10.770000</speed>
</trkpt>
<trkpt lat="21.306072" lon="105.571556">
<ele>17.823502</ele>
<time>2011-04-29T08:27:00Z</time>
<desc>lat.=21.306072, lon.=105.571556, Alt.=17.823502m. Speed=38.231998m/h.</desc>
<speed>10.620000</speed>
</trkpt>
<trkpt lat="21.306099" lon="105.572083">
<ele>23.519791</ele>
<time>2011-04-29T08:27:05Z</time>
<desc>lat.=21.306099, lon.=105.572083, Alt.=23.519791m. Speed=37.692001m/h.</desc>
<speed>10.470000</speed>
</trkpt>
<trkpt lat="21.306107" lon="105.572556">
<ele>26.284439</ele>
<time>2011-04-29T08:27:10Z</time>
<desc>lat.=21.306107, lon.=105.572556, Alt.=26.284439m. Speed=31.068001m/h.</desc>
<speed>8.630000</speed>
</trkpt>
<trkpt lat="21.306112" lon="105.573006">
<ele>22.895767</ele>
<time>2011-04-29T08:27:15Z</time>
<desc>lat.=21.306112, lon.=105.573006, Alt.=22.895767m. Speed=36.936001m/h.</desc>
<speed>10.260000</speed>
</trkpt>
<trkpt lat="21.306101" lon="105.573441">
<ele>20.762955</ele>
<time>2011-04-29T08:27:20Z</time>
<desc>lat.=21.306101, lon.=105.573441, Alt.=20.762955m. Speed=28.440001m/h.</desc>
<speed>7.900000</speed>
</trkpt>
<trkpt lat="21.306103" lon="105.573822">
<ele>21.303482</ele>
<time>2011-04-29T08:27:25Z</time>
<desc>lat.=21.306103, lon.=105.573822, Alt.=21.303482m. Speed=31.680000m/h.</desc>
<speed>8.800000</speed>
</trkpt>
<trkpt lat="21.306124" lon="105.574272">
<ele>19.459244</ele>
<time>2011-04-29T08:27:30Z</time>
<desc>lat.=21.306124, lon.=105.574272, Alt.=19.459244m. Speed=32.040001m/h.</desc>
<speed>8.900000</speed>
</trkpt>
<trkpt lat="21.306171" lon="105.574768">
<ele>15.860237</ele>
<time>2011-04-29T08:27:35Z</time>
<desc>lat.=21.306171, lon.=105.574768, Alt.=15.860237m. Speed=37.296001m/h.</desc>
<speed>10.360000</speed>
</trkpt>
<trkpt lat="21.306234" lon="105.575226">
<ele>11.065559</ele>
<time>2011-04-29T08:27:40Z</time>
<desc>lat.=21.306234, lon.=105.575226, Alt.=11.065559m. Speed=33.264000m/h.</desc>
<speed>9.240000</speed>
</trkpt>
<trkpt lat="21.306316" lon="105.575577">
<ele>6.885075</ele>
<time>2011-04-29T08:27:45Z</time>
<desc>lat.=21.306316, lon.=105.575577, Alt.=6.885075m. Speed=22.608000m/h.</desc>
<speed>6.280000</speed>
</trkpt>
<trkpt lat="21.306364" lon="105.575912">
<ele>2.767672</ele>
<time>2011-04-29T08:27:50Z</time>
<desc>lat.=21.306364, lon.=105.575912, Alt.=2.767672m. Speed=27.612000m/h.</desc>
<speed>7.670000</speed>
</trkpt>
<trkpt lat="21.306414" lon="105.576309">
<ele>0.495907</ele>
<time>2011-04-29T08:27:55Z</time>
<desc>lat.=21.306414, lon.=105.576309, Alt.=0.495907m. Speed=27.612000m/h.</desc>
<speed>7.670000</speed>
</trkpt>
<trkpt lat="21.306467" lon="105.576645">
<ele>0.084403</ele>
<time>2011-04-29T08:28:00Z</time>
<desc>lat.=21.306467, lon.=105.576645, Alt.=0.084403m. Speed=24.660000m/h.</desc>
<speed>6.850000</speed>
</trkpt>
<trkpt lat="21.306532" lon="105.577034">
<ele>2.474520</ele>
<time>2011-04-29T08:28:05Z</time>
<desc>lat.=21.306532, lon.=105.577034, Alt.=2.474520m. Speed=34.740002m/h.</desc>
<speed>9.650000</speed>
</trkpt>
<trkpt lat="21.306599" lon="105.577553">
<ele>1.470048</ele>
<time>2011-04-29T08:28:10Z</time>
<desc>lat.=21.306599, lon.=105.577553, Alt.=1.470048m. Speed=37.872002m/h.</desc>
<speed>10.520000</speed>
</trkpt>
<trkpt lat="21.306684" lon="105.578041">
<ele>2.238070</ele>
<time>2011-04-29T08:28:15Z</time>
<desc>lat.=21.306684, lon.=105.578041, Alt.=2.238070m. Speed=36.216000m/h.</desc>
<speed>10.060000</speed>
</trkpt>
<trkpt lat="21.306751" lon="105.578514">
<ele>1.729875</ele>
<time>2011-04-29T08:28:20Z</time>
<desc>lat.=21.306751, lon.=105.578514, Alt.=1.729875m. Speed=34.632000m/h.</desc>
<speed>9.620000</speed>
</trkpt>
<trkpt lat="21.306822" lon="105.579018">
<ele>4.276798</ele>
<time>2011-04-29T08:28:25Z</time>
<desc>lat.=21.306822, lon.=105.579018, Alt.=4.276798m. Speed=39.959999m/h.</desc>
<speed>11.100000</speed>
</trkpt>
<trkpt lat="21.306894" lon="105.579552">
<ele>7.306705</ele>
<time>2011-04-29T08:28:30Z</time>
<desc>lat.=21.306894, lon.=105.579552, Alt.=7.306705m. Speed=41.004002m/h.</desc>
<speed>11.390000</speed>
</trkpt>
<trkpt lat="21.306999" lon="105.580101">
<ele>10.514778</ele>
<time>2011-04-29T08:28:35Z</time>
<desc>lat.=21.306999, lon.=105.580101, Alt.=10.514778m. Speed=42.264000m/h.</desc>
<speed>11.740000</speed>
</trkpt>
<trkpt lat="21.307079" lon="105.580650">
<ele>12.786507</ele>
<time>2011-04-29T08:28:40Z</time>
<desc>lat.=21.307079, lon.=105.580650, Alt.=12.786507m. Speed=40.860001m/h.</desc>
<speed>11.350000</speed>
</trkpt>
<trkpt lat="21.307177" lon="105.581161">
<ele>13.681526</ele>
<time>2011-04-29T08:28:45Z</time>
<desc>lat.=21.307177, lon.=105.581161, Alt.=13.681526m. Speed=37.476002m/h.</desc>
<speed>10.410000</speed>
</trkpt>
<trkpt lat="21.307249" lon="105.581665">
<ele>15.084358</ele>
<time>2011-04-29T08:28:50Z</time>
<desc>lat.=21.307249, lon.=105.581665, Alt.=15.084358m. Speed=33.695999m/h.</desc>
<speed>9.360000</speed>
</trkpt>
<trkpt lat="21.307320" lon="105.582069">
<ele>15.246468</ele>
<time>2011-04-29T08:28:55Z</time>
<desc>lat.=21.307320, lon.=105.582069, Alt.=15.246468m. Speed=28.007999m/h.</desc>
<speed>7.780000</speed>
</trkpt>
<trkpt lat="21.307392" lon="105.582382">
<ele>13.603401</ele>
<time>2011-04-29T08:29:00Z</time>
<desc>lat.=21.307392, lon.=105.582382, Alt.=13.603401m. Speed=19.799999m/h.</desc>
<speed>5.500000</speed>
</trkpt>
<trkpt lat="21.307423" lon="105.582626">
<ele>10.258186</ele>
<time>2011-04-29T08:29:05Z</time>
<desc>lat.=21.307423, lon.=105.582626, Alt.=10.258186m. Speed=13.608000m/h.</desc>
<speed>3.780000</speed>
</trkpt>
<trkpt lat="21.307455" lon="105.582840">
<ele>8.730110</ele>
<time>2011-04-29T08:29:10Z</time>
<desc>lat.=21.307455, lon.=105.582840, Alt.=8.730110m. Speed=15.732000m/h.</desc>
<speed>4.370000</speed>
</trkpt>
<trkpt lat="21.307478" lon="105.583069">
<ele>8.039925</ele>
<time>2011-04-29T08:29:15Z</time>
<desc>lat.=21.307478, lon.=105.583069, Alt.=8.039925m. Speed=13.860000m/h.</desc>
<speed>3.850000</speed>
</trkpt>
<trkpt lat="21.307518" lon="105.583321">
<ele>9.775276</ele>
<time>2011-04-29T08:29:20Z</time>
<desc>lat.=21.307518, lon.=105.583321, Alt.=9.775276m. Speed=21.275999m/h.</desc>
<speed>5.910000</speed>
</trkpt>
<trkpt lat="21.307554" lon="105.583649">
<ele>14.084602</ele>
<time>2011-04-29T08:29:25Z</time>
<desc>lat.=21.307554, lon.=105.583649, Alt.=14.084602m. Speed=26.136000m/h.</desc>
<speed>7.260000</speed>
</trkpt>
<trkpt lat="21.307600" lon="105.584038">
<ele>19.101822</ele>
<time>2011-04-29T08:29:30Z</time>
<desc>lat.=21.307600, lon.=105.584038, Alt.=19.101822m. Speed=28.944000m/h.</desc>
<speed>8.040000</speed>
</trkpt>
<trkpt lat="21.307667" lon="105.584465">
<ele>23.602310</ele>
<time>2011-04-29T08:29:35Z</time>
<desc>lat.=21.307667, lon.=105.584465, Alt.=23.602310m. Speed=29.628000m/h.</desc>
<speed>8.230000</speed>
</trkpt>
<trkpt lat="21.307762" lon="105.584877">
<ele>25.312271</ele>
<time>2011-04-29T08:29:40Z</time>
<desc>lat.=21.307762, lon.=105.584877, Alt.=25.312271m. Speed=31.968000m/h.</desc>
<speed>8.880000</speed>
</trkpt>
<trkpt lat="21.307854" lon="105.585312">
<ele>25.701920</ele>
<time>2011-04-29T08:29:45Z</time>
<desc>lat.=21.307854, lon.=105.585312, Alt.=25.701920m. Speed=31.176001m/h.</desc>
<speed>8.660000</speed>
</trkpt>
<trkpt lat="21.307907" lon="105.585785">
<ele>29.613052</ele>
<time>2011-04-29T08:29:50Z</time>
<desc>lat.=21.307907, lon.=105.585785, Alt.=29.613052m. Speed=32.723999m/h.</desc>
<speed>9.090000</speed>
</trkpt>
<trkpt lat="21.308044" lon="105.586227">
<ele>31.504654</ele>
<time>2011-04-29T08:29:55Z</time>
<desc>lat.=21.308044, lon.=105.586227, Alt.=31.504654m. Speed=33.515999m/h.</desc>
<speed>9.310000</speed>
</trkpt>
<trkpt lat="21.308266" lon="105.586525">
<ele>29.211685</ele>
<time>2011-04-29T08:30:00Z</time>
<desc>lat.=21.308266, lon.=105.586525, Alt.=29.211685m. Speed=23.364000m/h.</desc>
<speed>6.490000</speed>
</trkpt>
<trkpt lat="21.308514" lon="105.586761">
<ele>24.018814</ele>
<time>2011-04-29T08:30:05Z</time>
<desc>lat.=21.308514, lon.=105.586761, Alt.=24.018814m. Speed=29.087999m/h.</desc>
<speed>8.080000</speed>
</trkpt>
<trkpt lat="21.308777" lon="105.587105">
<ele>23.051529</ele>
<time>2011-04-29T08:30:10Z</time>
<desc>lat.=21.308777, lon.=105.587105, Alt.=23.051529m. Speed=35.172001m/h.</desc>
<speed>9.770000</speed>
</trkpt>
<trkpt lat="21.308849" lon="105.587563">
<ele>24.508072</ele>
<time>2011-04-29T08:30:15Z</time>
<desc>lat.=21.308849, lon.=105.587563, Alt.=24.508072m. Speed=34.200001m/h.</desc>
<speed>9.500000</speed>
</trkpt>
<trkpt lat="21.308870" lon="105.588005">
<ele>22.036880</ele>
<time>2011-04-29T08:30:20Z</time>
<desc>lat.=21.308870, lon.=105.588005, Alt.=22.036880m. Speed=30.492001m/h.</desc>
<speed>8.470000</speed>
</trkpt>
<trkpt lat="21.308926" lon="105.588409">
<ele>21.710709</ele>
<time>2011-04-29T08:30:25Z</time>
<desc>lat.=21.308926, lon.=105.588409, Alt.=21.710709m. Speed=28.620001m/h.</desc>
<speed>7.950000</speed>
</trkpt>
<trkpt lat="21.308954" lon="105.588829">
<ele>24.239517</ele>
<time>2011-04-29T08:30:30Z</time>
<desc>lat.=21.308954, lon.=105.588829, Alt.=24.239517m. Speed=29.087999m/h.</desc>
<speed>8.080000</speed>
</trkpt>
<trkpt lat="21.308922" lon="105.589249">
<ele>22.592545</ele>
<time>2011-04-29T08:30:35Z</time>
<desc>lat.=21.308922, lon.=105.589249, Alt.=22.592545m. Speed=33.660000m/h.</desc>
<speed>9.350000</speed>
</trkpt>
<trkpt lat="21.308882" lon="105.589722">
<ele>19.293228</ele>
<time>2011-04-29T08:30:40Z</time>
<desc>lat.=21.308882, lon.=105.589722, Alt.=19.293228m. Speed=35.388000m/h.</desc>
<speed>9.830000</speed>
</trkpt>
<trkpt lat="21.308844" lon="105.590218">
<ele>14.638313</ele>
<time>2011-04-29T08:30:45Z</time>
<desc>lat.=21.308844, lon.=105.590218, Alt.=14.638313m. Speed=36.180000m/h.</desc>
<speed>10.050000</speed>
</trkpt>
<trkpt lat="21.308794" lon="105.590721">
<ele>10.369270</ele>
<time>2011-04-29T08:30:50Z</time>
<desc>lat.=21.308794, lon.=105.590721, Alt.=10.369270m. Speed=34.703999m/h.</desc>
<speed>9.640000</speed>
</trkpt>
<trkpt lat="21.308744" lon="105.591187">
<ele>5.758732</ele>
<time>2011-04-29T08:30:55Z</time>
<desc>lat.=21.308744, lon.=105.591187, Alt.=5.758732m. Speed=33.264000m/h.</desc>
<speed>9.240000</speed>
</trkpt>
<trkpt lat="21.308735" lon="105.591606">
<ele>2.234957</ele>
<time>2011-04-29T08:31:00Z</time>
<desc>lat.=21.308735, lon.=105.591606, Alt.=2.234957m. Speed=30.600000m/h.</desc>
<speed>8.500000</speed>
</trkpt>
<trkpt lat="21.308710" lon="105.591988">
<ele>2.001070</ele>
<time>2011-04-29T08:31:05Z</time>
<desc>lat.=21.308710, lon.=105.591988, Alt.=2.001070m. Speed=26.136000m/h.</desc>
<speed>7.260000</speed>
</trkpt>
<trkpt lat="21.308613" lon="105.592323">
<ele>5.592960</ele>
<time>2011-04-29T08:31:10Z</time>
<desc>lat.=21.308613, lon.=105.592323, Alt.=5.592960m. Speed=26.063999m/h.</desc>
<speed>7.240000</speed>
</trkpt>
<trkpt lat="21.308468" lon="105.592644">
<ele>4.390812</ele>
<time>2011-04-29T08:31:15Z</time>
<desc>lat.=21.308468, lon.=105.592644, Alt.=4.390812m. Speed=26.280001m/h.</desc>
<speed>7.300000</speed>
</trkpt>
<trkpt lat="21.308325" lon="105.592972">
<ele>5.575138</ele>
<time>2011-04-29T08:31:20Z</time>
<desc>lat.=21.308325, lon.=105.592972, Alt.=5.575138m. Speed=27.035999m/h.</desc>
<speed>7.510000</speed>
</trkpt>
<trkpt lat="21.308199" lon="105.593285">
<ele>5.288639</ele>
<time>2011-04-29T08:31:25Z</time>
<desc>lat.=21.308199, lon.=105.593285, Alt.=5.288639m. Speed=22.032000m/h.</desc>
<speed>6.120000</speed>
</trkpt>
<trkpt lat="21.308174" lon="105.593582">
<ele>3.108553</ele>
<time>2011-04-29T08:31:30Z</time>
<desc>lat.=21.308174, lon.=105.593582, Alt.=3.108553m. Speed=22.608000m/h.</desc>
<speed>6.280000</speed>
</trkpt>
<trkpt lat="21.308348" lon="105.593765">
<ele>1.407884</ele>
<time>2011-04-29T08:31:35Z</time>
<desc>lat.=21.308348, lon.=105.593765, Alt.=1.407884m. Speed=15.984000m/h.</desc>
<speed>4.440000</speed>
</trkpt>
<trkpt lat="21.308506" lon="105.593781">
<ele>1.589982</ele>
<time>2011-04-29T08:31:40Z</time>
<desc>lat.=21.308506, lon.=105.593781, Alt.=1.589982m. Speed=14.688000m/h.</desc>
<speed>4.080000</speed>
</trkpt>
<trkpt lat="21.308784" lon="105.593826">
<ele>-2.268221</ele>
<time>2011-04-29T08:31:45Z</time>
<desc>lat.=21.308784, lon.=105.593826, Alt.=-2.268221m. Speed=20.700001m/h.</desc>
<speed>5.750000</speed>
</trkpt>
<trkpt lat="21.309072" lon="105.593979">
<ele>-1.316941</ele>
<time>2011-04-29T08:31:50Z</time>
<desc>lat.=21.309072, lon.=105.593979, Alt.=-1.316941m. Speed=25.236000m/h.</desc>
<speed>7.010000</speed>
</trkpt>
<trkpt lat="21.309408" lon="105.594193">
<ele>0.351391</ele>
<time>2011-04-29T08:31:55Z</time>
<desc>lat.=21.309408, lon.=105.594193, Alt.=0.351391m. Speed=30.059999m/h.</desc>
<speed>8.350000</speed>
</trkpt>
<trkpt lat="21.309780" lon="105.594406">
<ele>-0.168280</ele>
<time>2011-04-29T08:32:00Z</time>
<desc>lat.=21.309780, lon.=105.594406, Alt.=-0.168280m. Speed=33.155998m/h.</desc>
<speed>9.210000</speed>
</trkpt>
<trkpt lat="21.310116" lon="105.594612">
<ele>-0.258724</ele>
<time>2011-04-29T08:32:05Z</time>
<desc>lat.=21.310116, lon.=105.594612, Alt.=-0.258724m. Speed=31.680000m/h.</desc>
<speed>8.800000</speed>
</trkpt>
<trkpt lat="21.310438" lon="105.594803">
<ele>-0.640740</ele>
<time>2011-04-29T08:32:10Z</time>
<desc>lat.=21.310438, lon.=105.594803, Alt.=-0.640740m. Speed=27.827999m/h.</desc>
<speed>7.730000</speed>
</trkpt>
<trkpt lat="21.310774" lon="105.594994">
<ele>-0.771920</ele>
<time>2011-04-29T08:32:15Z</time>
<desc>lat.=21.310774, lon.=105.594994, Alt.=-0.771920m. Speed=29.232000m/h.</desc>
<speed>8.120000</speed>
</trkpt>
<trkpt lat="21.311102" lon="105.595184">
<ele>-1.336686</ele>
<time>2011-04-29T08:32:20Z</time>
<desc>lat.=21.311102, lon.=105.595184, Alt.=-1.336686m. Speed=24.948000m/h.</desc>
<speed>6.930000</speed>
</trkpt>
<trkpt lat="21.311348" lon="105.595367">
<ele>-2.026644</ele>
<time>2011-04-29T08:32:25Z</time>
<desc>lat.=21.311348, lon.=105.595367, Alt.=-2.026644m. Speed=24.732000m/h.</desc>
<speed>6.870000</speed>
</trkpt>
<trkpt lat="21.311617" lon="105.595535">
<ele>-2.939730</ele>
<time>2011-04-29T08:32:30Z</time>
<desc>lat.=21.311617, lon.=105.595535, Alt.=-2.939730m. Speed=25.379999m/h.</desc>
<speed>7.050000</speed>
</trkpt>
<trkpt lat="21.311880" lon="105.595688">
<ele>-1.622575</ele>
<time>2011-04-29T08:32:35Z</time>
<desc>lat.=21.311880, lon.=105.595688, Alt.=-1.622575m. Speed=23.219999m/h.</desc>
<speed>6.450000</speed>
</trkpt>
<trkpt lat="21.312105" lon="105.595833">
<ele>0.156851</ele>
<time>2011-04-29T08:32:40Z</time>
<desc>lat.=21.312105, lon.=105.595833, Alt.=0.156851m. Speed=18.972000m/h.</desc>
<speed>5.270000</speed>
</trkpt>
<trkpt lat="21.312296" lon="105.595947">
<ele>-0.153631</ele>
<time>2011-04-29T08:32:45Z</time>
<desc>lat.=21.312296, lon.=105.595947, Alt.=-0.153631m. Speed=15.552000m/h.</desc>
<speed>4.320000</speed>
</trkpt>
<trkpt lat="21.312447" lon="105.596046">
<ele>-1.225358</ele>
<time>2011-04-29T08:32:50Z</time>
<desc>lat.=21.312447, lon.=105.596046, Alt.=-1.225358m. Speed=15.624000m/h.</desc>
<speed>4.340000</speed>
</trkpt>
<trkpt lat="21.312597" lon="105.596153">
<ele>0.108249</ele>
<time>2011-04-29T08:32:55Z</time>
<desc>lat.=21.312597, lon.=105.596153, Alt.=0.108249m. Speed=15.480000m/h.</desc>
<speed>4.300000</speed>
</trkpt>
<trkpt lat="21.312752" lon="105.596260">
<ele>-0.713204</ele>
<time>2011-04-29T08:33:00Z</time>
<desc>lat.=21.312752, lon.=105.596260, Alt.=-0.713204m. Speed=17.316000m/h.</desc>
<speed>4.810000</speed>
</trkpt>
<trkpt lat="21.312943" lon="105.596390">
<ele>2.953463</ele>
<time>2011-04-29T08:33:05Z</time>
<desc>lat.=21.312943, lon.=105.596390, Alt.=2.953463m. Speed=18.612000m/h.</desc>
<speed>5.170000</speed>
</trkpt>
<trkpt lat="21.313131" lon="105.596596">
<ele>4.269596</ele>
<time>2011-04-29T08:33:10Z</time>
<desc>lat.=21.313131, lon.=105.596596, Alt.=4.269596m. Speed=19.296000m/h.</desc>
<speed>5.360000</speed>
</trkpt>
<trkpt lat="21.313255" lon="105.596817">
<ele>3.187960</ele>
<time>2011-04-29T08:33:15Z</time>
<desc>lat.=21.313255, lon.=105.596817, Alt.=3.187960m. Speed=20.124001m/h.</desc>
<speed>5.590000</speed>
</trkpt>
<trkpt lat="21.313326" lon="105.597038">
<ele>5.388248</ele>
<time>2011-04-29T08:33:20Z</time>
<desc>lat.=21.313326, lon.=105.597038, Alt.=5.388248m. Speed=11.196000m/h.</desc>
<speed>3.110000</speed>
</trkpt>
<trkpt lat="21.313345" lon="105.597122">
<ele>7.771915</ele>
<time>2011-04-29T08:33:25Z</time>
<desc>lat.=21.313345, lon.=105.597122, Alt.=7.771915m. Speed=2.952000m/h.</desc>
<speed>0.820000</speed>
</trkpt>
<trkpt lat="21.313362" lon="105.597153">
<ele>8.981575</ele>
<time>2011-04-29T08:33:30Z</time>
<desc>lat.=21.313362, lon.=105.597153, Alt.=8.981575m. Speed=1.620000m/h.</desc>
<speed>0.450000</speed>
</trkpt>
<trkpt lat="21.313374" lon="105.597191">
<ele>9.528694</ele>
<time>2011-04-29T08:33:35Z</time>
<desc>lat.=21.313374, lon.=105.597191, Alt.=9.528694m. Speed=4.392000m/h.</desc>
<speed>1.220000</speed>
</trkpt>
<trkpt lat="21.313404" lon="105.597282">
<ele>9.146858</ele>
<time>2011-04-29T08:33:40Z</time>
<desc>lat.=21.313404, lon.=105.597282, Alt.=9.146858m. Speed=8.064000m/h.</desc>
<speed>2.240000</speed>
</trkpt>
<trkpt lat="21.313395" lon="105.597412">
<ele>9.228157</ele>
<time>2011-04-29T08:33:45Z</time>
<desc>lat.=21.313395, lon.=105.597412, Alt.=9.228157m. Speed=10.728000m/h.</desc>
<speed>2.980000</speed>
</trkpt>
<trkpt lat="21.313391" lon="105.597527">
<ele>6.597965</ele>
<time>2011-04-29T08:33:50Z</time>
<desc>lat.=21.313391, lon.=105.597527, Alt.=6.597965m. Speed=6.984000m/h.</desc>
<speed>1.940000</speed>
</trkpt>
<trkpt lat="21.313406" lon="105.597656">
<ele>8.338264</ele>
<time>2011-04-29T08:33:55Z</time>
<desc>lat.=21.313406, lon.=105.597656, Alt.=8.338264m. Speed=15.156000m/h.</desc>
<speed>4.210000</speed>
</trkpt>
<trkpt lat="21.313417" lon="105.597916">
<ele>10.335579</ele>
<time>2011-04-29T08:34:00Z</time>
<desc>lat.=21.313417, lon.=105.597916, Alt.=10.335579m. Speed=19.044001m/h.</desc>
<speed>5.290000</speed>
</trkpt>
<trkpt lat="21.313438" lon="105.598244">
<ele>11.972542</ele>
<time>2011-04-29T08:34:05Z</time>
<desc>lat.=21.313438, lon.=105.598244, Alt.=11.972542m. Speed=26.100000m/h.</desc>
<speed>7.250000</speed>
</trkpt>
<trkpt lat="21.313461" lon="105.598640">
<ele>14.849495</ele>
<time>2011-04-29T08:34:10Z</time>
<desc>lat.=21.313461, lon.=105.598640, Alt.=14.849495m. Speed=28.476000m/h.</desc>
<speed>7.910000</speed>
</trkpt>
<trkpt lat="21.313488" lon="105.599007">
<ele>17.045670</ele>
<time>2011-04-29T08:34:15Z</time>
<desc>lat.=21.313488, lon.=105.599007, Alt.=17.045670m. Speed=21.384001m/h.</desc>
<speed>5.940000</speed>
</trkpt>
<trkpt lat="21.313528" lon="105.599266">
<ele>20.604752</ele>
<time>2011-04-29T08:34:20Z</time>
<desc>lat.=21.313528, lon.=105.599266, Alt.=20.604752m. Speed=23.652000m/h.</desc>
<speed>6.570000</speed>
</trkpt>
<trkpt lat="21.313576" lon="105.599594">
<ele>20.763443</ele>
<time>2011-04-29T08:34:25Z</time>
<desc>lat.=21.313576, lon.=105.599594, Alt.=20.763443m. Speed=23.364000m/h.</desc>
<speed>6.490000</speed>
</trkpt>
<trkpt lat="21.313606" lon="105.599800">
<ele>18.615494</ele>
<time>2011-04-29T08:34:30Z</time>
<desc>lat.=21.313606, lon.=105.599800, Alt.=18.615494m. Speed=7.632000m/h.</desc>
<speed>2.120000</speed>
</trkpt>
<trkpt lat="21.313627" lon="105.599838">
<ele>19.814713</ele>
<time>2011-04-29T08:34:35Z</time>
<desc>lat.=21.313627, lon.=105.599838, Alt.=19.814713m. Speed=0.144000m/h.</desc>
<speed>0.040000</speed>
</trkpt>
<trkpt lat="21.313627" lon="105.599854">
<ele>20.271744</ele>
<time>2011-04-29T08:34:40Z</time>
<desc>lat.=21.313627, lon.=105.599854, Alt.=20.271744m. Speed=0.756000m/h.</desc>
<speed>0.210000</speed>
</trkpt>
<trkpt lat="21.313623" lon="105.599854">
<ele>20.463150</ele>
<time>2011-04-29T08:34:45Z</time>
<desc>lat.=21.313623, lon.=105.599854, Alt.=20.463150m. Speed=0.252000m/h.</desc>
<speed>0.070000</speed>
</trkpt>
<trkpt lat="21.313622" lon="105.599854">
<ele>20.528580</ele>
<time>2011-04-29T08:34:50Z</time>
<desc>lat.=21.313622, lon.=105.599854, Alt.=20.528580m. Speed=0.216000m/h.</desc>
<speed>0.060000</speed>
</trkpt>
<trkpt lat="21.313623" lon="105.599869">
<ele>20.638931</ele>
<time>2011-04-29T08:34:55Z</time>
<desc>lat.=21.313623, lon.=105.599869, Alt.=20.638931m. Speed=3.132000m/h.</desc>
<speed>0.870000</speed>
</trkpt>
<trkpt lat="21.313654" lon="105.600014">
<ele>21.656998</ele>
<time>2011-04-29T08:35:00Z</time>
<desc>lat.=21.313654, lon.=105.600014, Alt.=21.656998m. Speed=6.768000m/h.</desc>
<speed>1.880000</speed>
</trkpt>
<trkpt lat="21.313700" lon="105.600159">
<ele>22.615005</ele>
<time>2011-04-29T08:35:05Z</time>
<desc>lat.=21.313700, lon.=105.600159, Alt.=22.615005m. Speed=12.852000m/h.</desc>
<speed>3.570000</speed>
</trkpt>
<trkpt lat="21.313761" lon="105.600372">
<ele>21.345963</ele>
<time>2011-04-29T08:35:10Z</time>
<desc>lat.=21.313761, lon.=105.600372, Alt.=21.345963m. Speed=18.396000m/h.</desc>
<speed>5.110000</speed>
</trkpt>
<trkpt lat="21.313843" lon="105.600700">
<ele>21.250259</ele>
<time>2011-04-29T08:35:15Z</time>
<desc>lat.=21.313843, lon.=105.600700, Alt.=21.250259m. Speed=26.280001m/h.</desc>
<speed>7.300000</speed>
</trkpt>
<trkpt lat="21.313906" lon="105.601143">
<ele>19.574478</ele>
<time>2011-04-29T08:35:20Z</time>
<desc>lat.=21.313906, lon.=105.601143, Alt.=19.574478m. Speed=30.563999m/h.</desc>
<speed>8.490000</speed>
</trkpt>
<trkpt lat="21.313974" lon="105.601624">
<ele>19.064224</ele>
<time>2011-04-29T08:35:25Z</time>
<desc>lat.=21.313974, lon.=105.601624, Alt.=19.064224m. Speed=31.752001m/h.</desc>
<speed>8.820000</speed>
</trkpt>
<trkpt lat="21.314035" lon="105.602028">
<ele>18.539810</ele>
<time>2011-04-29T08:35:30Z</time>
<desc>lat.=21.314035, lon.=105.602028, Alt.=18.539810m. Speed=26.747999m/h.</desc>
<speed>7.430000</speed>
</trkpt>
<trkpt lat="21.314045" lon="105.602509">
<ele>17.928970</ele>
<time>2011-04-29T08:35:35Z</time>
<desc>lat.=21.314045, lon.=105.602509, Alt.=17.928970m. Speed=35.712002m/h.</desc>
<speed>9.920001</speed>
</trkpt>
<trkpt lat="21.314119" lon="105.603012">
<ele>17.343033</ele>
<time>2011-04-29T08:35:40Z</time>
<desc>lat.=21.314119, lon.=105.603012, Alt.=17.343033m. Speed=36.216000m/h.</desc>
<speed>10.060000</speed>
</trkpt>
<trkpt lat="21.314198" lon="105.603523">
<ele>18.604752</ele>
<time>2011-04-29T08:35:45Z</time>
<desc>lat.=21.314198, lon.=105.603523, Alt.=18.604752m. Speed=34.487999m/h.</desc>
<speed>9.580000</speed>
</trkpt>
<trkpt lat="21.314247" lon="105.604019">
<ele>18.756607</ele>
<time>2011-04-29T08:35:50Z</time>
<desc>lat.=21.314247, lon.=105.604019, Alt.=18.756607m. Speed=35.855999m/h.</desc>
<speed>9.960000</speed>
</trkpt>
<trkpt lat="21.314344" lon="105.604500">
<ele>19.631607</ele>
<time>2011-04-29T08:35:55Z</time>
<desc>lat.=21.314344, lon.=105.604500, Alt.=19.631607m. Speed=34.632000m/h.</desc>
<speed>9.620000</speed>
</trkpt>
<trkpt lat="21.314402" lon="105.604996">
<ele>19.829849</ele>
<time>2011-04-29T08:36:00Z</time>
<desc>lat.=21.314402, lon.=105.604996, Alt.=19.829849m. Speed=36.540001m/h.</desc>
<speed>10.150000</speed>
</trkpt>
<trkpt lat="21.314472" lon="105.605522">
<ele>17.958267</ele>
<time>2011-04-29T08:36:05Z</time>
<desc>lat.=21.314472, lon.=105.605522, Alt.=17.958267m. Speed=39.563999m/h.</desc>
<speed>10.990000</speed>
</trkpt>
<trkpt lat="21.314568" lon="105.606041">
<ele>13.346565</ele>
<time>2011-04-29T08:36:10Z</time>
<desc>lat.=21.314568, lon.=105.606041, Alt.=13.346565m. Speed=39.383999m/h.</desc>
<speed>10.940000</speed>
</trkpt>
<trkpt lat="21.314646" lon="105.606552">
<ele>10.961555</ele>
<time>2011-04-29T08:36:15Z</time>
<desc>lat.=21.314646, lon.=105.606552, Alt.=10.961555m. Speed=35.675999m/h.</desc>
<speed>9.910000</speed>
</trkpt>
<trkpt lat="21.314671" lon="105.607033">
<ele>11.671516</ele>
<time>2011-04-29T08:36:20Z</time>
<desc>lat.=21.314671, lon.=105.607033, Alt.=11.671516m. Speed=36.360001m/h.</desc>
<speed>10.100000</speed>
</trkpt>
<trkpt lat="21.314577" lon="105.607483">
<ele>11.981087</ele>
<time>2011-04-29T08:36:25Z</time>
<desc>lat.=21.314577, lon.=105.607483, Alt.=11.981087m. Speed=31.212000m/h.</desc>
<speed>8.670000</speed>
</trkpt>
<trkpt lat="21.314459" lon="105.607971">
<ele>12.237679</ele>
<time>2011-04-29T08:36:30Z</time>
<desc>lat.=21.314459, lon.=105.607971, Alt.=12.237679m. Speed=37.476002m/h.</desc>
<speed>10.410000</speed>
</trkpt>
<trkpt lat="21.314362" lon="105.608429">
<ele>13.906380</ele>
<time>2011-04-29T08:36:35Z</time>
<desc>lat.=21.314362, lon.=105.608429, Alt.=13.906380m. Speed=29.916000m/h.</desc>
<speed>8.310000</speed>
</trkpt>
<trkpt lat="21.314236" lon="105.608879">
<ele>17.629654</ele>
<time>2011-04-29T08:36:40Z</time>
<desc>lat.=21.314236, lon.=105.608879, Alt.=17.629654m. Speed=35.172001m/h.</desc>
<speed>9.770000</speed>
</trkpt>
<trkpt lat="21.314119" lon="105.609383">
<ele>19.650650</ele>
<time>2011-04-29T08:36:45Z</time>
<desc>lat.=21.314119, lon.=105.609383, Alt.=19.650650m. Speed=37.116001m/h.</desc>
<speed>10.310000</speed>
</trkpt>
<trkpt lat="21.313972" lon="105.609848">
<ele>21.796158</ele>
<time>2011-04-29T08:36:50Z</time>
<desc>lat.=21.313972, lon.=105.609848, Alt.=21.796158m. Speed=31.643999m/h.</desc>
<speed>8.790000</speed>
</trkpt>
<trkpt lat="21.313833" lon="105.610214">
<ele>22.519302</ele>
<time>2011-04-29T08:36:55Z</time>
<desc>lat.=21.313833, lon.=105.610214, Alt.=22.519302m. Speed=26.388000m/h.</desc>
<speed>7.330000</speed>
</trkpt>
<trkpt lat="21.313671" lon="105.610588">
<ele>24.735123</ele>
<time>2011-04-29T08:37:00Z</time>
<desc>lat.=21.313671, lon.=105.610588, Alt.=24.735123m. Speed=30.167999m/h.</desc>
<speed>8.380000</speed>
</trkpt>
<trkpt lat="21.313526" lon="105.610931">
<ele>24.219498</ele>
<time>2011-04-29T08:37:05Z</time>
<desc>lat.=21.313526, lon.=105.610931, Alt.=24.219498m. Speed=27.827999m/h.</desc>
<speed>7.730000</speed>
</trkpt>
<trkpt lat="21.313393" lon="105.611244">
<ele>23.217545</ele>
<time>2011-04-29T08:37:10Z</time>
<desc>lat.=21.313393, lon.=105.611244, Alt.=23.217545m. Speed=26.856001m/h.</desc>
<speed>7.460000</speed>
</trkpt>
<trkpt lat="21.313236" lon="105.611649">
<ele>21.377701</ele>
<time>2011-04-29T08:37:15Z</time>
<desc>lat.=21.313236, lon.=105.611649, Alt.=21.377701m. Speed=31.608000m/h.</desc>
<speed>8.780000</speed>
</trkpt>
<trkpt lat="21.313019" lon="105.612076">
<ele>22.940689</ele>
<time>2011-04-29T08:37:20Z</time>
<desc>lat.=21.313019, lon.=105.612076, Alt.=22.940689m. Speed=34.560001m/h.</desc>
<speed>9.600000</speed>
</trkpt>
<trkpt lat="21.312815" lon="105.612511">
<ele>22.517838</ele>
<time>2011-04-29T08:37:25Z</time>
<desc>lat.=21.312815, lon.=105.612511, Alt.=22.517838m. Speed=37.223999m/h.</desc>
<speed>10.340000</speed>
</trkpt>
<trkpt lat="21.312613" lon="105.612984">
<ele>19.282486</ele>
<time>2011-04-29T08:37:30Z</time>
<desc>lat.=21.312613, lon.=105.612984, Alt.=19.282486m. Speed=33.335999m/h.</desc>
<speed>9.260000</speed>
</trkpt>
<trkpt lat="21.312399" lon="105.613358">
<ele>14.258430</ele>
<time>2011-04-29T08:37:35Z</time>
<desc>lat.=21.312399, lon.=105.613358, Alt.=14.258430m. Speed=28.296000m/h.</desc>
<speed>7.860000</speed>
</trkpt>
<trkpt lat="21.312202" lon="105.613693">
<ele>8.831429</ele>
<time>2011-04-29T08:37:40Z</time>
<desc>lat.=21.312202, lon.=105.613693, Alt.=8.831429m. Speed=31.643999m/h.</desc>
<speed>8.790000</speed>
</trkpt>
<trkpt lat="21.311930" lon="105.614059">
<ele>7.145695</ele>
<time>2011-04-29T08:37:45Z</time>
<desc>lat.=21.311930, lon.=105.614059, Alt.=7.145695m. Speed=34.919998m/h.</desc>
<speed>9.699999</speed>
</trkpt>
<trkpt lat="21.311575" lon="105.614334">
<ele>6.460636</ele>
<time>2011-04-29T08:37:50Z</time>
<desc>lat.=21.311575, lon.=105.614334, Alt.=6.460636m. Speed=33.335999m/h.</desc>
<speed>9.260000</speed>
</trkpt>
<trkpt lat="21.311169" lon="105.614479">
<ele>5.368107</ele>
<time>2011-04-29T08:37:55Z</time>
<desc>lat.=21.311169, lon.=105.614479, Alt.=5.368107m. Speed=32.004002m/h.</desc>
<speed>8.890000</speed>
</trkpt>
<trkpt lat="21.310762" lon="105.614555">
<ele>5.638126</ele>
<time>2011-04-29T08:38:00Z</time>
<desc>lat.=21.310762, lon.=105.614555, Alt.=5.638126m. Speed=33.515999m/h.</desc>
<speed>9.310000</speed>
</trkpt>
<trkpt lat="21.310318" lon="105.614655">
<ele>5.953678</ele>
<time>2011-04-29T08:38:05Z</time>
<desc>lat.=21.310318, lon.=105.614655, Alt.=5.953678m. Speed=35.604000m/h.</desc>
<speed>9.890000</speed>
</trkpt>
<trkpt lat="21.309914" lon="105.614799">
<ele>4.475040</ele>
<time>2011-04-29T08:38:10Z</time>
<desc>lat.=21.309914, lon.=105.614799, Alt.=4.475040m. Speed=36.144001m/h.</desc>
<speed>10.040000</speed>
</trkpt>
<trkpt lat="21.309484" lon="105.615067">
<ele>2.559237</ele>
<time>2011-04-29T08:38:15Z</time>
<desc>lat.=21.309484, lon.=105.615067, Alt.=2.559237m. Speed=42.408001m/h.</desc>
<speed>11.780000</speed>
</trkpt>
<trkpt lat="21.308975" lon="105.615356">
<ele>1.518754</ele>
<time>2011-04-29T08:38:20Z</time>
<desc>lat.=21.308975, lon.=105.615356, Alt.=1.518754m. Speed=46.007999m/h.</desc>
<speed>12.780000</speed>
</trkpt>
<trkpt lat="21.308483" lon="105.615646">
<ele>2.944857</ele>
<time>2011-04-29T08:38:25Z</time>
<desc>lat.=21.308483, lon.=105.615646, Alt.=2.944857m. Speed=42.444000m/h.</desc>
<speed>11.790000</speed>
</trkpt>
<trkpt lat="21.308023" lon="105.615891">
<ele>2.076143</ele>
<time>2011-04-29T08:38:30Z</time>
<desc>lat.=21.308023, lon.=105.615891, Alt.=2.076143m. Speed=37.872002m/h.</desc>
<speed>10.520000</speed>
</trkpt>
<trkpt lat="21.307587" lon="105.616112">
<ele>-0.425625</ele>
<time>2011-04-29T08:38:35Z</time>
<desc>lat.=21.307587, lon.=105.616112, Alt.=-0.425625m. Speed=36.396000m/h.</desc>
<speed>10.110000</speed>
</trkpt>
<trkpt lat="21.307190" lon="105.616142">
<ele>0.485157</ele>
<time>2011-04-29T08:38:40Z</time>
<desc>lat.=21.307190, lon.=105.616142, Alt.=0.485157m. Speed=24.948000m/h.</desc>
<speed>6.930000</speed>
</trkpt>
<trkpt lat="21.306986" lon="105.616348">
<ele>2.521639</ele>
<time>2011-04-29T08:38:45Z</time>
<desc>lat.=21.306986, lon.=105.616348, Alt.=2.521639m. Speed=24.983999m/h.</desc>
<speed>6.940000</speed>
</trkpt>
<trkpt lat="21.306940" lon="105.616737">
<ele>1.682176</ele>
<time>2011-04-29T08:38:50Z</time>
<desc>lat.=21.306940, lon.=105.616737, Alt.=1.682176m. Speed=29.879999m/h.</desc>
<speed>8.300000</speed>
</trkpt>
<trkpt lat="21.306843" lon="105.617134">
<ele>2.231783</ele>
<time>2011-04-29T08:38:55Z</time>
<desc>lat.=21.306843, lon.=105.617134, Alt.=2.231783m. Speed=30.708000m/h.</desc>
<speed>8.530000</speed>
</trkpt>
<trkpt lat="21.306681" lon="105.617546">
<ele>3.679049</ele>
<time>2011-04-29T08:39:00Z</time>
<desc>lat.=21.306681, lon.=105.617546, Alt.=3.679049m. Speed=34.703999m/h.</desc>
<speed>9.640000</speed>
</trkpt>
<trkpt lat="21.306494" lon="105.617966">
<ele>6.101505</ele>
<time>2011-04-29T08:39:05Z</time>
<desc>lat.=21.306494, lon.=105.617966, Alt.=6.101505m. Speed=37.908001m/h.</desc>
<speed>10.530000</speed>
</trkpt>
<trkpt lat="21.306232" lon="105.618393">
<ele>5.490177</ele>
<time>2011-04-29T08:39:10Z</time>
<desc>lat.=21.306232, lon.=105.618393, Alt.=5.490177m. Speed=38.987999m/h.</desc>
<speed>10.830000</speed>
</trkpt>
<trkpt lat="21.305904" lon="105.618813">
<ele>4.834293</ele>
<time>2011-04-29T08:39:15Z</time>
<desc>lat.=21.305904, lon.=105.618813, Alt.=4.834293m. Speed=40.967999m/h.</desc>
<speed>11.380000</speed>
</trkpt>
<trkpt lat="21.305536" lon="105.619179">
<ele>4.929264</ele>
<time>2011-04-29T08:39:20Z</time>
<desc>lat.=21.305536, lon.=105.619179, Alt.=4.929264m. Speed=39.995998m/h.</desc>
<speed>11.110000</speed>
</trkpt>
<trkpt lat="21.305151" lon="105.619560">
<ele>1.162675</ele>
<time>2011-04-29T08:39:25Z</time>
<desc>lat.=21.305151, lon.=105.619560, Alt.=1.162675m. Speed=39.563999m/h.</desc>
<speed>10.990000</speed>
</trkpt>
<trkpt lat="21.304844" lon="105.619881">
<ele>1.896806</ele>
<time>2011-04-29T08:39:30Z</time>
<desc>lat.=21.304844, lon.=105.619881, Alt.=1.896806m. Speed=32.759998m/h.</desc>
<speed>9.100000</speed>
</trkpt>
<trkpt lat="21.304571" lon="105.620285">
<ele>4.087101</ele>
<time>2011-04-29T08:39:35Z</time>
<desc>lat.=21.304571, lon.=105.620285, Alt.=4.087101m. Speed=39.924000m/h.</desc>
<speed>11.090000</speed>
</trkpt>
<trkpt lat="21.304291" lon="105.620750">
<ele>5.259342</ele>
<time>2011-04-29T08:39:40Z</time>
<desc>lat.=21.304291, lon.=105.620750, Alt.=5.259342m. Speed=39.959999m/h.</desc>
<speed>11.100000</speed>
</trkpt>
<trkpt lat="21.304052" lon="105.621239">
<ele>5.843693</ele>
<time>2011-04-29T08:39:45Z</time>
<desc>lat.=21.304052, lon.=105.621239, Alt.=5.843693m. Speed=40.608002m/h.</desc>
<speed>11.280000</speed>
</trkpt>
<trkpt lat="21.303852" lon="105.621750">
<ele>7.914494</ele>
<time>2011-04-29T08:39:50Z</time>
<desc>lat.=21.303852, lon.=105.621750, Alt.=7.914494m. Speed=41.112000m/h.</desc>
<speed>11.420000</speed>
</trkpt>
<trkpt lat="21.303707" lon="105.622269">
<ele>10.760872</ele>
<time>2011-04-29T08:39:55Z</time>
<desc>lat.=21.303707, lon.=105.622269, Alt.=10.760872m. Speed=39.672001m/h.</desc>
<speed>11.020000</speed>
</trkpt>
<trkpt lat="21.303614" lon="105.622787">
<ele>13.757698</ele>
<time>2011-04-29T08:40:00Z</time>
<desc>lat.=21.303614, lon.=105.622787, Alt.=13.757698m. Speed=39.708000m/h.</desc>
<speed>11.030000</speed>
</trkpt>
<trkpt lat="21.303553" lon="105.623291">
<ele>13.473274</ele>
<time>2011-04-29T08:40:05Z</time>
<desc>lat.=21.303553, lon.=105.623291, Alt.=13.473274m. Speed=34.919998m/h.</desc>
<speed>9.699999</speed>
</trkpt>
<trkpt lat="21.303482" lon="105.623749">
<ele>14.765266</ele>
<time>2011-04-29T08:40:10Z</time>
<desc>lat.=21.303482, lon.=105.623749, Alt.=14.765266m. Speed=31.176001m/h.</desc>
<speed>8.660000</speed>
</trkpt>
<trkpt lat="21.303434" lon="105.624092">
<ele>16.238541</ele>
<time>2011-04-29T08:40:15Z</time>
<desc>lat.=21.303434, lon.=105.624092, Alt.=16.238541m. Speed=19.007999m/h.</desc>
<speed>5.280000</speed>
</trkpt>
<trkpt lat="21.303391" lon="105.624298">
<ele>14.497200</ele>
<time>2011-04-29T08:40:20Z</time>
<desc>lat.=21.303391, lon.=105.624298, Alt.=14.497200m. Speed=15.732000m/h.</desc>
<speed>4.370000</speed>
</trkpt>
<trkpt lat="21.303368" lon="105.624535">
<ele>11.852913</ele>
<time>2011-04-29T08:40:25Z</time>
<desc>lat.=21.303368, lon.=105.624535, Alt.=11.852913m. Speed=19.656000m/h.</desc>
<speed>5.460000</speed>
</trkpt>
<trkpt lat="21.303347" lon="105.624817">
<ele>8.420784</ele>
<time>2011-04-29T08:40:30Z</time>
<desc>lat.=21.303347, lon.=105.624817, Alt.=8.420784m. Speed=21.528000m/h.</desc>
<speed>5.980000</speed>
</trkpt>
<trkpt lat="21.303320" lon="105.625107">
<ele>7.410099</ele>
<time>2011-04-29T08:40:35Z</time>
<desc>lat.=21.303320, lon.=105.625107, Alt.=7.410099m. Speed=25.344000m/h.</desc>
<speed>7.040000</speed>
</trkpt>
<trkpt lat="21.303278" lon="105.625473">
<ele>5.205509</ele>
<time>2011-04-29T08:40:40Z</time>
<desc>lat.=21.303278, lon.=105.625473, Alt.=5.205509m. Speed=31.284000m/h.</desc>
<speed>8.690000</speed>
</trkpt>
<trkpt lat="21.303207" lon="105.625900">
<ele>5.796452</ele>
<time>2011-04-29T08:40:45Z</time>
<desc>lat.=21.303207, lon.=105.625900, Alt.=5.796452m. Speed=33.444000m/h.</desc>
<speed>9.290000</speed>
</trkpt>
<trkpt lat="21.303101" lon="105.626358">
<ele>8.827522</ele>
<time>2011-04-29T08:40:50Z</time>
<desc>lat.=21.303101, lon.=105.626358, Alt.=8.827522m. Speed=36.431999m/h.</desc>
<speed>10.120000</speed>
</trkpt>
<trkpt lat="21.302893" lon="105.626816">
<ele>9.133919</ele>
<time>2011-04-29T08:40:55Z</time>
<desc>lat.=21.302893, lon.=105.626816, Alt.=9.133919m. Speed=35.604000m/h.</desc>
<speed>9.890000</speed>
</trkpt>
<trkpt lat="21.302614" lon="105.627213">
<ele>11.027962</ele>
<time>2011-04-29T08:41:00Z</time>
<desc>lat.=21.302614, lon.=105.627213, Alt.=11.027962m. Speed=36.071999m/h.</desc>
<speed>10.020000</speed>
</trkpt>
<trkpt lat="21.302284" lon="105.627571">
<ele>10.487190</ele>
<time>2011-04-29T08:41:05Z</time>
<desc>lat.=21.302284, lon.=105.627571, Alt.=10.487190m. Speed=37.835999m/h.</desc>
<speed>10.510000</speed>
</trkpt>
<trkpt lat="21.301939" lon="105.627922">
<ele>11.947884</ele>
<time>2011-04-29T08:41:10Z</time>
<desc>lat.=21.301939, lon.=105.627922, Alt.=11.947884m. Speed=38.484001m/h.</desc>
<speed>10.690000</speed>
</trkpt>
<trkpt lat="21.301592" lon="105.628296">
<ele>12.701302</ele>
<time>2011-04-29T08:41:15Z</time>
<desc>lat.=21.301592, lon.=105.628296, Alt.=12.701302m. Speed=39.995998m/h.</desc>
<speed>11.110000</speed>
</trkpt>
<trkpt lat="21.301229" lon="105.628693">
<ele>10.966927</ele>
<time>2011-04-29T08:41:20Z</time>
<desc>lat.=21.301229, lon.=105.628693, Alt.=10.966927m. Speed=41.147999m/h.</desc>
<speed>11.430000</speed>
</trkpt>
<trkpt lat="21.300882" lon="105.629044">
<ele>4.819157</ele>
<time>2011-04-29T08:41:25Z</time>
<desc>lat.=21.300882, lon.=105.629044, Alt.=4.819157m. Speed=38.304001m/h.</desc>
<speed>10.640000</speed>
</trkpt>
<trkpt lat="21.300554" lon="105.629395">
<ele>5.512516</ele>
<time>2011-04-29T08:41:30Z</time>
<desc>lat.=21.300554, lon.=105.629395, Alt.=5.512516m. Speed=36.360001m/h.</desc>
<speed>10.100000</speed>
</trkpt>
<trkpt lat="21.300177" lon="105.629692">
<ele>8.352180</ele>
<time>2011-04-29T08:41:35Z</time>
<desc>lat.=21.300177, lon.=105.629692, Alt.=8.352180m. Speed=37.764000m/h.</desc>
<speed>10.490000</speed>
</trkpt>
<trkpt lat="21.299753" lon="105.629890">
<ele>9.798714</ele>
<time>2011-04-29T08:41:40Z</time>
<desc>lat.=21.299753, lon.=105.629890, Alt.=9.798714m. Speed=36.251999m/h.</desc>
<speed>10.070000</speed>
</trkpt>
<trkpt lat="21.299322" lon="105.629997">
<ele>11.273079</ele>
<time>2011-04-29T08:41:45Z</time>
<desc>lat.=21.299322, lon.=105.629997, Alt.=11.273079m. Speed=33.875999m/h.</desc>
<speed>9.410000</speed>
</trkpt>
<trkpt lat="21.298882" lon="105.630013">
<ele>10.757454</ele>
<time>2011-04-29T08:41:50Z</time>
<desc>lat.=21.298882, lon.=105.630013, Alt.=10.757454m. Speed=35.748001m/h.</desc>
<speed>9.930000</speed>
</trkpt>
<trkpt lat="21.298355" lon="105.630028">
<ele>9.058235</ele>
<time>2011-04-29T08:41:55Z</time>
<desc>lat.=21.298355, lon.=105.630028, Alt.=9.058235m. Speed=45.180000m/h.</desc>
<speed>12.550000</speed>
</trkpt>
<trkpt lat="21.297785" lon="105.630028">
<ele>4.264469</ele>
<time>2011-04-29T08:42:00Z</time>
<desc>lat.=21.297785, lon.=105.630028, Alt.=4.264469m. Speed=44.639999m/h.</desc>
<speed>12.400000</speed>
</trkpt>
<trkpt lat="21.297222" lon="105.630051">
<ele>1.350663</ele>
<time>2011-04-29T08:42:05Z</time>
<desc>lat.=21.297222, lon.=105.630051, Alt.=1.350663m. Speed=42.372002m/h.</desc>
<speed>11.770000</speed>
</trkpt>
<trkpt lat="21.296705" lon="105.630074">
<ele>0.689797</ele>
<time>2011-04-29T08:42:10Z</time>
<desc>lat.=21.296705, lon.=105.630074, Alt.=0.689797m. Speed=41.616001m/h.</desc>
<speed>11.560000</speed>
</trkpt>
<trkpt lat="21.296200" lon="105.630119">
<ele>-1.748216</ele>
<time>2011-04-29T08:42:15Z</time>
<desc>lat.=21.296200, lon.=105.630119, Alt.=-1.748216m. Speed=41.040001m/h.</desc>
<speed>11.400000</speed>
</trkpt>
<trkpt lat="21.295679" lon="105.630211">
<ele>-0.639031</ele>
<time>2011-04-29T08:42:20Z</time>
<desc>lat.=21.295679, lon.=105.630211, Alt.=-0.639031m. Speed=41.939999m/h.</desc>
<speed>11.650000</speed>
</trkpt>
<trkpt lat="21.295156" lon="105.630333">
<ele>-1.052659</ele>
<time>2011-04-29T08:42:25Z</time>
<desc>lat.=21.295156, lon.=105.630333, Alt.=-1.052659m. Speed=42.768002m/h.</desc>
<speed>11.880000</speed>
</trkpt>
<trkpt lat="21.294643" lon="105.630470">
<ele>0.154616</ele>
<time>2011-04-29T08:42:30Z</time>
<desc>lat.=21.294643, lon.=105.630470, Alt.=0.154616m. Speed=43.020000m/h.</desc>
<speed>11.950000</speed>
</trkpt>
<trkpt lat="21.294123" lon="105.630615">
<ele>0.874978</ele>
<time>2011-04-29T08:42:35Z</time>
<desc>lat.=21.294123, lon.=105.630615, Alt.=0.874978m. Speed=44.352001m/h.</desc>
<speed>12.320000</speed>
</trkpt>
<trkpt lat="21.293592" lon="105.630768">
<ele>2.323580</ele>
<time>2011-04-29T08:42:40Z</time>
<desc>lat.=21.293592, lon.=105.630768, Alt.=2.323580m. Speed=43.812000m/h.</desc>
<speed>12.170000</speed>
</trkpt>
<trkpt lat="21.293085" lon="105.630913">
<ele>4.542789</ele>
<time>2011-04-29T08:42:45Z</time>
<desc>lat.=21.293085, lon.=105.630913, Alt.=4.542789m. Speed=40.032001m/h.</desc>
<speed>11.120000</speed>
</trkpt>
<trkpt lat="21.292589" lon="105.631042">
<ele>4.626041</ele>
<time>2011-04-29T08:42:50Z</time>
<desc>lat.=21.292589, lon.=105.631042, Alt.=4.626041m. Speed=41.256001m/h.</desc>
<speed>11.460000</speed>
</trkpt>
<trkpt lat="21.292122" lon="105.631165">
<ele>4.193790</ele>
<time>2011-04-29T08:42:55Z</time>
<desc>lat.=21.292122, lon.=105.631165, Alt.=4.193790m. Speed=37.080002m/h.</desc>
<speed>10.300001</speed>
</trkpt>
<trkpt lat="21.291672" lon="105.631287">
<ele>4.766544</ele>
<time>2011-04-29T08:43:00Z</time>
<desc>lat.=21.291672, lon.=105.631287, Alt.=4.766544m. Speed=38.231998m/h.</desc>
<speed>10.620000</speed>
</trkpt>
<trkpt lat="21.291183" lon="105.631416">
<ele>5.817692</ele>
<time>2011-04-29T08:43:05Z</time>
<desc>lat.=21.291183, lon.=105.631416, Alt.=5.817692m. Speed=40.751999m/h.</desc>
<speed>11.320000</speed>
</trkpt>
<trkpt lat="21.290674" lon="105.631546">
<ele>6.365055</ele>
<time>2011-04-29T08:43:10Z</time>
<desc>lat.=21.290674, lon.=105.631546, Alt.=6.365055m. Speed=42.119999m/h.</desc>
<speed>11.700000</speed>
</trkpt>
<trkpt lat="21.290152" lon="105.631668">
<ele>4.657291</ele>
<time>2011-04-29T08:43:15Z</time>
<desc>lat.=21.290152, lon.=105.631668, Alt.=4.657291m. Speed=44.316002m/h.</desc>
<speed>12.310001</speed>
</trkpt>
<trkpt lat="21.289581" lon="105.631798">
<ele>1.993699</ele>
<time>2011-04-29T08:43:20Z</time>
<desc>lat.=21.289581, lon.=105.631798, Alt.=1.993699m. Speed=46.116001m/h.</desc>
<speed>12.810000</speed>
</trkpt>
<trkpt lat="21.288988" lon="105.631920">
<ele>1.414079</ele>
<time>2011-04-29T08:43:25Z</time>
<desc>lat.=21.288988, lon.=105.631920, Alt.=1.414079m. Speed=48.023998m/h.</desc>
<speed>13.340000</speed>
</trkpt>
<trkpt lat="21.288391" lon="105.632057">
<ele>1.190660</ele>
<time>2011-04-29T08:43:30Z</time>
<desc>lat.=21.288391, lon.=105.632057, Alt.=1.190660m. Speed=47.015999m/h.</desc>
<speed>13.060000</speed>
</trkpt>
<trkpt lat="21.287827" lon="105.632179">
<ele>1.375443</ele>
<time>2011-04-29T08:43:35Z</time>
<desc>lat.=21.287827, lon.=105.632179, Alt.=1.375443m. Speed=46.332001m/h.</desc>
<speed>12.870000</speed>
</trkpt>
<trkpt lat="21.287249" lon="105.632317">
<ele>2.164644</ele>
<time>2011-04-29T08:43:40Z</time>
<desc>lat.=21.287249, lon.=105.632317, Alt.=2.164644m. Speed=46.188000m/h.</desc>
<speed>12.830000</speed>
</trkpt>
<trkpt lat="21.286671" lon="105.632431">
<ele>2.090059</ele>
<time>2011-04-29T08:43:45Z</time>
<desc>lat.=21.286671, lon.=105.632431, Alt.=2.090059m. Speed=46.368000m/h.</desc>
<speed>12.880000</speed>
</trkpt>
<trkpt lat="21.286131" lon="105.632545">
<ele>1.638383</ele>
<time>2011-04-29T08:43:50Z</time>
<desc>lat.=21.286131, lon.=105.632545, Alt.=1.638383m. Speed=42.228001m/h.</desc>
<speed>11.730000</speed>
</trkpt>
<trkpt lat="21.285658" lon="105.632645">
<ele>2.084139</ele>
<time>2011-04-29T08:43:55Z</time>
<desc>lat.=21.285658, lon.=105.632645, Alt.=2.084139m. Speed=34.632000m/h.</desc>
<speed>9.620000</speed>
</trkpt>
<trkpt lat="21.285286" lon="105.632706">
<ele>3.133333</ele>
<time>2011-04-29T08:44:00Z</time>
<desc>lat.=21.285286, lon.=105.632706, Alt.=3.133333m. Speed=24.983999m/h.</desc>
<speed>6.940000</speed>
</trkpt>
<trkpt lat="21.285025" lon="105.632683">
<ele>1.076524</ele>
<time>2011-04-29T08:44:05Z</time>
<desc>lat.=21.285025, lon.=105.632683, Alt.=1.076524m. Speed=19.980000m/h.</desc>
<speed>5.550000</speed>
</trkpt>
<trkpt lat="21.284786" lon="105.632591">
<ele>1.764146</ele>
<time>2011-04-29T08:44:10Z</time>
<desc>lat.=21.284786, lon.=105.632591, Alt.=1.764146m. Speed=19.691999m/h.</desc>
<speed>5.470000</speed>
</trkpt>
<trkpt lat="21.284557" lon="105.632637">
<ele>2.698946</ele>
<time>2011-04-29T08:44:15Z</time>
<desc>lat.=21.284557, lon.=105.632637, Alt.=2.698946m. Speed=18.900000m/h.</desc>
<speed>5.250000</speed>
</trkpt>
<trkpt lat="21.284441" lon="105.632874">
<ele>3.393587</ele>
<time>2011-04-29T08:44:20Z</time>
<desc>lat.=21.284441, lon.=105.632874, Alt.=3.393587m. Speed=22.247999m/h.</desc>
<speed>6.180000</speed>
</trkpt>
<trkpt lat="21.284376" lon="105.633148">
<ele>0.755196</ele>
<time>2011-04-29T08:44:25Z</time>
<desc>lat.=21.284376, lon.=105.633148, Alt.=0.755196m. Speed=20.375999m/h.</desc>
<speed>5.660000</speed>
</trkpt>
<trkpt lat="21.284262" lon="105.633362">
<ele>2.624544</ele>
<time>2011-04-29T08:44:30Z</time>
<desc>lat.=21.284262, lon.=105.633362, Alt.=2.624544m. Speed=17.459999m/h.</desc>
<speed>4.850000</speed>
</trkpt>
<trkpt lat="21.284155" lon="105.633537">
<ele>3.224092</ele>
<time>2011-04-29T08:44:35Z</time>
<desc>lat.=21.284155, lon.=105.633537, Alt.=3.224092m. Speed=14.400000m/h.</desc>
<speed>4.000000</speed>
</trkpt>
<trkpt lat="21.284052" lon="105.633675">
<ele>2.257784</ele>
<time>2011-04-29T08:44:40Z</time>
<desc>lat.=21.284052, lon.=105.633675, Alt.=2.257784m. Speed=14.904000m/h.</desc>
<speed>4.140000</speed>
</trkpt>
<trkpt lat="21.283941" lon="105.633842">
<ele>3.593355</ele>
<time>2011-04-29T08:44:45Z</time>
<desc>lat.=21.283941, lon.=105.633842, Alt.=3.593355m. Speed=13.356000m/h.</desc>
<speed>3.710000</speed>
</trkpt>
<trkpt lat="21.283840" lon="105.633987">
<ele>3.394136</ele>
<time>2011-04-29T08:44:50Z</time>
<desc>lat.=21.283840, lon.=105.633987, Alt.=3.394136m. Speed=7.308000m/h.</desc>
<speed>2.030000</speed>
</trkpt>
<trkpt lat="21.283813" lon="105.634033">
<ele>-1.175767</ele>
<time>2011-04-29T08:44:55Z</time>
<desc>lat.=21.283813, lon.=105.634033, Alt.=-1.175767m. Speed=2.484000m/h.</desc>
<speed>0.690000</speed>
</trkpt>
<trkpt lat="21.283768" lon="105.634109">
<ele>-2.743380</ele>
<time>2011-04-29T08:45:00Z</time>
<desc>lat.=21.283768, lon.=105.634109, Alt.=-2.743380m. Speed=5.976000m/h.</desc>
<speed>1.660000</speed>
</trkpt>
<trkpt lat="21.283733" lon="105.634171">
<ele>-3.748384</ele>
<time>2011-04-29T08:45:05Z</time>
<desc>lat.=21.283733, lon.=105.634171, Alt.=-3.748384m. Speed=0.828000m/h.</desc>
<speed>0.230000</speed>
</trkpt>
<trkpt lat="21.283699" lon="105.634186">
<ele>-4.857731</ele>
<time>2011-04-29T08:45:10Z</time>
<desc>lat.=21.283699, lon.=105.634186, Alt.=-4.857731m. Speed=4.680000m/h.</desc>
<speed>1.300000</speed>
</trkpt>
<trkpt lat="21.283642" lon="105.634270">
<ele>-5.393986</ele>
<time>2011-04-29T08:45:15Z</time>
<desc>lat.=21.283642, lon.=105.634270, Alt.=-5.393986m. Speed=5.904000m/h.</desc>
<speed>1.640000</speed>
</trkpt>
<trkpt lat="21.283598" lon="105.634384">
<ele>-2.048800</ele>
<time>2011-04-29T08:45:20Z</time>
<desc>lat.=21.283598, lon.=105.634384, Alt.=-2.048800m. Speed=8.172000m/h.</desc>
<speed>2.270000</speed>
</trkpt>
<trkpt lat="21.283525" lon="105.634476">
<ele>-0.231981</ele>
<time>2011-04-29T08:45:25Z</time>
<desc>lat.=21.283525, lon.=105.634476, Alt.=-0.231981m. Speed=8.352000m/h.</desc>
<speed>2.320000</speed>
</trkpt>
<trkpt lat="21.283463" lon="105.634590">
<ele>0.493908</ele>
<time>2011-04-29T08:45:30Z</time>
<desc>lat.=21.283463, lon.=105.634590, Alt.=0.493908m. Speed=8.064000m/h.</desc>
<speed>2.240000</speed>
</trkpt>
<trkpt lat="21.283415" lon="105.634682">
<ele>1.193681</ele>
<time>2011-04-29T08:45:35Z</time>
<desc>lat.=21.283415, lon.=105.634682, Alt.=1.193681m. Speed=7.992000m/h.</desc>
<speed>2.220000</speed>
</trkpt>
<trkpt lat="21.283379" lon="105.634758">
<ele>0.732552</ele>
<time>2011-04-29T08:45:40Z</time>
<desc>lat.=21.283379, lon.=105.634758, Alt.=0.732552m. Speed=5.940000m/h.</desc>
<speed>1.650000</speed>
</trkpt>
<trkpt lat="21.283346" lon="105.634827">
<ele>1.857926</ele>
<time>2011-04-29T08:45:45Z</time>
<desc>lat.=21.283346, lon.=105.634827, Alt.=1.857926m. Speed=2.016000m/h.</desc>
<speed>0.560000</speed>
</trkpt>
<trkpt lat="21.283337" lon="105.634842">
<ele>2.357393</ele>
<time>2011-04-29T08:45:50Z</time>
<desc>lat.=21.283337, lon.=105.634842, Alt.=2.357393m. Speed=1.332000m/h.</desc>
<speed>0.370000</speed>
</trkpt>
<trkpt lat="21.283295" lon="105.634941">
<ele>4.329777</ele>
<time>2011-04-29T08:45:55Z</time>
<desc>lat.=21.283295, lon.=105.634941, Alt.=4.329777m. Speed=7.524000m/h.</desc>
<speed>2.090000</speed>
</trkpt>
<trkpt lat="21.283249" lon="105.634987">
<ele>3.955843</ele>
<time>2011-04-29T08:46:00Z</time>
<desc>lat.=21.283249, lon.=105.634987, Alt.=3.955843m. Speed=5.832000m/h.</desc>
<speed>1.620000</speed>
</trkpt>
<trkpt lat="21.283239" lon="105.635033">
<ele>3.856112</ele>
<time>2011-04-29T08:46:05Z</time>
<desc>lat.=21.283239, lon.=105.635033, Alt.=3.856112m. Speed=1.548000m/h.</desc>
<speed>0.430000</speed>
</trkpt>
<trkpt lat="21.283237" lon="105.635040">
<ele>3.772066</ele>
<time>2011-04-29T08:46:10Z</time>
<desc>lat.=21.283237, lon.=105.635040, Alt.=3.772066m. Speed=0.216000m/h.</desc>
<speed>0.060000</speed>
</trkpt>
<trkpt lat="21.283237" lon="105.635040">
<ele>3.830599</ele>
<time>2011-04-29T08:46:15Z</time>
<desc>lat.=21.283237, lon.=105.635040, Alt.=3.830599m. Speed=0.000000m/h.</desc>
<speed>0.000000</speed>
</trkpt>
<trkpt lat="21.283237" lon="105.635040">
<ele>3.808931</ele>
<time>2011-04-29T08:46:20Z</time>
<desc>lat.=21.283237, lon.=105.635040, Alt.=3.808931m. Speed=0.216000m/h.</desc>
<speed>0.060000</speed>
</trkpt>
<trkpt lat="21.283236" lon="105.635048">
<ele>3.795992</ele>
<time>2011-04-29T08:46:25Z</time>
<desc>lat.=21.283236, lon.=105.635048, Alt.=3.795992m. Speed=0.180000m/h.</desc>
<speed>0.050000</speed>
</trkpt>
<trkpt lat="21.283236" lon="105.635048">
<ele>3.810396</ele>
<time>2011-04-29T08:46:30Z</time>
<desc>lat.=21.283236, lon.=105.635048, Alt.=3.810396m. Speed=0.144000m/h.</desc>
<speed>0.040000</speed>
</trkpt>
<trkpt lat="21.283236" lon="105.635048">
<ele>3.738314</ele>
<time>2011-04-29T08:46:35Z</time>
<desc>lat.=21.283236, lon.=105.635048, Alt.=3.738314m. Speed=0.000000m/h.</desc>
<speed>0.000000</speed>
</trkpt>
<trkpt lat="21.283236" lon="105.635048">
<ele>3.756258</ele>
<time>2011-04-29T08:46:40Z</time>
<desc>lat.=21.283236, lon.=105.635048, Alt.=3.756258m. Speed=0.000000m/h.</desc>
<speed>0.000000</speed>
</trkpt>
<trkpt lat="21.283236" lon="105.635048">
<ele>3.747469</ele>
<time>2011-04-29T08:46:45Z</time>
<desc>lat.=21.283236, lon.=105.635048, Alt.=3.747469m. Speed=0.036000m/h.</desc>
<speed>0.010000</speed>
</trkpt>
<trkpt lat="21.283236" lon="105.635048">
<ele>3.737825</ele>
<time>2011-04-29T08:46:50Z</time>
<desc>lat.=21.283236, lon.=105.635048, Alt.=3.737825m. Speed=0.036000m/h.</desc>
<speed>0.010000</speed>
</trkpt>
<trkpt lat="21.283236" lon="105.635048">
<ele>3.753878</ele>
<time>2011-04-29T08:46:55Z</time>
<desc>lat.=21.283236, lon.=105.635048, Alt.=3.753878m. Speed=0.072000m/h.</desc>
<speed>0.020000</speed>
</trkpt>
<trkpt lat="21.283236" lon="105.635048">
<ele>3.759249</ele>
<time>2011-04-29T08:47:00Z</time>
<desc>lat.=21.283236, lon.=105.635048, Alt.=3.759249m. Speed=0.036000m/h.</desc>
<speed>0.010000</speed>
</trkpt>
<trkpt lat="21.283236" lon="105.635048">
<ele>3.781893</ele>
<time>2011-04-29T08:47:05Z</time>
<desc>lat.=21.283236, lon.=105.635048, Alt.=3.781893m. Speed=0.036000m/h.</desc>
<speed>0.010000</speed>
</trkpt>
<trkpt lat="21.283236" lon="105.635048">
<ele>3.802706</ele>
<time>2011-04-29T08:47:10Z</time>
<desc>lat.=21.283236, lon.=105.635048, Alt.=3.802706m. Speed=0.108000m/h.</desc>
<speed>0.030000</speed>
</trkpt>
<trkpt lat="21.283236" lon="105.635048">
<ele>3.808382</ele>
<time>2011-04-29T08:47:15Z</time>
<desc>lat.=21.283236, lon.=105.635048, Alt.=3.808382m. Speed=0.072000m/h.</desc>
<speed>0.020000</speed>
</trkpt>
<trkpt lat="21.283234" lon="105.635040">
<ele>3.798189</ele>
<time>2011-04-29T08:47:20Z</time>
<desc>lat.=21.283234, lon.=105.635040, Alt.=3.798189m. Speed=0.072000m/h.</desc>
<speed>0.020000</speed>
</trkpt>
<trkpt lat="21.283234" lon="105.635040">
<ele>3.776949</ele>
<time>2011-04-29T08:47:25Z</time>
<desc>lat.=21.283234, lon.=105.635040, Alt.=3.776949m. Speed=0.000000m/h.</desc>
<speed>0.000000</speed>
</trkpt>
<trkpt lat="21.283234" lon="105.635040">
<ele>3.725801</ele>
<time>2011-04-29T08:47:30Z</time>
<desc>lat.=21.283234, lon.=105.635040, Alt.=3.725801m. Speed=0.036000m/h.</desc>
<speed>0.010000</speed>
</trkpt>
<trkpt lat="21.283234" lon="105.635040">
<ele>3.654696</ele>
<time>2011-04-29T08:47:35Z</time>
<desc>lat.=21.283234, lon.=105.635040, Alt.=3.654696m. Speed=0.072000m/h.</desc>
<speed>0.020000</speed>
</trkpt>
<trkpt lat="21.283234" lon="105.635040">
<ele>3.585726</ele>
<time>2011-04-29T08:47:40Z</time>
<desc>lat.=21.283234, lon.=105.635040, Alt.=3.585726m. Speed=0.072000m/h.</desc>
<speed>0.020000</speed>
</trkpt>
<trkpt lat="21.283234" lon="105.635040">
<ele>3.546419</ele>
<time>2011-04-29T08:47:45Z</time>
<desc>lat.=21.283234, lon.=105.635040, Alt.=3.546419m. Speed=0.000000m/h.</desc>
<speed>0.000000</speed>
</trkpt>
<trkpt lat="21.283236" lon="105.635040">
<ele>3.497652</ele>
<time>2011-04-29T08:47:50Z</time>
<desc>lat.=21.283236, lon.=105.635040, Alt.=3.497652m. Speed=0.036000m/h.</desc>
<speed>0.010000</speed>
</trkpt>
<trkpt lat="21.283236" lon="105.635040">
<ele>3.487642</ele>
<time>2011-04-29T08:47:55Z</time>
<desc>lat.=21.283236, lon.=105.635040, Alt.=3.487642m. Speed=0.072000m/h.</desc>
<speed>0.020000</speed>
</trkpt>
<trkpt lat="21.283236" lon="105.635040">
<ele>3.494722</ele>
<time>2011-04-29T08:48:00Z</time>
<desc>lat.=21.283236, lon.=105.635040, Alt.=3.494722m. Speed=0.036000m/h.</desc>
<speed>0.010000</speed>
</trkpt>
<trkpt lat="21.283236" lon="105.635040">
<ele>3.515841</ele>
<time>2011-04-29T08:48:05Z</time>
<desc>lat.=21.283236, lon.=105.635040, Alt.=3.515841m. Speed=0.000000m/h.</desc>
<speed>0.000000</speed>
</trkpt>
<trkpt lat="21.283236" lon="105.635040">
<ele>3.525423</ele>
<time>2011-04-29T08:48:10Z</time>
<desc>lat.=21.283236, lon.=105.635040, Alt.=3.525423m. Speed=0.144000m/h.</desc>
<speed>0.040000</speed>
</trkpt>
<trkpt lat="21.283236" lon="105.635040">
<ele>3.569368</ele>
<time>2011-04-29T08:48:15Z</time>
<desc>lat.=21.283236, lon.=105.635040, Alt.=3.569368m. Speed=0.036000m/h.</desc>
<speed>0.010000</speed>
</trkpt>
<trkpt lat="21.283236" lon="105.635040">
<ele>3.594088</ele>
<time>2011-04-29T08:48:20Z</time>
<desc>lat.=21.283236, lon.=105.635040, Alt.=3.594088m. Speed=0.000000m/h.</desc>
<speed>0.000000</speed>
</trkpt>
<trkpt lat="21.283234" lon="105.635040">
<ele>3.603243</ele>
<time>2011-04-29T08:48:25Z</time>
<desc>lat.=21.283234, lon.=105.635040, Alt.=3.603243m. Speed=0.036000m/h.</desc>
<speed>0.010000</speed>
</trkpt>
<trkpt lat="21.283234" lon="105.635040">
<ele>3.603853</ele>
<time>2011-04-29T08:48:30Z</time>
<desc>lat.=21.283234, lon.=105.635040, Alt.=3.603853m. Speed=0.000000m/h.</desc>
<speed>0.000000</speed>
</trkpt>
<trkpt lat="21.283234" lon="105.635040">
<ele>3.590914</ele>
<time>2011-04-29T08:48:35Z</time>
<desc>lat.=21.283234, lon.=105.635040, Alt.=3.590914m. Speed=0.072000m/h.</desc>
<speed>0.020000</speed>
</trkpt>
<trkpt lat="21.283234" lon="105.635040">
<ele>3.590853</ele>
<time>2011-04-29T08:48:40Z</time>
<desc>lat.=21.283234, lon.=105.635040, Alt.=3.590853m. Speed=0.036000m/h.</desc>
<speed>0.010000</speed>
</trkpt>
<trkpt lat="21.283234" lon="105.635040">
<ele>3.644320</ele>
<time>2011-04-29T08:48:45Z</time>
<desc>lat.=21.283234, lon.=105.635040, Alt.=3.644320m. Speed=0.036000m/h.</desc>
<speed>0.010000</speed>
</trkpt>
<trkpt lat="21.283234" lon="105.635040">
<ele>3.652254</ele>
<time>2011-04-29T08:48:50Z</time>
<desc>lat.=21.283234, lon.=105.635040, Alt.=3.652254m. Speed=0.288000m/h.</desc>
<speed>0.080000</speed>
</trkpt>
<trkpt lat="21.283203" lon="105.635117">
<ele>4.484440</ele>
<time>2011-04-29T08:48:55Z</time>
<desc>lat.=21.283203, lon.=105.635117, Alt.=4.484440m. Speed=11.196000m/h.</desc>
<speed>3.110000</speed>
</trkpt>
<trkpt lat="21.283091" lon="105.635330">
<ele>3.560762</ele>
<time>2011-04-29T08:49:00Z</time>
<desc>lat.=21.283091, lon.=105.635330, Alt.=3.560762m. Speed=18.576000m/h.</desc>
<speed>5.160000</speed>
</trkpt>
<trkpt lat="21.282955" lon="105.635582">
<ele>3.008699</ele>
<time>2011-04-29T08:49:05Z</time>
<desc>lat.=21.282955, lon.=105.635582, Alt.=3.008699m. Speed=19.044001m/h.</desc>
<speed>5.290000</speed>
</trkpt>
<trkpt lat="21.282793" lon="105.635849">
<ele>2.515169</ele>
<time>2011-04-29T08:49:10Z</time>
<desc>lat.=21.282793, lon.=105.635849, Alt.=2.515169m. Speed=24.732000m/h.</desc>
<speed>6.870000</speed>
</trkpt>
<trkpt lat="21.282585" lon="105.636185">
<ele>4.423283</ele>
<time>2011-04-29T08:49:15Z</time>
<desc>lat.=21.282585, lon.=105.636185, Alt.=4.423283m. Speed=30.167999m/h.</desc>
<speed>8.380000</speed>
</trkpt>
<trkpt lat="21.282322" lon="105.636513">
<ele>4.071110</ele>
<time>2011-04-29T08:49:20Z</time>
<desc>lat.=21.282322, lon.=105.636513, Alt.=4.071110m. Speed=32.472000m/h.</desc>
<speed>9.020000</speed>
</trkpt>
<trkpt lat="21.281971" lon="105.636810">
<ele>4.223454</ele>
<time>2011-04-29T08:49:25Z</time>
<desc>lat.=21.281971, lon.=105.636810, Alt.=4.223454m. Speed=38.807999m/h.</desc>
<speed>10.780000</speed>
</trkpt>
<trkpt lat="21.281540" lon="105.637115">
<ele>3.047152</ele>
<time>2011-04-29T08:49:30Z</time>
<desc>lat.=21.281540, lon.=105.637115, Alt.=3.047152m. Speed=43.703999m/h.</desc>
<speed>12.140000</speed>
</trkpt>
<trkpt lat="21.281010" lon="105.637421">
<ele>1.078904</ele>
<time>2011-04-29T08:49:35Z</time>
<desc>lat.=21.281010, lon.=105.637421, Alt.=1.078904m. Speed=51.155998m/h.</desc>
<speed>14.210000</speed>
</trkpt>
<trkpt lat="21.280390" lon="105.637779">
<ele>1.145371</ele>
<time>2011-04-29T08:49:40Z</time>
<desc>lat.=21.280390, lon.=105.637779, Alt.=1.145371m. Speed=60.515999m/h.</desc>
<speed>16.810000</speed>
</trkpt>
<trkpt lat="21.279703" lon="105.638176">
<ele>0.231520</ele>
<time>2011-04-29T08:49:45Z</time>
<desc>lat.=21.279703, lon.=105.638176, Alt.=0.231520m. Speed=61.632000m/h.</desc>
<speed>17.120000</speed>
</trkpt>
<trkpt lat="21.279007" lon="105.638596">
<ele>0.268711</ele>
<time>2011-04-29T08:49:50Z</time>
<desc>lat.=21.279007, lon.=105.638596, Alt.=0.268711m. Speed=62.459999m/h.</desc>
<speed>17.350000</speed>
</trkpt>
<trkpt lat="21.278313" lon="105.638992">
<ele>1.741715</ele>
<time>2011-04-29T08:49:55Z</time>
<desc>lat.=21.278313, lon.=105.638992, Alt.=1.741715m. Speed=62.964001m/h.</desc>
<speed>17.490000</speed>
</trkpt>
<trkpt lat="21.277601" lon="105.639397">
<ele>3.647432</ele>
<time>2011-04-29T08:50:00Z</time>
<desc>lat.=21.277601, lon.=105.639397, Alt.=3.647432m. Speed=64.944000m/h.</desc>
<speed>18.040000</speed>
</trkpt>
<trkpt lat="21.276871" lon="105.639816">
<ele>5.286930</ele>
<time>2011-04-29T08:50:05Z</time>
<desc>lat.=21.276871, lon.=105.639816, Alt.=5.286930m. Speed=64.188004m/h.</desc>
<speed>17.830001</speed>
</trkpt>
<trkpt lat="21.276180" lon="105.640221">
<ele>4.817448</ele>
<time>2011-04-29T08:50:10Z</time>
<desc>lat.=21.276180, lon.=105.640221, Alt.=4.817448m. Speed=60.155998m/h.</desc>
<speed>16.710000</speed>
</trkpt>
<trkpt lat="21.275537" lon="105.640602">
<ele>5.325871</ele>
<time>2011-04-29T08:50:15Z</time>
<desc>lat.=21.275537, lon.=105.640602, Alt.=5.325871m. Speed=56.591999m/h.</desc>
<speed>15.720000</speed>
</trkpt>
<trkpt lat="21.274904" lon="105.640984">
<ele>4.648624</ele>
<time>2011-04-29T08:50:20Z</time>
<desc>lat.=21.274904, lon.=105.640984, Alt.=4.648624m. Speed=59.292000m/h.</desc>
<speed>16.470000</speed>
</trkpt>
<trkpt lat="21.274302" lon="105.641457">
<ele>2.494417</ele>
<time>2011-04-29T08:50:25Z</time>
<desc>lat.=21.274302, lon.=105.641457, Alt.=2.494417m. Speed=62.243999m/h.</desc>
<speed>17.290000</speed>
</trkpt>
<trkpt lat="21.273716" lon="105.642059">
<ele>-0.503060</ele>
<time>2011-04-29T08:50:30Z</time>
<desc>lat.=21.273716, lon.=105.642059, Alt.=-0.503060m. Speed=66.528000m/h.</desc>
<speed>18.480000</speed>
</trkpt>
<trkpt lat="21.273115" lon="105.642731">
<ele>-1.815415</ele>
<time>2011-04-29T08:50:35Z</time>
<desc>lat.=21.273115, lon.=105.642731, Alt.=-1.815415m. Speed=71.316002m/h.</desc>
<speed>19.810001</speed>
</trkpt>
<trkpt lat="21.272476" lon="105.643448">
<ele>-3.257540</ele>
<time>2011-04-29T08:50:40Z</time>
<desc>lat.=21.272476, lon.=105.643448, Alt.=-3.257540m. Speed=76.500000m/h.</desc>
<speed>21.250000</speed>
</trkpt>
<trkpt lat="21.271793" lon="105.644226">
<ele>-4.404606</ele>
<time>2011-04-29T08:50:45Z</time>
<desc>lat.=21.271793, lon.=105.644226, Alt.=-4.404606m. Speed=80.244003m/h.</desc>
<speed>22.290001</speed>
</trkpt>
<trkpt lat="21.271099" lon="105.645027">
<ele>-4.691715</ele>
<time>2011-04-29T08:50:50Z</time>
<desc>lat.=21.271099, lon.=105.645027, Alt.=-4.691715m. Speed=81.468002m/h.</desc>
<speed>22.630001</speed>
</trkpt>
<trkpt lat="21.270372" lon="105.645828">
<ele>-3.168367</ele>
<time>2011-04-29T08:50:55Z</time>
<desc>lat.=21.270372, lon.=105.645828, Alt.=-3.168367m. Speed=84.816002m/h.</desc>
<speed>23.560001</speed>
</trkpt>
<trkpt lat="21.269625" lon="105.646629">
<ele>-3.758821</ele>
<time>2011-04-29T08:51:00Z</time>
<desc>lat.=21.269625, lon.=105.646629, Alt.=-3.758821m. Speed=84.491997m/h.</desc>
<speed>23.469999</speed>
</trkpt>
<trkpt lat="21.268797" lon="105.647385">
<ele>-3.884981</ele>
<time>2011-04-29T08:51:05Z</time>
<desc>lat.=21.268797, lon.=105.647385, Alt.=-3.884981m. Speed=84.564003m/h.</desc>
<speed>23.490001</speed>
</trkpt>
<trkpt lat="21.267962" lon="105.648048">
<ele>-4.310734</ele>
<time>2011-04-29T08:51:10Z</time>
<desc>lat.=21.267962, lon.=105.648048, Alt.=-4.310734m. Speed=82.440002m/h.</desc>
<speed>22.900001</speed>
</trkpt>
<trkpt lat="21.267138" lon="105.648682">
<ele>-5.191715</ele>
<time>2011-04-29T08:51:15Z</time>
<desc>lat.=21.267138, lon.=105.648682, Alt.=-5.191715m. Speed=80.388000m/h.</desc>
<speed>22.330000</speed>
</trkpt>
<trkpt lat="21.266327" lon="105.649338">
<ele>-5.505192</ele>
<time>2011-04-29T08:51:20Z</time>
<desc>lat.=21.266327, lon.=105.649338, Alt.=-5.505192m. Speed=82.080002m/h.</desc>
<speed>22.800001</speed>
</trkpt>
<trkpt lat="21.265518" lon="105.650017">
<ele>-5.394352</ele>
<time>2011-04-29T08:51:25Z</time>
<desc>lat.=21.265518, lon.=105.650017, Alt.=-5.394352m. Speed=81.251999m/h.</desc>
<speed>22.570000</speed>
</trkpt>
<trkpt lat="21.264782" lon="105.650711">
<ele>-4.279972</ele>
<time>2011-04-29T08:51:30Z</time>
<desc>lat.=21.264782, lon.=105.650711, Alt.=-4.279972m. Speed=77.363998m/h.</desc>
<speed>21.490000</speed>
</trkpt>
<trkpt lat="21.264151" lon="105.651421">
<ele>-5.550968</ele>
<time>2011-04-29T08:51:35Z</time>
<desc>lat.=21.264151, lon.=105.651421, Alt.=-5.550968m. Speed=70.632004m/h.</desc>
<speed>19.620001</speed>
</trkpt>
<trkpt lat="21.263590" lon="105.652138">
<ele>-5.394718</ele>
<time>2011-04-29T08:51:40Z</time>
<desc>lat.=21.263590, lon.=105.652138, Alt.=-5.394718m. Speed=67.283997m/h.</desc>
<speed>18.689999</speed>
</trkpt>
<trkpt lat="21.263041" lon="105.652809">
<ele>-5.139591</ele>
<time>2011-04-29T08:51:45Z</time>
<desc>lat.=21.263041, lon.=105.652809, Alt.=-5.139591m. Speed=64.727997m/h.</desc>
<speed>17.979999</speed>
</trkpt>
<trkpt lat="21.262518" lon="105.653465">
<ele>-4.832706</ele>
<time>2011-04-29T08:51:50Z</time>
<desc>lat.=21.262518, lon.=105.653465, Alt.=-4.832706m. Speed=63.144001m/h.</desc>
<speed>17.540000</speed>
</trkpt>
<trkpt lat="21.262018" lon="105.654083">
<ele>-6.117985</ele>
<time>2011-04-29T08:51:55Z</time>
<desc>lat.=21.262018, lon.=105.654083, Alt.=-6.117985m. Speed=57.995998m/h.</desc>
<speed>16.110000</speed>
</trkpt>
<trkpt lat="21.261595" lon="105.654655">
<ele>-5.464176</ele>
<time>2011-04-29T08:52:00Z</time>
<desc>lat.=21.261595, lon.=105.654655, Alt.=-5.464176m. Speed=53.243999m/h.</desc>
<speed>14.790000</speed>
</trkpt>
<trkpt lat="21.261204" lon="105.655220">
<ele>-1.465104</ele>
<time>2011-04-29T08:52:05Z</time>
<desc>lat.=21.261204, lon.=105.655220, Alt.=-1.465104m. Speed=51.084000m/h.</desc>
<speed>14.190000</speed>
</trkpt>
<trkpt lat="21.260822" lon="105.655762">
<ele>1.663011</ele>
<time>2011-04-29T08:52:10Z</time>
<desc>lat.=21.260822, lon.=105.655762, Alt.=1.663011m. Speed=48.023998m/h.</desc>
<speed>13.340000</speed>
</trkpt>
<trkpt lat="21.260450" lon="105.656296">
<ele>3.641146</ele>
<time>2011-04-29T08:52:15Z</time>
<desc>lat.=21.260450, lon.=105.656296, Alt.=3.641146m. Speed=51.408001m/h.</desc>
<speed>14.280000</speed>
</trkpt>
<trkpt lat="21.260031" lon="105.656883">
<ele>5.191105</ele>
<time>2011-04-29T08:52:20Z</time>
<desc>lat.=21.260031, lon.=105.656883, Alt.=5.191105m. Speed=54.792000m/h.</desc>
<speed>15.220000</speed>
</trkpt>
<trkpt lat="21.259602" lon="105.657494">
<ele>7.781559</ele>
<time>2011-04-29T08:52:25Z</time>
<desc>lat.=21.259602, lon.=105.657494, Alt.=7.781559m. Speed=58.391998m/h.</desc>
<speed>16.220000</speed>
</trkpt>
<trkpt lat="21.259144" lon="105.658127">
<ele>5.648258</ele>
<time>2011-04-29T08:52:30Z</time>
<desc>lat.=21.259144, lon.=105.658127, Alt.=5.648258m. Speed=60.804001m/h.</desc>
<speed>16.890000</speed>
</trkpt>
<trkpt lat="21.258675" lon="105.658783">
<ele>3.810335</ele>
<time>2011-04-29T08:52:35Z</time>
<desc>lat.=21.258675, lon.=105.658783, Alt.=3.810335m. Speed=60.768002m/h.</desc>
<speed>16.880000</speed>
</trkpt>
<trkpt lat="21.258240" lon="105.659416">
<ele>4.467472</ele>
<time>2011-04-29T08:52:40Z</time>
<desc>lat.=21.258240, lon.=105.659416, Alt.=4.467472m. Speed=55.512001m/h.</desc>
<speed>15.420000</speed>
</trkpt>
<trkpt lat="21.257902" lon="105.660049">
<ele>4.843204</ele>
<time>2011-04-29T08:52:45Z</time>
<desc>lat.=21.257902, lon.=105.660049, Alt.=4.843204m. Speed=52.020000m/h.</desc>
<speed>14.450000</speed>
</trkpt>
<trkpt lat="21.257637" lon="105.660698">
<ele>4.781315</ele>
<time>2011-04-29T08:52:50Z</time>
<desc>lat.=21.257637, lon.=105.660698, Alt.=4.781315m. Speed=52.703999m/h.</desc>
<speed>14.640000</speed>
</trkpt>
<trkpt lat="21.257420" lon="105.661369">
<ele>4.136784</ele>
<time>2011-04-29T08:52:55Z</time>
<desc>lat.=21.257420, lon.=105.661369, Alt.=4.136784m. Speed=52.956001m/h.</desc>
<speed>14.710000</speed>
</trkpt>
<trkpt lat="21.257221" lon="105.662048">
<ele>3.553682</ele>
<time>2011-04-29T08:53:00Z</time>
<desc>lat.=21.257221, lon.=105.662048, Alt.=3.553682m. Speed=51.948002m/h.</desc>
<speed>14.430001</speed>
</trkpt>
<trkpt lat="21.257027" lon="105.662727">
<ele>3.910311</ele>
<time>2011-04-29T08:53:05Z</time>
<desc>lat.=21.257027, lon.=105.662727, Alt.=3.910311m. Speed=49.860001m/h.</desc>
<speed>13.850000</speed>
</trkpt>
<trkpt lat="21.256845" lon="105.663353">
<ele>5.367741</ele>
<time>2011-04-29T08:53:10Z</time>
<desc>lat.=21.256845, lon.=105.663353, Alt.=5.367741m. Speed=48.456001m/h.</desc>
<speed>13.460000</speed>
</trkpt>
<trkpt lat="21.256649" lon="105.663994">
<ele>6.773502</ele>
<time>2011-04-29T08:53:15Z</time>
<desc>lat.=21.256649, lon.=105.663994, Alt.=6.773502m. Speed=51.155998m/h.</desc>
<speed>14.210000</speed>
</trkpt>
<trkpt lat="21.256456" lon="105.664604">
<ele>8.784798</ele>
<time>2011-04-29T08:53:20Z</time>
<desc>lat.=21.256456, lon.=105.664604, Alt.=8.784798m. Speed=48.528000m/h.</desc>
<speed>13.480000</speed>
</trkpt>
<trkpt lat="21.256260" lon="105.665215">
<ele>10.662239</ele>
<time>2011-04-29T08:53:25Z</time>
<desc>lat.=21.256260, lon.=105.665215, Alt.=10.662239m. Speed=46.908001m/h.</desc>
<speed>13.030000</speed>
</trkpt>
<trkpt lat="21.256073" lon="105.665810">
<ele>9.603401</ele>
<time>2011-04-29T08:53:30Z</time>
<desc>lat.=21.256073, lon.=105.665810, Alt.=9.603401m. Speed=44.279999m/h.</desc>
<speed>12.300000</speed>
</trkpt>
<trkpt lat="21.255838" lon="105.666290">
<ele>6.044621</ele>
<time>2011-04-29T08:53:35Z</time>
<desc>lat.=21.255838, lon.=105.666290, Alt.=6.044621m. Speed=32.580002m/h.</desc>
<speed>9.050001</speed>
</trkpt>
<trkpt lat="21.255644" lon="105.666565">
<ele>7.877628</ele>
<time>2011-04-29T08:53:40Z</time>
<desc>lat.=21.255644, lon.=105.666565, Alt.=7.877628m. Speed=19.152000m/h.</desc>
<speed>5.320000</speed>
</trkpt>
<trkpt lat="21.255465" lon="105.666710">
<ele>6.722477</ele>
<time>2011-04-29T08:53:45Z</time>
<desc>lat.=21.255465, lon.=105.666710, Alt.=6.722477m. Speed=19.980000m/h.</desc>
<speed>5.550000</speed>
</trkpt>
<trkpt lat="21.255312" lon="105.666985">
<ele>5.300968</ele>
<time>2011-04-29T08:53:50Z</time>
<desc>lat.=21.255312, lon.=105.666985, Alt.=5.300968m. Speed=27.540001m/h.</desc>
<speed>7.650000</speed>
</trkpt>
<trkpt lat="21.255098" lon="105.667320">
<ele>6.177311</ele>
<time>2011-04-29T08:53:55Z</time>
<desc>lat.=21.255098, lon.=105.667320, Alt.=6.177311m. Speed=31.284000m/h.</desc>
<speed>8.690000</speed>
</trkpt>
<trkpt lat="21.254740" lon="105.667603">
<ele>1.318620</ele>
<time>2011-04-29T08:54:00Z</time>
<desc>lat.=21.254740, lon.=105.667603, Alt.=1.318620m. Speed=37.872002m/h.</desc>
<speed>10.520000</speed>
</trkpt>
<trkpt lat="21.254311" lon="105.667885">
<ele>-0.854943</ele>
<time>2011-04-29T08:54:05Z</time>
<desc>lat.=21.254311, lon.=105.667885, Alt.=-0.854943m. Speed=39.743999m/h.</desc>
<speed>11.040000</speed>
</trkpt>
<trkpt lat="21.253853" lon="105.668121">
<ele>-1.759782</ele>
<time>2011-04-29T08:54:10Z</time>
<desc>lat.=21.253853, lon.=105.668121, Alt.=-1.759782m. Speed=38.160000m/h.</desc>
<speed>10.600000</speed>
</trkpt>
<trkpt lat="21.253389" lon="105.668365">
<ele>-4.239933</ele>
<time>2011-04-29T08:54:15Z</time>
<desc>lat.=21.253389, lon.=105.668365, Alt.=-4.239933m. Speed=40.680000m/h.</desc>
<speed>11.300000</speed>
</trkpt>
<trkpt lat="21.252934" lon="105.668625">
<ele>-4.841129</ele>
<time>2011-04-29T08:54:20Z</time>
<desc>lat.=21.252934, lon.=105.668625, Alt.=-4.841129m. Speed=43.020000m/h.</desc>
<speed>11.950000</speed>
</trkpt>
<trkpt lat="21.252449" lon="105.668884">
<ele>-6.663029</ele>
<time>2011-04-29T08:54:25Z</time>
<desc>lat.=21.252449, lon.=105.668884, Alt.=-6.663029m. Speed=40.716000m/h.</desc>
<speed>11.310000</speed>
</trkpt>
<trkpt lat="21.252001" lon="105.669128">
<ele>-3.808809</ele>
<time>2011-04-29T08:54:30Z</time>
<desc>lat.=21.252001, lon.=105.669128, Alt.=-3.808809m. Speed=38.340000m/h.</desc>
<speed>10.650000</speed>
</trkpt>
<trkpt lat="21.251602" lon="105.669365">
<ele>-1.665147</ele>
<time>2011-04-29T08:54:35Z</time>
<desc>lat.=21.251602, lon.=105.669365, Alt.=-1.665147m. Speed=37.296001m/h.</desc>
<speed>10.360000</speed>
</trkpt>
<trkpt lat="21.251234" lon="105.669678">
<ele>-1.035661</ele>
<time>2011-04-29T08:54:40Z</time>
<desc>lat.=21.251234, lon.=105.669678, Alt.=-1.035661m. Speed=37.188000m/h.</desc>
<speed>10.330000</speed>
</trkpt>
<trkpt lat="21.250896" lon="105.670029">
<ele>-2.192110</ele>
<time>2011-04-29T08:54:45Z</time>
<desc>lat.=21.250896, lon.=105.670029, Alt.=-2.192110m. Speed=34.127998m/h.</desc>
<speed>9.480000</speed>
</trkpt>
<trkpt lat="21.250622" lon="105.670326">
<ele>-2.953463</ele>
<time>2011-04-29T08:54:50Z</time>
<desc>lat.=21.250622, lon.=105.670326, Alt.=-2.953463m. Speed=33.624001m/h.</desc>
<speed>9.340000</speed>
</trkpt>
<trkpt lat="21.250298" lon="105.670692">
<ele>-4.636662</ele>
<time>2011-04-29T08:54:55Z</time>
<desc>lat.=21.250298, lon.=105.670692, Alt.=-4.636662m. Speed=39.995998m/h.</desc>
<speed>11.110000</speed>
</trkpt>
<trkpt lat="21.249933" lon="105.671135">
<ele>-3.383516</ele>
<time>2011-04-29T08:55:00Z</time>
<desc>lat.=21.249933, lon.=105.671135, Alt.=-3.383516m. Speed=45.720001m/h.</desc>
<speed>12.700000</speed>
</trkpt>
<trkpt lat="21.249552" lon="105.671570">
<ele>-3.931673</ele>
<time>2011-04-29T08:55:05Z</time>
<desc>lat.=21.249552, lon.=105.671570, Alt.=-3.931673m. Speed=42.444000m/h.</desc>
<speed>11.790000</speed>
</trkpt>
<trkpt lat="21.249212" lon="105.671997">
<ele>-2.657442</ele>
<time>2011-04-29T08:55:10Z</time>
<desc>lat.=21.249212, lon.=105.671997, Alt.=-2.657442m. Speed=42.372002m/h.</desc>
<speed>11.770000</speed>
</trkpt>
<trkpt lat="21.248871" lon="105.672424">
<ele>-2.606905</ele>
<time>2011-04-29T08:55:15Z</time>
<desc>lat.=21.248871, lon.=105.672424, Alt.=-2.606905m. Speed=41.759998m/h.</desc>
<speed>11.600000</speed>
</trkpt>
<trkpt lat="21.248499" lon="105.672852">
<ele>-3.138460</ele>
<time>2011-04-29T08:55:20Z</time>
<desc>lat.=21.248499, lon.=105.672852, Alt.=-3.138460m. Speed=45.720001m/h.</desc>
<speed>12.700000</speed>
</trkpt>
<trkpt lat="21.248083" lon="105.673355">
<ele>-1.514726</ele>
<time>2011-04-29T08:55:25Z</time>
<desc>lat.=21.248083, lon.=105.673355, Alt.=-1.514726m. Speed=50.688000m/h.</desc>
<speed>14.080000</speed>
</trkpt>
<trkpt lat="21.247656" lon="105.673874">
<ele>-1.813157</ele>
<time>2011-04-29T08:55:30Z</time>
<desc>lat.=21.247656, lon.=105.673874, Alt.=-1.813157m. Speed=49.464001m/h.</desc>
<speed>13.740000</speed>
</trkpt>
<trkpt lat="21.247234" lon="105.674316">
<ele>-3.592196</ele>
<time>2011-04-29T08:55:35Z</time>
<desc>lat.=21.247234, lon.=105.674316, Alt.=-3.592196m. Speed=46.619999m/h.</desc>
<speed>12.950000</speed>
</trkpt>
<trkpt lat="21.246809" lon="105.674721">
<ele>-3.642427</ele>
<time>2011-04-29T08:55:40Z</time>
<desc>lat.=21.246809, lon.=105.674721, Alt.=-3.642427m. Speed=44.279999m/h.</desc>
<speed>12.300000</speed>
</trkpt>
<trkpt lat="21.246384" lon="105.675102">
<ele>-3.264803</ele>
<time>2011-04-29T08:55:45Z</time>
<desc>lat.=21.246384, lon.=105.675102, Alt.=-3.264803m. Speed=44.099998m/h.</desc>
<speed>12.250000</speed>
</trkpt>
<trkpt lat="21.245953" lon="105.675468">
<ele>-4.230045</ele>
<time>2011-04-29T08:55:50Z</time>
<desc>lat.=21.245953, lon.=105.675468, Alt.=-4.230045m. Speed=43.523998m/h.</desc>
<speed>12.090000</speed>
</trkpt>
<trkpt lat="21.245550" lon="105.675842">
<ele>-5.083927</ele>
<time>2011-04-29T08:55:55Z</time>
<desc>lat.=21.245550, lon.=105.675842, Alt.=-5.083927m. Speed=40.824001m/h.</desc>
<speed>11.340000</speed>
</trkpt>
<trkpt lat="21.245190" lon="105.676170">
<ele>-6.744450</ele>
<time>2011-04-29T08:56:00Z</time>
<desc>lat.=21.245190, lon.=105.676170, Alt.=-6.744450m. Speed=35.352001m/h.</desc>
<speed>9.820000</speed>
</trkpt>
<trkpt lat="21.244875" lon="105.676460">
<ele>-6.411930</ele>
<time>2011-04-29T08:56:05Z</time>
<desc>lat.=21.244875, lon.=105.676460, Alt.=-6.411930m. Speed=31.284000m/h.</desc>
<speed>8.690000</speed>
</trkpt>
<trkpt lat="21.244587" lon="105.676697">
<ele>-9.644905</ele>
<time>2011-04-29T08:56:10Z</time>
<desc>lat.=21.244587, lon.=105.676697, Alt.=-9.644905m. Speed=23.868000m/h.</desc>
<speed>6.630000</speed>
</trkpt>
<trkpt lat="21.244398" lon="105.676865">
<ele>-9.580940</ele>
<time>2011-04-29T08:56:15Z</time>
<desc>lat.=21.244398, lon.=105.676865, Alt.=-9.580940m. Speed=22.176001m/h.</desc>
<speed>6.160000</speed>
</trkpt>
<trkpt lat="21.244137" lon="105.677101">
<ele>-8.758919</ele>
<time>2011-04-29T08:56:20Z</time>
<desc>lat.=21.244137, lon.=105.677101, Alt.=-8.758919m. Speed=28.368000m/h.</desc>
<speed>7.880000</speed>
</trkpt>
<trkpt lat="21.243847" lon="105.677361">
<ele>-8.290657</ele>
<time>2011-04-29T08:56:25Z</time>
<desc>lat.=21.243847, lon.=105.677361, Alt.=-8.290657m. Speed=32.688000m/h.</desc>
<speed>9.080000</speed>
</trkpt>
<trkpt lat="21.243477" lon="105.677666">
<ele>-5.260319</ele>
<time>2011-04-29T08:56:30Z</time>
<desc>lat.=21.243477, lon.=105.677666, Alt.=-5.260319m. Speed=41.903999m/h.</desc>
<speed>11.640000</speed>
</trkpt>
<trkpt lat="21.243080" lon="105.678040">
<ele>-2.453524</ele>
<time>2011-04-29T08:56:35Z</time>
<desc>lat.=21.243080, lon.=105.678040, Alt.=-2.453524m. Speed=44.424000m/h.</desc>
<speed>12.340000</speed>
</trkpt>
<trkpt lat="21.242640" lon="105.678497">
<ele>-2.116610</ele>
<time>2011-04-29T08:56:40Z</time>
<desc>lat.=21.242640, lon.=105.678497, Alt.=-2.116610m. Speed=52.200001m/h.</desc>
<speed>14.500000</speed>
</trkpt>
<trkpt lat="21.242100" lon="105.679001">
<ele>-3.449984</ele>
<time>2011-04-29T08:56:45Z</time>
<desc>lat.=21.242100, lon.=105.679001, Alt.=-3.449984m. Speed=59.220001m/h.</desc>
<speed>16.450000</speed>
</trkpt>
<trkpt lat="21.241539" lon="105.679543">
<ele>-5.717594</ele>
<time>2011-04-29T08:56:50Z</time>
<desc>lat.=21.241539, lon.=105.679543, Alt.=-5.717594m. Speed=60.948002m/h.</desc>
<speed>16.930001</speed>
</trkpt>
<trkpt lat="21.240953" lon="105.680107">
<ele>-6.531559</ele>
<time>2011-04-29T08:56:55Z</time>
<desc>lat.=21.240953, lon.=105.680107, Alt.=-6.531559m. Speed=62.352001m/h.</desc>
<speed>17.320000</speed>
</trkpt>
<trkpt lat="21.240398" lon="105.680695">
<ele>-7.167667</ele>
<time>2011-04-29T08:57:00Z</time>
<desc>lat.=21.240398, lon.=105.680695, Alt.=-7.167667m. Speed=62.459999m/h.</desc>
<speed>17.350000</speed>
</trkpt>
<trkpt lat="21.239971" lon="105.681374">
<ele>-5.029362</ele>
<time>2011-04-29T08:57:05Z</time>
<desc>lat.=21.239971, lon.=105.681374, Alt.=-5.029362m. Speed=56.627998m/h.</desc>
<speed>15.730000</speed>
</trkpt>
<trkpt lat="21.239672" lon="105.682060">
<ele>-4.007877</ele>
<time>2011-04-29T08:57:10Z</time>
<desc>lat.=21.239672, lon.=105.682060, Alt.=-4.007877m. Speed=52.812000m/h.</desc>
<speed>14.670000</speed>
</trkpt>
<trkpt lat="21.239420" lon="105.682701">
<ele>-2.689730</ele>
<time>2011-04-29T08:57:15Z</time>
<desc>lat.=21.239420, lon.=105.682701, Alt.=-2.689730m. Speed=48.636002m/h.</desc>
<speed>13.510000</speed>
</trkpt>
<trkpt lat="21.239166" lon="105.683304">
<ele>-1.951921</ele>
<time>2011-04-29T08:57:20Z</time>
<desc>lat.=21.239166, lon.=105.683304, Alt.=-1.951921m. Speed=48.456001m/h.</desc>
<speed>13.460000</speed>
</trkpt>
<trkpt lat="21.238916" lon="105.683929">
<ele>1.709611</ele>
<time>2011-04-29T08:57:25Z</time>
<desc>lat.=21.238916, lon.=105.683929, Alt.=1.709611m. Speed=51.984001m/h.</desc>
<speed>14.440000</speed>
</trkpt>
<trkpt lat="21.238651" lon="105.684563">
<ele>4.631535</ele>
<time>2011-04-29T08:57:30Z</time>
<desc>lat.=21.238651, lon.=105.684563, Alt.=4.631535m. Speed=50.723999m/h.</desc>
<speed>14.090000</speed>
</trkpt>
<trkpt lat="21.238373" lon="105.685135">
<ele>3.966524</ele>
<time>2011-04-29T08:57:35Z</time>
<desc>lat.=21.238373, lon.=105.685135, Alt.=3.966524m. Speed=49.787998m/h.</desc>
<speed>13.829999</speed>
</trkpt>
<trkpt lat="21.238060" lon="105.685684">
<ele>4.946842</ele>
<time>2011-04-29T08:57:40Z</time>
<desc>lat.=21.238060, lon.=105.685684, Alt.=4.946842m. Speed=50.256001m/h.</desc>
<speed>13.960000</speed>
</trkpt>
<trkpt lat="21.237722" lon="105.686195">
<ele>4.275944</ele>
<time>2011-04-29T08:57:45Z</time>
<desc>lat.=21.237722, lon.=105.686195, Alt.=4.275944m. Speed=48.563999m/h.</desc>
<speed>13.490000</speed>
</trkpt>
<trkpt lat="21.237326" lon="105.686676">
<ele>2.313631</ele>
<time>2011-04-29T08:57:50Z</time>
<desc>lat.=21.237326, lon.=105.686676, Alt.=2.313631m. Speed=50.363998m/h.</desc>
<speed>13.990000</speed>
</trkpt>
<trkpt lat="21.236891" lon="105.687172">
<ele>0.603264</ele>
<time>2011-04-29T08:57:55Z</time>
<desc>lat.=21.236891, lon.=105.687172, Alt.=0.603264m. Speed=51.551998m/h.</desc>
<speed>14.319999</speed>
</trkpt>
<trkpt lat="21.236395" lon="105.687561">
<ele>-0.898446</ele>
<time>2011-04-29T08:58:00Z</time>
<desc>lat.=21.236395, lon.=105.687561, Alt.=-0.898446m. Speed=51.551998m/h.</desc>
<speed>14.319999</speed>
</trkpt>
<trkpt lat="21.235874" lon="105.687981">
<ele>-1.168168</ele>
<time>2011-04-29T08:58:05Z</time>
<desc>lat.=21.235874, lon.=105.687981, Alt.=-1.168168m. Speed=53.820000m/h.</desc>
<speed>14.950000</speed>
</trkpt>
<trkpt lat="21.235319" lon="105.688347">
<ele>0.008844</ele>
<time>2011-04-29T08:58:10Z</time>
<desc>lat.=21.235319, lon.=105.688347, Alt.=0.008844m. Speed=53.136002m/h.</desc>
<speed>14.760000</speed>
</trkpt>
<trkpt lat="21.234749" lon="105.688690">
<ele>-0.281864</ele>
<time>2011-04-29T08:58:15Z</time>
<desc>lat.=21.234749, lon.=105.688690, Alt.=-0.281864m. Speed=50.939999m/h.</desc>
<speed>14.150000</speed>
</trkpt>
<trkpt lat="21.234205" lon="105.689034">
<ele>-1.979325</ele>
<time>2011-04-29T08:58:20Z</time>
<desc>lat.=21.234205, lon.=105.689034, Alt.=-1.979325m. Speed=49.967999m/h.</desc>
<speed>13.880000</speed>
</trkpt>
<trkpt lat="21.233719" lon="105.689346">
<ele>-0.474674</ele>
<time>2011-04-29T08:58:25Z</time>
<desc>lat.=21.233719, lon.=105.689346, Alt.=-0.474674m. Speed=42.480000m/h.</desc>
<speed>11.800000</speed>
</trkpt>
<trkpt lat="21.233269" lon="105.689636">
<ele>1.307664</ele>
<time>2011-04-29T08:58:30Z</time>
<desc>lat.=21.233269, lon.=105.689636, Alt.=1.307664m. Speed=40.896000m/h.</desc>
<speed>11.360000</speed>
</trkpt>
<trkpt lat="21.232845" lon="105.689949">
<ele>2.461763</ele>
<time>2011-04-29T08:58:35Z</time>
<desc>lat.=21.232845, lon.=105.689949, Alt.=2.461763m. Speed=40.500000m/h.</desc>
<speed>11.250000</speed>
</trkpt>
<trkpt lat="21.232481" lon="105.690300">
<ele>1.584855</ele>
<time>2011-04-29T08:58:40Z</time>
<desc>lat.=21.232481, lon.=105.690300, Alt.=1.584855m. Speed=39.240002m/h.</desc>
<speed>10.900000</speed>
</trkpt>
<trkpt lat="21.232197" lon="105.690727">
<ele>3.212740</ele>
<time>2011-04-29T08:58:45Z</time>
<desc>lat.=21.232197, lon.=105.690727, Alt.=3.212740m. Speed=41.543999m/h.</desc>
<speed>11.540000</speed>
</trkpt>
<trkpt lat="21.231926" lon="105.691193">
<ele>1.954362</ele>
<time>2011-04-29T08:58:50Z</time>
<desc>lat.=21.231926, lon.=105.691193, Alt.=1.954362m. Speed=41.076000m/h.</desc>
<speed>11.410000</speed>
</trkpt>
<trkpt lat="21.231699" lon="105.691612">
<ele>3.880526</ele>
<time>2011-04-29T08:58:55Z</time>
<desc>lat.=21.231699, lon.=105.691612, Alt.=3.880526m. Speed=35.279999m/h.</desc>
<speed>9.800000</speed>
</trkpt>
<trkpt lat="21.231480" lon="105.692032">
<ele>5.554020</ele>
<time>2011-04-29T08:59:00Z</time>
<desc>lat.=21.231480, lon.=105.692032, Alt.=5.554020m. Speed=36.647999m/h.</desc>
<speed>10.180000</speed>
</trkpt>
<trkpt lat="21.231293" lon="105.692398">
<ele>6.744205</ele>
<time>2011-04-29T08:59:05Z</time>
<desc>lat.=21.231293, lon.=105.692398, Alt.=6.744205m. Speed=25.920000m/h.</desc>
<speed>7.200000</speed>
</trkpt>
<trkpt lat="21.231159" lon="105.692665">
<ele>10.335579</ele>
<time>2011-04-29T08:59:10Z</time>
<desc>lat.=21.231159, lon.=105.692665, Alt.=10.335579m. Speed=16.559999m/h.</desc>
<speed>4.600000</speed>
</trkpt>
<trkpt lat="21.231096" lon="105.692734">
<ele>12.918098</ele>
<time>2011-04-29T08:59:15Z</time>
<desc>lat.=21.231096, lon.=105.692734, Alt.=12.918098m. Speed=3.528000m/h.</desc>
<speed>0.980000</speed>
</trkpt>
<trkpt lat="21.231068" lon="105.692780">
<ele>14.922005</ele>
<time>2011-04-29T08:59:20Z</time>
<desc>lat.=21.231068, lon.=105.692780, Alt.=14.922005m. Speed=1.980000m/h.</desc>
<speed>0.550000</speed>
</trkpt>
<trkpt lat="21.231054" lon="105.692795">
<ele>17.039810</ele>
<time>2011-04-29T08:59:25Z</time>
<desc>lat.=21.231054, lon.=105.692795, Alt.=17.039810m. Speed=1.044000m/h.</desc>
<speed>0.290000</speed>
</trkpt>
<trkpt lat="21.231047" lon="105.692810">
<ele>18.346451</ele>
<time>2011-04-29T08:59:30Z</time>
<desc>lat.=21.231047, lon.=105.692810, Alt.=18.346451m. Speed=1.296000m/h.</desc>
<speed>0.360000</speed>
</trkpt>
<trkpt lat="21.231039" lon="105.692833">
<ele>19.622818</ele>
<time>2011-04-29T08:59:35Z</time>
<desc>lat.=21.231039, lon.=105.692833, Alt.=19.622818m. Speed=1.836000m/h.</desc>
<speed>0.510000</speed>
</trkpt>
<trkpt lat="21.231030" lon="105.692863">
<ele>20.894791</ele>
<time>2011-04-29T08:59:40Z</time>
<desc>lat.=21.231030, lon.=105.692863, Alt.=20.894791m. Speed=4.752000m/h.</desc>
<speed>1.320000</speed>
</trkpt>
<trkpt lat="21.231003" lon="105.693008">
<ele>20.437271</ele>
<time>2011-04-29T08:59:45Z</time>
<desc>lat.=21.231003, lon.=105.693008, Alt.=20.437271m. Speed=16.884001m/h.</desc>
<speed>4.690000</speed>
</trkpt>
<trkpt lat="21.230947" lon="105.693260">
<ele>21.349869</ele>
<time>2011-04-29T08:59:50Z</time>
<desc>lat.=21.230947, lon.=105.693260, Alt.=21.349869m. Speed=23.292000m/h.</desc>
<speed>6.470000</speed>
</trkpt>
<trkpt lat="21.230873" lon="105.693619">
<ele>20.455338</ele>
<time>2011-04-29T08:59:55Z</time>
<desc>lat.=21.230873, lon.=105.693619, Alt.=20.455338m. Speed=31.931999m/h.</desc>
<speed>8.870000</speed>
</trkpt>
<trkpt lat="21.230850" lon="105.694084">
<ele>20.284927</ele>
<time>2011-04-29T09:00:00Z</time>
<desc>lat.=21.230850, lon.=105.694084, Alt.=20.284927m. Speed=37.512001m/h.</desc>
<speed>10.420000</speed>
</trkpt>
<trkpt lat="21.230856" lon="105.694603">
<ele>19.788345</ele>
<time>2011-04-29T09:00:05Z</time>
<desc>lat.=21.230856, lon.=105.694603, Alt.=19.788345m. Speed=38.304001m/h.</desc>
<speed>10.640000</speed>
</trkpt>
<trkpt lat="21.230883" lon="105.695084">
<ele>13.965218</ele>
<time>2011-04-29T09:00:10Z</time>
<desc>lat.=21.230883, lon.=105.695084, Alt.=13.965218m. Speed=37.403999m/h.</desc>
<speed>10.390000</speed>
</trkpt>
<trkpt lat="21.230904" lon="105.695602">
<ele>11.110481</ele>
<time>2011-04-29T09:00:15Z</time>
<desc>lat.=21.230904, lon.=105.695602, Alt.=11.110481m. Speed=39.636002m/h.</desc>
<speed>11.010000</speed>
</trkpt>
<trkpt lat="21.230923" lon="105.696129">
<ele>9.447884</ele>
<time>2011-04-29T09:00:20Z</time>
<desc>lat.=21.230923, lon.=105.696129, Alt.=9.447884m. Speed=40.608002m/h.</desc>
<speed>11.280000</speed>
</trkpt>
<trkpt lat="21.230932" lon="105.696678">
<ele>6.919498</ele>
<time>2011-04-29T09:00:25Z</time>
<desc>lat.=21.230932, lon.=105.696678, Alt.=6.919498m. Speed=40.139999m/h.</desc>
<speed>11.150000</speed>
</trkpt>
<trkpt lat="21.230949" lon="105.697189">
<ele>5.785831</ele>
<time>2011-04-29T09:00:30Z</time>
<desc>lat.=21.230949, lon.=105.697189, Alt.=5.785831m. Speed=37.980000m/h.</desc>
<speed>10.550000</speed>
</trkpt>
<trkpt lat="21.230965" lon="105.697739">
<ele>0.899941</ele>
<time>2011-04-29T09:00:35Z</time>
<desc>lat.=21.230965, lon.=105.697739, Alt.=0.899941m. Speed=40.464001m/h.</desc>
<speed>11.240000</speed>
</trkpt>
<trkpt lat="21.230991" lon="105.698296">
<ele>-5.886417</ele>
<time>2011-04-29T09:00:40Z</time>
<desc>lat.=21.230991, lon.=105.698296, Alt.=-5.886417m. Speed=39.599998m/h.</desc>
<speed>11.000000</speed>
</trkpt>
<trkpt lat="21.231005" lon="105.698845">
<ele>-9.075325</ele>
<time>2011-04-29T09:00:45Z</time>
<desc>lat.=21.231005, lon.=105.698845, Alt.=-9.075325m. Speed=38.520000m/h.</desc>
<speed>10.700000</speed>
</trkpt>
<trkpt lat="21.231012" lon="105.699379">
<ele>-11.330696</ele>
<time>2011-04-29T09:00:50Z</time>
<desc>lat.=21.231012, lon.=105.699379, Alt.=-11.330696m. Speed=39.492001m/h.</desc>
<speed>10.970000</speed>
</trkpt>
<trkpt lat="21.231020" lon="105.699898">
<ele>-13.224739</ele>
<time>2011-04-29T09:00:55Z</time>
<desc>lat.=21.231020, lon.=105.699898, Alt.=-13.224739m. Speed=38.375999m/h.</desc>
<speed>10.660000</speed>
</trkpt>
<trkpt lat="21.231039" lon="105.700409">
<ele>-12.789925</ele>
<time>2011-04-29T09:01:00Z</time>
<desc>lat.=21.231039, lon.=105.700409, Alt.=-12.789925m. Speed=36.720001m/h.</desc>
<speed>10.200000</speed>
</trkpt>
<trkpt lat="21.231064" lon="105.700890">
<ele>-12.840950</ele>
<time>2011-04-29T09:01:05Z</time>
<desc>lat.=21.231064, lon.=105.700890, Alt.=-12.840950m. Speed=34.596001m/h.</desc>
<speed>9.610000</speed>
</trkpt>
<trkpt lat="21.231064" lon="105.701309">
<ele>-12.209358</ele>
<time>2011-04-29T09:01:10Z</time>
<desc>lat.=21.231064, lon.=105.701309, Alt.=-12.209358m. Speed=29.664000m/h.</desc>
<speed>8.240000</speed>
</trkpt>
<trkpt lat="21.231079" lon="105.701645">
<ele>-9.569221</ele>
<time>2011-04-29T09:01:15Z</time>
<desc>lat.=21.231079, lon.=105.701645, Alt.=-9.569221m. Speed=15.084000m/h.</desc>
<speed>4.190000</speed>
</trkpt>
<trkpt lat="21.231081" lon="105.701805">
<ele>-5.950626</ele>
<time>2011-04-29T09:01:20Z</time>
<desc>lat.=21.231081, lon.=105.701805, Alt.=-5.950626m. Speed=5.544000m/h.</desc>
<speed>1.540000</speed>
</trkpt>
<trkpt lat="21.231092" lon="105.701874">
<ele>-0.911248</ele>
<time>2011-04-29T09:01:25Z</time>
<desc>lat.=21.231092, lon.=105.701874, Alt.=-0.911248m. Speed=4.932000m/h.</desc>
<speed>1.370000</speed>
</trkpt>
<trkpt lat="21.231100" lon="105.702049">
<ele>2.798372</ele>
<time>2011-04-29T09:01:30Z</time>
<desc>lat.=21.231100, lon.=105.702049, Alt.=2.798372m. Speed=15.588000m/h.</desc>
<speed>4.330000</speed>
</trkpt>
<trkpt lat="21.231129" lon="105.702354">
<ele>1.803117</ele>
<time>2011-04-29T09:01:35Z</time>
<desc>lat.=21.231129, lon.=105.702354, Alt.=1.803117m. Speed=25.164000m/h.</desc>
<speed>6.990000</speed>
</trkpt>
<trkpt lat="21.231131" lon="105.702751">
<ele>1.024247</ele>
<time>2011-04-29T09:01:40Z</time>
<desc>lat.=21.231131, lon.=105.702751, Alt.=1.024247m. Speed=31.176001m/h.</desc>
<speed>8.660000</speed>
</trkpt>
<trkpt lat="21.231157" lon="105.703209">
<ele>5.586857</ele>
<time>2011-04-29T09:01:45Z</time>
<desc>lat.=21.231157, lon.=105.703209, Alt.=5.586857m. Speed=33.155998m/h.</desc>
<speed>9.210000</speed>
</trkpt>
<trkpt lat="21.231173" lon="105.703697">
<ele>10.024788</ele>
<time>2011-04-29T09:01:50Z</time>
<desc>lat.=21.231173, lon.=105.703697, Alt.=10.024788m. Speed=37.332001m/h.</desc>
<speed>10.370000</speed>
</trkpt>
<trkpt lat="21.231180" lon="105.704201">
<ele>13.536507</ele>
<time>2011-04-29T09:01:55Z</time>
<desc>lat.=21.231180, lon.=105.704201, Alt.=13.536507m. Speed=37.584000m/h.</desc>
<speed>10.440000</speed>
</trkpt>
<trkpt lat="21.231205" lon="105.704704">
<ele>13.770638</ele>
<time>2011-04-29T09:02:00Z</time>
<desc>lat.=21.231205, lon.=105.704704, Alt.=13.770638m. Speed=34.380001m/h.</desc>
<speed>9.550000</speed>
</trkpt>
<trkpt lat="21.231232" lon="105.705185">
<ele>15.167854</ele>
<time>2011-04-29T09:02:05Z</time>
<desc>lat.=21.231232, lon.=105.705185, Alt.=15.167854m. Speed=35.316002m/h.</desc>
<speed>9.810001</speed>
</trkpt>
<trkpt lat="21.231253" lon="105.705643">
<ele>15.988411</ele>
<time>2011-04-29T09:02:10Z</time>
<desc>lat.=21.231253, lon.=105.705643, Alt.=15.988411m. Speed=28.152000m/h.</desc>
<speed>7.820000</speed>
</trkpt>
<trkpt lat="21.231268" lon="105.705887">
<ele>14.593880</ele>
<time>2011-04-29T09:02:15Z</time>
<desc>lat.=21.231268, lon.=105.705887, Alt.=14.593880m. Speed=9.288000m/h.</desc>
<speed>2.580000</speed>
</trkpt>
<trkpt lat="21.231297" lon="105.705978">
<ele>15.146858</ele>
<time>2011-04-29T09:02:20Z</time>
<desc>lat.=21.231297, lon.=105.705978, Alt.=15.146858m. Speed=4.356000m/h.</desc>
<speed>1.210000</speed>
</trkpt>
<trkpt lat="21.231312" lon="105.706108">
<ele>15.171516</ele>
<time>2011-04-29T09:02:25Z</time>
<desc>lat.=21.231312, lon.=105.706108, Alt.=15.171516m. Speed=10.188000m/h.</desc>
<speed>2.830000</speed>
</trkpt>
<trkpt lat="21.231321" lon="105.706238">
<ele>16.405045</ele>
<time>2011-04-29T09:02:30Z</time>
<desc>lat.=21.231321, lon.=105.706238, Alt.=16.405045m. Speed=7.668000m/h.</desc>
<speed>2.130000</speed>
</trkpt>
<trkpt lat="21.231327" lon="105.706360">
<ele>13.878548</ele>
<time>2011-04-29T09:02:35Z</time>
<desc>lat.=21.231327, lon.=105.706360, Alt.=13.878548m. Speed=12.636000m/h.</desc>
<speed>3.510000</speed>
</trkpt>
<trkpt lat="21.231310" lon="105.706604">
<ele>9.820442</ele>
<time>2011-04-29T09:02:40Z</time>
<desc>lat.=21.231310, lon.=105.706604, Alt.=9.820442m. Speed=24.732000m/h.</desc>
<speed>6.870000</speed>
</trkpt>
<trkpt lat="21.231319" lon="105.706985">
<ele>11.273323</ele>
<time>2011-04-29T09:02:45Z</time>
<desc>lat.=21.231319, lon.=105.706985, Alt.=11.273323m. Speed=27.216000m/h.</desc>
<speed>7.560000</speed>
</trkpt>
<trkpt lat="21.231312" lon="105.707420">
<ele>12.058968</ele>
<time>2011-04-29T09:02:50Z</time>
<desc>lat.=21.231312, lon.=105.707420, Alt.=12.058968m. Speed=33.480000m/h.</desc>
<speed>9.300000</speed>
</trkpt>
<trkpt lat="21.231344" lon="105.707932">
<ele>16.495865</ele>
<time>2011-04-29T09:02:55Z</time>
<desc>lat.=21.231344, lon.=105.707932, Alt.=16.495865m. Speed=33.731998m/h.</desc>
<speed>9.370000</speed>
</trkpt>
<trkpt lat="21.231348" lon="105.708412">
<ele>18.996841</ele>
<time>2011-04-29T09:03:00Z</time>
<desc>lat.=21.231348, lon.=105.708412, Alt.=18.996841m. Speed=34.344002m/h.</desc>
<speed>9.540000</speed>
</trkpt>
<trkpt lat="21.231356" lon="105.708862">
<ele>20.804459</ele>
<time>2011-04-29T09:03:05Z</time>
<desc>lat.=21.231356, lon.=105.708862, Alt.=20.804459m. Speed=32.832001m/h.</desc>
<speed>9.120000</speed>
</trkpt>
<trkpt lat="21.231342" lon="105.709343">
<ele>24.552994</ele>
<time>2011-04-29T09:03:10Z</time>
<desc>lat.=21.231342, lon.=105.709343, Alt.=24.552994m. Speed=34.487999m/h.</desc>
<speed>9.580000</speed>
</trkpt>
<trkpt lat="21.231333" lon="105.709869">
<ele>27.528091</ele>
<time>2011-04-29T09:03:15Z</time>
<desc>lat.=21.231333, lon.=105.709869, Alt.=27.528091m. Speed=37.728001m/h.</desc>
<speed>10.480000</speed>
</trkpt>
<trkpt lat="21.231333" lon="105.710350">
<ele>31.112076</ele>
<time>2011-04-29T09:03:20Z</time>
<desc>lat.=21.231333, lon.=105.710350, Alt.=31.112076m. Speed=31.931999m/h.</desc>
<speed>8.870000</speed>
</trkpt>
<trkpt lat="21.231323" lon="105.710663">
<ele>25.776627</ele>
<time>2011-04-29T09:03:25Z</time>
<desc>lat.=21.231323, lon.=105.710663, Alt.=25.776627m. Speed=19.332001m/h.</desc>
<speed>5.370000</speed>
</trkpt>
<trkpt lat="21.231358" lon="105.710991">
<ele>24.653091</ele>
<time>2011-04-29T09:03:30Z</time>
<desc>lat.=21.231358, lon.=105.710991, Alt.=24.653091m. Speed=30.312000m/h.</desc>
<speed>8.420000</speed>
</trkpt>
<trkpt lat="21.231520" lon="105.711426">
<ele>21.650162</ele>
<time>2011-04-29T09:03:35Z</time>
<desc>lat.=21.231520, lon.=105.711426, Alt.=21.650162m. Speed=35.316002m/h.</desc>
<speed>9.810001</speed>
</trkpt>
<trkpt lat="21.231722" lon="105.711906">
<ele>17.291275</ele>
<time>2011-04-29T09:03:40Z</time>
<desc>lat.=21.231722, lon.=105.711906, Alt.=17.291275m. Speed=40.860001m/h.</desc>
<speed>11.350000</speed>
</trkpt>
<trkpt lat="21.231949" lon="105.712433">
<ele>10.249886</ele>
<time>2011-04-29T09:03:45Z</time>
<desc>lat.=21.231949, lon.=105.712433, Alt.=10.249886m. Speed=43.740002m/h.</desc>
<speed>12.150000</speed>
</trkpt>
<trkpt lat="21.232176" lon="105.712975">
<ele>6.384953</ele>
<time>2011-04-29T09:03:50Z</time>
<desc>lat.=21.232176, lon.=105.712975, Alt.=6.384953m. Speed=43.091999m/h.</desc>
<speed>11.970000</speed>
</trkpt>
<trkpt lat="21.232391" lon="105.713486">
<ele>2.168856</ele>
<time>2011-04-29T09:03:55Z</time>
<desc>lat.=21.232391, lon.=105.713486, Alt.=2.168856m. Speed=42.084000m/h.</desc>
<speed>11.690000</speed>
</trkpt>
<trkpt lat="21.232603" lon="105.713997">
<ele>-2.155123</ele>
<time>2011-04-29T09:04:00Z</time>
<desc>lat.=21.232603, lon.=105.713997, Alt.=-2.155123m. Speed=43.344002m/h.</desc>
<speed>12.040000</speed>
</trkpt>
<trkpt lat="21.232821" lon="105.714523">
<ele>-6.244572</ele>
<time>2011-04-29T09:04:05Z</time>
<desc>lat.=21.232821, lon.=105.714523, Alt.=-6.244572m. Speed=42.551998m/h.</desc>
<speed>11.819999</speed>
</trkpt>
<trkpt lat="21.233032" lon="105.715042">
<ele>-8.168343</ele>
<time>2011-04-29T09:04:10Z</time>
<desc>lat.=21.233032, lon.=105.715042, Alt.=-8.168343m. Speed=41.040001m/h.</desc>
<speed>11.400000</speed>
</trkpt>
<trkpt lat="21.233269" lon="105.715591">
<ele>-5.717960</ele>
<time>2011-04-29T09:04:15Z</time>
<desc>lat.=21.233269, lon.=105.715591, Alt.=-5.717960m. Speed=43.776001m/h.</desc>
<speed>12.160000</speed>
</trkpt>
<trkpt lat="21.233467" lon="105.716072">
<ele>-7.353336</ele>
<time>2011-04-29T09:04:20Z</time>
<desc>lat.=21.233467, lon.=105.716072, Alt.=-7.353336m. Speed=40.680000m/h.</desc>
<speed>11.300000</speed>
</trkpt>
<trkpt lat="21.233681" lon="105.716576">
<ele>-5.752506</ele>
<time>2011-04-29T09:04:25Z</time>
<desc>lat.=21.233681, lon.=105.716576, Alt.=-5.752506m. Speed=39.492001m/h.</desc>
<speed>10.970000</speed>
</trkpt>
<trkpt lat="21.233877" lon="105.717056">
<ele>-6.193302</ele>
<time>2011-04-29T09:04:30Z</time>
<desc>lat.=21.233877, lon.=105.717056, Alt.=-6.193302m. Speed=39.060001m/h.</desc>
<speed>10.850000</speed>
</trkpt>
<trkpt lat="21.234083" lon="105.717545">
<ele>-7.379459</ele>
<time>2011-04-29T09:04:35Z</time>
<desc>lat.=21.234083, lon.=105.717545, Alt.=-7.379459m. Speed=40.860001m/h.</desc>
<speed>11.350000</speed>
</trkpt>
<trkpt lat="21.234320" lon="105.718010">
<ele>-7.065861</ele>
<time>2011-04-29T09:04:40Z</time>
<desc>lat.=21.234320, lon.=105.718010, Alt.=-7.065861m. Speed=41.543999m/h.</desc>
<speed>11.540000</speed>
</trkpt>
<trkpt lat="21.234634" lon="105.718513">
<ele>-6.072208</ele>
<time>2011-04-29T09:04:45Z</time>
<desc>lat.=21.234634, lon.=105.718513, Alt.=-6.072208m. Speed=47.556000m/h.</desc>
<speed>13.210000</speed>
</trkpt>
<trkpt lat="21.234955" lon="105.719032">
<ele>-6.446110</ele>
<time>2011-04-29T09:04:50Z</time>
<desc>lat.=21.234955, lon.=105.719032, Alt.=-6.446110m. Speed=43.956001m/h.</desc>
<speed>12.210000</speed>
</trkpt>
<trkpt lat="21.235275" lon="105.719543">
<ele>-4.844913</ele>
<time>2011-04-29T09:04:55Z</time>
<desc>lat.=21.235275, lon.=105.719543, Alt.=-4.844913m. Speed=43.740002m/h.</desc>
<speed>12.150000</speed>
</trkpt>
<trkpt lat="21.235575" lon="105.720001">
<ele>-3.453279</ele>
<time>2011-04-29T09:05:00Z</time>
<desc>lat.=21.235575, lon.=105.720001, Alt.=-3.453279m. Speed=39.023998m/h.</desc>
<speed>10.840000</speed>
</trkpt>
<trkpt lat="21.235863" lon="105.720428">
<ele>-4.454655</ele>
<time>2011-04-29T09:05:05Z</time>
<desc>lat.=21.235863, lon.=105.720428, Alt.=-4.454655m. Speed=37.403999m/h.</desc>
<speed>10.390000</speed>
</trkpt>
<trkpt lat="21.236132" lon="105.720833">
<ele>-4.890324</ele>
<time>2011-04-29T09:05:10Z</time>
<desc>lat.=21.236132, lon.=105.720833, Alt.=-4.890324m. Speed=36.540001m/h.</desc>
<speed>10.150000</speed>
</trkpt>
<trkpt lat="21.236422" lon="105.721275">
<ele>-5.386539</ele>
<time>2011-04-29T09:05:15Z</time>
<desc>lat.=21.236422, lon.=105.721275, Alt.=-5.386539m. Speed=38.304001m/h.</desc>
<speed>10.640000</speed>
</trkpt>
<trkpt lat="21.236671" lon="105.721695">
<ele>-4.379581</ele>
<time>2011-04-29T09:05:20Z</time>
<desc>lat.=21.236671, lon.=105.721695, Alt.=-4.379581m. Speed=35.279999m/h.</desc>
<speed>9.800000</speed>
</trkpt>
<trkpt lat="21.236893" lon="105.722076">
<ele>-3.856722</ele>
<time>2011-04-29T09:05:25Z</time>
<desc>lat.=21.236893, lon.=105.722076, Alt.=-3.856722m. Speed=33.480000m/h.</desc>
<speed>9.300000</speed>
</trkpt>
<trkpt lat="21.237062" lon="105.722420">
<ele>-6.186832</ele>
<time>2011-04-29T09:05:30Z</time>
<desc>lat.=21.237062, lon.=105.722420, Alt.=-6.186832m. Speed=31.320000m/h.</desc>
<speed>8.700000</speed>
</trkpt>
<trkpt lat="21.237257" lon="105.722794">
<ele>-8.530159</ele>
<time>2011-04-29T09:05:35Z</time>
<desc>lat.=21.237257, lon.=105.722794, Alt.=-8.530159m. Speed=30.851999m/h.</desc>
<speed>8.570000</speed>
</trkpt>
<trkpt lat="21.237467" lon="105.723167">
<ele>-7.277409</ele>
<time>2011-04-29T09:05:40Z</time>
<desc>lat.=21.237467, lon.=105.723167, Alt.=-7.277409m. Speed=32.327999m/h.</desc>
<speed>8.980000</speed>
</trkpt>
<trkpt lat="21.237663" lon="105.723549">
<ele>-6.694401</ele>
<time>2011-04-29T09:05:45Z</time>
<desc>lat.=21.237663, lon.=105.723549, Alt.=-6.694401m. Speed=30.384001m/h.</desc>
<speed>8.440000</speed>
</trkpt>
<trkpt lat="21.237856" lon="105.723946">
<ele>-2.803743</ele>
<time>2011-04-29T09:05:50Z</time>
<desc>lat.=21.237856, lon.=105.723946, Alt.=-2.803743m. Speed=33.084000m/h.</desc>
<speed>9.190000</speed>
</trkpt>
<trkpt lat="21.238049" lon="105.724350">
<ele>-2.139986</ele>
<time>2011-04-29T09:05:55Z</time>
<desc>lat.=21.238049, lon.=105.724350, Alt.=-2.139986m. Speed=35.855999m/h.</desc>
<speed>9.960000</speed>
</trkpt>
<trkpt lat="21.238234" lon="105.724808">
<ele>-1.425340</ele>
<time>2011-04-29T09:06:00Z</time>
<desc>lat.=21.238234, lon.=105.724808, Alt.=-1.425340m. Speed=37.548000m/h.</desc>
<speed>10.430000</speed>
</trkpt>
<trkpt lat="21.238430" lon="105.725273">
<ele>-1.971879</ele>
<time>2011-04-29T09:06:05Z</time>
<desc>lat.=21.238430, lon.=105.725273, Alt.=-1.971879m. Speed=37.655998m/h.</desc>
<speed>10.460000</speed>
</trkpt>
<trkpt lat="21.238602" lon="105.725739">
<ele>-3.115267</ele>
<time>2011-04-29T09:06:10Z</time>
<desc>lat.=21.238602, lon.=105.725739, Alt.=-3.115267m. Speed=38.448002m/h.</desc>
<speed>10.680001</speed>
</trkpt>
<trkpt lat="21.238760" lon="105.726189">
<ele>-4.406193</ele>
<time>2011-04-29T09:06:15Z</time>
<desc>lat.=21.238760, lon.=105.726189, Alt.=-4.406193m. Speed=34.848000m/h.</desc>
<speed>9.680000</speed>
</trkpt>
<trkpt lat="21.238932" lon="105.726624">
<ele>-3.132540</ele>
<time>2011-04-29T09:06:20Z</time>
<desc>lat.=21.238932, lon.=105.726624, Alt.=-3.132540m. Speed=36.576000m/h.</desc>
<speed>10.160000</speed>
</trkpt>
<trkpt lat="21.239101" lon="105.727058">
<ele>-3.510469</ele>
<time>2011-04-29T09:06:25Z</time>
<desc>lat.=21.239101, lon.=105.727058, Alt.=-3.510469m. Speed=34.307999m/h.</desc>
<speed>9.530000</speed>
</trkpt>
<trkpt lat="21.239244" lon="105.727501">
<ele>-3.324495</ele>
<time>2011-04-29T09:06:30Z</time>
<desc>lat.=21.239244, lon.=105.727501, Alt.=-3.324495m. Speed=34.667999m/h.</desc>
<speed>9.630000</speed>
</trkpt>
<trkpt lat="21.239431" lon="105.727936">
<ele>-3.682955</ele>
<time>2011-04-29T09:06:35Z</time>
<desc>lat.=21.239431, lon.=105.727936, Alt.=-3.682955m. Speed=32.580002m/h.</desc>
<speed>9.050001</speed>
</trkpt>
<trkpt lat="21.239595" lon="105.728355">
<ele>-3.393831</ele>
<time>2011-04-29T09:06:40Z</time>
<desc>lat.=21.239595, lon.=105.728355, Alt.=-3.393831m. Speed=33.768002m/h.</desc>
<speed>9.380000</speed>
</trkpt>
<trkpt lat="21.239740" lon="105.728783">
<ele>-3.152987</ele>
<time>2011-04-29T09:06:45Z</time>
<desc>lat.=21.239740, lon.=105.728783, Alt.=-3.152987m. Speed=33.048000m/h.</desc>
<speed>9.180000</speed>
</trkpt>
<trkpt lat="21.239834" lon="105.729141">
<ele>-5.436466</ele>
<time>2011-04-29T09:06:50Z</time>
<desc>lat.=21.239834, lon.=105.729141, Alt.=-5.436466m. Speed=24.264000m/h.</desc>
<speed>6.740000</speed>
</trkpt>
<trkpt lat="21.239933" lon="105.729500">
<ele>-4.124699</ele>
<time>2011-04-29T09:06:55Z</time>
<desc>lat.=21.239933, lon.=105.729500, Alt.=-4.124699m. Speed=31.176001m/h.</desc>
<speed>8.660000</speed>
</trkpt>
<trkpt lat="21.240004" lon="105.729919">
<ele>-3.469271</ele>
<time>2011-04-29T09:07:00Z</time>
<desc>lat.=21.240004, lon.=105.729919, Alt.=-3.469271m. Speed=35.028000m/h.</desc>
<speed>9.730000</speed>
</trkpt>
<trkpt lat="21.240021" lon="105.730408">
<ele>-2.753695</ele>
<time>2011-04-29T09:07:05Z</time>
<desc>lat.=21.240021, lon.=105.730408, Alt.=-2.753695m. Speed=35.604000m/h.</desc>
<speed>9.890000</speed>
</trkpt>
<trkpt lat="21.240017" lon="105.730881">
<ele>0.887536</ele>
<time>2011-04-29T09:07:10Z</time>
<desc>lat.=21.240017, lon.=105.730881, Alt.=0.887536m. Speed=34.307999m/h.</desc>
<speed>9.530000</speed>
</trkpt>
<trkpt lat="21.240030" lon="105.731346">
<ele>3.090181</ele>
<time>2011-04-29T09:07:15Z</time>
<desc>lat.=21.240030, lon.=105.731346, Alt.=3.090181m. Speed=32.796001m/h.</desc>
<speed>9.110000</speed>
</trkpt>
<trkpt lat="21.240042" lon="105.731781">
<ele>5.345402</ele>
<time>2011-04-29T09:07:20Z</time>
<desc>lat.=21.240042, lon.=105.731781, Alt.=5.345402m. Speed=31.427999m/h.</desc>
<speed>8.730000</speed>
</trkpt>
<trkpt lat="21.240051" lon="105.732208">
<ele>3.696199</ele>
<time>2011-04-29T09:07:25Z</time>
<desc>lat.=21.240051, lon.=105.732208, Alt.=3.696199m. Speed=30.851999m/h.</desc>
<speed>8.570000</speed>
</trkpt>
<trkpt lat="21.240074" lon="105.732651">
<ele>3.091890</ele>
<time>2011-04-29T09:07:30Z</time>
<desc>lat.=21.240074, lon.=105.732651, Alt.=3.091890m. Speed=33.948002m/h.</desc>
<speed>9.430001</speed>
</trkpt>
<trkpt lat="21.240103" lon="105.733154">
<ele>4.289127</ele>
<time>2011-04-29T09:07:35Z</time>
<desc>lat.=21.240103, lon.=105.733154, Alt.=4.289127m. Speed=36.180000m/h.</desc>
<speed>10.050000</speed>
</trkpt>
<trkpt lat="21.240101" lon="105.733612">
<ele>4.952946</ele>
<time>2011-04-29T09:07:40Z</time>
<desc>lat.=21.240101, lon.=105.733612, Alt.=4.952946m. Speed=36.863998m/h.</desc>
<speed>10.240000</speed>
</trkpt>
<trkpt lat="21.240103" lon="105.734116">
<ele>6.445744</ele>
<time>2011-04-29T09:07:45Z</time>
<desc>lat.=21.240103, lon.=105.734116, Alt.=6.445744m. Speed=38.556000m/h.</desc>
<speed>10.710000</speed>
</trkpt>
<trkpt lat="21.240107" lon="105.734627">
<ele>8.335579</ele>
<time>2011-04-29T09:07:50Z</time>
<desc>lat.=21.240107, lon.=105.734627, Alt.=8.335579m. Speed=37.332001m/h.</desc>
<speed>10.370000</speed>
</trkpt>
<trkpt lat="21.240120" lon="105.735115">
<ele>9.051888</ele>
<time>2011-04-29T09:07:55Z</time>
<desc>lat.=21.240120, lon.=105.735115, Alt.=9.051888m. Speed=37.007999m/h.</desc>
<speed>10.280000</speed>
</trkpt>
<trkpt lat="21.240158" lon="105.735634">
<ele>6.235416</ele>
<time>2011-04-29T09:08:00Z</time>
<desc>lat.=21.240158, lon.=105.735634, Alt.=6.235416m. Speed=39.852001m/h.</desc>
<speed>11.070000</speed>
</trkpt>
<trkpt lat="21.240173" lon="105.736176">
<ele>5.622135</ele>
<time>2011-04-29T09:08:05Z</time>
<desc>lat.=21.240173, lon.=105.736176, Alt.=5.622135m. Speed=40.535999m/h.</desc>
<speed>11.260000</speed>
</trkpt>
<trkpt lat="21.240187" lon="105.736748">
<ele>5.574894</ele>
<time>2011-04-29T09:08:10Z</time>
<desc>lat.=21.240187, lon.=105.736748, Alt.=5.574894m. Speed=43.667999m/h.</desc>
<speed>12.130000</speed>
</trkpt>
<trkpt lat="21.240206" lon="105.737312">
<ele>6.033634</ele>
<time>2011-04-29T09:08:15Z</time>
<desc>lat.=21.240206, lon.=105.737312, Alt.=6.033634m. Speed=42.119999m/h.</desc>
<speed>11.700000</speed>
</trkpt>
<trkpt lat="21.240219" lon="105.737839">
<ele>7.839909</ele>
<time>2011-04-29T09:08:20Z</time>
<desc>lat.=21.240219, lon.=105.737839, Alt.=7.839909m. Speed=34.271999m/h.</desc>
<speed>9.520000</speed>
</trkpt>
<trkpt lat="21.240175" lon="105.738251">
<ele>7.466862</ele>
<time>2011-04-29T09:08:25Z</time>
<desc>lat.=21.240175, lon.=105.738251, Alt.=7.466862m. Speed=29.771999m/h.</desc>
<speed>8.270000</speed>
</trkpt>
<trkpt lat="21.240170" lon="105.738617">
<ele>8.429817</ele>
<time>2011-04-29T09:08:30Z</time>
<desc>lat.=21.240170, lon.=105.738617, Alt.=8.429817m. Speed=21.636000m/h.</desc>
<speed>6.010000</speed>
</trkpt>
<trkpt lat="21.240168" lon="105.738770">
<ele>8.523079</ele>
<time>2011-04-29T09:08:35Z</time>
<desc>lat.=21.240168, lon.=105.738770, Alt.=8.523079m. Speed=3.060000m/h.</desc>
<speed>0.850000</speed>
</trkpt>
<trkpt lat="21.240170" lon="105.738815">
<ele>7.235416</ele>
<time>2011-04-29T09:08:40Z</time>
<desc>lat.=21.240170, lon.=105.738815, Alt.=7.235416m. Speed=5.256000m/h.</desc>
<speed>1.460000</speed>
</trkpt>
<trkpt lat="21.240173" lon="105.739006">
<ele>6.198917</ele>
<time>2011-04-29T09:08:45Z</time>
<desc>lat.=21.240173, lon.=105.739006, Alt.=6.198917m. Speed=17.892000m/h.</desc>
<speed>4.970000</speed>
</trkpt>
<trkpt lat="21.240150" lon="105.739326">
<ele>3.751802</ele>
<time>2011-04-29T09:08:50Z</time>
<desc>lat.=21.240150, lon.=105.739326, Alt.=3.751802m. Speed=28.115999m/h.</desc>
<speed>7.810000</speed>
</trkpt>
<trkpt lat="21.240046" lon="105.739754">
<ele>1.264298</ele>
<time>2011-04-29T09:08:55Z</time>
<desc>lat.=21.240046, lon.=105.739754, Alt.=1.264298m. Speed=33.804001m/h.</desc>
<speed>9.390000</speed>
</trkpt>
<trkpt lat="21.239857" lon="105.740181">
<ele>-1.020158</ele>
<time>2011-04-29T09:09:00Z</time>
<desc>lat.=21.239857, lon.=105.740181, Alt.=-1.020158m. Speed=35.243999m/h.</desc>
<speed>9.790000</speed>
</trkpt>
<trkpt lat="21.239613" lon="105.740593">
<ele>-1.343034</ele>
<time>2011-04-29T09:09:05Z</time>
<desc>lat.=21.239613, lon.=105.740593, Alt.=-1.343034m. Speed=32.616001m/h.</desc>
<speed>9.060000</speed>
</trkpt>
<trkpt lat="21.239376" lon="105.740944">
<ele>-0.897637</ele>
<time>2011-04-29T09:09:10Z</time>
<desc>lat.=21.239376, lon.=105.740944, Alt.=-0.897637m. Speed=29.916000m/h.</desc>
<speed>8.310000</speed>
</trkpt>
<trkpt lat="21.239155" lon="105.741234">
<ele>-2.660982</ele>
<time>2011-04-29T09:09:15Z</time>
<desc>lat.=21.239155, lon.=105.741234, Alt.=-2.660982m. Speed=26.459999m/h.</desc>
<speed>7.350000</speed>
</trkpt>
<trkpt lat="21.238958" lon="105.741493">
<ele>-4.125797</ele>
<time>2011-04-29T09:09:20Z</time>
<desc>lat.=21.238958, lon.=105.741493, Alt.=-4.125797m. Speed=23.652000m/h.</desc>
<speed>6.570000</speed>
</trkpt>
<trkpt lat="21.238770" lon="105.741745">
<ele>-5.622135</ele>
<time>2011-04-29T09:09:25Z</time>
<desc>lat.=21.238770, lon.=105.741745, Alt.=-5.622135m. Speed=27.396000m/h.</desc>
<speed>7.610000</speed>
</trkpt>
<trkpt lat="21.238535" lon="105.742073">
<ele>-4.889957</ele>
<time>2011-04-29T09:09:30Z</time>
<desc>lat.=21.238535, lon.=105.742073, Alt.=-4.889957m. Speed=32.652000m/h.</desc>
<speed>9.070000</speed>
</trkpt>
<trkpt lat="21.238268" lon="105.742447">
<ele>-2.760775</ele>
<time>2011-04-29T09:09:35Z</time>
<desc>lat.=21.238268, lon.=105.742447, Alt.=-2.760775m. Speed=38.375999m/h.</desc>
<speed>10.660000</speed>
</trkpt>
<trkpt lat="21.237955" lon="105.742882">
<ele>-1.552781</ele>
<time>2011-04-29T09:09:40Z</time>
<desc>lat.=21.237955, lon.=105.742882, Alt.=-1.552781m. Speed=42.084000m/h.</desc>
<speed>11.690000</speed>
</trkpt>
<trkpt lat="21.237602" lon="105.743355">
<ele>0.534111</ele>
<time>2011-04-29T09:09:45Z</time>
<desc>lat.=21.237602, lon.=105.743355, Alt.=0.534111m. Speed=46.872002m/h.</desc>
<speed>13.020000</speed>
</trkpt>
<trkpt lat="21.237225" lon="105.743896">
<ele>3.169466</ele>
<time>2011-04-29T09:09:50Z</time>
<desc>lat.=21.237225, lon.=105.743896, Alt.=3.169466m. Speed=51.588001m/h.</desc>
<speed>14.330000</speed>
</trkpt>
<trkpt lat="21.236900" lon="105.744461">
<ele>3.689425</ele>
<time>2011-04-29T09:09:55Z</time>
<desc>lat.=21.236900, lon.=105.744461, Alt.=3.689425m. Speed=50.400002m/h.</desc>
<speed>14.000000</speed>
</trkpt>
<trkpt lat="21.236582" lon="105.745041">
<ele>2.428133</ele>
<time>2011-04-29T09:10:00Z</time>
<desc>lat.=21.236582, lon.=105.745041, Alt.=2.428133m. Speed=50.292000m/h.</desc>
<speed>13.970000</speed>
</trkpt>
<trkpt lat="21.236252" lon="105.745628">
<ele>3.911654</ele>
<time>2011-04-29T09:10:05Z</time>
<desc>lat.=21.236252, lon.=105.745628, Alt.=3.911654m. Speed=50.040001m/h.</desc>
<speed>13.900000</speed>
</trkpt>
<trkpt lat="21.235937" lon="105.746185">
<ele>4.965763</ele>
<time>2011-04-29T09:10:10Z</time>
<desc>lat.=21.235937, lon.=105.746185, Alt.=4.965763m. Speed=49.896000m/h.</desc>
<speed>13.860000</speed>
</trkpt>
<trkpt lat="21.235590" lon="105.746758">
<ele>4.091984</ele>
<time>2011-04-29T09:10:15Z</time>
<desc>lat.=21.235590, lon.=105.746758, Alt.=4.091984m. Speed=54.000000m/h.</desc>
<speed>15.000000</speed>
</trkpt>
<trkpt lat="21.235210" lon="105.747360">
<ele>3.788301</ele>
<time>2011-04-29T09:10:20Z</time>
<desc>lat.=21.235210, lon.=105.747360, Alt.=3.788301m. Speed=54.035999m/h.</desc>
<speed>15.010000</speed>
</trkpt>
<trkpt lat="21.234840" lon="105.747910">
<ele>3.747469</ele>
<time>2011-04-29T09:10:25Z</time>
<desc>lat.=21.234840, lon.=105.747910, Alt.=3.747469m. Speed=49.320000m/h.</desc>
<speed>13.700000</speed>
</trkpt>
<trkpt lat="21.234507" lon="105.748398">
<ele>4.535831</ele>
<time>2011-04-29T09:10:30Z</time>
<desc>lat.=21.234507, lon.=105.748398, Alt.=4.535831m. Speed=43.127998m/h.</desc>
<speed>11.980000</speed>
</trkpt>
<trkpt lat="21.234234" lon="105.748825">
<ele>3.190462</ele>
<time>2011-04-29T09:10:35Z</time>
<desc>lat.=21.234234, lon.=105.748825, Alt.=3.190462m. Speed=37.872002m/h.</desc>
<speed>10.520000</speed>
</trkpt>
<trkpt lat="21.233959" lon="105.749245">
<ele>3.964327</ele>
<time>2011-04-29T09:10:40Z</time>
<desc>lat.=21.233959, lon.=105.749245, Alt.=3.964327m. Speed=41.327999m/h.</desc>
<speed>11.480000</speed>
</trkpt>
<trkpt lat="21.233662" lon="105.749695">
<ele>3.332064</ele>
<time>2011-04-29T09:10:45Z</time>
<desc>lat.=21.233662, lon.=105.749695, Alt.=3.332064m. Speed=43.703999m/h.</desc>
<speed>12.140000</speed>
</trkpt>
<trkpt lat="21.233360" lon="105.750214">
<ele>1.360490</ele>
<time>2011-04-29T09:10:50Z</time>
<desc>lat.=21.233360, lon.=105.750214, Alt.=1.360490m. Speed=45.576000m/h.</desc>
<speed>12.660000</speed>
</trkpt>
<trkpt lat="21.233112" lon="105.750771">
<ele>3.650972</ele>
<time>2011-04-29T09:10:55Z</time>
<desc>lat.=21.233112, lon.=105.750771, Alt.=3.650972m. Speed=46.944000m/h.</desc>
<speed>13.040000</speed>
</trkpt>
<trkpt lat="21.232904" lon="105.751312">
<ele>3.084322</ele>
<time>2011-04-29T09:11:00Z</time>
<desc>lat.=21.232904, lon.=105.751312, Alt.=3.084322m. Speed=43.956001m/h.</desc>
<speed>12.210000</speed>
</trkpt>
<trkpt lat="21.232700" lon="105.751884">
<ele>1.349656</ele>
<time>2011-04-29T09:11:05Z</time>
<desc>lat.=21.232700, lon.=105.751884, Alt.=1.349656m. Speed=48.383999m/h.</desc>
<speed>13.440000</speed>
</trkpt>
<trkpt lat="21.232496" lon="105.752510">
<ele>0.377018</ele>
<time>2011-04-29T09:11:10Z</time>
<desc>lat.=21.232496, lon.=105.752510, Alt.=0.377018m. Speed=50.220001m/h.</desc>
<speed>13.950000</speed>
</trkpt>
<trkpt lat="21.232279" lon="105.753113">
<ele>-0.525582</ele>
<time>2011-04-29T09:11:15Z</time>
<desc>lat.=21.232279, lon.=105.753113, Alt.=-0.525582m. Speed=51.192001m/h.</desc>
<speed>14.220000</speed>
</trkpt>
<trkpt lat="21.232052" lon="105.753769">
<ele>-0.223356</ele>
<time>2011-04-29T09:11:20Z</time>
<desc>lat.=21.232052, lon.=105.753769, Alt.=-0.223356m. Speed=55.152000m/h.</desc>
<speed>15.320000</speed>
</trkpt>
<trkpt lat="21.231794" lon="105.754463">
<ele>-0.694497</ele>
<time>2011-04-29T09:11:25Z</time>
<desc>lat.=21.231794, lon.=105.754463, Alt.=-0.694497m. Speed=54.683998m/h.</desc>
<speed>15.189999</speed>
</trkpt>
<trkpt lat="21.231560" lon="105.755135">
<ele>-0.542229</ele>
<time>2011-04-29T09:11:30Z</time>
<desc>lat.=21.231560, lon.=105.755135, Alt.=-0.542229m. Speed=51.911999m/h.</desc>
<speed>14.420000</speed>
</trkpt>
<trkpt lat="21.231297" lon="105.755768">
<ele>1.084886</ele>
<time>2011-04-29T09:11:35Z</time>
<desc>lat.=21.231297, lon.=105.755768, Alt.=1.084886m. Speed=50.723999m/h.</desc>
<speed>14.090000</speed>
</trkpt>
<trkpt lat="21.230997" lon="105.756355">
<ele>3.054903</ele>
<time>2011-04-29T09:11:40Z</time>
<desc>lat.=21.230997, lon.=105.756355, Alt.=3.054903m. Speed=50.652000m/h.</desc>
<speed>14.070000</speed>
</trkpt>
<trkpt lat="21.230604" lon="105.756935">
<ele>4.724552</ele>
<time>2011-04-29T09:11:45Z</time>
<desc>lat.=21.230604, lon.=105.756935, Alt.=4.724552m. Speed=55.548000m/h.</desc>
<speed>15.430000</speed>
</trkpt>
<trkpt lat="21.230211" lon="105.757492">
<ele>4.606022</ele>
<time>2011-04-29T09:11:50Z</time>
<desc>lat.=21.230211, lon.=105.757492, Alt.=4.606022m. Speed=50.796001m/h.</desc>
<speed>14.110000</speed>
</trkpt>
<trkpt lat="21.229811" lon="105.758041">
<ele>5.511662</ele>
<time>2011-04-29T09:11:55Z</time>
<desc>lat.=21.229811, lon.=105.758041, Alt.=5.511662m. Speed=52.200001m/h.</desc>
<speed>14.500000</speed>
</trkpt>
<trkpt lat="21.229416" lon="105.758575">
<ele>5.818058</ele>
<time>2011-04-29T09:12:00Z</time>
<desc>lat.=21.229416, lon.=105.758575, Alt.=5.818058m. Speed=49.032001m/h.</desc>
<speed>13.620000</speed>
</trkpt>
<trkpt lat="21.229053" lon="105.759071">
<ele>5.145329</ele>
<time>2011-04-29T09:12:05Z</time>
<desc>lat.=21.229053, lon.=105.759071, Alt.=5.145329m. Speed=49.068001m/h.</desc>
<speed>13.630000</speed>
</trkpt>
<trkpt lat="21.228668" lon="105.759590">
<ele>5.465519</ele>
<time>2011-04-29T09:12:10Z</time>
<desc>lat.=21.228668, lon.=105.759590, Alt.=5.465519m. Speed=50.976002m/h.</desc>
<speed>14.160000</speed>
</trkpt>
<trkpt lat="21.228287" lon="105.760147">
<ele>5.179630</ele>
<time>2011-04-29T09:12:15Z</time>
<desc>lat.=21.228287, lon.=105.760147, Alt.=5.179630m. Speed=50.112000m/h.</desc>
<speed>13.920000</speed>
</trkpt>
<trkpt lat="21.227890" lon="105.760696">
<ele>3.841280</ele>
<time>2011-04-29T09:12:20Z</time>
<desc>lat.=21.227890, lon.=105.760696, Alt.=3.841280m. Speed=51.588001m/h.</desc>
<speed>14.330000</speed>
</trkpt>
<trkpt lat="21.227505" lon="105.761230">
<ele>4.617741</ele>
<time>2011-04-29T09:12:25Z</time>
<desc>lat.=21.227505, lon.=105.761230, Alt.=4.617741m. Speed=49.355999m/h.</desc>
<speed>13.710000</speed>
</trkpt>
<trkpt lat="21.227139" lon="105.761765">
<ele>7.283268</ele>
<time>2011-04-29T09:12:30Z</time>
<desc>lat.=21.227139, lon.=105.761765, Alt.=7.283268m. Speed=48.528000m/h.</desc>
<speed>13.480000</speed>
</trkpt>
<trkpt lat="21.226828" lon="105.762215">
<ele>8.057991</ele>
<time>2011-04-29T09:12:35Z</time>
<desc>lat.=21.226828, lon.=105.762215, Alt.=8.057991m. Speed=34.596001m/h.</desc>
<speed>9.610000</speed>
</trkpt>
<trkpt lat="21.226631" lon="105.762482">
<ele>9.057503</ele>
<time>2011-04-29T09:12:40Z</time>
<desc>lat.=21.226631, lon.=105.762482, Alt.=9.057503m. Speed=19.224001m/h.</desc>
<speed>5.340000</speed>
</trkpt>
<trkpt lat="21.226553" lon="105.762604">
<ele>9.588264</ele>
<time>2011-04-29T09:12:45Z</time>
<desc>lat.=21.226553, lon.=105.762604, Alt.=9.588264m. Speed=7.920000m/h.</desc>
<speed>2.200000</speed>
</trkpt>
<trkpt lat="21.226484" lon="105.762718">
<ele>10.114388</ele>
<time>2011-04-29T09:12:50Z</time>
<desc>lat.=21.226484, lon.=105.762718, Alt.=10.114388m. Speed=16.488001m/h.</desc>
<speed>4.580000</speed>
</trkpt>
<trkpt lat="21.226299" lon="105.762978">
<ele>10.492805</ele>
<time>2011-04-29T09:12:55Z</time>
<desc>lat.=21.226299, lon.=105.762978, Alt.=10.492805m. Speed=27.900000m/h.</desc>
<speed>7.750000</speed>
</trkpt>
<trkpt lat="21.226053" lon="105.763344">
<ele>12.035042</ele>
<time>2011-04-29T09:13:00Z</time>
<desc>lat.=21.226053, lon.=105.763344, Alt.=12.035042m. Speed=40.212002m/h.</desc>
<speed>11.170001</speed>
</trkpt>
<trkpt lat="21.225727" lon="105.763779">
<ele>12.650032</ele>
<time>2011-04-29T09:13:05Z</time>
<desc>lat.=21.225727, lon.=105.763779, Alt.=12.650032m. Speed=42.695999m/h.</desc>
<speed>11.860000</speed>
</trkpt>
<trkpt lat="21.225412" lon="105.764221">
<ele>12.565071</ele>
<time>2011-04-29T09:13:10Z</time>
<desc>lat.=21.225412, lon.=105.764221, Alt.=12.565071m. Speed=43.271999m/h.</desc>
<speed>12.020000</speed>
</trkpt>
<trkpt lat="21.225063" lon="105.764702">
<ele>12.539680</ele>
<time>2011-04-29T09:13:15Z</time>
<desc>lat.=21.225063, lon.=105.764702, Alt.=12.539680m. Speed=46.728001m/h.</desc>
<speed>12.980000</speed>
</trkpt>
<trkpt lat="21.224714" lon="105.765213">
<ele>12.460335</ele>
<time>2011-04-29T09:13:20Z</time>
<desc>lat.=21.224714, lon.=105.765213, Alt.=12.460335m. Speed=46.332001m/h.</desc>
<speed>12.870000</speed>
</trkpt>
<trkpt lat="21.224346" lon="105.765755">
<ele>12.134407</ele>
<time>2011-04-29T09:13:25Z</time>
<desc>lat.=21.224346, lon.=105.765755, Alt.=12.134407m. Speed=50.400002m/h.</desc>
<speed>14.000000</speed>
</trkpt>
<trkpt lat="21.223967" lon="105.766281">
<ele>12.074593</ele>
<time>2011-04-29T09:13:30Z</time>
<desc>lat.=21.223967, lon.=105.766281, Alt.=12.074593m. Speed=49.355999m/h.</desc>
<speed>13.710000</speed>
</trkpt>
<trkpt lat="21.223610" lon="105.766792">
<ele>12.591194</ele>
<time>2011-04-29T09:13:35Z</time>
<desc>lat.=21.223610, lon.=105.766792, Alt.=12.591194m. Speed=44.820000m/h.</desc>
<speed>12.450000</speed>
</trkpt>
<trkpt lat="21.223284" lon="105.767250">
<ele>11.650764</ele>
<time>2011-04-29T09:13:40Z</time>
<desc>lat.=21.223284, lon.=105.767250, Alt.=11.650764m. Speed=41.939999m/h.</desc>
<speed>11.650000</speed>
</trkpt>
<trkpt lat="21.223000" lon="105.767670">
<ele>12.630013</ele>
<time>2011-04-29T09:13:45Z</time>
<desc>lat.=21.223000, lon.=105.767670, Alt.=12.630013m. Speed=36.647999m/h.</desc>
<speed>10.180000</speed>
</trkpt>
<trkpt lat="21.222723" lon="105.768044">
<ele>12.553108</ele>
<time>2011-04-29T09:13:50Z</time>
<desc>lat.=21.222723, lon.=105.768044, Alt.=12.553108m. Speed=33.624001m/h.</desc>
<speed>9.340000</speed>
</trkpt>
<trkpt lat="21.222496" lon="105.768402">
<ele>11.474495</ele>
<time>2011-04-29T09:13:55Z</time>
<desc>lat.=21.222496, lon.=105.768402, Alt.=11.474495m. Speed=31.931999m/h.</desc>
<speed>8.870000</speed>
</trkpt>
<trkpt lat="21.222282" lon="105.768723">
<ele>8.963997</ele>
<time>2011-04-29T09:14:00Z</time>
<desc>lat.=21.222282, lon.=105.768723, Alt.=8.963997m. Speed=25.379999m/h.</desc>
<speed>7.050000</speed>
</trkpt>
<trkpt lat="21.222111" lon="105.768967">
<ele>7.283756</ele>
<time>2011-04-29T09:14:05Z</time>
<desc>lat.=21.222111, lon.=105.768967, Alt.=7.283756m. Speed=20.340000m/h.</desc>
<speed>5.650000</speed>
</trkpt>
<trkpt lat="21.221989" lon="105.769150">
<ele>7.152531</ele>
<time>2011-04-29T09:14:10Z</time>
<desc>lat.=21.221989, lon.=105.769150, Alt.=7.152531m. Speed=11.844000m/h.</desc>
<speed>3.290000</speed>
</trkpt>
<trkpt lat="21.221926" lon="105.769234">
<ele>7.027531</ele>
<time>2011-04-29T09:14:15Z</time>
<desc>lat.=21.221926, lon.=105.769234, Alt.=7.027531m. Speed=5.436000m/h.</desc>
<speed>1.510000</speed>
</trkpt>
<trkpt lat="21.221844" lon="105.769348">
<ele>6.516300</ele>
<time>2011-04-29T09:14:20Z</time>
<desc>lat.=21.221844, lon.=105.769348, Alt.=6.516300m. Speed=10.584000m/h.</desc>
<speed>2.940000</speed>
</trkpt>
<trkpt lat="21.221796" lon="105.769440">
<ele>5.965641</ele>
<time>2011-04-29T09:14:25Z</time>
<desc>lat.=21.221796, lon.=105.769440, Alt.=5.965641m. Speed=6.948000m/h.</desc>
<speed>1.930000</speed>
</trkpt>
<trkpt lat="21.221722" lon="105.769531">
<ele>3.687654</ele>
<time>2011-04-29T09:14:30Z</time>
<desc>lat.=21.221722, lon.=105.769531, Alt.=3.687654m. Speed=9.936000m/h.</desc>
<speed>2.760000</speed>
</trkpt>
<trkpt lat="21.221643" lon="105.769630">
<ele>3.361544</ele>
<time>2011-04-29T09:14:35Z</time>
<desc>lat.=21.221643, lon.=105.769630, Alt.=3.361544m. Speed=7.056000m/h.</desc>
<speed>1.960000</speed>
</trkpt>
<trkpt lat="21.221581" lon="105.769707">
<ele>4.782902</ele>
<time>2011-04-29T09:14:40Z</time>
<desc>lat.=21.221581, lon.=105.769707, Alt.=4.782902m. Speed=8.712000m/h.</desc>
<speed>2.420000</speed>
</trkpt>
<trkpt lat="21.221506" lon="105.769814">
<ele>5.680607</ele>
<time>2011-04-29T09:14:45Z</time>
<desc>lat.=21.221506, lon.=105.769814, Alt.=5.680607m. Speed=7.308000m/h.</desc>
<speed>2.030000</speed>
</trkpt>
<trkpt lat="21.221436" lon="105.769943">
<ele>5.835392</ele>
<time>2011-04-29T09:14:50Z</time>
<desc>lat.=21.221436, lon.=105.769943, Alt.=5.835392m. Speed=8.172000m/h.</desc>
<speed>2.270000</speed>
</trkpt>
<trkpt lat="21.221357" lon="105.770058">
<ele>4.355656</ele>
<time>2011-04-29T09:14:55Z</time>
<desc>lat.=21.221357, lon.=105.770058, Alt.=4.355656m. Speed=9.396000m/h.</desc>
<speed>2.610000</speed>
</trkpt>
<trkpt lat="21.221268" lon="105.770172">
<ele>2.962923</ele>
<time>2011-04-29T09:15:00Z</time>
<desc>lat.=21.221268, lon.=105.770172, Alt.=2.962923m. Speed=8.640000m/h.</desc>
<speed>2.400000</speed>
</trkpt>
<trkpt lat="21.221176" lon="105.770309">
<ele>3.139376</ele>
<time>2011-04-29T09:15:05Z</time>
<desc>lat.=21.221176, lon.=105.770309, Alt.=3.139376m. Speed=11.592000m/h.</desc>
<speed>3.220000</speed>
</trkpt>
<trkpt lat="21.221098" lon="105.770447">
<ele>3.281893</ele>
<time>2011-04-29T09:15:10Z</time>
<desc>lat.=21.221098, lon.=105.770447, Alt.=3.281893m. Speed=9.396000m/h.</desc>
<speed>2.610000</speed>
</trkpt>
<trkpt lat="21.221041" lon="105.770561">
<ele>5.180119</ele>
<time>2011-04-29T09:15:15Z</time>
<desc>lat.=21.221041, lon.=105.770561, Alt.=5.180119m. Speed=9.540000m/h.</desc>
<speed>2.650000</speed>
</trkpt>
<trkpt lat="21.220997" lon="105.770645">
<ele>6.114811</ele>
<time>2011-04-29T09:15:20Z</time>
<desc>lat.=21.220997, lon.=105.770645, Alt.=6.114811m. Speed=2.808000m/h.</desc>
<speed>0.780000</speed>
</trkpt>
<trkpt lat="21.220989" lon="105.770668">
<ele>6.611027</ele>
<time>2011-04-29T09:15:25Z</time>
<desc>lat.=21.220989, lon.=105.770668, Alt.=6.611027m. Speed=2.520000m/h.</desc>
<speed>0.700000</speed>
</trkpt>
<trkpt lat="21.220936" lon="105.770767">
<ele>7.574406</ele>
<time>2011-04-29T09:15:30Z</time>
<desc>lat.=21.220936, lon.=105.770767, Alt.=7.574406m. Speed=8.820000m/h.</desc>
<speed>2.450000</speed>
</trkpt>
<trkpt lat="21.220881" lon="105.770866">
<ele>8.305550</ele>
<time>2011-04-29T09:15:35Z</time>
<desc>lat.=21.220881, lon.=105.770866, Alt.=8.305550m. Speed=6.408000m/h.</desc>
<speed>1.780000</speed>
</trkpt>
<trkpt lat="21.220823" lon="105.771004">
<ele>10.028206</ele>
<time>2011-04-29T09:15:40Z</time>
<desc>lat.=21.220823, lon.=105.771004, Alt.=10.028206m. Speed=12.276000m/h.</desc>
<speed>3.410000</speed>
</trkpt>
<trkpt lat="21.220697" lon="105.771217">
<ele>11.157600</ele>
<time>2011-04-29T09:15:45Z</time>
<desc>lat.=21.220697, lon.=105.771217, Alt.=11.157600m. Speed=19.548000m/h.</desc>
<speed>5.430000</speed>
</trkpt>
<trkpt lat="21.220493" lon="105.771515">
<ele>8.959846</ele>
<time>2011-04-29T09:15:50Z</time>
<desc>lat.=21.220493, lon.=105.771515, Alt.=8.959846m. Speed=27.540001m/h.</desc>
<speed>7.650000</speed>
</trkpt>
<trkpt lat="21.220278" lon="105.771858">
<ele>8.894417</ele>
<time>2011-04-29T09:15:55Z</time>
<desc>lat.=21.220278, lon.=105.771858, Alt.=8.894417m. Speed=30.600000m/h.</desc>
<speed>8.500000</speed>
</trkpt>
<trkpt lat="21.220062" lon="105.772217">
<ele>7.814274</ele>
<time>2011-04-29T09:16:00Z</time>
<desc>lat.=21.220062, lon.=105.772217, Alt.=7.814274m. Speed=30.132000m/h.</desc>
<speed>8.370000</speed>
</trkpt>
<trkpt lat="21.219873" lon="105.772545">
<ele>7.799137</ele>
<time>2011-04-29T09:16:05Z</time>
<desc>lat.=21.219873, lon.=105.772545, Alt.=7.799137m. Speed=25.488001m/h.</desc>
<speed>7.080000</speed>
</trkpt>
<trkpt lat="21.219694" lon="105.772804">
<ele>7.224552</ele>
<time>2011-04-29T09:16:10Z</time>
<desc>lat.=21.219694, lon.=105.772804, Alt.=7.224552m. Speed=22.931999m/h.</desc>
<speed>6.370000</speed>
</trkpt>
<trkpt lat="21.219448" lon="105.772957">
<ele>6.588078</ele>
<time>2011-04-29T09:16:15Z</time>
<desc>lat.=21.219448, lon.=105.772957, Alt.=6.588078m. Speed=21.996000m/h.</desc>
<speed>6.110000</speed>
</trkpt>
<trkpt lat="21.219133" lon="105.773018">
<ele>6.070744</ele>
<time>2011-04-29T09:16:20Z</time>
<desc>lat.=21.219133, lon.=105.773018, Alt.=6.070744m. Speed=28.548000m/h.</desc>
<speed>7.930000</speed>
</trkpt>
<trkpt lat="21.218801" lon="105.773193">
<ele>7.474186</ele>
<time>2011-04-29T09:16:25Z</time>
<desc>lat.=21.218801, lon.=105.773193, Alt.=7.474186m. Speed=23.760000m/h.</desc>
<speed>6.600000</speed>
</trkpt>
<trkpt lat="21.218708" lon="105.773315">
<ele>6.110661</ele>
<time>2011-04-29T09:16:30Z</time>
<desc>lat.=21.218708, lon.=105.773315, Alt.=6.110661m. Speed=7.272000m/h.</desc>
<speed>2.020000</speed>
</trkpt>
<trkpt lat="21.218681" lon="105.773399">
<ele>5.177433</ele>
<time>2011-04-29T09:16:35Z</time>
<desc>lat.=21.218681, lon.=105.773399, Alt.=5.177433m. Speed=8.892000m/h.</desc>
<speed>2.470000</speed>
</trkpt>
<trkpt lat="21.218643" lon="105.773529">
<ele>6.098942</ele>
<time>2011-04-29T09:16:40Z</time>
<desc>lat.=21.218643, lon.=105.773529, Alt.=6.098942m. Speed=11.772000m/h.</desc>
<speed>3.270000</speed>
</trkpt>
<trkpt lat="21.218636" lon="105.773735">
<ele>8.229866</ele>
<time>2011-04-29T09:16:45Z</time>
<desc>lat.=21.218636, lon.=105.773735, Alt.=8.229866m. Speed=16.020000m/h.</desc>
<speed>4.450000</speed>
</trkpt>
<trkpt lat="21.218681" lon="105.773949">
<ele>5.498356</ele>
<time>2011-04-29T09:16:50Z</time>
<desc>lat.=21.218681, lon.=105.773949, Alt.=5.498356m. Speed=19.224001m/h.</desc>
<speed>5.340000</speed>
</trkpt>
<trkpt lat="21.218752" lon="105.774170">
<ele>5.281071</ele>
<time>2011-04-29T09:16:55Z</time>
<desc>lat.=21.218752, lon.=105.774170, Alt.=5.281071m. Speed=17.712000m/h.</desc>
<speed>4.920000</speed>
</trkpt>
<trkpt lat="21.218712" lon="105.774399">
<ele>3.805819</ele>
<time>2011-04-29T09:17:00Z</time>
<desc>lat.=21.218712, lon.=105.774399, Alt.=3.805819m. Speed=21.096001m/h.</desc>
<speed>5.860000</speed>
</trkpt>
<trkpt lat="21.218557" lon="105.774712">
<ele>4.220158</ele>
<time>2011-04-29T09:17:05Z</time>
<desc>lat.=21.218557, lon.=105.774712, Alt.=4.220158m. Speed=26.747999m/h.</desc>
<speed>7.430000</speed>
</trkpt>
<trkpt lat="21.218374" lon="105.775047">
<ele>5.337101</ele>
<time>2011-04-29T09:17:10Z</time>
<desc>lat.=21.218374, lon.=105.775047, Alt.=5.337101m. Speed=30.924000m/h.</desc>
<speed>8.590000</speed>
</trkpt>
<trkpt lat="21.218153" lon="105.775436">
<ele>6.113346</ele>
<time>2011-04-29T09:17:15Z</time>
<desc>lat.=21.218153, lon.=105.775436, Alt.=6.113346m. Speed=33.155998m/h.</desc>
<speed>9.210000</speed>
</trkpt>
<trkpt lat="21.217932" lon="105.775833">
<ele>6.681461</ele>
<time>2011-04-29T09:17:20Z</time>
<desc>lat.=21.217932, lon.=105.775833, Alt.=6.681461m. Speed=35.316002m/h.</desc>
<speed>9.810001</speed>
</trkpt>
<trkpt lat="21.217705" lon="105.776245">
<ele>6.777775</ele>
<time>2011-04-29T09:17:25Z</time>
<desc>lat.=21.217705, lon.=105.776245, Alt.=6.777775m. Speed=37.655998m/h.</desc>
<speed>10.460000</speed>
</trkpt>
<trkpt lat="21.217447" lon="105.776703">
<ele>5.555607</ele>
<time>2011-04-29T09:17:30Z</time>
<desc>lat.=21.217447, lon.=105.776703, Alt.=5.555607m. Speed=38.771999m/h.</desc>
<speed>10.770000</speed>
</trkpt>
<trkpt lat="21.217194" lon="105.777130">
<ele>1.937028</ele>
<time>2011-04-29T09:17:35Z</time>
<desc>lat.=21.217194, lon.=105.777130, Alt.=1.937028m. Speed=36.396000m/h.</desc>
<speed>10.110000</speed>
</trkpt>
<trkpt lat="21.216963" lon="105.777496">
<ele>1.780961</ele>
<time>2011-04-29T09:17:40Z</time>
<desc>lat.=21.216963, lon.=105.777496, Alt.=1.780961m. Speed=29.016001m/h.</desc>
<speed>8.060000</speed>
</trkpt>
<trkpt lat="21.216812" lon="105.777702">
<ele>5.186954</ele>
<time>2011-04-29T09:17:45Z</time>
<desc>lat.=21.216812, lon.=105.777702, Alt.=5.186954m. Speed=8.424000m/h.</desc>
<speed>2.340000</speed>
</trkpt>
<trkpt lat="21.216799" lon="105.777718">
<ele>5.700748</ele>
<time>2011-04-29T09:17:50Z</time>
<desc>lat.=21.216799, lon.=105.777718, Alt.=5.700748m. Speed=0.684000m/h.</desc>
<speed>0.190000</speed>
</trkpt>
<trkpt lat="21.216789" lon="105.777740">
<ele>6.003971</ele>
<time>2011-04-29T09:17:55Z</time>
<desc>lat.=21.216789, lon.=105.777740, Alt.=6.003971m. Speed=4.680000m/h.</desc>
<speed>1.300000</speed>
</trkpt>
<trkpt lat="21.216692" lon="105.777878">
<ele>5.605656</ele>
<time>2011-04-29T09:18:00Z</time>
<desc>lat.=21.216692, lon.=105.777878, Alt.=5.605656m. Speed=17.856001m/h.</desc>
<speed>4.960000</speed>
</trkpt>
<trkpt lat="21.216518" lon="105.778114">
<ele>4.087101</ele>
<time>2011-04-29T09:18:05Z</time>
<desc>lat.=21.216518, lon.=105.778114, Alt.=4.087101m. Speed=24.875999m/h.</desc>
<speed>6.910000</speed>
</trkpt>
<trkpt lat="21.216270" lon="105.778336">
<ele>3.741121</ele>
<time>2011-04-29T09:18:10Z</time>
<desc>lat.=21.216270, lon.=105.778336, Alt.=3.741121m. Speed=24.444000m/h.</desc>
<speed>6.790000</speed>
</trkpt>
<trkpt lat="21.215960" lon="105.778412">
<ele>3.814669</ele>
<time>2011-04-29T09:18:15Z</time>
<desc>lat.=21.215960, lon.=105.778412, Alt.=3.814669m. Speed=24.840000m/h.</desc>
<speed>6.900000</speed>
</trkpt>
<trkpt lat="21.215635" lon="105.778465">
<ele>5.873478</ele>
<time>2011-04-29T09:18:20Z</time>
<desc>lat.=21.215635, lon.=105.778465, Alt.=5.873478m. Speed=26.820000m/h.</desc>
<speed>7.450000</speed>
</trkpt>
<trkpt lat="21.215229" lon="105.778526">
<ele>7.097477</ele>
<time>2011-04-29T09:18:25Z</time>
<desc>lat.=21.215229, lon.=105.778526, Alt.=7.097477m. Speed=32.903999m/h.</desc>
<speed>9.140000</speed>
</trkpt>
<trkpt lat="21.214781" lon="105.778580">
<ele>8.364388</ele>
<time>2011-04-29T09:18:30Z</time>
<desc>lat.=21.214781, lon.=105.778580, Alt.=8.364388m. Speed=36.071999m/h.</desc>
<speed>10.020000</speed>
</trkpt>
<trkpt lat="21.214302" lon="105.778648">
<ele>10.086800</ele>
<time>2011-04-29T09:18:35Z</time>
<desc>lat.=21.214302, lon.=105.778648, Alt.=10.086800m. Speed=40.248001m/h.</desc>
<speed>11.180000</speed>
</trkpt>
<trkpt lat="21.213785" lon="105.778717">
<ele>11.365852</ele>
<time>2011-04-29T09:18:40Z</time>
<desc>lat.=21.213785, lon.=105.778717, Alt.=11.365852m. Speed=42.984001m/h.</desc>
<speed>11.940000</speed>
</trkpt>
<trkpt lat="21.213243" lon="105.778793">
<ele>11.453499</ele>
<time>2011-04-29T09:18:45Z</time>
<desc>lat.=21.213243, lon.=105.778793, Alt.=11.453499m. Speed=43.056000m/h.</desc>
<speed>11.960000</speed>
</trkpt>
<trkpt lat="21.212706" lon="105.778847">
<ele>9.763557</ele>
<time>2011-04-29T09:18:50Z</time>
<desc>lat.=21.212706, lon.=105.778847, Alt.=9.763557m. Speed=44.172001m/h.</desc>
<speed>12.270000</speed>
</trkpt>
<trkpt lat="21.212149" lon="105.778893">
<ele>10.327522</ele>
<time>2011-04-29T09:18:55Z</time>
<desc>lat.=21.212149, lon.=105.778893, Alt.=10.327522m. Speed=45.756001m/h.</desc>
<speed>12.710000</speed>
</trkpt>
<trkpt lat="21.211565" lon="105.778954">
<ele>11.014290</ele>
<time>2011-04-29T09:19:00Z</time>
<desc>lat.=21.211565, lon.=105.778954, Alt.=11.014290m. Speed=47.987999m/h.</desc>
<speed>13.330000</speed>
</trkpt>
<trkpt lat="21.210966" lon="105.779015">
<ele>9.094612</ele>
<time>2011-04-29T09:19:05Z</time>
<desc>lat.=21.210966, lon.=105.779015, Alt.=9.094612m. Speed=48.132000m/h.</desc>
<speed>13.370000</speed>
</trkpt>
<trkpt lat="21.210373" lon="105.779091">
<ele>8.867073</ele>
<time>2011-04-29T09:19:10Z</time>
<desc>lat.=21.210373, lon.=105.779091, Alt.=8.867073m. Speed=49.284000m/h.</desc>
<speed>13.690000</speed>
</trkpt>
<trkpt lat="21.209784" lon="105.779160">
<ele>9.172005</ele>
<time>2011-04-29T09:19:15Z</time>
<desc>lat.=21.209784, lon.=105.779160, Alt.=9.172005m. Speed=45.180000m/h.</desc>
<speed>12.550000</speed>
</trkpt>
<trkpt lat="21.209202" lon="105.779213">
<ele>9.417854</ele>
<time>2011-04-29T09:19:20Z</time>
<desc>lat.=21.209202, lon.=105.779213, Alt.=9.417854m. Speed=43.956001m/h.</desc>
<speed>12.210000</speed>
</trkpt>
<trkpt lat="21.208639" lon="105.779266">
<ele>7.838566</ele>
<time>2011-04-29T09:19:25Z</time>
<desc>lat.=21.208639, lon.=105.779266, Alt.=7.838566m. Speed=44.316002m/h.</desc>
<speed>12.310001</speed>
</trkpt>
<trkpt lat="21.208097" lon="105.779335">
<ele>8.070442</ele>
<time>2011-04-29T09:19:30Z</time>
<desc>lat.=21.208097, lon.=105.779335, Alt.=8.070442m. Speed=42.335999m/h.</desc>
<speed>11.760000</speed>
</trkpt>
<trkpt lat="21.207563" lon="105.779388">
<ele>6.685368</ele>
<time>2011-04-29T09:19:35Z</time>
<desc>lat.=21.207563, lon.=105.779388, Alt.=6.685368m. Speed=42.192001m/h.</desc>
<speed>11.720000</speed>
</trkpt>
<trkpt lat="21.207041" lon="105.779434">
<ele>5.718204</ele>
<time>2011-04-29T09:19:40Z</time>
<desc>lat.=21.207041, lon.=105.779434, Alt.=5.718204m. Speed=41.040001m/h.</desc>
<speed>11.400000</speed>
</trkpt>
<trkpt lat="21.206539" lon="105.779503">
<ele>6.632389</ele>
<time>2011-04-29T09:19:45Z</time>
<desc>lat.=21.206539, lon.=105.779503, Alt.=6.632389m. Speed=37.908001m/h.</desc>
<speed>10.530000</speed>
</trkpt>
<trkpt lat="21.206059" lon="105.779572">
<ele>9.286751</ele>
<time>2011-04-29T09:19:50Z</time>
<desc>lat.=21.206059, lon.=105.779572, Alt.=9.286751m. Speed=37.080002m/h.</desc>
<speed>10.300001</speed>
</trkpt>
<trkpt lat="21.205631" lon="105.779610">
<ele>7.032047</ele>
<time>2011-04-29T09:19:55Z</time>
<desc>lat.=21.205631, lon.=105.779610, Alt.=7.032047m. Speed=33.588001m/h.</desc>
<speed>9.330000</speed>
</trkpt>
<trkpt lat="21.205238" lon="105.779617">
<ele>8.169075</ele>
<time>2011-04-29T09:20:00Z</time>
<desc>lat.=21.205238, lon.=105.779617, Alt.=8.169075m. Speed=28.656000m/h.</desc>
<speed>7.960000</speed>
</trkpt>
<trkpt lat="21.204905" lon="105.779602">
<ele>6.631290</ele>
<time>2011-04-29T09:20:05Z</time>
<desc>lat.=21.204905, lon.=105.779602, Alt.=6.631290m. Speed=24.732000m/h.</desc>
<speed>6.870000</speed>
</trkpt>
<trkpt lat="21.204632" lon="105.779610">
<ele>1.844926</ele>
<time>2011-04-29T09:20:10Z</time>
<desc>lat.=21.204632, lon.=105.779610, Alt.=1.844926m. Speed=14.220000m/h.</desc>
<speed>3.950000</speed>
</trkpt>
<trkpt lat="21.204535" lon="105.779617">
<ele>0.216139</ele>
<time>2011-04-29T09:20:15Z</time>
<desc>lat.=21.204535, lon.=105.779617, Alt.=0.216139m. Speed=2.484000m/h.</desc>
<speed>0.690000</speed>
</trkpt>
<trkpt lat="21.204477" lon="105.779625">
<ele>-0.945839</ele>
<time>2011-04-29T09:20:20Z</time>
<desc>lat.=21.204477, lon.=105.779625, Alt.=-0.945839m. Speed=5.796000m/h.</desc>
<speed>1.610000</speed>
</trkpt>
<trkpt lat="21.204355" lon="105.779640">
<ele>-1.503343</ele>
<time>2011-04-29T09:20:25Z</time>
<desc>lat.=21.204355, lon.=105.779640, Alt.=-1.503343m. Speed=9.972000m/h.</desc>
<speed>2.770000</speed>
</trkpt>
<trkpt lat="21.204212" lon="105.779655">
<ele>0.514260</ele>
<time>2011-04-29T09:20:30Z</time>
<desc>lat.=21.204212, lon.=105.779655, Alt.=0.514260m. Speed=11.736000m/h.</desc>
<speed>3.260000</speed>
</trkpt>
<trkpt lat="21.204050" lon="105.779663">
<ele>-0.145899</ele>
<time>2011-04-29T09:20:35Z</time>
<desc>lat.=21.204050, lon.=105.779663, Alt.=-0.145899m. Speed=12.852000m/h.</desc>
<speed>3.570000</speed>
</trkpt>
<trkpt lat="21.203915" lon="105.779655">
<ele>2.598848</ele>
<time>2011-04-29T09:20:40Z</time>
<desc>lat.=21.203915, lon.=105.779655, Alt.=2.598848m. Speed=10.080000m/h.</desc>
<speed>2.800000</speed>
</trkpt>
<trkpt lat="21.203810" lon="105.779678">
<ele>3.235140</ele>
<time>2011-04-29T09:20:45Z</time>
<desc>lat.=21.203810, lon.=105.779678, Alt.=3.235140m. Speed=7.956000m/h.</desc>
<speed>2.210000</speed>
</trkpt>
<trkpt lat="21.203749" lon="105.779678">
<ele>-0.295780</ele>
<time>2011-04-29T09:20:50Z</time>
<desc>lat.=21.203749, lon.=105.779678, Alt.=-0.295780m. Speed=1.368000m/h.</desc>
<speed>0.380000</speed>
</trkpt>
<trkpt lat="21.203747" lon="105.779686">
<ele>0.237913</ele>
<time>2011-04-29T09:20:55Z</time>
<desc>lat.=21.203747, lon.=105.779686, Alt.=0.237913m. Speed=0.792000m/h.</desc>
<speed>0.220000</speed>
</trkpt>
<trkpt lat="21.203709" lon="105.779694">
<ele>0.592949</ele>
<time>2011-04-29T09:21:00Z</time>
<desc>lat.=21.203709, lon.=105.779694, Alt.=0.592949m. Speed=6.516000m/h.</desc>
<speed>1.810000</speed>
</trkpt>
<trkpt lat="21.203627" lon="105.779701">
<ele>1.221025</ele>
<time>2011-04-29T09:21:05Z</time>
<desc>lat.=21.203627, lon.=105.779701, Alt.=1.221025m. Speed=5.796000m/h.</desc>
<speed>1.610000</speed>
</trkpt>
<trkpt lat="21.203545" lon="105.779724">
<ele>3.099581</ele>
<time>2011-04-29T09:21:10Z</time>
<desc>lat.=21.203545, lon.=105.779724, Alt.=3.099581m. Speed=3.816000m/h.</desc>
<speed>1.060000</speed>
</trkpt>
<trkpt lat="21.203489" lon="105.779739">
<ele>2.742891</ele>
<time>2011-04-29T09:21:15Z</time>
<desc>lat.=21.203489, lon.=105.779739, Alt.=2.742891m. Speed=4.212000m/h.</desc>
<speed>1.170000</speed>
</trkpt>
<trkpt lat="21.203434" lon="105.779739">
<ele>1.313645</ele>
<time>2011-04-29T09:21:20Z</time>
<desc>lat.=21.203434, lon.=105.779739, Alt.=1.313645m. Speed=3.816000m/h.</desc>
<speed>1.060000</speed>
</trkpt>
<trkpt lat="21.203367" lon="105.779732">
<ele>3.232821</ele>
<time>2011-04-29T09:21:25Z</time>
<desc>lat.=21.203367, lon.=105.779732, Alt.=3.232821m. Speed=3.780000m/h.</desc>
<speed>1.050000</speed>
</trkpt>
<trkpt lat="21.203331" lon="105.779709">
<ele>5.591862</ele>
<time>2011-04-29T09:21:30Z</time>
<desc>lat.=21.203331, lon.=105.779709, Alt.=5.591862m. Speed=3.240000m/h.</desc>
<speed>0.900000</speed>
</trkpt>
<trkpt lat="21.203251" lon="105.779732">
<ele>6.764713</ele>
<time>2011-04-29T09:21:35Z</time>
<desc>lat.=21.203251, lon.=105.779732, Alt.=6.764713m. Speed=5.076000m/h.</desc>
<speed>1.410000</speed>
</trkpt>
<trkpt lat="21.203152" lon="105.779747">
<ele>7.315128</ele>
<time>2011-04-29T09:21:40Z</time>
<desc>lat.=21.203152, lon.=105.779747, Alt.=7.315128m. Speed=6.264000m/h.</desc>
<speed>1.740000</speed>
</trkpt>
<trkpt lat="21.203049" lon="105.779770">
<ele>8.215706</ele>
<time>2011-04-29T09:21:45Z</time>
<desc>lat.=21.203049, lon.=105.779770, Alt.=8.215706m. Speed=10.764000m/h.</desc>
<speed>2.990000</speed>
</trkpt>
<trkpt lat="21.202906" lon="105.779808">
<ele>9.103645</ele>
<time>2011-04-29T09:21:50Z</time>
<desc>lat.=21.202906, lon.=105.779808, Alt.=9.103645m. Speed=10.512000m/h.</desc>
<speed>2.920000</speed>
</trkpt>
<trkpt lat="21.202753" lon="105.779778">
<ele>9.109016</ele>
<time>2011-04-29T09:21:55Z</time>
<desc>lat.=21.202753, lon.=105.779778, Alt.=9.109016m. Speed=8.568000m/h.</desc>
<speed>2.380000</speed>
</trkpt>
<trkpt lat="21.202642" lon="105.779762">
<ele>8.841438</ele>
<time>2011-04-29T09:22:00Z</time>
<desc>lat.=21.202642, lon.=105.779762, Alt.=8.841438m. Speed=5.652000m/h.</desc>
<speed>1.570000</speed>
</trkpt>
<trkpt lat="21.202621" lon="105.779778">
<ele>8.223518</ele>
<time>2011-04-29T09:22:05Z</time>
<desc>lat.=21.202621, lon.=105.779778, Alt.=8.223518m. Speed=0.144000m/h.</desc>
<speed>0.040000</speed>
</trkpt>
<trkpt lat="21.202629" lon="105.779785">
<ele>7.689274</ele>
<time>2011-04-29T09:22:10Z</time>
<desc>lat.=21.202629, lon.=105.779785, Alt.=7.689274m. Speed=0.108000m/h.</desc>
<speed>0.030000</speed>
</trkpt>
<trkpt lat="21.202627" lon="105.779785">
<ele>7.672672</ele>
<time>2011-04-29T09:22:15Z</time>
<desc>lat.=21.202627, lon.=105.779785, Alt.=7.672672m. Speed=0.324000m/h.</desc>
<speed>0.090000</speed>
</trkpt>
<trkpt lat="21.202621" lon="105.779785">
<ele>7.612003</ele>
<time>2011-04-29T09:22:20Z</time>
<desc>lat.=21.202621, lon.=105.779785, Alt.=7.612003m. Speed=0.468000m/h.</desc>
<speed>0.130000</speed>
</trkpt>
<trkpt lat="21.202620" lon="105.779785">
<ele>7.556461</ele>
<time>2011-04-29T09:22:25Z</time>
<desc>lat.=21.202620, lon.=105.779785, Alt.=7.556461m. Speed=0.576000m/h.</desc>
<speed>0.160000</speed>
</trkpt>
<trkpt lat="21.202618" lon="105.779785">
<ele>7.517033</ele>
<time>2011-04-29T09:22:30Z</time>
<desc>lat.=21.202618, lon.=105.779785, Alt.=7.517033m. Speed=0.612000m/h.</desc>
<speed>0.170000</speed>
</trkpt>
<trkpt lat="21.202623" lon="105.779785">
<ele>7.544865</ele>
<time>2011-04-29T09:22:35Z</time>
<desc>lat.=21.202623, lon.=105.779785, Alt.=7.544865m. Speed=0.180000m/h.</desc>
<speed>0.050000</speed>
</trkpt>
<trkpt lat="21.202623" lon="105.779778">
<ele>7.542057</ele>
<time>2011-04-29T09:22:40Z</time>
<desc>lat.=21.202623, lon.=105.779778, Alt.=7.542057m. Speed=0.288000m/h.</desc>
<speed>0.080000</speed>
</trkpt>
<trkpt lat="21.202621" lon="105.779785">
<ele>7.563175</ele>
<time>2011-04-29T09:22:45Z</time>
<desc>lat.=21.202621, lon.=105.779785, Alt.=7.563175m. Speed=0.252000m/h.</desc>
<speed>0.070000</speed>
</trkpt>
<trkpt lat="21.202623" lon="105.779785">
<ele>7.566837</ele>
<time>2011-04-29T09:22:50Z</time>
<desc>lat.=21.202623, lon.=105.779785, Alt.=7.566837m. Speed=0.252000m/h.</desc>
<speed>0.070000</speed>
</trkpt>
<trkpt lat="21.202623" lon="105.779785">
<ele>7.530949</ele>
<time>2011-04-29T09:22:55Z</time>
<desc>lat.=21.202623, lon.=105.779785, Alt.=7.530949m. Speed=0.072000m/h.</desc>
<speed>0.020000</speed>
</trkpt>
<trkpt lat="21.202623" lon="105.779785">
<ele>7.465397</ele>
<time>2011-04-29T09:23:00Z</time>
<desc>lat.=21.202623, lon.=105.779785, Alt.=7.465397m. Speed=0.360000m/h.</desc>
<speed>0.100000</speed>
</trkpt>
<trkpt lat="21.202625" lon="105.779778">
<ele>7.403263</ele>
<time>2011-04-29T09:23:05Z</time>
<desc>lat.=21.202625, lon.=105.779778, Alt.=7.403263m. Speed=0.288000m/h.</desc>
<speed>0.080000</speed>
</trkpt>
<trkpt lat="21.202623" lon="105.779778">
<ele>7.336735</ele>
<time>2011-04-29T09:23:10Z</time>
<desc>lat.=21.202623, lon.=105.779778, Alt.=7.336735m. Speed=0.252000m/h.</desc>
<speed>0.070000</speed>
</trkpt>
<trkpt lat="21.202621" lon="105.779778">
<ele>7.327579</ele>
<time>2011-04-29T09:23:15Z</time>
<desc>lat.=21.202621, lon.=105.779778, Alt.=7.327579m. Speed=0.360000m/h.</desc>
<speed>0.100000</speed>
</trkpt>
<trkpt lat="21.202625" lon="105.779778">
<ele>7.325504</ele>
<time>2011-04-29T09:23:20Z</time>
<desc>lat.=21.202625, lon.=105.779778, Alt.=7.325504m. Speed=0.108000m/h.</desc>
<speed>0.030000</speed>
</trkpt>
<trkpt lat="21.202629" lon="105.779778">
<ele>7.328556</ele>
<time>2011-04-29T09:23:25Z</time>
<desc>lat.=21.202629, lon.=105.779778, Alt.=7.328556m. Speed=0.360000m/h.</desc>
<speed>0.100000</speed>
</trkpt>
<trkpt lat="21.202629" lon="105.779778">
<ele>7.323063</ele>
<time>2011-04-29T09:23:30Z</time>
<desc>lat.=21.202629, lon.=105.779778, Alt.=7.323063m. Speed=0.144000m/h.</desc>
<speed>0.040000</speed>
</trkpt>
<trkpt lat="21.202633" lon="105.779778">
<ele>7.325382</ele>
<time>2011-04-29T09:23:35Z</time>
<desc>lat.=21.202633, lon.=105.779778, Alt.=7.325382m. Speed=0.288000m/h.</desc>
<speed>0.080000</speed>
</trkpt>
<trkpt lat="21.202633" lon="105.779778">
<ele>7.349430</ele>
<time>2011-04-29T09:23:40Z</time>
<desc>lat.=21.202633, lon.=105.779778, Alt.=7.349430m. Speed=0.864000m/h.</desc>
<speed>0.240000</speed>
</trkpt>
<trkpt lat="21.202629" lon="105.779778">
<ele>7.401554</ele>
<time>2011-04-29T09:23:45Z</time>
<desc>lat.=21.202629, lon.=105.779778, Alt.=7.401554m. Speed=0.288000m/h.</desc>
<speed>0.080000</speed>
</trkpt>
<trkpt lat="21.202579" lon="105.779793">
<ele>7.476627</ele>
<time>2011-04-29T09:23:50Z</time>
<desc>lat.=21.202579, lon.=105.779793, Alt.=7.476627m. Speed=6.300000m/h.</desc>
<speed>1.750000</speed>
</trkpt>
<trkpt lat="21.202446" lon="105.779823">
<ele>8.201790</ele>
<time>2011-04-29T09:23:55Z</time>
<desc>lat.=21.202446, lon.=105.779823, Alt.=8.201790m. Speed=14.004000m/h.</desc>
<speed>3.890000</speed>
</trkpt>
<trkpt lat="21.202240" lon="105.779869">
<ele>8.742317</ele>
<time>2011-04-29T09:24:00Z</time>
<desc>lat.=21.202240, lon.=105.779869, Alt.=8.742317m. Speed=18.468000m/h.</desc>
<speed>5.130000</speed>
</trkpt>
<trkpt lat="21.201971" lon="105.779945">
<ele>9.696907</ele>
<time>2011-04-29T09:24:05Z</time>
<desc>lat.=21.201971, lon.=105.779945, Alt.=9.696907m. Speed=23.724001m/h.</desc>
<speed>6.590000</speed>
</trkpt>
<trkpt lat="21.201639" lon="105.780006">
<ele>9.772591</ele>
<time>2011-04-29T09:24:10Z</time>
<desc>lat.=21.201639, lon.=105.780006, Alt.=9.772591m. Speed=29.232000m/h.</desc>
<speed>8.120000</speed>
</trkpt>
<trkpt lat="21.201250" lon="105.780037">
<ele>10.815071</ele>
<time>2011-04-29T09:24:15Z</time>
<desc>lat.=21.201250, lon.=105.780037, Alt.=10.815071m. Speed=29.879999m/h.</desc>
<speed>8.300000</speed>
</trkpt>
<trkpt lat="21.200832" lon="105.780075">
<ele>12.510139</ele>
<time>2011-04-29T09:24:20Z</time>
<desc>lat.=21.200832, lon.=105.780075, Alt.=12.510139m. Speed=33.948002m/h.</desc>
<speed>9.430001</speed>
</trkpt>
<trkpt lat="21.200354" lon="105.780128">
<ele>14.177376</ele>
<time>2011-04-29T09:24:25Z</time>
<desc>lat.=21.200354, lon.=105.780128, Alt.=14.177376m. Speed=38.411999m/h.</desc>
<speed>10.670000</speed>
</trkpt>
<trkpt lat="21.199865" lon="105.780190">
<ele>16.239517</ele>
<time>2011-04-29T09:24:30Z</time>
<desc>lat.=21.199865, lon.=105.780190, Alt.=16.239517m. Speed=39.672001m/h.</desc>
<speed>11.020000</speed>
</trkpt>
<trkpt lat="21.199369" lon="105.780251">
<ele>15.156136</ele>
<time>2011-04-29T09:24:35Z</time>
<desc>lat.=21.199369, lon.=105.780251, Alt.=15.156136m. Speed=40.896000m/h.</desc>
<speed>11.360000</speed>
</trkpt>
<trkpt lat="21.198851" lon="105.780312">
<ele>16.060806</ele>
<time>2011-04-29T09:24:40Z</time>
<desc>lat.=21.198851, lon.=105.780312, Alt.=16.060806m. Speed=40.860001m/h.</desc>
<speed>11.350000</speed>
</trkpt>
<trkpt lat="21.198343" lon="105.780365">
<ele>13.794807</ele>
<time>2011-04-29T09:24:45Z</time>
<desc>lat.=21.198343, lon.=105.780365, Alt.=13.794807m. Speed=39.023998m/h.</desc>
<speed>10.840000</speed>
</trkpt>
<trkpt lat="21.197838" lon="105.780426">
<ele>11.770882</ele>
<time>2011-04-29T09:24:50Z</time>
<desc>lat.=21.197838, lon.=105.780426, Alt.=11.770882m. Speed=42.048000m/h.</desc>
<speed>11.680000</speed>
</trkpt>
<trkpt lat="21.197309" lon="105.780487">
<ele>10.023323</ele>
<time>2011-04-29T09:24:55Z</time>
<desc>lat.=21.197309, lon.=105.780487, Alt.=10.023323m. Speed=42.480000m/h.</desc>
<speed>11.800000</speed>
</trkpt>
<trkpt lat="21.196781" lon="105.780540">
<ele>8.061653</ele>
<time>2011-04-29T09:25:00Z</time>
<desc>lat.=21.196781, lon.=105.780540, Alt.=8.061653m. Speed=42.480000m/h.</desc>
<speed>11.800000</speed>
</trkpt>
<trkpt lat="21.196230" lon="105.780594">
<ele>7.747868</ele>
<time>2011-04-29T09:25:05Z</time>
<desc>lat.=21.196230, lon.=105.780594, Alt.=7.747868m. Speed=44.495998m/h.</desc>
<speed>12.360000</speed>
</trkpt>
<trkpt lat="21.195683" lon="105.780647">
<ele>6.907291</ele>
<time>2011-04-29T09:25:10Z</time>
<desc>lat.=21.195683, lon.=105.780647, Alt.=6.907291m. Speed=40.967999m/h.</desc>
<speed>11.380000</speed>
</trkpt>
<trkpt lat="21.195208" lon="105.780678">
<ele>3.119661</ele>
<time>2011-04-29T09:25:15Z</time>
<desc>lat.=21.195208, lon.=105.780678, Alt.=3.119661m. Speed=33.264000m/h.</desc>
<speed>9.240000</speed>
</trkpt>
<trkpt lat="21.194822" lon="105.780685">
<ele>-0.158297</ele>
<time>2011-04-29T09:25:20Z</time>
<desc>lat.=21.194822, lon.=105.780685, Alt.=-0.158297m. Speed=27.143999m/h.</desc>
<speed>7.540000</speed>
</trkpt>
<trkpt lat="21.194506" lon="105.780685">
<ele>-5.937687</ele>
<time>2011-04-29T09:25:25Z</time>
<desc>lat.=21.194506, lon.=105.780685, Alt.=-5.937687m. Speed=23.903999m/h.</desc>
<speed>6.640000</speed>
</trkpt>
<trkpt lat="21.194149" lon="105.780693">
<ele>-5.746403</ele>
<time>2011-04-29T09:25:30Z</time>
<desc>lat.=21.194149, lon.=105.780693, Alt.=-5.746403m. Speed=32.436001m/h.</desc>
<speed>9.010000</speed>
</trkpt>
<trkpt lat="21.193655" lon="105.780693">
<ele>-4.731388</ele>
<time>2011-04-29T09:25:35Z</time>
<desc>lat.=21.193655, lon.=105.780693, Alt.=-4.731388m. Speed=40.680000m/h.</desc>
<speed>11.300000</speed>
</trkpt>
<trkpt lat="21.193090" lon="105.780678">
<ele>-5.852482</ele>
<time>2011-04-29T09:25:40Z</time>
<desc>lat.=21.193090, lon.=105.780678, Alt.=-5.852482m. Speed=45.863998m/h.</desc>
<speed>12.740000</speed>
</trkpt>
<trkpt lat="21.192484" lon="105.780647">
<ele>-9.428108</ele>
<time>2011-04-29T09:25:45Z</time>
<desc>lat.=21.192484, lon.=105.780647, Alt.=-9.428108m. Speed=47.880001m/h.</desc>
<speed>13.300000</speed>
</trkpt>
<trkpt lat="21.191870" lon="105.780640">
<ele>-9.663704</ele>
<time>2011-04-29T09:25:50Z</time>
<desc>lat.=21.191870, lon.=105.780640, Alt.=-9.663704m. Speed=46.512001m/h.</desc>
<speed>12.920000</speed>
</trkpt>
<trkpt lat="21.191282" lon="105.780647">
<ele>-6.749943</ele>
<time>2011-04-29T09:25:55Z</time>
<desc>lat.=21.191282, lon.=105.780647, Alt.=-6.749943m. Speed=48.167999m/h.</desc>
<speed>13.380000</speed>
</trkpt>
<trkpt lat="21.190634" lon="105.780594">
<ele>-6.161686</ele>
<time>2011-04-29T09:26:00Z</time>
<desc>lat.=21.190634, lon.=105.780594, Alt.=-6.161686m. Speed=55.043999m/h.</desc>
<speed>15.290000</speed>
</trkpt>
<trkpt lat="21.189894" lon="105.780563">
<ele>-7.317204</ele>
<time>2011-04-29T09:26:05Z</time>
<desc>lat.=21.189894, lon.=105.780563, Alt.=-7.317204m. Speed=61.056000m/h.</desc>
<speed>16.960000</speed>
</trkpt>
<trkpt lat="21.189114" lon="105.780533">
<ele>-6.825748</ele>
<time>2011-04-29T09:26:10Z</time>
<desc>lat.=21.189114, lon.=105.780533, Alt.=-6.825748m. Speed=59.292000m/h.</desc>
<speed>16.470000</speed>
</trkpt>
<trkpt lat="21.188396" lon="105.780518">
<ele>-6.267887</ele>
<time>2011-04-29T09:26:15Z</time>
<desc>lat.=21.188396, lon.=105.780518, Alt.=-6.267887m. Speed=54.936001m/h.</desc>
<speed>15.260000</speed>
</trkpt>
<trkpt lat="21.187752" lon="105.780487">
<ele>-6.025822</ele>
<time>2011-04-29T09:26:20Z</time>
<desc>lat.=21.187752, lon.=105.780487, Alt.=-6.025822m. Speed=48.816002m/h.</desc>
<speed>13.560001</speed>
</trkpt>
<trkpt lat="21.187195" lon="105.780472">
<ele>-5.298405</ele>
<time>2011-04-29T09:26:25Z</time>
<desc>lat.=21.187195, lon.=105.780472, Alt.=-5.298405m. Speed=43.523998m/h.</desc>
<speed>12.090000</speed>
</trkpt>
<trkpt lat="21.186621" lon="105.780441">
<ele>-5.669010</ele>
<time>2011-04-29T09:26:30Z</time>
<desc>lat.=21.186621, lon.=105.780441, Alt.=-5.669010m. Speed=48.492001m/h.</desc>
<speed>13.470000</speed>
</trkpt>
<trkpt lat="21.185989" lon="105.780411">
<ele>-6.165470</ele>
<time>2011-04-29T09:26:35Z</time>
<desc>lat.=21.185989, lon.=105.780411, Alt.=-6.165470m. Speed=51.624001m/h.</desc>
<speed>14.340000</speed>
</trkpt>
<trkpt lat="21.185356" lon="105.780373">
<ele>-4.500797</ele>
<time>2011-04-29T09:26:40Z</time>
<desc>lat.=21.185356, lon.=105.780373, Alt.=-4.500797m. Speed=50.759998m/h.</desc>
<speed>14.100000</speed>
</trkpt>
<trkpt lat="21.184710" lon="105.780365">
<ele>-5.823551</ele>
<time>2011-04-29T09:26:45Z</time>
<desc>lat.=21.184710, lon.=105.780365, Alt.=-5.823551m. Speed=49.500000m/h.</desc>
<speed>13.750000</speed>
</trkpt>
<trkpt lat="21.184097" lon="105.780342">
<ele>-8.013802</ele>
<time>2011-04-29T09:26:50Z</time>
<desc>lat.=21.184097, lon.=105.780342, Alt.=-8.013802m. Speed=48.888000m/h.</desc>
<speed>13.580000</speed>
</trkpt>
<trkpt lat="21.183496" lon="105.780312">
<ele>-8.946907</ele>
<time>2011-04-29T09:26:55Z</time>
<desc>lat.=21.183496, lon.=105.780312, Alt.=-8.946907m. Speed=48.888000m/h.</desc>
<speed>13.580000</speed>
</trkpt>
<trkpt lat="21.182859" lon="105.780289">
<ele>-6.982487</ele>
<time>2011-04-29T09:27:00Z</time>
<desc>lat.=21.182859, lon.=105.780289, Alt.=-6.982487m. Speed=53.136002m/h.</desc>
<speed>14.760000</speed>
</trkpt>
<trkpt lat="21.182177" lon="105.780258">
<ele>-3.425936</ele>
<time>2011-04-29T09:27:05Z</time>
<desc>lat.=21.182177, lon.=105.780258, Alt.=-3.425936m. Speed=56.195999m/h.</desc>
<speed>15.610000</speed>
</trkpt>
<trkpt lat="21.181456" lon="105.780220">
<ele>-1.296128</ele>
<time>2011-04-29T09:27:10Z</time>
<desc>lat.=21.181456, lon.=105.780220, Alt.=-1.296128m. Speed=56.520000m/h.</desc>
<speed>15.700000</speed>
</trkpt>
<trkpt lat="21.180723" lon="105.780182">
<ele>-1.855851</ele>
<time>2011-04-29T09:27:15Z</time>
<desc>lat.=21.180723, lon.=105.780182, Alt.=-1.855851m. Speed=59.292000m/h.</desc>
<speed>16.470000</speed>
</trkpt>
<trkpt lat="21.179985" lon="105.780159">
<ele>-3.235079</ele>
<time>2011-04-29T09:27:20Z</time>
<desc>lat.=21.179985, lon.=105.780159, Alt.=-3.235079m. Speed=60.048000m/h.</desc>
<speed>16.680000</speed>
</trkpt>
<trkpt lat="21.179213" lon="105.780128">
<ele>-2.917879</ele>
<time>2011-04-29T09:27:25Z</time>
<desc>lat.=21.179213, lon.=105.780128, Alt.=-2.917879m. Speed=61.956001m/h.</desc>
<speed>17.210000</speed>
</trkpt>
<trkpt lat="21.178436" lon="105.780106">
<ele>-3.967501</ele>
<time>2011-04-29T09:27:30Z</time>
<desc>lat.=21.178436, lon.=105.780106, Alt.=-3.967501m. Speed=60.984001m/h.</desc>
<speed>16.940000</speed>
</trkpt>
<trkpt lat="21.177679" lon="105.780083">
<ele>-6.191471</ele>
<time>2011-04-29T09:27:35Z</time>
<desc>lat.=21.177679, lon.=105.780083, Alt.=-6.191471m. Speed=60.012001m/h.</desc>
<speed>16.670000</speed>
</trkpt>
<trkpt lat="21.176941" lon="105.780060">
<ele>-5.582706</ele>
<time>2011-04-29T09:27:40Z</time>
<desc>lat.=21.176941, lon.=105.780060, Alt.=-5.582706m. Speed=57.492001m/h.</desc>
<speed>15.970000</speed>
</trkpt>
<trkpt lat="21.176235" lon="105.780014">
<ele>-4.050846</ele>
<time>2011-04-29T09:27:45Z</time>
<desc>lat.=21.176235, lon.=105.780014, Alt.=-4.050846m. Speed=55.368000m/h.</desc>
<speed>15.380000</speed>
</trkpt>
<trkpt lat="21.175552" lon="105.779984">
<ele>-5.326847</ele>
<time>2011-04-29T09:27:50Z</time>
<desc>lat.=21.175552, lon.=105.779984, Alt.=-5.326847m. Speed=54.647999m/h.</desc>
<speed>15.180000</speed>
</trkpt>
<trkpt lat="21.174877" lon="105.779961">
<ele>-6.285221</ele>
<time>2011-04-29T09:27:55Z</time>
<desc>lat.=21.174877, lon.=105.779961, Alt.=-6.285221m. Speed=53.099998m/h.</desc>
<speed>14.750000</speed>
</trkpt>
<trkpt lat="21.174231" lon="105.779945">
<ele>-5.472721</ele>
<time>2011-04-29T09:28:00Z</time>
<desc>lat.=21.174231, lon.=105.779945, Alt.=-5.472721m. Speed=51.119999m/h.</desc>
<speed>14.200000</speed>
</trkpt>
<trkpt lat="21.173584" lon="105.779922">
<ele>-4.775333</ele>
<time>2011-04-29T09:28:05Z</time>
<desc>lat.=21.173584, lon.=105.779922, Alt.=-4.775333m. Speed=52.271999m/h.</desc>
<speed>14.520000</speed>
</trkpt>
<trkpt lat="21.172920" lon="105.779892">
<ele>-7.281681</ele>
<time>2011-04-29T09:28:10Z</time>
<desc>lat.=21.172920, lon.=105.779892, Alt.=-7.281681m. Speed=52.776001m/h.</desc>
<speed>14.660000</speed>
</trkpt>
<trkpt lat="21.172264" lon="105.779854">
<ele>-7.669010</ele>
<time>2011-04-29T09:28:15Z</time>
<desc>lat.=21.172264, lon.=105.779854, Alt.=-7.669010m. Speed=50.796001m/h.</desc>
<speed>14.110000</speed>
</trkpt>
<trkpt lat="21.171618" lon="105.779823">
<ele>-8.723763</ele>
<time>2011-04-29T09:28:20Z</time>
<desc>lat.=21.171618, lon.=105.779823, Alt.=-8.723763m. Speed=52.380001m/h.</desc>
<speed>14.550000</speed>
</trkpt>
<trkpt lat="21.170977" lon="105.779793">
<ele>-7.413029</ele>
<time>2011-04-29T09:28:25Z</time>
<desc>lat.=21.170977, lon.=105.779793, Alt.=-7.413029m. Speed=50.688000m/h.</desc>
<speed>14.080000</speed>
</trkpt>
<trkpt lat="21.170359" lon="105.779770">
<ele>-9.365852</ele>
<time>2011-04-29T09:28:30Z</time>
<desc>lat.=21.170359, lon.=105.779770, Alt.=-9.365852m. Speed=49.571999m/h.</desc>
<speed>13.770000</speed>
</trkpt>
<trkpt lat="21.169744" lon="105.779755">
<ele>-9.469368</ele>
<time>2011-04-29T09:28:35Z</time>
<desc>lat.=21.169744, lon.=105.779755, Alt.=-9.469368m. Speed=50.256001m/h.</desc>
<speed>13.960000</speed>
</trkpt>
<trkpt lat="21.169128" lon="105.779732">
<ele>-11.723763</ele>
<time>2011-04-29T09:28:40Z</time>
<desc>lat.=21.169128, lon.=105.779732, Alt.=-11.723763m. Speed=49.032001m/h.</desc>
<speed>13.620000</speed>
</trkpt>
<trkpt lat="21.168533" lon="105.779709">
<ele>-10.357552</ele>
<time>2011-04-29T09:28:45Z</time>
<desc>lat.=21.168533, lon.=105.779709, Alt.=-10.357552m. Speed=44.928001m/h.</desc>
<speed>12.480000</speed>
</trkpt>
<trkpt lat="21.167988" lon="105.779694">
<ele>-8.544319</ele>
<time>2011-04-29T09:28:50Z</time>
<desc>lat.=21.167988, lon.=105.779694, Alt.=-8.544319m. Speed=42.515999m/h.</desc>
<speed>11.810000</speed>
</trkpt>
<trkpt lat="21.167439" lon="105.779671">
<ele>-8.094856</ele>
<time>2011-04-29T09:28:55Z</time>
<desc>lat.=21.167439, lon.=105.779671, Alt.=-8.094856m. Speed=43.020000m/h.</desc>
<speed>11.950000</speed>
</trkpt>
<trkpt lat="21.166897" lon="105.779648">
<ele>-6.515934</ele>
<time>2011-04-29T09:29:00Z</time>
<desc>lat.=21.166897, lon.=105.779648, Alt.=-6.515934m. Speed=41.652000m/h.</desc>
<speed>11.570000</speed>
</trkpt>
<trkpt lat="21.166355" lon="105.779633">
<ele>-7.190617</ele>
<time>2011-04-29T09:29:05Z</time>
<desc>lat.=21.166355, lon.=105.779633, Alt.=-7.190617m. Speed=44.208000m/h.</desc>
<speed>12.280000</speed>
</trkpt>
<trkpt lat="21.165779" lon="105.779610">
<ele>-7.222843</ele>
<time>2011-04-29T09:29:10Z</time>
<desc>lat.=21.165779, lon.=105.779610, Alt.=-7.222843m. Speed=47.520000m/h.</desc>
<speed>13.200000</speed>
</trkpt>
<trkpt lat="21.165184" lon="105.779579">
<ele>-6.032780</ele>
<time>2011-04-29T09:29:15Z</time>
<desc>lat.=21.165184, lon.=105.779579, Alt.=-6.032780m. Speed=44.208000m/h.</desc>
<speed>12.280000</speed>
</trkpt>
<trkpt lat="21.164715" lon="105.779572">
<ele>-4.821476</ele>
<time>2011-04-29T09:29:20Z</time>
<desc>lat.=21.164715, lon.=105.779572, Alt.=-4.821476m. Speed=36.000000m/h.</desc>
<speed>10.000000</speed>
</trkpt>
<trkpt lat="21.164213" lon="105.779564">
<ele>-4.495670</ele>
<time>2011-04-29T09:29:25Z</time>
<desc>lat.=21.164213, lon.=105.779564, Alt.=-4.495670m. Speed=42.335999m/h.</desc>
<speed>11.760000</speed>
</trkpt>
<trkpt lat="21.163689" lon="105.779549">
<ele>-1.887437</ele>
<time>2011-04-29T09:29:30Z</time>
<desc>lat.=21.163689, lon.=105.779549, Alt.=-1.887437m. Speed=41.976002m/h.</desc>
<speed>11.660000</speed>
</trkpt>
<trkpt lat="21.163204" lon="105.779503">
<ele>-1.686601</ele>
<time>2011-04-29T09:29:35Z</time>
<desc>lat.=21.163204, lon.=105.779503, Alt.=-1.686601m. Speed=38.304001m/h.</desc>
<speed>10.640000</speed>
</trkpt>
<trkpt lat="21.162710" lon="105.779472">
<ele>-0.153147</ele>
<time>2011-04-29T09:29:40Z</time>
<desc>lat.=21.162710, lon.=105.779472, Alt.=-0.153147m. Speed=40.860001m/h.</desc>
<speed>11.350000</speed>
</trkpt>
<trkpt lat="21.162218" lon="105.779457">
<ele>-0.181147</ele>
<time>2011-04-29T09:29:45Z</time>
<desc>lat.=21.162218, lon.=105.779457, Alt.=-0.181147m. Speed=32.147999m/h.</desc>
<speed>8.930000</speed>
</trkpt>
<trkpt lat="21.161907" lon="105.779449">
<ele>-1.408555</ele>
<time>2011-04-29T09:29:50Z</time>
<desc>lat.=21.161907, lon.=105.779449, Alt.=-1.408555m. Speed=18.252001m/h.</desc>
<speed>5.070000</speed>
</trkpt>
<trkpt lat="21.161697" lon="105.779419">
<ele>-1.771623</ele>
<time>2011-04-29T09:29:55Z</time>
<desc>lat.=21.161697, lon.=105.779419, Alt.=-1.771623m. Speed=14.796000m/h.</desc>
<speed>4.110000</speed>
</trkpt>
<trkpt lat="21.161495" lon="105.779419">
<ele>-3.638094</ele>
<time>2011-04-29T09:30:00Z</time>
<desc>lat.=21.161495, lon.=105.779419, Alt.=-3.638094m. Speed=16.740000m/h.</desc>
<speed>4.650000</speed>
</trkpt>
<trkpt lat="21.161362" lon="105.779396">
<ele>-5.870182</ele>
<time>2011-04-29T09:30:05Z</time>
<desc>lat.=21.161362, lon.=105.779396, Alt.=-5.870182m. Speed=5.328000m/h.</desc>
<speed>1.480000</speed>
</trkpt>
<trkpt lat="21.161320" lon="105.779388">
<ele>-5.758366</ele>
<time>2011-04-29T09:30:10Z</time>
<desc>lat.=21.161320, lon.=105.779388, Alt.=-5.758366m. Speed=1.044000m/h.</desc>
<speed>0.290000</speed>
</trkpt>
<trkpt lat="21.161301" lon="105.779388">
<ele>-5.598331</ele>
<time>2011-04-29T09:30:15Z</time>
<desc>lat.=21.161301, lon.=105.779388, Alt.=-5.598331m. Speed=0.972000m/h.</desc>
<speed>0.270000</speed>
</trkpt>
<trkpt lat="21.161263" lon="105.779388">
<ele>-6.093571</ele>
<time>2011-04-29T09:30:20Z</time>
<desc>lat.=21.161263, lon.=105.779388, Alt.=-6.093571m. Speed=7.956000m/h.</desc>
<speed>2.210000</speed>
</trkpt>
<trkpt lat="21.161150" lon="105.779366">
<ele>-8.301155</ele>
<time>2011-04-29T09:30:25Z</time>
<desc>lat.=21.161150, lon.=105.779366, Alt.=-8.301155m. Speed=8.028000m/h.</desc>
<speed>2.230000</speed>
</trkpt>
<trkpt lat="21.161091" lon="105.779373">
<ele>-11.505989</ele>
<time>2011-04-29T09:30:30Z</time>
<desc>lat.=21.161091, lon.=105.779373, Alt.=-11.505989m. Speed=5.796000m/h.</desc>
<speed>1.610000</speed>
</trkpt>
<trkpt lat="21.160976" lon="105.779373">
<ele>-11.175911</ele>
<time>2011-04-29T09:30:35Z</time>
<desc>lat.=21.160976, lon.=105.779373, Alt.=-11.175911m. Speed=9.504000m/h.</desc>
<speed>2.640000</speed>
</trkpt>
<trkpt lat="21.160830" lon="105.779366">
<ele>-11.506721</ele>
<time>2011-04-29T09:30:40Z</time>
<desc>lat.=21.160830, lon.=105.779366, Alt.=-11.506721m. Speed=11.664000m/h.</desc>
<speed>3.240000</speed>
</trkpt>
<trkpt lat="21.160645" lon="105.779350">
<ele>-9.319466</ele>
<time>2011-04-29T09:30:45Z</time>
<desc>lat.=21.160645, lon.=105.779350, Alt.=-9.319466m. Speed=13.608000m/h.</desc>
<speed>3.780000</speed>
</trkpt>
<trkpt lat="21.160479" lon="105.779343">
<ele>-12.021126</ele>
<time>2011-04-29T09:30:50Z</time>
<desc>lat.=21.160479, lon.=105.779343, Alt.=-12.021126m. Speed=12.600000m/h.</desc>
<speed>3.500000</speed>
</trkpt>
<trkpt lat="21.160322" lon="105.779343">
<ele>-13.647346</ele>
<time>2011-04-29T09:30:55Z</time>
<desc>lat.=21.160322, lon.=105.779343, Alt.=-13.647346m. Speed=10.008000m/h.</desc>
<speed>2.780000</speed>
</trkpt>
<trkpt lat="21.160158" lon="105.779343">
<ele>-13.225716</ele>
<time>2011-04-29T09:31:00Z</time>
<desc>lat.=21.160158, lon.=105.779343, Alt.=-13.225716m. Speed=12.672000m/h.</desc>
<speed>3.520000</speed>
</trkpt>
<trkpt lat="21.160015" lon="105.779320">
<ele>-15.223274</ele>
<time>2011-04-29T09:31:05Z</time>
<desc>lat.=21.160015, lon.=105.779320, Alt.=-15.223274m. Speed=9.252000m/h.</desc>
<speed>2.570000</speed>
</trkpt>
<trkpt lat="21.159859" lon="105.779305">
<ele>-15.830940</ele>
<time>2011-04-29T09:31:10Z</time>
<desc>lat.=21.159859, lon.=105.779305, Alt.=-15.830940m. Speed=7.740000m/h.</desc>
<speed>2.150000</speed>
</trkpt>
<trkpt lat="21.159760" lon="105.779320">
<ele>-16.131607</ele>
<time>2011-04-29T09:31:15Z</time>
<desc>lat.=21.159760, lon.=105.779320, Alt.=-16.131607m. Speed=3.060000m/h.</desc>
<speed>0.850000</speed>
</trkpt>
<trkpt lat="21.159737" lon="105.779320">
<ele>-14.193733</ele>
<time>2011-04-29T09:31:20Z</time>
<desc>lat.=21.159737, lon.=105.779320, Alt.=-14.193733m. Speed=0.396000m/h.</desc>
<speed>0.110000</speed>
</trkpt>
<trkpt lat="21.159735" lon="105.779312">
<ele>-14.372688</ele>
<time>2011-04-29T09:31:25Z</time>
<desc>lat.=21.159735, lon.=105.779312, Alt.=-14.372688m. Speed=0.540000m/h.</desc>
<speed>0.150000</speed>
</trkpt>
<trkpt lat="21.159733" lon="105.779312">
<ele>-14.546272</ele>
<time>2011-04-29T09:31:30Z</time>
<desc>lat.=21.159733, lon.=105.779312, Alt.=-14.546272m. Speed=0.252000m/h.</desc>
<speed>0.070000</speed>
</trkpt>
<trkpt lat="21.159733" lon="105.779312">
<ele>-14.613899</ele>
<time>2011-04-29T09:31:35Z</time>
<desc>lat.=21.159733, lon.=105.779312, Alt.=-14.613899m. Speed=0.144000m/h.</desc>
<speed>0.040000</speed>
</trkpt>
<trkpt lat="21.159733" lon="105.779312">
<ele>-14.614143</ele>
<time>2011-04-29T09:31:40Z</time>
<desc>lat.=21.159733, lon.=105.779312, Alt.=-14.614143m. Speed=0.216000m/h.</desc>
<speed>0.060000</speed>
</trkpt>
<trkpt lat="21.159733" lon="105.779305">
<ele>-14.634407</ele>
<time>2011-04-29T09:31:45Z</time>
<desc>lat.=21.159733, lon.=105.779305, Alt.=-14.634407m. Speed=0.432000m/h.</desc>
<speed>0.120000</speed>
</trkpt>
<trkpt lat="21.159735" lon="105.779297">
<ele>-14.634895</ele>
<time>2011-04-29T09:31:50Z</time>
<desc>lat.=21.159735, lon.=105.779297, Alt.=-14.634895m. Speed=0.936000m/h.</desc>
<speed>0.260000</speed>
</trkpt>
<trkpt lat="21.159737" lon="105.779282">
<ele>-14.610725</ele>
<time>2011-04-29T09:31:55Z</time>
<desc>lat.=21.159737, lon.=105.779282, Alt.=-14.610725m. Speed=0.900000m/h.</desc>
<speed>0.250000</speed>
</trkpt>
<trkpt lat="21.159739" lon="105.779274">
<ele>-14.587288</ele>
<time>2011-04-29T09:32:00Z</time>
<desc>lat.=21.159739, lon.=105.779274, Alt.=-14.587288m. Speed=0.864000m/h.</desc>
<speed>0.240000</speed>
</trkpt>
<trkpt lat="21.159744" lon="105.779259">
<ele>-14.613411</ele>
<time>2011-04-29T09:32:05Z</time>
<desc>lat.=21.159744, lon.=105.779259, Alt.=-14.613411m. Speed=0.504000m/h.</desc>
<speed>0.140000</speed>
</trkpt>
<trkpt lat="21.159746" lon="105.779259">
<ele>-14.656136</ele>
<time>2011-04-29T09:32:10Z</time>
<desc>lat.=21.159746, lon.=105.779259, Alt.=-14.656136m. Speed=0.108000m/h.</desc>
<speed>0.030000</speed>
</trkpt>
<trkpt lat="21.159739" lon="105.779251">
<ele>-14.727669</ele>
<time>2011-04-29T09:32:15Z</time>
<desc>lat.=21.159739, lon.=105.779251, Alt.=-14.727669m. Speed=2.520000m/h.</desc>
<speed>0.700000</speed>
</trkpt>
<trkpt lat="21.159580" lon="105.779274">
<ele>-14.719612</ele>
<time>2011-04-29T09:32:20Z</time>
<desc>lat.=21.159580, lon.=105.779274, Alt.=-14.719612m. Speed=16.236000m/h.</desc>
<speed>4.510000</speed>
</trkpt>
<trkpt lat="21.159294" lon="105.779297">
<ele>-15.817024</ele>
<time>2011-04-29T09:32:25Z</time>
<desc>lat.=21.159294, lon.=105.779297, Alt.=-15.817024m. Speed=25.920000m/h.</desc>
<speed>7.200000</speed>
</trkpt>
<trkpt lat="21.158878" lon="105.779297">
<ele>-14.436653</ele>
<time>2011-04-29T09:32:30Z</time>
<desc>lat.=21.158878, lon.=105.779297, Alt.=-14.436653m. Speed=37.043999m/h.</desc>
<speed>10.290000</speed>
</trkpt>
<trkpt lat="21.158382" lon="105.779289">
<ele>-13.339973</ele>
<time>2011-04-29T09:32:35Z</time>
<desc>lat.=21.158382, lon.=105.779289, Alt.=-13.339973m. Speed=41.076000m/h.</desc>
<speed>11.410000</speed>
</trkpt>
<trkpt lat="21.157810" lon="105.779266">
<ele>-13.875130</ele>
<time>2011-04-29T09:32:40Z</time>
<desc>lat.=21.157810, lon.=105.779266, Alt.=-13.875130m. Speed=49.320000m/h.</desc>
<speed>13.700000</speed>
</trkpt>
<trkpt lat="21.157124" lon="105.779236">
<ele>-12.376106</ele>
<time>2011-04-29T09:32:45Z</time>
<desc>lat.=21.157124, lon.=105.779236, Alt.=-12.376106m. Speed=58.535999m/h.</desc>
<speed>16.260000</speed>
</trkpt>
<trkpt lat="21.156332" lon="105.779190">
<ele>-13.169319</ele>
<time>2011-04-29T09:32:50Z</time>
<desc>lat.=21.156332, lon.=105.779190, Alt.=-13.169319m. Speed=66.204002m/h.</desc>
<speed>18.390001</speed>
</trkpt>
<trkpt lat="21.155460" lon="105.779160">
<ele>-12.238411</ele>
<time>2011-04-29T09:32:55Z</time>
<desc>lat.=21.155460, lon.=105.779160, Alt.=-12.238411m. Speed=72.251999m/h.</desc>
<speed>20.070000</speed>
</trkpt>
<trkpt lat="21.154505" lon="105.779106">
<ele>-13.207161</ele>
<time>2011-04-29T09:33:00Z</time>
<desc>lat.=21.154505, lon.=105.779106, Alt.=-13.207161m. Speed=78.947998m/h.</desc>
<speed>21.929999</speed>
</trkpt>
<trkpt lat="21.153469" lon="105.779060">
<ele>-12.796028</ele>
<time>2011-04-29T09:33:05Z</time>
<desc>lat.=21.153469, lon.=105.779060, Alt.=-12.796028m. Speed=79.776001m/h.</desc>
<speed>22.160000</speed>
</trkpt>
<trkpt lat="21.152512" lon="105.779037">
<ele>-14.893929</ele>
<time>2011-04-29T09:33:10Z</time>
<desc>lat.=21.152512, lon.=105.779037, Alt.=-14.893929m. Speed=75.024002m/h.</desc>
<speed>20.840001</speed>
</trkpt>
<trkpt lat="21.151588" lon="105.778984">
<ele>-16.127701</ele>
<time>2011-04-29T09:33:15Z</time>
<desc>lat.=21.151588, lon.=105.778984, Alt.=-16.127701m. Speed=71.424004m/h.</desc>
<speed>19.840001</speed>
</trkpt>
<trkpt lat="21.150723" lon="105.778954">
<ele>-17.062759</ele>
<time>2011-04-29T09:33:20Z</time>
<desc>lat.=21.150723, lon.=105.778954, Alt.=-17.062759m. Speed=67.643997m/h.</desc>
<speed>18.789999</speed>
</trkpt>
<trkpt lat="21.149883" lon="105.778923">
<ele>-18.464127</ele>
<time>2011-04-29T09:33:25Z</time>
<desc>lat.=21.149883, lon.=105.778923, Alt.=-18.464127m. Speed=67.103996m/h.</desc>
<speed>18.639999</speed>
</trkpt>
<trkpt lat="21.148991" lon="105.778900">
<ele>-14.775276</ele>
<time>2011-04-29T09:33:30Z</time>
<desc>lat.=21.148991, lon.=105.778900, Alt.=-14.775276m. Speed=71.171997m/h.</desc>
<speed>19.769999</speed>
</trkpt>
<trkpt lat="21.148045" lon="105.778854">
<ele>-12.753059</ele>
<time>2011-04-29T09:33:35Z</time>
<desc>lat.=21.148045, lon.=105.778854, Alt.=-12.753059m. Speed=75.744003m/h.</desc>
<speed>21.040001</speed>
</trkpt>
<trkpt lat="21.147076" lon="105.778809">
<ele>-11.901009</ele>
<time>2011-04-29T09:33:40Z</time>
<desc>lat.=21.147076, lon.=105.778809, Alt.=-11.901009m. Speed=78.839996m/h.</desc>
<speed>21.899999</speed>
</trkpt>
<trkpt lat="21.146078" lon="105.778755">
<ele>-11.206429</ele>
<time>2011-04-29T09:33:45Z</time>
<desc>lat.=21.146078, lon.=105.778755, Alt.=-11.206429m. Speed=79.884003m/h.</desc>
<speed>22.190001</speed>
</trkpt>
<trkpt lat="21.145086" lon="105.778702">
<ele>-10.937386</ele>
<time>2011-04-29T09:33:50Z</time>
<desc>lat.=21.145086, lon.=105.778702, Alt.=-10.937386m. Speed=77.832001m/h.</desc>
<speed>21.620000</speed>
</trkpt>
<trkpt lat="21.144119" lon="105.778671">
<ele>-10.638313</ele>
<time>2011-04-29T09:33:55Z</time>
<desc>lat.=21.144119, lon.=105.778671, Alt.=-10.638313m. Speed=76.103996m/h.</desc>
<speed>21.139999</speed>
</trkpt>
<trkpt lat="21.143166" lon="105.778625">
<ele>-8.255745</ele>
<time>2011-04-29T09:34:00Z</time>
<desc>lat.=21.143166, lon.=105.778625, Alt.=-8.255745m. Speed=77.255997m/h.</desc>
<speed>21.459999</speed>
</trkpt>
<trkpt lat="21.142174" lon="105.778603">
<ele>-8.023323</ele>
<time>2011-04-29T09:34:05Z</time>
<desc>lat.=21.142174, lon.=105.778603, Alt.=-8.023323m. Speed=80.136002m/h.</desc>
<speed>22.260000</speed>
</trkpt>
<trkpt lat="21.141161" lon="105.778557">
<ele>-7.085514</ele>
<time>2011-04-29T09:34:10Z</time>
<desc>lat.=21.141161, lon.=105.778557, Alt.=-7.085514m. Speed=80.676003m/h.</desc>
<speed>22.410001</speed>
</trkpt>
<trkpt lat="21.140139" lon="105.778496">
<ele>-6.424137</ele>
<time>2011-04-29T09:34:15Z</time>
<desc>lat.=21.140139, lon.=105.778496, Alt.=-6.424137m. Speed=83.232002m/h.</desc>
<speed>23.120001</speed>
</trkpt>
<trkpt lat="21.139118" lon="105.778435">
<ele>-7.033512</ele>
<time>2011-04-29T09:34:20Z</time>
<desc>lat.=21.139118, lon.=105.778435, Alt.=-7.033512m. Speed=78.012001m/h.</desc>
<speed>21.670000</speed>
</trkpt>
<trkpt lat="21.138193" lon="105.778397">
<ele>-8.464973</ele>
<time>2011-04-29T09:34:25Z</time>
<desc>lat.=21.138193, lon.=105.778397, Alt.=-8.464973m. Speed=71.099998m/h.</desc>
<speed>19.750000</speed>
</trkpt>
<trkpt lat="21.137287" lon="105.778358">
<ele>-9.787239</ele>
<time>2011-04-29T09:34:30Z</time>
<desc>lat.=21.137287, lon.=105.778358, Alt.=-9.787239m. Speed=73.835999m/h.</desc>
<speed>20.510000</speed>
</trkpt>
<trkpt lat="21.136349" lon="105.778313">
<ele>-9.912971</ele>
<time>2011-04-29T09:34:35Z</time>
<desc>lat.=21.136349, lon.=105.778313, Alt.=-9.912971m. Speed=75.671997m/h.</desc>
<speed>21.019999</speed>
</trkpt>
<trkpt lat="21.135405" lon="105.778313">
<ele>-13.078743</ele>
<time>2011-04-29T09:34:40Z</time>
<desc>lat.=21.135405, lon.=105.778313, Alt.=-13.078743m. Speed=75.564003m/h.</desc>
<speed>20.990001</speed>
</trkpt>
<trkpt lat="21.134451" lon="105.778412">
<ele>-13.022102</ele>
<time>2011-04-29T09:34:45Z</time>
<desc>lat.=21.134451, lon.=105.778412, Alt.=-13.022102m. Speed=75.348000m/h.</desc>
<speed>20.930000</speed>
</trkpt>
<trkpt lat="21.133533" lon="105.778610">
<ele>-10.153450</ele>
<time>2011-04-29T09:34:50Z</time>
<desc>lat.=21.133533, lon.=105.778610, Alt.=-10.153450m. Speed=72.143997m/h.</desc>
<speed>20.039999</speed>
</trkpt>
<trkpt lat="21.132648" lon="105.778854">
<ele>-9.370491</ele>
<time>2011-04-29T09:34:55Z</time>
<desc>lat.=21.132648, lon.=105.778854, Alt.=-9.370491m. Speed=71.891998m/h.</desc>
<speed>19.970000</speed>
</trkpt>
<trkpt lat="21.131805" lon="105.779152">
<ele>-8.926643</ele>
<time>2011-04-29T09:35:00Z</time>
<desc>lat.=21.131805, lon.=105.779152, Alt.=-8.926643m. Speed=69.120003m/h.</desc>
<speed>19.200001</speed>
</trkpt>
<trkpt lat="21.130999" lon="105.779434">
<ele>-8.740120</ele>
<time>2011-04-29T09:35:05Z</time>
<desc>lat.=21.130999, lon.=105.779434, Alt.=-8.740120m. Speed=67.931999m/h.</desc>
<speed>18.870000</speed>
</trkpt>
<trkpt lat="21.130167" lon="105.779701">
<ele>-10.119514</ele>
<time>2011-04-29T09:35:10Z</time>
<desc>lat.=21.130167, lon.=105.779701, Alt.=-10.119514m. Speed=71.028000m/h.</desc>
<speed>19.730000</speed>
</trkpt>
<trkpt lat="21.129303" lon="105.779953">
<ele>-9.942024</ele>
<time>2011-04-29T09:35:15Z</time>
<desc>lat.=21.129303, lon.=105.779953, Alt.=-9.942024m. Speed=70.344002m/h.</desc>
<speed>19.540000</speed>
</trkpt>
<trkpt lat="21.128502" lon="105.780228">
<ele>-8.854134</ele>
<time>2011-04-29T09:35:20Z</time>
<desc>lat.=21.128502, lon.=105.780228, Alt.=-8.854134m. Speed=66.996002m/h.</desc>
<speed>18.610001</speed>
</trkpt>
<trkpt lat="21.127705" lon="105.780502">
<ele>-8.685188</ele>
<time>2011-04-29T09:35:25Z</time>
<desc>lat.=21.127705, lon.=105.780502, Alt.=-8.685188m. Speed=65.879997m/h.</desc>
<speed>18.299999</speed>
</trkpt>
<trkpt lat="21.126926" lon="105.780746">
<ele>-6.511051</ele>
<time>2011-04-29T09:35:30Z</time>
<desc>lat.=21.126926, lon.=105.780746, Alt.=-6.511051m. Speed=62.784000m/h.</desc>
<speed>17.440000</speed>
</trkpt>
<trkpt lat="21.126173" lon="105.780991">
<ele>-4.918766</ele>
<time>2011-04-29T09:35:35Z</time>
<desc>lat.=21.126173, lon.=105.780991, Alt.=-4.918766m. Speed=62.712002m/h.</desc>
<speed>17.420001</speed>
</trkpt>
<trkpt lat="21.125450" lon="105.781258">
<ele>-6.266422</ele>
<time>2011-04-29T09:35:40Z</time>
<desc>lat.=21.125450, lon.=105.781258, Alt.=-6.266422m. Speed=58.751999m/h.</desc>
<speed>16.320000</speed>
</trkpt>
<trkpt lat="21.124744" lon="105.781487">
<ele>-5.314518</ele>
<time>2011-04-29T09:35:45Z</time>
<desc>lat.=21.124744, lon.=105.781487, Alt.=-5.314518m. Speed=57.276001m/h.</desc>
<speed>15.910000</speed>
</trkpt>
<trkpt lat="21.124056" lon="105.781723">
<ele>-3.267550</ele>
<time>2011-04-29T09:35:50Z</time>
<desc>lat.=21.124056, lon.=105.781723, Alt.=-3.267550m. Speed=56.916000m/h.</desc>
<speed>15.810000</speed>
</trkpt>
<trkpt lat="21.123386" lon="105.781952">
<ele>-6.116520</ele>
<time>2011-04-29T09:35:55Z</time>
<desc>lat.=21.123386, lon.=105.781952, Alt.=-6.116520m. Speed=57.096001m/h.</desc>
<speed>15.860000</speed>
</trkpt>
<trkpt lat="21.122683" lon="105.782181">
<ele>-8.189583</ele>
<time>2011-04-29T09:36:00Z</time>
<desc>lat.=21.122683, lon.=105.782181, Alt.=-8.189583m. Speed=59.076000m/h.</desc>
<speed>16.410000</speed>
</trkpt>
<trkpt lat="21.121998" lon="105.782417">
<ele>-6.033268</ele>
<time>2011-04-29T09:36:05Z</time>
<desc>lat.=21.121998, lon.=105.782417, Alt.=-6.033268m. Speed=53.639999m/h.</desc>
<speed>14.900000</speed>
</trkpt>
<trkpt lat="21.121433" lon="105.782623">
<ele>-4.497623</ele>
<time>2011-04-29T09:36:10Z</time>
<desc>lat.=21.121433, lon.=105.782623, Alt.=-4.497623m. Speed=39.924000m/h.</desc>
<speed>11.090000</speed>
</trkpt>
<trkpt lat="21.121035" lon="105.782745">
<ele>-5.369938</ele>
<time>2011-04-29T09:36:15Z</time>
<desc>lat.=21.121035, lon.=105.782745, Alt.=-5.369938m. Speed=27.827999m/h.</desc>
<speed>7.730000</speed>
</trkpt>
<trkpt lat="21.120768" lon="105.782852">
<ele>-6.903385</ele>
<time>2011-04-29T09:36:20Z</time>
<desc>lat.=21.120768, lon.=105.782852, Alt.=-6.903385m. Speed=20.375999m/h.</desc>
<speed>5.660000</speed>
</trkpt>
<trkpt lat="21.120577" lon="105.782921">
<ele>-6.541935</ele>
<time>2011-04-29T09:36:25Z</time>
<desc>lat.=21.120577, lon.=105.782921, Alt.=-6.541935m. Speed=14.076000m/h.</desc>
<speed>3.910000</speed>
</trkpt>
<trkpt lat="21.120440" lon="105.782944">
<ele>-6.378361</ele>
<time>2011-04-29T09:36:30Z</time>
<desc>lat.=21.120440, lon.=105.782944, Alt.=-6.378361m. Speed=10.080000m/h.</desc>
<speed>2.800000</speed>
</trkpt>
<trkpt lat="21.120337" lon="105.782974">
<ele>-7.190495</ele>
<time>2011-04-29T09:36:35Z</time>
<desc>lat.=21.120337, lon.=105.782974, Alt.=-7.190495m. Speed=7.740000m/h.</desc>
<speed>2.150000</speed>
</trkpt>
<trkpt lat="21.120239" lon="105.783005">
<ele>-7.634098</ele>
<time>2011-04-29T09:36:40Z</time>
<desc>lat.=21.120239, lon.=105.783005, Alt.=-7.634098m. Speed=8.532000m/h.</desc>
<speed>2.370000</speed>
</trkpt>
<trkpt lat="21.120163" lon="105.783028">
<ele>-10.332893</ele>
<time>2011-04-29T09:36:45Z</time>
<desc>lat.=21.120163, lon.=105.783028, Alt.=-10.332893m. Speed=7.128000m/h.</desc>
<speed>1.980000</speed>
</trkpt>
<trkpt lat="21.120075" lon="105.783058">
<ele>-13.617317</ele>
<time>2011-04-29T09:36:50Z</time>
<desc>lat.=21.120075, lon.=105.783058, Alt.=-13.617317m. Speed=5.724000m/h.</desc>
<speed>1.590000</speed>
</trkpt>
<trkpt lat="21.120024" lon="105.783081">
<ele>-16.422134</ele>
<time>2011-04-29T09:36:55Z</time>
<desc>lat.=21.120024, lon.=105.783081, Alt.=-16.422134m. Speed=2.484000m/h.</desc>
<speed>0.690000</speed>
</trkpt>
<trkpt lat="21.120007" lon="105.783089">
<ele>-17.648697</ele>
<time>2011-04-29T09:37:00Z</time>
<desc>lat.=21.120007, lon.=105.783089, Alt.=-17.648697m. Speed=0.756000m/h.</desc>
<speed>0.210000</speed>
</trkpt>
<trkpt lat="21.119984" lon="105.783089">
<ele>-18.193619</ele>
<time>2011-04-29T09:37:05Z</time>
<desc>lat.=21.119984, lon.=105.783089, Alt.=-18.193619m. Speed=3.960000m/h.</desc>
<speed>1.100000</speed>
</trkpt>
<trkpt lat="21.119913" lon="105.783112">
<ele>-17.817154</ele>
<time>2011-04-29T09:37:10Z</time>
<desc>lat.=21.119913, lon.=105.783112, Alt.=-17.817154m. Speed=5.076000m/h.</desc>
<speed>1.410000</speed>
</trkpt>
<trkpt lat="21.119852" lon="105.783134">
<ele>-18.203384</ele>
<time>2011-04-29T09:37:15Z</time>
<desc>lat.=21.119852, lon.=105.783134, Alt.=-18.203384m. Speed=4.356000m/h.</desc>
<speed>1.210000</speed>
</trkpt>
<trkpt lat="21.119806" lon="105.783142">
<ele>-16.661880</ele>
<time>2011-04-29T09:37:20Z</time>
<desc>lat.=21.119806, lon.=105.783142, Alt.=-16.661880m. Speed=2.916000m/h.</desc>
<speed>0.810000</speed>
</trkpt>
<trkpt lat="21.119736" lon="105.783173">
<ele>-16.331802</ele>
<time>2011-04-29T09:37:25Z</time>
<desc>lat.=21.119736, lon.=105.783173, Alt.=-16.331802m. Speed=9.288000m/h.</desc>
<speed>2.580000</speed>
</trkpt>
<trkpt lat="21.119583" lon="105.783218">
<ele>-15.281136</ele>
<time>2011-04-29T09:37:30Z</time>
<desc>lat.=21.119583, lon.=105.783218, Alt.=-15.281136m. Speed=10.116000m/h.</desc>
<speed>2.810000</speed>
</trkpt>
<trkpt lat="21.119511" lon="105.783264">
<ele>-13.880013</ele>
<time>2011-04-29T09:37:35Z</time>
<desc>lat.=21.119511, lon.=105.783264, Alt.=-13.880013m. Speed=2.664000m/h.</desc>
<speed>0.740000</speed>
</trkpt>
<trkpt lat="21.119442" lon="105.783272">
<ele>-12.382942</ele>
<time>2011-04-29T09:37:40Z</time>
<desc>lat.=21.119442, lon.=105.783272, Alt.=-12.382942m. Speed=7.740000m/h.</desc>
<speed>2.150000</speed>
</trkpt>
<trkpt lat="21.119314" lon="105.783295">
<ele>-12.351204</ele>
<time>2011-04-29T09:37:45Z</time>
<desc>lat.=21.119314, lon.=105.783295, Alt.=-12.351204m. Speed=10.584000m/h.</desc>
<speed>2.940000</speed>
</trkpt>
<trkpt lat="21.119167" lon="105.783310">
<ele>-9.969612</ele>
<time>2011-04-29T09:37:50Z</time>
<desc>lat.=21.119167, lon.=105.783310, Alt.=-9.969612m. Speed=12.564000m/h.</desc>
<speed>3.490000</speed>
</trkpt>
<trkpt lat="21.119032" lon="105.783356">
<ele>-8.741585</ele>
<time>2011-04-29T09:37:55Z</time>
<desc>lat.=21.119032, lon.=105.783356, Alt.=-8.741585m. Speed=8.280000m/h.</desc>
<speed>2.300000</speed>
</trkpt>
<trkpt lat="21.118938" lon="105.783394">
<ele>-5.892887</ele>
<time>2011-04-29T09:38:00Z</time>
<desc>lat.=21.118938, lon.=105.783394, Alt.=-5.892887m. Speed=4.680000m/h.</desc>
<speed>1.300000</speed>
</trkpt>
<trkpt lat="21.118877" lon="105.783417">
<ele>-7.247135</ele>
<time>2011-04-29T09:38:05Z</time>
<desc>lat.=21.118877, lon.=105.783417, Alt.=-7.247135m. Speed=8.640000m/h.</desc>
<speed>2.400000</speed>
</trkpt>
<trkpt lat="21.118748" lon="105.783455">
<ele>-3.821321</ele>
<time>2011-04-29T09:38:10Z</time>
<desc>lat.=21.118748, lon.=105.783455, Alt.=-3.821321m. Speed=10.764000m/h.</desc>
<speed>2.990000</speed>
</trkpt>
<trkpt lat="21.118572" lon="105.783531">
<ele>-4.374577</ele>
<time>2011-04-29T09:38:15Z</time>
<desc>lat.=21.118572, lon.=105.783531, Alt.=-4.374577m. Speed=18.288000m/h.</desc>
<speed>5.080000</speed>
</trkpt>
<trkpt lat="21.118279" lon="105.783646">
<ele>-2.063082</ele>
<time>2011-04-29T09:38:20Z</time>
<desc>lat.=21.118279, lon.=105.783646, Alt.=-2.063082m. Speed=27.900000m/h.</desc>
<speed>7.750000</speed>
</trkpt>
<trkpt lat="21.117882" lon="105.783783">
<ele>-0.902367</ele>
<time>2011-04-29T09:38:25Z</time>
<desc>lat.=21.117882, lon.=105.783783, Alt.=-0.902367m. Speed=34.307999m/h.</desc>
<speed>9.530000</speed>
</trkpt>
<trkpt lat="21.117443" lon="105.783936">
<ele>-2.122347</ele>
<time>2011-04-29T09:38:30Z</time>
<desc>lat.=21.117443, lon.=105.783936, Alt.=-2.122347m. Speed=37.512001m/h.</desc>
<speed>10.420000</speed>
</trkpt>
<trkpt lat="21.116976" lon="105.784088">
<ele>-1.656327</ele>
<time>2011-04-29T09:38:35Z</time>
<desc>lat.=21.116976, lon.=105.784088, Alt.=-1.656327m. Speed=39.599998m/h.</desc>
<speed>11.000000</speed>
</trkpt>
<trkpt lat="21.116480" lon="105.784264">
<ele>1.753404</ele>
<time>2011-04-29T09:38:40Z</time>
<desc>lat.=21.116480, lon.=105.784264, Alt.=1.753404m. Speed=41.076000m/h.</desc>
<speed>11.410000</speed>
</trkpt>
<trkpt lat="21.115959" lon="105.784439">
<ele>2.296419</ele>
<time>2011-04-29T09:38:45Z</time>
<desc>lat.=21.115959, lon.=105.784439, Alt.=2.296419m. Speed=44.784000m/h.</desc>
<speed>12.440000</speed>
</trkpt>
<trkpt lat="21.115379" lon="105.784630">
<ele>0.426518</ele>
<time>2011-04-29T09:38:50Z</time>
<desc>lat.=21.115379, lon.=105.784630, Alt.=0.426518m. Speed=47.627998m/h.</desc>
<speed>13.230000</speed>
</trkpt>
<trkpt lat="21.114807" lon="105.784821">
<ele>0.114219</ele>
<time>2011-04-29T09:38:55Z</time>
<desc>lat.=21.114807, lon.=105.784821, Alt.=0.114219m. Speed=47.051998m/h.</desc>
<speed>13.069999</speed>
</trkpt>
<trkpt lat="21.114260" lon="105.785019">
<ele>-0.659768</ele>
<time>2011-04-29T09:39:00Z</time>
<desc>lat.=21.114260, lon.=105.785019, Alt.=-0.659768m. Speed=41.507999m/h.</desc>
<speed>11.530000</speed>
</trkpt>
<trkpt lat="21.113852" lon="105.785164">
<ele>0.129851</ele>
<time>2011-04-29T09:39:05Z</time>
<desc>lat.=21.113852, lon.=105.785164, Alt.=0.129851m. Speed=26.639999m/h.</desc>
<speed>7.400000</speed>
</trkpt>
<trkpt lat="21.113628" lon="105.785233">
<ele>-1.381303</ele>
<time>2011-04-29T09:39:10Z</time>
<desc>lat.=21.113628, lon.=105.785233, Alt.=-1.381303m. Speed=17.063999m/h.</desc>
<speed>4.740000</speed>
</trkpt>
<trkpt lat="21.113426" lon="105.785294">
<ele>-3.503389</ele>
<time>2011-04-29T09:39:15Z</time>
<desc>lat.=21.113426, lon.=105.785294, Alt.=-3.503389m. Speed=19.728001m/h.</desc>
<speed>5.480000</speed>
</trkpt>
<trkpt lat="21.113159" lon="105.785385">
<ele>-2.948946</ele>
<time>2011-04-29T09:39:20Z</time>
<desc>lat.=21.113159, lon.=105.785385, Alt.=-2.948946m. Speed=21.636000m/h.</desc>
<speed>6.010000</speed>
</trkpt>
<trkpt lat="21.112894" lon="105.785469">
<ele>-4.454044</ele>
<time>2011-04-29T09:39:25Z</time>
<desc>lat.=21.112894, lon.=105.785469, Alt.=-4.454044m. Speed=23.004000m/h.</desc>
<speed>6.390000</speed>
</trkpt>
<trkpt lat="21.112606" lon="105.785591">
<ele>-4.905216</ele>
<time>2011-04-29T09:39:30Z</time>
<desc>lat.=21.112606, lon.=105.785591, Alt.=-4.905216m. Speed=26.820000m/h.</desc>
<speed>7.450000</speed>
</trkpt>
<trkpt lat="21.112230" lon="105.785728">
<ele>-6.131413</ele>
<time>2011-04-29T09:39:35Z</time>
<desc>lat.=21.112230, lon.=105.785728, Alt.=-6.131413m. Speed=36.827999m/h.</desc>
<speed>10.230000</speed>
</trkpt>
<trkpt lat="21.111765" lon="105.785873">
<ele>-1.893754</ele>
<time>2011-04-29T09:39:40Z</time>
<desc>lat.=21.111765, lon.=105.785873, Alt.=-1.893754m. Speed=37.043999m/h.</desc>
<speed>10.290000</speed>
</trkpt>
<trkpt lat="21.111288" lon="105.786003">
<ele>-2.572969</ele>
<time>2011-04-29T09:39:45Z</time>
<desc>lat.=21.111288, lon.=105.786003, Alt.=-2.572969m. Speed=39.312000m/h.</desc>
<speed>10.920000</speed>
</trkpt>
<trkpt lat="21.110815" lon="105.786156">
<ele>-5.144840</ele>
<time>2011-04-29T09:39:50Z</time>
<desc>lat.=21.110815, lon.=105.786156, Alt.=-5.144840m. Speed=40.608002m/h.</desc>
<speed>11.280000</speed>
</trkpt>
<trkpt lat="21.110317" lon="105.786301">
<ele>-2.594759</ele>
<time>2011-04-29T09:39:55Z</time>
<desc>lat.=21.110317, lon.=105.786301, Alt.=-2.594759m. Speed=43.523998m/h.</desc>
<speed>12.090000</speed>
</trkpt>
<trkpt lat="21.109779" lon="105.786491">
<ele>-0.497860</ele>
<time>2011-04-29T09:40:00Z</time>
<desc>lat.=21.109779, lon.=105.786491, Alt.=-0.497860m. Speed=45.108002m/h.</desc>
<speed>12.530000</speed>
</trkpt>
<trkpt lat="21.109222" lon="105.786682">
<ele>1.560349</ele>
<time>2011-04-29T09:40:05Z</time>
<desc>lat.=21.109222, lon.=105.786682, Alt.=1.560349m. Speed=46.439999m/h.</desc>
<speed>12.900000</speed>
</trkpt>
<trkpt lat="21.108648" lon="105.786865">
<ele>4.137272</ele>
<time>2011-04-29T09:40:10Z</time>
<desc>lat.=21.108648, lon.=105.786865, Alt.=4.137272m. Speed=48.167999m/h.</desc>
<speed>13.380000</speed>
</trkpt>
<trkpt lat="21.108051" lon="105.787025">
<ele>8.025520</ele>
<time>2011-04-29T09:40:15Z</time>
<desc>lat.=21.108051, lon.=105.787025, Alt.=8.025520m. Speed=48.708000m/h.</desc>
<speed>13.530000</speed>
</trkpt>
<trkpt lat="21.107405" lon="105.787086">
<ele>10.468391</ele>
<time>2011-04-29T09:40:20Z</time>
<desc>lat.=21.107405, lon.=105.787086, Alt.=10.468391m. Speed=54.720001m/h.</desc>
<speed>15.200000</speed>
</trkpt>
<trkpt lat="21.106686" lon="105.787071">
<ele>11.455696</ele>
<time>2011-04-29T09:40:25Z</time>
<desc>lat.=21.106686, lon.=105.787071, Alt.=11.455696m. Speed=56.520000m/h.</desc>
<speed>15.700000</speed>
</trkpt>
<trkpt lat="21.105947" lon="105.787018">
<ele>10.362679</ele>
<time>2011-04-29T09:40:30Z</time>
<desc>lat.=21.105947, lon.=105.787018, Alt.=10.362679m. Speed=60.228001m/h.</desc>
<speed>16.730000</speed>
</trkpt>
<trkpt lat="21.105156" lon="105.786980">
<ele>13.969612</ele>
<time>2011-04-29T09:40:35Z</time>
<desc>lat.=21.105156, lon.=105.786980, Alt.=13.969612m. Speed=66.276001m/h.</desc>
<speed>18.410000</speed>
</trkpt>
<trkpt lat="21.104300" lon="105.786911">
<ele>14.042854</ele>
<time>2011-04-29T09:40:40Z</time>
<desc>lat.=21.104300, lon.=105.786911, Alt.=14.042854m. Speed=70.344002m/h.</desc>
<speed>19.540000</speed>
</trkpt>
<trkpt lat="21.103418" lon="105.786842">
<ele>15.918587</ele>
<time>2011-04-29T09:40:45Z</time>
<desc>lat.=21.103418, lon.=105.786842, Alt.=15.918587m. Speed=69.407997m/h.</desc>
<speed>19.279999</speed>
</trkpt>
<trkpt lat="21.102543" lon="105.786774">
<ele>14.777229</ele>
<time>2011-04-29T09:40:50Z</time>
<desc>lat.=21.102543, lon.=105.786774, Alt.=14.777229m. Speed=71.568001m/h.</desc>
<speed>19.880000</speed>
</trkpt>
<trkpt lat="21.101593" lon="105.786697">
<ele>12.843147</ele>
<time>2011-04-29T09:40:55Z</time>
<desc>lat.=21.101593, lon.=105.786697, Alt.=12.843147m. Speed=78.264000m/h.</desc>
<speed>21.740000</speed>
</trkpt>
<trkpt lat="21.100615" lon="105.786621">
<ele>15.984261</ele>
<time>2011-04-29T09:41:00Z</time>
<desc>lat.=21.100615, lon.=105.786621, Alt.=15.984261m. Speed=79.776001m/h.</desc>
<speed>22.160000</speed>
</trkpt>
<trkpt lat="21.099613" lon="105.786530">
<ele>15.492561</ele>
<time>2011-04-29T09:41:05Z</time>
<desc>lat.=21.099613, lon.=105.786530, Alt.=15.492561m. Speed=82.043999m/h.</desc>
<speed>22.790000</speed>
</trkpt>
<trkpt lat="21.098597" lon="105.786453">
<ele>15.507210</ele>
<time>2011-04-29T09:41:10Z</time>
<desc>lat.=21.098597, lon.=105.786453, Alt.=15.507210m. Speed=80.316002m/h.</desc>
<speed>22.310001</speed>
</trkpt>
<trkpt lat="21.097607" lon="105.786407">
<ele>15.692268</ele>
<time>2011-04-29T09:41:15Z</time>
<desc>lat.=21.097607, lon.=105.786407, Alt.=15.692268m. Speed=76.860001m/h.</desc>
<speed>21.350000</speed>
</trkpt>
<trkpt lat="21.096643" lon="105.786301">
<ele>17.581802</ele>
<time>2011-04-29T09:41:20Z</time>
<desc>lat.=21.096643, lon.=105.786301, Alt.=17.581802m. Speed=76.751999m/h.</desc>
<speed>21.320000</speed>
</trkpt>
<trkpt lat="21.095678" lon="105.786232">
<ele>20.554947</ele>
<time>2011-04-29T09:41:25Z</time>
<desc>lat.=21.095678, lon.=105.786232, Alt.=20.554947m. Speed=77.363998m/h.</desc>
<speed>21.490000</speed>
</trkpt>
<trkpt lat="21.094740" lon="105.786156">
<ele>21.151138</ele>
<time>2011-04-29T09:41:30Z</time>
<desc>lat.=21.094740, lon.=105.786156, Alt.=21.151138m. Speed=75.636002m/h.</desc>
<speed>21.010000</speed>
</trkpt>
<trkpt lat="21.093813" lon="105.786102">
<ele>21.600357</ele>
<time>2011-04-29T09:41:35Z</time>
<desc>lat.=21.093813, lon.=105.786102, Alt.=21.600357m. Speed=70.667999m/h.</desc>
<speed>19.630000</speed>
</trkpt>
<trkpt lat="21.092951" lon="105.786034">
<ele>22.591568</ele>
<time>2011-04-29T09:41:40Z</time>
<desc>lat.=21.092951, lon.=105.786034, Alt.=22.591568m. Speed=70.199997m/h.</desc>
<speed>19.499999</speed>
</trkpt>
<trkpt lat="21.092096" lon="105.785957">
<ele>21.134048</ele>
<time>2011-04-29T09:41:45Z</time>
<desc>lat.=21.092096, lon.=105.785957, Alt.=21.134048m. Speed=69.012001m/h.</desc>
<speed>19.170000</speed>
</trkpt>
<trkpt lat="21.091257" lon="105.785889">
<ele>20.378189</ele>
<time>2011-04-29T09:41:50Z</time>
<desc>lat.=21.091257, lon.=105.785889, Alt.=20.378189m. Speed=64.295998m/h.</desc>
<speed>17.859999</speed>
</trkpt>
<trkpt lat="21.090477" lon="105.785851">
<ele>18.920670</ele>
<time>2011-04-29T09:41:55Z</time>
<desc>lat.=21.090477, lon.=105.785851, Alt.=18.920670m. Speed=62.279999m/h.</desc>
<speed>17.300000</speed>
</trkpt>
<trkpt lat="21.089733" lon="105.785835">
<ele>17.411392</ele>
<time>2011-04-29T09:42:00Z</time>
<desc>lat.=21.089733, lon.=105.785835, Alt.=17.411392m. Speed=58.464001m/h.</desc>
<speed>16.240000</speed>
</trkpt>
<trkpt lat="21.089016" lon="105.786018">
<ele>14.446419</ele>
<time>2011-04-29T09:42:05Z</time>
<desc>lat.=21.089016, lon.=105.786018, Alt.=14.446419m. Speed=58.967999m/h.</desc>
<speed>16.380000</speed>
</trkpt>
<trkpt lat="21.088306" lon="105.786270">
<ele>12.547737</ele>
<time>2011-04-29T09:42:10Z</time>
<desc>lat.=21.088306, lon.=105.786270, Alt.=12.547737m. Speed=58.860001m/h.</desc>
<speed>16.350000</speed>
</trkpt>
<trkpt lat="21.087570" lon="105.786514">
<ele>10.185432</ele>
<time>2011-04-29T09:42:15Z</time>
<desc>lat.=21.087570, lon.=105.786514, Alt.=10.185432m. Speed=60.515999m/h.</desc>
<speed>16.810000</speed>
</trkpt>
<trkpt lat="21.086849" lon="105.786766">
<ele>6.600895</ele>
<time>2011-04-29T09:42:20Z</time>
<desc>lat.=21.086849, lon.=105.786766, Alt.=6.600895m. Speed=57.348000m/h.</desc>
<speed>15.930000</speed>
</trkpt>
<trkpt lat="21.086155" lon="105.786995">
<ele>5.602970</ele>
<time>2011-04-29T09:42:25Z</time>
<desc>lat.=21.086155, lon.=105.786995, Alt.=5.602970m. Speed=54.396000m/h.</desc>
<speed>15.110000</speed>
</trkpt>
<trkpt lat="21.085501" lon="105.787216">
<ele>3.498201</ele>
<time>2011-04-29T09:42:30Z</time>
<desc>lat.=21.085501, lon.=105.787216, Alt.=3.498201m. Speed=52.307999m/h.</desc>
<speed>14.530000</speed>
</trkpt>
<trkpt lat="21.084877" lon="105.787415">
<ele>1.611955</ele>
<time>2011-04-29T09:42:35Z</time>
<desc>lat.=21.084877, lon.=105.787415, Alt.=1.611955m. Speed=50.616001m/h.</desc>
<speed>14.060000</speed>
</trkpt>
<trkpt lat="21.084272" lon="105.787628">
<ele>-1.063340</ele>
<time>2011-04-29T09:42:40Z</time>
<desc>lat.=21.084272, lon.=105.787628, Alt.=-1.063340m. Speed=51.444000m/h.</desc>
<speed>14.290000</speed>
</trkpt>
<trkpt lat="21.083662" lon="105.787819">
<ele>-5.598942</ele>
<time>2011-04-29T09:42:45Z</time>
<desc>lat.=21.083662, lon.=105.787819, Alt.=-5.598942m. Speed=50.580002m/h.</desc>
<speed>14.050001</speed>
</trkpt>
<trkpt lat="21.083054" lon="105.788017">
<ele>-10.266243</ele>
<time>2011-04-29T09:42:50Z</time>
<desc>lat.=21.083054, lon.=105.788017, Alt.=-10.266243m. Speed=50.327999m/h.</desc>
<speed>13.980000</speed>
</trkpt>
<trkpt lat="21.082455" lon="105.788216">
<ele>-12.630989</ele>
<time>2011-04-29T09:42:55Z</time>
<desc>lat.=21.082455, lon.=105.788216, Alt.=-12.630989m. Speed=49.860001m/h.</desc>
<speed>13.850000</speed>
</trkpt>
<trkpt lat="21.081825" lon="105.788361">
<ele>-12.560677</ele>
<time>2011-04-29T09:43:00Z</time>
<desc>lat.=21.081825, lon.=105.788361, Alt.=-12.560677m. Speed=52.596001m/h.</desc>
<speed>14.610000</speed>
</trkpt>
<trkpt lat="21.081184" lon="105.788391">
<ele>-13.524788</ele>
<time>2011-04-29T09:43:05Z</time>
<desc>lat.=21.081184, lon.=105.788391, Alt.=-13.524788m. Speed=52.020000m/h.</desc>
<speed>14.450000</speed>
</trkpt>
<trkpt lat="21.080526" lon="105.788338">
<ele>-13.693977</ele>
<time>2011-04-29T09:43:10Z</time>
<desc>lat.=21.080526, lon.=105.788338, Alt.=-13.693977m. Speed=49.680000m/h.</desc>
<speed>13.800000</speed>
</trkpt>
<trkpt lat="21.079931" lon="105.788200">
<ele>-10.881721</ele>
<time>2011-04-29T09:43:15Z</time>
<desc>lat.=21.079931, lon.=105.788200, Alt.=-10.881721m. Speed=48.060001m/h.</desc>
<speed>13.350000</speed>
</trkpt>
<trkpt lat="21.079365" lon="105.787971">
<ele>-5.691227</ele>
<time>2011-04-29T09:43:20Z</time>
<desc>lat.=21.079365, lon.=105.787971, Alt.=-5.691227m. Speed=42.768002m/h.</desc>
<speed>11.880000</speed>
</trkpt>
<trkpt lat="21.078932" lon="105.787727">
<ele>-3.700350</ele>
<time>2011-04-29T09:43:25Z</time>
<desc>lat.=21.078932, lon.=105.787727, Alt.=-3.700350m. Speed=29.844000m/h.</desc>
<speed>8.290000</speed>
</trkpt>
<trkpt lat="21.078634" lon="105.787544">
<ele>-2.810091</ele>
<time>2011-04-29T09:43:30Z</time>
<desc>lat.=21.078634, lon.=105.787544, Alt.=-2.810091m. Speed=22.464001m/h.</desc>
<speed>6.240000</speed>
</trkpt>
<trkpt lat="21.078415" lon="105.787399">
<ele>-2.264437</ele>
<time>2011-04-29T09:43:35Z</time>
<desc>lat.=21.078415, lon.=105.787399, Alt.=-2.264437m. Speed=20.483999m/h.</desc>
<speed>5.690000</speed>
</trkpt>
<trkpt lat="21.078203" lon="105.787270">
<ele>-1.431321</ele>
<time>2011-04-29T09:43:40Z</time>
<desc>lat.=21.078203, lon.=105.787270, Alt.=-1.431321m. Speed=21.816000m/h.</desc>
<speed>6.060000</speed>
</trkpt>
<trkpt lat="21.077990" lon="105.787155">
<ele>-2.673250</ele>
<time>2011-04-29T09:43:45Z</time>
<desc>lat.=21.077990, lon.=105.787155, Alt.=-2.673250m. Speed=17.820000m/h.</desc>
<speed>4.950000</speed>
</trkpt>
<trkpt lat="21.077774" lon="105.787010">
<ele>-2.703341</ele>
<time>2011-04-29T09:43:50Z</time>
<desc>lat.=21.077774, lon.=105.787010, Alt.=-2.703341m. Speed=19.511999m/h.</desc>
<speed>5.420000</speed>
</trkpt>
<trkpt lat="21.077536" lon="105.786858">
<ele>-2.243502</ele>
<time>2011-04-29T09:43:55Z</time>
<desc>lat.=21.077536, lon.=105.786858, Alt.=-2.243502m. Speed=25.416000m/h.</desc>
<speed>7.060000</speed>
</trkpt>
<trkpt lat="21.077211" lon="105.786674">
<ele>0.728905</ele>
<time>2011-04-29T09:44:00Z</time>
<desc>lat.=21.077211, lon.=105.786674, Alt.=0.728905m. Speed=30.420000m/h.</desc>
<speed>8.450000</speed>
</trkpt>
<trkpt lat="21.076830" lon="105.786446">
<ele>-0.254246</ele>
<time>2011-04-29T09:44:05Z</time>
<desc>lat.=21.076830, lon.=105.786446, Alt.=-0.254246m. Speed=35.855999m/h.</desc>
<speed>9.960000</speed>
</trkpt>
<trkpt lat="21.076382" lon="105.786240">
<ele>1.079850</ele>
<time>2011-04-29T09:44:10Z</time>
<desc>lat.=21.076382, lon.=105.786240, Alt.=1.079850m. Speed=42.731998m/h.</desc>
<speed>11.870000</speed>
</trkpt>
<trkpt lat="21.075802" lon="105.785995">
<ele>2.445101</ele>
<time>2011-04-29T09:44:15Z</time>
<desc>lat.=21.075802, lon.=105.785995, Alt.=2.445101m. Speed=49.320000m/h.</desc>
<speed>13.700000</speed>
</trkpt>
<trkpt lat="21.075201" lon="105.785873">
<ele>2.367830</ele>
<time>2011-04-29T09:44:20Z</time>
<desc>lat.=21.075201, lon.=105.785873, Alt.=2.367830m. Speed=46.332001m/h.</desc>
<speed>12.870000</speed>
</trkpt>
<trkpt lat="21.074627" lon="105.785820">
<ele>-0.364170</ele>
<time>2011-04-29T09:44:25Z</time>
<desc>lat.=21.074627, lon.=105.785820, Alt.=-0.364170m. Speed=44.028000m/h.</desc>
<speed>12.230000</speed>
</trkpt>
<trkpt lat="21.074087" lon="105.785789">
<ele>-0.023719</ele>
<time>2011-04-29T09:44:30Z</time>
<desc>lat.=21.074087, lon.=105.785789, Alt.=-0.023719m. Speed=42.372002m/h.</desc>
<speed>11.770000</speed>
</trkpt>
<trkpt lat="21.073561" lon="105.785744">
<ele>-0.404400</ele>
<time>2011-04-29T09:44:35Z</time>
<desc>lat.=21.073561, lon.=105.785744, Alt.=-0.404400m. Speed=42.804001m/h.</desc>
<speed>11.890000</speed>
</trkpt>
<trkpt lat="21.073002" lon="105.785706">
<ele>0.979867</ele>
<time>2011-04-29T09:44:40Z</time>
<desc>lat.=21.073002, lon.=105.785706, Alt.=0.979867m. Speed=44.208000m/h.</desc>
<speed>12.280000</speed>
</trkpt>
<trkpt lat="21.072449" lon="105.785667">
<ele>0.714318</ele>
<time>2011-04-29T09:44:45Z</time>
<desc>lat.=21.072449, lon.=105.785667, Alt.=0.714318m. Speed=42.840000m/h.</desc>
<speed>11.900000</speed>
</trkpt>
<trkpt lat="21.071911" lon="105.785637">
<ele>-0.171888</ele>
<time>2011-04-29T09:44:50Z</time>
<desc>lat.=21.071911, lon.=105.785637, Alt.=-0.171888m. Speed=42.408001m/h.</desc>
<speed>11.780000</speed>
</trkpt>
<trkpt lat="21.071379" lon="105.785591">
<ele>-2.134554</ele>
<time>2011-04-29T09:44:55Z</time>
<desc>lat.=21.071379, lon.=105.785591, Alt.=-2.134554m. Speed=43.236000m/h.</desc>
<speed>12.010000</speed>
</trkpt>
<trkpt lat="21.070864" lon="105.785545">
<ele>-3.770479</ele>
<time>2011-04-29T09:45:00Z</time>
<desc>lat.=21.070864, lon.=105.785545, Alt.=-3.770479m. Speed=39.312000m/h.</desc>
<speed>10.920000</speed>
</trkpt>
<trkpt lat="21.070421" lon="105.785515">
<ele>-4.954411</ele>
<time>2011-04-29T09:45:05Z</time>
<desc>lat.=21.070421, lon.=105.785515, Alt.=-4.954411m. Speed=32.112000m/h.</desc>
<speed>8.920000</speed>
</trkpt>
<trkpt lat="21.070021" lon="105.785477">
<ele>-4.139957</ele>
<time>2011-04-29T09:45:10Z</time>
<desc>lat.=21.070021, lon.=105.785477, Alt.=-4.139957m. Speed=33.444000m/h.</desc>
<speed>9.290000</speed>
</trkpt>
<trkpt lat="21.069601" lon="105.785446">
<ele>-4.301823</ele>
<time>2011-04-29T09:45:15Z</time>
<desc>lat.=21.069601, lon.=105.785446, Alt.=-4.301823m. Speed=34.056000m/h.</desc>
<speed>9.460000</speed>
</trkpt>
<trkpt lat="21.069166" lon="105.785416">
<ele>-3.077303</ele>
<time>2011-04-29T09:45:20Z</time>
<desc>lat.=21.069166, lon.=105.785416, Alt.=-3.077303m. Speed=31.643999m/h.</desc>
<speed>8.790000</speed>
</trkpt>
<trkpt lat="21.068806" lon="105.785355">
<ele>-6.321964</ele>
<time>2011-04-29T09:45:25Z</time>
<desc>lat.=21.068806, lon.=105.785355, Alt.=-6.321964m. Speed=25.488001m/h.</desc>
<speed>7.080000</speed>
</trkpt>
<trkpt lat="21.068497" lon="105.785309">
<ele>-3.110567</ele>
<time>2011-04-29T09:45:30Z</time>
<desc>lat.=21.068497, lon.=105.785309, Alt.=-3.110567m. Speed=24.552000m/h.</desc>
<speed>6.820000</speed>
</trkpt>
<trkpt lat="21.068113" lon="105.785255">
<ele>-3.674166</ele>
<time>2011-04-29T09:45:35Z</time>
<desc>lat.=21.068113, lon.=105.785255, Alt.=-3.674166m. Speed=32.076000m/h.</desc>
<speed>8.910000</speed>
</trkpt>
<trkpt lat="21.067677" lon="105.785172">
<ele>-4.343327</ele>
<time>2011-04-29T09:45:40Z</time>
<desc>lat.=21.067677, lon.=105.785172, Alt.=-4.343327m. Speed=34.992001m/h.</desc>
<speed>9.720000</speed>
</trkpt>
<trkpt lat="21.067223" lon="105.785088">
<ele>-6.368839</ele>
<time>2011-04-29T09:45:45Z</time>
<desc>lat.=21.067223, lon.=105.785088, Alt.=-6.368839m. Speed=38.088001m/h.</desc>
<speed>10.580000</speed>
</trkpt>
<trkpt lat="21.066704" lon="105.784981">
<ele>-5.154972</ele>
<time>2011-04-29T09:45:50Z</time>
<desc>lat.=21.066704, lon.=105.784981, Alt.=-5.154972m. Speed=43.164001m/h.</desc>
<speed>11.990000</speed>
</trkpt>
<trkpt lat="21.066177" lon="105.784843">
<ele>-4.870304</ele>
<time>2011-04-29T09:45:55Z</time>
<desc>lat.=21.066177, lon.=105.784843, Alt.=-4.870304m. Speed=40.571999m/h.</desc>
<speed>11.270000</speed>
</trkpt>
<trkpt lat="21.065668" lon="105.784737">
<ele>-3.449312</ele>
<time>2011-04-29T09:46:00Z</time>
<desc>lat.=21.065668, lon.=105.784737, Alt.=-3.449312m. Speed=42.660000m/h.</desc>
<speed>11.850000</speed>
</trkpt>
<trkpt lat="21.065115" lon="105.784592">
<ele>-3.865877</ele>
<time>2011-04-29T09:46:05Z</time>
<desc>lat.=21.065115, lon.=105.784592, Alt.=-3.865877m. Speed=43.596001m/h.</desc>
<speed>12.110000</speed>
</trkpt>
<trkpt lat="21.064566" lon="105.784447">
<ele>-2.795137</ele>
<time>2011-04-29T09:46:10Z</time>
<desc>lat.=21.064566, lon.=105.784447, Alt.=-2.795137m. Speed=42.480000m/h.</desc>
<speed>11.800000</speed>
</trkpt>
<trkpt lat="21.064066" lon="105.784317">
<ele>-1.251451</ele>
<time>2011-04-29T09:46:15Z</time>
<desc>lat.=21.064066, lon.=105.784317, Alt.=-1.251451m. Speed=37.872002m/h.</desc>
<speed>10.520000</speed>
</trkpt>
<trkpt lat="21.063610" lon="105.784180">
<ele>-2.266085</ele>
<time>2011-04-29T09:46:20Z</time>
<desc>lat.=21.063610, lon.=105.784180, Alt.=-2.266085m. Speed=37.368000m/h.</desc>
<speed>10.380000</speed>
</trkpt>
<trkpt lat="21.063169" lon="105.784081">
<ele>-1.195878</ele>
<time>2011-04-29T09:46:25Z</time>
<desc>lat.=21.063169, lon.=105.784081, Alt.=-1.195878m. Speed=36.936001m/h.</desc>
<speed>10.260000</speed>
</trkpt>
<trkpt lat="21.062700" lon="105.783966">
<ele>-0.871621</ele>
<time>2011-04-29T09:46:30Z</time>
<desc>lat.=21.062700, lon.=105.783966, Alt.=-0.871621m. Speed=38.411999m/h.</desc>
<speed>10.670000</speed>
</trkpt>
<trkpt lat="21.062235" lon="105.783852">
<ele>0.176378</ele>
<time>2011-04-29T09:46:35Z</time>
<desc>lat.=21.062235, lon.=105.783852, Alt.=0.176378m. Speed=35.316002m/h.</desc>
<speed>9.810001</speed>
</trkpt>
<trkpt lat="21.061821" lon="105.783760">
<ele>1.513658</ele>
<time>2011-04-29T09:46:40Z</time>
<desc>lat.=21.061821, lon.=105.783760, Alt.=1.513658m. Speed=28.224001m/h.</desc>
<speed>7.840000</speed>
</trkpt>
<trkpt lat="21.061455" lon="105.783653">
<ele>-0.107217</ele>
<time>2011-04-29T09:46:45Z</time>
<desc>lat.=21.061455, lon.=105.783653, Alt.=-0.107217m. Speed=27.072001m/h.</desc>
<speed>7.520000</speed>
</trkpt>
<trkpt lat="21.061117" lon="105.783562">
<ele>0.847603</ele>
<time>2011-04-29T09:46:50Z</time>
<desc>lat.=21.061117, lon.=105.783562, Alt.=0.847603m. Speed=29.016001m/h.</desc>
<speed>8.060000</speed>
</trkpt>
<trkpt lat="21.060778" lon="105.783470">
<ele>2.080233</ele>
<time>2011-04-29T09:46:55Z</time>
<desc>lat.=21.060778, lon.=105.783470, Alt.=2.080233m. Speed=27.288000m/h.</desc>
<speed>7.580000</speed>
</trkpt>
<trkpt lat="21.060465" lon="105.783401">
<ele>1.584580</ele>
<time>2011-04-29T09:47:00Z</time>
<desc>lat.=21.060465, lon.=105.783401, Alt.=1.584580m. Speed=25.740000m/h.</desc>
<speed>7.150000</speed>
</trkpt>
<trkpt lat="21.060202" lon="105.783340">
<ele>2.843233</ele>
<time>2011-04-29T09:47:05Z</time>
<desc>lat.=21.060202, lon.=105.783340, Alt.=2.843233m. Speed=16.524000m/h.</desc>
<speed>4.590000</speed>
</trkpt>
<trkpt lat="21.060003" lon="105.783302">
<ele>2.987215</ele>
<time>2011-04-29T09:47:10Z</time>
<desc>lat.=21.060003, lon.=105.783302, Alt.=2.987215m. Speed=14.256000m/h.</desc>
<speed>3.960000</speed>
</trkpt>
<trkpt lat="21.059818" lon="105.783264">
<ele>6.844303</ele>
<time>2011-04-29T09:47:15Z</time>
<desc>lat.=21.059818, lon.=105.783264, Alt.=6.844303m. Speed=10.476000m/h.</desc>
<speed>2.910000</speed>
</trkpt>
<trkpt lat="21.059746" lon="105.783241">
<ele>7.194523</ele>
<time>2011-04-29T09:47:20Z</time>
<desc>lat.=21.059746, lon.=105.783241, Alt.=7.194523m. Speed=1.332000m/h.</desc>
<speed>0.370000</speed>
</trkpt>
<trkpt lat="21.059717" lon="105.783249">
<ele>8.801155</ele>
<time>2011-04-29T09:47:25Z</time>
<desc>lat.=21.059717, lon.=105.783249, Alt.=8.801155m. Speed=1.224000m/h.</desc>
<speed>0.340000</speed>
</trkpt>
<trkpt lat="21.059706" lon="105.783249">
<ele>9.829231</ele>
<time>2011-04-29T09:47:30Z</time>
<desc>lat.=21.059706, lon.=105.783249, Alt.=9.829231m. Speed=0.792000m/h.</desc>
<speed>0.220000</speed>
</trkpt>
<trkpt lat="21.059706" lon="105.783257">
<ele>10.286507</ele>
<time>2011-04-29T09:47:35Z</time>
<desc>lat.=21.059706, lon.=105.783257, Alt.=10.286507m. Speed=0.756000m/h.</desc>
<speed>0.210000</speed>
</trkpt>
<trkpt lat="21.059681" lon="105.783257">
<ele>10.144661</ele>
<time>2011-04-29T09:47:40Z</time>
<desc>lat.=21.059681, lon.=105.783257, Alt.=10.144661m. Speed=5.616000m/h.</desc>
<speed>1.560000</speed>
</trkpt>
<trkpt lat="21.059553" lon="105.783211">
<ele>8.901741</ele>
<time>2011-04-29T09:47:45Z</time>
<desc>lat.=21.059553, lon.=105.783211, Alt.=8.901741m. Speed=9.900000m/h.</desc>
<speed>2.750000</speed>
</trkpt>
<trkpt lat="21.059418" lon="105.783173">
<ele>7.075260</ele>
<time>2011-04-29T09:47:50Z</time>
<desc>lat.=21.059418, lon.=105.783173, Alt.=7.075260m. Speed=9.972000m/h.</desc>
<speed>2.770000</speed>
</trkpt>
<trkpt lat="21.059294" lon="105.783127">
<ele>7.833805</ele>
<time>2011-04-29T09:47:55Z</time>
<desc>lat.=21.059294, lon.=105.783127, Alt.=7.833805m. Speed=10.476000m/h.</desc>
<speed>2.910000</speed>
</trkpt>
<trkpt lat="21.059151" lon="105.783081">
<ele>2.911776</ele>
<time>2011-04-29T09:48:00Z</time>
<desc>lat.=21.059151, lon.=105.783081, Alt.=2.911776m. Speed=11.808000m/h.</desc>
<speed>3.280000</speed>
</trkpt>
<trkpt lat="21.058962" lon="105.782997">
<ele>-0.668053</ele>
<time>2011-04-29T09:48:05Z</time>
<desc>lat.=21.058962, lon.=105.782997, Alt.=-0.668053m. Speed=14.364000m/h.</desc>
<speed>3.990000</speed>
</trkpt>
<trkpt lat="21.058731" lon="105.782951">
<ele>-0.074414</ele>
<time>2011-04-29T09:48:10Z</time>
<desc>lat.=21.058731, lon.=105.782951, Alt.=-0.074414m. Speed=19.511999m/h.</desc>
<speed>5.420000</speed>
</trkpt>
<trkpt lat="21.058479" lon="105.782890">
<ele>-2.901583</ele>
<time>2011-04-29T09:48:15Z</time>
<desc>lat.=21.058479, lon.=105.782890, Alt.=-2.901583m. Speed=21.348000m/h.</desc>
<speed>5.930000</speed>
</trkpt>
<trkpt lat="21.058212" lon="105.782822">
<ele>-0.607323</ele>
<time>2011-04-29T09:48:20Z</time>
<desc>lat.=21.058212, lon.=105.782822, Alt.=-0.607323m. Speed=17.063999m/h.</desc>
<speed>4.740000</speed>
</trkpt>
<trkpt lat="21.058008" lon="105.782753">
<ele>1.842729</ele>
<time>2011-04-29T09:48:25Z</time>
<desc>lat.=21.058008, lon.=105.782753, Alt.=1.842729m. Speed=16.667999m/h.</desc>
<speed>4.630000</speed>
</trkpt>
<trkpt lat="21.057808" lon="105.782692">
<ele>1.660722</ele>
<time>2011-04-29T09:48:30Z</time>
<desc>lat.=21.057808, lon.=105.782692, Alt.=1.660722m. Speed=13.860000m/h.</desc>
<speed>3.850000</speed>
</trkpt>
<trkpt lat="21.057587" lon="105.782654">
<ele>-0.388943</ele>
<time>2011-04-29T09:48:35Z</time>
<desc>lat.=21.057587, lon.=105.782654, Alt.=-0.388943m. Speed=16.128000m/h.</desc>
<speed>4.480000</speed>
</trkpt>
<trkpt lat="21.057369" lon="105.782585">
<ele>-0.819863</ele>
<time>2011-04-29T09:48:40Z</time>
<desc>lat.=21.057369, lon.=105.782585, Alt.=-0.819863m. Speed=13.680000m/h.</desc>
<speed>3.800000</speed>
</trkpt>
<trkpt lat="21.057264" lon="105.782547">
<ele>-0.371731</ele>
<time>2011-04-29T09:48:45Z</time>
<desc>lat.=21.057264, lon.=105.782547, Alt.=-0.371731m. Speed=3.636000m/h.</desc>
<speed>1.010000</speed>
</trkpt>
<trkpt lat="21.057186" lon="105.782524">
<ele>1.649919</ele>
<time>2011-04-29T09:48:50Z</time>
<desc>lat.=21.057186, lon.=105.782524, Alt.=1.649919m. Speed=6.660000m/h.</desc>
<speed>1.850000</speed>
</trkpt>
<trkpt lat="21.057085" lon="105.782494">
<ele>1.132646</ele>
<time>2011-04-29T09:48:55Z</time>
<desc>lat.=21.057085, lon.=105.782494, Alt.=1.132646m. Speed=5.400000m/h.</desc>
<speed>1.500000</speed>
</trkpt>
<trkpt lat="21.056984" lon="105.782440">
<ele>0.225138</ele>
<time>2011-04-29T09:49:00Z</time>
<desc>lat.=21.056984, lon.=105.782440, Alt.=0.225138m. Speed=7.740000m/h.</desc>
<speed>2.150000</speed>
</trkpt>
<trkpt lat="21.056845" lon="105.782402">
<ele>-1.645921</ele>
<time>2011-04-29T09:49:05Z</time>
<desc>lat.=21.056845, lon.=105.782402, Alt.=-1.645921m. Speed=7.416000m/h.</desc>
<speed>2.060000</speed>
</trkpt>
<trkpt lat="21.056738" lon="105.782394">
<ele>-3.014925</ele>
<time>2011-04-29T09:49:10Z</time>
<desc>lat.=21.056738, lon.=105.782394, Alt.=-3.014925m. Speed=4.428000m/h.</desc>
<speed>1.230000</speed>
</trkpt>
<trkpt lat="21.056681" lon="105.782402">
<ele>-5.604313</ele>
<time>2011-04-29T09:49:15Z</time>
<desc>lat.=21.056681, lon.=105.782402, Alt.=-5.604313m. Speed=2.448000m/h.</desc>
<speed>0.680000</speed>
</trkpt>
<trkpt lat="21.056610" lon="105.782402">
<ele>-7.974796</ele>
<time>2011-04-29T09:49:20Z</time>
<desc>lat.=21.056610, lon.=105.782402, Alt.=-7.974796m. Speed=3.960000m/h.</desc>
<speed>1.100000</speed>
</trkpt>
<trkpt lat="21.056559" lon="105.782379">
<ele>-8.682014</ele>
<time>2011-04-29T09:49:25Z</time>
<desc>lat.=21.056559, lon.=105.782379, Alt.=-8.682014m. Speed=3.204000m/h.</desc>
<speed>0.890000</speed>
</trkpt>
<trkpt lat="21.056490" lon="105.782372">
<ele>-9.124153</ele>
<time>2011-04-29T09:49:30Z</time>
<desc>lat.=21.056490, lon.=105.782372, Alt.=-9.124153m. Speed=8.640000m/h.</desc>
<speed>2.400000</speed>
</trkpt>
<trkpt lat="21.056372" lon="105.782349">
<ele>-9.727913</ele>
<time>2011-04-29T09:49:35Z</time>
<desc>lat.=21.056372, lon.=105.782349, Alt.=-9.727913m. Speed=9.000000m/h.</desc>
<speed>2.500000</speed>
</trkpt>
<trkpt lat="21.056206" lon="105.782295">
<ele>-9.964729</ele>
<time>2011-04-29T09:49:40Z</time>
<desc>lat.=21.056206, lon.=105.782295, Alt.=-9.964729m. Speed=15.228000m/h.</desc>
<speed>4.230000</speed>
</trkpt>
<trkpt lat="21.055939" lon="105.782249">
<ele>-9.060677</ele>
<time>2011-04-29T09:49:45Z</time>
<desc>lat.=21.055939, lon.=105.782249, Alt.=-9.060677m. Speed=25.236000m/h.</desc>
<speed>7.010000</speed>
</trkpt>
<trkpt lat="21.055557" lon="105.782173">
<ele>-8.909065</ele>
<time>2011-04-29T09:49:50Z</time>
<desc>lat.=21.055557, lon.=105.782173, Alt.=-8.909065m. Speed=30.600000m/h.</desc>
<speed>8.500000</speed>
</trkpt>
<trkpt lat="21.055141" lon="105.782074">
<ele>-5.182438</ele>
<time>2011-04-29T09:49:55Z</time>
<desc>lat.=21.055141, lon.=105.782074, Alt.=-5.182438m. Speed=34.667999m/h.</desc>
<speed>9.630000</speed>
</trkpt>
<trkpt lat="21.054710" lon="105.781975">
<ele>-4.746159</ele>
<time>2011-04-29T09:50:00Z</time>
<desc>lat.=21.054710, lon.=105.781975, Alt.=-4.746159m. Speed=34.956001m/h.</desc>
<speed>9.710000</speed>
</trkpt>
<trkpt lat="21.054228" lon="105.781883">
<ele>-5.438663</ele>
<time>2011-04-29T09:50:05Z</time>
<desc>lat.=21.054228, lon.=105.781883, Alt.=-5.438663m. Speed=35.964001m/h.</desc>
<speed>9.990000</speed>
</trkpt>
<trkpt lat="21.053778" lon="105.781822">
<ele>-7.181828</ele>
<time>2011-04-29T09:50:10Z</time>
<desc>lat.=21.053778, lon.=105.781822, Alt.=-7.181828m. Speed=34.127998m/h.</desc>
<speed>9.480000</speed>
</trkpt>
<trkpt lat="21.053318" lon="105.781776">
<ele>-8.227913</ele>
<time>2011-04-29T09:50:15Z</time>
<desc>lat.=21.053318, lon.=105.781776, Alt.=-8.227913m. Speed=35.820000m/h.</desc>
<speed>9.950000</speed>
</trkpt>
<trkpt lat="21.052889" lon="105.781738">
<ele>-9.925911</ele>
<time>2011-04-29T09:50:20Z</time>
<desc>lat.=21.052889, lon.=105.781738, Alt.=-9.925911m. Speed=30.959999m/h.</desc>
<speed>8.600000</speed>
</trkpt>
<trkpt lat="21.052532" lon="105.781715">
<ele>-15.103157</ele>
<time>2011-04-29T09:50:25Z</time>
<desc>lat.=21.052532, lon.=105.781715, Alt.=-15.103157m. Speed=24.660000m/h.</desc>
<speed>6.850000</speed>
</trkpt>
<trkpt lat="21.052244" lon="105.781670">
<ele>-14.746223</ele>
<time>2011-04-29T09:50:30Z</time>
<desc>lat.=21.052244, lon.=105.781670, Alt.=-14.746223m. Speed=20.160000m/h.</desc>
<speed>5.600000</speed>
</trkpt>
<trkpt lat="21.051996" lon="105.781654">
<ele>-15.352669</ele>
<time>2011-04-29T09:50:35Z</time>
<desc>lat.=21.051996, lon.=105.781654, Alt.=-15.352669m. Speed=18.900000m/h.</desc>
<speed>5.250000</speed>
</trkpt>
<trkpt lat="21.051819" lon="105.781670">
<ele>-10.492073</ele>
<time>2011-04-29T09:50:40Z</time>
<desc>lat.=21.051819, lon.=105.781670, Alt.=-10.492073m. Speed=7.128000m/h.</desc>
<speed>1.980000</speed>
</trkpt>
<trkpt lat="21.051756" lon="105.781631">
<ele>-7.193180</ele>
<time>2011-04-29T09:50:45Z</time>
<desc>lat.=21.051756, lon.=105.781631, Alt.=-7.193180m. Speed=1.692000m/h.</desc>
<speed>0.470000</speed>
</trkpt>
<trkpt lat="21.051733" lon="105.781616">
<ele>-4.853458</ele>
<time>2011-04-29T09:50:50Z</time>
<desc>lat.=21.051733, lon.=105.781616, Alt.=-4.853458m. Speed=2.628000m/h.</desc>
<speed>0.730000</speed>
</trkpt>
<trkpt lat="21.051638" lon="105.781624">
<ele>-1.981400</ele>
<time>2011-04-29T09:50:55Z</time>
<desc>lat.=21.051638, lon.=105.781624, Alt.=-1.981400m. Speed=7.668000m/h.</desc>
<speed>2.130000</speed>
</trkpt>
<trkpt lat="21.051491" lon="105.781578">
<ele>1.180314</ele>
<time>2011-04-29T09:51:00Z</time>
<desc>lat.=21.051491, lon.=105.781578, Alt.=1.180314m. Speed=19.476000m/h.</desc>
<speed>5.410000</speed>
</trkpt>
<trkpt lat="21.051176" lon="105.781563">
<ele>4.261173</ele>
<time>2011-04-29T09:51:05Z</time>
<desc>lat.=21.051176, lon.=105.781563, Alt.=4.261173m. Speed=26.459999m/h.</desc>
<speed>7.350000</speed>
</trkpt>
<trkpt lat="21.050785" lon="105.781555">
<ele>9.250374</ele>
<time>2011-04-29T09:51:10Z</time>
<desc>lat.=21.050785, lon.=105.781555, Alt.=9.250374m. Speed=25.128000m/h.</desc>
<speed>6.980000</speed>
</trkpt>
<trkpt lat="21.050520" lon="105.781570">
<ele>9.226204</ele>
<time>2011-04-29T09:51:15Z</time>
<desc>lat.=21.050520, lon.=105.781570, Alt.=9.226204m. Speed=14.220000m/h.</desc>
<speed>3.950000</speed>
</trkpt>
<trkpt lat="21.050251" lon="105.781555">
<ele>11.023567</ele>
<time>2011-04-29T09:51:20Z</time>
<desc>lat.=21.050251, lon.=105.781555, Alt.=11.023567m. Speed=23.040001m/h.</desc>
<speed>6.400000</speed>
</trkpt>
<trkpt lat="21.049894" lon="105.781509">
<ele>12.026985</ele>
<time>2011-04-29T09:51:25Z</time>
<desc>lat.=21.049894, lon.=105.781509, Alt.=12.026985m. Speed=29.232000m/h.</desc>
<speed>8.120000</speed>
</trkpt>
<trkpt lat="21.049488" lon="105.781479">
<ele>11.638313</ele>
<time>2011-04-29T09:51:30Z</time>
<desc>lat.=21.049488, lon.=105.781479, Alt.=11.638313m. Speed=31.788000m/h.</desc>
<speed>8.830000</speed>
</trkpt>
<trkpt lat="21.049080" lon="105.781441">
<ele>10.291389</ele>
<time>2011-04-29T09:51:35Z</time>
<desc>lat.=21.049080, lon.=105.781441, Alt.=10.291389m. Speed=30.059999m/h.</desc>
<speed>8.350000</speed>
</trkpt>
<trkpt lat="21.048683" lon="105.781425">
<ele>8.642220</ele>
<time>2011-04-29T09:51:40Z</time>
<desc>lat.=21.048683, lon.=105.781425, Alt.=8.642220m. Speed=28.368000m/h.</desc>
<speed>7.880000</speed>
</trkpt>
<trkpt lat="21.048355" lon="105.781395">
<ele>11.951790</ele>
<time>2011-04-29T09:51:45Z</time>
<desc>lat.=21.048355, lon.=105.781395, Alt.=11.951790m. Speed=23.832001m/h.</desc>
<speed>6.620000</speed>
</trkpt>
<trkpt lat="21.048134" lon="105.781372">
<ele>13.011604</ele>
<time>2011-04-29T09:51:50Z</time>
<desc>lat.=21.048134, lon.=105.781372, Alt.=13.011604m. Speed=15.444000m/h.</desc>
<speed>4.290000</speed>
</trkpt>
<trkpt lat="21.047926" lon="105.781357">
<ele>10.173225</ele>
<time>2011-04-29T09:51:55Z</time>
<desc>lat.=21.047926, lon.=105.781357, Alt.=10.173225m. Speed=13.752000m/h.</desc>
<speed>3.820000</speed>
</trkpt>
<trkpt lat="21.047846" lon="105.781326">
<ele>4.635197</ele>
<time>2011-04-29T09:52:00Z</time>
<desc>lat.=21.047846, lon.=105.781326, Alt.=4.635197m. Speed=5.508000m/h.</desc>
<speed>1.530000</speed>
</trkpt>
<trkpt lat="21.047729" lon="105.781326">
<ele>5.253727</ele>
<time>2011-04-29T09:52:05Z</time>
<desc>lat.=21.047729, lon.=105.781326, Alt.=5.253727m. Speed=8.208000m/h.</desc>
<speed>2.280000</speed>
</trkpt>
<trkpt lat="21.047567" lon="105.781311">
<ele>4.427677</ele>
<time>2011-04-29T09:52:10Z</time>
<desc>lat.=21.047567, lon.=105.781311, Alt.=4.427677m. Speed=13.608000m/h.</desc>
<speed>3.780000</speed>
</trkpt>
<trkpt lat="21.047356" lon="105.781319">
<ele>2.384310</ele>
<time>2011-04-29T09:52:15Z</time>
<desc>lat.=21.047356, lon.=105.781319, Alt.=2.384310m. Speed=14.292000m/h.</desc>
<speed>3.970000</speed>
</trkpt>
<trkpt lat="21.047194" lon="105.781296">
<ele>-1.734849</ele>
<time>2011-04-29T09:52:20Z</time>
<desc>lat.=21.047194, lon.=105.781296, Alt.=-1.734849m. Speed=10.368000m/h.</desc>
<speed>2.880000</speed>
</trkpt>
<trkpt lat="21.047083" lon="105.781311">
<ele>-4.764591</ele>
<time>2011-04-29T09:52:25Z</time>
<desc>lat.=21.047083, lon.=105.781311, Alt.=-4.764591m. Speed=6.084000m/h.</desc>
<speed>1.690000</speed>
</trkpt>
<trkpt lat="21.046982" lon="105.781311">
<ele>-10.618050</ele>
<time>2011-04-29T09:52:30Z</time>
<desc>lat.=21.046982, lon.=105.781311, Alt.=-10.618050m. Speed=4.788000m/h.</desc>
<speed>1.330000</speed>
</trkpt>
<trkpt lat="21.046883" lon="105.781296">
<ele>-10.561653</ele>
<time>2011-04-29T09:52:35Z</time>
<desc>lat.=21.046883, lon.=105.781296, Alt.=-10.561653m. Speed=5.976000m/h.</desc>
<speed>1.660000</speed>
</trkpt>
<trkpt lat="21.046762" lon="105.781273">
<ele>-11.337776</ele>
<time>2011-04-29T09:52:40Z</time>
<desc>lat.=21.046762, lon.=105.781273, Alt.=-11.337776m. Speed=10.224000m/h.</desc>
<speed>2.840000</speed>
</trkpt>
<trkpt lat="21.046621" lon="105.781250">
<ele>-10.824837</ele>
<time>2011-04-29T09:52:45Z</time>
<desc>lat.=21.046621, lon.=105.781250, Alt.=-10.824837m. Speed=7.092000m/h.</desc>
<speed>1.970000</speed>
</trkpt>
<trkpt lat="21.046440" lon="105.781242">
<ele>-12.226448</ele>
<time>2011-04-29T09:52:50Z</time>
<desc>lat.=21.046440, lon.=105.781242, Alt.=-12.226448m. Speed=14.472000m/h.</desc>
<speed>4.020000</speed>
</trkpt>
<trkpt lat="21.046206" lon="105.781235">
<ele>-7.844547</ele>
<time>2011-04-29T09:52:55Z</time>
<desc>lat.=21.046206, lon.=105.781235, Alt.=-7.844547m. Speed=16.955999m/h.</desc>
<speed>4.710000</speed>
</trkpt>
<trkpt lat="21.045982" lon="105.781219">
<ele>-7.814396</ele>
<time>2011-04-29T09:53:00Z</time>
<desc>lat.=21.045982, lon.=105.781219, Alt.=-7.814396m. Speed=20.664000m/h.</desc>
<speed>5.740000</speed>
</trkpt>
<trkpt lat="21.045700" lon="105.781204">
<ele>-5.742863</ele>
<time>2011-04-29T09:53:05Z</time>
<desc>lat.=21.045700, lon.=105.781204, Alt.=-5.742863m. Speed=23.004000m/h.</desc>
<speed>6.390000</speed>
</trkpt>
<trkpt lat="21.045351" lon="105.781189">
<ele>-5.442814</ele>
<time>2011-04-29T09:53:10Z</time>
<desc>lat.=21.045351, lon.=105.781189, Alt.=-5.442814m. Speed=27.972000m/h.</desc>
<speed>7.770000</speed>
</trkpt>
<trkpt lat="21.044952" lon="105.781166">
<ele>-4.919498</ele>
<time>2011-04-29T09:53:15Z</time>
<desc>lat.=21.044952, lon.=105.781166, Alt.=-4.919498m. Speed=32.580002m/h.</desc>
<speed>9.050001</speed>
</trkpt>
<trkpt lat="21.044565" lon="105.781128">
<ele>-6.095158</ele>
<time>2011-04-29T09:53:20Z</time>
<desc>lat.=21.044565, lon.=105.781128, Alt.=-6.095158m. Speed=29.844000m/h.</desc>
<speed>8.290000</speed>
</trkpt>
<trkpt lat="21.044191" lon="105.781097">
<ele>-7.665104</ele>
<time>2011-04-29T09:53:25Z</time>
<desc>lat.=21.044191, lon.=105.781097, Alt.=-7.665104m. Speed=24.983999m/h.</desc>
<speed>6.940000</speed>
</trkpt>
<trkpt lat="21.043930" lon="105.781090">
<ele>-9.016731</ele>
<time>2011-04-29T09:53:30Z</time>
<desc>lat.=21.043930, lon.=105.781090, Alt.=-9.016731m. Speed=18.000000m/h.</desc>
<speed>5.000000</speed>
</trkpt>
<trkpt lat="21.043785" lon="105.781067">
<ele>-11.557503</ele>
<time>2011-04-29T09:53:35Z</time>
<desc>lat.=21.043785, lon.=105.781067, Alt.=-11.557503m. Speed=8.100000m/h.</desc>
<speed>2.250000</speed>
</trkpt>
<trkpt lat="21.043688" lon="105.781036">
<ele>-12.883186</ele>
<time>2011-04-29T09:53:40Z</time>
<desc>lat.=21.043688, lon.=105.781036, Alt.=-12.883186m. Speed=5.400000m/h.</desc>
<speed>1.500000</speed>
</trkpt>
<trkpt lat="21.043638" lon="105.781029">
<ele>-13.040901</ele>
<time>2011-04-29T09:53:45Z</time>
<desc>lat.=21.043638, lon.=105.781029, Alt.=-13.040901m. Speed=4.068000m/h.</desc>
<speed>1.130000</speed>
</trkpt>
<trkpt lat="21.043579" lon="105.781029">
<ele>-13.050911</ele>
<time>2011-04-29T09:53:50Z</time>
<desc>lat.=21.043579, lon.=105.781029, Alt.=-13.050911m. Speed=3.960000m/h.</desc>
<speed>1.100000</speed>
</trkpt>
<trkpt lat="21.043516" lon="105.781021">
<ele>-10.724983</ele>
<time>2011-04-29T09:53:55Z</time>
<desc>lat.=21.043516, lon.=105.781021, Alt.=-10.724983m. Speed=3.024000m/h.</desc>
<speed>0.840000</speed>
</trkpt>
<trkpt lat="21.043455" lon="105.781029">
<ele>-9.587532</ele>
<time>2011-04-29T09:54:00Z</time>
<desc>lat.=21.043455, lon.=105.781029, Alt.=-9.587532m. Speed=3.780000m/h.</desc>
<speed>1.050000</speed>
</trkpt>
<trkpt lat="21.043392" lon="105.781013">
<ele>-8.367561</ele>
<time>2011-04-29T09:54:05Z</time>
<desc>lat.=21.043392, lon.=105.781013, Alt.=-8.367561m. Speed=4.644000m/h.</desc>
<speed>1.290000</speed>
</trkpt>
<trkpt lat="21.043304" lon="105.781013">
<ele>-8.174690</ele>
<time>2011-04-29T09:54:10Z</time>
<desc>lat.=21.043304, lon.=105.781013, Alt.=-8.174690m. Speed=6.300000m/h.</desc>
<speed>1.750000</speed>
</trkpt>
<trkpt lat="21.043207" lon="105.781006">
<ele>-9.214241</ele>
<time>2011-04-29T09:54:15Z</time>
<desc>lat.=21.043207, lon.=105.781006, Alt.=-9.214241m. Speed=8.424000m/h.</desc>
<speed>2.340000</speed>
</trkpt>
<trkpt lat="21.043098" lon="105.780991">
<ele>-9.446419</ele>
<time>2011-04-29T09:54:20Z</time>
<desc>lat.=21.043098, lon.=105.780991, Alt.=-9.446419m. Speed=6.588000m/h.</desc>
<speed>1.830000</speed>
</trkpt>
<trkpt lat="21.042971" lon="105.780975">
<ele>-9.926888</ele>
<time>2011-04-29T09:54:25Z</time>
<desc>lat.=21.042971, lon.=105.780975, Alt.=-9.926888m. Speed=8.928000m/h.</desc>
<speed>2.480000</speed>
</trkpt>
<trkpt lat="21.042875" lon="105.780983">
<ele>-11.410774</ele>
<time>2011-04-29T09:54:30Z</time>
<desc>lat.=21.042875, lon.=105.780983, Alt.=-11.410774m. Speed=4.104000m/h.</desc>
<speed>1.140000</speed>
</trkpt>
<trkpt lat="21.042839" lon="105.780968">
<ele>-11.555305</ele>
<time>2011-04-29T09:54:35Z</time>
<desc>lat.=21.042839, lon.=105.780968, Alt.=-11.555305m. Speed=3.636000m/h.</desc>
<speed>1.010000</speed>
</trkpt>
<trkpt lat="21.042770" lon="105.780952">
<ele>-10.929817</ele>
<time>2011-04-29T09:54:40Z</time>
<desc>lat.=21.042770, lon.=105.780952, Alt.=-10.929817m. Speed=6.768000m/h.</desc>
<speed>1.880000</speed>
</trkpt>
<trkpt lat="21.042637" lon="105.780960">
<ele>-10.004768</ele>
<time>2011-04-29T09:54:45Z</time>
<desc>lat.=21.042637, lon.=105.780960, Alt.=-10.004768m. Speed=13.392000m/h.</desc>
<speed>3.720000</speed>
</trkpt>
<trkpt lat="21.042444" lon="105.780937">
<ele>-10.584602</ele>
<time>2011-04-29T09:54:50Z</time>
<desc>lat.=21.042444, lon.=105.780937, Alt.=-10.584602m. Speed=16.884001m/h.</desc>
<speed>4.690000</speed>
</trkpt>
<trkpt lat="21.042206" lon="105.780914">
<ele>-12.247932</ele>
<time>2011-04-29T09:54:55Z</time>
<desc>lat.=21.042206, lon.=105.780914, Alt.=-12.247932m. Speed=17.676001m/h.</desc>
<speed>4.910000</speed>
</trkpt>
<trkpt lat="21.041943" lon="105.780907">
<ele>-13.473763</ele>
<time>2011-04-29T09:55:00Z</time>
<desc>lat.=21.041943, lon.=105.780907, Alt.=-13.473763m. Speed=19.980000m/h.</desc>
<speed>5.550000</speed>
</trkpt>
<trkpt lat="21.041624" lon="105.780899">
<ele>-10.215950</ele>
<time>2011-04-29T09:55:05Z</time>
<desc>lat.=21.041624, lon.=105.780899, Alt.=-10.215950m. Speed=25.992001m/h.</desc>
<speed>7.220000</speed>
</trkpt>
<trkpt lat="21.041288" lon="105.780876">
<ele>-10.778206</ele>
<time>2011-04-29T09:55:10Z</time>
<desc>lat.=21.041288, lon.=105.780876, Alt.=-10.778206m. Speed=25.884001m/h.</desc>
<speed>7.190000</speed>
</trkpt>
<trkpt lat="21.040997" lon="105.780853">
<ele>-11.827766</ele>
<time>2011-04-29T09:55:15Z</time>
<desc>lat.=21.040997, lon.=105.780853, Alt.=-11.827766m. Speed=20.340000m/h.</desc>
<speed>5.650000</speed>
</trkpt>
<trkpt lat="21.040707" lon="105.780876">
<ele>-11.011360</ele>
<time>2011-04-29T09:55:20Z</time>
<desc>lat.=21.040707, lon.=105.780876, Alt.=-11.011360m. Speed=26.316000m/h.</desc>
<speed>7.310000</speed>
</trkpt>
<trkpt lat="21.040304" lon="105.780861">
<ele>-8.752327</ele>
<time>2011-04-29T09:55:25Z</time>
<desc>lat.=21.040304, lon.=105.780861, Alt.=-8.752327m. Speed=35.208000m/h.</desc>
<speed>9.780000</speed>
</trkpt>
<trkpt lat="21.039852" lon="105.780846">
<ele>-8.314095</ele>
<time>2011-04-29T09:55:30Z</time>
<desc>lat.=21.039852, lon.=105.780846, Alt.=-8.314095m. Speed=36.108002m/h.</desc>
<speed>10.030000</speed>
</trkpt>
<trkpt lat="21.039402" lon="105.780823">
<ele>-6.785587</ele>
<time>2011-04-29T09:55:35Z</time>
<desc>lat.=21.039402, lon.=105.780823, Alt.=-6.785587m. Speed=35.099998m/h.</desc>
<speed>9.750000</speed>
</trkpt>
<trkpt lat="21.038944" lon="105.780785">
<ele>-6.584904</ele>
<time>2011-04-29T09:55:40Z</time>
<desc>lat.=21.038944, lon.=105.780785, Alt.=-6.584904m. Speed=38.124001m/h.</desc>
<speed>10.590000</speed>
</trkpt>
<trkpt lat="21.038465" lon="105.780746">
<ele>-4.762028</ele>
<time>2011-04-29T09:55:45Z</time>
<desc>lat.=21.038465, lon.=105.780746, Alt.=-4.762028m. Speed=35.495998m/h.</desc>
<speed>9.860000</speed>
</trkpt>
<trkpt lat="21.038052" lon="105.780701">
<ele>-1.945542</ele>
<time>2011-04-29T09:55:50Z</time>
<desc>lat.=21.038052, lon.=105.780701, Alt.=-1.945542m. Speed=32.436001m/h.</desc>
<speed>9.010000</speed>
</trkpt>
<trkpt lat="21.037628" lon="105.780655">
<ele>0.172953</ele>
<time>2011-04-29T09:55:55Z</time>
<desc>lat.=21.037628, lon.=105.780655, Alt.=0.172953m. Speed=35.424000m/h.</desc>
<speed>9.840000</speed>
</trkpt>
<trkpt lat="21.037174" lon="105.780602">
<ele>-1.844041</ele>
<time>2011-04-29T09:56:00Z</time>
<desc>lat.=21.037174, lon.=105.780602, Alt.=-1.844041m. Speed=35.639999m/h.</desc>
<speed>9.900000</speed>
</trkpt>
<trkpt lat="21.036718" lon="105.780540">
<ele>-0.196238</ele>
<time>2011-04-29T09:56:05Z</time>
<desc>lat.=21.036718, lon.=105.780540, Alt.=-0.196238m. Speed=37.584000m/h.</desc>
<speed>10.440000</speed>
</trkpt>
<trkpt lat="21.036230" lon="105.780487">
<ele>0.289135</ele>
<time>2011-04-29T09:56:10Z</time>
<desc>lat.=21.036230, lon.=105.780487, Alt.=0.289135m. Speed=39.528000m/h.</desc>
<speed>10.980000</speed>
</trkpt>
<trkpt lat="21.035728" lon="105.780403">
<ele>0.250447</ele>
<time>2011-04-29T09:56:15Z</time>
<desc>lat.=21.035728, lon.=105.780403, Alt.=0.250447m. Speed=42.948002m/h.</desc>
<speed>11.930001</speed>
</trkpt>
<trkpt lat="21.035191" lon="105.780289">
<ele>-1.434678</ele>
<time>2011-04-29T09:56:20Z</time>
<desc>lat.=21.035191, lon.=105.780289, Alt.=-1.434678m. Speed=42.084000m/h.</desc>
<speed>11.690000</speed>
</trkpt>
<trkpt lat="21.034674" lon="105.780205">
<ele>-2.643038</ele>
<time>2011-04-29T09:56:25Z</time>
<desc>lat.=21.034674, lon.=105.780205, Alt.=-2.643038m. Speed=38.736000m/h.</desc>
<speed>10.760000</speed>
</trkpt>
<trkpt lat="21.034206" lon="105.780128">
<ele>-4.144718</ele>
<time>2011-04-29T09:56:30Z</time>
<desc>lat.=21.034206, lon.=105.780128, Alt.=-4.144718m. Speed=37.368000m/h.</desc>
<speed>10.380000</speed>
</trkpt>
<trkpt lat="21.033770" lon="105.780067">
<ele>-3.841585</ele>
<time>2011-04-29T09:56:35Z</time>
<desc>lat.=21.033770, lon.=105.780067, Alt.=-3.841585m. Speed=35.891998m/h.</desc>
<speed>9.970000</speed>
</trkpt>
<trkpt lat="21.033386" lon="105.779991">
<ele>-4.333317</ele>
<time>2011-04-29T09:56:40Z</time>
<desc>lat.=21.033386, lon.=105.779991, Alt.=-4.333317m. Speed=28.691999m/h.</desc>
<speed>7.970000</speed>
</trkpt>
<trkpt lat="21.033089" lon="105.779915">
<ele>-4.212467</ele>
<time>2011-04-29T09:56:45Z</time>
<desc>lat.=21.033089, lon.=105.779915, Alt.=-4.212467m. Speed=24.912001m/h.</desc>
<speed>6.920000</speed>
</trkpt>
<trkpt lat="21.032751" lon="105.779823">
<ele>-6.600040</ele>
<time>2011-04-29T09:56:50Z</time>
<desc>lat.=21.032751, lon.=105.779823, Alt.=-6.600040m. Speed=26.243999m/h.</desc>
<speed>7.290000</speed>
</trkpt>
<trkpt lat="21.032475" lon="105.779739">
<ele>-5.342350</ele>
<time>2011-04-29T09:56:55Z</time>
<desc>lat.=21.032475, lon.=105.779739, Alt.=-5.342350m. Speed=18.684000m/h.</desc>
<speed>5.190000</speed>
</trkpt>
<trkpt lat="21.032276" lon="105.779678">
<ele>-3.843782</ele>
<time>2011-04-29T09:57:00Z</time>
<desc>lat.=21.032276, lon.=105.779678, Alt.=-3.843782m. Speed=14.508000m/h.</desc>
<speed>4.030000</speed>
</trkpt>
<trkpt lat="21.032120" lon="105.779648">
<ele>-4.854435</ele>
<time>2011-04-29T09:57:05Z</time>
<desc>lat.=21.032120, lon.=105.779648, Alt.=-4.854435m. Speed=9.828000m/h.</desc>
<speed>2.730000</speed>
</trkpt>
<trkpt lat="21.032013" lon="105.779617">
<ele>-2.959261</ele>
<time>2011-04-29T09:57:10Z</time>
<desc>lat.=21.032013, lon.=105.779617, Alt.=-2.959261m. Speed=7.812000m/h.</desc>
<speed>2.170000</speed>
</trkpt>
<trkpt lat="21.031925" lon="105.779610">
<ele>-2.393343</ele>
<time>2011-04-29T09:57:15Z</time>
<desc>lat.=21.031925, lon.=105.779610, Alt.=-2.393343m. Speed=6.768000m/h.</desc>
<speed>1.880000</speed>
</trkpt>
<trkpt lat="21.031834" lon="105.779594">
<ele>-2.207003</ele>
<time>2011-04-29T09:57:20Z</time>
<desc>lat.=21.031834, lon.=105.779594, Alt.=-2.207003m. Speed=6.912000m/h.</desc>
<speed>1.920000</speed>
</trkpt>
<trkpt lat="21.031738" lon="105.779572">
<ele>0.257801</ele>
<time>2011-04-29T09:57:25Z</time>
<desc>lat.=21.031738, lon.=105.779572, Alt.=0.257801m. Speed=8.100000m/h.</desc>
<speed>2.250000</speed>
</trkpt>
<trkpt lat="21.031626" lon="105.779556">
<ele>1.473985</ele>
<time>2011-04-29T09:57:30Z</time>
<desc>lat.=21.031626, lon.=105.779556, Alt.=1.473985m. Speed=8.856000m/h.</desc>
<speed>2.460000</speed>
</trkpt>
<trkpt lat="21.031511" lon="105.779541">
<ele>0.806206</ele>
<time>2011-04-29T09:57:35Z</time>
<desc>lat.=21.031511, lon.=105.779541, Alt.=0.806206m. Speed=8.352000m/h.</desc>
<speed>2.320000</speed>
</trkpt>
<trkpt lat="21.031403" lon="105.779480">
<ele>0.070979</ele>
<time>2011-04-29T09:57:40Z</time>
<desc>lat.=21.031403, lon.=105.779480, Alt.=0.070979m. Speed=7.524000m/h.</desc>
<speed>2.090000</speed>
</trkpt>
<trkpt lat="21.031303" lon="105.779480">
<ele>0.094260</ele>
<time>2011-04-29T09:57:45Z</time>
<desc>lat.=21.031303, lon.=105.779480, Alt.=0.094260m. Speed=7.560000m/h.</desc>
<speed>2.100000</speed>
</trkpt>
<trkpt lat="21.031219" lon="105.779465">
<ele>2.302645</ele>
<time>2011-04-29T09:57:50Z</time>
<desc>lat.=21.031219, lon.=105.779465, Alt.=2.302645m. Speed=6.588000m/h.</desc>
<speed>1.830000</speed>
</trkpt>
<trkpt lat="21.031136" lon="105.779442">
<ele>3.043245</ele>
<time>2011-04-29T09:57:55Z</time>
<desc>lat.=21.031136, lon.=105.779442, Alt.=3.043245m. Speed=7.092000m/h.</desc>
<speed>1.970000</speed>
</trkpt>
<trkpt lat="21.031019" lon="105.779427">
<ele>3.949617</ele>
<time>2011-04-29T09:58:00Z</time>
<desc>lat.=21.031019, lon.=105.779427, Alt.=3.949617m. Speed=8.244000m/h.</desc>
<speed>2.290000</speed>
</trkpt>
<trkpt lat="21.030926" lon="105.779396">
<ele>3.823946</ele>
<time>2011-04-29T09:58:05Z</time>
<desc>lat.=21.030926, lon.=105.779396, Alt.=3.823946m. Speed=7.380000m/h.</desc>
<speed>2.050000</speed>
</trkpt>
<trkpt lat="21.030870" lon="105.779396">
<ele>0.124023</ele>
<time>2011-04-29T09:58:10Z</time>
<desc>lat.=21.030870, lon.=105.779396, Alt.=0.124023m. Speed=2.484000m/h.</desc>
<speed>0.690000</speed>
</trkpt>
<trkpt lat="21.030832" lon="105.779396">
<ele>0.903115</ele>
<time>2011-04-29T09:58:15Z</time>
<desc>lat.=21.030832, lon.=105.779396, Alt.=0.903115m. Speed=3.492000m/h.</desc>
<speed>0.970000</speed>
</trkpt>
<trkpt lat="21.030745" lon="105.779388">
<ele>0.347477</ele>
<time>2011-04-29T09:58:20Z</time>
<desc>lat.=21.030745, lon.=105.779388, Alt.=0.347477m. Speed=5.616000m/h.</desc>
<speed>1.560000</speed>
</trkpt>
<trkpt lat="21.030691" lon="105.779381">
<ele>-2.278658</ele>
<time>2011-04-29T09:58:25Z</time>
<desc>lat.=21.030691, lon.=105.779381, Alt.=-2.278658m. Speed=2.484000m/h.</desc>
<speed>0.690000</speed>
</trkpt>
<trkpt lat="21.030638" lon="105.779396">
<ele>-1.588212</ele>
<time>2011-04-29T09:58:30Z</time>
<desc>lat.=21.030638, lon.=105.779396, Alt.=-1.588212m. Speed=4.248000m/h.</desc>
<speed>1.180000</speed>
</trkpt>
<trkpt lat="21.030600" lon="105.779388">
<ele>-0.775109</ele>
<time>2011-04-29T09:58:35Z</time>
<desc>lat.=21.030600, lon.=105.779388, Alt.=-0.775109m. Speed=2.988000m/h.</desc>
<speed>0.830000</speed>
</trkpt>
<trkpt lat="21.030577" lon="105.779366">
<ele>-1.193620</ele>
<time>2011-04-29T09:58:40Z</time>
<desc>lat.=21.030577, lon.=105.779366, Alt.=-1.193620m. Speed=1.872000m/h.</desc>
<speed>0.520000</speed>
</trkpt>
<trkpt lat="21.030533" lon="105.779373">
<ele>-0.542061</ele>
<time>2011-04-29T09:58:45Z</time>
<desc>lat.=21.030533, lon.=105.779373, Alt.=-0.542061m. Speed=3.204000m/h.</desc>
<speed>0.890000</speed>
</trkpt>
<trkpt lat="21.030502" lon="105.779366">
<ele>-0.601586</ele>
<time>2011-04-29T09:58:50Z</time>
<desc>lat.=21.030502, lon.=105.779366, Alt.=-0.601586m. Speed=3.240000m/h.</desc>
<speed>0.900000</speed>
</trkpt>
<trkpt lat="21.030439" lon="105.779358">
<ele>0.356732</ele>
<time>2011-04-29T09:58:55Z</time>
<desc>lat.=21.030439, lon.=105.779358, Alt.=0.356732m. Speed=3.564000m/h.</desc>
<speed>0.990000</speed>
</trkpt>
<trkpt lat="21.030405" lon="105.779343">
<ele>1.372483</ele>
<time>2011-04-29T09:59:00Z</time>
<desc>lat.=21.030405, lon.=105.779343, Alt.=1.372483m. Speed=3.276000m/h.</desc>
<speed>0.910000</speed>
</trkpt>
<trkpt lat="21.030333" lon="105.779343">
<ele>1.881761</ele>
<time>2011-04-29T09:59:05Z</time>
<desc>lat.=21.030333, lon.=105.779343, Alt.=1.881761m. Speed=3.348000m/h.</desc>
<speed>0.930000</speed>
</trkpt>
<trkpt lat="21.030294" lon="105.779343">
<ele>1.612168</ele>
<time>2011-04-29T09:59:10Z</time>
<desc>lat.=21.030294, lon.=105.779343, Alt.=1.612168m. Speed=2.520000m/h.</desc>
<speed>0.700000</speed>
</trkpt>
<trkpt lat="21.030266" lon="105.779335">
<ele>1.817796</ele>
<time>2011-04-29T09:59:15Z</time>
<desc>lat.=21.030266, lon.=105.779335, Alt.=1.817796m. Speed=2.484000m/h.</desc>
<speed>0.690000</speed>
</trkpt>
<trkpt lat="21.030226" lon="105.779327">
<ele>1.603044</ele>
<time>2011-04-29T09:59:20Z</time>
<desc>lat.=21.030226, lon.=105.779327, Alt.=1.603044m. Speed=2.484000m/h.</desc>
<speed>0.690000</speed>
</trkpt>
<trkpt lat="21.030195" lon="105.779320">
<ele>1.275743</ele>
<time>2011-04-29T09:59:25Z</time>
<desc>lat.=21.030195, lon.=105.779320, Alt.=1.275743m. Speed=2.484000m/h.</desc>
<speed>0.690000</speed>
</trkpt>
<trkpt lat="21.030151" lon="105.779305">
<ele>0.938317</ele>
<time>2011-04-29T09:59:30Z</time>
<desc>lat.=21.030151, lon.=105.779305, Alt.=0.938317m. Speed=3.672000m/h.</desc>
<speed>1.020000</speed>
</trkpt>
<trkpt lat="21.030125" lon="105.779305">
<ele>0.897591</ele>
<time>2011-04-29T09:59:35Z</time>
<desc>lat.=21.030125, lon.=105.779305, Alt.=0.897591m. Speed=3.204000m/h.</desc>
<speed>0.890000</speed>
</trkpt>
<trkpt lat="21.030064" lon="105.779289">
<ele>1.166337</ele>
<time>2011-04-29T09:59:40Z</time>
<desc>lat.=21.030064, lon.=105.779289, Alt.=1.166337m. Speed=4.068000m/h.</desc>
<speed>1.130000</speed>
</trkpt>
<trkpt lat="21.029999" lon="105.779282">
<ele>0.760903</ele>
<time>2011-04-29T09:59:45Z</time>
<desc>lat.=21.029999, lon.=105.779282, Alt.=0.760903m. Speed=5.076000m/h.</desc>
<speed>1.410000</speed>
</trkpt>
<trkpt lat="21.029902" lon="105.779282">
<ele>0.319729</ele>
<time>2011-04-29T09:59:50Z</time>
<desc>lat.=21.029902, lon.=105.779282, Alt.=0.319729m. Speed=6.480000m/h.</desc>
<speed>1.800000</speed>
</trkpt>
<trkpt lat="21.029804" lon="105.779259">
<ele>-0.070760</ele>
<time>2011-04-29T09:59:55Z</time>
<desc>lat.=21.029804, lon.=105.779259, Alt.=-0.070760m. Speed=5.832000m/h.</desc>
<speed>1.620000</speed>
</trkpt>
<trkpt lat="21.029711" lon="105.779228">
<ele>-0.152842</ele>
<time>2011-04-29T10:00:00Z</time>
<desc>lat.=21.029711, lon.=105.779228, Alt.=-0.152842m. Speed=6.156000m/h.</desc>
<speed>1.710000</speed>
</trkpt>
<trkpt lat="21.029640" lon="105.779213">
<ele>-0.530190</ele>
<time>2011-04-29T10:00:05Z</time>
<desc>lat.=21.029640, lon.=105.779213, Alt.=-0.530190m. Speed=5.040000m/h.</desc>
<speed>1.400000</speed>
</trkpt>
<trkpt lat="21.029573" lon="105.779198">
<ele>-0.527062</ele>
<time>2011-04-29T10:00:10Z</time>
<desc>lat.=21.029573, lon.=105.779198, Alt.=-0.527062m. Speed=5.184000m/h.</desc>
<speed>1.440000</speed>
</trkpt>
<trkpt lat="21.029509" lon="105.779182">
<ele>-1.257524</ele>
<time>2011-04-29T10:00:15Z</time>
<desc>lat.=21.029509, lon.=105.779182, Alt.=-1.257524m. Speed=5.904000m/h.</desc>
<speed>1.640000</speed>
</trkpt>
<trkpt lat="21.029442" lon="105.779167">
<ele>-1.837846</ele>
<time>2011-04-29T10:00:20Z</time>
<desc>lat.=21.029442, lon.=105.779167, Alt.=-1.837846m. Speed=4.788000m/h.</desc>
<speed>1.330000</speed>
</trkpt>
<trkpt lat="21.029360" lon="105.779167">
<ele>-2.032015</ele>
<time>2011-04-29T10:00:25Z</time>
<desc>lat.=21.029360, lon.=105.779167, Alt.=-2.032015m. Speed=4.752000m/h.</desc>
<speed>1.320000</speed>
</trkpt>
<trkpt lat="21.029305" lon="105.779175">
<ele>-2.332735</ele>
<time>2011-04-29T10:00:30Z</time>
<desc>lat.=21.029305, lon.=105.779175, Alt.=-2.332735m. Speed=2.952000m/h.</desc>
<speed>0.820000</speed>
</trkpt>
<trkpt lat="21.029274" lon="105.779160">
<ele>-2.398714</ele>
<time>2011-04-29T10:00:35Z</time>
<desc>lat.=21.029274, lon.=105.779160, Alt.=-2.398714m. Speed=2.484000m/h.</desc>
<speed>0.690000</speed>
</trkpt>
<trkpt lat="21.029245" lon="105.779175">
<ele>-1.886369</ele>
<time>2011-04-29T10:00:40Z</time>
<desc>lat.=21.029245, lon.=105.779175, Alt.=-1.886369m. Speed=2.484000m/h.</desc>
<speed>0.690000</speed>
</trkpt>
<trkpt lat="21.029219" lon="105.779175">
<ele>-2.050631</ele>
<time>2011-04-29T10:00:45Z</time>
<desc>lat.=21.029219, lon.=105.779175, Alt.=-2.050631m. Speed=1.800000m/h.</desc>
<speed>0.500000</speed>
</trkpt>
<trkpt lat="21.029211" lon="105.779152">
<ele>-2.816805</ele>
<time>2011-04-29T10:00:50Z</time>
<desc>lat.=21.029211, lon.=105.779152, Alt.=-2.816805m. Speed=1.332000m/h.</desc>
<speed>0.370000</speed>
</trkpt>
<trkpt lat="21.029196" lon="105.779144">
<ele>-2.539034</ele>
<time>2011-04-29T10:00:55Z</time>
<desc>lat.=21.029196, lon.=105.779144, Alt.=-2.539034m. Speed=1.800000m/h.</desc>
<speed>0.500000</speed>
</trkpt>
<trkpt lat="21.029184" lon="105.779129">
<ele>-3.050997</ele>
<time>2011-04-29T10:01:00Z</time>
<desc>lat.=21.029184, lon.=105.779129, Alt.=-3.050997m. Speed=1.188000m/h.</desc>
<speed>0.330000</speed>
</trkpt>
<trkpt lat="21.029163" lon="105.779137">
<ele>-3.215303</ele>
<time>2011-04-29T10:01:05Z</time>
<desc>lat.=21.029163, lon.=105.779137, Alt.=-3.215303m. Speed=1.764000m/h.</desc>
<speed>0.490000</speed>
</trkpt>
<trkpt lat="21.029158" lon="105.779121">
<ele>-3.229036</ele>
<time>2011-04-29T10:01:10Z</time>
<desc>lat.=21.029158, lon.=105.779121, Alt.=-3.229036m. Speed=1.044000m/h.</desc>
<speed>0.290000</speed>
</trkpt>
<trkpt lat="21.029131" lon="105.779121">
<ele>-3.737337</ele>
<time>2011-04-29T10:01:15Z</time>
<desc>lat.=21.029131, lon.=105.779121, Alt.=-3.737337m. Speed=2.016000m/h.</desc>
<speed>0.560000</speed>
</trkpt>
<trkpt lat="21.029097" lon="105.779106">
<ele>-3.412142</ele>
<time>2011-04-29T10:01:20Z</time>
<desc>lat.=21.029097, lon.=105.779106, Alt.=-3.412142m. Speed=2.088000m/h.</desc>
<speed>0.580000</speed>
</trkpt>
<trkpt lat="21.029093" lon="105.779091">
<ele>-3.303255</ele>
<time>2011-04-29T10:01:25Z</time>
<desc>lat.=21.029093, lon.=105.779091, Alt.=-3.303255m. Speed=1.836000m/h.</desc>
<speed>0.510000</speed>
</trkpt>
<trkpt lat="21.029057" lon="105.779091">
<ele>-3.320894</ele>
<time>2011-04-29T10:01:30Z</time>
<desc>lat.=21.029057, lon.=105.779091, Alt.=-3.320894m. Speed=3.024000m/h.</desc>
<speed>0.840000</speed>
</trkpt>
<trkpt lat="21.029009" lon="105.779091">
<ele>-3.884920</ele>
<time>2011-04-29T10:01:35Z</time>
<desc>lat.=21.029009, lon.=105.779091, Alt.=-3.884920m. Speed=3.636000m/h.</desc>
<speed>1.010000</speed>
</trkpt>
<trkpt lat="21.028954" lon="105.779083">
<ele>-3.319551</ele>
<time>2011-04-29T10:01:40Z</time>
<desc>lat.=21.028954, lon.=105.779083, Alt.=-3.319551m. Speed=3.852000m/h.</desc>
<speed>1.070000</speed>
</trkpt>
<trkpt lat="21.028917" lon="105.779068">
<ele>-3.910250</ele>
<time>2011-04-29T10:01:45Z</time>
<desc>lat.=21.028917, lon.=105.779068, Alt.=-3.910250m. Speed=3.888000m/h.</desc>
<speed>1.080000</speed>
</trkpt>
<trkpt lat="21.028856" lon="105.779045">
<ele>-4.553043</ele>
<time>2011-04-29T10:01:50Z</time>
<desc>lat.=21.028856, lon.=105.779045, Alt.=-4.553043m. Speed=4.968000m/h.</desc>
<speed>1.380000</speed>
</trkpt>
<trkpt lat="21.028818" lon="105.778999">
<ele>-4.639469</ele>
<time>2011-04-29T10:01:55Z</time>
<desc>lat.=21.028818, lon.=105.778999, Alt.=-4.639469m. Speed=4.068000m/h.</desc>
<speed>1.130000</speed>
</trkpt>
<trkpt lat="21.028809" lon="105.778938">
<ele>-4.645573</ele>
<time>2011-04-29T10:02:00Z</time>
<desc>lat.=21.028809, lon.=105.778938, Alt.=-4.645573m. Speed=4.032000m/h.</desc>
<speed>1.120000</speed>
</trkpt>
<trkpt lat="21.028797" lon="105.778877">
<ele>-3.886507</ele>
<time>2011-04-29T10:02:05Z</time>
<desc>lat.=21.028797, lon.=105.778877, Alt.=-3.886507m. Speed=6.192000m/h.</desc>
<speed>1.720000</speed>
</trkpt>
<trkpt lat="21.028811" lon="105.778801">
<ele>-2.998079</ele>
<time>2011-04-29T10:02:10Z</time>
<desc>lat.=21.028811, lon.=105.778801, Alt.=-2.998079m. Speed=6.768000m/h.</desc>
<speed>1.880000</speed>
</trkpt>
<trkpt lat="21.028820" lon="105.778702">
<ele>-2.594942</ele>
<time>2011-04-29T10:02:15Z</time>
<desc>lat.=21.028820, lon.=105.778702, Alt.=-2.594942m. Speed=4.608000m/h.</desc>
<speed>1.280000</speed>
</trkpt>
<trkpt lat="21.028820" lon="105.778648">
<ele>-2.078585</ele>
<time>2011-04-29T10:02:20Z</time>
<desc>lat.=21.028820, lon.=105.778648, Alt.=-2.078585m. Speed=2.232000m/h.</desc>
<speed>0.620000</speed>
</trkpt>
<trkpt lat="21.028835" lon="105.778625">
<ele>-2.521273</ele>
<time>2011-04-29T10:02:25Z</time>
<desc>lat.=21.028835, lon.=105.778625, Alt.=-2.521273m. Speed=0.684000m/h.</desc>
<speed>0.190000</speed>
</trkpt>
<trkpt lat="21.028837" lon="105.778603">
<ele>-3.446199</ele>
<time>2011-04-29T10:02:30Z</time>
<desc>lat.=21.028837, lon.=105.778603, Alt.=-3.446199m. Speed=1.044000m/h.</desc>
<speed>0.290000</speed>
</trkpt>
<trkpt lat="21.028839" lon="105.778587">
<ele>-3.231966</ele>
<time>2011-04-29T10:02:35Z</time>
<desc>lat.=21.028839, lon.=105.778587, Alt.=-3.231966m. Speed=0.324000m/h.</desc>
<speed>0.090000</speed>
</trkpt>
<trkpt lat="21.028835" lon="105.778580">
<ele>-3.135714</ele>
<time>2011-04-29T10:02:40Z</time>
<desc>lat.=21.028835, lon.=105.778580, Alt.=-3.135714m. Speed=0.144000m/h.</desc>
<speed>0.040000</speed>
</trkpt>
<trkpt lat="21.028835" lon="105.778580">
<ele>-3.078035</ele>
<time>2011-04-29T10:02:45Z</time>
<desc>lat.=21.028835, lon.=105.778580, Alt.=-3.078035m. Speed=0.468000m/h.</desc>
<speed>0.130000</speed>
</trkpt>
<trkpt lat="21.028841" lon="105.778572">
<ele>-3.034883</ele>
<time>2011-04-29T10:02:50Z</time>
<desc>lat.=21.028841, lon.=105.778572, Alt.=-3.034883m. Speed=0.360000m/h.</desc>
<speed>0.100000</speed>
</trkpt>
<trkpt lat="21.028845" lon="105.778564">
<ele>-3.001680</ele>
<time>2011-04-29T10:02:55Z</time>
<desc>lat.=21.028845, lon.=105.778564, Alt.=-3.001680m. Speed=1.008000m/h.</desc>
<speed>0.280000</speed>
</trkpt>
<trkpt lat="21.028851" lon="105.778519">
<ele>-1.033036</ele>
<time>2011-04-29T10:03:00Z</time>
<desc>lat.=21.028851, lon.=105.778519, Alt.=-1.033036m. Speed=3.312000m/h.</desc>
<speed>0.920000</speed>
</trkpt>
<trkpt lat="21.028872" lon="105.778473">
<ele>-0.906426</ele>
<time>2011-04-29T10:03:05Z</time>
<desc>lat.=21.028872, lon.=105.778473, Alt.=-0.906426m. Speed=3.492000m/h.</desc>
<speed>0.970000</speed>
</trkpt>
<trkpt lat="21.028870" lon="105.778458">
<ele>-1.231858</ele>
<time>2011-04-29T10:03:10Z</time>
<desc>lat.=21.028870, lon.=105.778458, Alt.=-1.231858m. Speed=1.656000m/h.</desc>
<speed>0.460000</speed>
</trkpt>
<trkpt lat="21.028887" lon="105.778427">
<ele>-0.535515</ele>
<time>2011-04-29T10:03:15Z</time>
<desc>lat.=21.028887, lon.=105.778427, Alt.=-0.535515m. Speed=1.080000m/h.</desc>
<speed>0.300000</speed>
</trkpt>
<trkpt lat="21.028906" lon="105.778397">
<ele>-0.494450</ele>
<time>2011-04-29T10:03:20Z</time>
<desc>lat.=21.028906, lon.=105.778397, Alt.=-0.494450m. Speed=1.908000m/h.</desc>
<speed>0.530000</speed>
</trkpt>
<trkpt lat="21.028921" lon="105.778381">
<ele>0.821785</ele>
<time>2011-04-29T10:03:25Z</time>
<desc>lat.=21.028921, lon.=105.778381, Alt.=0.821785m. Speed=0.828000m/h.</desc>
<speed>0.230000</speed>
</trkpt>
<trkpt lat="21.028902" lon="105.778389">
<ele>0.293583</ele>
<time>2011-04-29T10:03:30Z</time>
<desc>lat.=21.028902, lon.=105.778389, Alt.=0.293583m. Speed=0.756000m/h.</desc>
<speed>0.210000</speed>
</trkpt>
<trkpt lat="21.028908" lon="105.778366">
<ele>0.374363</ele>
<time>2011-04-29T10:03:35Z</time>
<desc>lat.=21.028908, lon.=105.778366, Alt.=0.374363m. Speed=1.224000m/h.</desc>
<speed>0.340000</speed>
</trkpt>
<trkpt lat="21.028921" lon="105.778374">
<ele>0.116292</ele>
<time>2011-04-29T10:03:40Z</time>
<desc>lat.=21.028921, lon.=105.778374, Alt.=0.116292m. Speed=0.576000m/h.</desc>
<speed>0.160000</speed>
</trkpt>
<trkpt lat="21.028923" lon="105.778381">
<ele>0.108777</ele>
<time>2011-04-29T10:03:45Z</time>
<desc>lat.=21.028923, lon.=105.778381, Alt.=0.108777m. Speed=0.216000m/h.</desc>
<speed>0.060000</speed>
</trkpt>
<trkpt lat="21.028913" lon="105.778351">
<ele>-0.038433</ele>
<time>2011-04-29T10:03:50Z</time>
<desc>lat.=21.028913, lon.=105.778351, Alt.=-0.038433m. Speed=2.232000m/h.</desc>
<speed>0.620000</speed>
</trkpt>
<trkpt lat="21.028919" lon="105.778313">
<ele>-0.156431</ele>
<time>2011-04-29T10:03:55Z</time>
<desc>lat.=21.028919, lon.=105.778313, Alt.=-0.156431m. Speed=1.584000m/h.</desc>
<speed>0.440000</speed>
</trkpt>
<trkpt lat="21.028933" lon="105.778305">
<ele>0.051261</ele>
<time>2011-04-29T10:04:00Z</time>
<desc>lat.=21.028933, lon.=105.778305, Alt.=0.051261m. Speed=1.404000m/h.</desc>
<speed>0.390000</speed>
</trkpt>
<trkpt lat="21.028934" lon="105.778297">
<ele>-0.081800</ele>
<time>2011-04-29T10:04:05Z</time>
<desc>lat.=21.028934, lon.=105.778297, Alt.=-0.081800m. Speed=1.152000m/h.</desc>
<speed>0.320000</speed>
</trkpt>
<trkpt lat="21.028927" lon="105.778290">
<ele>-0.109136</ele>
<time>2011-04-29T10:04:10Z</time>
<desc>lat.=21.028927, lon.=105.778290, Alt.=-0.109136m. Speed=0.108000m/h.</desc>
<speed>0.030000</speed>
</trkpt>
<trkpt lat="21.028925" lon="105.778267">
<ele>-0.309086</ele>
<time>2011-04-29T10:04:15Z</time>
<desc>lat.=21.028925, lon.=105.778267, Alt.=-0.309086m. Speed=1.656000m/h.</desc>
<speed>0.460000</speed>
</trkpt>
<trkpt lat="21.028925" lon="105.778236">
<ele>-0.439793</ele>
<time>2011-04-29T10:04:20Z</time>
<desc>lat.=21.028925, lon.=105.778236, Alt.=-0.439793m. Speed=2.232000m/h.</desc>
<speed>0.620000</speed>
</trkpt>
<trkpt lat="21.028921" lon="105.778221">
<ele>-0.292347</ele>
<time>2011-04-29T10:04:25Z</time>
<desc>lat.=21.028921, lon.=105.778221, Alt.=-0.292347m. Speed=1.620000m/h.</desc>
<speed>0.450000</speed>
</trkpt>
<trkpt lat="21.028912" lon="105.778175">
<ele>-0.034383</ele>
<time>2011-04-29T10:04:30Z</time>
<desc>lat.=21.028912, lon.=105.778175, Alt.=-0.034383m. Speed=2.736000m/h.</desc>
<speed>0.760000</speed>
</trkpt>
<trkpt lat="21.028938" lon="105.778168">
<ele>-0.517586</ele>
<time>2011-04-29T10:04:35Z</time>
<desc>lat.=21.028938, lon.=105.778168, Alt.=-0.517586m. Speed=1.908000m/h.</desc>
<speed>0.530000</speed>
</trkpt>
<trkpt lat="21.028946" lon="105.778130">
<ele>-0.604058</ele>
<time>2011-04-29T10:04:40Z</time>
<desc>lat.=21.028946, lon.=105.778130, Alt.=-0.604058m. Speed=2.196000m/h.</desc>
<speed>0.610000</speed>
</trkpt>
<trkpt lat="21.028938" lon="105.778130">
<ele>-0.705910</ele>
<time>2011-04-29T10:04:45Z</time>
<desc>lat.=21.028938, lon.=105.778130, Alt.=-0.705910m. Speed=0.900000m/h.</desc>
<speed>0.250000</speed>
</trkpt>
<trkpt lat="21.028925" lon="105.778107">
<ele>-0.137392</ele>
<time>2011-04-29T10:04:50Z</time>
<desc>lat.=21.028925, lon.=105.778107, Alt.=-0.137392m. Speed=0.720000m/h.</desc>
<speed>0.200000</speed>
</trkpt>
<trkpt lat="21.028917" lon="105.778084">
<ele>0.126631</ele>
<time>2011-04-29T10:04:55Z</time>
<desc>lat.=21.028917, lon.=105.778084, Alt.=0.126631m. Speed=1.260000m/h.</desc>
<speed>0.350000</speed>
</trkpt>
<trkpt lat="21.028885" lon="105.778076">
<ele>0.924523</ele>
<time>2011-04-29T10:05:00Z</time>
<desc>lat.=21.028885, lon.=105.778076, Alt.=0.924523m. Speed=0.936000m/h.</desc>
<speed>0.260000</speed>
</trkpt>
<trkpt lat="21.028877" lon="105.778099">
<ele>1.313462</ele>
<time>2011-04-29T10:05:05Z</time>
<desc>lat.=21.028877, lon.=105.778099, Alt.=1.313462m. Speed=0.144000m/h.</desc>
<speed>0.040000</speed>
</trkpt>
<trkpt lat="21.028873" lon="105.778099">
<ele>1.387681</ele>
<time>2011-04-29T10:05:10Z</time>
<desc>lat.=21.028873, lon.=105.778099, Alt.=1.387681m. Speed=0.576000m/h.</desc>
<speed>0.160000</speed>
</trkpt>
<trkpt lat="21.028870" lon="105.778099">
<ele>1.472276</ele>
<time>2011-04-29T10:05:15Z</time>
<desc>lat.=21.028870, lon.=105.778099, Alt.=1.472276m. Speed=0.216000m/h.</desc>
<speed>0.060000</speed>
</trkpt>
<trkpt lat="21.028870" lon="105.778099">
<ele>1.513627</ele>
<time>2011-04-29T10:05:20Z</time>
<desc>lat.=21.028870, lon.=105.778099, Alt.=1.513627m. Speed=0.540000m/h.</desc>
<speed>0.150000</speed>
</trkpt>
<trkpt lat="21.028872" lon="105.778099">
<ele>1.518815</ele>
<time>2011-04-29T10:05:25Z</time>
<desc>lat.=21.028872, lon.=105.778099, Alt.=1.518815m. Speed=0.252000m/h.</desc>
<speed>0.070000</speed>
</trkpt>
<trkpt lat="21.028868" lon="105.778099">
<ele>1.492051</ele>
<time>2011-04-29T10:05:30Z</time>
<desc>lat.=21.028868, lon.=105.778099, Alt.=1.492051m. Speed=1.260000m/h.</desc>
<speed>0.350000</speed>
</trkpt>
<trkpt lat="21.028864" lon="105.778099">
<ele>0.931633</ele>
<time>2011-04-29T10:05:35Z</time>
<desc>lat.=21.028864, lon.=105.778099, Alt.=0.931633m. Speed=1.116000m/h.</desc>
<speed>0.310000</speed>
</trkpt>
<trkpt lat="21.028868" lon="105.778076">
<ele>1.020005</ele>
<time>2011-04-29T10:05:40Z</time>
<desc>lat.=21.028868, lon.=105.778076, Alt.=1.020005m. Speed=2.412000m/h.</desc>
<speed>0.670000</speed>
</trkpt>
<trkpt lat="21.028881" lon="105.778038">
<ele>0.897194</ele>
<time>2011-04-29T10:05:45Z</time>
<desc>lat.=21.028881, lon.=105.778038, Alt.=0.897194m. Speed=2.592000m/h.</desc>
<speed>0.720000</speed>
</trkpt>
<trkpt lat="21.028891" lon="105.778015">
<ele>0.250950</ele>
<time>2011-04-29T10:05:50Z</time>
<desc>lat.=21.028891, lon.=105.778015, Alt.=0.250950m. Speed=2.376000m/h.</desc>
<speed>0.660000</speed>
</trkpt>
<trkpt lat="21.028929" lon="105.777962">
<ele>1.249070</ele>
<time>2011-04-29T10:05:55Z</time>
<desc>lat.=21.028929, lon.=105.777962, Alt.=1.249070m. Speed=2.160000m/h.</desc>
<speed>0.600000</speed>
</trkpt>
<trkpt lat="21.028929" lon="105.777931">
<ele>1.624497</ele>
<time>2011-04-29T10:06:00Z</time>
<desc>lat.=21.028929, lon.=105.777931, Alt.=1.624497m. Speed=1.620000m/h.</desc>
<speed>0.450000</speed>
</trkpt>
<trkpt lat="21.028934" lon="105.777908">
<ele>1.356980</ele>
<time>2011-04-29T10:06:05Z</time>
<desc>lat.=21.028934, lon.=105.777908, Alt.=1.356980m. Speed=2.448000m/h.</desc>
<speed>0.680000</speed>
</trkpt>
<trkpt lat="21.028954" lon="105.777863">
<ele>1.797532</ele>
<time>2011-04-29T10:06:10Z</time>
<desc>lat.=21.028954, lon.=105.777863, Alt.=1.797532m. Speed=1.512000m/h.</desc>
<speed>0.420000</speed>
</trkpt>
<trkpt lat="21.028963" lon="105.777840">
<ele>2.453096</ele>
<time>2011-04-29T10:06:15Z</time>
<desc>lat.=21.028963, lon.=105.777840, Alt.=2.453096m. Speed=1.296000m/h.</desc>
<speed>0.360000</speed>
</trkpt>
<trkpt lat="21.028986" lon="105.777824">
<ele>3.636141</ele>
<time>2011-04-29T10:06:20Z</time>
<desc>lat.=21.028986, lon.=105.777824, Alt.=3.636141m. Speed=1.908000m/h.</desc>
<speed>0.530000</speed>
</trkpt>
<trkpt lat="21.029005" lon="105.777779">
<ele>3.894075</ele>
<time>2011-04-29T10:06:25Z</time>
<desc>lat.=21.029005, lon.=105.777779, Alt.=3.894075m. Speed=2.088000m/h.</desc>
<speed>0.580000</speed>
</trkpt>
<trkpt lat="21.028997" lon="105.777748">
<ele>3.994600</ele>
<time>2011-04-29T10:06:30Z</time>
<desc>lat.=21.028997, lon.=105.777748, Alt.=3.994600m. Speed=1.872000m/h.</desc>
<speed>0.520000</speed>
</trkpt>
<trkpt lat="21.028997" lon="105.777702">
<ele>4.814396</ele>
<time>2011-04-29T10:06:35Z</time>
<desc>lat.=21.028997, lon.=105.777702, Alt.=4.814396m. Speed=1.620000m/h.</desc>
<speed>0.450000</speed>
</trkpt>
<trkpt lat="21.028994" lon="105.777672">
<ele>4.452579</ele>
<time>2011-04-29T10:06:40Z</time>
<desc>lat.=21.028994, lon.=105.777672, Alt.=4.452579m. Speed=1.800000m/h.</desc>
<speed>0.500000</speed>
</trkpt>
<trkpt lat="21.028973" lon="105.777664">
<ele>4.089909</ele>
<time>2011-04-29T10:06:45Z</time>
<desc>lat.=21.028973, lon.=105.777664, Alt.=4.089909m. Speed=1.296000m/h.</desc>
<speed>0.360000</speed>
</trkpt>
<trkpt lat="21.028963" lon="105.777664">
<ele>4.579899</ele>
<time>2011-04-29T10:06:50Z</time>
<desc>lat.=21.028963, lon.=105.777664, Alt.=4.579899m. Speed=1.008000m/h.</desc>
<speed>0.280000</speed>
</trkpt>
<trkpt lat="21.028961" lon="105.777657">
<ele>4.651554</ele>
<time>2011-04-29T10:06:55Z</time>
<desc>lat.=21.028961, lon.=105.777657, Alt.=4.651554m. Speed=0.432000m/h.</desc>
<speed>0.120000</speed>
</trkpt>
<trkpt lat="21.028961" lon="105.777649">
<ele>4.761173</ele>
<time>2011-04-29T10:07:00Z</time>
<desc>lat.=21.028961, lon.=105.777649, Alt.=4.761173m. Speed=0.252000m/h.</desc>
<speed>0.070000</speed>
</trkpt>
<trkpt lat="21.028965" lon="105.777649">
<ele>4.881168</ele>
<time>2011-04-29T10:07:05Z</time>
<desc>lat.=21.028965, lon.=105.777649, Alt.=4.881168m. Speed=0.252000m/h.</desc>
<speed>0.070000</speed>
</trkpt>
<trkpt lat="21.028969" lon="105.777649">
<ele>4.961857</ele>
<time>2011-04-29T10:07:10Z</time>
<desc>lat.=21.028969, lon.=105.777649, Alt.=4.961857m. Speed=0.108000m/h.</desc>
<speed>0.030000</speed>
</trkpt>
<trkpt lat="21.028965" lon="105.777649">
<ele>5.031681</ele>
<time>2011-04-29T10:07:15Z</time>
<desc>lat.=21.028965, lon.=105.777649, Alt.=5.031681m. Speed=0.432000m/h.</desc>
<speed>0.120000</speed>
</trkpt>
<trkpt lat="21.028961" lon="105.777649">
<ele>5.085514</ele>
<time>2011-04-29T10:07:20Z</time>
<desc>lat.=21.028961, lon.=105.777649, Alt.=5.085514m. Speed=0.432000m/h.</desc>
<speed>0.120000</speed>
</trkpt>
<trkpt lat="21.028959" lon="105.777641">
<ele>5.106388</ele>
<time>2011-04-29T10:07:25Z</time>
<desc>lat.=21.028959, lon.=105.777641, Alt.=5.106388m. Speed=0.324000m/h.</desc>
<speed>0.090000</speed>
</trkpt>
<trkpt lat="21.028955" lon="105.777641">
<ele>5.111393</ele>
<time>2011-04-29T10:07:30Z</time>
<desc>lat.=21.028955, lon.=105.777641, Alt.=5.111393m. Speed=0.432000m/h.</desc>
<speed>0.120000</speed>
</trkpt>
<trkpt lat="21.028950" lon="105.777641">
<ele>5.211979</ele>
<time>2011-04-29T10:07:35Z</time>
<desc>lat.=21.028950, lon.=105.777641, Alt.=5.211979m. Speed=0.396000m/h.</desc>
<speed>0.110000</speed>
</trkpt>
<trkpt lat="21.028950" lon="105.777634">
<ele>5.276066</ele>
<time>2011-04-29T10:07:40Z</time>
<desc>lat.=21.028950, lon.=105.777634, Alt.=5.276066m. Speed=0.504000m/h.</desc>
<speed>0.140000</speed>
</trkpt>
<trkpt lat="21.028957" lon="105.777626">
<ele>5.249210</ele>
<time>2011-04-29T10:07:45Z</time>
<desc>lat.=21.028957, lon.=105.777626, Alt.=5.249210m. Speed=0.792000m/h.</desc>
<speed>0.220000</speed>
</trkpt>
<trkpt lat="21.028978" lon="105.777618">
<ele>4.807316</ele>
<time>2011-04-29T10:07:50Z</time>
<desc>lat.=21.028978, lon.=105.777618, Alt.=4.807316m. Speed=1.260000m/h.</desc>
<speed>0.350000</speed>
</trkpt>
<trkpt lat="21.029007" lon="105.777611">
<ele>1.666215</ele>
<time>2011-04-29T10:07:55Z</time>
<desc>lat.=21.029007, lon.=105.777611, Alt.=1.666215m. Speed=1.080000m/h.</desc>
<speed>0.300000</speed>
</trkpt>
<trkpt lat="21.028997" lon="105.777634">
<ele>2.334322</ele>
<time>2011-04-29T10:08:00Z</time>
<desc>lat.=21.028997, lon.=105.777634, Alt.=2.334322m. Speed=0.216000m/h.</desc>
<speed>0.060000</speed>
</trkpt>
<trkpt lat="21.028999" lon="105.777634">
<ele>2.184298</ele>
<time>2011-04-29T10:08:05Z</time>
<desc>lat.=21.028999, lon.=105.777634, Alt.=2.184298m. Speed=0.000000m/h.</desc>
<speed>0.000000</speed>
</trkpt>
<trkpt lat="21.028999" lon="105.777626">
<ele>2.153475</ele>
<time>2011-04-29T10:08:10Z</time>
<desc>lat.=21.028999, lon.=105.777626, Alt.=2.153475m. Speed=0.864000m/h.</desc>
<speed>0.240000</speed>
</trkpt>
<trkpt lat="21.029026" lon="105.777603">
<ele>2.168612</ele>
<time>2011-04-29T10:08:15Z</time>
<desc>lat.=21.029026, lon.=105.777603, Alt.=2.168612m. Speed=1.188000m/h.</desc>
<speed>0.330000</speed>
</trkpt>
<trkpt lat="21.029037" lon="105.777603">
<ele>2.305208</ele>
<time>2011-04-29T10:08:20Z</time>
<desc>lat.=21.029037, lon.=105.777603, Alt.=2.305208m. Speed=0.360000m/h.</desc>
<speed>0.100000</speed>
</trkpt>
<trkpt lat="21.029037" lon="105.777596">
<ele>2.291292</ele>
<time>2011-04-29T10:08:25Z</time>
<desc>lat.=21.029037, lon.=105.777596, Alt.=2.291292m. Speed=0.360000m/h.</desc>
<speed>0.100000</speed>
</trkpt>
<trkpt lat="21.029034" lon="105.777596">
<ele>2.208773</ele>
<time>2011-04-29T10:08:30Z</time>
<desc>lat.=21.029034, lon.=105.777596, Alt.=2.208773m. Speed=0.648000m/h.</desc>
<speed>0.180000</speed>
</trkpt>
<trkpt lat="21.029028" lon="105.777588">
<ele>2.088106</ele>
<time>2011-04-29T10:08:35Z</time>
<desc>lat.=21.029028, lon.=105.777588, Alt.=2.088106m. Speed=0.684000m/h.</desc>
<speed>0.190000</speed>
</trkpt>
<trkpt lat="21.029024" lon="105.777580">
<ele>1.976090</ele>
<time>2011-04-29T10:08:40Z</time>
<desc>lat.=21.029024, lon.=105.777580, Alt.=1.976090m. Speed=0.756000m/h.</desc>
<speed>0.210000</speed>
</trkpt>
<trkpt lat="21.029020" lon="105.777573">
<ele>1.844285</ele>
<time>2011-04-29T10:08:45Z</time>
<desc>lat.=21.029020, lon.=105.777573, Alt.=1.844285m. Speed=0.396000m/h.</desc>
<speed>0.110000</speed>
</trkpt>
<trkpt lat="21.029020" lon="105.777565">
<ele>1.634934</ele>
<time>2011-04-29T10:08:50Z</time>
<desc>lat.=21.029020, lon.=105.777565, Alt.=1.634934m. Speed=0.684000m/h.</desc>
<speed>0.190000</speed>
</trkpt>
<trkpt lat="21.029016" lon="105.777557">
<ele>1.394029</ele>
<time>2011-04-29T10:08:55Z</time>
<desc>lat.=21.029016, lon.=105.777557, Alt.=1.394029m. Speed=0.396000m/h.</desc>
<speed>0.110000</speed>
</trkpt>
<trkpt lat="21.029015" lon="105.777550">
<ele>1.100511</ele>
<time>2011-04-29T10:09:00Z</time>
<desc>lat.=21.029015, lon.=105.777550, Alt.=1.100511m. Speed=0.540000m/h.</desc>
<speed>0.150000</speed>
</trkpt>
<trkpt lat="21.029007" lon="105.777550">
<ele>0.792778</ele>
<time>2011-04-29T10:09:05Z</time>
<desc>lat.=21.029007, lon.=105.777550, Alt.=0.792778m. Speed=0.576000m/h.</desc>
<speed>0.160000</speed>
</trkpt>
<trkpt lat="21.028999" lon="105.777550">
<ele>0.474262</ele>
<time>2011-04-29T10:09:10Z</time>
<desc>lat.=21.028999, lon.=105.777550, Alt.=0.474262m. Speed=0.360000m/h.</desc>
<speed>0.100000</speed>
</trkpt>
<trkpt lat="21.028994" lon="105.777550">
<ele>0.154451</ele>
<time>2011-04-29T10:09:15Z</time>
<desc>lat.=21.028994, lon.=105.777550, Alt.=0.154451m. Speed=0.648000m/h.</desc>
<speed>0.180000</speed>
</trkpt>
<trkpt lat="21.028984" lon="105.777550">
<ele>-0.157568</ele>
<time>2011-04-29T10:09:20Z</time>
<desc>lat.=21.028984, lon.=105.777550, Alt.=-0.157568m. Speed=0.468000m/h.</desc>
<speed>0.130000</speed>
</trkpt>
<trkpt lat="21.028980" lon="105.777550">
<ele>-0.423985</ele>
<time>2011-04-29T10:09:25Z</time>
<desc>lat.=21.028980, lon.=105.777550, Alt.=-0.423985m. Speed=0.576000m/h.</desc>
<speed>0.160000</speed>
</trkpt>
<trkpt lat="21.028978" lon="105.777542">
<ele>-0.673699</ele>
<time>2011-04-29T10:09:30Z</time>
<desc>lat.=21.028978, lon.=105.777542, Alt.=-0.673699m. Speed=0.684000m/h.</desc>
<speed>0.190000</speed>
</trkpt>
<trkpt lat="21.028975" lon="105.777527">
<ele>-0.927208</ele>
<time>2011-04-29T10:09:35Z</time>
<desc>lat.=21.028975, lon.=105.777527, Alt.=-0.927208m. Speed=0.936000m/h.</desc>
<speed>0.260000</speed>
</trkpt>
<trkpt lat="21.028961" lon="105.777519">
<ele>-0.924386</ele>
<time>2011-04-29T10:09:40Z</time>
<desc>lat.=21.028961, lon.=105.777519, Alt.=-0.924386m. Speed=1.116000m/h.</desc>
<speed>0.310000</speed>
</trkpt>
<trkpt lat="21.028971" lon="105.777481">
<ele>-0.966485</ele>
<time>2011-04-29T10:09:45Z</time>
<desc>lat.=21.028971, lon.=105.777481, Alt.=-0.966485m. Speed=1.908000m/h.</desc>
<speed>0.530000</speed>
</trkpt>
<trkpt lat="21.028976" lon="105.777435">
<ele>-1.726670</ele>
<time>2011-04-29T10:09:50Z</time>
<desc>lat.=21.028976, lon.=105.777435, Alt.=-1.726670m. Speed=3.384000m/h.</desc>
<speed>0.940000</speed>
</trkpt>
<trkpt lat="21.028990" lon="105.777351">
<ele>-2.116060</ele>
<time>2011-04-29T10:09:55Z</time>
<desc>lat.=21.028990, lon.=105.777351, Alt.=-2.116060m. Speed=4.356000m/h.</desc>
<speed>1.210000</speed>
</trkpt>
<trkpt lat="21.028999" lon="105.777298">
<ele>-2.765657</ele>
<time>2011-04-29T10:10:00Z</time>
<desc>lat.=21.028999, lon.=105.777298, Alt.=-2.765657m. Speed=3.276000m/h.</desc>
<speed>0.910000</speed>
</trkpt>
<trkpt lat="21.028999" lon="105.777260">
<ele>-3.729280</ele>
<time>2011-04-29T10:10:05Z</time>
<desc>lat.=21.028999, lon.=105.777260, Alt.=-3.729280m. Speed=2.052000m/h.</desc>
<speed>0.570000</speed>
</trkpt>
<trkpt lat="21.028982" lon="105.777237">
<ele>-3.421114</ele>
<time>2011-04-29T10:10:10Z</time>
<desc>lat.=21.028982, lon.=105.777237, Alt.=-3.421114m. Speed=1.764000m/h.</desc>
<speed>0.490000</speed>
</trkpt>
<trkpt lat="21.028982" lon="105.777229">
<ele>-3.678926</ele>
<time>2011-04-29T10:10:15Z</time>
<desc>lat.=21.028982, lon.=105.777229, Alt.=-3.678926m. Speed=1.332000m/h.</desc>
<speed>0.370000</speed>
</trkpt>
<trkpt lat="21.028988" lon="105.777199">
<ele>-2.836885</ele>
<time>2011-04-29T10:10:20Z</time>
<desc>lat.=21.028988, lon.=105.777199, Alt.=-2.836885m. Speed=1.764000m/h.</desc>
<speed>0.490000</speed>
</trkpt>
<trkpt lat="21.028990" lon="105.777184">
<ele>-2.532198</ele>
<time>2011-04-29T10:10:25Z</time>
<desc>lat.=21.028990, lon.=105.777184, Alt.=-2.532198m. Speed=1.368000m/h.</desc>
<speed>0.380000</speed>
</trkpt>
<trkpt lat="21.028992" lon="105.777138">
<ele>-1.482682</ele>
<time>2011-04-29T10:10:30Z</time>
<desc>lat.=21.028992, lon.=105.777138, Alt.=-1.482682m. Speed=1.944000m/h.</desc>
<speed>0.540000</speed>
</trkpt>
<trkpt lat="21.028984" lon="105.777107">
<ele>-0.971062</ele>
<time>2011-04-29T10:10:35Z</time>
<desc>lat.=21.028984, lon.=105.777107, Alt.=-0.971062m. Speed=1.620000m/h.</desc>
<speed>0.450000</speed>
</trkpt>
<trkpt lat="21.028992" lon="105.777092">
<ele>-0.489826</ele>
<time>2011-04-29T10:10:40Z</time>
<desc>lat.=21.028992, lon.=105.777092, Alt.=-0.489826m. Speed=1.836000m/h.</desc>
<speed>0.510000</speed>
</trkpt>
<trkpt lat="21.029009" lon="105.777061">
<ele>0.215513</ele>
<time>2011-04-29T10:10:45Z</time>
<desc>lat.=21.029009, lon.=105.777061, Alt.=0.215513m. Speed=2.844000m/h.</desc>
<speed>0.790000</speed>
</trkpt>
<trkpt lat="21.029013" lon="105.777023">
<ele>0.279217</ele>
<time>2011-04-29T10:10:50Z</time>
<desc>lat.=21.029013, lon.=105.777023, Alt.=0.279217m. Speed=2.736000m/h.</desc>
<speed>0.760000</speed>
</trkpt>
<trkpt lat="21.029020" lon="105.777000">
<ele>-0.499501</ele>
<time>2011-04-29T10:10:55Z</time>
<desc>lat.=21.029020, lon.=105.777000, Alt.=-0.499501m. Speed=1.080000m/h.</desc>
<speed>0.300000</speed>
</trkpt>
<trkpt lat="21.029039" lon="105.776985">
<ele>0.313130</ele>
<time>2011-04-29T10:11:00Z</time>
<desc>lat.=21.029039, lon.=105.776985, Alt.=0.313130m. Speed=1.152000m/h.</desc>
<speed>0.320000</speed>
</trkpt>
<trkpt lat="21.029026" lon="105.776970">
<ele>0.488629</ele>
<time>2011-04-29T10:11:05Z</time>
<desc>lat.=21.029026, lon.=105.776970, Alt.=0.488629m. Speed=1.224000m/h.</desc>
<speed>0.340000</speed>
</trkpt>
<trkpt lat="21.029013" lon="105.776947">
<ele>0.565011</ele>
<time>2011-04-29T10:11:10Z</time>
<desc>lat.=21.029013, lon.=105.776947, Alt.=0.565011m. Speed=1.656000m/h.</desc>
<speed>0.460000</speed>
</trkpt>
<trkpt lat="21.028997" lon="105.776932">
<ele>0.682747</ele>
<time>2011-04-29T10:11:15Z</time>
<desc>lat.=21.028997, lon.=105.776932, Alt.=0.682747m. Speed=1.440000m/h.</desc>
<speed>0.400000</speed>
</trkpt>
<trkpt lat="21.028990" lon="105.776901">
<ele>0.800866</ele>
<time>2011-04-29T10:11:20Z</time>
<desc>lat.=21.028990, lon.=105.776901, Alt.=0.800866m. Speed=1.692000m/h.</desc>
<speed>0.470000</speed>
</trkpt>
<trkpt lat="21.028963" lon="105.776894">
<ele>0.817437</ele>
<time>2011-04-29T10:11:25Z</time>
<desc>lat.=21.028963, lon.=105.776894, Alt.=0.817437m. Speed=1.764000m/h.</desc>
<speed>0.490000</speed>
</trkpt>
<trkpt lat="21.028955" lon="105.776848">
<ele>2.216829</ele>
<time>2011-04-29T10:11:30Z</time>
<desc>lat.=21.028955, lon.=105.776848, Alt.=2.216829m. Speed=2.124000m/h.</desc>
<speed>0.590000</speed>
</trkpt>
<trkpt lat="21.028933" lon="105.776840">
<ele>2.843294</ele>
<time>2011-04-29T10:11:35Z</time>
<desc>lat.=21.028933, lon.=105.776840, Alt.=2.843294m. Speed=0.828000m/h.</desc>
<speed>0.230000</speed>
</trkpt>
<trkpt lat="21.028919" lon="105.776833">
<ele>2.508821</ele>
<time>2011-04-29T10:11:40Z</time>
<desc>lat.=21.028919, lon.=105.776833, Alt.=2.508821m. Speed=0.288000m/h.</desc>
<speed>0.080000</speed>
</trkpt>
<trkpt lat="21.028915" lon="105.776833">
<ele>2.628756</ele>
<time>2011-04-29T10:11:45Z</time>
<desc>lat.=21.028915, lon.=105.776833, Alt.=2.628756m. Speed=0.684000m/h.</desc>
<speed>0.190000</speed>
</trkpt>
<trkpt lat="21.028908" lon="105.776833">
<ele>2.766695</ele>
<time>2011-04-29T10:11:50Z</time>
<desc>lat.=21.028908, lon.=105.776833, Alt.=2.766695m. Speed=0.360000m/h.</desc>
<speed>0.100000</speed>
</trkpt>
<trkpt lat="21.028910" lon="105.776833">
<ele>2.972200</ele>
<time>2011-04-29T10:11:55Z</time>
<desc>lat.=21.028910, lon.=105.776833, Alt.=2.972200m. Speed=0.792000m/h.</desc>
<speed>0.220000</speed>
</trkpt>
<trkpt lat="21.028917" lon="105.776825">
<ele>3.210054</ele>
<time>2011-04-29T10:12:00Z</time>
<desc>lat.=21.028917, lon.=105.776825, Alt.=3.210054m. Speed=0.468000m/h.</desc>
<speed>0.130000</speed>
</trkpt>
<trkpt lat="21.028919" lon="105.776825">
<ele>3.494539</ele>
<time>2011-04-29T10:12:05Z</time>
<desc>lat.=21.028919, lon.=105.776825, Alt.=3.494539m. Speed=0.144000m/h.</desc>
<speed>0.040000</speed>
</trkpt>
<trkpt lat="21.028917" lon="105.776825">
<ele>3.780001</ele>
<time>2011-04-29T10:12:10Z</time>
<desc>lat.=21.028917, lon.=105.776825, Alt.=3.780001m. Speed=0.432000m/h.</desc>
<speed>0.120000</speed>
</trkpt>
<trkpt lat="21.028915" lon="105.776833">
<ele>4.040592</ele>
<time>2011-04-29T10:12:15Z</time>
<desc>lat.=21.028915, lon.=105.776833, Alt.=4.040592m. Speed=0.396000m/h.</desc>
<speed>0.110000</speed>
</trkpt>
<trkpt lat="21.028915" lon="105.776840">
<ele>4.234074</ele>
<time>2011-04-29T10:12:20Z</time>
<desc>lat.=21.028915, lon.=105.776840, Alt.=4.234074m. Speed=0.252000m/h.</desc>
<speed>0.070000</speed>
</trkpt>
<trkpt lat="21.028912" lon="105.776840">
<ele>4.393131</ele>
<time>2011-04-29T10:12:25Z</time>
<desc>lat.=21.028912, lon.=105.776840, Alt.=4.393131m. Speed=0.108000m/h.</desc>
<speed>0.030000</speed>
</trkpt>
<trkpt lat="21.028912" lon="105.776840">
<ele>4.566105</ele>
<time>2011-04-29T10:12:30Z</time>
<desc>lat.=21.028912, lon.=105.776840, Alt.=4.566105m. Speed=0.144000m/h.</desc>
<speed>0.040000</speed>
</trkpt>
<trkpt lat="21.028910" lon="105.776840">
<ele>4.607731</ele>
<time>2011-04-29T10:12:35Z</time>
<desc>lat.=21.028910, lon.=105.776840, Alt.=4.607731m. Speed=0.144000m/h.</desc>
<speed>0.040000</speed>
</trkpt>
<trkpt lat="21.028912" lon="105.776840">
<ele>4.684025</ele>
<time>2011-04-29T10:12:40Z</time>
<desc>lat.=21.028912, lon.=105.776840, Alt.=4.684025m. Speed=0.324000m/h.</desc>
<speed>0.090000</speed>
</trkpt>
<trkpt lat="21.028915" lon="105.776840">
<ele>4.771793</ele>
<time>2011-04-29T10:12:45Z</time>
<desc>lat.=21.028915, lon.=105.776840, Alt.=4.771793m. Speed=0.648000m/h.</desc>
<speed>0.180000</speed>
</trkpt>
<trkpt lat="21.028936" lon="105.776833">
<ele>5.668766</ele>
<time>2011-04-29T10:12:50Z</time>
<desc>lat.=21.028936, lon.=105.776833, Alt.=5.668766m. Speed=1.296000m/h.</desc>
<speed>0.360000</speed>
</trkpt>
<trkpt lat="21.028954" lon="105.776817">
<ele>7.281559</ele>
<time>2011-04-29T10:12:55Z</time>
<desc>lat.=21.028954, lon.=105.776817, Alt.=7.281559m. Speed=0.684000m/h.</desc>
<speed>0.190000</speed>
</trkpt>
<trkpt lat="21.028965" lon="105.776817">
<ele>8.889534</ele>
<time>2011-04-29T10:13:00Z</time>
<desc>lat.=21.028965, lon.=105.776817, Alt.=8.889534m. Speed=0.504000m/h.</desc>
<speed>0.140000</speed>
</trkpt>
<trkpt lat="21.028961" lon="105.776810">
<ele>8.914925</ele>
<time>2011-04-29T10:13:05Z</time>
<desc>lat.=21.028961, lon.=105.776810, Alt.=8.914925m. Speed=1.764000m/h.</desc>
<speed>0.490000</speed>
</trkpt>
<trkpt lat="21.028967" lon="105.776817">
<ele>9.761604</ele>
<time>2011-04-29T10:13:10Z</time>
<desc>lat.=21.028967, lon.=105.776817, Alt.=9.761604m. Speed=0.396000m/h.</desc>
<speed>0.110000</speed>
</trkpt>
<trkpt lat="21.028971" lon="105.776817">
<ele>9.569954</ele>
<time>2011-04-29T10:13:15Z</time>
<desc>lat.=21.028971, lon.=105.776817, Alt.=9.569954m. Speed=0.000000m/h.</desc>
<speed>0.000000</speed>
</trkpt>
<trkpt lat="21.028971" lon="105.776817">
<ele>9.580696</ele>
<time>2011-04-29T10:13:20Z</time>
<desc>lat.=21.028971, lon.=105.776817, Alt.=9.580696m. Speed=0.036000m/h.</desc>
<speed>0.010000</speed>
</trkpt>
<trkpt lat="21.028973" lon="105.776817">
<ele>9.529182</ele>
<time>2011-04-29T10:13:25Z</time>
<desc>lat.=21.028973, lon.=105.776817, Alt.=9.529182m. Speed=0.000000m/h.</desc>
<speed>0.000000</speed>
</trkpt>
<trkpt lat="21.028973" lon="105.776817">
<ele>9.531624</ele>
<time>2011-04-29T10:13:30Z</time>
<desc>lat.=21.028973, lon.=105.776817, Alt.=9.531624m. Speed=0.000000m/h.</desc>
<speed>0.000000</speed>
</trkpt>
<trkpt lat="21.028973" lon="105.776817">
<ele>9.506477</ele>
<time>2011-04-29T10:13:35Z</time>
<desc>lat.=21.028973, lon.=105.776817, Alt.=9.506477m. Speed=0.036000m/h.</desc>
<speed>0.010000</speed>
</trkpt>
<trkpt lat="21.028973" lon="105.776817">
<ele>9.483284</ele>
<time>2011-04-29T10:13:40Z</time>
<desc>lat.=21.028973, lon.=105.776817, Alt.=9.483284m. Speed=0.036000m/h.</desc>
<speed>0.010000</speed>
</trkpt>
<trkpt lat="21.028973" lon="105.776817">
<ele>9.449104</ele>
<time>2011-04-29T10:13:45Z</time>
<desc>lat.=21.028973, lon.=105.776817, Alt.=9.449104m. Speed=0.000000m/h.</desc>
<speed>0.000000</speed>
</trkpt>
<trkpt lat="21.028973" lon="105.776817">
<ele>9.413948</ele>
<time>2011-04-29T10:13:50Z</time>
<desc>lat.=21.028973, lon.=105.776817, Alt.=9.413948m. Speed=0.036000m/h.</desc>
<speed>0.010000</speed>
</trkpt>
<trkpt lat="21.028973" lon="105.776817">
<ele>9.362923</ele>
<time>2011-04-29T10:13:55Z</time>
<desc>lat.=21.028973, lon.=105.776817, Alt.=9.362923m. Speed=0.036000m/h.</desc>
<speed>0.010000</speed>
</trkpt>
<trkpt lat="21.028973" lon="105.776817">
<ele>9.340218</ele>
<time>2011-04-29T10:14:00Z</time>
<desc>lat.=21.028973, lon.=105.776817, Alt.=9.340218m. Speed=0.072000m/h.</desc>
<speed>0.020000</speed>
</trkpt>
<trkpt lat="21.028973" lon="105.776817">
<ele>9.320198</ele>
<time>2011-04-29T10:14:05Z</time>
<desc>lat.=21.028973, lon.=105.776817, Alt.=9.320198m. Speed=0.000000m/h.</desc>
<speed>0.000000</speed>
</trkpt>
<trkpt lat="21.028973" lon="105.776817">
<ele>9.317268</ele>
<time>2011-04-29T10:14:10Z</time>
<desc>lat.=21.028973, lon.=105.776817, Alt.=9.317268m. Speed=0.036000m/h.</desc>
<speed>0.010000</speed>
</trkpt>
<trkpt lat="21.028973" lon="105.776817">
<ele>9.317024</ele>
<time>2011-04-29T10:14:15Z</time>
<desc>lat.=21.028973, lon.=105.776817, Alt.=9.317024m. Speed=0.000000m/h.</desc>
<speed>0.000000</speed>
</trkpt>
<trkpt lat="21.028973" lon="105.776817">
<ele>9.306770</ele>
<time>2011-04-29T10:14:20Z</time>
<desc>lat.=21.028973, lon.=105.776817, Alt.=9.306770m. Speed=0.000000m/h.</desc>
<speed>0.000000</speed>
</trkpt>
<trkpt lat="21.028973" lon="105.776817">
<ele>9.302620</ele>
<time>2011-04-29T10:14:25Z</time>
<desc>lat.=21.028973, lon.=105.776817, Alt.=9.302620m. Speed=0.036000m/h.</desc>
<speed>0.010000</speed>
</trkpt>
<trkpt lat="21.028973" lon="105.776817">
<ele>9.307259</ele>
<time>2011-04-29T10:14:30Z</time>
<desc>lat.=21.028973, lon.=105.776817, Alt.=9.307259m. Speed=0.000000m/h.</desc>
<speed>0.000000</speed>
</trkpt>
<trkpt lat="21.028973" lon="105.776817">
<ele>9.305794</ele>
<time>2011-04-29T10:14:35Z</time>
<desc>lat.=21.028973, lon.=105.776817, Alt.=9.305794m. Speed=0.000000m/h.</desc>
<speed>0.000000</speed>
</trkpt>
<trkpt lat="21.028973" lon="105.776817">
<ele>9.302376</ele>
<time>2011-04-29T10:14:40Z</time>
<desc>lat.=21.028973, lon.=105.776817, Alt.=9.302376m. Speed=0.000000m/h.</desc>
<speed>0.000000</speed>
</trkpt>
<trkpt lat="21.028973" lon="105.776817">
<ele>9.305305</ele>
<time>2011-04-29T10:14:45Z</time>
<desc>lat.=21.028973, lon.=105.776817, Alt.=9.305305m. Speed=0.000000m/h.</desc>
<speed>0.000000</speed>
</trkpt>
<trkpt lat="21.028973" lon="105.776817">
<ele>9.292122</ele>
<time>2011-04-29T10:14:50Z</time>
<desc>lat.=21.028973, lon.=105.776817, Alt.=9.292122m. Speed=0.036000m/h.</desc>
<speed>0.010000</speed>
</trkpt>
<trkpt lat="21.028973" lon="105.776817">
<ele>9.276741</ele>
<time>2011-04-29T10:14:55Z</time>
<desc>lat.=21.028973, lon.=105.776817, Alt.=9.276741m. Speed=0.036000m/h.</desc>
<speed>0.010000</speed>
</trkpt>
<trkpt lat="21.028973" lon="105.776817">
<ele>9.269661</ele>
<time>2011-04-29T10:15:00Z</time>
<desc>lat.=21.028973, lon.=105.776817, Alt.=9.269661m. Speed=0.000000m/h.</desc>
<speed>0.000000</speed>
</trkpt>
<trkpt lat="21.028975" lon="105.776817">
<ele>9.263557</ele>
<time>2011-04-29T10:15:05Z</time>
<desc>lat.=21.028975, lon.=105.776817, Alt.=9.263557m. Speed=0.036000m/h.</desc>
<speed>0.010000</speed>
</trkpt>
<trkpt lat="21.028975" lon="105.776817">
<ele>9.256721</ele>
<time>2011-04-29T10:15:10Z</time>
<desc>lat.=21.028975, lon.=105.776817, Alt.=9.256721m. Speed=0.036000m/h.</desc>
<speed>0.010000</speed>
</trkpt>
<trkpt lat="21.028975" lon="105.776817">
<ele>9.263802</ele>
<time>2011-04-29T10:15:15Z</time>
<desc>lat.=21.028975, lon.=105.776817, Alt.=9.263802m. Speed=0.000000m/h.</desc>
<speed>0.000000</speed>
</trkpt>
<trkpt lat="21.028975" lon="105.776817">
<ele>9.253059</ele>
<time>2011-04-29T10:15:20Z</time>
<desc>lat.=21.028975, lon.=105.776817, Alt.=9.253059m. Speed=0.000000m/h.</desc>
<speed>0.000000</speed>
</trkpt>
<trkpt lat="21.028975" lon="105.776817">
<ele>9.253548</ele>
<time>2011-04-29T10:15:25Z</time>
<desc>lat.=21.028975, lon.=105.776817, Alt.=9.253548m. Speed=0.000000m/h.</desc>
<speed>0.000000</speed>
</trkpt>
<trkpt lat="21.028975" lon="105.776817">
<ele>9.265511</ele>
<time>2011-04-29T10:15:30Z</time>
<desc>lat.=21.028975, lon.=105.776817, Alt.=9.265511m. Speed=0.036000m/h.</desc>
<speed>0.010000</speed>
</trkpt>
<trkpt lat="21.028975" lon="105.776817">
<ele>9.281868</ele>
<time>2011-04-29T10:15:35Z</time>
<desc>lat.=21.028975, lon.=105.776817, Alt.=9.281868m. Speed=0.000000m/h.</desc>
<speed>0.000000</speed>
</trkpt>
<trkpt lat="21.028975" lon="105.776817">
<ele>9.282845</ele>
<time>2011-04-29T10:15:40Z</time>
<desc>lat.=21.028975, lon.=105.776817, Alt.=9.282845m. Speed=0.000000m/h.</desc>
<speed>0.000000</speed>
</trkpt>
<trkpt lat="21.028975" lon="105.776817">
<ele>9.294807</ele>
<time>2011-04-29T10:15:45Z</time>
<desc>lat.=21.028975, lon.=105.776817, Alt.=9.294807m. Speed=0.036000m/h.</desc>
<speed>0.010000</speed>
</trkpt>
<trkpt lat="21.028975" lon="105.776817">
<ele>9.305794</ele>
<time>2011-04-29T10:15:50Z</time>
<desc>lat.=21.028975, lon.=105.776817, Alt.=9.305794m. Speed=0.036000m/h.</desc>
<speed>0.010000</speed>
</trkpt>
<trkpt lat="21.028980" lon="105.776825">
<ele>9.366096</ele>
<time>2011-04-29T10:15:55Z</time>
<desc>lat.=21.028980, lon.=105.776825, Alt.=9.366096m. Speed=1.260000m/h.</desc>
<speed>0.350000</speed>
</trkpt>
<trkpt lat="21.028978" lon="105.776825">
<ele>9.016487</ele>
<time>2011-04-29T10:16:00Z</time>
<desc>lat.=21.028978, lon.=105.776825, Alt.=9.016487m. Speed=0.144000m/h.</desc>
<speed>0.040000</speed>
</trkpt>
<trkpt lat="21.028978" lon="105.776825">
<ele>8.913216</ele>
<time>2011-04-29T10:16:05Z</time>
<desc>lat.=21.028978, lon.=105.776825, Alt.=8.913216m. Speed=0.288000m/h.</desc>
<speed>0.080000</speed>
</trkpt>
<trkpt lat="21.028978" lon="105.776825">
<ele>8.867805</ele>
<time>2011-04-29T10:16:10Z</time>
<desc>lat.=21.028978, lon.=105.776825, Alt.=8.867805m. Speed=0.432000m/h.</desc>
<speed>0.120000</speed>
</trkpt>
<trkpt lat="21.028976" lon="105.776825">
<ele>8.831917</ele>
<time>2011-04-29T10:16:15Z</time>
<desc>lat.=21.028976, lon.=105.776825, Alt.=8.831917m. Speed=0.144000m/h.</desc>
<speed>0.040000</speed>
</trkpt>
<trkpt lat="21.028980" lon="105.776825">
<ele>8.915169</ele>
<time>2011-04-29T10:16:20Z</time>
<desc>lat.=21.028980, lon.=105.776825, Alt.=8.915169m. Speed=0.432000m/h.</desc>
<speed>0.120000</speed>
</trkpt>
<trkpt lat="21.028978" lon="105.776825">
<ele>9.017464</ele>
<time>2011-04-29T10:16:25Z</time>
<desc>lat.=21.028978, lon.=105.776825, Alt.=9.017464m. Speed=0.108000m/h.</desc>
<speed>0.030000</speed>
</trkpt>
<trkpt lat="21.028980" lon="105.776825">
<ele>9.100227</ele>
<time>2011-04-29T10:16:30Z</time>
<desc>lat.=21.028980, lon.=105.776825, Alt.=9.100227m. Speed=0.036000m/h.</desc>
<speed>0.010000</speed>
</trkpt>
<trkpt lat="21.028980" lon="105.776825">
<ele>9.122200</ele>
<time>2011-04-29T10:16:35Z</time>
<desc>lat.=21.028980, lon.=105.776825, Alt.=9.122200m. Speed=0.036000m/h.</desc>
<speed>0.010000</speed>
</trkpt>
<trkpt lat="21.028980" lon="105.776825">
<ele>9.133186</ele>
<time>2011-04-29T10:16:40Z</time>
<desc>lat.=21.028980, lon.=105.776825, Alt.=9.133186m. Speed=0.072000m/h.</desc>
<speed>0.020000</speed>
</trkpt>
<trkpt lat="21.028980" lon="105.776825">
<ele>9.163460</ele>
<time>2011-04-29T10:16:45Z</time>
<desc>lat.=21.028980, lon.=105.776825, Alt.=9.163460m. Speed=0.000000m/h.</desc>
<speed>0.000000</speed>
</trkpt>
<trkpt lat="21.028980" lon="105.776825">
<ele>9.178596</ele>
<time>2011-04-29T10:16:50Z</time>
<desc>lat.=21.028980, lon.=105.776825, Alt.=9.178596m. Speed=0.216000m/h.</desc>
<speed>0.060000</speed>
</trkpt>
<trkpt lat="21.028980" lon="105.776825">
<ele>9.174934</ele>
<time>2011-04-29T10:16:55Z</time>
<desc>lat.=21.028980, lon.=105.776825, Alt.=9.174934m. Speed=0.000000m/h.</desc>
<speed>0.000000</speed>
</trkpt>
<trkpt lat="21.028980" lon="105.776825">
<ele>9.178108</ele>
<time>2011-04-29T10:17:00Z</time>
<desc>lat.=21.028980, lon.=105.776825, Alt.=9.178108m. Speed=0.432000m/h.</desc>
<speed>0.120000</speed>
</trkpt>
<trkpt lat="21.028976" lon="105.776817">
<ele>9.654671</ele>
<time>2011-04-29T10:17:05Z</time>
<desc>lat.=21.028976, lon.=105.776817, Alt.=9.654671m. Speed=0.360000m/h.</desc>
<speed>0.100000</speed>
</trkpt>
<trkpt lat="21.028973" lon="105.776810">
<ele>9.719124</ele>
<time>2011-04-29T10:17:10Z</time>
<desc>lat.=21.028973, lon.=105.776810, Alt.=9.719124m. Speed=0.252000m/h.</desc>
<speed>0.070000</speed>
</trkpt>
<trkpt lat="21.028967" lon="105.776810">
<ele>9.427376</ele>
<time>2011-04-29T10:17:15Z</time>
<desc>lat.=21.028967, lon.=105.776810, Alt.=9.427376m. Speed=0.432000m/h.</desc>
<speed>0.120000</speed>
</trkpt>
<trkpt lat="21.028963" lon="105.776810">
<ele>9.071419</ele>
<time>2011-04-29T10:17:20Z</time>
<desc>lat.=21.028963, lon.=105.776810, Alt.=9.071419m. Speed=0.072000m/h.</desc>
<speed>0.020000</speed>
</trkpt>
<trkpt lat="21.028963" lon="105.776810">
<ele>8.924202</ele>
<time>2011-04-29T10:17:25Z</time>
<desc>lat.=21.028963, lon.=105.776810, Alt.=8.924202m. Speed=0.000000m/h.</desc>
<speed>0.000000</speed>
</trkpt>
<trkpt lat="21.028963" lon="105.776810">
<ele>8.895149</ele>
<time>2011-04-29T10:17:30Z</time>
<desc>lat.=21.028963, lon.=105.776810, Alt.=8.895149m. Speed=0.072000m/h.</desc>
<speed>0.020000</speed>
</trkpt>
<trkpt lat="21.028963" lon="105.776810">
<ele>8.888069</ele>
<time>2011-04-29T10:17:35Z</time>
<desc>lat.=21.028963, lon.=105.776810, Alt.=8.888069m. Speed=0.396000m/h.</desc>
<speed>0.110000</speed>
</trkpt>
<trkpt lat="21.028963" lon="105.776810">
<ele>8.875374</ele>
<time>2011-04-29T10:17:40Z</time>
<desc>lat.=21.028963, lon.=105.776810, Alt.=8.875374m. Speed=0.036000m/h.</desc>
<speed>0.010000</speed>
</trkpt>
<trkpt lat="21.028963" lon="105.776810">
<ele>8.846077</ele>
<time>2011-04-29T10:17:45Z</time>
<desc>lat.=21.028963, lon.=105.776810, Alt.=8.846077m. Speed=0.000000m/h.</desc>
<speed>0.000000</speed>
</trkpt>
<trkpt lat="21.028963" lon="105.776810">
<ele>8.829964</ele>
<time>2011-04-29T10:17:50Z</time>
<desc>lat.=21.028963, lon.=105.776810, Alt.=8.829964m. Speed=0.000000m/h.</desc>
<speed>0.000000</speed>
</trkpt>
<trkpt lat="21.028963" lon="105.776810">
<ele>8.805550</ele>
<time>2011-04-29T10:17:55Z</time>
<desc>lat.=21.028963, lon.=105.776810, Alt.=8.805550m. Speed=0.000000m/h.</desc>
<speed>0.000000</speed>
</trkpt>
<trkpt lat="21.028963" lon="105.776810">
<ele>8.785774</ele>
<time>2011-04-29T10:18:00Z</time>
<desc>lat.=21.028963, lon.=105.776810, Alt.=8.785774m. Speed=0.036000m/h.</desc>
<speed>0.010000</speed>
</trkpt>
<trkpt lat="21.028963" lon="105.776810">
<ele>8.778694</ele>
<time>2011-04-29T10:18:05Z</time>
<desc>lat.=21.028963, lon.=105.776810, Alt.=8.778694m. Speed=0.036000m/h.</desc>
<speed>0.010000</speed>
</trkpt>
<trkpt lat="21.028961" lon="105.776810">
<ele>8.785774</ele>
<time>2011-04-29T10:18:10Z</time>
<desc>lat.=21.028961, lon.=105.776810, Alt.=8.785774m. Speed=0.000000m/h.</desc>
<speed>0.000000</speed>
</trkpt>
<trkpt lat="21.028961" lon="105.776810">
<ele>8.803108</ele>
<time>2011-04-29T10:18:15Z</time>
<desc>lat.=21.028961, lon.=105.776810, Alt.=8.803108m. Speed=0.000000m/h.</desc>
<speed>0.000000</speed>
</trkpt>
<trkpt lat="21.028961" lon="105.776810">
<ele>8.813850</ele>
<time>2011-04-29T10:18:20Z</time>
<desc>lat.=21.028961, lon.=105.776810, Alt.=8.813850m. Speed=0.036000m/h.</desc>
<speed>0.010000</speed>
</trkpt>
<trkpt lat="21.028963" lon="105.776810">
<ele>8.809700</ele>
<time>2011-04-29T10:18:25Z</time>
<desc>lat.=21.028963, lon.=105.776810, Alt.=8.809700m. Speed=0.036000m/h.</desc>
<speed>0.010000</speed>
</trkpt>
<trkpt lat="21.028963" lon="105.776810">
<ele>8.811653</ele>
<time>2011-04-29T10:18:30Z</time>
<desc>lat.=21.028963, lon.=105.776810, Alt.=8.811653m. Speed=0.036000m/h.</desc>
<speed>0.010000</speed>
</trkpt>
<trkpt lat="21.028963" lon="105.776810">
<ele>8.818245</ele>
<time>2011-04-29T10:18:35Z</time>
<desc>lat.=21.028963, lon.=105.776810, Alt.=8.818245m. Speed=0.036000m/h.</desc>
<speed>0.010000</speed>
</trkpt>
<trkpt lat="21.028963" lon="105.776810">
<ele>8.812630</ele>
<time>2011-04-29T10:18:40Z</time>
<desc>lat.=21.028963, lon.=105.776810, Alt.=8.812630m. Speed=0.000000m/h.</desc>
<speed>0.000000</speed>
</trkpt>
<trkpt lat="21.028963" lon="105.776810">
<ele>8.799446</ele>
<time>2011-04-29T10:18:45Z</time>
<desc>lat.=21.028963, lon.=105.776810, Alt.=8.799446m. Speed=0.000000m/h.</desc>
<speed>0.000000</speed>
</trkpt>
<trkpt lat="21.028963" lon="105.776810">
<ele>8.793587</ele>
<time>2011-04-29T10:18:50Z</time>
<desc>lat.=21.028963, lon.=105.776810, Alt.=8.793587m. Speed=0.000000m/h.</desc>
<speed>0.000000</speed>
</trkpt>
<trkpt lat="21.028961" lon="105.776810">
<ele>8.792122</ele>
<time>2011-04-29T10:18:55Z</time>
<desc>lat.=21.028961, lon.=105.776810, Alt.=8.792122m. Speed=0.000000m/h.</desc>
<speed>0.000000</speed>
</trkpt>
<trkpt lat="21.028961" lon="105.776810">
<ele>8.787727</ele>
<time>2011-04-29T10:19:00Z</time>
<desc>lat.=21.028961, lon.=105.776810, Alt.=8.787727m. Speed=0.000000m/h.</desc>
<speed>0.000000</speed>
</trkpt>
<trkpt lat="21.028961" lon="105.776810">
<ele>8.492317</ele>
<time>2011-04-29T10:19:05Z</time>
<desc>lat.=21.028961, lon.=105.776810, Alt.=8.492317m. Speed=0.036000m/h.</desc>
<speed>0.010000</speed>
</trkpt>
<trkpt lat="21.028959" lon="105.776810">
<ele>7.817936</ele>
<time>2011-04-29T10:19:10Z</time>
<desc>lat.=21.028959, lon.=105.776810, Alt.=7.817936m. Speed=0.072000m/h.</desc>
<speed>0.020000</speed>
</trkpt>
<trkpt lat="21.028959" lon="105.776802">
<ele>7.802799</ele>
<time>2011-04-29T10:19:15Z</time>
<desc>lat.=21.028959, lon.=105.776802, Alt.=7.802799m. Speed=0.036000m/h.</desc>
<speed>0.010000</speed>
</trkpt>
<trkpt lat="21.028955" lon="105.776802">
<ele>7.621647</ele>
<time>2011-04-29T10:19:20Z</time>
<desc>lat.=21.028955, lon.=105.776802, Alt.=7.621647m. Speed=0.036000m/h.</desc>
<speed>0.010000</speed>
</trkpt>
<trkpt lat="21.028954" lon="105.776810">
<ele>6.791203</ele>
<time>2011-04-29T10:19:25Z</time>
<desc>lat.=21.028954, lon.=105.776810, Alt.=6.791203m. Speed=0.036000m/h.</desc>
<speed>0.010000</speed>
</trkpt>
<trkpt lat="21.028954" lon="105.776817">
<ele>6.282658</ele>
<time>2011-04-29T10:19:30Z</time>
<desc>lat.=21.028954, lon.=105.776817, Alt.=6.282658m. Speed=0.000000m/h.</desc>
<speed>0.000000</speed>
</trkpt>
<trkpt lat="21.028950" lon="105.776817">
<ele>6.031193</ele>
<time>2011-04-29T10:19:35Z</time>
<desc>lat.=21.028950, lon.=105.776817, Alt.=6.031193m. Speed=0.036000m/h.</desc>
<speed>0.010000</speed>
</trkpt>
<trkpt lat="21.028944" lon="105.776833">
<ele>6.269718</ele>
<time>2011-04-29T10:19:40Z</time>
<desc>lat.=21.028944, lon.=105.776833, Alt.=6.269718m. Speed=0.000000m/h.</desc>
<speed>0.000000</speed>
</trkpt>
<trkpt lat="21.028940" lon="105.776833">
<ele>5.857731</ele>
<time>2011-04-29T10:19:45Z</time>
<desc>lat.=21.028940, lon.=105.776833, Alt.=5.857731m. Speed=0.000000m/h.</desc>
<speed>0.000000</speed>
</trkpt>
<trkpt lat="21.028938" lon="105.776825">
<ele>5.842106</ele>
<time>2011-04-29T10:19:50Z</time>
<desc>lat.=21.028938, lon.=105.776825, Alt.=5.842106m. Speed=0.000000m/h.</desc>
<speed>0.000000</speed>
</trkpt>
<trkpt lat="21.028938" lon="105.776825">
<ele>5.844425</ele>
<time>2011-04-29T10:19:55Z</time>
<desc>lat.=21.028938, lon.=105.776825, Alt.=5.844425m. Speed=0.000000m/h.</desc>
<speed>0.000000</speed>
</trkpt>
<trkpt lat="21.028938" lon="105.776825">
<ele>5.846134</ele>
<time>2011-04-29T10:20:00Z</time>
<desc>lat.=21.028938, lon.=105.776825, Alt.=5.846134m. Speed=0.000000m/h.</desc>
<speed>0.000000</speed>
</trkpt>
<trkpt lat="21.028938" lon="105.776833">
<ele>5.856388</ele>
<time>2011-04-29T10:20:05Z</time>
<desc>lat.=21.028938, lon.=105.776833, Alt.=5.856388m. Speed=0.000000m/h.</desc>
<speed>0.000000</speed>
</trkpt>
<trkpt lat="21.028938" lon="105.776833">
<ele>5.861637</ele>
<time>2011-04-29T10:20:10Z</time>
<desc>lat.=21.028938, lon.=105.776833, Alt.=5.861637m. Speed=0.072000m/h.</desc>
<speed>0.020000</speed>
</trkpt>
<trkpt lat="21.028938" lon="105.776833">
<ele>5.857731</ele>
<time>2011-04-29T10:20:15Z</time>
<desc>lat.=21.028938, lon.=105.776833, Alt.=5.857731m. Speed=0.072000m/h.</desc>
<speed>0.020000</speed>
</trkpt>
<trkpt lat="21.028938" lon="105.776833">
<ele>5.857365</ele>
<time>2011-04-29T10:20:20Z</time>
<desc>lat.=21.028938, lon.=105.776833, Alt.=5.857365m. Speed=0.036000m/h.</desc>
<speed>0.010000</speed>
</trkpt>
<trkpt lat="21.028938" lon="105.776833">
<ele>5.859562</ele>
<time>2011-04-29T10:20:25Z</time>
<desc>lat.=21.028938, lon.=105.776833, Alt.=5.859562m. Speed=0.036000m/h.</desc>
<speed>0.010000</speed>
</trkpt>
<trkpt lat="21.028938" lon="105.776825">
<ele>5.838322</ele>
<time>2011-04-29T10:20:30Z</time>
<desc>lat.=21.028938, lon.=105.776825, Alt.=5.838322m. Speed=0.072000m/h.</desc>
<speed>0.020000</speed>
</trkpt>
<trkpt lat="21.028938" lon="105.776833">
<ele>5.858585</ele>
<time>2011-04-29T10:20:35Z</time>
<desc>lat.=21.028938, lon.=105.776833, Alt.=5.858585m. Speed=0.072000m/h.</desc>
<speed>0.020000</speed>
</trkpt>
<trkpt lat="21.028938" lon="105.776833">
<ele>5.874943</ele>
<time>2011-04-29T10:20:40Z</time>
<desc>lat.=21.028938, lon.=105.776833, Alt.=5.874943m. Speed=0.036000m/h.</desc>
<speed>0.010000</speed>
</trkpt>
<trkpt lat="21.028938" lon="105.776833">
<ele>5.885807</ele>
<time>2011-04-29T10:20:45Z</time>
<desc>lat.=21.028938, lon.=105.776833, Alt.=5.885807m. Speed=0.036000m/h.</desc>
<speed>0.010000</speed>
</trkpt>
<trkpt lat="21.028938" lon="105.776833">
<ele>5.883976</ele>
<time>2011-04-29T10:20:50Z</time>
<desc>lat.=21.028938, lon.=105.776833, Alt.=5.883976m. Speed=0.000000m/h.</desc>
<speed>0.000000</speed>
</trkpt>
<trkpt lat="21.028938" lon="105.776833">
<ele>5.866642</ele>
<time>2011-04-29T10:20:55Z</time>
<desc>lat.=21.028938, lon.=105.776833, Alt.=5.866642m. Speed=0.072000m/h.</desc>
<speed>0.020000</speed>
</trkpt>
<trkpt lat="21.028938" lon="105.776833">
<ele>5.855534</ele>
<time>2011-04-29T10:21:00Z</time>
<desc>lat.=21.028938, lon.=105.776833, Alt.=5.855534m. Speed=0.036000m/h.</desc>
<speed>0.010000</speed>
</trkpt>
<trkpt lat="21.028938" lon="105.776833">
<ele>5.832340</ele>
<time>2011-04-29T10:21:05Z</time>
<desc>lat.=21.028938, lon.=105.776833, Alt.=5.832340m. Speed=0.036000m/h.</desc>
<speed>0.010000</speed>
</trkpt>
<trkpt lat="21.028938" lon="105.776833">
<ele>5.823673</ele>
<time>2011-04-29T10:21:10Z</time>
<desc>lat.=21.028938, lon.=105.776833, Alt.=5.823673m. Speed=0.036000m/h.</desc>
<speed>0.010000</speed>
</trkpt>
<trkpt lat="21.028938" lon="105.776833">
<ele>5.792912</ele>
<time>2011-04-29T10:21:15Z</time>
<desc>lat.=21.028938, lon.=105.776833, Alt.=5.792912m. Speed=0.036000m/h.</desc>
<speed>0.010000</speed>
</trkpt>
<trkpt lat="21.028938" lon="105.776833">
<ele>5.770329</ele>
<time>2011-04-29T10:21:20Z</time>
<desc>lat.=21.028938, lon.=105.776833, Alt.=5.770329m. Speed=0.072000m/h.</desc>
<speed>0.020000</speed>
</trkpt>
<trkpt lat="21.028938" lon="105.776833">
<ele>5.755192</ele>
<time>2011-04-29T10:21:25Z</time>
<desc>lat.=21.028938, lon.=105.776833, Alt.=5.755192m. Speed=0.000000m/h.</desc>
<speed>0.000000</speed>
</trkpt>
<trkpt lat="21.028938" lon="105.776833">
<ele>5.717838</ele>
<time>2011-04-29T10:21:30Z</time>
<desc>lat.=21.028938, lon.=105.776833, Alt.=5.717838m. Speed=0.000000m/h.</desc>
<speed>0.000000</speed>
</trkpt>
<trkpt lat="21.028938" lon="105.776833">
<ele>5.704044</ele>
<time>2011-04-29T10:21:35Z</time>
<desc>lat.=21.028938, lon.=105.776833, Alt.=5.704044m. Speed=0.000000m/h.</desc>
<speed>0.000000</speed>
</trkpt>
<trkpt lat="21.028938" lon="105.776833">
<ele>5.676701</ele>
<time>2011-04-29T10:21:40Z</time>
<desc>lat.=21.028938, lon.=105.776833, Alt.=5.676701m. Speed=0.036000m/h.</desc>
<speed>0.010000</speed>
</trkpt>
<trkpt lat="21.028938" lon="105.776825">
<ele>5.663395</ele>
<time>2011-04-29T10:21:45Z</time>
<desc>lat.=21.028938, lon.=105.776825, Alt.=5.663395m. Speed=0.036000m/h.</desc>
<speed>0.010000</speed>
</trkpt>
<trkpt lat="21.028938" lon="105.776825">
<ele>5.665348</ele>
<time>2011-04-29T10:21:50Z</time>
<desc>lat.=21.028938, lon.=105.776825, Alt.=5.665348m. Speed=0.000000m/h.</desc>
<speed>0.000000</speed>
</trkpt>
<trkpt lat="21.028938" lon="105.776825">
<ele>5.631046</ele>
<time>2011-04-29T10:21:55Z</time>
<desc>lat.=21.028938, lon.=105.776825, Alt.=5.631046m. Speed=0.000000m/h.</desc>
<speed>0.000000</speed>
</trkpt>
<trkpt lat="21.028938" lon="105.776825">
<ele>5.642033</ele>
<time>2011-04-29T10:22:00Z</time>
<desc>lat.=21.028938, lon.=105.776825, Alt.=5.642033m. Speed=0.000000m/h.</desc>
<speed>0.000000</speed>
</trkpt>
<trkpt lat="21.028938" lon="105.776825">
<ele>5.655460</ele>
<time>2011-04-29T10:22:05Z</time>
<desc>lat.=21.028938, lon.=105.776825, Alt.=5.655460m. Speed=0.072000m/h.</desc>
<speed>0.020000</speed>
</trkpt>
<trkpt lat="21.028940" lon="105.776825">
<ele>5.663517</ele>
<time>2011-04-29T10:22:10Z</time>
<desc>lat.=21.028940, lon.=105.776825, Alt.=5.663517m. Speed=0.072000m/h.</desc>
<speed>0.020000</speed>
</trkpt>
<trkpt lat="21.028940" lon="105.776825">
<ele>5.621159</ele>
<time>2011-04-29T10:22:15Z</time>
<desc>lat.=21.028940, lon.=105.776825, Alt.=5.621159m. Speed=0.000000m/h.</desc>
<speed>0.000000</speed>
</trkpt>
<trkpt lat="21.028940" lon="105.776825">
<ele>5.582340</ele>
<time>2011-04-29T10:22:20Z</time>
<desc>lat.=21.028940, lon.=105.776825, Alt.=5.582340m. Speed=0.000000m/h.</desc>
<speed>0.000000</speed>
</trkpt>
<trkpt lat="21.028940" lon="105.776825">
<ele>5.586613</ele>
<time>2011-04-29T10:22:25Z</time>
<desc>lat.=21.028940, lon.=105.776825, Alt.=5.586613m. Speed=0.072000m/h.</desc>
<speed>0.020000</speed>
</trkpt>
<trkpt lat="21.028940" lon="105.776825">
<ele>5.570744</ele>
<time>2011-04-29T10:22:30Z</time>
<desc>lat.=21.028940, lon.=105.776825, Alt.=5.570744m. Speed=0.000000m/h.</desc>
<speed>0.000000</speed>
</trkpt>
<trkpt lat="21.028940" lon="105.776825">
<ele>5.565983</ele>
<time>2011-04-29T10:22:35Z</time>
<desc>lat.=21.028940, lon.=105.776825, Alt.=5.565983m. Speed=0.072000m/h.</desc>
<speed>0.020000</speed>
</trkpt>
<trkpt lat="21.028940" lon="105.776825">
<ele>5.543400</ele>
<time>2011-04-29T10:22:40Z</time>
<desc>lat.=21.028940, lon.=105.776825, Alt.=5.543400m. Speed=0.036000m/h.</desc>
<speed>0.010000</speed>
</trkpt>
<trkpt lat="21.028940" lon="105.776825">
<ele>5.518742</ele>
<time>2011-04-29T10:22:45Z</time>
<desc>lat.=21.028940, lon.=105.776825, Alt.=5.518742m. Speed=0.000000m/h.</desc>
<speed>0.000000</speed>
</trkpt>
<trkpt lat="21.028940" lon="105.776825">
<ele>5.506413</ele>
<time>2011-04-29T10:22:50Z</time>
<desc>lat.=21.028940, lon.=105.776825, Alt.=5.506413m. Speed=0.072000m/h.</desc>
<speed>0.020000</speed>
</trkpt>
<trkpt lat="21.028942" lon="105.776825">
<ele>5.411930</ele>
<time>2011-04-29T10:22:55Z</time>
<desc>lat.=21.028942, lon.=105.776825, Alt.=5.411930m. Speed=0.252000m/h.</desc>
<speed>0.070000</speed>
</trkpt>
<trkpt lat="21.028944" lon="105.776825">
<ele>5.384098</ele>
<time>2011-04-29T10:23:00Z</time>
<desc>lat.=21.028944, lon.=105.776825, Alt.=5.384098m. Speed=0.180000m/h.</desc>
<speed>0.050000</speed>
</trkpt>
<trkpt lat="21.028944" lon="105.776825">
<ele>5.366154</ele>
<time>2011-04-29T10:23:05Z</time>
<desc>lat.=21.028944, lon.=105.776825, Alt.=5.366154m. Speed=0.252000m/h.</desc>
<speed>0.070000</speed>
</trkpt>
<trkpt lat="21.028946" lon="105.776825">
<ele>5.341740</ele>
<time>2011-04-29T10:23:10Z</time>
<desc>lat.=21.028946, lon.=105.776825, Alt.=5.341740m. Speed=0.036000m/h.</desc>
<speed>0.010000</speed>
</trkpt>
<trkpt lat="21.028948" lon="105.776825">
<ele>5.303532</ele>
<time>2011-04-29T10:23:15Z</time>
<desc>lat.=21.028948, lon.=105.776825, Alt.=5.303532m. Speed=0.144000m/h.</desc>
<speed>0.040000</speed>
</trkpt>
<trkpt lat="21.028950" lon="105.776817">
<ele>5.507511</ele>
<time>2011-04-29T10:23:20Z</time>
<desc>lat.=21.028950, lon.=105.776817, Alt.=5.507511m. Speed=0.900000m/h.</desc>
<speed>0.250000</speed>
</trkpt>
<trkpt lat="21.028948" lon="105.776817">
<ele>6.008732</ele>
<time>2011-04-29T10:23:25Z</time>
<desc>lat.=21.028948, lon.=105.776817, Alt.=6.008732m. Speed=0.072000m/h.</desc>
<speed>0.020000</speed>
</trkpt>
<trkpt lat="21.028948" lon="105.776817">
<ele>5.982365</ele>
<time>2011-04-29T10:23:30Z</time>
<desc>lat.=21.028948, lon.=105.776817, Alt.=5.982365m. Speed=0.000000m/h.</desc>
<speed>0.000000</speed>
</trkpt>
<trkpt lat="21.028948" lon="105.776817">
<ele>6.006413</ele>
<time>2011-04-29T10:23:35Z</time>
<desc>lat.=21.028948, lon.=105.776817, Alt.=6.006413m. Speed=0.072000m/h.</desc>
<speed>0.020000</speed>
</trkpt>
<trkpt lat="21.028986" lon="105.776855">
<ele>5.157291</ele>
<time>2011-04-29T10:23:40Z</time>
<desc>lat.=21.028986, lon.=105.776855, Alt.=5.157291m. Speed=7.020000m/h.</desc>
<speed>1.950000</speed>
</trkpt>
<trkpt lat="21.029070" lon="105.776924">
<ele>4.078922</ele>
<time>2011-04-29T10:23:45Z</time>
<desc>lat.=21.029070, lon.=105.776924, Alt.=4.078922m. Speed=7.704000m/h.</desc>
<speed>2.140000</speed>
</trkpt>
<trkpt lat="21.029114" lon="105.776894">
<ele>4.136539</ele>
<time>2011-04-29T10:23:50Z</time>
<desc>lat.=21.029114, lon.=105.776894, Alt.=4.136539m. Speed=4.140000m/h.</desc>
<speed>1.150000</speed>
</trkpt>
<trkpt lat="21.029131" lon="105.776878">
<ele>3.422945</ele>
<time>2011-04-29T10:23:55Z</time>
<desc>lat.=21.029131, lon.=105.776878, Alt.=3.422945m. Speed=0.180000m/h.</desc>
<speed>0.050000</speed>
</trkpt>
<trkpt lat="21.029127" lon="105.776886">
<ele>3.489412</ele>
<time>2011-04-29T10:24:00Z</time>
<desc>lat.=21.029127, lon.=105.776886, Alt.=3.489412m. Speed=0.144000m/h.</desc>
<speed>0.040000</speed>
</trkpt>
<trkpt lat="21.029139" lon="105.776886">
<ele>3.887178</ele>
<time>2011-04-29T10:24:05Z</time>
<desc>lat.=21.029139, lon.=105.776886, Alt.=3.887178m. Speed=2.160000m/h.</desc>
<speed>0.600000</speed>
</trkpt>
<trkpt lat="21.029150" lon="105.776878">
<ele>4.082096</ele>
<time>2011-04-29T10:24:10Z</time>
<desc>lat.=21.029150, lon.=105.776878, Alt.=4.082096m. Speed=0.144000m/h.</desc>
<speed>0.040000</speed>
</trkpt>
<trkpt lat="21.029154" lon="105.776871">
<ele>4.344181</ele>
<time>2011-04-29T10:24:15Z</time>
<desc>lat.=21.029154, lon.=105.776871, Alt.=4.344181m. Speed=1.548000m/h.</desc>
<speed>0.430000</speed>
</trkpt>
<trkpt lat="21.029169" lon="105.776871">
<ele>5.073795</ele>
<time>2011-04-29T10:24:20Z</time>
<desc>lat.=21.029169, lon.=105.776871, Alt.=5.073795m. Speed=3.024000m/h.</desc>
<speed>0.840000</speed>
</trkpt>
<trkpt lat="21.029173" lon="105.776855">
<ele>4.229801</ele>
<time>2011-04-29T10:24:25Z</time>
<desc>lat.=21.029173, lon.=105.776855, Alt.=4.229801m. Speed=1.440000m/h.</desc>
<speed>0.400000</speed>
</trkpt>
<trkpt lat="21.029169" lon="105.776855">
<ele>3.910860</ele>
<time>2011-04-29T10:24:30Z</time>
<desc>lat.=21.029169, lon.=105.776855, Alt.=3.910860m. Speed=0.108000m/h.</desc>
<speed>0.030000</speed>
</trkpt>
<trkpt lat="21.029198" lon="105.776855">
<ele>3.192965</ele>
<time>2011-04-29T10:24:35Z</time>
<desc>lat.=21.029198, lon.=105.776855, Alt.=3.192965m. Speed=5.868000m/h.</desc>
<speed>1.630000</speed>
</trkpt>
<trkpt lat="21.029173" lon="105.777008">
<ele>2.845797</ele>
<time>2011-04-29T10:24:40Z</time>
<desc>lat.=21.029173, lon.=105.777008, Alt.=2.845797m. Speed=11.952000m/h.</desc>
<speed>3.320000</speed>
</trkpt>
<trkpt lat="21.029154" lon="105.777168">
<ele>3.334261</ele>
<time>2011-04-29T10:24:45Z</time>
<desc>lat.=21.029154, lon.=105.777168, Alt.=3.334261m. Speed=11.196000m/h.</desc>
<speed>3.110000</speed>
</trkpt>
<trkpt lat="21.029139" lon="105.777290">
<ele>4.314640</ele>
<time>2011-04-29T10:24:50Z</time>
<desc>lat.=21.029139, lon.=105.777290, Alt.=4.314640m. Speed=10.764000m/h.</desc>
<speed>2.990000</speed>
</trkpt>
<trkpt lat="21.029125" lon="105.777420">
<ele>5.634830</ele>
<time>2011-04-29T10:24:55Z</time>
<desc>lat.=21.029125, lon.=105.777420, Alt.=5.634830m. Speed=9.432000m/h.</desc>
<speed>2.620000</speed>
</trkpt>
<trkpt lat="21.029108" lon="105.777458">
<ele>6.633732</ele>
<time>2011-04-29T10:25:00Z</time>
<desc>lat.=21.029108, lon.=105.777458, Alt.=6.633732m. Speed=1.224000m/h.</desc>
<speed>0.340000</speed>
</trkpt>
<trkpt lat="21.029100" lon="105.777466">
<ele>6.850163</ele>
<time>2011-04-29T10:25:05Z</time>
<desc>lat.=21.029100, lon.=105.777466, Alt.=6.850163m. Speed=0.072000m/h.</desc>
<speed>0.020000</speed>
</trkpt>
<trkpt lat="21.029100" lon="105.777466">
<ele>6.836735</ele>
<time>2011-04-29T10:25:10Z</time>
<desc>lat.=21.029100, lon.=105.777466, Alt.=6.836735m. Speed=0.108000m/h.</desc>
<speed>0.030000</speed>
</trkpt>
<trkpt lat="21.029100" lon="105.777466">
<ele>6.807194</ele>
<time>2011-04-29T10:25:15Z</time>
<desc>lat.=21.029100, lon.=105.777466, Alt.=6.807194m. Speed=0.000000m/h.</desc>
<speed>0.000000</speed>
</trkpt>
<trkpt lat="21.029100" lon="105.777466">
<ele>6.796574</ele>
<time>2011-04-29T10:25:20Z</time>
<desc>lat.=21.029100, lon.=105.777466, Alt.=6.796574m. Speed=0.432000m/h.</desc>
<speed>0.120000</speed>
</trkpt>
<trkpt lat="21.029100" lon="105.777466">
<ele>6.783878</ele>
<time>2011-04-29T10:25:25Z</time>
<desc>lat.=21.029100, lon.=105.777466, Alt.=6.783878m. Speed=0.072000m/h.</desc>
<speed>0.020000</speed>
</trkpt>
<trkpt lat="21.029100" lon="105.777466">
<ele>6.781681</ele>
<time>2011-04-29T10:25:30Z</time>
<desc>lat.=21.029100, lon.=105.777466, Alt.=6.781681m. Speed=0.036000m/h.</desc>
<speed>0.010000</speed>
</trkpt>
<trkpt lat="21.029100" lon="105.777466">
<ele>6.769352</ele>
<time>2011-04-29T10:25:35Z</time>
<desc>lat.=21.029100, lon.=105.777466, Alt.=6.769352m. Speed=0.000000m/h.</desc>
<speed>0.000000</speed>
</trkpt>
<trkpt lat="21.029102" lon="105.777466">
<ele>6.754948</ele>
<time>2011-04-29T10:25:40Z</time>
<desc>lat.=21.029102, lon.=105.777466, Alt.=6.754948m. Speed=0.000000m/h.</desc>
<speed>0.000000</speed>
</trkpt>
<trkpt lat="21.029102" lon="105.777466">
<ele>6.752628</ele>
<time>2011-04-29T10:25:45Z</time>
<desc>lat.=21.029102, lon.=105.777466, Alt.=6.752628m. Speed=0.036000m/h.</desc>
<speed>0.010000</speed>
</trkpt>
<trkpt lat="21.029102" lon="105.777466">
<ele>6.744938</ele>
<time>2011-04-29T10:25:50Z</time>
<desc>lat.=21.029102, lon.=105.777466, Alt.=6.744938m. Speed=0.360000m/h.</desc>
<speed>0.100000</speed>
</trkpt>
<trkpt lat="21.029102" lon="105.777458">
<ele>6.787296</ele>
<time>2011-04-29T10:25:55Z</time>
<desc>lat.=21.029102, lon.=105.777458, Alt.=6.787296m. Speed=0.000000m/h.</desc>
<speed>0.000000</speed>
</trkpt>
<trkpt lat="21.029102" lon="105.777458">
<ele>6.775944</ele>
<time>2011-04-29T10:26:00Z</time>
<desc>lat.=21.029102, lon.=105.777458, Alt.=6.775944m. Speed=0.000000m/h.</desc>
<speed>0.000000</speed>
</trkpt>
<trkpt lat="21.029102" lon="105.777458">
<ele>6.763126</ele>
<time>2011-04-29T10:26:05Z</time>
<desc>lat.=21.029102, lon.=105.777458, Alt.=6.763126m. Speed=0.072000m/h.</desc>
<speed>0.020000</speed>
</trkpt>
<trkpt lat="21.029102" lon="105.777458">
<ele>6.760075</ele>
<time>2011-04-29T10:26:10Z</time>
<desc>lat.=21.029102, lon.=105.777458, Alt.=6.760075m. Speed=0.000000m/h.</desc>
<speed>0.000000</speed>
</trkpt>
<trkpt lat="21.029102" lon="105.777458">
<ele>6.748600</ele>
<time>2011-04-29T10:26:15Z</time>
<desc>lat.=21.029102, lon.=105.777458, Alt.=6.748600m. Speed=0.036000m/h.</desc>
<speed>0.010000</speed>
</trkpt>
<trkpt lat="21.029102" lon="105.777458">
<ele>6.767399</ele>
<time>2011-04-29T10:26:20Z</time>
<desc>lat.=21.029102, lon.=105.777458, Alt.=6.767399m. Speed=0.216000m/h.</desc>
<speed>0.060000</speed>
</trkpt>
<trkpt lat="21.029102" lon="105.777466">
<ele>6.742619</ele>
<time>2011-04-29T10:26:25Z</time>
<desc>lat.=21.029102, lon.=105.777466, Alt.=6.742619m. Speed=0.612000m/h.</desc>
<speed>0.170000</speed>
</trkpt>
<trkpt lat="21.029106" lon="105.777496">
<ele>6.508610</ele>
<time>2011-04-29T10:26:30Z</time>
<desc>lat.=21.029106, lon.=105.777496, Alt.=6.508610m. Speed=5.652000m/h.</desc>
<speed>1.570000</speed>
</trkpt>
<trkpt lat="21.029099" lon="105.777611">
<ele>6.431339</ele>
<time>2011-04-29T10:26:35Z</time>
<desc>lat.=21.029099, lon.=105.777611, Alt.=6.431339m. Speed=10.800000m/h.</desc>
<speed>3.000000</speed>
</trkpt>
<trkpt lat="21.029083" lon="105.777779">
<ele>6.394352</ele>
<time>2011-04-29T10:26:40Z</time>
<desc>lat.=21.029083, lon.=105.777779, Alt.=6.394352m. Speed=12.024000m/h.</desc>
<speed>3.340000</speed>
</trkpt>
<trkpt lat="21.029055" lon="105.777931">
<ele>6.595646</ele>
<time>2011-04-29T10:26:45Z</time>
<desc>lat.=21.029055, lon.=105.777931, Alt.=6.595646m. Speed=11.808000m/h.</desc>
<speed>3.280000</speed>
</trkpt>
<trkpt lat="21.029034" lon="105.778091">
<ele>6.754459</ele>
<time>2011-04-29T10:26:50Z</time>
<desc>lat.=21.029034, lon.=105.778091, Alt.=6.754459m. Speed=12.996000m/h.</desc>
<speed>3.610000</speed>
</trkpt>
<trkpt lat="21.029013" lon="105.778267">
<ele>6.522160</ele>
<time>2011-04-29T10:26:55Z</time>
<desc>lat.=21.029013, lon.=105.778267, Alt.=6.522160m. Speed=9.972000m/h.</desc>
<speed>2.770000</speed>
</trkpt>
<trkpt lat="21.029005" lon="105.778366">
<ele>5.788151</ele>
<time>2011-04-29T10:27:00Z</time>
<desc>lat.=21.029005, lon.=105.778366, Alt.=5.788151m. Speed=7.956000m/h.</desc>
<speed>2.210000</speed>
</trkpt>
<trkpt lat="21.028994" lon="105.778481">
<ele>4.912663</ele>
<time>2011-04-29T10:27:05Z</time>
<desc>lat.=21.028994, lon.=105.778481, Alt.=4.912663m. Speed=9.648000m/h.</desc>
<speed>2.680000</speed>
</trkpt>
<trkpt lat="21.028973" lon="105.778603">
<ele>4.437321</ele>
<time>2011-04-29T10:27:10Z</time>
<desc>lat.=21.028973, lon.=105.778603, Alt.=4.437321m. Speed=8.136000m/h.</desc>
<speed>2.260000</speed>
</trkpt>
<trkpt lat="21.028948" lon="105.778709">
<ele>4.838444</ele>
<time>2011-04-29T10:27:15Z</time>
<desc>lat.=21.028948, lon.=105.778709, Alt.=4.838444m. Speed=8.640000m/h.</desc>
<speed>2.400000</speed>
</trkpt>
<trkpt lat="21.028936" lon="105.778801">
<ele>5.210758</ele>
<time>2011-04-29T10:27:20Z</time>
<desc>lat.=21.028936, lon.=105.778801, Alt.=5.210758m. Speed=6.408000m/h.</desc>
<speed>1.780000</speed>
</trkpt>
<trkpt lat="21.028921" lon="105.778831">
<ele>5.344303</ele>
<time>2011-04-29T10:27:25Z</time>
<desc>lat.=21.028921, lon.=105.778831, Alt.=5.344303m. Speed=0.072000m/h.</desc>
<speed>0.020000</speed>
</trkpt>
<trkpt lat="21.028900" lon="105.778854">
<ele>5.634342</ele>
<time>2011-04-29T10:27:30Z</time>
<desc>lat.=21.028900, lon.=105.778854, Alt.=5.634342m. Speed=0.504000m/h.</desc>
<speed>0.140000</speed>
</trkpt>
<trkpt lat="21.028900" lon="105.778854">
<ele>5.748966</ele>
<time>2011-04-29T10:27:35Z</time>
<desc>lat.=21.028900, lon.=105.778854, Alt.=5.748966m. Speed=0.144000m/h.</desc>
<speed>0.040000</speed>
</trkpt>
<trkpt lat="21.028900" lon="105.778854">
<ele>5.618473</ele>
<time>2011-04-29T10:27:40Z</time>
<desc>lat.=21.028900, lon.=105.778854, Alt.=5.618473m. Speed=0.000000m/h.</desc>
<speed>0.000000</speed>
</trkpt>
<trkpt lat="21.028900" lon="105.778854">
<ele>5.582340</ele>
<time>2011-04-29T10:27:45Z</time>
<desc>lat.=21.028900, lon.=105.778854, Alt.=5.582340m. Speed=0.000000m/h.</desc>
<speed>0.000000</speed>
</trkpt>
<trkpt lat="21.028898" lon="105.778862">
<ele>5.918888</ele>
<time>2011-04-29T10:27:50Z</time>
<desc>lat.=21.028898, lon.=105.778862, Alt.=5.918888m. Speed=0.036000m/h.</desc>
<speed>0.010000</speed>
</trkpt>
<trkpt lat="21.028898" lon="105.778862">
<ele>5.934513</ele>
<time>2011-04-29T10:27:55Z</time>
<desc>lat.=21.028898, lon.=105.778862, Alt.=5.934513m. Speed=0.288000m/h.</desc>
<speed>0.080000</speed>
</trkpt>
<trkpt lat="21.028898" lon="105.778862">
<ele>5.962345</ele>
<time>2011-04-29T10:28:00Z</time>
<desc>lat.=21.028898, lon.=105.778862, Alt.=5.962345m. Speed=0.000000m/h.</desc>
<speed>0.000000</speed>
</trkpt>
<trkpt lat="21.028898" lon="105.778870">
<ele>6.371647</ele>
<time>2011-04-29T10:28:05Z</time>
<desc>lat.=21.028898, lon.=105.778870, Alt.=6.371647m. Speed=0.072000m/h.</desc>
<speed>0.020000</speed>
</trkpt>
<trkpt lat="21.028898" lon="105.778877">
<ele>6.971500</ele>
<time>2011-04-29T10:28:10Z</time>
<desc>lat.=21.028898, lon.=105.778877, Alt.=6.971500m. Speed=1.728000m/h.</desc>
<speed>0.480000</speed>
</trkpt>
<trkpt lat="21.028934" lon="105.778923">
<ele>6.779484</ele>
<time>2011-04-29T10:28:15Z</time>
<desc>lat.=21.028934, lon.=105.778923, Alt.=6.779484m. Speed=4.896000m/h.</desc>
<speed>1.360000</speed>
</trkpt>
<trkpt lat="21.028976" lon="105.778938">
<ele>6.315861</ele>
<time>2011-04-29T10:28:20Z</time>
<desc>lat.=21.028976, lon.=105.778938, Alt.=6.315861m. Speed=1.188000m/h.</desc>
<speed>0.330000</speed>
</trkpt>
<trkpt lat="21.028980" lon="105.778938">
<ele>6.384342</ele>
<time>2011-04-29T10:28:25Z</time>
<desc>lat.=21.028980, lon.=105.778938, Alt.=6.384342m. Speed=0.036000m/h.</desc>
<speed>0.010000</speed>
</trkpt>
<trkpt lat="21.029007" lon="105.778938">
<ele>6.618107</ele>
<time>2011-04-29T10:28:30Z</time>
<desc>lat.=21.029007, lon.=105.778938, Alt.=6.618107m. Speed=3.780000m/h.</desc>
<speed>1.050000</speed>
</trkpt>
<trkpt lat="21.029083" lon="105.778999">
<ele>6.371647</ele>
<time>2011-04-29T10:28:35Z</time>
<desc>lat.=21.029083, lon.=105.778999, Alt.=6.371647m. Speed=8.136000m/h.</desc>
<speed>2.260000</speed>
</trkpt>
<trkpt lat="21.029146" lon="105.779022">
<ele>5.346378</ele>
<time>2011-04-29T10:28:40Z</time>
<desc>lat.=21.029146, lon.=105.779022, Alt.=5.346378m. Speed=3.384000m/h.</desc>
<speed>0.940000</speed>
</trkpt>
<trkpt lat="21.029222" lon="105.779030">
<ele>5.571842</ele>
<time>2011-04-29T10:28:45Z</time>
<desc>lat.=21.029222, lon.=105.779030, Alt.=5.571842m. Speed=6.516000m/h.</desc>
<speed>1.810000</speed>
</trkpt>
<trkpt lat="21.029299" lon="105.779053">
<ele>5.610416</ele>
<time>2011-04-29T10:28:50Z</time>
<desc>lat.=21.029299, lon.=105.779053, Alt.=5.610416m. Speed=2.844000m/h.</desc>
<speed>0.790000</speed>
</trkpt>
<trkpt lat="21.029314" lon="105.779060">
<ele>5.914249</ele>
<time>2011-04-29T10:28:55Z</time>
<desc>lat.=21.029314, lon.=105.779060, Alt.=5.914249m. Speed=1.980000m/h.</desc>
<speed>0.550000</speed>
</trkpt>
<trkpt lat="21.029354" lon="105.779037">
<ele>5.488956</ele>
<time>2011-04-29T10:29:00Z</time>
<desc>lat.=21.029354, lon.=105.779037, Alt.=5.488956m. Speed=2.772000m/h.</desc>
<speed>0.770000</speed>
</trkpt>
<trkpt lat="21.029423" lon="105.779045">
<ele>5.959782</ele>
<time>2011-04-29T10:29:05Z</time>
<desc>lat.=21.029423, lon.=105.779045, Alt.=5.959782m. Speed=4.608000m/h.</desc>
<speed>1.280000</speed>
</trkpt>
<trkpt lat="21.029459" lon="105.779037">
<ele>7.015324</ele>
<time>2011-04-29T10:29:10Z</time>
<desc>lat.=21.029459, lon.=105.779037, Alt.=7.015324m. Speed=2.952000m/h.</desc>
<speed>0.820000</speed>
</trkpt>
<trkpt lat="21.029476" lon="105.779045">
<ele>8.046028</ele>
<time>2011-04-29T10:29:15Z</time>
<desc>lat.=21.029476, lon.=105.779045, Alt.=8.046028m. Speed=2.484000m/h.</desc>
<speed>0.690000</speed>
</trkpt>
<trkpt lat="21.029537" lon="105.779060">
<ele>7.883854</ele>
<time>2011-04-29T10:29:20Z</time>
<desc>lat.=21.029537, lon.=105.779060, Alt.=7.883854m. Speed=6.084000m/h.</desc>
<speed>1.690000</speed>
</trkpt>
<trkpt lat="21.029604" lon="105.779099">
<ele>6.577946</ele>
<time>2011-04-29T10:29:25Z</time>
<desc>lat.=21.029604, lon.=105.779099, Alt.=6.577946m. Speed=6.156000m/h.</desc>
<speed>1.710000</speed>
</trkpt>
<trkpt lat="21.029673" lon="105.779114">
<ele>5.525700</ele>
<time>2011-04-29T10:29:30Z</time>
<desc>lat.=21.029673, lon.=105.779114, Alt.=5.525700m. Speed=5.796000m/h.</desc>
<speed>1.610000</speed>
</trkpt>
<trkpt lat="21.029749" lon="105.779121">
<ele>4.909245</ele>
<time>2011-04-29T10:29:35Z</time>
<desc>lat.=21.029749, lon.=105.779121, Alt.=4.909245m. Speed=5.760000m/h.</desc>
<speed>1.600000</speed>
</trkpt>
<trkpt lat="21.029819" lon="105.779137">
<ele>3.651155</ele>
<time>2011-04-29T10:29:40Z</time>
<desc>lat.=21.029819, lon.=105.779137, Alt.=3.651155m. Speed=5.544000m/h.</desc>
<speed>1.540000</speed>
</trkpt>
<trkpt lat="21.029905" lon="105.779144">
<ele>2.839205</ele>
<time>2011-04-29T10:29:45Z</time>
<desc>lat.=21.029905, lon.=105.779144, Alt.=2.839205m. Speed=6.048000m/h.</desc>
<speed>1.680000</speed>
</trkpt>
<trkpt lat="21.029993" lon="105.779167">
<ele>1.919114</ele>
<time>2011-04-29T10:29:50Z</time>
<desc>lat.=21.029993, lon.=105.779167, Alt.=1.919114m. Speed=4.752000m/h.</desc>
<speed>1.320000</speed>
</trkpt>
<trkpt lat="21.030058" lon="105.779175">
<ele>2.249239</ele>
<time>2011-04-29T10:29:55Z</time>
<desc>lat.=21.030058, lon.=105.779175, Alt.=2.249239m. Speed=4.788000m/h.</desc>
<speed>1.330000</speed>
</trkpt>
<trkpt lat="21.030138" lon="105.779190">
<ele>1.956590</ele>
<time>2011-04-29T10:30:00Z</time>
<desc>lat.=21.030138, lon.=105.779190, Alt.=1.956590m. Speed=5.040000m/h.</desc>
<speed>1.400000</speed>
</trkpt>
<trkpt lat="21.030222" lon="105.779190">
<ele>1.395219</ele>
<time>2011-04-29T10:30:05Z</time>
<desc>lat.=21.030222, lon.=105.779190, Alt.=1.395219m. Speed=5.472000m/h.</desc>
<speed>1.520000</speed>
</trkpt>
<trkpt lat="21.030289" lon="105.779213">
<ele>1.761521</ele>
<time>2011-04-29T10:30:10Z</time>
<desc>lat.=21.030289, lon.=105.779213, Alt.=1.761521m. Speed=4.464000m/h.</desc>
<speed>1.240000</speed>
</trkpt>
<trkpt lat="21.030361" lon="105.779228">
<ele>1.953111</ele>
<time>2011-04-29T10:30:15Z</time>
<desc>lat.=21.030361, lon.=105.779228, Alt.=1.953111m. Speed=4.716000m/h.</desc>
<speed>1.310000</speed>
</trkpt>
<trkpt lat="21.030481" lon="105.779259">
<ele>2.866671</ele>
<time>2011-04-29T10:30:20Z</time>
<desc>lat.=21.030481, lon.=105.779259, Alt.=2.866671m. Speed=13.572000m/h.</desc>
<speed>3.770000</speed>
</trkpt>
<trkpt lat="21.030638" lon="105.779297">
<ele>3.101107</ele>
<time>2011-04-29T10:30:25Z</time>
<desc>lat.=21.030638, lon.=105.779297, Alt.=3.101107m. Speed=12.024000m/h.</desc>
<speed>3.340000</speed>
</trkpt>
<trkpt lat="21.030745" lon="105.779343">
<ele>3.139132</ele>
<time>2011-04-29T10:30:30Z</time>
<desc>lat.=21.030745, lon.=105.779343, Alt.=3.139132m. Speed=8.244000m/h.</desc>
<speed>2.290000</speed>
</trkpt>
<trkpt lat="21.030884" lon="105.779343">
<ele>3.591890</ele>
<time>2011-04-29T10:30:35Z</time>
<desc>lat.=21.030884, lon.=105.779343, Alt.=3.591890m. Speed=12.276000m/h.</desc>
<speed>3.410000</speed>
</trkpt>
<trkpt lat="21.031015" lon="105.779366">
<ele>3.705233</ele>
<time>2011-04-29T10:30:40Z</time>
<desc>lat.=21.031015, lon.=105.779366, Alt.=3.705233m. Speed=12.024000m/h.</desc>
<speed>3.340000</speed>
</trkpt>
<trkpt lat="21.031118" lon="105.779427">
<ele>3.103975</ele>
<time>2011-04-29T10:30:45Z</time>
<desc>lat.=21.031118, lon.=105.779427, Alt.=3.103975m. Speed=9.720000m/h.</desc>
<speed>2.700000</speed>
</trkpt>
<trkpt lat="21.031202" lon="105.779465">
<ele>3.313875</ele>
<time>2011-04-29T10:30:50Z</time>
<desc>lat.=21.031202, lon.=105.779465, Alt.=3.313875m. Speed=7.668000m/h.</desc>
<speed>2.130000</speed>
</trkpt>
<trkpt lat="21.031321" lon="105.779480">
<ele>3.375460</ele>
<time>2011-04-29T10:30:55Z</time>
<desc>lat.=21.031321, lon.=105.779480, Alt.=3.375460m. Speed=9.072000m/h.</desc>
<speed>2.520000</speed>
</trkpt>
<trkpt lat="21.031414" lon="105.779488">
<ele>2.854158</ele>
<time>2011-04-29T10:31:00Z</time>
<desc>lat.=21.031414, lon.=105.779488, Alt.=2.854158m. Speed=4.788000m/h.</desc>
<speed>1.330000</speed>
</trkpt>
<trkpt lat="21.031475" lon="105.779495">
<ele>2.289705</ele>
<time>2011-04-29T10:31:05Z</time>
<desc>lat.=21.031475, lon.=105.779495, Alt.=2.289705m. Speed=3.852000m/h.</desc>
<speed>1.070000</speed>
</trkpt>
<trkpt lat="21.031548" lon="105.779533">
<ele>3.113070</ele>
<time>2011-04-29T10:31:10Z</time>
<desc>lat.=21.031548, lon.=105.779533, Alt.=3.113070m. Speed=6.804000m/h.</desc>
<speed>1.890000</speed>
</trkpt>
<trkpt lat="21.031652" lon="105.779579">
<ele>4.261173</ele>
<time>2011-04-29T10:31:15Z</time>
<desc>lat.=21.031652, lon.=105.779579, Alt.=4.261173m. Speed=6.984000m/h.</desc>
<speed>1.940000</speed>
</trkpt>
<trkpt lat="21.031782" lon="105.779594">
<ele>5.355289</ele>
<time>2011-04-29T10:31:20Z</time>
<desc>lat.=21.031782, lon.=105.779594, Alt.=5.355289m. Speed=10.620000m/h.</desc>
<speed>2.950000</speed>
</trkpt>
<trkpt lat="21.031958" lon="105.779587">
<ele>5.271549</ele>
<time>2011-04-29T10:31:25Z</time>
<desc>lat.=21.031958, lon.=105.779587, Alt.=5.271549m. Speed=8.928000m/h.</desc>
<speed>2.480000</speed>
</trkpt>
<trkpt lat="21.032122" lon="105.779602">
<ele>5.736393</ele>
<time>2011-04-29T10:31:30Z</time>
<desc>lat.=21.032122, lon.=105.779602, Alt.=5.736393m. Speed=13.824000m/h.</desc>
<speed>3.840000</speed>
</trkpt>
<trkpt lat="21.032257" lon="105.779633">
<ele>5.604191</ele>
<time>2011-04-29T10:31:35Z</time>
<desc>lat.=21.032257, lon.=105.779633, Alt.=5.604191m. Speed=7.380000m/h.</desc>
<speed>2.050000</speed>
</trkpt>
<trkpt lat="21.032347" lon="105.779617">
<ele>5.113956</ele>
<time>2011-04-29T10:31:40Z</time>
<desc>lat.=21.032347, lon.=105.779617, Alt.=5.113956m. Speed=5.328000m/h.</desc>
<speed>1.480000</speed>
</trkpt>
<trkpt lat="21.032454" lon="105.779633">
<ele>3.973116</ele>
<time>2011-04-29T10:31:45Z</time>
<desc>lat.=21.032454, lon.=105.779633, Alt.=3.973116m. Speed=9.612000m/h.</desc>
<speed>2.670000</speed>
</trkpt>
<trkpt lat="21.032579" lon="105.779640">
<ele>4.225773</ele>
<time>2011-04-29T10:31:50Z</time>
<desc>lat.=21.032579, lon.=105.779640, Alt.=4.225773m. Speed=12.204000m/h.</desc>
<speed>3.390000</speed>
</trkpt>
<trkpt lat="21.032745" lon="105.779663">
<ele>3.970430</ele>
<time>2011-04-29T10:31:55Z</time>
<desc>lat.=21.032745, lon.=105.779663, Alt.=3.970430m. Speed=12.240000m/h.</desc>
<speed>3.400000</speed>
</trkpt>
<trkpt lat="21.032894" lon="105.779694">
<ele>3.910311</ele>
<time>2011-04-29T10:32:00Z</time>
<desc>lat.=21.032894, lon.=105.779694, Alt.=3.910311m. Speed=11.052000m/h.</desc>
<speed>3.070000</speed>
</trkpt>
<trkpt lat="21.033009" lon="105.779732">
<ele>3.576632</ele>
<time>2011-04-29T10:32:05Z</time>
<desc>lat.=21.033009, lon.=105.779732, Alt.=3.576632m. Speed=9.036000m/h.</desc>
<speed>2.510000</speed>
</trkpt>
<trkpt lat="21.033117" lon="105.779770">
<ele>3.089449</ele>
<time>2011-04-29T10:32:10Z</time>
<desc>lat.=21.033117, lon.=105.779770, Alt.=3.089449m. Speed=7.956000m/h.</desc>
<speed>2.210000</speed>
</trkpt>
<trkpt lat="21.033232" lon="105.779778">
<ele>3.115572</ele>
<time>2011-04-29T10:32:15Z</time>
<desc>lat.=21.033232, lon.=105.779778, Alt.=3.115572m. Speed=9.144000m/h.</desc>
<speed>2.540000</speed>
</trkpt>
<trkpt lat="21.033342" lon="105.779808">
<ele>3.581636</ele>
<time>2011-04-29T10:32:20Z</time>
<desc>lat.=21.033342, lon.=105.779808, Alt.=3.581636m. Speed=8.604000m/h.</desc>
<speed>2.390000</speed>
</trkpt>
<trkpt lat="21.033409" lon="105.779839">
<ele>3.441256</ele>
<time>2011-04-29T10:32:25Z</time>
<desc>lat.=21.033409, lon.=105.779839, Alt.=3.441256m. Speed=6.408000m/h.</desc>
<speed>1.780000</speed>
</trkpt>
<trkpt lat="21.033493" lon="105.779877">
<ele>3.482637</ele>
<time>2011-04-29T10:32:30Z</time>
<desc>lat.=21.033493, lon.=105.779877, Alt.=3.482637m. Speed=6.624000m/h.</desc>
<speed>1.840000</speed>
</trkpt>
<trkpt lat="21.033630" lon="105.779831">
<ele>4.441105</ele>
<time>2011-04-29T10:32:35Z</time>
<desc>lat.=21.033630, lon.=105.779831, Alt.=4.441105m. Speed=4.932000m/h.</desc>
<speed>1.370000</speed>
</trkpt>
<trkpt lat="21.033718" lon="105.779846">
<ele>4.879215</ele>
<time>2011-04-29T10:32:40Z</time>
<desc>lat.=21.033718, lon.=105.779846, Alt.=4.879215m. Speed=9.288000m/h.</desc>
<speed>2.580000</speed>
</trkpt>
<trkpt lat="21.033833" lon="105.779861">
<ele>5.342228</ele>
<time>2011-04-29T10:32:45Z</time>
<desc>lat.=21.033833, lon.=105.779861, Alt.=5.342228m. Speed=9.288000m/h.</desc>
<speed>2.580000</speed>
</trkpt>
<trkpt lat="21.033985" lon="105.779900">
<ele>5.219791</ele>
<time>2011-04-29T10:32:50Z</time>
<desc>lat.=21.033985, lon.=105.779900, Alt.=5.219791m. Speed=14.148000m/h.</desc>
<speed>3.930000</speed>
</trkpt>
<trkpt lat="21.034124" lon="105.779938">
<ele>5.239201</ele>
<time>2011-04-29T10:32:55Z</time>
<desc>lat.=21.034124, lon.=105.779938, Alt.=5.239201m. Speed=8.856000m/h.</desc>
<speed>2.460000</speed>
</trkpt>
<trkpt lat="21.034262" lon="105.779968">
<ele>5.915958</ele>
<time>2011-04-29T10:33:00Z</time>
<desc>lat.=21.034262, lon.=105.779968, Alt.=5.915958m. Speed=11.448000m/h.</desc>
<speed>3.180000</speed>
</trkpt>
<trkpt lat="21.034386" lon="105.780006">
<ele>6.399967</ele>
<time>2011-04-29T10:33:05Z</time>
<desc>lat.=21.034386, lon.=105.780006, Alt.=6.399967m. Speed=8.856000m/h.</desc>
<speed>2.460000</speed>
</trkpt>
<trkpt lat="21.034512" lon="105.780022">
<ele>6.468082</ele>
<time>2011-04-29T10:33:10Z</time>
<desc>lat.=21.034512, lon.=105.780022, Alt.=6.468082m. Speed=5.688000m/h.</desc>
<speed>1.580000</speed>
</trkpt>
<trkpt lat="21.034546" lon="105.780014">
<ele>6.363468</ele>
<time>2011-04-29T10:33:15Z</time>
<desc>lat.=21.034546, lon.=105.780014, Alt.=6.363468m. Speed=0.288000m/h.</desc>
<speed>0.080000</speed>
</trkpt>
<trkpt lat="21.034569" lon="105.780014">
<ele>6.155094</ele>
<time>2011-04-29T10:33:20Z</time>
<desc>lat.=21.034569, lon.=105.780014, Alt.=6.155094m. Speed=0.144000m/h.</desc>
<speed>0.040000</speed>
</trkpt>
<trkpt lat="21.034571" lon="105.780014">
<ele>5.998234</ele>
<time>2011-04-29T10:33:25Z</time>
<desc>lat.=21.034571, lon.=105.780014, Alt.=5.998234m. Speed=0.252000m/h.</desc>
<speed>0.070000</speed>
</trkpt>
<trkpt lat="21.034571" lon="105.780014">
<ele>5.897892</ele>
<time>2011-04-29T10:33:30Z</time>
<desc>lat.=21.034571, lon.=105.780014, Alt.=5.897892m. Speed=0.360000m/h.</desc>
<speed>0.100000</speed>
</trkpt>
<trkpt lat="21.034569" lon="105.780014">
<ele>5.853947</ele>
<time>2011-04-29T10:33:35Z</time>
<desc>lat.=21.034569, lon.=105.780014, Alt.=5.853947m. Speed=0.252000m/h.</desc>
<speed>0.070000</speed>
</trkpt>
<trkpt lat="21.034571" lon="105.780014">
<ele>5.771549</ele>
<time>2011-04-29T10:33:40Z</time>
<desc>lat.=21.034571, lon.=105.780014, Alt.=5.771549m. Speed=0.144000m/h.</desc>
<speed>0.040000</speed>
</trkpt>
<trkpt lat="21.034571" lon="105.780014">
<ele>5.663395</ele>
<time>2011-04-29T10:33:45Z</time>
<desc>lat.=21.034571, lon.=105.780014, Alt.=5.663395m. Speed=0.180000m/h.</desc>
<speed>0.050000</speed>
</trkpt>
<trkpt lat="21.034576" lon="105.780014">
<ele>5.617619</ele>
<time>2011-04-29T10:33:50Z</time>
<desc>lat.=21.034576, lon.=105.780014, Alt.=5.617619m. Speed=0.684000m/h.</desc>
<speed>0.190000</speed>
</trkpt>
<trkpt lat="21.034649" lon="105.780029">
<ele>5.746037</ele>
<time>2011-04-29T10:33:55Z</time>
<desc>lat.=21.034649, lon.=105.780029, Alt.=5.746037m. Speed=10.008000m/h.</desc>
<speed>2.780000</speed>
</trkpt>
<trkpt lat="21.034801" lon="105.780060">
<ele>5.829044</ele>
<time>2011-04-29T10:34:00Z</time>
<desc>lat.=21.034801, lon.=105.780060, Alt.=5.829044m. Speed=11.664000m/h.</desc>
<speed>3.240000</speed>
</trkpt>
<trkpt lat="21.034950" lon="105.780083">
<ele>5.795719</ele>
<time>2011-04-29T10:34:05Z</time>
<desc>lat.=21.034950, lon.=105.780083, Alt.=5.795719m. Speed=8.676000m/h.</desc>
<speed>2.410000</speed>
</trkpt>
<trkpt lat="21.035118" lon="105.780098">
<ele>5.933048</ele>
<time>2011-04-29T10:34:10Z</time>
<desc>lat.=21.035118, lon.=105.780098, Alt.=5.933048m. Speed=13.932000m/h.</desc>
<speed>3.870000</speed>
</trkpt>
<trkpt lat="21.035273" lon="105.780136">
<ele>6.341373</ele>
<time>2011-04-29T10:34:15Z</time>
<desc>lat.=21.035273, lon.=105.780136, Alt.=6.341373m. Speed=10.728000m/h.</desc>
<speed>2.980000</speed>
</trkpt>
<trkpt lat="21.035404" lon="105.780151">
<ele>6.945621</ele>
<time>2011-04-29T10:34:20Z</time>
<desc>lat.=21.035404, lon.=105.780151, Alt.=6.945621m. Speed=9.072000m/h.</desc>
<speed>2.520000</speed>
</trkpt>
<trkpt lat="21.035501" lon="105.780151">
<ele>6.724674</ele>
<time>2011-04-29T10:34:25Z</time>
<desc>lat.=21.035501, lon.=105.780151, Alt.=6.724674m. Speed=5.724000m/h.</desc>
<speed>1.590000</speed>
</trkpt>
<trkpt lat="21.035568" lon="105.780174">
<ele>6.831242</ele>
<time>2011-04-29T10:34:30Z</time>
<desc>lat.=21.035568, lon.=105.780174, Alt.=6.831242m. Speed=4.428000m/h.</desc>
<speed>1.230000</speed>
</trkpt>
<trkpt lat="21.035627" lon="105.780190">
<ele>7.001652</ele>
<time>2011-04-29T10:34:35Z</time>
<desc>lat.=21.035627, lon.=105.780190, Alt.=7.001652m. Speed=3.852000m/h.</desc>
<speed>1.070000</speed>
</trkpt>
<trkpt lat="21.035666" lon="105.780197">
<ele>4.315006</ele>
<time>2011-04-29T10:34:40Z</time>
<desc>lat.=21.035666, lon.=105.780197, Alt.=4.315006m. Speed=3.204000m/h.</desc>
<speed>0.890000</speed>
</trkpt>
<trkpt lat="21.035721" lon="105.780190">
<ele>6.368107</ele>
<time>2011-04-29T10:34:45Z</time>
<desc>lat.=21.035721, lon.=105.780190, Alt.=6.368107m. Speed=6.624000m/h.</desc>
<speed>1.840000</speed>
</trkpt>
<trkpt lat="21.035816" lon="105.780212">
<ele>7.036442</ele>
<time>2011-04-29T10:34:50Z</time>
<desc>lat.=21.035816, lon.=105.780212, Alt.=7.036442m. Speed=5.040000m/h.</desc>
<speed>1.400000</speed>
</trkpt>
<trkpt lat="21.035921" lon="105.780258">
<ele>6.912907</ele>
<time>2011-04-29T10:34:55Z</time>
<desc>lat.=21.035921, lon.=105.780258, Alt.=6.912907m. Speed=10.440000m/h.</desc>
<speed>2.900000</speed>
</trkpt>
<trkpt lat="21.035995" lon="105.780251">
<ele>7.835514</ele>
<time>2011-04-29T10:35:00Z</time>
<desc>lat.=21.035995, lon.=105.780251, Alt.=7.835514m. Speed=0.972000m/h.</desc>
<speed>0.270000</speed>
</trkpt>
<trkpt lat="21.036055" lon="105.780258">
<ele>7.910831</ele>
<time>2011-04-29T10:35:05Z</time>
<desc>lat.=21.036055, lon.=105.780258, Alt.=7.910831m. Speed=7.020000m/h.</desc>
<speed>1.950000</speed>
</trkpt>
<trkpt lat="21.036114" lon="105.780334">
<ele>7.636539</ele>
<time>2011-04-29T10:35:10Z</time>
<desc>lat.=21.036114, lon.=105.780334, Alt.=7.636539m. Speed=3.276000m/h.</desc>
<speed>0.910000</speed>
</trkpt>
<trkpt lat="21.036203" lon="105.780342">
<ele>7.477970</ele>
<time>2011-04-29T10:35:15Z</time>
<desc>lat.=21.036203, lon.=105.780342, Alt.=7.477970m. Speed=4.896000m/h.</desc>
<speed>1.360000</speed>
</trkpt>
<trkpt lat="21.036263" lon="105.780396">
<ele>6.176090</ele>
<time>2011-04-29T10:35:20Z</time>
<desc>lat.=21.036263, lon.=105.780396, Alt.=6.176090m. Speed=2.160000m/h.</desc>
<speed>0.600000</speed>
</trkpt>
<trkpt lat="21.036259" lon="105.780403">
<ele>6.451847</ele>
<time>2011-04-29T10:35:25Z</time>
<desc>lat.=21.036259, lon.=105.780403, Alt.=6.451847m. Speed=3.600000m/h.</desc>
<speed>1.000000</speed>
</trkpt>
<trkpt lat="21.036245" lon="105.780457">
<ele>5.608952</ele>
<time>2011-04-29T10:35:30Z</time>
<desc>lat.=21.036245, lon.=105.780457, Alt.=5.608952m. Speed=4.320000m/h.</desc>
<speed>1.200000</speed>
</trkpt>
<trkpt lat="21.036255" lon="105.780540">
<ele>4.594547</ele>
<time>2011-04-29T10:35:35Z</time>
<desc>lat.=21.036255, lon.=105.780540, Alt.=4.594547m. Speed=5.220000m/h.</desc>
<speed>1.450000</speed>
</trkpt>
<trkpt lat="21.036369" lon="105.780685">
<ele>2.909517</ele>
<time>2011-04-29T10:35:40Z</time>
<desc>lat.=21.036369, lon.=105.780685, Alt.=2.909517m. Speed=9.792000m/h.</desc>
<speed>2.720000</speed>
</trkpt>
<trkpt lat="21.036547" lon="105.780739">
<ele>3.641695</ele>
<time>2011-04-29T10:35:45Z</time>
<desc>lat.=21.036547, lon.=105.780739, Alt.=3.641695m. Speed=15.048000m/h.</desc>
<speed>4.180000</speed>
</trkpt>
<trkpt lat="21.036697" lon="105.780754">
<ele>4.368351</ele>
<time>2011-04-29T10:35:50Z</time>
<desc>lat.=21.036697, lon.=105.780754, Alt.=4.368351m. Speed=3.240000m/h.</desc>
<speed>0.900000</speed>
</trkpt>
<trkpt lat="21.036718" lon="105.780746">
<ele>3.666170</ele>
<time>2011-04-29T10:35:55Z</time>
<desc>lat.=21.036718, lon.=105.780746, Alt.=3.666170m. Speed=0.036000m/h.</desc>
<speed>0.010000</speed>
</trkpt>
<trkpt lat="21.036720" lon="105.780746">
<ele>3.705050</ele>
<time>2011-04-29T10:36:00Z</time>
<desc>lat.=21.036720, lon.=105.780746, Alt.=3.705050m. Speed=0.036000m/h.</desc>
<speed>0.010000</speed>
</trkpt>
<trkpt lat="21.036720" lon="105.780746">
<ele>3.813082</ele>
<time>2011-04-29T10:36:05Z</time>
<desc>lat.=21.036720, lon.=105.780746, Alt.=3.813082m. Speed=0.144000m/h.</desc>
<speed>0.040000</speed>
</trkpt>
<trkpt lat="21.036718" lon="105.780746">
<ele>3.817049</ele>
<time>2011-04-29T10:36:10Z</time>
<desc>lat.=21.036718, lon.=105.780746, Alt.=3.817049m. Speed=0.036000m/h.</desc>
<speed>0.010000</speed>
</trkpt>
<trkpt lat="21.036718" lon="105.780746">
<ele>3.839937</ele>
<time>2011-04-29T10:36:15Z</time>
<desc>lat.=21.036718, lon.=105.780746, Alt.=3.839937m. Speed=0.072000m/h.</desc>
<speed>0.020000</speed>
</trkpt>
<trkpt lat="21.036720" lon="105.780746">
<ele>3.899996</ele>
<time>2011-04-29T10:36:20Z</time>
<desc>lat.=21.036720, lon.=105.780746, Alt.=3.899996m. Speed=0.036000m/h.</desc>
<speed>0.010000</speed>
</trkpt>
<trkpt lat="21.036720" lon="105.780746">
<ele>3.842501</ele>
<time>2011-04-29T10:36:25Z</time>
<desc>lat.=21.036720, lon.=105.780746, Alt.=3.842501m. Speed=0.036000m/h.</desc>
<speed>0.010000</speed>
</trkpt>
<trkpt lat="21.036743" lon="105.780746">
<ele>3.598909</ele>
<time>2011-04-29T10:36:30Z</time>
<desc>lat.=21.036743, lon.=105.780746, Alt.=3.598909m. Speed=9.756000m/h.</desc>
<speed>2.710000</speed>
</trkpt>
<trkpt lat="21.036953" lon="105.780769">
<ele>3.062838</ele>
<time>2011-04-29T10:36:35Z</time>
<desc>lat.=21.036953, lon.=105.780769, Alt.=3.062838m. Speed=19.511999m/h.</desc>
<speed>5.420000</speed>
</trkpt>
<trkpt lat="21.037186" lon="105.780792">
<ele>3.111300</ele>
<time>2011-04-29T10:36:40Z</time>
<desc>lat.=21.037186, lon.=105.780792, Alt.=3.111300m. Speed=18.000000m/h.</desc>
<speed>5.000000</speed>
</trkpt>
<trkpt lat="21.037428" lon="105.780830">
<ele>3.211580</ele>
<time>2011-04-29T10:36:45Z</time>
<desc>lat.=21.037428, lon.=105.780830, Alt.=3.211580m. Speed=19.836000m/h.</desc>
<speed>5.510000</speed>
</trkpt>
<trkpt lat="21.037691" lon="105.780861">
<ele>3.064363</ele>
<time>2011-04-29T10:36:50Z</time>
<desc>lat.=21.037691, lon.=105.780861, Alt.=3.064363m. Speed=22.176001m/h.</desc>
<speed>6.160000</speed>
</trkpt>
<trkpt lat="21.037964" lon="105.780907">
<ele>3.108187</ele>
<time>2011-04-29T10:36:55Z</time>
<desc>lat.=21.037964, lon.=105.780907, Alt.=3.108187m. Speed=21.743999m/h.</desc>
<speed>6.040000</speed>
</trkpt>
<trkpt lat="21.038239" lon="105.780945">
<ele>3.632479</ele>
<time>2011-04-29T10:37:00Z</time>
<desc>lat.=21.038239, lon.=105.780945, Alt.=3.632479m. Speed=23.184000m/h.</desc>
<speed>6.440000</speed>
</trkpt>
<trkpt lat="21.038519" lon="105.780975">
<ele>4.451237</ele>
<time>2011-04-29T10:37:05Z</time>
<desc>lat.=21.038519, lon.=105.780975, Alt.=4.451237m. Speed=22.823999m/h.</desc>
<speed>6.340000</speed>
</trkpt>
<trkpt lat="21.038801" lon="105.780998">
<ele>4.237614</ele>
<time>2011-04-29T10:37:10Z</time>
<desc>lat.=21.038801, lon.=105.780998, Alt.=4.237614m. Speed=23.112000m/h.</desc>
<speed>6.420000</speed>
</trkpt>
<trkpt lat="21.039072" lon="105.781021">
<ele>4.243717</ele>
<time>2011-04-29T10:37:15Z</time>
<desc>lat.=21.039072, lon.=105.781021, Alt.=4.243717m. Speed=19.403999m/h.</desc>
<speed>5.390000</speed>
</trkpt>
<trkpt lat="21.039301" lon="105.781029">
<ele>4.510197</ele>
<time>2011-04-29T10:37:20Z</time>
<desc>lat.=21.039301, lon.=105.781029, Alt.=4.510197m. Speed=18.468000m/h.</desc>
<speed>5.130000</speed>
</trkpt>
<trkpt lat="21.039528" lon="105.781006">
<ele>4.428410</ele>
<time>2011-04-29T10:37:25Z</time>
<desc>lat.=21.039528, lon.=105.781006, Alt.=4.428410m. Speed=18.684000m/h.</desc>
<speed>5.190000</speed>
</trkpt>
<trkpt lat="21.039774" lon="105.780998">
<ele>4.651188</ele>
<time>2011-04-29T10:37:30Z</time>
<desc>lat.=21.039774, lon.=105.780998, Alt.=4.651188m. Speed=20.340000m/h.</desc>
<speed>5.650000</speed>
</trkpt>
<trkpt lat="21.040020" lon="105.780991">
<ele>4.684757</ele>
<time>2011-04-29T10:37:35Z</time>
<desc>lat.=21.040020, lon.=105.780991, Alt.=4.684757m. Speed=19.403999m/h.</desc>
<speed>5.390000</speed>
</trkpt>
<trkpt lat="21.040270" lon="105.780983">
<ele>5.110905</ele>
<time>2011-04-29T10:37:40Z</time>
<desc>lat.=21.040270, lon.=105.780983, Alt.=5.110905m. Speed=19.872000m/h.</desc>
<speed>5.520000</speed>
</trkpt>
<trkpt lat="21.040487" lon="105.780975">
<ele>5.166447</ele>
<time>2011-04-29T10:37:45Z</time>
<desc>lat.=21.040487, lon.=105.780975, Alt.=5.166447m. Speed=14.256000m/h.</desc>
<speed>3.960000</speed>
</trkpt>
<trkpt lat="21.040655" lon="105.780975">
<ele>4.907047</ele>
<time>2011-04-29T10:37:50Z</time>
<desc>lat.=21.040655, lon.=105.780975, Alt.=4.907047m. Speed=13.176000m/h.</desc>
<speed>3.660000</speed>
</trkpt>
<trkpt lat="21.040812" lon="105.780975">
<ele>6.275944</ele>
<time>2011-04-29T10:37:55Z</time>
<desc>lat.=21.040812, lon.=105.780975, Alt.=6.275944m. Speed=14.076000m/h.</desc>
<speed>3.910000</speed>
</trkpt>
<trkpt lat="21.040955" lon="105.780975">
<ele>5.950748</ele>
<time>2011-04-29T10:38:00Z</time>
<desc>lat.=21.040955, lon.=105.780975, Alt.=5.950748m. Speed=8.172000m/h.</desc>
<speed>2.270000</speed>
</trkpt>
<trkpt lat="21.041065" lon="105.780960">
<ele>7.117741</ele>
<time>2011-04-29T10:38:05Z</time>
<desc>lat.=21.041065, lon.=105.780960, Alt.=7.117741m. Speed=10.188000m/h.</desc>
<speed>2.830000</speed>
</trkpt>
<trkpt lat="21.041250" lon="105.780952">
<ele>7.780827</ele>
<time>2011-04-29T10:38:10Z</time>
<desc>lat.=21.041250, lon.=105.780952, Alt.=7.780827m. Speed=15.984000m/h.</desc>
<speed>4.440000</speed>
</trkpt>
<trkpt lat="21.041456" lon="105.780975">
<ele>9.470833</ele>
<time>2011-04-29T10:38:15Z</time>
<desc>lat.=21.041456, lon.=105.780975, Alt.=9.470833m. Speed=15.264000m/h.</desc>
<speed>4.240000</speed>
</trkpt>
<trkpt lat="21.041641" lon="105.780998">
<ele>10.206673</ele>
<time>2011-04-29T10:38:20Z</time>
<desc>lat.=21.041641, lon.=105.780998, Alt.=10.206673m. Speed=11.556000m/h.</desc>
<speed>3.210000</speed>
</trkpt>
<trkpt lat="21.041765" lon="105.781006">
<ele>8.767952</ele>
<time>2011-04-29T10:38:25Z</time>
<desc>lat.=21.041765, lon.=105.781006, Alt.=8.767952m. Speed=9.180000m/h.</desc>
<speed>2.550000</speed>
</trkpt>
<trkpt lat="21.041870" lon="105.781029">
<ele>9.013802</ele>
<time>2011-04-29T10:38:30Z</time>
<desc>lat.=21.041870, lon.=105.781029, Alt.=9.013802m. Speed=5.400000m/h.</desc>
<speed>1.500000</speed>
</trkpt>
<trkpt lat="21.041943" lon="105.781044">
<ele>9.034309</ele>
<time>2011-04-29T10:38:35Z</time>
<desc>lat.=21.041943, lon.=105.781044, Alt.=9.034309m. Speed=5.400000m/h.</desc>
<speed>1.500000</speed>
</trkpt>
<trkpt lat="21.042025" lon="105.781052">
<ele>10.465218</ele>
<time>2011-04-29T10:38:40Z</time>
<desc>lat.=21.042025, lon.=105.781052, Alt.=10.465218m. Speed=6.300000m/h.</desc>
<speed>1.750000</speed>
</trkpt>
<trkpt lat="21.042131" lon="105.781067">
<ele>11.994514</ele>
<time>2011-04-29T10:38:45Z</time>
<desc>lat.=21.042131, lon.=105.781067, Alt.=11.994514m. Speed=7.776000m/h.</desc>
<speed>2.160000</speed>
</trkpt>
<trkpt lat="21.042225" lon="105.781075">
<ele>13.450569</ele>
<time>2011-04-29T10:38:50Z</time>
<desc>lat.=21.042225, lon.=105.781075, Alt.=13.450569m. Speed=4.464000m/h.</desc>
<speed>1.240000</speed>
</trkpt>
<trkpt lat="21.042299" lon="105.781090">
<ele>13.080208</ele>
<time>2011-04-29T10:38:55Z</time>
<desc>lat.=21.042299, lon.=105.781090, Alt.=13.080208m. Speed=6.372000m/h.</desc>
<speed>1.770000</speed>
</trkpt>
<trkpt lat="21.042397" lon="105.781090">
<ele>11.580940</ele>
<time>2011-04-29T10:39:00Z</time>
<desc>lat.=21.042397, lon.=105.781090, Alt.=11.580940m. Speed=8.640000m/h.</desc>
<speed>2.400000</speed>
</trkpt>
<trkpt lat="21.042521" lon="105.781105">
<ele>10.495491</ele>
<time>2011-04-29T10:39:05Z</time>
<desc>lat.=21.042521, lon.=105.781105, Alt.=10.495491m. Speed=9.324000m/h.</desc>
<speed>2.590000</speed>
</trkpt>
<trkpt lat="21.042686" lon="105.781097">
<ele>11.689095</ele>
<time>2011-04-29T10:39:10Z</time>
<desc>lat.=21.042686, lon.=105.781097, Alt.=11.689095m. Speed=10.764000m/h.</desc>
<speed>2.990000</speed>
</trkpt>
<trkpt lat="21.042833" lon="105.781120">
<ele>13.953743</ele>
<time>2011-04-29T10:39:15Z</time>
<desc>lat.=21.042833, lon.=105.781120, Alt.=13.953743m. Speed=11.232000m/h.</desc>
<speed>3.120000</speed>
</trkpt>
<trkpt lat="21.043003" lon="105.781128">
<ele>14.886116</ele>
<time>2011-04-29T10:39:20Z</time>
<desc>lat.=21.043003, lon.=105.781128, Alt.=14.886116m. Speed=12.636000m/h.</desc>
<speed>3.510000</speed>
</trkpt>
<trkpt lat="21.043209" lon="105.781143">
<ele>14.406380</ele>
<time>2011-04-29T10:39:25Z</time>
<desc>lat.=21.043209, lon.=105.781143, Alt.=14.406380m. Speed=14.544000m/h.</desc>
<speed>4.040000</speed>
</trkpt>
<trkpt lat="21.043421" lon="105.781166">
<ele>14.633919</ele>
<time>2011-04-29T10:39:30Z</time>
<desc>lat.=21.043421, lon.=105.781166, Alt.=14.633919m. Speed=15.048000m/h.</desc>
<speed>4.180000</speed>
</trkpt>
<trkpt lat="21.043648" lon="105.781197">
<ele>13.153694</ele>
<time>2011-04-29T10:39:35Z</time>
<desc>lat.=21.043648, lon.=105.781197, Alt.=13.153694m. Speed=13.680000m/h.</desc>
<speed>3.800000</speed>
</trkpt>
<trkpt lat="21.043936" lon="105.781212">
<ele>11.354866</ele>
<time>2011-04-29T10:39:40Z</time>
<desc>lat.=21.043936, lon.=105.781212, Alt.=11.354866m. Speed=20.087999m/h.</desc>
<speed>5.580000</speed>
</trkpt>
<trkpt lat="21.044233" lon="105.781235">
<ele>10.233040</ele>
<time>2011-04-29T10:39:45Z</time>
<desc>lat.=21.044233, lon.=105.781235, Alt.=10.233040m. Speed=19.620001m/h.</desc>
<speed>5.450000</speed>
</trkpt>
<trkpt lat="21.044485" lon="105.781250">
<ele>8.550667</ele>
<time>2011-04-29T10:39:50Z</time>
<desc>lat.=21.044485, lon.=105.781250, Alt.=8.550667m. Speed=14.832000m/h.</desc>
<speed>4.120000</speed>
</trkpt>
<trkpt lat="21.044691" lon="105.781265">
<ele>9.146858</ele>
<time>2011-04-29T10:39:55Z</time>
<desc>lat.=21.044691, lon.=105.781265, Alt.=9.146858m. Speed=15.228000m/h.</desc>
<speed>4.230000</speed>
</trkpt>
<trkpt lat="21.044899" lon="105.781281">
<ele>9.896126</ele>
<time>2011-04-29T10:40:00Z</time>
<desc>lat.=21.044899, lon.=105.781281, Alt.=9.896126m. Speed=15.444000m/h.</desc>
<speed>4.290000</speed>
</trkpt>
<trkpt lat="21.045103" lon="105.781288">
<ele>10.646126</ele>
<time>2011-04-29T10:40:05Z</time>
<desc>lat.=21.045103, lon.=105.781288, Alt.=10.646126m. Speed=15.768000m/h.</desc>
<speed>4.380000</speed>
</trkpt>
<trkpt lat="21.045296" lon="105.781281">
<ele>9.176888</ele>
<time>2011-04-29T10:40:10Z</time>
<desc>lat.=21.045296, lon.=105.781281, Alt.=9.176888m. Speed=14.688000m/h.</desc>
<speed>4.080000</speed>
</trkpt>
<trkpt lat="21.045475" lon="105.781296">
<ele>11.059456</ele>
<time>2011-04-29T10:40:15Z</time>
<desc>lat.=21.045475, lon.=105.781296, Alt.=11.059456m. Speed=13.536000m/h.</desc>
<speed>3.760000</speed>
</trkpt>
<trkpt lat="21.045635" lon="105.781342">
<ele>9.676399</ele>
<time>2011-04-29T10:40:20Z</time>
<desc>lat.=21.045635, lon.=105.781342, Alt.=9.676399m. Speed=13.068000m/h.</desc>
<speed>3.630000</speed>
</trkpt>
<trkpt lat="21.045753" lon="105.781433">
<ele>9.745735</ele>
<time>2011-04-29T10:40:25Z</time>
<desc>lat.=21.045753, lon.=105.781433, Alt.=9.745735m. Speed=14.076000m/h.</desc>
<speed>3.910000</speed>
</trkpt>
<trkpt lat="21.045879" lon="105.781609">
<ele>10.232307</ele>
<time>2011-04-29T10:40:30Z</time>
<desc>lat.=21.045879, lon.=105.781609, Alt.=10.232307m. Speed=14.148000m/h.</desc>
<speed>3.930000</speed>
</trkpt>
<trkpt lat="21.045954" lon="105.781799">
<ele>9.273323</ele>
<time>2011-04-29T10:40:35Z</time>
<desc>lat.=21.045954, lon.=105.781799, Alt.=9.273323m. Speed=15.192000m/h.</desc>
<speed>4.220000</speed>
</trkpt>
<trkpt lat="21.046005" lon="105.782005">
<ele>8.271614</ele>
<time>2011-04-29T10:40:40Z</time>
<desc>lat.=21.046005, lon.=105.782005, Alt.=8.271614m. Speed=13.824000m/h.</desc>
<speed>3.840000</speed>
</trkpt>
<trkpt lat="21.046024" lon="105.782158">
<ele>8.429573</ele>
<time>2011-04-29T10:40:45Z</time>
<desc>lat.=21.046024, lon.=105.782158, Alt.=8.429573m. Speed=10.044000m/h.</desc>
<speed>2.790000</speed>
</trkpt>
<trkpt lat="21.046036" lon="105.782326">
<ele>8.568733</ele>
<time>2011-04-29T10:40:50Z</time>
<desc>lat.=21.046036, lon.=105.782326, Alt.=8.568733m. Speed=14.004000m/h.</desc>
<speed>3.890000</speed>
</trkpt>
<trkpt lat="21.046057" lon="105.782455">
<ele>8.593636</ele>
<time>2011-04-29T10:40:55Z</time>
<desc>lat.=21.046057, lon.=105.782455, Alt.=8.593636m. Speed=10.080000m/h.</desc>
<speed>2.800000</speed>
</trkpt>
<trkpt lat="21.046045" lon="105.782578">
<ele>9.331673</ele>
<time>2011-04-29T10:41:00Z</time>
<desc>lat.=21.046045, lon.=105.782578, Alt.=9.331673m. Speed=11.268000m/h.</desc>
<speed>3.130000</speed>
</trkpt>
<trkpt lat="21.046041" lon="105.782768">
<ele>10.012337</ele>
<time>2011-04-29T10:41:05Z</time>
<desc>lat.=21.046041, lon.=105.782768, Alt.=10.012337m. Speed=14.904000m/h.</desc>
<speed>4.140000</speed>
</trkpt>
<trkpt lat="21.046051" lon="105.782974">
<ele>10.386848</ele>
<time>2011-04-29T10:41:10Z</time>
<desc>lat.=21.046051, lon.=105.782974, Alt.=10.386848m. Speed=16.704000m/h.</desc>
<speed>4.640000</speed>
</trkpt>
<trkpt lat="21.046059" lon="105.783188">
<ele>11.029915</ele>
<time>2011-04-29T10:41:15Z</time>
<desc>lat.=21.046059, lon.=105.783188, Alt.=11.029915m. Speed=13.968000m/h.</desc>
<speed>3.880000</speed>
</trkpt>
<trkpt lat="21.046059" lon="105.783394">
<ele>11.423225</ele>
<time>2011-04-29T10:41:20Z</time>
<desc>lat.=21.046059, lon.=105.783394, Alt.=11.423225m. Speed=16.920000m/h.</desc>
<speed>4.700000</speed>
</trkpt>
<trkpt lat="21.046049" lon="105.783623">
<ele>13.631966</ele>
<time>2011-04-29T10:41:25Z</time>
<desc>lat.=21.046049, lon.=105.783623, Alt.=13.631966m. Speed=17.100000m/h.</desc>
<speed>4.750000</speed>
</trkpt>
<trkpt lat="21.046049" lon="105.783867">
<ele>18.061783</ele>
<time>2011-04-29T10:41:30Z</time>
<desc>lat.=21.046049, lon.=105.783867, Alt.=18.061783m. Speed=18.072001m/h.</desc>
<speed>5.020000</speed>
</trkpt>
<trkpt lat="21.046019" lon="105.784042">
<ele>17.377701</ele>
<time>2011-04-29T10:41:35Z</time>
<desc>lat.=21.046019, lon.=105.784042, Alt.=17.377701m. Speed=14.724000m/h.</desc>
<speed>4.090000</speed>
</trkpt>
<trkpt lat="21.046036" lon="105.784309">
<ele>12.481575</ele>
<time>2011-04-29T10:41:40Z</time>
<desc>lat.=21.046036, lon.=105.784309, Alt.=12.481575m. Speed=18.684000m/h.</desc>
<speed>5.190000</speed>
</trkpt>
<trkpt lat="21.046055" lon="105.784538">
<ele>11.829964</ele>
<time>2011-04-29T10:41:45Z</time>
<desc>lat.=21.046055, lon.=105.784538, Alt.=11.829964m. Speed=20.195999m/h.</desc>
<speed>5.610000</speed>
</trkpt>
<trkpt lat="21.046053" lon="105.784805">
<ele>12.127327</ele>
<time>2011-04-29T10:41:50Z</time>
<desc>lat.=21.046053, lon.=105.784805, Alt.=12.127327m. Speed=20.087999m/h.</desc>
<speed>5.580000</speed>
</trkpt>
<trkpt lat="21.046051" lon="105.785072">
<ele>10.011848</ele>
<time>2011-04-29T10:41:55Z</time>
<desc>lat.=21.046051, lon.=105.785072, Alt.=10.011848m. Speed=19.260000m/h.</desc>
<speed>5.350000</speed>
</trkpt>
<trkpt lat="21.046043" lon="105.785324">
<ele>8.921516</ele>
<time>2011-04-29T10:42:00Z</time>
<desc>lat.=21.046043, lon.=105.785324, Alt.=8.921516m. Speed=18.684000m/h.</desc>
<speed>5.190000</speed>
</trkpt>
<trkpt lat="21.046047" lon="105.785561">
<ele>8.089485</ele>
<time>2011-04-29T10:42:05Z</time>
<desc>lat.=21.046047, lon.=105.785561, Alt.=8.089485m. Speed=15.264000m/h.</desc>
<speed>4.240000</speed>
</trkpt>
<trkpt lat="21.046045" lon="105.785774">
<ele>9.440071</ele>
<time>2011-04-29T10:42:10Z</time>
<desc>lat.=21.046045, lon.=105.785774, Alt.=9.440071m. Speed=17.604000m/h.</desc>
<speed>4.890000</speed>
</trkpt>
<trkpt lat="21.046041" lon="105.786026">
<ele>12.584114</ele>
<time>2011-04-29T10:42:15Z</time>
<desc>lat.=21.046041, lon.=105.786026, Alt.=12.584114m. Speed=19.224001m/h.</desc>
<speed>5.340000</speed>
</trkpt>
<trkpt lat="21.046021" lon="105.786285">
<ele>10.327766</ele>
<time>2011-04-29T10:42:20Z</time>
<desc>lat.=21.046021, lon.=105.786285, Alt.=10.327766m. Speed=19.944000m/h.</desc>
<speed>5.540000</speed>
</trkpt>
<trkpt lat="21.046032" lon="105.786568">
<ele>11.277229</ele>
<time>2011-04-29T10:42:25Z</time>
<desc>lat.=21.046032, lon.=105.786568, Alt.=11.277229m. Speed=19.548000m/h.</desc>
<speed>5.430000</speed>
</trkpt>
<trkpt lat="21.046040" lon="105.786835">
<ele>11.090950</ele>
<time>2011-04-29T10:42:30Z</time>
<desc>lat.=21.046040, lon.=105.786835, Alt.=11.090950m. Speed=19.260000m/h.</desc>
<speed>5.350000</speed>
</trkpt>
<trkpt lat="21.046053" lon="105.787125">
<ele>10.778450</ele>
<time>2011-04-29T10:42:35Z</time>
<desc>lat.=21.046053, lon.=105.787125, Alt.=10.778450m. Speed=20.952000m/h.</desc>
<speed>5.820000</speed>
</trkpt>
<trkpt lat="21.046061" lon="105.787407">
<ele>10.991829</ele>
<time>2011-04-29T10:42:40Z</time>
<desc>lat.=21.046061, lon.=105.787407, Alt.=10.991829m. Speed=20.412001m/h.</desc>
<speed>5.670000</speed>
</trkpt>
<trkpt lat="21.046064" lon="105.787682">
<ele>10.632698</ele>
<time>2011-04-29T10:42:45Z</time>
<desc>lat.=21.046064, lon.=105.787682, Alt.=10.632698m. Speed=20.844000m/h.</desc>
<speed>5.790000</speed>
</trkpt>
<trkpt lat="21.046062" lon="105.787971">
<ele>9.158333</ele>
<time>2011-04-29T10:42:50Z</time>
<desc>lat.=21.046062, lon.=105.787971, Alt.=9.158333m. Speed=20.448000m/h.</desc>
<speed>5.680000</speed>
</trkpt>
<trkpt lat="21.046051" lon="105.788254">
<ele>8.208138</ele>
<time>2011-04-29T10:42:55Z</time>
<desc>lat.=21.046051, lon.=105.788254, Alt.=8.208138m. Speed=21.096001m/h.</desc>
<speed>5.860000</speed>
</trkpt>
<trkpt lat="21.046051" lon="105.788544">
<ele>8.394417</ele>
<time>2011-04-29T10:43:00Z</time>
<desc>lat.=21.046051, lon.=105.788544, Alt.=8.394417m. Speed=20.483999m/h.</desc>
<speed>5.690000</speed>
</trkpt>
<trkpt lat="21.046055" lon="105.788826">
<ele>8.411751</ele>
<time>2011-04-29T10:43:05Z</time>
<desc>lat.=21.046055, lon.=105.788826, Alt.=8.411751m. Speed=21.384001m/h.</desc>
<speed>5.940000</speed>
</trkpt>
<trkpt lat="21.046064" lon="105.789116">
<ele>10.340462</ele>
<time>2011-04-29T10:43:10Z</time>
<desc>lat.=21.046064, lon.=105.789116, Alt.=10.340462m. Speed=20.988001m/h.</desc>
<speed>5.830000</speed>
</trkpt>
<trkpt lat="21.046082" lon="105.789406">
<ele>9.968391</ele>
<time>2011-04-29T10:43:15Z</time>
<desc>lat.=21.046082, lon.=105.789406, Alt.=9.968391m. Speed=19.368000m/h.</desc>
<speed>5.380000</speed>
</trkpt>
<trkpt lat="21.046082" lon="105.789635">
<ele>10.271858</ele>
<time>2011-04-29T10:43:20Z</time>
<desc>lat.=21.046082, lon.=105.789635, Alt.=10.271858m. Speed=15.552000m/h.</desc>
<speed>4.320000</speed>
</trkpt>
<trkpt lat="21.046082" lon="105.789825">
<ele>10.113411</ele>
<time>2011-04-29T10:43:25Z</time>
<desc>lat.=21.046082, lon.=105.789825, Alt.=10.113411m. Speed=12.276000m/h.</desc>
<speed>3.410000</speed>
</trkpt>
<trkpt lat="21.046085" lon="105.789932">
<ele>10.587532</ele>
<time>2011-04-29T10:43:30Z</time>
<desc>lat.=21.046085, lon.=105.789932, Alt.=10.587532m. Speed=6.732000m/h.</desc>
<speed>1.870000</speed>
</trkpt>
<trkpt lat="21.046085" lon="105.790001">
<ele>10.705208</ele>
<time>2011-04-29T10:43:35Z</time>
<desc>lat.=21.046085, lon.=105.790001, Alt.=10.705208m. Speed=4.932000m/h.</desc>
<speed>1.370000</speed>
</trkpt>
<trkpt lat="21.046089" lon="105.790169">
<ele>10.342903</ele>
<time>2011-04-29T10:43:40Z</time>
<desc>lat.=21.046089, lon.=105.790169, Alt.=10.342903m. Speed=17.208000m/h.</desc>
<speed>4.780000</speed>
</trkpt>
<trkpt lat="21.046087" lon="105.790405">
<ele>10.287239</ele>
<time>2011-04-29T10:43:45Z</time>
<desc>lat.=21.046087, lon.=105.790405, Alt.=10.287239m. Speed=18.864000m/h.</desc>
<speed>5.240000</speed>
</trkpt>
<trkpt lat="21.046085" lon="105.790672">
<ele>10.348518</ele>
<time>2011-04-29T10:43:50Z</time>
<desc>lat.=21.046085, lon.=105.790672, Alt.=10.348518m. Speed=20.952000m/h.</desc>
<speed>5.820000</speed>
</trkpt>
<trkpt lat="21.046076" lon="105.790962">
<ele>9.918343</ele>
<time>2011-04-29T10:43:55Z</time>
<desc>lat.=21.046076, lon.=105.790962, Alt.=9.918343m. Speed=21.204000m/h.</desc>
<speed>5.890000</speed>
</trkpt>
<trkpt lat="21.046070" lon="105.791237">
<ele>10.010628</ele>
<time>2011-04-29T10:44:00Z</time>
<desc>lat.=21.046070, lon.=105.791237, Alt.=10.010628m. Speed=19.368000m/h.</desc>
<speed>5.380000</speed>
</trkpt>
<trkpt lat="21.046061" lon="105.791489">
<ele>10.197884</ele>
<time>2011-04-29T10:44:05Z</time>
<desc>lat.=21.046061, lon.=105.791489, Alt.=10.197884m. Speed=17.639999m/h.</desc>
<speed>4.900000</speed>
</trkpt>
<trkpt lat="21.046070" lon="105.791740">
<ele>9.251106</ele>
<time>2011-04-29T10:44:10Z</time>
<desc>lat.=21.046070, lon.=105.791740, Alt.=9.251106m. Speed=17.280001m/h.</desc>
<speed>4.800000</speed>
</trkpt>
<trkpt lat="21.046074" lon="105.791977">
<ele>9.966927</ele>
<time>2011-04-29T10:44:15Z</time>
<desc>lat.=21.046074, lon.=105.791977, Alt.=9.966927m. Speed=19.224001m/h.</desc>
<speed>5.340000</speed>
</trkpt>
<trkpt lat="21.046051" lon="105.792229">
<ele>10.181526</ele>
<time>2011-04-29T10:44:20Z</time>
<desc>lat.=21.046051, lon.=105.792229, Alt.=10.181526m. Speed=18.792000m/h.</desc>
<speed>5.220000</speed>
</trkpt>
<trkpt lat="21.046040" lon="105.792465">
<ele>10.632454</ele>
<time>2011-04-29T10:44:25Z</time>
<desc>lat.=21.046040, lon.=105.792465, Alt.=10.632454m. Speed=16.704000m/h.</desc>
<speed>4.640000</speed>
</trkpt>
<trkpt lat="21.046028" lon="105.792717">
<ele>11.222542</ele>
<time>2011-04-29T10:44:30Z</time>
<desc>lat.=21.046028, lon.=105.792717, Alt.=11.222542m. Speed=18.431999m/h.</desc>
<speed>5.120000</speed>
</trkpt>
<trkpt lat="21.046019" lon="105.792953">
<ele>11.662239</ele>
<time>2011-04-29T10:44:35Z</time>
<desc>lat.=21.046019, lon.=105.792953, Alt.=11.662239m. Speed=15.264000m/h.</desc>
<speed>4.240000</speed>
</trkpt>
<trkpt lat="21.046026" lon="105.793152">
<ele>14.975960</ele>
<time>2011-04-29T10:44:40Z</time>
<desc>lat.=21.046026, lon.=105.793152, Alt.=14.975960m. Speed=10.548000m/h.</desc>
<speed>2.930000</speed>
</trkpt>
<trkpt lat="21.046028" lon="105.793266">
<ele>17.193619</ele>
<time>2011-04-29T10:44:45Z</time>
<desc>lat.=21.046028, lon.=105.793266, Alt.=17.193619m. Speed=9.972000m/h.</desc>
<speed>2.770000</speed>
</trkpt>
<trkpt lat="21.046032" lon="105.793381">
<ele>15.378304</ele>
<time>2011-04-29T10:44:50Z</time>
<desc>lat.=21.046032, lon.=105.793381, Alt.=15.378304m. Speed=7.632000m/h.</desc>
<speed>2.120000</speed>
</trkpt>
<trkpt lat="21.046032" lon="105.793457">
<ele>14.793343</ele>
<time>2011-04-29T10:44:55Z</time>
<desc>lat.=21.046032, lon.=105.793457, Alt.=14.793343m. Speed=4.464000m/h.</desc>
<speed>1.240000</speed>
</trkpt>
<trkpt lat="21.046057" lon="105.793503">
<ele>16.511978</ele>
<time>2011-04-29T10:45:00Z</time>
<desc>lat.=21.046057, lon.=105.793503, Alt.=16.511978m. Speed=0.072000m/h.</desc>
<speed>0.020000</speed>
</trkpt>
<trkpt lat="21.046062" lon="105.793510">
<ele>16.307877</ele>
<time>2011-04-29T10:45:05Z</time>
<desc>lat.=21.046062, lon.=105.793510, Alt.=16.307877m. Speed=0.180000m/h.</desc>
<speed>0.050000</speed>
</trkpt>
<trkpt lat="21.046062" lon="105.793510">
<ele>16.283463</ele>
<time>2011-04-29T10:45:10Z</time>
<desc>lat.=21.046062, lon.=105.793510, Alt.=16.283463m. Speed=4.248000m/h.</desc>
<speed>1.180000</speed>
</trkpt>
<trkpt lat="21.046061" lon="105.793571">
<ele>15.275520</ele>
<time>2011-04-29T10:45:15Z</time>
<desc>lat.=21.046061, lon.=105.793571, Alt.=15.275520m. Speed=0.360000m/h.</desc>
<speed>0.100000</speed>
</trkpt>
<trkpt lat="21.046061" lon="105.793655">
<ele>14.422249</ele>
<time>2011-04-29T10:45:20Z</time>
<desc>lat.=21.046061, lon.=105.793655, Alt.=14.422249m. Speed=6.192000m/h.</desc>
<speed>1.720000</speed>
</trkpt>
<trkpt lat="21.046043" lon="105.793724">
<ele>14.180061</ele>
<time>2011-04-29T10:45:25Z</time>
<desc>lat.=21.046043, lon.=105.793724, Alt.=14.180061m. Speed=4.896000m/h.</desc>
<speed>1.360000</speed>
</trkpt>
<trkpt lat="21.046030" lon="105.793777">
<ele>13.621956</ele>
<time>2011-04-29T10:45:30Z</time>
<desc>lat.=21.046030, lon.=105.793777, Alt.=13.621956m. Speed=3.780000m/h.</desc>
<speed>1.050000</speed>
</trkpt>
<trkpt lat="21.046040" lon="105.793846">
<ele>13.274544</ele>
<time>2011-04-29T10:45:35Z</time>
<desc>lat.=21.046040, lon.=105.793846, Alt.=13.274544m. Speed=2.988000m/h.</desc>
<speed>0.830000</speed>
</trkpt>
<trkpt lat="21.046034" lon="105.793900">
<ele>12.917366</ele>
<time>2011-04-29T10:45:40Z</time>
<desc>lat.=21.046034, lon.=105.793900, Alt.=12.917366m. Speed=3.600000m/h.</desc>
<speed>1.000000</speed>
</trkpt>
<trkpt lat="21.046051" lon="105.793930">
<ele>12.627327</ele>
<time>2011-04-29T10:45:45Z</time>
<desc>lat.=21.046051, lon.=105.793930, Alt.=12.627327m. Speed=0.108000m/h.</desc>
<speed>0.030000</speed>
</trkpt>
<trkpt lat="21.046059" lon="105.793945">
<ele>12.153450</ele>
<time>2011-04-29T10:45:50Z</time>
<desc>lat.=21.046059, lon.=105.793945, Alt.=12.153450m. Speed=2.592000m/h.</desc>
<speed>0.720000</speed>
</trkpt>
<trkpt lat="21.046068" lon="105.793961">
<ele>12.128548</ele>
<time>2011-04-29T10:45:55Z</time>
<desc>lat.=21.046068, lon.=105.793961, Alt.=12.128548m. Speed=0.360000m/h.</desc>
<speed>0.100000</speed>
</trkpt>
<trkpt lat="21.046066" lon="105.793961">
<ele>12.242561</ele>
<time>2011-04-29T10:46:00Z</time>
<desc>lat.=21.046066, lon.=105.793961, Alt.=12.242561m. Speed=0.180000m/h.</desc>
<speed>0.050000</speed>
</trkpt>
<trkpt lat="21.046066" lon="105.793961">
<ele>12.197151</ele>
<time>2011-04-29T10:46:05Z</time>
<desc>lat.=21.046066, lon.=105.793961, Alt.=12.197151m. Speed=0.144000m/h.</desc>
<speed>0.040000</speed>
</trkpt>
<trkpt lat="21.046066" lon="105.793961">
<ele>11.840462</ele>
<time>2011-04-29T10:46:10Z</time>
<desc>lat.=21.046066, lon.=105.793961, Alt.=11.840462m. Speed=0.108000m/h.</desc>
<speed>0.030000</speed>
</trkpt>
<trkpt lat="21.046062" lon="105.793968">
<ele>11.444954</ele>
<time>2011-04-29T10:46:15Z</time>
<desc>lat.=21.046062, lon.=105.793968, Alt.=11.444954m. Speed=0.324000m/h.</desc>
<speed>0.090000</speed>
</trkpt>
<trkpt lat="21.046064" lon="105.793968">
<ele>10.596321</ele>
<time>2011-04-29T10:46:20Z</time>
<desc>lat.=21.046064, lon.=105.793968, Alt.=10.596321m. Speed=0.756000m/h.</desc>
<speed>0.210000</speed>
</trkpt>
<trkpt lat="21.046061" lon="105.793961">
<ele>9.789925</ele>
<time>2011-04-29T10:46:25Z</time>
<desc>lat.=21.046061, lon.=105.793961, Alt.=9.789925m. Speed=0.072000m/h.</desc>
<speed>0.020000</speed>
</trkpt>
<trkpt lat="21.046066" lon="105.793961">
<ele>9.804329</ele>
<time>2011-04-29T10:46:30Z</time>
<desc>lat.=21.046066, lon.=105.793961, Alt.=9.804329m. Speed=0.180000m/h.</desc>
<speed>0.050000</speed>
</trkpt>
<trkpt lat="21.046072" lon="105.793976">
<ele>9.379036</ele>
<time>2011-04-29T10:46:35Z</time>
<desc>lat.=21.046072, lon.=105.793976, Alt.=9.379036m. Speed=0.252000m/h.</desc>
<speed>0.070000</speed>
</trkpt>
<trkpt lat="21.046066" lon="105.794090">
<ele>9.186653</ele>
<time>2011-04-29T10:46:40Z</time>
<desc>lat.=21.046066, lon.=105.794090, Alt.=9.186653m. Speed=12.348000m/h.</desc>
<speed>3.430000</speed>
</trkpt>
<trkpt lat="21.046072" lon="105.794266">
<ele>9.277229</ele>
<time>2011-04-29T10:46:45Z</time>
<desc>lat.=21.046072, lon.=105.794266, Alt.=9.277229m. Speed=12.924000m/h.</desc>
<speed>3.590000</speed>
</trkpt>
<trkpt lat="21.046066" lon="105.794472">
<ele>8.782112</ele>
<time>2011-04-29T10:46:50Z</time>
<desc>lat.=21.046066, lon.=105.794472, Alt.=8.782112m. Speed=16.559999m/h.</desc>
<speed>4.600000</speed>
</trkpt>
<trkpt lat="21.046074" lon="105.794701">
<ele>9.842415</ele>
<time>2011-04-29T10:46:55Z</time>
<desc>lat.=21.046074, lon.=105.794701, Alt.=9.842415m. Speed=15.408000m/h.</desc>
<speed>4.280000</speed>
</trkpt>
<trkpt lat="21.046080" lon="105.794937">
<ele>10.480354</ele>
<time>2011-04-29T10:47:00Z</time>
<desc>lat.=21.046080, lon.=105.794937, Alt.=10.480354m. Speed=18.648001m/h.</desc>
<speed>5.180000</speed>
</trkpt>
<trkpt lat="21.046089" lon="105.795204">
<ele>12.730110</ele>
<time>2011-04-29T10:47:05Z</time>
<desc>lat.=21.046089, lon.=105.795204, Alt.=12.730110m. Speed=20.124001m/h.</desc>
<speed>5.590000</speed>
</trkpt>
<trkpt lat="21.046087" lon="105.795471">
<ele>13.669319</ele>
<time>2011-04-29T10:47:10Z</time>
<desc>lat.=21.046087, lon.=105.795471, Alt.=13.669319m. Speed=19.548000m/h.</desc>
<speed>5.430000</speed>
</trkpt>
<trkpt lat="21.046087" lon="105.795761">
<ele>15.574348</ele>
<time>2011-04-29T10:47:15Z</time>
<desc>lat.=21.046087, lon.=105.795761, Alt.=15.574348m. Speed=19.476000m/h.</desc>
<speed>5.410000</speed>
</trkpt>
<trkpt lat="21.046083" lon="105.796005">
<ele>23.226822</ele>
<time>2011-04-29T10:47:20Z</time>
<desc>lat.=21.046083, lon.=105.796005, Alt.=23.226822m. Speed=16.812000m/h.</desc>
<speed>4.670000</speed>
</trkpt>
<trkpt lat="21.046082" lon="105.796227">
<ele>24.634048</ele>
<time>2011-04-29T10:47:25Z</time>
<desc>lat.=21.046082, lon.=105.796227, Alt.=24.634048m. Speed=15.948000m/h.</desc>
<speed>4.430000</speed>
</trkpt>
<trkpt lat="21.046066" lon="105.796486">
<ele>24.650650</ele>
<time>2011-04-29T10:47:30Z</time>
<desc>lat.=21.046066, lon.=105.796486, Alt.=24.650650m. Speed=19.440001m/h.</desc>
<speed>5.400000</speed>
</trkpt>
<trkpt lat="21.046068" lon="105.796715">
<ele>22.653580</ele>
<time>2011-04-29T10:47:35Z</time>
<desc>lat.=21.046068, lon.=105.796715, Alt.=22.653580m. Speed=11.880000m/h.</desc>
<speed>3.300000</speed>
</trkpt>
<trkpt lat="21.046064" lon="105.796860">
<ele>22.376236</ele>
<time>2011-04-29T10:47:40Z</time>
<desc>lat.=21.046064, lon.=105.796860, Alt.=22.376236m. Speed=9.324000m/h.</desc>
<speed>2.590000</speed>
</trkpt>
<trkpt lat="21.046072" lon="105.796989">
<ele>19.049088</ele>
<time>2011-04-29T10:47:45Z</time>
<desc>lat.=21.046072, lon.=105.796989, Alt.=19.049088m. Speed=6.876000m/h.</desc>
<speed>1.910000</speed>
</trkpt>
<trkpt lat="21.046074" lon="105.797127">
<ele>16.828873</ele>
<time>2011-04-29T10:47:50Z</time>
<desc>lat.=21.046074, lon.=105.797127, Alt.=16.828873m. Speed=14.256000m/h.</desc>
<speed>3.960000</speed>
</trkpt>
<trkpt lat="21.046064" lon="105.797325">
<ele>15.565315</ele>
<time>2011-04-29T10:47:55Z</time>
<desc>lat.=21.046064, lon.=105.797325, Alt.=15.565315m. Speed=10.548000m/h.</desc>
<speed>2.930000</speed>
</trkpt>
<trkpt lat="21.046064" lon="105.797424">
<ele>15.700081</ele>
<time>2011-04-29T10:48:00Z</time>
<desc>lat.=21.046064, lon.=105.797424, Alt.=15.700081m. Speed=7.164000m/h.</desc>
<speed>1.990000</speed>
</trkpt>
<trkpt lat="21.046083" lon="105.797554">
<ele>16.370377</ele>
<time>2011-04-29T10:48:05Z</time>
<desc>lat.=21.046083, lon.=105.797554, Alt.=16.370377m. Speed=12.564000m/h.</desc>
<speed>3.490000</speed>
</trkpt>
<trkpt lat="21.046104" lon="105.797775">
<ele>15.391731</ele>
<time>2011-04-29T10:48:10Z</time>
<desc>lat.=21.046104, lon.=105.797775, Alt.=15.391731m. Speed=21.312000m/h.</desc>
<speed>5.920000</speed>
</trkpt>
<trkpt lat="21.046083" lon="105.798073">
<ele>15.580696</ele>
<time>2011-04-29T10:48:15Z</time>
<desc>lat.=21.046083, lon.=105.798073, Alt.=15.580696m. Speed=20.448000m/h.</desc>
<speed>5.680000</speed>
</trkpt>
<trkpt lat="21.046082" lon="105.798363">
<ele>15.983772</ele>
<time>2011-04-29T10:48:20Z</time>
<desc>lat.=21.046082, lon.=105.798363, Alt.=15.983772m. Speed=22.608000m/h.</desc>
<speed>6.280000</speed>
</trkpt>
<trkpt lat="21.046101" lon="105.798660">
<ele>17.333267</ele>
<time>2011-04-29T10:48:25Z</time>
<desc>lat.=21.046101, lon.=105.798660, Alt.=17.333267m. Speed=21.636000m/h.</desc>
<speed>6.010000</speed>
</trkpt>
<trkpt lat="21.046110" lon="105.798981">
<ele>17.425064</ele>
<time>2011-04-29T10:48:30Z</time>
<desc>lat.=21.046110, lon.=105.798981, Alt.=17.425064m. Speed=22.896000m/h.</desc>
<speed>6.360000</speed>
</trkpt>
<trkpt lat="21.046095" lon="105.799301">
<ele>17.142349</ele>
<time>2011-04-29T10:48:35Z</time>
<desc>lat.=21.046095, lon.=105.799301, Alt.=17.142349m. Speed=23.652000m/h.</desc>
<speed>6.570000</speed>
</trkpt>
<trkpt lat="21.046103" lon="105.799622">
<ele>17.602310</ele>
<time>2011-04-29T10:48:40Z</time>
<desc>lat.=21.046103, lon.=105.799622, Alt.=17.602310m. Speed=23.903999m/h.</desc>
<speed>6.640000</speed>
</trkpt>
<trkpt lat="21.046106" lon="105.799927">
<ele>17.635025</ele>
<time>2011-04-29T10:48:45Z</time>
<desc>lat.=21.046106, lon.=105.799927, Alt.=17.635025m. Speed=22.212000m/h.</desc>
<speed>6.170000</speed>
</trkpt>
<trkpt lat="21.046101" lon="105.800201">
<ele>20.435318</ele>
<time>2011-04-29T10:48:50Z</time>
<desc>lat.=21.046101, lon.=105.800201, Alt.=20.435318m. Speed=21.528000m/h.</desc>
<speed>5.980000</speed>
</trkpt>
<trkpt lat="21.046099" lon="105.800522">
<ele>18.719498</ele>
<time>2011-04-29T10:48:55Z</time>
<desc>lat.=21.046099, lon.=105.800522, Alt.=18.719498m. Speed=24.372000m/h.</desc>
<speed>6.770000</speed>
</trkpt>
<trkpt lat="21.046097" lon="105.800835">
<ele>18.013931</ele>
<time>2011-04-29T10:49:00Z</time>
<desc>lat.=21.046097, lon.=105.800835, Alt.=18.013931m. Speed=21.024000m/h.</desc>
<speed>5.840000</speed>
</trkpt>
<trkpt lat="21.046091" lon="105.801125">
<ele>16.360611</ele>
<time>2011-04-29T10:49:05Z</time>
<desc>lat.=21.046091, lon.=105.801125, Alt.=16.360611m. Speed=21.708000m/h.</desc>
<speed>6.030000</speed>
</trkpt>
<trkpt lat="21.046101" lon="105.801392">
<ele>16.622330</ele>
<time>2011-04-29T10:49:10Z</time>
<desc>lat.=21.046101, lon.=105.801392, Alt.=16.622330m. Speed=19.764000m/h.</desc>
<speed>5.490000</speed>
</trkpt>
<trkpt lat="21.046104" lon="105.801704">
<ele>15.001350</ele>
<time>2011-04-29T10:49:15Z</time>
<desc>lat.=21.046104, lon.=105.801704, Alt.=15.001350m. Speed=22.032000m/h.</desc>
<speed>6.120000</speed>
</trkpt>
<trkpt lat="21.046118" lon="105.802032">
<ele>14.122688</ele>
<time>2011-04-29T10:49:20Z</time>
<desc>lat.=21.046118, lon.=105.802032, Alt.=14.122688m. Speed=23.400000m/h.</desc>
<speed>6.500000</speed>
</trkpt>
<trkpt lat="21.046116" lon="105.802345">
<ele>13.766243</ele>
<time>2011-04-29T10:49:25Z</time>
<desc>lat.=21.046116, lon.=105.802345, Alt.=13.766243m. Speed=21.420000m/h.</desc>
<speed>5.950000</speed>
</trkpt>
<trkpt lat="21.046118" lon="105.802620">
<ele>13.784554</ele>
<time>2011-04-29T10:49:30Z</time>
<desc>lat.=21.046118, lon.=105.802620, Alt.=13.784554m. Speed=20.160000m/h.</desc>
<speed>5.600000</speed>
</trkpt>
<trkpt lat="21.046125" lon="105.802925">
<ele>14.165901</ele>
<time>2011-04-29T10:49:35Z</time>
<desc>lat.=21.046125, lon.=105.802925, Alt.=14.165901m. Speed=25.091999m/h.</desc>
<speed>6.970000</speed>
</trkpt>
<trkpt lat="21.046118" lon="105.803276">
<ele>13.594368</ele>
<time>2011-04-29T10:49:40Z</time>
<desc>lat.=21.046118, lon.=105.803276, Alt.=13.594368m. Speed=25.884001m/h.</desc>
<speed>7.190000</speed>
</trkpt>
<trkpt lat="21.046110" lon="105.803596">
<ele>14.202278</ele>
<time>2011-04-29T10:49:45Z</time>
<desc>lat.=21.046110, lon.=105.803596, Alt.=14.202278m. Speed=21.672001m/h.</desc>
<speed>6.020000</speed>
</trkpt>
<trkpt lat="21.046103" lon="105.803848">
<ele>13.364143</ele>
<time>2011-04-29T10:49:50Z</time>
<desc>lat.=21.046103, lon.=105.803848, Alt.=13.364143m. Speed=17.856001m/h.</desc>
<speed>4.960000</speed>
</trkpt>
<trkpt lat="21.046097" lon="105.804062">
<ele>12.128792</ele>
<time>2011-04-29T10:49:55Z</time>
<desc>lat.=21.046097, lon.=105.804062, Alt.=12.128792m. Speed=17.892000m/h.</desc>
<speed>4.970000</speed>
</trkpt>
<trkpt lat="21.046110" lon="105.804329">
<ele>13.378792</ele>
<time>2011-04-29T10:50:00Z</time>
<desc>lat.=21.046110, lon.=105.804329, Alt.=13.378792m. Speed=20.268000m/h.</desc>
<speed>5.630000</speed>
</trkpt>
<trkpt lat="21.046112" lon="105.804581">
<ele>14.134163</ele>
<time>2011-04-29T10:50:05Z</time>
<desc>lat.=21.046112, lon.=105.804581, Alt.=14.134163m. Speed=18.936001m/h.</desc>
<speed>5.260000</speed>
</trkpt>
<trkpt lat="21.046101" lon="105.804825">
<ele>13.590706</ele>
<time>2011-04-29T10:50:10Z</time>
<desc>lat.=21.046101, lon.=105.804825, Alt.=13.590706m. Speed=18.504000m/h.</desc>
<speed>5.140000</speed>
</trkpt>
<trkpt lat="21.046097" lon="105.805061">
<ele>13.077522</ele>
<time>2011-04-29T10:50:15Z</time>
<desc>lat.=21.046097, lon.=105.805061, Alt.=13.077522m. Speed=14.616000m/h.</desc>
<speed>4.060000</speed>
</trkpt>
<trkpt lat="21.046059" lon="105.805260">
<ele>13.052376</ele>
<time>2011-04-29T10:50:20Z</time>
<desc>lat.=21.046059, lon.=105.805260, Alt.=13.052376m. Speed=16.056000m/h.</desc>
<speed>4.460000</speed>
</trkpt>
<trkpt lat="21.045961" lon="105.805466">
<ele>14.169563</ele>
<time>2011-04-29T10:50:25Z</time>
<desc>lat.=21.045961, lon.=105.805466, Alt.=14.169563m. Speed=15.480000m/h.</desc>
<speed>4.300000</speed>
</trkpt>
<trkpt lat="21.046009" lon="105.805641">
<ele>14.353157</ele>
<time>2011-04-29T10:50:30Z</time>
<desc>lat.=21.046009, lon.=105.805641, Alt.=14.353157m. Speed=11.736000m/h.</desc>
<speed>3.260000</speed>
</trkpt>
<trkpt lat="21.046009" lon="105.805733">
<ele>13.554817</ele>
<time>2011-04-29T10:50:35Z</time>
<desc>lat.=21.046009, lon.=105.805733, Alt.=13.554817m. Speed=1.764000m/h.</desc>
<speed>0.490000</speed>
</trkpt>
<trkpt lat="21.046011" lon="105.805748">
<ele>13.786263</ele>
<time>2011-04-29T10:50:40Z</time>
<desc>lat.=21.046011, lon.=105.805748, Alt.=13.786263m. Speed=2.448000m/h.</desc>
<speed>0.680000</speed>
</trkpt>
<trkpt lat="21.046011" lon="105.805756">
<ele>13.700813</ele>
<time>2011-04-29T10:50:45Z</time>
<desc>lat.=21.046011, lon.=105.805756, Alt.=13.700813m. Speed=1.404000m/h.</desc>
<speed>0.390000</speed>
</trkpt>
<trkpt lat="21.046007" lon="105.805763">
<ele>13.712776</ele>
<time>2011-04-29T10:50:50Z</time>
<desc>lat.=21.046007, lon.=105.805763, Alt.=13.712776m. Speed=1.584000m/h.</desc>
<speed>0.440000</speed>
</trkpt>
<trkpt lat="21.045967" lon="105.805794">
<ele>13.416145</ele>
<time>2011-04-29T10:50:55Z</time>
<desc>lat.=21.045967, lon.=105.805794, Alt.=13.416145m. Speed=5.832000m/h.</desc>
<speed>1.620000</speed>
</trkpt>
<trkpt lat="21.045847" lon="105.805824">
<ele>12.926888</ele>
<time>2011-04-29T10:51:00Z</time>
<desc>lat.=21.045847, lon.=105.805824, Alt.=12.926888m. Speed=14.076000m/h.</desc>
<speed>3.910000</speed>
</trkpt>
<trkpt lat="21.045670" lon="105.805870">
<ele>13.681526</ele>
<time>2011-04-29T10:51:05Z</time>
<desc>lat.=21.045670, lon.=105.805870, Alt.=13.681526m. Speed=13.752000m/h.</desc>
<speed>3.820000</speed>
</trkpt>
<trkpt lat="21.045504" lon="105.805893">
<ele>13.918587</ele>
<time>2011-04-29T10:51:10Z</time>
<desc>lat.=21.045504, lon.=105.805893, Alt.=13.918587m. Speed=12.528000m/h.</desc>
<speed>3.480000</speed>
</trkpt>
<trkpt lat="21.045370" lon="105.805908">
<ele>14.154427</ele>
<time>2011-04-29T10:51:15Z</time>
<desc>lat.=21.045370, lon.=105.805908, Alt.=14.154427m. Speed=8.064000m/h.</desc>
<speed>2.240000</speed>
</trkpt>
<trkpt lat="21.045286" lon="105.805908">
<ele>14.675423</ele>
<time>2011-04-29T10:51:20Z</time>
<desc>lat.=21.045286, lon.=105.805908, Alt.=14.675423m. Speed=5.184000m/h.</desc>
<speed>1.440000</speed>
</trkpt>
<trkpt lat="21.045227" lon="105.805916">
<ele>15.403938</ele>
<time>2011-04-29T10:51:25Z</time>
<desc>lat.=21.045227, lon.=105.805916, Alt.=15.403938m. Speed=5.976000m/h.</desc>
<speed>1.660000</speed>
</trkpt>
<trkpt lat="21.045242" lon="105.805992">
<ele>17.011002</ele>
<time>2011-04-29T10:51:30Z</time>
<desc>lat.=21.045242, lon.=105.805992, Alt.=17.011002m. Speed=11.844000m/h.</desc>
<speed>3.290000</speed>
</trkpt>
<trkpt lat="21.045372" lon="105.806023">
<ele>17.309830</ele>
<time>2011-04-29T10:51:35Z</time>
<desc>lat.=21.045372, lon.=105.806023, Alt.=17.309830m. Speed=10.008000m/h.</desc>
<speed>2.780000</speed>
</trkpt>
<trkpt lat="21.045458" lon="105.806053">
<ele>18.507095</ele>
<time>2011-04-29T10:51:40Z</time>
<desc>lat.=21.045458, lon.=105.806053, Alt.=18.507095m. Speed=4.464000m/h.</desc>
<speed>1.240000</speed>
</trkpt>
<trkpt lat="21.045542" lon="105.806053">
<ele>20.424576</ele>
<time>2011-04-29T10:51:45Z</time>
<desc>lat.=21.045542, lon.=105.806053, Alt.=20.424576m. Speed=3.888000m/h.</desc>
<speed>1.080000</speed>
</trkpt>
<trkpt lat="21.045567" lon="105.806053">
<ele>24.153091</ele>
<time>2011-04-29T10:51:50Z</time>
<desc>lat.=21.045567, lon.=105.806053, Alt.=24.153091m. Speed=1.368000m/h.</desc>
<speed>0.380000</speed>
</trkpt>
<trkpt lat="21.045555" lon="105.806046">
<ele>25.848404</ele>
<time>2011-04-29T10:51:55Z</time>
<desc>lat.=21.045555, lon.=105.806046, Alt.=25.848404m. Speed=0.540000m/h.</desc>
<speed>0.150000</speed>
</trkpt>
<trkpt lat="21.045547" lon="105.806046">
<ele>27.380630</ele>
<time>2011-04-29T10:52:00Z</time>
<desc>lat.=21.045547, lon.=105.806046, Alt.=27.380630m. Speed=0.540000m/h.</desc>
<speed>0.150000</speed>
</trkpt>
<trkpt lat="21.045542" lon="105.806046">
<ele>28.026627</ele>
<time>2011-04-29T10:52:05Z</time>
<desc>lat.=21.045542, lon.=105.806046, Alt.=28.026627m. Speed=0.036000m/h.</desc>
<speed>0.010000</speed>
</trkpt>
<trkpt lat="21.045542" lon="105.806038">
<ele>28.185318</ele>
<time>2011-04-29T10:52:10Z</time>
<desc>lat.=21.045542, lon.=105.806038, Alt.=28.185318m. Speed=0.648000m/h.</desc>
<speed>0.180000</speed>
</trkpt>
<trkpt lat="21.045540" lon="105.806038">
<ele>28.148697</ele>
<time>2011-04-29T10:52:15Z</time>
<desc>lat.=21.045540, lon.=105.806038, Alt.=28.148697m. Speed=0.180000m/h.</desc>
<speed>0.050000</speed>
</trkpt>
<trkpt lat="21.045540" lon="105.806038">
<ele>28.119400</ele>
<time>2011-04-29T10:52:20Z</time>
<desc>lat.=21.045540, lon.=105.806038, Alt.=28.119400m. Speed=0.288000m/h.</desc>
<speed>0.080000</speed>
</trkpt>
<trkpt lat="21.045544" lon="105.806038">
<ele>28.083755</ele>
<time>2011-04-29T10:52:25Z</time>
<desc>lat.=21.045544, lon.=105.806038, Alt.=28.083755m. Speed=0.360000m/h.</desc>
<speed>0.100000</speed>
</trkpt>
<trkpt lat="21.045546" lon="105.806038">
<ele>28.073013</ele>
<time>2011-04-29T10:52:30Z</time>
<desc>lat.=21.045546, lon.=105.806038, Alt.=28.073013m. Speed=3.168000m/h.</desc>
<speed>0.880000</speed>
</trkpt>
<trkpt lat="21.045660" lon="105.806068">
<ele>27.578873</ele>
<time>2011-04-29T10:52:35Z</time>
<desc>lat.=21.045660, lon.=105.806068, Alt.=27.578873m. Speed=9.144000m/h.</desc>
<speed>2.540000</speed>
</trkpt>
<trkpt lat="21.045860" lon="105.806061">
<ele>26.789810</ele>
<time>2011-04-29T10:52:40Z</time>
<desc>lat.=21.045860, lon.=105.806061, Alt.=26.789810m. Speed=7.272000m/h.</desc>
<speed>2.020000</speed>
</trkpt>
<trkpt lat="21.046013" lon="105.806061">
<ele>25.062759</ele>
<time>2011-04-29T10:52:45Z</time>
<desc>lat.=21.046013, lon.=105.806061, Alt.=25.062759m. Speed=7.740000m/h.</desc>
<speed>2.150000</speed>
</trkpt>
<trkpt lat="21.046225" lon="105.806030">
<ele>22.268814</ele>
<time>2011-04-29T10:52:50Z</time>
<desc>lat.=21.046225, lon.=105.806030, Alt.=22.268814m. Speed=9.720000m/h.</desc>
<speed>2.700000</speed>
</trkpt>
<trkpt lat="21.046350" lon="105.806023">
<ele>22.421646</ele>
<time>2011-04-29T10:52:55Z</time>
<desc>lat.=21.046350, lon.=105.806023, Alt.=22.421646m. Speed=7.488000m/h.</desc>
<speed>2.080000</speed>
</trkpt>
<trkpt lat="21.046474" lon="105.806030">
<ele>20.845474</ele>
<time>2011-04-29T10:53:00Z</time>
<desc>lat.=21.046474, lon.=105.806030, Alt.=20.845474m. Speed=9.432000m/h.</desc>
<speed>2.620000</speed>
</trkpt>
<trkpt lat="21.046633" lon="105.806015">
<ele>20.167252</ele>
<time>2011-04-29T10:53:05Z</time>
<desc>lat.=21.046633, lon.=105.806015, Alt.=20.167252m. Speed=8.496000m/h.</desc>
<speed>2.360000</speed>
</trkpt>
<trkpt lat="21.046701" lon="105.806030">
<ele>19.307877</ele>
<time>2011-04-29T10:53:10Z</time>
<desc>lat.=21.046701, lon.=105.806030, Alt.=19.307877m. Speed=2.844000m/h.</desc>
<speed>0.790000</speed>
</trkpt>
<trkpt lat="21.046780" lon="105.806007">
<ele>19.927017</ele>
<time>2011-04-29T10:53:15Z</time>
<desc>lat.=21.046780, lon.=105.806007, Alt.=19.927017m. Speed=2.988000m/h.</desc>
<speed>0.830000</speed>
</trkpt>
<trkpt lat="21.046867" lon="105.806000">
<ele>20.390396</ele>
<time>2011-04-29T10:53:20Z</time>
<desc>lat.=21.046867, lon.=105.806000, Alt.=20.390396m. Speed=2.664000m/h.</desc>
<speed>0.740000</speed>
</trkpt>
<trkpt lat="21.046909" lon="105.805969">
<ele>23.469498</ele>
<time>2011-04-29T10:53:25Z</time>
<desc>lat.=21.046909, lon.=105.805969, Alt.=23.469498m. Speed=2.160000m/h.</desc>
<speed>0.600000</speed>
</trkpt>
<trkpt lat="21.046930" lon="105.805962">
<ele>23.199478</ele>
<time>2011-04-29T10:53:30Z</time>
<desc>lat.=21.046930, lon.=105.805962, Alt.=23.199478m. Speed=1.152000m/h.</desc>
<speed>0.320000</speed>
</trkpt>
<trkpt lat="21.046965" lon="105.805946">
<ele>24.357681</ele>
<time>2011-04-29T10:53:35Z</time>
<desc>lat.=21.046965, lon.=105.805946, Alt.=24.357681m. Speed=2.700000m/h.</desc>
<speed>0.750000</speed>
</trkpt>
<trkpt lat="21.046995" lon="105.805962">
<ele>21.907486</ele>
<time>2011-04-29T10:53:40Z</time>
<desc>lat.=21.046995, lon.=105.805962, Alt.=21.907486m. Speed=0.756000m/h.</desc>
<speed>0.210000</speed>
</trkpt>
<trkpt lat="21.047035" lon="105.805954">
<ele>22.809830</ele>
<time>2011-04-29T10:53:45Z</time>
<desc>lat.=21.047035, lon.=105.805954, Alt.=22.809830m. Speed=4.500000m/h.</desc>
<speed>1.250000</speed>
</trkpt>
<trkpt lat="21.047094" lon="105.805954">
<ele>22.075455</ele>
<time>2011-04-29T10:53:50Z</time>
<desc>lat.=21.047094, lon.=105.805954, Alt.=22.075455m. Speed=5.508000m/h.</desc>
<speed>1.530000</speed>
</trkpt>
<trkpt lat="21.047148" lon="105.805969">
<ele>20.378677</ele>
<time>2011-04-29T10:53:55Z</time>
<desc>lat.=21.047148, lon.=105.805969, Alt.=20.378677m. Speed=3.888000m/h.</desc>
<speed>1.080000</speed>
</trkpt>
<trkpt lat="21.047194" lon="105.805977">
<ele>20.546158</ele>
<time>2011-04-29T10:54:00Z</time>
<desc>lat.=21.047194, lon.=105.805977, Alt.=20.546158m. Speed=3.528000m/h.</desc>
<speed>0.980000</speed>
</trkpt>
<trkpt lat="21.047249" lon="105.805984">
<ele>21.256119</ele>
<time>2011-04-29T10:54:05Z</time>
<desc>lat.=21.047249, lon.=105.805984, Alt.=21.256119m. Speed=5.148000m/h.</desc>
<speed>1.430000</speed>
</trkpt>
<trkpt lat="21.047329" lon="105.806015">
<ele>21.138931</ele>
<time>2011-04-29T10:54:10Z</time>
<desc>lat.=21.047329, lon.=105.806015, Alt.=21.138931m. Speed=6.516000m/h.</desc>
<speed>1.810000</speed>
</trkpt>
<trkpt lat="21.047459" lon="105.806091">
<ele>21.204849</ele>
<time>2011-04-29T10:54:15Z</time>
<desc>lat.=21.047459, lon.=105.806091, Alt.=21.204849m. Speed=12.564000m/h.</desc>
<speed>3.490000</speed>
</trkpt>
<trkpt lat="21.047516" lon="105.806259">
<ele>20.116959</ele>
<time>2011-04-29T10:54:20Z</time>
<desc>lat.=21.047516, lon.=105.806259, Alt.=20.116959m. Speed=13.608000m/h.</desc>
<speed>3.780000</speed>
</trkpt>
<trkpt lat="21.047501" lon="105.806381">
<ele>20.140884</ele>
<time>2011-04-29T10:54:25Z</time>
<desc>lat.=21.047501, lon.=105.806381, Alt.=20.140884m. Speed=6.840000m/h.</desc>
<speed>1.900000</speed>
</trkpt>
<trkpt lat="21.047497" lon="105.806496">
<ele>19.406509</ele>
<time>2011-04-29T10:54:30Z</time>
<desc>lat.=21.047497, lon.=105.806496, Alt.=19.406509m. Speed=8.028000m/h.</desc>
<speed>2.230000</speed>
</trkpt>
<trkpt lat="21.047491" lon="105.806610">
<ele>20.064713</ele>
<time>2011-04-29T10:54:35Z</time>
<desc>lat.=21.047491, lon.=105.806610, Alt.=20.064713m. Speed=5.040000m/h.</desc>
<speed>1.400000</speed>
</trkpt>
<trkpt lat="21.047482" lon="105.806694">
<ele>21.255142</ele>
<time>2011-04-29T10:54:40Z</time>
<desc>lat.=21.047482, lon.=105.806694, Alt.=21.255142m. Speed=6.264000m/h.</desc>
<speed>1.740000</speed>
</trkpt>
<trkpt lat="21.047457" lon="105.806824">
<ele>23.167252</ele>
<time>2011-04-29T10:54:45Z</time>
<desc>lat.=21.047457, lon.=105.806824, Alt.=23.167252m. Speed=3.312000m/h.</desc>
<speed>0.920000</speed>
</trkpt>
<trkpt lat="21.047417" lon="105.806915">
<ele>24.507584</ele>
<time>2011-04-29T10:54:50Z</time>
<desc>lat.=21.047417, lon.=105.806915, Alt.=24.507584m. Speed=5.760000m/h.</desc>
<speed>1.600000</speed>
</trkpt>
<trkpt lat="21.047441" lon="105.807030">
<ele>24.536392</ele>
<time>2011-04-29T10:54:55Z</time>
<desc>lat.=21.047441, lon.=105.807030, Alt.=24.536392m. Speed=6.804000m/h.</desc>
<speed>1.890000</speed>
</trkpt>
<trkpt lat="21.047436" lon="105.807350">
<ele>23.112564</ele>
<time>2011-04-29T10:55:00Z</time>
<desc>lat.=21.047436, lon.=105.807350, Alt.=23.112564m. Speed=13.500000m/h.</desc>
<speed>3.750000</speed>
</trkpt>
<trkpt lat="21.047415" lon="105.807617">
<ele>24.083267</ele>
<time>2011-04-29T10:55:05Z</time>
<desc>lat.=21.047415, lon.=105.807617, Alt.=24.083267m. Speed=16.416000m/h.</desc>
<speed>4.560000</speed>
</trkpt>
<trkpt lat="21.047348" lon="105.807892">
<ele>24.425552</ele>
<time>2011-04-29T10:55:10Z</time>
<desc>lat.=21.047348, lon.=105.807892, Alt.=24.425552m. Speed=17.459999m/h.</desc>
<speed>4.850000</speed>
</trkpt>
<trkpt lat="21.047369" lon="105.808098">
<ele>24.719498</ele>
<time>2011-04-29T10:55:15Z</time>
<desc>lat.=21.047369, lon.=105.808098, Alt.=24.719498m. Speed=9.252000m/h.</desc>
<speed>2.570000</speed>
</trkpt>
<trkpt lat="21.047270" lon="105.808289">
<ele>20.741959</ele>
<time>2011-04-29T10:55:20Z</time>
<desc>lat.=21.047270, lon.=105.808289, Alt.=20.741959m. Speed=8.748000m/h.</desc>
<speed>2.430000</speed>
</trkpt>
<trkpt lat="21.047220" lon="105.808456">
<ele>19.353775</ele>
<time>2011-04-29T10:55:25Z</time>
<desc>lat.=21.047220, lon.=105.808456, Alt.=19.353775m. Speed=3.888000m/h.</desc>
<speed>1.080000</speed>
</trkpt>
<trkpt lat="21.047195" lon="105.808525">
<ele>19.616470</ele>
<time>2011-04-29T10:55:30Z</time>
<desc>lat.=21.047195, lon.=105.808525, Alt.=19.616470m. Speed=3.744000m/h.</desc>
<speed>1.040000</speed>
</trkpt>
<trkpt lat="21.047171" lon="105.808594">
<ele>17.906998</ele>
<time>2011-04-29T10:55:35Z</time>
<desc>lat.=21.047171, lon.=105.808594, Alt.=17.906998m. Speed=4.428000m/h.</desc>
<speed>1.230000</speed>
</trkpt>
<trkpt lat="21.047134" lon="105.808640">
<ele>18.138931</ele>
<time>2011-04-29T10:55:40Z</time>
<desc>lat.=21.047134, lon.=105.808640, Alt.=18.138931m. Speed=5.796000m/h.</desc>
<speed>1.610000</speed>
</trkpt>
<trkpt lat="21.047096" lon="105.808739">
<ele>18.192642</ele>
<time>2011-04-29T10:55:45Z</time>
<desc>lat.=21.047096, lon.=105.808739, Alt.=18.192642m. Speed=3.672000m/h.</desc>
<speed>1.020000</speed>
</trkpt>
<trkpt lat="21.047079" lon="105.808846">
<ele>19.012466</ele>
<time>2011-04-29T10:55:50Z</time>
<desc>lat.=21.047079, lon.=105.808846, Alt.=19.012466m. Speed=10.944000m/h.</desc>
<speed>3.040000</speed>
</trkpt>
<trkpt lat="21.047054" lon="105.808914">
<ele>21.042252</ele>
<time>2011-04-29T10:55:55Z</time>
<desc>lat.=21.047054, lon.=105.808914, Alt.=21.042252m. Speed=4.500000m/h.</desc>
<speed>1.250000</speed>
</trkpt>
<trkpt lat="21.047001" lon="105.809021">
<ele>21.065689</ele>
<time>2011-04-29T10:56:00Z</time>
<desc>lat.=21.047001, lon.=105.809021, Alt.=21.065689m. Speed=7.848000m/h.</desc>
<speed>2.180000</speed>
</trkpt>
<trkpt lat="21.046892" lon="105.809204">
<ele>22.506607</ele>
<time>2011-04-29T10:56:05Z</time>
<desc>lat.=21.046892, lon.=105.809204, Alt.=22.506607m. Speed=12.060000m/h.</desc>
<speed>3.350000</speed>
</trkpt>
<trkpt lat="21.046808" lon="105.809402">
<ele>23.675552</ele>
<time>2011-04-29T10:56:10Z</time>
<desc>lat.=21.046808, lon.=105.809402, Alt.=23.675552m. Speed=14.652000m/h.</desc>
<speed>4.070000</speed>
</trkpt>
<trkpt lat="21.046703" lon="105.809608">
<ele>23.606705</ele>
<time>2011-04-29T10:56:15Z</time>
<desc>lat.=21.046703, lon.=105.809608, Alt.=23.606705m. Speed=17.459999m/h.</desc>
<speed>4.850000</speed>
</trkpt>
<trkpt lat="21.046581" lon="105.809898">
<ele>24.996841</ele>
<time>2011-04-29T10:56:20Z</time>
<desc>lat.=21.046581, lon.=105.809898, Alt.=24.996841m. Speed=16.056000m/h.</desc>
<speed>4.460000</speed>
</trkpt>
<trkpt lat="21.046501" lon="105.810089">
<ele>25.111588</ele>
<time>2011-04-29T10:56:25Z</time>
<desc>lat.=21.046501, lon.=105.810089, Alt.=25.111588m. Speed=11.556000m/h.</desc>
<speed>3.210000</speed>
</trkpt>
<trkpt lat="21.046406" lon="105.810265">
<ele>25.020279</ele>
<time>2011-04-29T10:56:30Z</time>
<desc>lat.=21.046406, lon.=105.810265, Alt.=25.020279m. Speed=12.132000m/h.</desc>
<speed>3.370000</speed>
</trkpt>
<trkpt lat="21.046316" lon="105.810471">
<ele>24.952896</ele>
<time>2011-04-29T10:56:35Z</time>
<desc>lat.=21.046316, lon.=105.810471, Alt.=24.952896m. Speed=14.652000m/h.</desc>
<speed>4.070000</speed>
</trkpt>
<trkpt lat="21.046215" lon="105.810684">
<ele>26.162369</ele>
<time>2011-04-29T10:56:40Z</time>
<desc>lat.=21.046215, lon.=105.810684, Alt.=26.162369m. Speed=11.808000m/h.</desc>
<speed>3.280000</speed>
</trkpt>
<trkpt lat="21.046108" lon="105.810890">
<ele>24.451431</ele>
<time>2011-04-29T10:56:45Z</time>
<desc>lat.=21.046108, lon.=105.810890, Alt.=24.451431m. Speed=15.084000m/h.</desc>
<speed>4.190000</speed>
</trkpt>
<trkpt lat="21.046001" lon="105.811043">
<ele>27.372330</ele>
<time>2011-04-29T10:56:50Z</time>
<desc>lat.=21.046001, lon.=105.811043, Alt.=27.372330m. Speed=8.064000m/h.</desc>
<speed>2.240000</speed>
</trkpt>
<trkpt lat="21.045942" lon="105.811150">
<ele>27.929947</ele>
<time>2011-04-29T10:56:55Z</time>
<desc>lat.=21.045942, lon.=105.811150, Alt.=27.929947m. Speed=4.968000m/h.</desc>
<speed>1.380000</speed>
</trkpt>
<trkpt lat="21.045877" lon="105.811256">
<ele>29.952408</ele>
<time>2011-04-29T10:57:00Z</time>
<desc>lat.=21.045877, lon.=105.811256, Alt.=29.952408m. Speed=11.160000m/h.</desc>
<speed>3.100000</speed>
</trkpt>
<trkpt lat="21.045782" lon="105.811386">
<ele>31.500259</ele>
<time>2011-04-29T10:57:05Z</time>
<desc>lat.=21.045782, lon.=105.811386, Alt.=31.500259m. Speed=6.372000m/h.</desc>
<speed>1.770000</speed>
</trkpt>
<trkpt lat="21.045654" lon="105.811539">
<ele>34.526886</ele>
<time>2011-04-29T10:57:10Z</time>
<desc>lat.=21.045654, lon.=105.811539, Alt.=34.526886m. Speed=14.544000m/h.</desc>
<speed>4.040000</speed>
</trkpt>
<trkpt lat="21.045504" lon="105.811737">
<ele>37.714386</ele>
<time>2011-04-29T10:57:15Z</time>
<desc>lat.=21.045504, lon.=105.811737, Alt.=37.714386m. Speed=15.444000m/h.</desc>
<speed>4.290000</speed>
</trkpt>
<trkpt lat="21.045364" lon="105.811913">
<ele>37.664581</ele>
<time>2011-04-29T10:57:20Z</time>
<desc>lat.=21.045364, lon.=105.811913, Alt.=37.664581m. Speed=14.436000m/h.</desc>
<speed>4.010000</speed>
</trkpt>
<trkpt lat="21.045223" lon="105.812042">
<ele>39.696808</ele>
<time>2011-04-29T10:57:25Z</time>
<desc>lat.=21.045223, lon.=105.812042, Alt.=39.696808m. Speed=14.976000m/h.</desc>
<speed>4.160000</speed>
</trkpt>
<trkpt lat="21.045099" lon="105.812195">
<ele>41.837433</ele>
<time>2011-04-29T10:57:30Z</time>
<desc>lat.=21.045099, lon.=105.812195, Alt.=41.837433m. Speed=14.040000m/h.</desc>
<speed>3.900000</speed>
</trkpt>
<trkpt lat="21.044939" lon="105.812340">
<ele>45.808136</ele>
<time>2011-04-29T10:57:35Z</time>
<desc>lat.=21.044939, lon.=105.812340, Alt.=45.808136m. Speed=13.824000m/h.</desc>
<speed>3.840000</speed>
</trkpt>
<trkpt lat="21.044758" lon="105.812508">
<ele>46.246613</ele>
<time>2011-04-29T10:57:40Z</time>
<desc>lat.=21.044758, lon.=105.812508, Alt.=46.246613m. Speed=15.840000m/h.</desc>
<speed>4.400000</speed>
</trkpt>
<trkpt lat="21.044586" lon="105.812683">
<ele>48.497589</ele>
<time>2011-04-29T10:57:45Z</time>
<desc>lat.=21.044586, lon.=105.812683, Alt.=48.497589m. Speed=16.379999m/h.</desc>
<speed>4.550000</speed>
</trkpt>
<trkpt lat="21.044369" lon="105.812851">
<ele>45.739777</ele>
<time>2011-04-29T10:57:50Z</time>
<desc>lat.=21.044369, lon.=105.812851, Alt.=45.739777m. Speed=17.459999m/h.</desc>
<speed>4.850000</speed>
</trkpt>
<trkpt lat="21.044163" lon="105.812988">
<ele>39.478058</ele>
<time>2011-04-29T10:57:55Z</time>
<desc>lat.=21.044163, lon.=105.812988, Alt.=39.478058m. Speed=14.688000m/h.</desc>
<speed>4.080000</speed>
</trkpt>
<trkpt lat="21.044008" lon="105.813095">
<ele>37.113800</ele>
<time>2011-04-29T10:58:00Z</time>
<desc>lat.=21.044008, lon.=105.813095, Alt.=37.113800m. Speed=13.572000m/h.</desc>
<speed>3.770000</speed>
</trkpt>
<trkpt lat="21.043818" lon="105.813316">
<ele>34.242706</ele>
<time>2011-04-29T10:58:05Z</time>
<desc>lat.=21.043818, lon.=105.813316, Alt.=34.242706m. Speed=21.348000m/h.</desc>
<speed>5.930000</speed>
</trkpt>
<trkpt lat="21.043615" lon="105.813576">
<ele>31.987564</ele>
<time>2011-04-29T10:58:10Z</time>
<desc>lat.=21.043615, lon.=105.813576, Alt.=31.987564m. Speed=19.872000m/h.</desc>
<speed>5.520000</speed>
</trkpt>
<trkpt lat="21.043459" lon="105.813805">
<ele>29.927505</ele>
<time>2011-04-29T10:58:15Z</time>
<desc>lat.=21.043459, lon.=105.813805, Alt.=29.927505m. Speed=14.904000m/h.</desc>
<speed>4.140000</speed>
</trkpt>
<trkpt lat="21.043348" lon="105.813988">
<ele>29.178970</ele>
<time>2011-04-29T10:58:20Z</time>
<desc>lat.=21.043348, lon.=105.813988, Alt.=29.178970m. Speed=14.904000m/h.</desc>
<speed>4.140000</speed>
</trkpt>
<trkpt lat="21.043209" lon="105.814186">
<ele>27.388443</ele>
<time>2011-04-29T10:58:25Z</time>
<desc>lat.=21.043209, lon.=105.814186, Alt.=27.388443m. Speed=15.840000m/h.</desc>
<speed>4.400000</speed>
</trkpt>
<trkpt lat="21.043087" lon="105.814384">
<ele>26.356705</ele>
<time>2011-04-29T10:58:30Z</time>
<desc>lat.=21.043087, lon.=105.814384, Alt.=26.356705m. Speed=10.548000m/h.</desc>
<speed>2.930000</speed>
</trkpt>
<trkpt lat="21.042971" lon="105.814560">
<ele>28.797134</ele>
<time>2011-04-29T10:58:35Z</time>
<desc>lat.=21.042971, lon.=105.814560, Alt.=28.797134m. Speed=9.504000m/h.</desc>
<speed>2.640000</speed>
</trkpt>
<trkpt lat="21.042915" lon="105.814720">
<ele>29.174088</ele>
<time>2011-04-29T10:58:40Z</time>
<desc>lat.=21.042915, lon.=105.814720, Alt.=29.174088m. Speed=12.276000m/h.</desc>
<speed>3.410000</speed>
</trkpt>
<trkpt lat="21.042831" lon="105.814903">
<ele>26.960709</ele>
<time>2011-04-29T10:58:45Z</time>
<desc>lat.=21.042831, lon.=105.814903, Alt.=26.960709m. Speed=11.376000m/h.</desc>
<speed>3.160000</speed>
</trkpt>
<trkpt lat="21.042772" lon="105.815041">
<ele>25.842545</ele>
<time>2011-04-29T10:58:50Z</time>
<desc>lat.=21.042772, lon.=105.815041, Alt.=25.842545m. Speed=9.792000m/h.</desc>
<speed>2.720000</speed>
</trkpt>
<trkpt lat="21.042723" lon="105.815132">
<ele>24.517838</ele>
<time>2011-04-29T10:58:55Z</time>
<desc>lat.=21.042723, lon.=105.815132, Alt.=24.517838m. Speed=5.940000m/h.</desc>
<speed>1.650000</speed>
</trkpt>
<trkpt lat="21.042660" lon="105.815239">
<ele>24.748306</ele>
<time>2011-04-29T10:59:00Z</time>
<desc>lat.=21.042660, lon.=105.815239, Alt.=24.748306m. Speed=10.260000m/h.</desc>
<speed>2.850000</speed>
</trkpt>
<trkpt lat="21.042608" lon="105.815399">
<ele>22.676529</ele>
<time>2011-04-29T10:59:05Z</time>
<desc>lat.=21.042608, lon.=105.815399, Alt.=22.676529m. Speed=13.752000m/h.</desc>
<speed>3.820000</speed>
</trkpt>
<trkpt lat="21.042543" lon="105.815575">
<ele>21.514908</ele>
<time>2011-04-29T10:59:10Z</time>
<desc>lat.=21.042543, lon.=105.815575, Alt.=21.514908m. Speed=11.088000m/h.</desc>
<speed>3.080000</speed>
</trkpt>
<trkpt lat="21.042486" lon="105.815712">
<ele>21.131607</ele>
<time>2011-04-29T10:59:15Z</time>
<desc>lat.=21.042486, lon.=105.815712, Alt.=21.131607m. Speed=9.288000m/h.</desc>
<speed>2.580000</speed>
</trkpt>
<trkpt lat="21.042440" lon="105.815826">
<ele>20.795181</ele>
<time>2011-04-29T10:59:20Z</time>
<desc>lat.=21.042440, lon.=105.815826, Alt.=20.795181m. Speed=4.608000m/h.</desc>
<speed>1.280000</speed>
</trkpt>
<trkpt lat="21.042433" lon="105.815834">
<ele>20.027603</ele>
<time>2011-04-29T10:59:25Z</time>
<desc>lat.=21.042433, lon.=105.815834, Alt.=20.027603m. Speed=0.036000m/h.</desc>
<speed>0.010000</speed>
</trkpt>
<trkpt lat="21.042433" lon="105.815842">
<ele>20.020767</ele>
<time>2011-04-29T10:59:30Z</time>
<desc>lat.=21.042433, lon.=105.815842, Alt.=20.020767m. Speed=0.504000m/h.</desc>
<speed>0.140000</speed>
</trkpt>
<trkpt lat="21.042433" lon="105.815849">
<ele>20.268814</ele>
<time>2011-04-29T10:59:35Z</time>
<desc>lat.=21.042433, lon.=105.815849, Alt.=20.268814m. Speed=0.144000m/h.</desc>
<speed>0.040000</speed>
</trkpt>
<trkpt lat="21.042435" lon="105.815849">
<ele>20.386978</ele>
<time>2011-04-29T10:59:40Z</time>
<desc>lat.=21.042435, lon.=105.815849, Alt.=20.386978m. Speed=0.072000m/h.</desc>
<speed>0.020000</speed>
</trkpt>
<trkpt lat="21.042435" lon="105.815849">
<ele>20.424576</ele>
<time>2011-04-29T10:59:45Z</time>
<desc>lat.=21.042435, lon.=105.815849, Alt.=20.424576m. Speed=0.036000m/h.</desc>
<speed>0.010000</speed>
</trkpt>
<trkpt lat="21.042435" lon="105.815849">
<ele>20.424576</ele>
<time>2011-04-29T10:59:50Z</time>
<desc>lat.=21.042435, lon.=105.815849, Alt.=20.424576m. Speed=0.144000m/h.</desc>
<speed>0.040000</speed>
</trkpt>
<trkpt lat="21.042433" lon="105.815857">
<ele>20.348404</ele>
<time>2011-04-29T10:59:55Z</time>
<desc>lat.=21.042433, lon.=105.815857, Alt.=20.348404m. Speed=4.680000m/h.</desc>
<speed>1.300000</speed>
</trkpt>
<trkpt lat="21.042387" lon="105.815971">
<ele>18.156021</ele>
<time>2011-04-29T11:00:00Z</time>
<desc>lat.=21.042387, lon.=105.815971, Alt.=18.156021m. Speed=8.028000m/h.</desc>
<speed>2.230000</speed>
</trkpt>
<trkpt lat="21.042332" lon="105.816063">
<ele>17.680923</ele>
<time>2011-04-29T11:00:05Z</time>
<desc>lat.=21.042332, lon.=105.816063, Alt.=17.680923m. Speed=6.624000m/h.</desc>
<speed>1.840000</speed>
</trkpt>
<trkpt lat="21.042267" lon="105.816116">
<ele>15.841438</ele>
<time>2011-04-29T11:00:10Z</time>
<desc>lat.=21.042267, lon.=105.816116, Alt.=15.841438m. Speed=4.500000m/h.</desc>
<speed>1.250000</speed>
</trkpt>
<trkpt lat="21.042225" lon="105.816147">
<ele>14.025520</ele>
<time>2011-04-29T11:00:15Z</time>
<desc>lat.=21.042225, lon.=105.816147, Alt.=14.025520m. Speed=1.980000m/h.</desc>
<speed>0.550000</speed>
</trkpt>
<trkpt lat="21.042223" lon="105.816139">
<ele>12.988899</ele>
<time>2011-04-29T11:00:20Z</time>
<desc>lat.=21.042223, lon.=105.816139, Alt.=12.988899m. Speed=0.180000m/h.</desc>
<speed>0.050000</speed>
</trkpt>
<trkpt lat="21.042223" lon="105.816139">
<ele>12.917854</ele>
<time>2011-04-29T11:00:25Z</time>
<desc>lat.=21.042223, lon.=105.816139, Alt.=12.917854m. Speed=0.144000m/h.</desc>
<speed>0.040000</speed>
</trkpt>
<trkpt lat="21.042208" lon="105.816147">
<ele>12.208870</ele>
<time>2011-04-29T11:00:30Z</time>
<desc>lat.=21.042208, lon.=105.816147, Alt.=12.208870m. Speed=5.580000m/h.</desc>
<speed>1.550000</speed>
</trkpt>
<trkpt lat="21.042105" lon="105.816208">
<ele>11.133186</ele>
<time>2011-04-29T11:00:35Z</time>
<desc>lat.=21.042105, lon.=105.816208, Alt.=11.133186m. Speed=13.032000m/h.</desc>
<speed>3.620000</speed>
</trkpt>
<trkpt lat="21.041971" lon="105.816254">
<ele>11.491585</ele>
<time>2011-04-29T11:00:40Z</time>
<desc>lat.=21.041971, lon.=105.816254, Alt.=11.491585m. Speed=9.144000m/h.</desc>
<speed>2.540000</speed>
</trkpt>
<trkpt lat="21.041836" lon="105.816208">
<ele>11.705208</ele>
<time>2011-04-29T11:00:45Z</time>
<desc>lat.=21.041836, lon.=105.816208, Alt.=11.705208m. Speed=11.736000m/h.</desc>
<speed>3.260000</speed>
</trkpt>
<trkpt lat="21.041714" lon="105.816177">
<ele>12.208626</ele>
<time>2011-04-29T11:00:50Z</time>
<desc>lat.=21.041714, lon.=105.816177, Alt.=12.208626m. Speed=8.532000m/h.</desc>
<speed>2.370000</speed>
</trkpt>
<trkpt lat="21.041618" lon="105.816162">
<ele>11.513313</ele>
<time>2011-04-29T11:00:55Z</time>
<desc>lat.=21.041618, lon.=105.816162, Alt.=11.513313m. Speed=5.652000m/h.</desc>
<speed>1.570000</speed>
</trkpt>
<trkpt lat="21.041540" lon="105.816147">
<ele>10.913460</ele>
<time>2011-04-29T11:01:00Z</time>
<desc>lat.=21.041540, lon.=105.816147, Alt.=10.913460m. Speed=6.876000m/h.</desc>
<speed>1.910000</speed>
</trkpt>
<trkpt lat="21.041447" lon="105.816101">
<ele>10.683235</ele>
<time>2011-04-29T11:01:05Z</time>
<desc>lat.=21.041447, lon.=105.816101, Alt.=10.683235m. Speed=7.776000m/h.</desc>
<speed>2.160000</speed>
</trkpt>
<trkpt lat="21.041374" lon="105.816071">
<ele>8.889046</ele>
<time>2011-04-29T11:01:10Z</time>
<desc>lat.=21.041374, lon.=105.816071, Alt.=8.889046m. Speed=4.860000m/h.</desc>
<speed>1.350000</speed>
</trkpt>
<trkpt lat="21.041319" lon="105.816017">
<ele>6.432926</ele>
<time>2011-04-29T11:01:15Z</time>
<desc>lat.=21.041319, lon.=105.816017, Alt.=6.432926m. Speed=2.880000m/h.</desc>
<speed>0.800000</speed>
</trkpt>
<trkpt lat="21.041311" lon="105.816002">
<ele>4.996891</ele>
<time>2011-04-29T11:01:20Z</time>
<desc>lat.=21.041311, lon.=105.816002, Alt.=4.996891m. Speed=0.216000m/h.</desc>
<speed>0.060000</speed>
</trkpt>
<trkpt lat="21.041313" lon="105.815994">
<ele>5.282169</ele>
<time>2011-04-29T11:01:25Z</time>
<desc>lat.=21.041313, lon.=105.815994, Alt.=5.282169m. Speed=0.252000m/h.</desc>
<speed>0.070000</speed>
</trkpt>
<trkpt lat="21.041309" lon="105.815987">
<ele>4.972721</ele>
<time>2011-04-29T11:01:30Z</time>
<desc>lat.=21.041309, lon.=105.815987, Alt.=4.972721m. Speed=0.540000m/h.</desc>
<speed>0.150000</speed>
</trkpt>
<trkpt lat="21.041309" lon="105.815979">
<ele>4.628117</ele>
<time>2011-04-29T11:01:35Z</time>
<desc>lat.=21.041309, lon.=105.815979, Alt.=4.628117m. Speed=0.108000m/h.</desc>
<speed>0.030000</speed>
</trkpt>
<trkpt lat="21.041309" lon="105.815971">
<ele>5.589298</ele>
<time>2011-04-29T11:01:40Z</time>
<desc>lat.=21.041309, lon.=105.815971, Alt.=5.589298m. Speed=1.332000m/h.</desc>
<speed>0.370000</speed>
</trkpt>
<trkpt lat="21.041311" lon="105.815926">
<ele>5.749699</ele>
<time>2011-04-29T11:01:45Z</time>
<desc>lat.=21.041311, lon.=105.815926, Alt.=5.749699m. Speed=4.536000m/h.</desc>
<speed>1.260000</speed>
</trkpt>
<trkpt lat="21.041319" lon="105.815895">
<ele>5.714054</ele>
<time>2011-04-29T11:01:50Z</time>
<desc>lat.=21.041319, lon.=105.815895, Alt.=5.714054m. Speed=0.972000m/h.</desc>
<speed>0.270000</speed>
</trkpt>
<trkpt lat="21.041313" lon="105.815849">
<ele>5.486271</ele>
<time>2011-04-29T11:01:55Z</time>
<desc>lat.=21.041313, lon.=105.815849, Alt.=5.486271m. Speed=2.880000m/h.</desc>
<speed>0.800000</speed>
</trkpt>
<trkpt lat="21.041292" lon="105.815750">
<ele>6.789860</ele>
<time>2011-04-29T11:02:00Z</time>
<desc>lat.=21.041292, lon.=105.815750, Alt.=6.789860m. Speed=4.824000m/h.</desc>
<speed>1.340000</speed>
</trkpt>
<trkpt lat="21.041265" lon="105.815712">
<ele>9.524788</ele>
<time>2011-04-29T11:02:05Z</time>
<desc>lat.=21.041265, lon.=105.815712, Alt.=9.524788m. Speed=4.968000m/h.</desc>
<speed>1.380000</speed>
</trkpt>
<trkpt lat="21.041267" lon="105.815598">
<ele>10.558479</ele>
<time>2011-04-29T11:02:10Z</time>
<desc>lat.=21.041267, lon.=105.815598, Alt.=10.558479m. Speed=9.468000m/h.</desc>
<speed>2.630000</speed>
</trkpt>
<trkpt lat="21.041283" lon="105.815445">
<ele>12.505501</ele>
<time>2011-04-29T11:02:15Z</time>
<desc>lat.=21.041283, lon.=105.815445, Alt.=12.505501m. Speed=9.432000m/h.</desc>
<speed>2.620000</speed>
</trkpt>
<trkpt lat="21.041294" lon="105.815323">
<ele>12.325325</ele>
<time>2011-04-29T11:02:20Z</time>
<desc>lat.=21.041294, lon.=105.815323, Alt.=12.325325m. Speed=8.208000m/h.</desc>
<speed>2.280000</speed>
</trkpt>
<trkpt lat="21.041349" lon="105.815292">
<ele>14.179573</ele>
<time>2011-04-29T11:02:25Z</time>
<desc>lat.=21.041349, lon.=105.815292, Alt.=14.179573m. Speed=4.968000m/h.</desc>
<speed>1.380000</speed>
</trkpt>
<trkpt lat="21.041395" lon="105.815308">
<ele>15.772591</ele>
<time>2011-04-29T11:02:30Z</time>
<desc>lat.=21.041395, lon.=105.815308, Alt.=15.772591m. Speed=3.132000m/h.</desc>
<speed>0.870000</speed>
</trkpt>
<trkpt lat="21.041464" lon="105.815277">
<ele>17.551041</ele>
<time>2011-04-29T11:02:35Z</time>
<desc>lat.=21.041464, lon.=105.815277, Alt.=17.551041m. Speed=2.952000m/h.</desc>
<speed>0.820000</speed>
</trkpt>
<trkpt lat="21.041534" lon="105.815201">
<ele>20.729263</ele>
<time>2011-04-29T11:02:40Z</time>
<desc>lat.=21.041534, lon.=105.815201, Alt.=20.729263m. Speed=2.484000m/h.</desc>
<speed>0.690000</speed>
</trkpt>
<trkpt lat="21.041559" lon="105.815208">
<ele>21.849380</ele>
<time>2011-04-29T11:02:45Z</time>
<desc>lat.=21.041559, lon.=105.815208, Alt.=21.849380m. Speed=1.764000m/h.</desc>
<speed>0.490000</speed>
</trkpt>
<trkpt lat="21.041571" lon="105.815201">
<ele>23.354263</ele>
<time>2011-04-29T11:02:50Z</time>
<desc>lat.=21.041571, lon.=105.815201, Alt.=23.354263m. Speed=1.368000m/h.</desc>
<speed>0.380000</speed>
</trkpt>
<trkpt lat="21.041592" lon="105.815224">
<ele>24.419205</ele>
<time>2011-04-29T11:02:55Z</time>
<desc>lat.=21.041592, lon.=105.815224, Alt.=24.419205m. Speed=1.152000m/h.</desc>
<speed>0.320000</speed>
</trkpt>
<trkpt lat="21.041597" lon="105.815239">
<ele>25.525650</ele>
<time>2011-04-29T11:03:00Z</time>
<desc>lat.=21.041597, lon.=105.815239, Alt.=25.525650m. Speed=0.828000m/h.</desc>
<speed>0.230000</speed>
</trkpt>
<trkpt lat="21.041586" lon="105.815239">
<ele>26.457291</ele>
<time>2011-04-29T11:03:05Z</time>
<desc>lat.=21.041586, lon.=105.815239, Alt.=26.457291m. Speed=0.144000m/h.</desc>
<speed>0.040000</speed>
</trkpt>
<trkpt lat="21.041580" lon="105.815269">
<ele>27.057877</ele>
<time>2011-04-29T11:03:10Z</time>
<desc>lat.=21.041580, lon.=105.815269, Alt.=27.057877m. Speed=1.404000m/h.</desc>
<speed>0.390000</speed>
</trkpt>
<trkpt lat="21.041563" lon="105.815285">
<ele>28.122818</ele>
<time>2011-04-29T11:03:15Z</time>
<desc>lat.=21.041563, lon.=105.815285, Alt.=28.122818m. Speed=1.008000m/h.</desc>
<speed>0.280000</speed>
</trkpt>
<trkpt lat="21.041586" lon="105.815277">
<ele>28.483658</ele>
<time>2011-04-29T11:03:20Z</time>
<desc>lat.=21.041586, lon.=105.815277, Alt.=28.483658m. Speed=0.972000m/h.</desc>
<speed>0.270000</speed>
</trkpt>
<trkpt lat="21.041618" lon="105.815300">
<ele>28.793228</ele>
<time>2011-04-29T11:03:25Z</time>
<desc>lat.=21.041618, lon.=105.815300, Alt.=28.793228m. Speed=1.548000m/h.</desc>
<speed>0.430000</speed>
</trkpt>
<trkpt lat="21.041662" lon="105.815216">
<ele>29.961197</ele>
<time>2011-04-29T11:03:30Z</time>
<desc>lat.=21.041662, lon.=105.815216, Alt.=29.961197m. Speed=0.648000m/h.</desc>
<speed>0.180000</speed>
</trkpt>
<trkpt lat="21.041658" lon="105.815216">
<ele>30.004654</ele>
<time>2011-04-29T11:03:35Z</time>
<desc>lat.=21.041658, lon.=105.815216, Alt.=30.004654m. Speed=0.756000m/h.</desc>
<speed>0.210000</speed>
</trkpt>
<trkpt lat="21.041677" lon="105.815193">
<ele>30.105728</ele>
<time>2011-04-29T11:03:40Z</time>
<desc>lat.=21.041677, lon.=105.815193, Alt.=30.105728m. Speed=1.620000m/h.</desc>
<speed>0.450000</speed>
</trkpt>
<trkpt lat="21.041698" lon="105.815178">
<ele>30.097427</ele>
<time>2011-04-29T11:03:45Z</time>
<desc>lat.=21.041698, lon.=105.815178, Alt.=30.097427m. Speed=1.872000m/h.</desc>
<speed>0.520000</speed>
</trkpt>
</trkseg>
</trk>
</gpx>